<?xml version="1.0"?>
<gpx
 version="1.1"
 creator="Satmap Active 20"
 xmlns:xsi="http://www.w3.org/2001/XMLSchema-instance"
 xmlns="http://www.topografix.com/GPX/1/1"
 xmlns:satmap="http://www.satmap.com/updates/xmlschemas/GpxExtensions/v2/GpxExtensions_v2.xsd"
 xsi:schemaLocation="http://www.topografix.com/GPX/1/1 http://www.topografix.com/GPX/1/1/gpx.xsd">
<metadata>
<time>2022-09-06T10:52:05Z</time>
<extensions>
<satmap:platform>43</satmap:platform>
<satmap:software version="3.13.037">SM15.exe</satmap:software>
<satmap:username>pieter metz</satmap:username>
<satmap:network_ids>
<satmap:network_id type="wifi">00-23-A7-CA-E3-5C</satmap:network_id>
<satmap:network_id type="bluetooth">80-BB-EB-78-4F-29</satmap:network_id>
</satmap:network_ids>
<satmap:snap_type>simple</satmap:snap_type>
</extensions>
</metadata>
<trk>
<name>2022-09-06_1052</name>
<desc>Track 1</desc>
<number>1</number>
<trkseg>
<trkpt lat="52.685127" lon="06.004685"><ele>-6.4</ele><time>2022-09-06T10:52:05Z</time><name>PT1</name></trkpt>
<trkpt lat="52.685127" lon="06.004691"><ele>-6.7</ele><time>2022-09-06T10:52:12Z</time><name>PT2</name></trkpt>
<trkpt lat="52.685126" lon="06.004689"><ele>-6.8</ele><time>2022-09-06T10:52:12Z</time><name>PT3</name></trkpt>
<trkpt lat="52.685124" lon="06.004688"><ele>-6.6</ele><time>2022-09-06T10:52:14Z</time><name>PT4</name></trkpt>
<trkpt lat="52.685125" lon="06.004686"><ele>-6.4</ele><time>2022-09-06T10:52:15Z</time><name>PT5</name></trkpt>
<trkpt lat="52.685124" lon="06.004681"><ele>-6.4</ele><time>2022-09-06T10:52:15Z</time><name>PT6</name></trkpt>
<trkpt lat="52.685122" lon="06.004678"><ele>-6.1</ele><time>2022-09-06T10:52:17Z</time><name>PT7</name></trkpt>
<trkpt lat="52.685123" lon="06.004676"><ele>-6.1</ele><time>2022-09-06T10:52:18Z</time><name>PT8</name></trkpt>
<trkpt lat="52.685125" lon="06.004674"><ele>-6</ele><time>2022-09-06T10:52:18Z</time><name>PT9</name></trkpt>
<trkpt lat="52.685129" lon="06.004673"><ele>-6.1</ele><time>2022-09-06T10:52:20Z</time><name>PT10</name></trkpt>
<trkpt lat="52.685130" lon="06.004673"><ele>-6.5</ele><time>2022-09-06T10:52:24Z</time><name>PT11</name></trkpt>
<trkpt lat="52.685135" lon="06.004683"><ele>-6.6</ele><time>2022-09-06T10:52:24Z</time><name>PT12</name></trkpt>
<trkpt lat="52.685141" lon="06.004693"><ele>-6.5</ele><time>2022-09-06T10:52:26Z</time><name>PT13</name></trkpt>
<trkpt lat="52.685147" lon="06.004703"><ele>-6.6</ele><time>2022-09-06T10:52:27Z</time><name>PT14</name></trkpt>
<trkpt lat="52.685153" lon="06.004711"><ele>-6.5</ele><time>2022-09-06T10:52:27Z</time><name>PT15</name></trkpt>
<trkpt lat="52.685157" lon="06.004719"><ele>-6.3</ele><time>2022-09-06T10:52:29Z</time><name>PT16</name></trkpt>
<trkpt lat="52.685163" lon="06.004722"><ele>-6</ele><time>2022-09-06T10:52:30Z</time><name>PT17</name></trkpt>
<trkpt lat="52.685171" lon="06.004729"><ele>-6</ele><time>2022-09-06T10:52:30Z</time><name>PT18</name></trkpt>
<trkpt lat="52.685177" lon="06.004739"><ele>-5.9</ele><time>2022-09-06T10:52:32Z</time><name>PT19</name></trkpt>
<trkpt lat="52.685183" lon="06.004751"><ele>-6.3</ele><time>2022-09-06T10:52:33Z</time><name>PT20</name></trkpt>
<trkpt lat="52.685190" lon="06.004763"><ele>-6.4</ele><time>2022-09-06T10:52:33Z</time><name>PT21</name></trkpt>
<trkpt lat="52.685195" lon="06.004773"><ele>-6.4</ele><time>2022-09-06T10:52:35Z</time><name>PT22</name></trkpt>
<trkpt lat="52.685199" lon="06.004784"><ele>-6.6</ele><time>2022-09-06T10:52:36Z</time><name>PT23</name></trkpt>
<trkpt lat="52.685206" lon="06.004805"><ele>-6.6</ele><time>2022-09-06T10:52:36Z</time><name>PT24</name></trkpt>
<trkpt lat="52.685216" lon="06.004819"><ele>-6.4</ele><time>2022-09-06T10:52:38Z</time><name>PT25</name></trkpt>
<trkpt lat="52.685223" lon="06.004824"><ele>-6.4</ele><time>2022-09-06T10:52:39Z</time><name>PT26</name></trkpt>
<trkpt lat="52.685229" lon="06.004830"><ele>-6.4</ele><time>2022-09-06T10:52:39Z</time><name>PT27</name></trkpt>
<trkpt lat="52.685234" lon="06.004843"><ele>-6.5</ele><time>2022-09-06T10:52:41Z</time><name>PT28</name></trkpt>
<trkpt lat="52.685242" lon="06.004859"><ele>-6.6</ele><time>2022-09-06T10:52:42Z</time><name>PT29</name></trkpt>
<trkpt lat="52.685249" lon="06.004873"><ele>-6.7</ele><time>2022-09-06T10:52:42Z</time><name>PT30</name></trkpt>
<trkpt lat="52.685253" lon="06.004883"><ele>-6.5</ele><time>2022-09-06T10:52:44Z</time><name>PT31</name></trkpt>
<trkpt lat="52.685258" lon="06.004892"><ele>-6.6</ele><time>2022-09-06T10:52:45Z</time><name>PT32</name></trkpt>
<trkpt lat="52.685264" lon="06.004905"><ele>-6.5</ele><time>2022-09-06T10:52:45Z</time><name>PT33</name></trkpt>
<trkpt lat="52.685271" lon="06.004917"><ele>-6.5</ele><time>2022-09-06T10:52:47Z</time><name>PT34</name></trkpt>
<trkpt lat="52.685280" lon="06.004927"><ele>-6.5</ele><time>2022-09-06T10:52:48Z</time><name>PT35</name></trkpt>
<trkpt lat="52.685285" lon="06.004929"><ele>-6.4</ele><time>2022-09-06T10:52:48Z</time><name>PT36</name></trkpt>
<trkpt lat="52.685287" lon="06.004932"><ele>-6.4</ele><time>2022-09-06T10:52:50Z</time><name>PT37</name></trkpt>
<trkpt lat="52.685290" lon="06.004940"><ele>-6.5</ele><time>2022-09-06T10:52:51Z</time><name>PT38</name></trkpt>
<trkpt lat="52.685298" lon="06.004955"><ele>-6.5</ele><time>2022-09-06T10:52:51Z</time><name>PT39</name></trkpt>
<trkpt lat="52.685307" lon="06.004967"><ele>-6.8</ele><time>2022-09-06T10:52:53Z</time><name>PT40</name></trkpt>
<trkpt lat="52.685314" lon="06.004978"><ele>-6.7</ele><time>2022-09-06T10:52:54Z</time><name>PT41</name></trkpt>
<trkpt lat="52.685317" lon="06.004982"><ele>-6.6</ele><time>2022-09-06T10:52:54Z</time><name>PT42</name></trkpt>
<trkpt lat="52.685321" lon="06.004989"><ele>-6.6</ele><time>2022-09-06T10:52:56Z</time><name>PT43</name></trkpt>
<trkpt lat="52.685329" lon="06.005002"><ele>-6.6</ele><time>2022-09-06T10:52:57Z</time><name>PT44</name></trkpt>
<trkpt lat="52.685338" lon="06.005015"><ele>-6.7</ele><time>2022-09-06T10:52:57Z</time><name>PT45</name></trkpt>
<trkpt lat="52.685345" lon="06.005027"><ele>-6.9</ele><time>2022-09-06T10:52:59Z</time><name>PT46</name></trkpt>
<trkpt lat="52.685351" lon="06.005036"><ele>-6.9</ele><time>2022-09-06T10:53:00Z</time><name>PT47</name></trkpt>
<trkpt lat="52.685358" lon="06.005051"><ele>-6.9</ele><time>2022-09-06T10:53:00Z</time><name>PT48</name></trkpt>
<trkpt lat="52.685364" lon="06.005062"><ele>-7</ele><time>2022-09-06T10:53:02Z</time><name>PT49</name></trkpt>
<trkpt lat="52.685368" lon="06.005069"><ele>-6.9</ele><time>2022-09-06T10:53:03Z</time><name>PT50</name></trkpt>
<trkpt lat="52.685372" lon="06.005074"><ele>-6.9</ele><time>2022-09-06T10:53:03Z</time><name>PT51</name></trkpt>
<trkpt lat="52.685377" lon="06.005082"><ele>-7</ele><time>2022-09-06T10:53:05Z</time><name>PT52</name></trkpt>
<trkpt lat="52.685383" lon="06.005094"><ele>-6.9</ele><time>2022-09-06T10:53:06Z</time><name>PT53</name></trkpt>
<trkpt lat="52.685387" lon="06.005108"><ele>-6.9</ele><time>2022-09-06T10:53:06Z</time><name>PT54</name></trkpt>
<trkpt lat="52.685392" lon="06.005114"><ele>-6.9</ele><time>2022-09-06T10:53:08Z</time><name>PT55</name></trkpt>
<trkpt lat="52.685394" lon="06.005117"><ele>-6.8</ele><time>2022-09-06T10:53:09Z</time><name>PT56</name></trkpt>
<trkpt lat="52.685399" lon="06.005121"><ele>-6.8</ele><time>2022-09-06T10:53:09Z</time><name>PT57</name></trkpt>
<trkpt lat="52.685402" lon="06.005123"><ele>-6.9</ele><time>2022-09-06T10:53:11Z</time><name>PT58</name></trkpt>
<trkpt lat="52.685403" lon="06.005125"><ele>-6.7</ele><time>2022-09-06T10:53:12Z</time><name>PT59</name></trkpt>
<trkpt lat="52.685404" lon="06.005126"><ele>-6.8</ele><time>2022-09-06T10:53:12Z</time><name>PT60</name></trkpt>
<trkpt lat="52.685407" lon="06.005123"><ele>-6.7</ele><time>2022-09-06T10:53:14Z</time><name>PT61</name></trkpt>
<trkpt lat="52.685409" lon="06.005122"><ele>-6.4</ele><time>2022-09-06T10:53:15Z</time><name>PT62</name></trkpt>
<trkpt lat="52.685410" lon="06.005121"><ele>-6.4</ele><time>2022-09-06T10:53:16Z</time><name>PT63</name></trkpt>
<trkpt lat="52.685411" lon="06.005118"><ele>-6.4</ele><time>2022-09-06T10:53:17Z</time><name>PT64</name></trkpt>
<trkpt lat="52.685413" lon="06.005119"><ele>-6.3</ele><time>2022-09-06T10:53:18Z</time><name>PT65</name></trkpt>
<trkpt lat="52.685416" lon="06.005121"><ele>-6.4</ele><time>2022-09-06T10:53:18Z</time><name>PT66</name></trkpt>
<trkpt lat="52.685419" lon="06.005117"><ele>-6.3</ele><time>2022-09-06T10:53:20Z</time><name>PT67</name></trkpt>
<trkpt lat="52.685421" lon="06.005111"><ele>-6.3</ele><time>2022-09-06T10:53:21Z</time><name>PT68</name></trkpt>
<trkpt lat="52.685422" lon="06.005107"><ele>-6.4</ele><time>2022-09-06T10:53:21Z</time><name>PT69</name></trkpt>
<trkpt lat="52.685423" lon="06.005105"><ele>-6.4</ele><time>2022-09-06T10:53:23Z</time><name>PT70</name></trkpt>
<trkpt lat="52.685424" lon="06.005099"><ele>-6.5</ele><time>2022-09-06T10:53:24Z</time><name>PT71</name></trkpt>
<trkpt lat="52.685425" lon="06.005092"><ele>-6.5</ele><time>2022-09-06T10:53:24Z</time><name>PT72</name></trkpt>
<trkpt lat="52.685424" lon="06.005087"><ele>-6.4</ele><time>2022-09-06T10:53:26Z</time><name>PT73</name></trkpt>
<trkpt lat="52.685419" lon="06.005083"><ele>-6.4</ele><time>2022-09-06T10:53:27Z</time><name>PT74</name></trkpt>
<trkpt lat="52.685416" lon="06.005083"><ele>-6.4</ele><time>2022-09-06T10:53:27Z</time><name>PT75</name></trkpt>
<trkpt lat="52.685415" lon="06.005085"><ele>-6.3</ele><time>2022-09-06T10:53:29Z</time><name>PT76</name></trkpt>
<trkpt lat="52.685416" lon="06.005084"><ele>-6.2</ele><time>2022-09-06T10:53:30Z</time><name>PT77</name></trkpt>
<trkpt lat="52.685416" lon="06.005081"><ele>-6.2</ele><time>2022-09-06T10:53:30Z</time><name>PT78</name></trkpt>
<trkpt lat="52.685415" lon="06.005080"><ele>-6.1</ele><time>2022-09-06T10:53:32Z</time><name>PT79</name></trkpt>
<trkpt lat="52.685416" lon="06.005084"><ele>-6.1</ele><time>2022-09-06T10:53:33Z</time><name>PT80</name></trkpt>
<trkpt lat="52.685417" lon="06.005086"><ele>-6</ele><time>2022-09-06T10:53:33Z</time><name>PT81</name></trkpt>
<trkpt lat="52.685416" lon="06.005085"><ele>-6</ele><time>2022-09-06T10:53:35Z</time><name>PT82</name></trkpt>
<trkpt lat="52.685417" lon="06.005090"><ele>-6.3</ele><time>2022-09-06T10:53:36Z</time><name>PT83</name></trkpt>
<trkpt lat="52.685418" lon="06.005092"><ele>-6.3</ele><time>2022-09-06T10:53:36Z</time><name>PT84</name></trkpt>
<trkpt lat="52.685418" lon="06.005093"><ele>-6.4</ele><time>2022-09-06T10:53:38Z</time><name>PT85</name></trkpt>
<trkpt lat="52.685419" lon="06.005094"><ele>-6.5</ele><time>2022-09-06T10:53:39Z</time><name>PT86</name></trkpt>
<trkpt lat="52.685602" lon="06.005682"><ele>-6.7</ele><time>2022-09-06T11:05:33Z</time><name>PT87</name></trkpt>
<trkpt lat="52.685610" lon="06.005695"><ele>-6.7</ele><time>2022-09-06T11:05:33Z</time><name>PT88</name></trkpt>
<trkpt lat="52.685618" lon="06.005708"><ele>-6.7</ele><time>2022-09-06T11:05:35Z</time><name>PT89</name></trkpt>
<trkpt lat="52.685625" lon="06.005721"><ele>-6.8</ele><time>2022-09-06T11:05:36Z</time><name>PT90</name></trkpt>
<trkpt lat="52.685633" lon="06.005733"><ele>-6.7</ele><time>2022-09-06T11:05:36Z</time><name>PT91</name></trkpt>
<trkpt lat="52.685641" lon="06.005746"><ele>-6.7</ele><time>2022-09-06T11:05:38Z</time><name>PT92</name></trkpt>
<trkpt lat="52.685650" lon="06.005760"><ele>-6.6</ele><time>2022-09-06T11:05:39Z</time><name>PT93</name></trkpt>
<trkpt lat="52.685658" lon="06.005773"><ele>-6.8</ele><time>2022-09-06T11:05:39Z</time><name>PT94</name></trkpt>
<trkpt lat="52.685664" lon="06.005783"><ele>-6.6</ele><time>2022-09-06T11:05:41Z</time><name>PT95</name></trkpt>
<trkpt lat="52.685671" lon="06.005794"><ele>-6.5</ele><time>2022-09-06T11:05:42Z</time><name>PT96</name></trkpt>
<trkpt lat="52.685678" lon="06.005805"><ele>-6.5</ele><time>2022-09-06T11:05:42Z</time><name>PT97</name></trkpt>
<trkpt lat="52.685685" lon="06.005817"><ele>-6.4</ele><time>2022-09-06T11:05:44Z</time><name>PT98</name></trkpt>
<trkpt lat="52.685692" lon="06.005829"><ele>-6.4</ele><time>2022-09-06T11:05:45Z</time><name>PT99</name></trkpt>
<trkpt lat="52.685699" lon="06.005839"><ele>-6.4</ele><time>2022-09-06T11:05:45Z</time><name>PT100</name></trkpt>
<trkpt lat="52.685706" lon="06.005851"><ele>-6.4</ele><time>2022-09-06T11:05:47Z</time><name>PT101</name></trkpt>
<trkpt lat="52.685713" lon="06.005863"><ele>-6.6</ele><time>2022-09-06T11:05:48Z</time><name>PT102</name></trkpt>
<trkpt lat="52.685719" lon="06.005875"><ele>-6.6</ele><time>2022-09-06T11:05:48Z</time><name>PT103</name></trkpt>
<trkpt lat="52.685725" lon="06.005887"><ele>-6.7</ele><time>2022-09-06T11:05:50Z</time><name>PT104</name></trkpt>
<trkpt lat="52.685731" lon="06.005899"><ele>-6.6</ele><time>2022-09-06T11:05:51Z</time><name>PT105</name></trkpt>
<trkpt lat="52.685737" lon="06.005911"><ele>-6.6</ele><time>2022-09-06T11:05:51Z</time><name>PT106</name></trkpt>
<trkpt lat="52.685744" lon="06.005923"><ele>-6.7</ele><time>2022-09-06T11:05:53Z</time><name>PT107</name></trkpt>
<trkpt lat="52.685750" lon="06.005935"><ele>-6.6</ele><time>2022-09-06T11:05:54Z</time><name>PT108</name></trkpt>
<trkpt lat="52.685758" lon="06.005952"><ele>-6.6</ele><time>2022-09-06T11:05:54Z</time><name>PT109</name></trkpt>
<trkpt lat="52.685763" lon="06.005963"><ele>-6.6</ele><time>2022-09-06T11:05:56Z</time><name>PT110</name></trkpt>
<trkpt lat="52.685769" lon="06.005973"><ele>-6.5</ele><time>2022-09-06T11:05:57Z</time><name>PT111</name></trkpt>
<trkpt lat="52.685776" lon="06.005984"><ele>-6.5</ele><time>2022-09-06T11:05:57Z</time><name>PT112</name></trkpt>
<trkpt lat="52.685782" lon="06.005997"><ele>-6.5</ele><time>2022-09-06T11:05:59Z</time><name>PT113</name></trkpt>
<trkpt lat="52.685785" lon="06.006009"><ele>-6.7</ele><time>2022-09-06T11:06:00Z</time><name>PT114</name></trkpt>
<trkpt lat="52.685790" lon="06.006021"><ele>-6.7</ele><time>2022-09-06T11:06:00Z</time><name>PT115</name></trkpt>
<trkpt lat="52.685796" lon="06.006033"><ele>-6.9</ele><time>2022-09-06T11:06:02Z</time><name>PT116</name></trkpt>
<trkpt lat="52.685802" lon="06.006046"><ele>-6.9</ele><time>2022-09-06T11:06:03Z</time><name>PT117</name></trkpt>
<trkpt lat="52.685807" lon="06.006060"><ele>-6.9</ele><time>2022-09-06T11:06:03Z</time><name>PT118</name></trkpt>
<trkpt lat="52.685813" lon="06.006073"><ele>-6.7</ele><time>2022-09-06T11:06:05Z</time><name>PT119</name></trkpt>
<trkpt lat="52.685818" lon="06.006087"><ele>-6.5</ele><time>2022-09-06T11:06:06Z</time><name>PT120</name></trkpt>
<trkpt lat="52.685824" lon="06.006100"><ele>-6.6</ele><time>2022-09-06T11:06:06Z</time><name>PT121</name></trkpt>
<trkpt lat="52.685830" lon="06.006113"><ele>-6.7</ele><time>2022-09-06T11:06:08Z</time><name>PT122</name></trkpt>
<trkpt lat="52.685836" lon="06.006126"><ele>-6.7</ele><time>2022-09-06T11:06:09Z</time><name>PT123</name></trkpt>
<trkpt lat="52.685841" lon="06.006140"><ele>-6.8</ele><time>2022-09-06T11:06:09Z</time><name>PT124</name></trkpt>
<trkpt lat="52.685847" lon="06.006153"><ele>-6.6</ele><time>2022-09-06T11:06:11Z</time><name>PT125</name></trkpt>
<trkpt lat="52.685853" lon="06.006166"><ele>-6.6</ele><time>2022-09-06T11:06:12Z</time><name>PT126</name></trkpt>
<trkpt lat="52.685859" lon="06.006180"><ele>-6.7</ele><time>2022-09-06T11:06:12Z</time><name>PT127</name></trkpt>
<trkpt lat="52.685864" lon="06.006193"><ele>-6.8</ele><time>2022-09-06T11:06:14Z</time><name>PT128</name></trkpt>
<trkpt lat="52.685870" lon="06.006207"><ele>-6.7</ele><time>2022-09-06T11:06:15Z</time><name>PT129</name></trkpt>
<trkpt lat="52.685876" lon="06.006220"><ele>-6.9</ele><time>2022-09-06T11:06:15Z</time><name>PT130</name></trkpt>
<trkpt lat="52.685882" lon="06.006233"><ele>-6.9</ele><time>2022-09-06T11:06:17Z</time><name>PT131</name></trkpt>
<trkpt lat="52.685888" lon="06.006246"><ele>-6.9</ele><time>2022-09-06T11:06:18Z</time><name>PT132</name></trkpt>
<trkpt lat="52.685894" lon="06.006260"><ele>-6.8</ele><time>2022-09-06T11:06:18Z</time><name>PT133</name></trkpt>
<trkpt lat="52.685900" lon="06.006273"><ele>-6.9</ele><time>2022-09-06T11:06:20Z</time><name>PT134</name></trkpt>
<trkpt lat="52.685907" lon="06.006286"><ele>-6.9</ele><time>2022-09-06T11:06:21Z</time><name>PT135</name></trkpt>
<trkpt lat="52.685914" lon="06.006299"><ele>-6.9</ele><time>2022-09-06T11:06:21Z</time><name>PT136</name></trkpt>
<trkpt lat="52.685922" lon="06.006312"><ele>-6.9</ele><time>2022-09-06T11:06:23Z</time><name>PT137</name></trkpt>
<trkpt lat="52.685930" lon="06.006325"><ele>-6.9</ele><time>2022-09-06T11:06:24Z</time><name>PT138</name></trkpt>
<trkpt lat="52.685938" lon="06.006337"><ele>-6.9</ele><time>2022-09-06T11:06:24Z</time><name>PT139</name></trkpt>
<trkpt lat="52.685946" lon="06.006350"><ele>-6.9</ele><time>2022-09-06T11:06:26Z</time><name>PT140</name></trkpt>
<trkpt lat="52.685953" lon="06.006362"><ele>-6.8</ele><time>2022-09-06T11:06:27Z</time><name>PT141</name></trkpt>
<trkpt lat="52.685961" lon="06.006375"><ele>-6.6</ele><time>2022-09-06T11:06:27Z</time><name>PT142</name></trkpt>
<trkpt lat="52.685969" lon="06.006387"><ele>-6.5</ele><time>2022-09-06T11:06:29Z</time><name>PT143</name></trkpt>
<trkpt lat="52.685976" lon="06.006399"><ele>-6.4</ele><time>2022-09-06T11:06:30Z</time><name>PT144</name></trkpt>
<trkpt lat="52.685984" lon="06.006412"><ele>-6.4</ele><time>2022-09-06T11:06:30Z</time><name>PT145</name></trkpt>
<trkpt lat="52.685992" lon="06.006425"><ele>-6.4</ele><time>2022-09-06T11:06:32Z</time><name>PT146</name></trkpt>
<trkpt lat="52.685999" lon="06.006437"><ele>-6.5</ele><time>2022-09-06T11:06:33Z</time><name>PT147</name></trkpt>
<trkpt lat="52.686007" lon="06.006449"><ele>-6.6</ele><time>2022-09-06T11:06:33Z</time><name>PT148</name></trkpt>
<trkpt lat="52.686015" lon="06.006461"><ele>-6.7</ele><time>2022-09-06T11:06:35Z</time><name>PT149</name></trkpt>
<trkpt lat="52.686022" lon="06.006474"><ele>-6.6</ele><time>2022-09-06T11:06:36Z</time><name>PT150</name></trkpt>
<trkpt lat="52.686030" lon="06.006488"><ele>-6.5</ele><time>2022-09-06T11:06:36Z</time><name>PT151</name></trkpt>
<trkpt lat="52.686038" lon="06.006500"><ele>-6.4</ele><time>2022-09-06T11:06:38Z</time><name>PT152</name></trkpt>
<trkpt lat="52.686046" lon="06.006514"><ele>-6.2</ele><time>2022-09-06T11:06:39Z</time><name>PT153</name></trkpt>
<trkpt lat="52.686054" lon="06.006528"><ele>-6.2</ele><time>2022-09-06T11:06:39Z</time><name>PT154</name></trkpt>
<trkpt lat="52.686063" lon="06.006543"><ele>-6.2</ele><time>2022-09-06T11:06:41Z</time><name>PT155</name></trkpt>
<trkpt lat="52.686071" lon="06.006556"><ele>-6.4</ele><time>2022-09-06T11:06:42Z</time><name>PT156</name></trkpt>
<trkpt lat="52.686080" lon="06.006569"><ele>-6.6</ele><time>2022-09-06T11:06:42Z</time><name>PT157</name></trkpt>
<trkpt lat="52.686089" lon="06.006583"><ele>-6.6</ele><time>2022-09-06T11:06:44Z</time><name>PT158</name></trkpt>
<trkpt lat="52.686098" lon="06.006596"><ele>-6.8</ele><time>2022-09-06T11:06:45Z</time><name>PT159</name></trkpt>
<trkpt lat="52.686107" lon="06.006610"><ele>-6.8</ele><time>2022-09-06T11:06:45Z</time><name>PT160</name></trkpt>
<trkpt lat="52.686115" lon="06.006623"><ele>-6.7</ele><time>2022-09-06T11:06:47Z</time><name>PT161</name></trkpt>
<trkpt lat="52.686125" lon="06.006638"><ele>-6.5</ele><time>2022-09-06T11:06:48Z</time><name>PT162</name></trkpt>
<trkpt lat="52.686134" lon="06.006652"><ele>-6.5</ele><time>2022-09-06T11:06:48Z</time><name>PT163</name></trkpt>
<trkpt lat="52.686143" lon="06.006666"><ele>-6.4</ele><time>2022-09-06T11:06:50Z</time><name>PT164</name></trkpt>
<trkpt lat="52.686153" lon="06.006678"><ele>-6.4</ele><time>2022-09-06T11:06:51Z</time><name>PT165</name></trkpt>
<trkpt lat="52.686163" lon="06.006691"><ele>-6.4</ele><time>2022-09-06T11:06:51Z</time><name>PT166</name></trkpt>
<trkpt lat="52.686172" lon="06.006703"><ele>-6.5</ele><time>2022-09-06T11:06:53Z</time><name>PT167</name></trkpt>
<trkpt lat="52.686182" lon="06.006715"><ele>-6.4</ele><time>2022-09-06T11:06:54Z</time><name>PT168</name></trkpt>
<trkpt lat="52.686192" lon="06.006727"><ele>-6.4</ele><time>2022-09-06T11:06:54Z</time><name>PT169</name></trkpt>
<trkpt lat="52.686202" lon="06.006739"><ele>-6.4</ele><time>2022-09-06T11:06:56Z</time><name>PT170</name></trkpt>
<trkpt lat="52.686212" lon="06.006751"><ele>-6.4</ele><time>2022-09-06T11:06:57Z</time><name>PT171</name></trkpt>
<trkpt lat="52.686222" lon="06.006763"><ele>-6.3</ele><time>2022-09-06T11:06:57Z</time><name>PT172</name></trkpt>
<trkpt lat="52.686232" lon="06.006775"><ele>-6.3</ele><time>2022-09-06T11:06:59Z</time><name>PT173</name></trkpt>
<trkpt lat="52.686243" lon="06.006787"><ele>-6.4</ele><time>2022-09-06T11:07:00Z</time><name>PT174</name></trkpt>
<trkpt lat="52.686253" lon="06.006800"><ele>-6.4</ele><time>2022-09-06T11:07:00Z</time><name>PT175</name></trkpt>
<trkpt lat="52.686263" lon="06.006812"><ele>-6.4</ele><time>2022-09-06T11:07:02Z</time><name>PT176</name></trkpt>
<trkpt lat="52.686273" lon="06.006825"><ele>-6.5</ele><time>2022-09-06T11:07:03Z</time><name>PT177</name></trkpt>
<trkpt lat="52.686284" lon="06.006837"><ele>-6.5</ele><time>2022-09-06T11:07:03Z</time><name>PT178</name></trkpt>
<trkpt lat="52.686294" lon="06.006850"><ele>-6.6</ele><time>2022-09-06T11:07:05Z</time><name>PT179</name></trkpt>
<trkpt lat="52.686306" lon="06.006863"><ele>-6.6</ele><time>2022-09-06T11:07:06Z</time><name>PT180</name></trkpt>
<trkpt lat="52.686317" lon="06.006876"><ele>-6.7</ele><time>2022-09-06T11:07:06Z</time><name>PT181</name></trkpt>
<trkpt lat="52.686328" lon="06.006890"><ele>-6.7</ele><time>2022-09-06T11:07:08Z</time><name>PT182</name></trkpt>
<trkpt lat="52.686339" lon="06.006902"><ele>-6.4</ele><time>2022-09-06T11:07:09Z</time><name>PT183</name></trkpt>
<trkpt lat="52.686351" lon="06.006916"><ele>-6.6</ele><time>2022-09-06T11:07:09Z</time><name>PT184</name></trkpt>
<trkpt lat="52.686363" lon="06.006929"><ele>-6.6</ele><time>2022-09-06T11:07:11Z</time><name>PT185</name></trkpt>
<trkpt lat="52.686373" lon="06.006942"><ele>-6.6</ele><time>2022-09-06T11:07:12Z</time><name>PT186</name></trkpt>
<trkpt lat="52.686385" lon="06.006955"><ele>-6.4</ele><time>2022-09-06T11:07:13Z</time><name>PT187</name></trkpt>
<trkpt lat="52.686395" lon="06.006968"><ele>-6.8</ele><time>2022-09-06T11:07:14Z</time><name>PT188</name></trkpt>
<trkpt lat="52.686407" lon="06.006980"><ele>-6.5</ele><time>2022-09-06T11:07:15Z</time><name>PT189</name></trkpt>
<trkpt lat="52.686418" lon="06.006992"><ele>-6.5</ele><time>2022-09-06T11:07:16Z</time><name>PT190</name></trkpt>
<trkpt lat="52.686429" lon="06.007004"><ele>-6.7</ele><time>2022-09-06T11:07:17Z</time><name>PT191</name></trkpt>
<trkpt lat="52.686440" lon="06.007016"><ele>-6.5</ele><time>2022-09-06T11:07:18Z</time><name>PT192</name></trkpt>
<trkpt lat="52.686453" lon="06.007027"><ele>-6.4</ele><time>2022-09-06T11:07:18Z</time><name>PT193</name></trkpt>
<trkpt lat="52.686466" lon="06.007039"><ele>-6.6</ele><time>2022-09-06T11:07:20Z</time><name>PT194</name></trkpt>
<trkpt lat="52.686477" lon="06.007049"><ele>-6.7</ele><time>2022-09-06T11:07:21Z</time><name>PT195</name></trkpt>
<trkpt lat="52.686489" lon="06.007059"><ele>-6.7</ele><time>2022-09-06T11:07:21Z</time><name>PT196</name></trkpt>
<trkpt lat="52.686501" lon="06.007068"><ele>-6.9</ele><time>2022-09-06T11:07:23Z</time><name>PT197</name></trkpt>
<trkpt lat="52.686514" lon="06.007077"><ele>-6.9</ele><time>2022-09-06T11:07:24Z</time><name>PT198</name></trkpt>
<trkpt lat="52.686526" lon="06.007085"><ele>-6.7</ele><time>2022-09-06T11:07:24Z</time><name>PT199</name></trkpt>
<trkpt lat="52.686538" lon="06.007093"><ele>-6.7</ele><time>2022-09-06T11:07:26Z</time><name>PT200</name></trkpt>
<trkpt lat="52.686552" lon="06.007101"><ele>-6.7</ele><time>2022-09-06T11:07:27Z</time><name>PT201</name></trkpt>
<trkpt lat="52.686566" lon="06.007108"><ele>-6.6</ele><time>2022-09-06T11:07:27Z</time><name>PT202</name></trkpt>
<trkpt lat="52.686579" lon="06.007114"><ele>-6.7</ele><time>2022-09-06T11:07:29Z</time><name>PT203</name></trkpt>
<trkpt lat="52.686593" lon="06.007120"><ele>-6.5</ele><time>2022-09-06T11:07:30Z</time><name>PT204</name></trkpt>
<trkpt lat="52.686606" lon="06.007125"><ele>-6.5</ele><time>2022-09-06T11:07:30Z</time><name>PT205</name></trkpt>
<trkpt lat="52.686620" lon="06.007131"><ele>-6.5</ele><time>2022-09-06T11:07:32Z</time><name>PT206</name></trkpt>
<trkpt lat="52.686632" lon="06.007132"><ele>-6.6</ele><time>2022-09-06T11:07:33Z</time><name>PT207</name></trkpt>
<trkpt lat="52.686646" lon="06.007133"><ele>-6.7</ele><time>2022-09-06T11:07:33Z</time><name>PT208</name></trkpt>
<trkpt lat="52.686661" lon="06.007135"><ele>-6.5</ele><time>2022-09-06T11:07:35Z</time><name>PT209</name></trkpt>
<trkpt lat="52.686676" lon="06.007139"><ele>-6.5</ele><time>2022-09-06T11:07:36Z</time><name>PT210</name></trkpt>
<trkpt lat="52.686693" lon="06.007143"><ele>-6.6</ele><time>2022-09-06T11:07:36Z</time><name>PT211</name></trkpt>
<trkpt lat="52.686711" lon="06.007146"><ele>-6.5</ele><time>2022-09-06T11:07:38Z</time><name>PT212</name></trkpt>
<trkpt lat="52.686726" lon="06.007147"><ele>-6.5</ele><time>2022-09-06T11:07:39Z</time><name>PT213</name></trkpt>
<trkpt lat="52.686742" lon="06.007147"><ele>-6.6</ele><time>2022-09-06T11:07:39Z</time><name>PT214</name></trkpt>
<trkpt lat="52.686757" lon="06.007147"><ele>-6.4</ele><time>2022-09-06T11:07:41Z</time><name>PT215</name></trkpt>
<trkpt lat="52.686772" lon="06.007147"><ele>-6.4</ele><time>2022-09-06T11:07:42Z</time><name>PT216</name></trkpt>
<trkpt lat="52.686788" lon="06.007150"><ele>-6.3</ele><time>2022-09-06T11:07:42Z</time><name>PT217</name></trkpt>
<trkpt lat="52.686803" lon="06.007151"><ele>-6.3</ele><time>2022-09-06T11:07:44Z</time><name>PT218</name></trkpt>
<trkpt lat="52.686819" lon="06.007153"><ele>-6.3</ele><time>2022-09-06T11:07:45Z</time><name>PT219</name></trkpt>
<trkpt lat="52.686833" lon="06.007153"><ele>-6.3</ele><time>2022-09-06T11:07:45Z</time><name>PT220</name></trkpt>
<trkpt lat="52.686848" lon="06.007152"><ele>-6.2</ele><time>2022-09-06T11:07:47Z</time><name>PT221</name></trkpt>
<trkpt lat="52.686863" lon="06.007151"><ele>-6.2</ele><time>2022-09-06T11:07:48Z</time><name>PT222</name></trkpt>
<trkpt lat="52.686878" lon="06.007151"><ele>-6.3</ele><time>2022-09-06T11:07:48Z</time><name>PT223</name></trkpt>
<trkpt lat="52.686893" lon="06.007150"><ele>-6.2</ele><time>2022-09-06T11:07:50Z</time><name>PT224</name></trkpt>
<trkpt lat="52.686907" lon="06.007149"><ele>-6.1</ele><time>2022-09-06T11:07:51Z</time><name>PT225</name></trkpt>
<trkpt lat="52.686923" lon="06.007149"><ele>-6</ele><time>2022-09-06T11:07:52Z</time><name>PT226</name></trkpt>
<trkpt lat="52.686938" lon="06.007147"><ele>-6.2</ele><time>2022-09-06T11:07:53Z</time><name>PT227</name></trkpt>
<trkpt lat="52.686955" lon="06.007146"><ele>-6.4</ele><time>2022-09-06T11:07:54Z</time><name>PT228</name></trkpt>
<trkpt lat="52.686971" lon="06.007144"><ele>-6.4</ele><time>2022-09-06T11:07:54Z</time><name>PT229</name></trkpt>
<trkpt lat="52.686990" lon="06.007145"><ele>-6.3</ele><time>2022-09-06T11:07:56Z</time><name>PT230</name></trkpt>
<trkpt lat="52.687007" lon="06.007146"><ele>-6.3</ele><time>2022-09-06T11:07:57Z</time><name>PT231</name></trkpt>
<trkpt lat="52.687023" lon="06.007146"><ele>-6.4</ele><time>2022-09-06T11:07:57Z</time><name>PT232</name></trkpt>
<trkpt lat="52.687040" lon="06.007146"><ele>-6.3</ele><time>2022-09-06T11:07:59Z</time><name>PT233</name></trkpt>
<trkpt lat="52.687056" lon="06.007146"><ele>-6.3</ele><time>2022-09-06T11:08:00Z</time><name>PT234</name></trkpt>
<trkpt lat="52.687072" lon="06.007146"><ele>-6.4</ele><time>2022-09-06T11:08:00Z</time><name>PT235</name></trkpt>
<trkpt lat="52.687090" lon="06.007147"><ele>-6.4</ele><time>2022-09-06T11:08:02Z</time><name>PT236</name></trkpt>
<trkpt lat="52.687106" lon="06.007147"><ele>-6.4</ele><time>2022-09-06T11:08:03Z</time><name>PT237</name></trkpt>
<trkpt lat="52.687122" lon="06.007147"><ele>-6.4</ele><time>2022-09-06T11:08:03Z</time><name>PT238</name></trkpt>
<trkpt lat="52.687138" lon="06.007149"><ele>-6.3</ele><time>2022-09-06T11:08:05Z</time><name>PT239</name></trkpt>
<trkpt lat="52.687155" lon="06.007149"><ele>-6.3</ele><time>2022-09-06T11:08:06Z</time><name>PT240</name></trkpt>
<trkpt lat="52.687170" lon="06.007149"><ele>-6.2</ele><time>2022-09-06T11:08:06Z</time><name>PT241</name></trkpt>
<trkpt lat="52.687186" lon="06.007149"><ele>-6.1</ele><time>2022-09-06T11:08:08Z</time><name>PT242</name></trkpt>
<trkpt lat="52.687202" lon="06.007150"><ele>-6.2</ele><time>2022-09-06T11:08:09Z</time><name>PT243</name></trkpt>
<trkpt lat="52.687220" lon="06.007151"><ele>-6.3</ele><time>2022-09-06T11:08:09Z</time><name>PT244</name></trkpt>
<trkpt lat="52.687236" lon="06.007152"><ele>-6.3</ele><time>2022-09-06T11:08:11Z</time><name>PT245</name></trkpt>
<trkpt lat="52.687253" lon="06.007153"><ele>-6.1</ele><time>2022-09-06T11:08:12Z</time><name>PT246</name></trkpt>
<trkpt lat="52.687270" lon="06.007154"><ele>-6.2</ele><time>2022-09-06T11:08:12Z</time><name>PT247</name></trkpt>
<trkpt lat="52.687286" lon="06.007154"><ele>-6.1</ele><time>2022-09-06T11:08:14Z</time><name>PT248</name></trkpt>
<trkpt lat="52.687302" lon="06.007154"><ele>-5.9</ele><time>2022-09-06T11:08:15Z</time><name>PT249</name></trkpt>
<trkpt lat="52.687320" lon="06.007155"><ele>-5.9</ele><time>2022-09-06T11:08:15Z</time><name>PT250</name></trkpt>
<trkpt lat="52.687337" lon="06.007155"><ele>-5.9</ele><time>2022-09-06T11:08:17Z</time><name>PT251</name></trkpt>
<trkpt lat="52.687354" lon="06.007155"><ele>-5.8</ele><time>2022-09-06T11:08:18Z</time><name>PT252</name></trkpt>
<trkpt lat="52.687371" lon="06.007154"><ele>-5.9</ele><time>2022-09-06T11:08:19Z</time><name>PT253</name></trkpt>
<trkpt lat="52.687388" lon="06.007154"><ele>-6</ele><time>2022-09-06T11:08:20Z</time><name>PT254</name></trkpt>
<trkpt lat="52.687405" lon="06.007153"><ele>-6.1</ele><time>2022-09-06T11:08:21Z</time><name>PT255</name></trkpt>
<trkpt lat="52.687422" lon="06.007153"><ele>-6.1</ele><time>2022-09-06T11:08:21Z</time><name>PT256</name></trkpt>
<trkpt lat="52.687438" lon="06.007153"><ele>-6.1</ele><time>2022-09-06T11:08:23Z</time><name>PT257</name></trkpt>
<trkpt lat="52.687455" lon="06.007154"><ele>-6.1</ele><time>2022-09-06T11:08:24Z</time><name>PT258</name></trkpt>
<trkpt lat="52.687471" lon="06.007154"><ele>-6</ele><time>2022-09-06T11:08:24Z</time><name>PT259</name></trkpt>
<trkpt lat="52.687488" lon="06.007155"><ele>-6</ele><time>2022-09-06T11:08:26Z</time><name>PT260</name></trkpt>
<trkpt lat="52.687505" lon="06.007155"><ele>-6</ele><time>2022-09-06T11:08:27Z</time><name>PT261</name></trkpt>
<trkpt lat="52.687522" lon="06.007156"><ele>-5.9</ele><time>2022-09-06T11:08:27Z</time><name>PT262</name></trkpt>
<trkpt lat="52.687539" lon="06.007158"><ele>-6</ele><time>2022-09-06T11:08:29Z</time><name>PT263</name></trkpt>
<trkpt lat="52.687553" lon="06.007158"><ele>-6.2</ele><time>2022-09-06T11:08:30Z</time><name>PT264</name></trkpt>
<trkpt lat="52.687568" lon="06.007160"><ele>-6.3</ele><time>2022-09-06T11:08:30Z</time><name>PT265</name></trkpt>
<trkpt lat="52.687585" lon="06.007163"><ele>-6.4</ele><time>2022-09-06T11:08:32Z</time><name>PT266</name></trkpt>
<trkpt lat="52.687600" lon="06.007166"><ele>-6.6</ele><time>2022-09-06T11:08:33Z</time><name>PT267</name></trkpt>
<trkpt lat="52.687616" lon="06.007169"><ele>-6.6</ele><time>2022-09-06T11:08:33Z</time><name>PT268</name></trkpt>
<trkpt lat="52.687631" lon="06.007173"><ele>-6.6</ele><time>2022-09-06T11:08:35Z</time><name>PT269</name></trkpt>
<trkpt lat="52.687647" lon="06.007173"><ele>-6.6</ele><time>2022-09-06T11:08:36Z</time><name>PT270</name></trkpt>
<trkpt lat="52.687662" lon="06.007174"><ele>-6.5</ele><time>2022-09-06T11:08:36Z</time><name>PT271</name></trkpt>
<trkpt lat="52.687679" lon="06.007175"><ele>-6.6</ele><time>2022-09-06T11:08:38Z</time><name>PT272</name></trkpt>
<trkpt lat="52.687695" lon="06.007177"><ele>-6.5</ele><time>2022-09-06T11:08:39Z</time><name>PT273</name></trkpt>
<trkpt lat="52.687712" lon="06.007179"><ele>-6.4</ele><time>2022-09-06T11:08:39Z</time><name>PT274</name></trkpt>
<trkpt lat="52.687729" lon="06.007182"><ele>-6.4</ele><time>2022-09-06T11:08:41Z</time><name>PT275</name></trkpt>
<trkpt lat="52.687746" lon="06.007185"><ele>-6.4</ele><time>2022-09-06T11:08:42Z</time><name>PT276</name></trkpt>
<trkpt lat="52.687765" lon="06.007189"><ele>-6.3</ele><time>2022-09-06T11:08:42Z</time><name>PT277</name></trkpt>
<trkpt lat="52.687783" lon="06.007194"><ele>-6.1</ele><time>2022-09-06T11:08:44Z</time><name>PT278</name></trkpt>
<trkpt lat="52.687800" lon="06.007200"><ele>-5.9</ele><time>2022-09-06T11:08:45Z</time><name>PT279</name></trkpt>
<trkpt lat="52.687817" lon="06.007204"><ele>-5.9</ele><time>2022-09-06T11:08:45Z</time><name>PT280</name></trkpt>
<trkpt lat="52.687834" lon="06.007209"><ele>-5.9</ele><time>2022-09-06T11:08:47Z</time><name>PT281</name></trkpt>
<trkpt lat="52.687850" lon="06.007212"><ele>-6.1</ele><time>2022-09-06T11:08:48Z</time><name>PT282</name></trkpt>
<trkpt lat="52.687867" lon="06.007214"><ele>-6.1</ele><time>2022-09-06T11:08:48Z</time><name>PT283</name></trkpt>
<trkpt lat="52.687884" lon="06.007218"><ele>-6.3</ele><time>2022-09-06T11:08:50Z</time><name>PT284</name></trkpt>
<trkpt lat="52.687901" lon="06.007222"><ele>-6.4</ele><time>2022-09-06T11:08:51Z</time><name>PT285</name></trkpt>
<trkpt lat="52.687918" lon="06.007224"><ele>-6.4</ele><time>2022-09-06T11:08:51Z</time><name>PT286</name></trkpt>
<trkpt lat="52.687935" lon="06.007230"><ele>-6.2</ele><time>2022-09-06T11:08:53Z</time><name>PT287</name></trkpt>
<trkpt lat="52.687952" lon="06.007234"><ele>-6.4</ele><time>2022-09-06T11:08:54Z</time><name>PT288</name></trkpt>
<trkpt lat="52.687969" lon="06.007237"><ele>-6.2</ele><time>2022-09-06T11:08:54Z</time><name>PT289</name></trkpt>
<trkpt lat="52.687985" lon="06.007241"><ele>-6.2</ele><time>2022-09-06T11:08:56Z</time><name>PT290</name></trkpt>
<trkpt lat="52.688002" lon="06.007245"><ele>-6.3</ele><time>2022-09-06T11:08:57Z</time><name>PT291</name></trkpt>
<trkpt lat="52.688019" lon="06.007249"><ele>-6.3</ele><time>2022-09-06T11:08:57Z</time><name>PT292</name></trkpt>
<trkpt lat="52.688035" lon="06.007253"><ele>-6.4</ele><time>2022-09-06T11:08:59Z</time><name>PT293</name></trkpt>
<trkpt lat="52.688051" lon="06.007256"><ele>-6.5</ele><time>2022-09-06T11:09:00Z</time><name>PT294</name></trkpt>
<trkpt lat="52.688067" lon="06.007260"><ele>-6.5</ele><time>2022-09-06T11:09:00Z</time><name>PT295</name></trkpt>
<trkpt lat="52.688084" lon="06.007265"><ele>-6.4</ele><time>2022-09-06T11:09:02Z</time><name>PT296</name></trkpt>
<trkpt lat="52.688101" lon="06.007269"><ele>-6.4</ele><time>2022-09-06T11:09:03Z</time><name>PT297</name></trkpt>
<trkpt lat="52.688118" lon="06.007275"><ele>-6.4</ele><time>2022-09-06T11:09:03Z</time><name>PT298</name></trkpt>
<trkpt lat="52.688135" lon="06.007281"><ele>-6.2</ele><time>2022-09-06T11:09:05Z</time><name>PT299</name></trkpt>
<trkpt lat="52.688152" lon="06.007286"><ele>-6.2</ele><time>2022-09-06T11:09:06Z</time><name>PT300</name></trkpt>
<trkpt lat="52.688169" lon="06.007291"><ele>-6.2</ele><time>2022-09-06T11:09:06Z</time><name>PT301</name></trkpt>
<trkpt lat="52.688185" lon="06.007295"><ele>-6.3</ele><time>2022-09-06T11:09:08Z</time><name>PT302</name></trkpt>
<trkpt lat="52.688202" lon="06.007300"><ele>-6.3</ele><time>2022-09-06T11:09:09Z</time><name>PT303</name></trkpt>
<trkpt lat="52.688218" lon="06.007306"><ele>-6.2</ele><time>2022-09-06T11:09:09Z</time><name>PT304</name></trkpt>
<trkpt lat="52.688237" lon="06.007311"><ele>-6.2</ele><time>2022-09-06T11:09:11Z</time><name>PT305</name></trkpt>
<trkpt lat="52.688256" lon="06.007318"><ele>-6.1</ele><time>2022-09-06T11:09:12Z</time><name>PT306</name></trkpt>
<trkpt lat="52.688273" lon="06.007324"><ele>-6.2</ele><time>2022-09-06T11:09:12Z</time><name>PT307</name></trkpt>
<trkpt lat="52.688290" lon="06.007329"><ele>-6.1</ele><time>2022-09-06T11:09:14Z</time><name>PT308</name></trkpt>
<trkpt lat="52.688308" lon="06.007334"><ele>-6.2</ele><time>2022-09-06T11:09:15Z</time><name>PT309</name></trkpt>
<trkpt lat="52.688326" lon="06.007340"><ele>-6.2</ele><time>2022-09-06T11:09:15Z</time><name>PT310</name></trkpt>
<trkpt lat="52.688342" lon="06.007344"><ele>-6.3</ele><time>2022-09-06T11:09:17Z</time><name>PT311</name></trkpt>
<trkpt lat="52.688359" lon="06.007350"><ele>-6.4</ele><time>2022-09-06T11:09:18Z</time><name>PT312</name></trkpt>
<trkpt lat="52.688376" lon="06.007356"><ele>-6.4</ele><time>2022-09-06T11:09:18Z</time><name>PT313</name></trkpt>
<trkpt lat="52.688393" lon="06.007362"><ele>-6.5</ele><time>2022-09-06T11:09:20Z</time><name>PT314</name></trkpt>
<trkpt lat="52.688410" lon="06.007368"><ele>-6.5</ele><time>2022-09-06T11:09:21Z</time><name>PT315</name></trkpt>
<trkpt lat="52.688427" lon="06.007375"><ele>-6.6</ele><time>2022-09-06T11:09:21Z</time><name>PT316</name></trkpt>
<trkpt lat="52.688444" lon="06.007383"><ele>-6.5</ele><time>2022-09-06T11:09:23Z</time><name>PT317</name></trkpt>
<trkpt lat="52.688461" lon="06.007390"><ele>-6.6</ele><time>2022-09-06T11:09:24Z</time><name>PT318</name></trkpt>
<trkpt lat="52.688477" lon="06.007396"><ele>-6.5</ele><time>2022-09-06T11:09:24Z</time><name>PT319</name></trkpt>
<trkpt lat="52.688492" lon="06.007402"><ele>-6.6</ele><time>2022-09-06T11:09:26Z</time><name>PT320</name></trkpt>
<trkpt lat="52.688508" lon="06.007410"><ele>-6.5</ele><time>2022-09-06T11:09:27Z</time><name>PT321</name></trkpt>
<trkpt lat="52.688525" lon="06.007416"><ele>-6.4</ele><time>2022-09-06T11:09:27Z</time><name>PT322</name></trkpt>
<trkpt lat="52.688542" lon="06.007424"><ele>-6.4</ele><time>2022-09-06T11:09:29Z</time><name>PT323</name></trkpt>
<trkpt lat="52.688558" lon="06.007431"><ele>-6.4</ele><time>2022-09-06T11:09:30Z</time><name>PT324</name></trkpt>
<trkpt lat="52.688575" lon="06.007438"><ele>-6.4</ele><time>2022-09-06T11:09:30Z</time><name>PT325</name></trkpt>
<trkpt lat="52.688592" lon="06.007445"><ele>-6.5</ele><time>2022-09-06T11:09:32Z</time><name>PT326</name></trkpt>
<trkpt lat="52.688609" lon="06.007453"><ele>-6.6</ele><time>2022-09-06T11:09:33Z</time><name>PT327</name></trkpt>
<trkpt lat="52.688626" lon="06.007460"><ele>-6.7</ele><time>2022-09-06T11:09:33Z</time><name>PT328</name></trkpt>
<trkpt lat="52.688644" lon="06.007468"><ele>-6.7</ele><time>2022-09-06T11:09:35Z</time><name>PT329</name></trkpt>
<trkpt lat="52.688661" lon="06.007475"><ele>-6.6</ele><time>2022-09-06T11:09:36Z</time><name>PT330</name></trkpt>
<trkpt lat="52.688678" lon="06.007483"><ele>-6.6</ele><time>2022-09-06T11:09:36Z</time><name>PT331</name></trkpt>
<trkpt lat="52.688695" lon="06.007491"><ele>-6.5</ele><time>2022-09-06T11:09:38Z</time><name>PT332</name></trkpt>
<trkpt lat="52.688712" lon="06.007500"><ele>-6.7</ele><time>2022-09-06T11:09:39Z</time><name>PT333</name></trkpt>
<trkpt lat="52.688729" lon="06.007509"><ele>-6.6</ele><time>2022-09-06T11:09:39Z</time><name>PT334</name></trkpt>
<trkpt lat="52.688746" lon="06.007519"><ele>-6.6</ele><time>2022-09-06T11:09:41Z</time><name>PT335</name></trkpt>
<trkpt lat="52.688762" lon="06.007528"><ele>-6.5</ele><time>2022-09-06T11:09:42Z</time><name>PT336</name></trkpt>
<trkpt lat="52.688779" lon="06.007537"><ele>-6.6</ele><time>2022-09-06T11:09:42Z</time><name>PT337</name></trkpt>
<trkpt lat="52.688795" lon="06.007547"><ele>-6.6</ele><time>2022-09-06T11:09:44Z</time><name>PT338</name></trkpt>
<trkpt lat="52.688811" lon="06.007555"><ele>-6.7</ele><time>2022-09-06T11:09:45Z</time><name>PT339</name></trkpt>
<trkpt lat="52.688828" lon="06.007564"><ele>-6.7</ele><time>2022-09-06T11:09:46Z</time><name>PT340</name></trkpt>
<trkpt lat="52.688844" lon="06.007572"><ele>-6.6</ele><time>2022-09-06T11:09:47Z</time><name>PT341</name></trkpt>
<trkpt lat="52.688859" lon="06.007581"><ele>-6.6</ele><time>2022-09-06T11:09:48Z</time><name>PT342</name></trkpt>
<trkpt lat="52.688874" lon="06.007589"><ele>-6.5</ele><time>2022-09-06T11:09:48Z</time><name>PT343</name></trkpt>
<trkpt lat="52.688888" lon="06.007598"><ele>-6.5</ele><time>2022-09-06T11:09:50Z</time><name>PT344</name></trkpt>
<trkpt lat="52.688902" lon="06.007607"><ele>-6.7</ele><time>2022-09-06T11:09:51Z</time><name>PT345</name></trkpt>
<trkpt lat="52.688918" lon="06.007618"><ele>-6.7</ele><time>2022-09-06T11:09:51Z</time><name>PT346</name></trkpt>
<trkpt lat="52.688935" lon="06.007629"><ele>-6.6</ele><time>2022-09-06T11:09:53Z</time><name>PT347</name></trkpt>
<trkpt lat="52.688952" lon="06.007641"><ele>-6.6</ele><time>2022-09-06T11:09:54Z</time><name>PT348</name></trkpt>
<trkpt lat="52.688968" lon="06.007651"><ele>-6.4</ele><time>2022-09-06T11:09:55Z</time><name>PT349</name></trkpt>
<trkpt lat="52.688983" lon="06.007661"><ele>-6.4</ele><time>2022-09-06T11:09:56Z</time><name>PT350</name></trkpt>
<trkpt lat="52.688999" lon="06.007673"><ele>-6.6</ele><time>2022-09-06T11:09:57Z</time><name>PT351</name></trkpt>
<trkpt lat="52.689015" lon="06.007684"><ele>-6.7</ele><time>2022-09-06T11:09:57Z</time><name>PT352</name></trkpt>
<trkpt lat="52.689031" lon="06.007695"><ele>-6.8</ele><time>2022-09-06T11:09:59Z</time><name>PT353</name></trkpt>
<trkpt lat="52.689046" lon="06.007707"><ele>-6.9</ele><time>2022-09-06T11:10:00Z</time><name>PT354</name></trkpt>
<trkpt lat="52.689062" lon="06.007718"><ele>-6.7</ele><time>2022-09-06T11:10:00Z</time><name>PT355</name></trkpt>
<trkpt lat="52.689077" lon="06.007729"><ele>-6.7</ele><time>2022-09-06T11:10:02Z</time><name>PT356</name></trkpt>
<trkpt lat="52.689093" lon="06.007739"><ele>-6.6</ele><time>2022-09-06T11:10:03Z</time><name>PT357</name></trkpt>
<trkpt lat="52.689110" lon="06.007752"><ele>-6.5</ele><time>2022-09-06T11:10:03Z</time><name>PT358</name></trkpt>
<trkpt lat="52.689126" lon="06.007763"><ele>-6.5</ele><time>2022-09-06T11:10:05Z</time><name>PT359</name></trkpt>
<trkpt lat="52.689142" lon="06.007774"><ele>-6.5</ele><time>2022-09-06T11:10:06Z</time><name>PT360</name></trkpt>
<trkpt lat="52.689158" lon="06.007785"><ele>-6.4</ele><time>2022-09-06T11:10:06Z</time><name>PT361</name></trkpt>
<trkpt lat="52.689175" lon="06.007797"><ele>-6.4</ele><time>2022-09-06T11:10:08Z</time><name>PT362</name></trkpt>
<trkpt lat="52.689191" lon="06.007809"><ele>-6.4</ele><time>2022-09-06T11:10:09Z</time><name>PT363</name></trkpt>
<trkpt lat="52.689207" lon="06.007819"><ele>-6.4</ele><time>2022-09-06T11:10:09Z</time><name>PT364</name></trkpt>
<trkpt lat="52.689223" lon="06.007829"><ele>-6.5</ele><time>2022-09-06T11:10:11Z</time><name>PT365</name></trkpt>
<trkpt lat="52.689238" lon="06.007839"><ele>-6.5</ele><time>2022-09-06T11:10:12Z</time><name>PT366</name></trkpt>
<trkpt lat="52.689253" lon="06.007849"><ele>-6.5</ele><time>2022-09-06T11:10:12Z</time><name>PT367</name></trkpt>
<trkpt lat="52.689269" lon="06.007860"><ele>-6.4</ele><time>2022-09-06T11:10:14Z</time><name>PT368</name></trkpt>
<trkpt lat="52.689284" lon="06.007871"><ele>-6.4</ele><time>2022-09-06T11:10:15Z</time><name>PT369</name></trkpt>
<trkpt lat="52.689300" lon="06.007883"><ele>-6.4</ele><time>2022-09-06T11:10:15Z</time><name>PT370</name></trkpt>
<trkpt lat="52.689315" lon="06.007895"><ele>-6.4</ele><time>2022-09-06T11:10:17Z</time><name>PT371</name></trkpt>
<trkpt lat="52.689331" lon="06.007906"><ele>-6.4</ele><time>2022-09-06T11:10:18Z</time><name>PT372</name></trkpt>
<trkpt lat="52.689346" lon="06.007919"><ele>-6.5</ele><time>2022-09-06T11:10:18Z</time><name>PT373</name></trkpt>
<trkpt lat="52.689360" lon="06.007932"><ele>-6.6</ele><time>2022-09-06T11:10:20Z</time><name>PT374</name></trkpt>
<trkpt lat="52.689374" lon="06.007947"><ele>-6.7</ele><time>2022-09-06T11:10:21Z</time><name>PT375</name></trkpt>
<trkpt lat="52.689388" lon="06.007961"><ele>-6.7</ele><time>2022-09-06T11:10:21Z</time><name>PT376</name></trkpt>
<trkpt lat="52.689401" lon="06.007976"><ele>-6.6</ele><time>2022-09-06T11:10:23Z</time><name>PT377</name></trkpt>
<trkpt lat="52.689414" lon="06.007992"><ele>-6.5</ele><time>2022-09-06T11:10:24Z</time><name>PT378</name></trkpt>
<trkpt lat="52.689428" lon="06.008009"><ele>-6.5</ele><time>2022-09-06T11:10:24Z</time><name>PT379</name></trkpt>
<trkpt lat="52.689441" lon="06.008026"><ele>-6.3</ele><time>2022-09-06T11:10:26Z</time><name>PT380</name></trkpt>
<trkpt lat="52.689453" lon="06.008044"><ele>-6.4</ele><time>2022-09-06T11:10:27Z</time><name>PT381</name></trkpt>
<trkpt lat="52.689465" lon="06.008062"><ele>-6.4</ele><time>2022-09-06T11:10:27Z</time><name>PT382</name></trkpt>
<trkpt lat="52.689477" lon="06.008081"><ele>-6.5</ele><time>2022-09-06T11:10:29Z</time><name>PT383</name></trkpt>
<trkpt lat="52.689488" lon="06.008100"><ele>-6.5</ele><time>2022-09-06T11:10:30Z</time><name>PT384</name></trkpt>
<trkpt lat="52.689500" lon="06.008119"><ele>-6.6</ele><time>2022-09-06T11:10:30Z</time><name>PT385</name></trkpt>
<trkpt lat="52.689510" lon="06.008140"><ele>-6.5</ele><time>2022-09-06T11:10:32Z</time><name>PT386</name></trkpt>
<trkpt lat="52.689520" lon="06.008161"><ele>-6.6</ele><time>2022-09-06T11:10:33Z</time><name>PT387</name></trkpt>
<trkpt lat="52.689530" lon="06.008183"><ele>-6.4</ele><time>2022-09-06T11:10:33Z</time><name>PT388</name></trkpt>
<trkpt lat="52.689539" lon="06.008204"><ele>-6.3</ele><time>2022-09-06T11:10:35Z</time><name>PT389</name></trkpt>
<trkpt lat="52.689549" lon="06.008227"><ele>-6.2</ele><time>2022-09-06T11:10:36Z</time><name>PT390</name></trkpt>
<trkpt lat="52.689557" lon="06.008250"><ele>-6.1</ele><time>2022-09-06T11:10:36Z</time><name>PT391</name></trkpt>
<trkpt lat="52.689565" lon="06.008273"><ele>-5.9</ele><time>2022-09-06T11:10:38Z</time><name>PT392</name></trkpt>
<trkpt lat="52.689573" lon="06.008297"><ele>-5.9</ele><time>2022-09-06T11:10:39Z</time><name>PT393</name></trkpt>
<trkpt lat="52.689580" lon="06.008320"><ele>-6.2</ele><time>2022-09-06T11:10:39Z</time><name>PT394</name></trkpt>
<trkpt lat="52.689587" lon="06.008345"><ele>-6</ele><time>2022-09-06T11:10:41Z</time><name>PT395</name></trkpt>
<trkpt lat="52.689594" lon="06.008369"><ele>-6.2</ele><time>2022-09-06T11:10:42Z</time><name>PT396</name></trkpt>
<trkpt lat="52.689598" lon="06.008395"><ele>-6.4</ele><time>2022-09-06T11:10:42Z</time><name>PT397</name></trkpt>
<trkpt lat="52.689602" lon="06.008423"><ele>-6.5</ele><time>2022-09-06T11:10:44Z</time><name>PT398</name></trkpt>
<trkpt lat="52.689606" lon="06.008450"><ele>-6.7</ele><time>2022-09-06T11:10:45Z</time><name>PT399</name></trkpt>
<trkpt lat="52.689608" lon="06.008477"><ele>-6.8</ele><time>2022-09-06T11:10:45Z</time><name>PT400</name></trkpt>
<trkpt lat="52.689611" lon="06.008504"><ele>-6.9</ele><time>2022-09-06T11:10:47Z</time><name>PT401</name></trkpt>
<trkpt lat="52.689614" lon="06.008531"><ele>-6.9</ele><time>2022-09-06T11:10:48Z</time><name>PT402</name></trkpt>
<trkpt lat="52.689616" lon="06.008559"><ele>-6.9</ele><time>2022-09-06T11:10:48Z</time><name>PT403</name></trkpt>
<trkpt lat="52.689619" lon="06.008587"><ele>-6.9</ele><time>2022-09-06T11:10:50Z</time><name>PT404</name></trkpt>
<trkpt lat="52.689620" lon="06.008615"><ele>-6.7</ele><time>2022-09-06T11:10:51Z</time><name>PT405</name></trkpt>
<trkpt lat="52.689622" lon="06.008643"><ele>-6.6</ele><time>2022-09-06T11:10:51Z</time><name>PT406</name></trkpt>
<trkpt lat="52.689624" lon="06.008671"><ele>-6.5</ele><time>2022-09-06T11:10:53Z</time><name>PT407</name></trkpt>
<trkpt lat="52.689626" lon="06.008700"><ele>-6.5</ele><time>2022-09-06T11:10:54Z</time><name>PT408</name></trkpt>
<trkpt lat="52.689628" lon="06.008728"><ele>-6.6</ele><time>2022-09-06T11:10:54Z</time><name>PT409</name></trkpt>
<trkpt lat="52.689630" lon="06.008757"><ele>-6.5</ele><time>2022-09-06T11:10:56Z</time><name>PT410</name></trkpt>
<trkpt lat="52.689632" lon="06.008786"><ele>-6.8</ele><time>2022-09-06T11:10:57Z</time><name>PT411</name></trkpt>
<trkpt lat="52.689634" lon="06.008815"><ele>-6.7</ele><time>2022-09-06T11:10:57Z</time><name>PT412</name></trkpt>
<trkpt lat="52.689637" lon="06.008845"><ele>-6.7</ele><time>2022-09-06T11:10:59Z</time><name>PT413</name></trkpt>
<trkpt lat="52.689639" lon="06.008874"><ele>-6.6</ele><time>2022-09-06T11:11:00Z</time><name>PT414</name></trkpt>
<trkpt lat="52.689640" lon="06.008902"><ele>-6.6</ele><time>2022-09-06T11:11:00Z</time><name>PT415</name></trkpt>
<trkpt lat="52.689642" lon="06.008931"><ele>-6.6</ele><time>2022-09-06T11:11:02Z</time><name>PT416</name></trkpt>
<trkpt lat="52.689644" lon="06.008959"><ele>-6.7</ele><time>2022-09-06T11:11:03Z</time><name>PT417</name></trkpt>
<trkpt lat="52.689646" lon="06.008989"><ele>-6.9</ele><time>2022-09-06T11:11:03Z</time><name>PT418</name></trkpt>
<trkpt lat="52.689649" lon="06.009018"><ele>-7</ele><time>2022-09-06T11:11:05Z</time><name>PT419</name></trkpt>
<trkpt lat="52.689651" lon="06.009047"><ele>-7.1</ele><time>2022-09-06T11:11:06Z</time><name>PT420</name></trkpt>
<trkpt lat="52.689653" lon="06.009076"><ele>-7.1</ele><time>2022-09-06T11:11:06Z</time><name>PT421</name></trkpt>
<trkpt lat="52.689655" lon="06.009105"><ele>-7</ele><time>2022-09-06T11:11:08Z</time><name>PT422</name></trkpt>
<trkpt lat="52.689657" lon="06.009134"><ele>-6.9</ele><time>2022-09-06T11:11:09Z</time><name>PT423</name></trkpt>
<trkpt lat="52.689660" lon="06.009164"><ele>-6.9</ele><time>2022-09-06T11:11:10Z</time><name>PT424</name></trkpt>
<trkpt lat="52.689662" lon="06.009193"><ele>-6.7</ele><time>2022-09-06T11:11:11Z</time><name>PT425</name></trkpt>
<trkpt lat="52.689666" lon="06.009221"><ele>-6.7</ele><time>2022-09-06T11:11:12Z</time><name>PT426</name></trkpt>
<trkpt lat="52.689669" lon="06.009251"><ele>-6.8</ele><time>2022-09-06T11:11:13Z</time><name>PT427</name></trkpt>
<trkpt lat="52.689671" lon="06.009282"><ele>-6.7</ele><time>2022-09-06T11:11:14Z</time><name>PT428</name></trkpt>
<trkpt lat="52.689673" lon="06.009313"><ele>-6.8</ele><time>2022-09-06T11:11:15Z</time><name>PT429</name></trkpt>
<trkpt lat="52.689675" lon="06.009343"><ele>-6.9</ele><time>2022-09-06T11:11:16Z</time><name>PT430</name></trkpt>
<trkpt lat="52.689678" lon="06.009372"><ele>-6.9</ele><time>2022-09-06T11:11:17Z</time><name>PT431</name></trkpt>
<trkpt lat="52.689681" lon="06.009400"><ele>-6.9</ele><time>2022-09-06T11:11:18Z</time><name>PT432</name></trkpt>
<trkpt lat="52.689683" lon="06.009429"><ele>-7</ele><time>2022-09-06T11:11:19Z</time><name>PT433</name></trkpt>
<trkpt lat="52.689686" lon="06.009458"><ele>-7.1</ele><time>2022-09-06T11:11:20Z</time><name>PT434</name></trkpt>
<trkpt lat="52.689689" lon="06.009487"><ele>-7.2</ele><time>2022-09-06T11:11:21Z</time><name>PT435</name></trkpt>
<trkpt lat="52.689692" lon="06.009516"><ele>-7.2</ele><time>2022-09-06T11:11:21Z</time><name>PT436</name></trkpt>
<trkpt lat="52.689694" lon="06.009545"><ele>-7.2</ele><time>2022-09-06T11:11:23Z</time><name>PT437</name></trkpt>
<trkpt lat="52.689697" lon="06.009574"><ele>-7</ele><time>2022-09-06T11:11:24Z</time><name>PT438</name></trkpt>
<trkpt lat="52.689700" lon="06.009603"><ele>-7</ele><time>2022-09-06T11:11:24Z</time><name>PT439</name></trkpt>
<trkpt lat="52.689703" lon="06.009632"><ele>-7</ele><time>2022-09-06T11:11:26Z</time><name>PT440</name></trkpt>
<trkpt lat="52.689706" lon="06.009660"><ele>-6.9</ele><time>2022-09-06T11:11:27Z</time><name>PT441</name></trkpt>
<trkpt lat="52.689709" lon="06.009688"><ele>-6.7</ele><time>2022-09-06T11:11:27Z</time><name>PT442</name></trkpt>
<trkpt lat="52.689712" lon="06.009719"><ele>-6.7</ele><time>2022-09-06T11:11:29Z</time><name>PT443</name></trkpt>
<trkpt lat="52.689717" lon="06.009749"><ele>-6.5</ele><time>2022-09-06T11:11:30Z</time><name>PT444</name></trkpt>
<trkpt lat="52.689723" lon="06.009781"><ele>-6.5</ele><time>2022-09-06T11:11:30Z</time><name>PT445</name></trkpt>
<trkpt lat="52.689727" lon="06.009814"><ele>-6.8</ele><time>2022-09-06T11:11:32Z</time><name>PT446</name></trkpt>
<trkpt lat="52.689731" lon="06.009844"><ele>-6.9</ele><time>2022-09-06T11:11:33Z</time><name>PT447</name></trkpt>
<trkpt lat="52.689736" lon="06.009874"><ele>-6.9</ele><time>2022-09-06T11:11:33Z</time><name>PT448</name></trkpt>
<trkpt lat="52.689741" lon="06.009904"><ele>-7.1</ele><time>2022-09-06T11:11:35Z</time><name>PT449</name></trkpt>
<trkpt lat="52.689745" lon="06.009933"><ele>-6.8</ele><time>2022-09-06T11:11:36Z</time><name>PT450</name></trkpt>
<trkpt lat="52.689749" lon="06.009962"><ele>-6.7</ele><time>2022-09-06T11:11:36Z</time><name>PT451</name></trkpt>
<trkpt lat="52.689754" lon="06.009991"><ele>-6.6</ele><time>2022-09-06T11:11:38Z</time><name>PT452</name></trkpt>
<trkpt lat="52.689758" lon="06.010020"><ele>-6.7</ele><time>2022-09-06T11:11:39Z</time><name>PT453</name></trkpt>
<trkpt lat="52.689762" lon="06.010048"><ele>-6.7</ele><time>2022-09-06T11:11:39Z</time><name>PT454</name></trkpt>
<trkpt lat="52.689766" lon="06.010076"><ele>-6.8</ele><time>2022-09-06T11:11:41Z</time><name>PT455</name></trkpt>
<trkpt lat="52.689771" lon="06.010105"><ele>-6.9</ele><time>2022-09-06T11:11:42Z</time><name>PT456</name></trkpt>
<trkpt lat="52.689774" lon="06.010133"><ele>-7</ele><time>2022-09-06T11:11:42Z</time><name>PT457</name></trkpt>
<trkpt lat="52.689778" lon="06.010162"><ele>-6.9</ele><time>2022-09-06T11:11:44Z</time><name>PT458</name></trkpt>
<trkpt lat="52.689782" lon="06.010190"><ele>-6.9</ele><time>2022-09-06T11:11:45Z</time><name>PT459</name></trkpt>
<trkpt lat="52.689787" lon="06.010219"><ele>-6.9</ele><time>2022-09-06T11:11:45Z</time><name>PT460</name></trkpt>
<trkpt lat="52.689791" lon="06.010247"><ele>-7</ele><time>2022-09-06T11:11:47Z</time><name>PT461</name></trkpt>
<trkpt lat="52.689795" lon="06.010276"><ele>-7</ele><time>2022-09-06T11:11:48Z</time><name>PT462</name></trkpt>
<trkpt lat="52.689800" lon="06.010304"><ele>-7.1</ele><time>2022-09-06T11:11:48Z</time><name>PT463</name></trkpt>
<trkpt lat="52.689804" lon="06.010332"><ele>-7.1</ele><time>2022-09-06T11:11:50Z</time><name>PT464</name></trkpt>
<trkpt lat="52.689809" lon="06.010361"><ele>-7.1</ele><time>2022-09-06T11:11:51Z</time><name>PT465</name></trkpt>
<trkpt lat="52.689813" lon="06.010389"><ele>-6.9</ele><time>2022-09-06T11:11:51Z</time><name>PT466</name></trkpt>
<trkpt lat="52.689817" lon="06.010416"><ele>-6.9</ele><time>2022-09-06T11:11:53Z</time><name>PT467</name></trkpt>
<trkpt lat="52.689822" lon="06.010445"><ele>-6.8</ele><time>2022-09-06T11:11:54Z</time><name>PT468</name></trkpt>
<trkpt lat="52.689827" lon="06.010473"><ele>-6.8</ele><time>2022-09-06T11:11:54Z</time><name>PT469</name></trkpt>
<trkpt lat="52.689832" lon="06.010501"><ele>-6.8</ele><time>2022-09-06T11:11:56Z</time><name>PT470</name></trkpt>
<trkpt lat="52.689838" lon="06.010528"><ele>-6.9</ele><time>2022-09-06T11:11:57Z</time><name>PT471</name></trkpt>
<trkpt lat="52.689843" lon="06.010555"><ele>-6.9</ele><time>2022-09-06T11:11:57Z</time><name>PT472</name></trkpt>
<trkpt lat="52.689848" lon="06.010584"><ele>-6.9</ele><time>2022-09-06T11:11:59Z</time><name>PT473</name></trkpt>
<trkpt lat="52.689852" lon="06.010612"><ele>-6.9</ele><time>2022-09-06T11:12:00Z</time><name>PT474</name></trkpt>
<trkpt lat="52.689857" lon="06.010641"><ele>-7</ele><time>2022-09-06T11:12:00Z</time><name>PT475</name></trkpt>
<trkpt lat="52.689862" lon="06.010669"><ele>-6.8</ele><time>2022-09-06T11:12:02Z</time><name>PT476</name></trkpt>
<trkpt lat="52.689867" lon="06.010698"><ele>-6.9</ele><time>2022-09-06T11:12:03Z</time><name>PT477</name></trkpt>
<trkpt lat="52.689870" lon="06.010727"><ele>-6.9</ele><time>2022-09-06T11:12:03Z</time><name>PT478</name></trkpt>
<trkpt lat="52.689875" lon="06.010756"><ele>-6.9</ele><time>2022-09-06T11:12:05Z</time><name>PT479</name></trkpt>
<trkpt lat="52.689879" lon="06.010786"><ele>-7.1</ele><time>2022-09-06T11:12:06Z</time><name>PT480</name></trkpt>
<trkpt lat="52.689884" lon="06.010815"><ele>-7.3</ele><time>2022-09-06T11:12:06Z</time><name>PT481</name></trkpt>
<trkpt lat="52.689888" lon="06.010843"><ele>-7.2</ele><time>2022-09-06T11:12:08Z</time><name>PT482</name></trkpt>
<trkpt lat="52.689893" lon="06.010871"><ele>-7.3</ele><time>2022-09-06T11:12:09Z</time><name>PT483</name></trkpt>
<trkpt lat="52.689897" lon="06.010899"><ele>-7.2</ele><time>2022-09-06T11:12:09Z</time><name>PT484</name></trkpt>
<trkpt lat="52.689902" lon="06.010927"><ele>-7</ele><time>2022-09-06T11:12:11Z</time><name>PT485</name></trkpt>
<trkpt lat="52.689906" lon="06.010955"><ele>-6.9</ele><time>2022-09-06T11:12:12Z</time><name>PT486</name></trkpt>
<trkpt lat="52.689910" lon="06.010983"><ele>-7</ele><time>2022-09-06T11:12:12Z</time><name>PT487</name></trkpt>
<trkpt lat="52.689913" lon="06.011013"><ele>-6.9</ele><time>2022-09-06T11:12:14Z</time><name>PT488</name></trkpt>
<trkpt lat="52.689918" lon="06.011041"><ele>-7</ele><time>2022-09-06T11:12:15Z</time><name>PT489</name></trkpt>
<trkpt lat="52.689923" lon="06.011069"><ele>-7.1</ele><time>2022-09-06T11:12:15Z</time><name>PT490</name></trkpt>
<trkpt lat="52.689927" lon="06.011097"><ele>-7</ele><time>2022-09-06T11:12:17Z</time><name>PT491</name></trkpt>
<trkpt lat="52.689931" lon="06.011125"><ele>-7.1</ele><time>2022-09-06T11:12:18Z</time><name>PT492</name></trkpt>
<trkpt lat="52.689935" lon="06.011153"><ele>-7.2</ele><time>2022-09-06T11:12:18Z</time><name>PT493</name></trkpt>
<trkpt lat="52.689939" lon="06.011182"><ele>-7.1</ele><time>2022-09-06T11:12:20Z</time><name>PT494</name></trkpt>
<trkpt lat="52.689944" lon="06.011210"><ele>-7.2</ele><time>2022-09-06T11:12:21Z</time><name>PT495</name></trkpt>
<trkpt lat="52.689947" lon="06.011239"><ele>-7</ele><time>2022-09-06T11:12:21Z</time><name>PT496</name></trkpt>
<trkpt lat="52.689951" lon="06.011268"><ele>-7</ele><time>2022-09-06T11:12:23Z</time><name>PT497</name></trkpt>
<trkpt lat="52.689955" lon="06.011297"><ele>-6.9</ele><time>2022-09-06T11:12:24Z</time><name>PT498</name></trkpt>
<trkpt lat="52.689959" lon="06.011326"><ele>-6.9</ele><time>2022-09-06T11:12:25Z</time><name>PT499</name></trkpt>
<trkpt lat="52.689963" lon="06.011355"><ele>-6.9</ele><time>2022-09-06T11:12:26Z</time><name>PT500</name></trkpt>
<trkpt lat="52.689967" lon="06.011384"><ele>-6.9</ele><time>2022-09-06T11:12:27Z</time><name>PT501</name></trkpt>
<trkpt lat="52.689971" lon="06.011414"><ele>-6.9</ele><time>2022-09-06T11:12:27Z</time><name>PT502</name></trkpt>
<trkpt lat="52.689975" lon="06.011442"><ele>-7</ele><time>2022-09-06T11:12:29Z</time><name>PT503</name></trkpt>
<trkpt lat="52.689979" lon="06.011470"><ele>-7.2</ele><time>2022-09-06T11:12:30Z</time><name>PT504</name></trkpt>
<trkpt lat="52.689983" lon="06.011498"><ele>-7.4</ele><time>2022-09-06T11:12:30Z</time><name>PT505</name></trkpt>
<trkpt lat="52.689989" lon="06.011525"><ele>-7.3</ele><time>2022-09-06T11:12:32Z</time><name>PT506</name></trkpt>
<trkpt lat="52.689995" lon="06.011552"><ele>-7.3</ele><time>2022-09-06T11:12:33Z</time><name>PT507</name></trkpt>
<trkpt lat="52.689998" lon="06.011582"><ele>-7.3</ele><time>2022-09-06T11:12:33Z</time><name>PT508</name></trkpt>
<trkpt lat="52.690002" lon="06.011612"><ele>-7.2</ele><time>2022-09-06T11:12:35Z</time><name>PT509</name></trkpt>
<trkpt lat="52.690006" lon="06.011641"><ele>-7.2</ele><time>2022-09-06T11:12:36Z</time><name>PT510</name></trkpt>
<trkpt lat="52.690010" lon="06.011671"><ele>-7.3</ele><time>2022-09-06T11:12:36Z</time><name>PT511</name></trkpt>
<trkpt lat="52.690013" lon="06.011700"><ele>-7.3</ele><time>2022-09-06T11:12:38Z</time><name>PT512</name></trkpt>
<trkpt lat="52.690017" lon="06.011729"><ele>-7.3</ele><time>2022-09-06T11:12:39Z</time><name>PT513</name></trkpt>
<trkpt lat="52.690020" lon="06.011758"><ele>-7.1</ele><time>2022-09-06T11:12:39Z</time><name>PT514</name></trkpt>
<trkpt lat="52.690024" lon="06.011787"><ele>-7.1</ele><time>2022-09-06T11:12:41Z</time><name>PT515</name></trkpt>
<trkpt lat="52.690027" lon="06.011816"><ele>-7</ele><time>2022-09-06T11:12:42Z</time><name>PT516</name></trkpt>
<trkpt lat="52.690030" lon="06.011845"><ele>-7.1</ele><time>2022-09-06T11:12:42Z</time><name>PT517</name></trkpt>
<trkpt lat="52.690033" lon="06.011874"><ele>-7.1</ele><time>2022-09-06T11:12:44Z</time><name>PT518</name></trkpt>
<trkpt lat="52.690036" lon="06.011902"><ele>-7.2</ele><time>2022-09-06T11:12:45Z</time><name>PT519</name></trkpt>
<trkpt lat="52.690039" lon="06.011931"><ele>-7.2</ele><time>2022-09-06T11:12:45Z</time><name>PT520</name></trkpt>
<trkpt lat="52.690042" lon="06.011960"><ele>-7.3</ele><time>2022-09-06T11:12:47Z</time><name>PT521</name></trkpt>
<trkpt lat="52.690045" lon="06.011989"><ele>-7.3</ele><time>2022-09-06T11:12:48Z</time><name>PT522</name></trkpt>
<trkpt lat="52.690048" lon="06.012018"><ele>-7.4</ele><time>2022-09-06T11:12:48Z</time><name>PT523</name></trkpt>
<trkpt lat="52.690051" lon="06.012047"><ele>-7.3</ele><time>2022-09-06T11:12:50Z</time><name>PT524</name></trkpt>
<trkpt lat="52.690053" lon="06.012076"><ele>-7.3</ele><time>2022-09-06T11:12:51Z</time><name>PT525</name></trkpt>
<trkpt lat="52.690056" lon="06.012105"><ele>-7.2</ele><time>2022-09-06T11:12:51Z</time><name>PT526</name></trkpt>
<trkpt lat="52.690058" lon="06.012134"><ele>-7.1</ele><time>2022-09-06T11:12:53Z</time><name>PT527</name></trkpt>
<trkpt lat="52.690060" lon="06.012163"><ele>-6.9</ele><time>2022-09-06T11:12:54Z</time><name>PT528</name></trkpt>
<trkpt lat="52.690061" lon="06.012192"><ele>-6.9</ele><time>2022-09-06T11:12:54Z</time><name>PT529</name></trkpt>
<trkpt lat="52.690062" lon="06.012222"><ele>-6.9</ele><time>2022-09-06T11:12:56Z</time><name>PT530</name></trkpt>
<trkpt lat="52.690063" lon="06.012251"><ele>-6.8</ele><time>2022-09-06T11:12:57Z</time><name>PT531</name></trkpt>
<trkpt lat="52.690064" lon="06.012280"><ele>-6.9</ele><time>2022-09-06T11:12:57Z</time><name>PT532</name></trkpt>
<trkpt lat="52.690065" lon="06.012309"><ele>-6.9</ele><time>2022-09-06T11:12:59Z</time><name>PT533</name></trkpt>
<trkpt lat="52.690066" lon="06.012338"><ele>-6.7</ele><time>2022-09-06T11:13:00Z</time><name>PT534</name></trkpt>
<trkpt lat="52.690066" lon="06.012367"><ele>-6.9</ele><time>2022-09-06T11:13:00Z</time><name>PT535</name></trkpt>
<trkpt lat="52.690066" lon="06.012397"><ele>-6.9</ele><time>2022-09-06T11:13:02Z</time><name>PT536</name></trkpt>
<trkpt lat="52.690067" lon="06.012425"><ele>-6.9</ele><time>2022-09-06T11:13:03Z</time><name>PT537</name></trkpt>
<trkpt lat="52.690067" lon="06.012455"><ele>-6.9</ele><time>2022-09-06T11:13:03Z</time><name>PT538</name></trkpt>
<trkpt lat="52.690068" lon="06.012484"><ele>-6.9</ele><time>2022-09-06T11:13:05Z</time><name>PT539</name></trkpt>
<trkpt lat="52.690068" lon="06.012513"><ele>-6.9</ele><time>2022-09-06T11:13:06Z</time><name>PT540</name></trkpt>
<trkpt lat="52.690068" lon="06.012542"><ele>-6.9</ele><time>2022-09-06T11:13:06Z</time><name>PT541</name></trkpt>
<trkpt lat="52.690067" lon="06.012572"><ele>-6.9</ele><time>2022-09-06T11:13:08Z</time><name>PT542</name></trkpt>
<trkpt lat="52.690067" lon="06.012601"><ele>-6.9</ele><time>2022-09-06T11:13:09Z</time><name>PT543</name></trkpt>
<trkpt lat="52.690066" lon="06.012630"><ele>-6.9</ele><time>2022-09-06T11:13:09Z</time><name>PT544</name></trkpt>
<trkpt lat="52.690066" lon="06.012658"><ele>-6.9</ele><time>2022-09-06T11:13:11Z</time><name>PT545</name></trkpt>
<trkpt lat="52.690065" lon="06.012687"><ele>-6.8</ele><time>2022-09-06T11:13:12Z</time><name>PT546</name></trkpt>
<trkpt lat="52.690064" lon="06.012715"><ele>-6.9</ele><time>2022-09-06T11:13:12Z</time><name>PT547</name></trkpt>
<trkpt lat="52.690064" lon="06.012744"><ele>-7.2</ele><time>2022-09-06T11:13:14Z</time><name>PT548</name></trkpt>
<trkpt lat="52.690063" lon="06.012773"><ele>-7.2</ele><time>2022-09-06T11:13:15Z</time><name>PT549</name></trkpt>
<trkpt lat="52.690062" lon="06.012802"><ele>-7.3</ele><time>2022-09-06T11:13:15Z</time><name>PT550</name></trkpt>
<trkpt lat="52.690061" lon="06.012831"><ele>-7.3</ele><time>2022-09-06T11:13:17Z</time><name>PT551</name></trkpt>
<trkpt lat="52.690060" lon="06.012860"><ele>-7.2</ele><time>2022-09-06T11:13:18Z</time><name>PT552</name></trkpt>
<trkpt lat="52.690059" lon="06.012889"><ele>-7.1</ele><time>2022-09-06T11:13:18Z</time><name>PT553</name></trkpt>
<trkpt lat="52.690057" lon="06.012917"><ele>-7.1</ele><time>2022-09-06T11:13:20Z</time><name>PT554</name></trkpt>
<trkpt lat="52.690056" lon="06.012946"><ele>-7</ele><time>2022-09-06T11:13:21Z</time><name>PT555</name></trkpt>
<trkpt lat="52.690054" lon="06.012974"><ele>-7.1</ele><time>2022-09-06T11:13:21Z</time><name>PT556</name></trkpt>
<trkpt lat="52.690052" lon="06.013003"><ele>-7.3</ele><time>2022-09-06T11:13:23Z</time><name>PT557</name></trkpt>
<trkpt lat="52.690049" lon="06.013032"><ele>-7.2</ele><time>2022-09-06T11:13:24Z</time><name>PT558</name></trkpt>
<trkpt lat="52.690047" lon="06.013060"><ele>-7.2</ele><time>2022-09-06T11:13:24Z</time><name>PT559</name></trkpt>
<trkpt lat="52.690044" lon="06.013088"><ele>-7.4</ele><time>2022-09-06T11:13:26Z</time><name>PT560</name></trkpt>
<trkpt lat="52.690040" lon="06.013116"><ele>-7.3</ele><time>2022-09-06T11:13:27Z</time><name>PT561</name></trkpt>
<trkpt lat="52.690037" lon="06.013144"><ele>-7.3</ele><time>2022-09-06T11:13:27Z</time><name>PT562</name></trkpt>
<trkpt lat="52.690033" lon="06.013171"><ele>-7.3</ele><time>2022-09-06T11:13:29Z</time><name>PT563</name></trkpt>
<trkpt lat="52.690028" lon="06.013198"><ele>-7.3</ele><time>2022-09-06T11:13:30Z</time><name>PT564</name></trkpt>
<trkpt lat="52.690024" lon="06.013224"><ele>-7.3</ele><time>2022-09-06T11:13:30Z</time><name>PT565</name></trkpt>
<trkpt lat="52.690019" lon="06.013250"><ele>-7.3</ele><time>2022-09-06T11:13:32Z</time><name>PT566</name></trkpt>
<trkpt lat="52.690015" lon="06.013277"><ele>-7.4</ele><time>2022-09-06T11:13:33Z</time><name>PT567</name></trkpt>
<trkpt lat="52.690011" lon="06.013303"><ele>-7.3</ele><time>2022-09-06T11:13:33Z</time><name>PT568</name></trkpt>
<trkpt lat="52.690006" lon="06.013330"><ele>-7.2</ele><time>2022-09-06T11:13:35Z</time><name>PT569</name></trkpt>
<trkpt lat="52.690001" lon="06.013356"><ele>-7.2</ele><time>2022-09-06T11:13:36Z</time><name>PT570</name></trkpt>
<trkpt lat="52.689996" lon="06.013382"><ele>-7.2</ele><time>2022-09-06T11:13:36Z</time><name>PT571</name></trkpt>
<trkpt lat="52.689990" lon="06.013408"><ele>-7.1</ele><time>2022-09-06T11:13:38Z</time><name>PT572</name></trkpt>
<trkpt lat="52.689984" lon="06.013433"><ele>-7</ele><time>2022-09-06T11:13:39Z</time><name>PT573</name></trkpt>
<trkpt lat="52.689977" lon="06.013459"><ele>-7.1</ele><time>2022-09-06T11:13:39Z</time><name>PT574</name></trkpt>
<trkpt lat="52.689970" lon="06.013484"><ele>-7.2</ele><time>2022-09-06T11:13:41Z</time><name>PT575</name></trkpt>
<trkpt lat="52.689963" lon="06.013508"><ele>-7.2</ele><time>2022-09-06T11:13:42Z</time><name>PT576</name></trkpt>
<trkpt lat="52.689955" lon="06.013533"><ele>-7.3</ele><time>2022-09-06T11:13:42Z</time><name>PT577</name></trkpt>
<trkpt lat="52.689948" lon="06.013557"><ele>-7.4</ele><time>2022-09-06T11:13:44Z</time><name>PT578</name></trkpt>
<trkpt lat="52.689940" lon="06.013581"><ele>-7.6</ele><time>2022-09-06T11:13:45Z</time><name>PT579</name></trkpt>
<trkpt lat="52.689932" lon="06.013605"><ele>-7.6</ele><time>2022-09-06T11:13:45Z</time><name>PT580</name></trkpt>
<trkpt lat="52.689924" lon="06.013629"><ele>-7.5</ele><time>2022-09-06T11:13:47Z</time><name>PT581</name></trkpt>
<trkpt lat="52.689915" lon="06.013652"><ele>-7.6</ele><time>2022-09-06T11:13:48Z</time><name>PT582</name></trkpt>
<trkpt lat="52.689906" lon="06.013674"><ele>-7.8</ele><time>2022-09-06T11:13:48Z</time><name>PT583</name></trkpt>
<trkpt lat="52.689896" lon="06.013697"><ele>-7.6</ele><time>2022-09-06T11:13:50Z</time><name>PT584</name></trkpt>
<trkpt lat="52.689887" lon="06.013720"><ele>-7.7</ele><time>2022-09-06T11:13:51Z</time><name>PT585</name></trkpt>
<trkpt lat="52.689877" lon="06.013742"><ele>-7.5</ele><time>2022-09-06T11:13:52Z</time><name>PT586</name></trkpt>
<trkpt lat="52.689868" lon="06.013763"><ele>-7.5</ele><time>2022-09-06T11:13:53Z</time><name>PT587</name></trkpt>
<trkpt lat="52.689858" lon="06.013784"><ele>-7.4</ele><time>2022-09-06T11:13:54Z</time><name>PT588</name></trkpt>
<trkpt lat="52.689846" lon="06.013808"><ele>-7.3</ele><time>2022-09-06T11:13:55Z</time><name>PT589</name></trkpt>
<trkpt lat="52.689835" lon="06.013829"><ele>-7.6</ele><time>2022-09-06T11:13:56Z</time><name>PT590</name></trkpt>
<trkpt lat="52.689824" lon="06.013850"><ele>-7.7</ele><time>2022-09-06T11:13:57Z</time><name>PT591</name></trkpt>
<trkpt lat="52.689814" lon="06.013870"><ele>-7.7</ele><time>2022-09-06T11:13:57Z</time><name>PT592</name></trkpt>
<trkpt lat="52.689802" lon="06.013890"><ele>-7.7</ele><time>2022-09-06T11:13:59Z</time><name>PT593</name></trkpt>
<trkpt lat="52.689790" lon="06.013909"><ele>-7.8</ele><time>2022-09-06T11:14:00Z</time><name>PT594</name></trkpt>
<trkpt lat="52.689778" lon="06.013928"><ele>-7.8</ele><time>2022-09-06T11:14:00Z</time><name>PT595</name></trkpt>
<trkpt lat="52.689765" lon="06.013945"><ele>-7.7</ele><time>2022-09-06T11:14:02Z</time><name>PT596</name></trkpt>
<trkpt lat="52.689752" lon="06.013962"><ele>-7.6</ele><time>2022-09-06T11:14:03Z</time><name>PT597</name></trkpt>
<trkpt lat="52.689739" lon="06.013978"><ele>-7.4</ele><time>2022-09-06T11:14:03Z</time><name>PT598</name></trkpt>
<trkpt lat="52.689725" lon="06.013995"><ele>-7.4</ele><time>2022-09-06T11:14:05Z</time><name>PT599</name></trkpt>
<trkpt lat="52.689712" lon="06.014010"><ele>-7.3</ele><time>2022-09-06T11:14:06Z</time><name>PT600</name></trkpt>
<trkpt lat="52.689699" lon="06.014026"><ele>-7.3</ele><time>2022-09-06T11:14:06Z</time><name>PT601</name></trkpt>
<trkpt lat="52.689684" lon="06.014044"><ele>-7.2</ele><time>2022-09-06T11:14:08Z</time><name>PT602</name></trkpt>
<trkpt lat="52.689671" lon="06.014061"><ele>-7.2</ele><time>2022-09-06T11:14:09Z</time><name>PT603</name></trkpt>
<trkpt lat="52.689658" lon="06.014077"><ele>-7.2</ele><time>2022-09-06T11:14:09Z</time><name>PT604</name></trkpt>
<trkpt lat="52.689646" lon="06.014096"><ele>-7.3</ele><time>2022-09-06T11:14:11Z</time><name>PT605</name></trkpt>
<trkpt lat="52.689634" lon="06.014113"><ele>-7.5</ele><time>2022-09-06T11:14:12Z</time><name>PT606</name></trkpt>
<trkpt lat="52.689623" lon="06.014133"><ele>-7.6</ele><time>2022-09-06T11:14:12Z</time><name>PT607</name></trkpt>
<trkpt lat="52.689614" lon="06.014157"><ele>-7.5</ele><time>2022-09-06T11:14:14Z</time><name>PT608</name></trkpt>
<trkpt lat="52.689607" lon="06.014175"><ele>-7.6</ele><time>2022-09-06T11:14:15Z</time><name>PT609</name></trkpt>
<trkpt lat="52.689598" lon="06.014195"><ele>-7.6</ele><time>2022-09-06T11:14:15Z</time><name>PT610</name></trkpt>
<trkpt lat="52.689589" lon="06.014214"><ele>-7.7</ele><time>2022-09-06T11:14:17Z</time><name>PT611</name></trkpt>
<trkpt lat="52.689580" lon="06.014232"><ele>-7.8</ele><time>2022-09-06T11:14:18Z</time><name>PT612</name></trkpt>
<trkpt lat="52.689571" lon="06.014256"><ele>-7.9</ele><time>2022-09-06T11:14:18Z</time><name>PT613</name></trkpt>
<trkpt lat="52.689565" lon="06.014280"><ele>-8</ele><time>2022-09-06T11:14:20Z</time><name>PT614</name></trkpt>
<trkpt lat="52.689558" lon="06.014304"><ele>-8</ele><time>2022-09-06T11:14:21Z</time><name>PT615</name></trkpt>
<trkpt lat="52.689552" lon="06.014329"><ele>-7.8</ele><time>2022-09-06T11:14:21Z</time><name>PT616</name></trkpt>
<trkpt lat="52.689547" lon="06.014353"><ele>-7.5</ele><time>2022-09-06T11:14:23Z</time><name>PT617</name></trkpt>
<trkpt lat="52.689542" lon="06.014378"><ele>-7.5</ele><time>2022-09-06T11:14:24Z</time><name>PT618</name></trkpt>
<trkpt lat="52.689538" lon="06.014404"><ele>-7.4</ele><time>2022-09-06T11:14:24Z</time><name>PT619</name></trkpt>
<trkpt lat="52.689534" lon="06.014429"><ele>-7.4</ele><time>2022-09-06T11:14:26Z</time><name>PT620</name></trkpt>
<trkpt lat="52.689530" lon="06.014454"><ele>-7.4</ele><time>2022-09-06T11:14:27Z</time><name>PT621</name></trkpt>
<trkpt lat="52.689527" lon="06.014480"><ele>-7.4</ele><time>2022-09-06T11:14:27Z</time><name>PT622</name></trkpt>
<trkpt lat="52.689522" lon="06.014506"><ele>-7.4</ele><time>2022-09-06T11:14:29Z</time><name>PT623</name></trkpt>
<trkpt lat="52.689519" lon="06.014532"><ele>-7.7</ele><time>2022-09-06T11:14:30Z</time><name>PT624</name></trkpt>
<trkpt lat="52.689516" lon="06.014558"><ele>-7.8</ele><time>2022-09-06T11:14:30Z</time><name>PT625</name></trkpt>
<trkpt lat="52.689516" lon="06.014581"><ele>-8</ele><time>2022-09-06T11:14:32Z</time><name>PT626</name></trkpt>
<trkpt lat="52.689516" lon="06.014605"><ele>-7.9</ele><time>2022-09-06T11:14:33Z</time><name>PT627</name></trkpt>
<trkpt lat="52.689518" lon="06.014632"><ele>-7.8</ele><time>2022-09-06T11:14:33Z</time><name>PT628</name></trkpt>
<trkpt lat="52.689522" lon="06.014658"><ele>-7.7</ele><time>2022-09-06T11:14:35Z</time><name>PT629</name></trkpt>
<trkpt lat="52.689527" lon="06.014684"><ele>-7.5</ele><time>2022-09-06T11:14:36Z</time><name>PT630</name></trkpt>
<trkpt lat="52.689532" lon="06.014709"><ele>-7.4</ele><time>2022-09-06T11:14:36Z</time><name>PT631</name></trkpt>
<trkpt lat="52.689538" lon="06.014734"><ele>-7.6</ele><time>2022-09-06T11:14:38Z</time><name>PT632</name></trkpt>
<trkpt lat="52.689545" lon="06.014757"><ele>-7.6</ele><time>2022-09-06T11:14:39Z</time><name>PT633</name></trkpt>
<trkpt lat="52.689552" lon="06.014781"><ele>-7.6</ele><time>2022-09-06T11:14:39Z</time><name>PT634</name></trkpt>
<trkpt lat="52.689559" lon="06.014806"><ele>-7.6</ele><time>2022-09-06T11:14:41Z</time><name>PT635</name></trkpt>
<trkpt lat="52.689567" lon="06.014830"><ele>-7.7</ele><time>2022-09-06T11:14:42Z</time><name>PT636</name></trkpt>
<trkpt lat="52.689575" lon="06.014854"><ele>-7.8</ele><time>2022-09-06T11:14:42Z</time><name>PT637</name></trkpt>
<trkpt lat="52.689584" lon="06.014878"><ele>-7.8</ele><time>2022-09-06T11:14:44Z</time><name>PT638</name></trkpt>
<trkpt lat="52.689593" lon="06.014903"><ele>-7.7</ele><time>2022-09-06T11:14:45Z</time><name>PT639</name></trkpt>
<trkpt lat="52.689601" lon="06.014927"><ele>-7.7</ele><time>2022-09-06T11:14:45Z</time><name>PT640</name></trkpt>
<trkpt lat="52.689610" lon="06.014951"><ele>-7.5</ele><time>2022-09-06T11:14:47Z</time><name>PT641</name></trkpt>
<trkpt lat="52.689619" lon="06.014975"><ele>-7.4</ele><time>2022-09-06T11:14:48Z</time><name>PT642</name></trkpt>
<trkpt lat="52.689628" lon="06.014999"><ele>-7.6</ele><time>2022-09-06T11:14:48Z</time><name>PT643</name></trkpt>
<trkpt lat="52.689638" lon="06.015024"><ele>-7.8</ele><time>2022-09-06T11:14:50Z</time><name>PT644</name></trkpt>
<trkpt lat="52.689648" lon="06.015048"><ele>-7.9</ele><time>2022-09-06T11:14:51Z</time><name>PT645</name></trkpt>
<trkpt lat="52.689657" lon="06.015071"><ele>-7.9</ele><time>2022-09-06T11:14:51Z</time><name>PT646</name></trkpt>
<trkpt lat="52.689666" lon="06.015095"><ele>-7.8</ele><time>2022-09-06T11:14:53Z</time><name>PT647</name></trkpt>
<trkpt lat="52.689676" lon="06.015120"><ele>-7.6</ele><time>2022-09-06T11:14:54Z</time><name>PT648</name></trkpt>
<trkpt lat="52.689685" lon="06.015144"><ele>-7.6</ele><time>2022-09-06T11:14:54Z</time><name>PT649</name></trkpt>
<trkpt lat="52.689694" lon="06.015167"><ele>-7.7</ele><time>2022-09-06T11:14:56Z</time><name>PT650</name></trkpt>
<trkpt lat="52.689704" lon="06.015191"><ele>-7.7</ele><time>2022-09-06T11:14:57Z</time><name>PT651</name></trkpt>
<trkpt lat="52.689714" lon="06.015214"><ele>-7.6</ele><time>2022-09-06T11:14:57Z</time><name>PT652</name></trkpt>
<trkpt lat="52.689724" lon="06.015238"><ele>-7.8</ele><time>2022-09-06T11:14:59Z</time><name>PT653</name></trkpt>
<trkpt lat="52.689734" lon="06.015262"><ele>-7.8</ele><time>2022-09-06T11:15:00Z</time><name>PT654</name></trkpt>
<trkpt lat="52.689744" lon="06.015285"><ele>-7.8</ele><time>2022-09-06T11:15:00Z</time><name>PT655</name></trkpt>
<trkpt lat="52.689755" lon="06.015308"><ele>-7.8</ele><time>2022-09-06T11:15:02Z</time><name>PT656</name></trkpt>
<trkpt lat="52.689766" lon="06.015330"><ele>-7.8</ele><time>2022-09-06T11:15:03Z</time><name>PT657</name></trkpt>
<trkpt lat="52.689776" lon="06.015353"><ele>-7.8</ele><time>2022-09-06T11:15:03Z</time><name>PT658</name></trkpt>
<trkpt lat="52.689786" lon="06.015375"><ele>-7.7</ele><time>2022-09-06T11:15:05Z</time><name>PT659</name></trkpt>
<trkpt lat="52.689797" lon="06.015398"><ele>-7.4</ele><time>2022-09-06T11:15:06Z</time><name>PT660</name></trkpt>
<trkpt lat="52.689807" lon="06.015421"><ele>-7.5</ele><time>2022-09-06T11:15:06Z</time><name>PT661</name></trkpt>
<trkpt lat="52.689817" lon="06.015443"><ele>-7.5</ele><time>2022-09-06T11:15:08Z</time><name>PT662</name></trkpt>
<trkpt lat="52.689828" lon="06.015466"><ele>-7.6</ele><time>2022-09-06T11:15:09Z</time><name>PT663</name></trkpt>
<trkpt lat="52.689838" lon="06.015489"><ele>-7.6</ele><time>2022-09-06T11:15:09Z</time><name>PT664</name></trkpt>
<trkpt lat="52.689849" lon="06.015513"><ele>-7.8</ele><time>2022-09-06T11:15:11Z</time><name>PT665</name></trkpt>
<trkpt lat="52.689859" lon="06.015536"><ele>-7.8</ele><time>2022-09-06T11:15:12Z</time><name>PT666</name></trkpt>
<trkpt lat="52.689868" lon="06.015559"><ele>-7.8</ele><time>2022-09-06T11:15:12Z</time><name>PT667</name></trkpt>
<trkpt lat="52.689878" lon="06.015582"><ele>-7.7</ele><time>2022-09-06T11:15:14Z</time><name>PT668</name></trkpt>
<trkpt lat="52.689888" lon="06.015606"><ele>-7.8</ele><time>2022-09-06T11:15:15Z</time><name>PT669</name></trkpt>
<trkpt lat="52.689897" lon="06.015629"><ele>-7.7</ele><time>2022-09-06T11:15:15Z</time><name>PT670</name></trkpt>
<trkpt lat="52.689906" lon="06.015652"><ele>-7.6</ele><time>2022-09-06T11:15:17Z</time><name>PT671</name></trkpt>
<trkpt lat="52.689915" lon="06.015676"><ele>-7.5</ele><time>2022-09-06T11:15:18Z</time><name>PT672</name></trkpt>
<trkpt lat="52.689924" lon="06.015699"><ele>-7.5</ele><time>2022-09-06T11:15:18Z</time><name>PT673</name></trkpt>
<trkpt lat="52.689932" lon="06.015722"><ele>-7.4</ele><time>2022-09-06T11:15:20Z</time><name>PT674</name></trkpt>
<trkpt lat="52.689940" lon="06.015746"><ele>-7.4</ele><time>2022-09-06T11:15:21Z</time><name>PT675</name></trkpt>
<trkpt lat="52.689949" lon="06.015769"><ele>-7.5</ele><time>2022-09-06T11:15:21Z</time><name>PT676</name></trkpt>
<trkpt lat="52.689958" lon="06.015793"><ele>-7.5</ele><time>2022-09-06T11:15:23Z</time><name>PT677</name></trkpt>
<trkpt lat="52.689966" lon="06.015817"><ele>-7.5</ele><time>2022-09-06T11:15:24Z</time><name>PT678</name></trkpt>
<trkpt lat="52.689974" lon="06.015841"><ele>-7.6</ele><time>2022-09-06T11:15:24Z</time><name>PT679</name></trkpt>
<trkpt lat="52.689982" lon="06.015865"><ele>-7.8</ele><time>2022-09-06T11:15:26Z</time><name>PT680</name></trkpt>
<trkpt lat="52.689990" lon="06.015889"><ele>-7.6</ele><time>2022-09-06T11:15:27Z</time><name>PT681</name></trkpt>
<trkpt lat="52.689998" lon="06.015913"><ele>-7.6</ele><time>2022-09-06T11:15:27Z</time><name>PT682</name></trkpt>
<trkpt lat="52.690005" lon="06.015937"><ele>-7.7</ele><time>2022-09-06T11:15:29Z</time><name>PT683</name></trkpt>
<trkpt lat="52.690013" lon="06.015961"><ele>-7.7</ele><time>2022-09-06T11:15:30Z</time><name>PT684</name></trkpt>
<trkpt lat="52.690021" lon="06.015985"><ele>-7.6</ele><time>2022-09-06T11:15:30Z</time><name>PT685</name></trkpt>
<trkpt lat="52.690029" lon="06.016009"><ele>-7.5</ele><time>2022-09-06T11:15:32Z</time><name>PT686</name></trkpt>
<trkpt lat="52.690036" lon="06.016033"><ele>-7.5</ele><time>2022-09-06T11:15:33Z</time><name>PT687</name></trkpt>
<trkpt lat="52.690044" lon="06.016057"><ele>-7.5</ele><time>2022-09-06T11:15:33Z</time><name>PT688</name></trkpt>
<trkpt lat="52.690051" lon="06.016082"><ele>-7.5</ele><time>2022-09-06T11:15:35Z</time><name>PT689</name></trkpt>
<trkpt lat="52.690058" lon="06.016107"><ele>-7.3</ele><time>2022-09-06T11:15:36Z</time><name>PT690</name></trkpt>
<trkpt lat="52.690066" lon="06.016130"><ele>-7.3</ele><time>2022-09-06T11:15:36Z</time><name>PT691</name></trkpt>
<trkpt lat="52.690073" lon="06.016155"><ele>-7.3</ele><time>2022-09-06T11:15:38Z</time><name>PT692</name></trkpt>
<trkpt lat="52.690081" lon="06.016180"><ele>-7</ele><time>2022-09-06T11:15:39Z</time><name>PT693</name></trkpt>
<trkpt lat="52.690088" lon="06.016204"><ele>-7.1</ele><time>2022-09-06T11:15:39Z</time><name>PT694</name></trkpt>
<trkpt lat="52.690095" lon="06.016228"><ele>-7.2</ele><time>2022-09-06T11:15:41Z</time><name>PT695</name></trkpt>
<trkpt lat="52.690100" lon="06.016250"><ele>-7.3</ele><time>2022-09-06T11:15:42Z</time><name>PT696</name></trkpt>
<trkpt lat="52.690108" lon="06.016274"><ele>-7.3</ele><time>2022-09-06T11:15:42Z</time><name>PT697</name></trkpt>
<trkpt lat="52.690116" lon="06.016298"><ele>-7.4</ele><time>2022-09-06T11:15:44Z</time><name>PT698</name></trkpt>
<trkpt lat="52.690123" lon="06.016322"><ele>-7.3</ele><time>2022-09-06T11:15:45Z</time><name>PT699</name></trkpt>
<trkpt lat="52.690132" lon="06.016347"><ele>-7.3</ele><time>2022-09-06T11:15:45Z</time><name>PT700</name></trkpt>
<trkpt lat="52.690140" lon="06.016372"><ele>-7.3</ele><time>2022-09-06T11:15:47Z</time><name>PT701</name></trkpt>
<trkpt lat="52.690149" lon="06.016398"><ele>-7.4</ele><time>2022-09-06T11:15:48Z</time><name>PT702</name></trkpt>
<trkpt lat="52.690158" lon="06.016423"><ele>-7.3</ele><time>2022-09-06T11:15:48Z</time><name>PT703</name></trkpt>
<trkpt lat="52.690165" lon="06.016450"><ele>-7.5</ele><time>2022-09-06T11:15:50Z</time><name>PT704</name></trkpt>
<trkpt lat="52.690174" lon="06.016474"><ele>-7.4</ele><time>2022-09-06T11:15:51Z</time><name>PT705</name></trkpt>
<trkpt lat="52.690184" lon="06.016500"><ele>-7.3</ele><time>2022-09-06T11:15:51Z</time><name>PT706</name></trkpt>
<trkpt lat="52.690193" lon="06.016526"><ele>-7.3</ele><time>2022-09-06T11:15:53Z</time><name>PT707</name></trkpt>
<trkpt lat="52.690204" lon="06.016548"><ele>-7.4</ele><time>2022-09-06T11:15:54Z</time><name>PT708</name></trkpt>
<trkpt lat="52.690211" lon="06.016571"><ele>-7.5</ele><time>2022-09-06T11:15:54Z</time><name>PT709</name></trkpt>
<trkpt lat="52.690220" lon="06.016596"><ele>-7.8</ele><time>2022-09-06T11:15:56Z</time><name>PT710</name></trkpt>
<trkpt lat="52.690227" lon="06.016620"><ele>-8</ele><time>2022-09-06T11:15:57Z</time><name>PT711</name></trkpt>
<trkpt lat="52.690234" lon="06.016645"><ele>-8.1</ele><time>2022-09-06T11:15:57Z</time><name>PT712</name></trkpt>
<trkpt lat="52.690242" lon="06.016670"><ele>-8</ele><time>2022-09-06T11:15:59Z</time><name>PT713</name></trkpt>
<trkpt lat="52.690249" lon="06.016694"><ele>-7.8</ele><time>2022-09-06T11:16:00Z</time><name>PT714</name></trkpt>
<trkpt lat="52.690257" lon="06.016719"><ele>-7.8</ele><time>2022-09-06T11:16:00Z</time><name>PT715</name></trkpt>
<trkpt lat="52.690264" lon="06.016743"><ele>-7.8</ele><time>2022-09-06T11:16:02Z</time><name>PT716</name></trkpt>
<trkpt lat="52.690271" lon="06.016767"><ele>-7.8</ele><time>2022-09-06T11:16:03Z</time><name>PT717</name></trkpt>
<trkpt lat="52.690278" lon="06.016791"><ele>-7.9</ele><time>2022-09-06T11:16:03Z</time><name>PT718</name></trkpt>
<trkpt lat="52.690286" lon="06.016816"><ele>-8</ele><time>2022-09-06T11:16:05Z</time><name>PT719</name></trkpt>
<trkpt lat="52.690293" lon="06.016840"><ele>-8.1</ele><time>2022-09-06T11:16:06Z</time><name>PT720</name></trkpt>
<trkpt lat="52.690301" lon="06.016864"><ele>-8.2</ele><time>2022-09-06T11:16:06Z</time><name>PT721</name></trkpt>
<trkpt lat="52.690309" lon="06.016888"><ele>-8.3</ele><time>2022-09-06T11:16:08Z</time><name>PT722</name></trkpt>
<trkpt lat="52.690316" lon="06.016912"><ele>-8.1</ele><time>2022-09-06T11:16:09Z</time><name>PT723</name></trkpt>
<trkpt lat="52.690324" lon="06.016937"><ele>-8.1</ele><time>2022-09-06T11:16:09Z</time><name>PT724</name></trkpt>
<trkpt lat="52.690331" lon="06.016962"><ele>-7.9</ele><time>2022-09-06T11:16:11Z</time><name>PT725</name></trkpt>
<trkpt lat="52.690339" lon="06.016986"><ele>-7.9</ele><time>2022-09-06T11:16:12Z</time><name>PT726</name></trkpt>
<trkpt lat="52.690346" lon="06.017010"><ele>-8</ele><time>2022-09-06T11:16:12Z</time><name>PT727</name></trkpt>
<trkpt lat="52.690354" lon="06.017034"><ele>-8</ele><time>2022-09-06T11:16:14Z</time><name>PT728</name></trkpt>
<trkpt lat="52.690361" lon="06.017058"><ele>-7.9</ele><time>2022-09-06T11:16:15Z</time><name>PT729</name></trkpt>
<trkpt lat="52.690367" lon="06.017083"><ele>-7.9</ele><time>2022-09-06T11:16:15Z</time><name>PT730</name></trkpt>
<trkpt lat="52.690374" lon="06.017107"><ele>-8</ele><time>2022-09-06T11:16:17Z</time><name>PT731</name></trkpt>
<trkpt lat="52.690382" lon="06.017132"><ele>-7.9</ele><time>2022-09-06T11:16:18Z</time><name>PT732</name></trkpt>
<trkpt lat="52.690389" lon="06.017157"><ele>-7.9</ele><time>2022-09-06T11:16:18Z</time><name>PT733</name></trkpt>
<trkpt lat="52.690396" lon="06.017182"><ele>-7.8</ele><time>2022-09-06T11:16:20Z</time><name>PT734</name></trkpt>
<trkpt lat="52.690402" lon="06.017207"><ele>-7.8</ele><time>2022-09-06T11:16:21Z</time><name>PT735</name></trkpt>
<trkpt lat="52.690410" lon="06.017232"><ele>-7.8</ele><time>2022-09-06T11:16:21Z</time><name>PT736</name></trkpt>
<trkpt lat="52.690418" lon="06.017258"><ele>-7.8</ele><time>2022-09-06T11:16:23Z</time><name>PT737</name></trkpt>
<trkpt lat="52.690425" lon="06.017281"><ele>-7.6</ele><time>2022-09-06T11:16:24Z</time><name>PT738</name></trkpt>
<trkpt lat="52.690431" lon="06.017305"><ele>-7.6</ele><time>2022-09-06T11:16:24Z</time><name>PT739</name></trkpt>
<trkpt lat="52.690437" lon="06.017327"><ele>-7.5</ele><time>2022-09-06T11:16:26Z</time><name>PT740</name></trkpt>
<trkpt lat="52.690444" lon="06.017351"><ele>-7.4</ele><time>2022-09-06T11:16:27Z</time><name>PT741</name></trkpt>
<trkpt lat="52.690451" lon="06.017375"><ele>-7.6</ele><time>2022-09-06T11:16:27Z</time><name>PT742</name></trkpt>
<trkpt lat="52.690458" lon="06.017397"><ele>-7.6</ele><time>2022-09-06T11:16:29Z</time><name>PT743</name></trkpt>
<trkpt lat="52.690465" lon="06.017421"><ele>-7.5</ele><time>2022-09-06T11:16:30Z</time><name>PT744</name></trkpt>
<trkpt lat="52.690471" lon="06.017446"><ele>-7.7</ele><time>2022-09-06T11:16:30Z</time><name>PT745</name></trkpt>
<trkpt lat="52.690478" lon="06.017470"><ele>-7.5</ele><time>2022-09-06T11:16:32Z</time><name>PT746</name></trkpt>
<trkpt lat="52.690485" lon="06.017494"><ele>-7.6</ele><time>2022-09-06T11:16:33Z</time><name>PT747</name></trkpt>
<trkpt lat="52.690492" lon="06.017518"><ele>-7.6</ele><time>2022-09-06T11:16:33Z</time><name>PT748</name></trkpt>
<trkpt lat="52.690499" lon="06.017541"><ele>-7.5</ele><time>2022-09-06T11:16:35Z</time><name>PT749</name></trkpt>
<trkpt lat="52.690506" lon="06.017566"><ele>-7.6</ele><time>2022-09-06T11:16:36Z</time><name>PT750</name></trkpt>
<trkpt lat="52.690513" lon="06.017589"><ele>-7.5</ele><time>2022-09-06T11:16:36Z</time><name>PT751</name></trkpt>
<trkpt lat="52.690521" lon="06.017613"><ele>-7.5</ele><time>2022-09-06T11:16:38Z</time><name>PT752</name></trkpt>
<trkpt lat="52.690528" lon="06.017637"><ele>-7.6</ele><time>2022-09-06T11:16:39Z</time><name>PT753</name></trkpt>
<trkpt lat="52.690535" lon="06.017660"><ele>-7.6</ele><time>2022-09-06T11:16:39Z</time><name>PT754</name></trkpt>
<trkpt lat="52.690542" lon="06.017684"><ele>-7.7</ele><time>2022-09-06T11:16:41Z</time><name>PT755</name></trkpt>
<trkpt lat="52.690550" lon="06.017709"><ele>-7.5</ele><time>2022-09-06T11:16:42Z</time><name>PT756</name></trkpt>
<trkpt lat="52.690558" lon="06.017732"><ele>-7.5</ele><time>2022-09-06T11:16:42Z</time><name>PT757</name></trkpt>
<trkpt lat="52.690566" lon="06.017755"><ele>-7.3</ele><time>2022-09-06T11:16:44Z</time><name>PT758</name></trkpt>
<trkpt lat="52.690574" lon="06.017779"><ele>-7.3</ele><time>2022-09-06T11:16:45Z</time><name>PT759</name></trkpt>
<trkpt lat="52.690582" lon="06.017804"><ele>-7.3</ele><time>2022-09-06T11:16:45Z</time><name>PT760</name></trkpt>
<trkpt lat="52.690591" lon="06.017828"><ele>-7.4</ele><time>2022-09-06T11:16:47Z</time><name>PT761</name></trkpt>
<trkpt lat="52.690600" lon="06.017851"><ele>-7.5</ele><time>2022-09-06T11:16:48Z</time><name>PT762</name></trkpt>
<trkpt lat="52.690608" lon="06.017875"><ele>-7.6</ele><time>2022-09-06T11:16:48Z</time><name>PT763</name></trkpt>
<trkpt lat="52.690616" lon="06.017898"><ele>-7.8</ele><time>2022-09-06T11:16:50Z</time><name>PT764</name></trkpt>
<trkpt lat="52.690624" lon="06.017922"><ele>-7.6</ele><time>2022-09-06T11:16:51Z</time><name>PT765</name></trkpt>
<trkpt lat="52.690632" lon="06.017945"><ele>-7.5</ele><time>2022-09-06T11:16:52Z</time><name>PT766</name></trkpt>
<trkpt lat="52.690641" lon="06.017968"><ele>-7.5</ele><time>2022-09-06T11:16:53Z</time><name>PT767</name></trkpt>
<trkpt lat="52.690649" lon="06.017991"><ele>-7.5</ele><time>2022-09-06T11:16:54Z</time><name>PT768</name></trkpt>
<trkpt lat="52.690657" lon="06.018013"><ele>-7.5</ele><time>2022-09-06T11:16:54Z</time><name>PT769</name></trkpt>
<trkpt lat="52.690665" lon="06.018037"><ele>-7.7</ele><time>2022-09-06T11:16:56Z</time><name>PT770</name></trkpt>
<trkpt lat="52.690675" lon="06.018066"><ele>-7.3</ele><time>2022-09-06T11:16:57Z</time><name>PT771</name></trkpt>
<trkpt lat="52.690683" lon="06.018092"><ele>-7.5</ele><time>2022-09-06T11:16:57Z</time><name>PT772</name></trkpt>
<trkpt lat="52.690690" lon="06.018118"><ele>-7.3</ele><time>2022-09-06T11:16:59Z</time><name>PT773</name></trkpt>
<trkpt lat="52.690699" lon="06.018140"><ele>-7.1</ele><time>2022-09-06T11:17:00Z</time><name>PT774</name></trkpt>
<trkpt lat="52.690708" lon="06.018164"><ele>-7.1</ele><time>2022-09-06T11:17:00Z</time><name>PT775</name></trkpt>
<trkpt lat="52.690717" lon="06.018190"><ele>-7.3</ele><time>2022-09-06T11:17:02Z</time><name>PT776</name></trkpt>
<trkpt lat="52.690724" lon="06.018213"><ele>-7.3</ele><time>2022-09-06T11:17:03Z</time><name>PT777</name></trkpt>
<trkpt lat="52.690734" lon="06.018235"><ele>-7.3</ele><time>2022-09-06T11:17:03Z</time><name>PT778</name></trkpt>
<trkpt lat="52.690744" lon="06.018258"><ele>-7.4</ele><time>2022-09-06T11:17:05Z</time><name>PT779</name></trkpt>
<trkpt lat="52.690753" lon="06.018280"><ele>-7.3</ele><time>2022-09-06T11:17:06Z</time><name>PT780</name></trkpt>
<trkpt lat="52.690763" lon="06.018303"><ele>-7.2</ele><time>2022-09-06T11:17:06Z</time><name>PT781</name></trkpt>
<trkpt lat="52.690773" lon="06.018325"><ele>-7.1</ele><time>2022-09-06T11:17:08Z</time><name>PT782</name></trkpt>
<trkpt lat="52.690782" lon="06.018346"><ele>-7</ele><time>2022-09-06T11:17:09Z</time><name>PT783</name></trkpt>
<trkpt lat="52.690793" lon="06.018368"><ele>-7.1</ele><time>2022-09-06T11:17:09Z</time><name>PT784</name></trkpt>
<trkpt lat="52.690803" lon="06.018390"><ele>-7.1</ele><time>2022-09-06T11:17:11Z</time><name>PT785</name></trkpt>
<trkpt lat="52.690812" lon="06.018412"><ele>-3</ele><time>2022-09-06T11:17:12Z</time><name>PT786</name></trkpt>
<trkpt lat="52.690822" lon="06.018434"><ele>-2.9</ele><time>2022-09-06T11:17:12Z</time><name>PT787</name></trkpt>
<trkpt lat="52.690832" lon="06.018456"><ele>-3</ele><time>2022-09-06T11:17:14Z</time><name>PT788</name></trkpt>
<trkpt lat="52.690842" lon="06.018478"><ele>-3</ele><time>2022-09-06T11:17:15Z</time><name>PT789</name></trkpt>
<trkpt lat="52.690852" lon="06.018501"><ele>-3.1</ele><time>2022-09-06T11:17:15Z</time><name>PT790</name></trkpt>
<trkpt lat="52.690862" lon="06.018523"><ele>-3.4</ele><time>2022-09-06T11:17:17Z</time><name>PT791</name></trkpt>
<trkpt lat="52.690872" lon="06.018545"><ele>-3.3</ele><time>2022-09-06T11:17:18Z</time><name>PT792</name></trkpt>
<trkpt lat="52.690882" lon="06.018568"><ele>-3.4</ele><time>2022-09-06T11:17:18Z</time><name>PT793</name></trkpt>
<trkpt lat="52.690891" lon="06.018589"><ele>-3.4</ele><time>2022-09-06T11:17:20Z</time><name>PT794</name></trkpt>
<trkpt lat="52.690902" lon="06.018612"><ele>-3.3</ele><time>2022-09-06T11:17:21Z</time><name>PT795</name></trkpt>
<trkpt lat="52.690911" lon="06.018634"><ele>-3.2</ele><time>2022-09-06T11:17:21Z</time><name>PT796</name></trkpt>
<trkpt lat="52.690921" lon="06.018657"><ele>-3</ele><time>2022-09-06T11:17:23Z</time><name>PT797</name></trkpt>
<trkpt lat="52.690931" lon="06.018679"><ele>-3</ele><time>2022-09-06T11:17:24Z</time><name>PT798</name></trkpt>
<trkpt lat="52.690941" lon="06.018702"><ele>-3</ele><time>2022-09-06T11:17:24Z</time><name>PT799</name></trkpt>
<trkpt lat="52.690951" lon="06.018724"><ele>-3.2</ele><time>2022-09-06T11:17:26Z</time><name>PT800</name></trkpt>
<trkpt lat="52.690961" lon="06.018747"><ele>-3.3</ele><time>2022-09-06T11:17:27Z</time><name>PT801</name></trkpt>
<trkpt lat="52.690970" lon="06.018769"><ele>-3.4</ele><time>2022-09-06T11:17:27Z</time><name>PT802</name></trkpt>
<trkpt lat="52.690980" lon="06.018792"><ele>-3.4</ele><time>2022-09-06T11:17:29Z</time><name>PT803</name></trkpt>
<trkpt lat="52.690989" lon="06.018814"><ele>-3.1</ele><time>2022-09-06T11:17:30Z</time><name>PT804</name></trkpt>
<trkpt lat="52.690999" lon="06.018837"><ele>-3</ele><time>2022-09-06T11:17:30Z</time><name>PT805</name></trkpt>
<trkpt lat="52.691008" lon="06.018859"><ele>-3</ele><time>2022-09-06T11:17:32Z</time><name>PT806</name></trkpt>
<trkpt lat="52.691018" lon="06.018881"><ele>-2.9</ele><time>2022-09-06T11:17:33Z</time><name>PT807</name></trkpt>
<trkpt lat="52.691027" lon="06.018904"><ele>-2.9</ele><time>2022-09-06T11:17:33Z</time><name>PT808</name></trkpt>
<trkpt lat="52.691037" lon="06.018926"><ele>-2.9</ele><time>2022-09-06T11:17:35Z</time><name>PT809</name></trkpt>
<trkpt lat="52.691046" lon="06.018948"><ele>-2.9</ele><time>2022-09-06T11:17:36Z</time><name>PT810</name></trkpt>
<trkpt lat="52.691055" lon="06.018971"><ele>-3</ele><time>2022-09-06T11:17:36Z</time><name>PT811</name></trkpt>
<trkpt lat="52.691064" lon="06.018993"><ele>-3.3</ele><time>2022-09-06T11:17:38Z</time><name>PT812</name></trkpt>
<trkpt lat="52.691074" lon="06.019016"><ele>-3.2</ele><time>2022-09-06T11:17:39Z</time><name>PT813</name></trkpt>
<trkpt lat="52.691083" lon="06.019039"><ele>-3.1</ele><time>2022-09-06T11:17:39Z</time><name>PT814</name></trkpt>
<trkpt lat="52.691092" lon="06.019062"><ele>-3.2</ele><time>2022-09-06T11:17:41Z</time><name>PT815</name></trkpt>
<trkpt lat="52.691102" lon="06.019084"><ele>-3.3</ele><time>2022-09-06T11:17:42Z</time><name>PT816</name></trkpt>
<trkpt lat="52.691111" lon="06.019107"><ele>-3.3</ele><time>2022-09-06T11:17:42Z</time><name>PT817</name></trkpt>
<trkpt lat="52.691121" lon="06.019130"><ele>-3.4</ele><time>2022-09-06T11:17:44Z</time><name>PT818</name></trkpt>
<trkpt lat="52.691130" lon="06.019154"><ele>-3.4</ele><time>2022-09-06T11:17:45Z</time><name>PT819</name></trkpt>
<trkpt lat="52.691139" lon="06.019178"><ele>-3.3</ele><time>2022-09-06T11:17:45Z</time><name>PT820</name></trkpt>
<trkpt lat="52.691147" lon="06.019202"><ele>-3.2</ele><time>2022-09-06T11:17:47Z</time><name>PT821</name></trkpt>
<trkpt lat="52.691155" lon="06.019225"><ele>-3.1</ele><time>2022-09-06T11:17:48Z</time><name>PT822</name></trkpt>
<trkpt lat="52.691165" lon="06.019248"><ele>-3.1</ele><time>2022-09-06T11:17:48Z</time><name>PT823</name></trkpt>
<trkpt lat="52.691173" lon="06.019271"><ele>-2.9</ele><time>2022-09-06T11:17:50Z</time><name>PT824</name></trkpt>
<trkpt lat="52.691183" lon="06.019294"><ele>-3</ele><time>2022-09-06T11:17:51Z</time><name>PT825</name></trkpt>
<trkpt lat="52.691191" lon="06.019317"><ele>-3</ele><time>2022-09-06T11:17:51Z</time><name>PT826</name></trkpt>
<trkpt lat="52.691200" lon="06.019339"><ele>-3.1</ele><time>2022-09-06T11:17:53Z</time><name>PT827</name></trkpt>
<trkpt lat="52.691209" lon="06.019361"><ele>-3.1</ele><time>2022-09-06T11:17:54Z</time><name>PT828</name></trkpt>
<trkpt lat="52.691218" lon="06.019384"><ele>-3.3</ele><time>2022-09-06T11:17:54Z</time><name>PT829</name></trkpt>
<trkpt lat="52.691227" lon="06.019408"><ele>-3.3</ele><time>2022-09-06T11:17:56Z</time><name>PT830</name></trkpt>
<trkpt lat="52.691235" lon="06.019431"><ele>-3.2</ele><time>2022-09-06T11:17:57Z</time><name>PT831</name></trkpt>
<trkpt lat="52.691244" lon="06.019454"><ele>-3.4</ele><time>2022-09-06T11:17:57Z</time><name>PT832</name></trkpt>
<trkpt lat="52.691253" lon="06.019478"><ele>-3.4</ele><time>2022-09-06T11:17:59Z</time><name>PT833</name></trkpt>
<trkpt lat="52.691262" lon="06.019501"><ele>-3.2</ele><time>2022-09-06T11:18:00Z</time><name>PT834</name></trkpt>
<trkpt lat="52.691270" lon="06.019524"><ele>-3.2</ele><time>2022-09-06T11:18:00Z</time><name>PT835</name></trkpt>
<trkpt lat="52.691278" lon="06.019548"><ele>-3.1</ele><time>2022-09-06T11:18:02Z</time><name>PT836</name></trkpt>
<trkpt lat="52.691287" lon="06.019571"><ele>-3</ele><time>2022-09-06T11:18:03Z</time><name>PT837</name></trkpt>
<trkpt lat="52.691295" lon="06.019595"><ele>-3</ele><time>2022-09-06T11:18:03Z</time><name>PT838</name></trkpt>
<trkpt lat="52.691303" lon="06.019619"><ele>-3.1</ele><time>2022-09-06T11:18:05Z</time><name>PT839</name></trkpt>
<trkpt lat="52.691311" lon="06.019642"><ele>-3.3</ele><time>2022-09-06T11:18:06Z</time><name>PT840</name></trkpt>
<trkpt lat="52.691319" lon="06.019666"><ele>-3.2</ele><time>2022-09-06T11:18:06Z</time><name>PT841</name></trkpt>
<trkpt lat="52.691326" lon="06.019690"><ele>-3.3</ele><time>2022-09-06T11:18:08Z</time><name>PT842</name></trkpt>
<trkpt lat="52.691334" lon="06.019714"><ele>-3.4</ele><time>2022-09-06T11:18:09Z</time><name>PT843</name></trkpt>
<trkpt lat="52.691341" lon="06.019738"><ele>-3.3</ele><time>2022-09-06T11:18:09Z</time><name>PT844</name></trkpt>
<trkpt lat="52.691349" lon="06.019763"><ele>-3.2</ele><time>2022-09-06T11:18:11Z</time><name>PT845</name></trkpt>
<trkpt lat="52.691356" lon="06.019787"><ele>-3.3</ele><time>2022-09-06T11:18:12Z</time><name>PT846</name></trkpt>
<trkpt lat="52.691363" lon="06.019812"><ele>-3.3</ele><time>2022-09-06T11:18:12Z</time><name>PT847</name></trkpt>
<trkpt lat="52.691370" lon="06.019838"><ele>-3.2</ele><time>2022-09-06T11:18:14Z</time><name>PT848</name></trkpt>
<trkpt lat="52.691377" lon="06.019863"><ele>-3.4</ele><time>2022-09-06T11:18:15Z</time><name>PT849</name></trkpt>
<trkpt lat="52.691384" lon="06.019887"><ele>-3.4</ele><time>2022-09-06T11:18:15Z</time><name>PT850</name></trkpt>
<trkpt lat="52.691391" lon="06.019912"><ele>-3.4</ele><time>2022-09-06T11:18:17Z</time><name>PT851</name></trkpt>
<trkpt lat="52.691398" lon="06.019936"><ele>-3.5</ele><time>2022-09-06T11:18:18Z</time><name>PT852</name></trkpt>
<trkpt lat="52.691405" lon="06.019961"><ele>-3.5</ele><time>2022-09-06T11:18:18Z</time><name>PT853</name></trkpt>
<trkpt lat="52.691411" lon="06.019986"><ele>-3.4</ele><time>2022-09-06T11:18:20Z</time><name>PT854</name></trkpt>
<trkpt lat="52.691417" lon="06.020011"><ele>-3.4</ele><time>2022-09-06T11:18:21Z</time><name>PT855</name></trkpt>
<trkpt lat="52.691422" lon="06.020034"><ele>-3.4</ele><time>2022-09-06T11:18:21Z</time><name>PT856</name></trkpt>
<trkpt lat="52.691428" lon="06.020059"><ele>-3.2</ele><time>2022-09-06T11:18:23Z</time><name>PT857</name></trkpt>
<trkpt lat="52.691433" lon="06.020084"><ele>-3.1</ele><time>2022-09-06T11:18:24Z</time><name>PT858</name></trkpt>
<trkpt lat="52.691438" lon="06.020109"><ele>-3.2</ele><time>2022-09-06T11:18:24Z</time><name>PT859</name></trkpt>
<trkpt lat="52.691443" lon="06.020134"><ele>-3.2</ele><time>2022-09-06T11:18:26Z</time><name>PT860</name></trkpt>
<trkpt lat="52.691448" lon="06.020159"><ele>-3.2</ele><time>2022-09-06T11:18:27Z</time><name>PT861</name></trkpt>
<trkpt lat="52.691453" lon="06.020184"><ele>-3.3</ele><time>2022-09-06T11:18:27Z</time><name>PT862</name></trkpt>
<trkpt lat="52.691458" lon="06.020208"><ele>-3.2</ele><time>2022-09-06T11:18:29Z</time><name>PT863</name></trkpt>
<trkpt lat="52.691462" lon="06.020233"><ele>-3.1</ele><time>2022-09-06T11:18:30Z</time><name>PT864</name></trkpt>
<trkpt lat="52.691467" lon="06.020258"><ele>-3</ele><time>2022-09-06T11:18:30Z</time><name>PT865</name></trkpt>
<trkpt lat="52.691472" lon="06.020283"><ele>-3</ele><time>2022-09-06T11:18:32Z</time><name>PT866</name></trkpt>
<trkpt lat="52.691477" lon="06.020308"><ele>-3</ele><time>2022-09-06T11:18:33Z</time><name>PT867</name></trkpt>
<trkpt lat="52.691482" lon="06.020334"><ele>-3</ele><time>2022-09-06T11:18:33Z</time><name>PT868</name></trkpt>
<trkpt lat="52.691488" lon="06.020357"><ele>-3</ele><time>2022-09-06T11:18:35Z</time><name>PT869</name></trkpt>
<trkpt lat="52.691493" lon="06.020382"><ele>-3</ele><time>2022-09-06T11:18:36Z</time><name>PT870</name></trkpt>
<trkpt lat="52.691498" lon="06.020407"><ele>-3</ele><time>2022-09-06T11:18:36Z</time><name>PT871</name></trkpt>
<trkpt lat="52.691502" lon="06.020432"><ele>-3.1</ele><time>2022-09-06T11:18:38Z</time><name>PT872</name></trkpt>
<trkpt lat="52.691507" lon="06.020458"><ele>-3</ele><time>2022-09-06T11:18:39Z</time><name>PT873</name></trkpt>
<trkpt lat="52.691512" lon="06.020484"><ele>-3</ele><time>2022-09-06T11:18:39Z</time><name>PT874</name></trkpt>
<trkpt lat="52.691517" lon="06.020510"><ele>-2.8</ele><time>2022-09-06T11:18:41Z</time><name>PT875</name></trkpt>
<trkpt lat="52.691522" lon="06.020535"><ele>-2.8</ele><time>2022-09-06T11:18:42Z</time><name>PT876</name></trkpt>
<trkpt lat="52.691527" lon="06.020561"><ele>-2.6</ele><time>2022-09-06T11:18:42Z</time><name>PT877</name></trkpt>
<trkpt lat="52.691531" lon="06.020587"><ele>-2.8</ele><time>2022-09-06T11:18:44Z</time><name>PT878</name></trkpt>
<trkpt lat="52.691536" lon="06.020613"><ele>-3.1</ele><time>2022-09-06T11:18:45Z</time><name>PT879</name></trkpt>
<trkpt lat="52.691540" lon="06.020639"><ele>-3</ele><time>2022-09-06T11:18:45Z</time><name>PT880</name></trkpt>
<trkpt lat="52.691543" lon="06.020665"><ele>-3</ele><time>2022-09-06T11:18:47Z</time><name>PT881</name></trkpt>
<trkpt lat="52.691547" lon="06.020691"><ele>-3.1</ele><time>2022-09-06T11:18:48Z</time><name>PT882</name></trkpt>
<trkpt lat="52.691549" lon="06.020719"><ele>-3.1</ele><time>2022-09-06T11:18:48Z</time><name>PT883</name></trkpt>
<trkpt lat="52.691552" lon="06.020745"><ele>-3.1</ele><time>2022-09-06T11:18:50Z</time><name>PT884</name></trkpt>
<trkpt lat="52.691555" lon="06.020772"><ele>-3.3</ele><time>2022-09-06T11:18:51Z</time><name>PT885</name></trkpt>
<trkpt lat="52.691558" lon="06.020798"><ele>-3.3</ele><time>2022-09-06T11:18:51Z</time><name>PT886</name></trkpt>
<trkpt lat="52.691561" lon="06.020824"><ele>-3.4</ele><time>2022-09-06T11:18:53Z</time><name>PT887</name></trkpt>
<trkpt lat="52.691564" lon="06.020850"><ele>-3.4</ele><time>2022-09-06T11:18:54Z</time><name>PT888</name></trkpt>
<trkpt lat="52.691566" lon="06.020876"><ele>-3.5</ele><time>2022-09-06T11:18:54Z</time><name>PT889</name></trkpt>
<trkpt lat="52.691569" lon="06.020902"><ele>-3.4</ele><time>2022-09-06T11:18:56Z</time><name>PT890</name></trkpt>
<trkpt lat="52.691571" lon="06.020928"><ele>-3.3</ele><time>2022-09-06T11:18:57Z</time><name>PT891</name></trkpt>
<trkpt lat="52.691573" lon="06.020955"><ele>-3.2</ele><time>2022-09-06T11:18:57Z</time><name>PT892</name></trkpt>
<trkpt lat="52.691575" lon="06.020981"><ele>-3.2</ele><time>2022-09-06T11:18:59Z</time><name>PT893</name></trkpt>
<trkpt lat="52.691577" lon="06.021008"><ele>-3.1</ele><time>2022-09-06T11:19:00Z</time><name>PT894</name></trkpt>
<trkpt lat="52.691579" lon="06.021035"><ele>-3.2</ele><time>2022-09-06T11:19:00Z</time><name>PT895</name></trkpt>
<trkpt lat="52.691581" lon="06.021062"><ele>-3.2</ele><time>2022-09-06T11:19:02Z</time><name>PT896</name></trkpt>
<trkpt lat="52.691582" lon="06.021090"><ele>-3.2</ele><time>2022-09-06T11:19:03Z</time><name>PT897</name></trkpt>
<trkpt lat="52.691583" lon="06.021117"><ele>-3.3</ele><time>2022-09-06T11:19:03Z</time><name>PT898</name></trkpt>
<trkpt lat="52.691584" lon="06.021144"><ele>-3.3</ele><time>2022-09-06T11:19:05Z</time><name>PT899</name></trkpt>
<trkpt lat="52.691585" lon="06.021172"><ele>-3.3</ele><time>2022-09-06T11:19:06Z</time><name>PT900</name></trkpt>
<trkpt lat="52.691585" lon="06.021199"><ele>-3.2</ele><time>2022-09-06T11:19:06Z</time><name>PT901</name></trkpt>
<trkpt lat="52.691586" lon="06.021227"><ele>-3.3</ele><time>2022-09-06T11:19:08Z</time><name>PT902</name></trkpt>
<trkpt lat="52.691586" lon="06.021254"><ele>-3.3</ele><time>2022-09-06T11:19:09Z</time><name>PT903</name></trkpt>
<trkpt lat="52.691588" lon="06.021281"><ele>-3.3</ele><time>2022-09-06T11:19:09Z</time><name>PT904</name></trkpt>
<trkpt lat="52.691589" lon="06.021308"><ele>-3.4</ele><time>2022-09-06T11:19:11Z</time><name>PT905</name></trkpt>
<trkpt lat="52.691590" lon="06.021335"><ele>-3.3</ele><time>2022-09-06T11:19:12Z</time><name>PT906</name></trkpt>
<trkpt lat="52.691591" lon="06.021362"><ele>-3.3</ele><time>2022-09-06T11:19:12Z</time><name>PT907</name></trkpt>
<trkpt lat="52.691592" lon="06.021389"><ele>-3.3</ele><time>2022-09-06T11:19:14Z</time><name>PT908</name></trkpt>
<trkpt lat="52.691593" lon="06.021415"><ele>-3.2</ele><time>2022-09-06T11:19:15Z</time><name>PT909</name></trkpt>
<trkpt lat="52.691594" lon="06.021441"><ele>-3.3</ele><time>2022-09-06T11:19:15Z</time><name>PT910</name></trkpt>
<trkpt lat="52.691596" lon="06.021468"><ele>-3.2</ele><time>2022-09-06T11:19:17Z</time><name>PT911</name></trkpt>
<trkpt lat="52.691597" lon="06.021494"><ele>-3.3</ele><time>2022-09-06T11:19:18Z</time><name>PT912</name></trkpt>
<trkpt lat="52.691599" lon="06.021520"><ele>-3.4</ele><time>2022-09-06T11:19:18Z</time><name>PT913</name></trkpt>
<trkpt lat="52.691601" lon="06.021546"><ele>-3.2</ele><time>2022-09-06T11:19:20Z</time><name>PT914</name></trkpt>
<trkpt lat="52.691603" lon="06.021572"><ele>-3.3</ele><time>2022-09-06T11:19:21Z</time><name>PT915</name></trkpt>
<trkpt lat="52.691605" lon="06.021598"><ele>-3.1</ele><time>2022-09-06T11:19:21Z</time><name>PT916</name></trkpt>
<trkpt lat="52.691607" lon="06.021625"><ele>-3</ele><time>2022-09-06T11:19:23Z</time><name>PT917</name></trkpt>
<trkpt lat="52.691609" lon="06.021651"><ele>-3</ele><time>2022-09-06T11:19:24Z</time><name>PT918</name></trkpt>
<trkpt lat="52.691612" lon="06.021677"><ele>-3</ele><time>2022-09-06T11:19:24Z</time><name>PT919</name></trkpt>
<trkpt lat="52.691614" lon="06.021704"><ele>-3.1</ele><time>2022-09-06T11:19:26Z</time><name>PT920</name></trkpt>
<trkpt lat="52.691616" lon="06.021731"><ele>-3.3</ele><time>2022-09-06T11:19:27Z</time><name>PT921</name></trkpt>
<trkpt lat="52.691619" lon="06.021756"><ele>-3.2</ele><time>2022-09-06T11:19:27Z</time><name>PT922</name></trkpt>
<trkpt lat="52.691622" lon="06.021782"><ele>-3.1</ele><time>2022-09-06T11:19:29Z</time><name>PT923</name></trkpt>
<trkpt lat="52.691627" lon="06.021808"><ele>-3</ele><time>2022-09-06T11:19:30Z</time><name>PT924</name></trkpt>
<trkpt lat="52.691631" lon="06.021834"><ele>-2.9</ele><time>2022-09-06T11:19:30Z</time><name>PT925</name></trkpt>
<trkpt lat="52.691636" lon="06.021859"><ele>-2.9</ele><time>2022-09-06T11:19:32Z</time><name>PT926</name></trkpt>
<trkpt lat="52.691640" lon="06.021883"><ele>-3</ele><time>2022-09-06T11:19:33Z</time><name>PT927</name></trkpt>
<trkpt lat="52.691645" lon="06.021908"><ele>-3.2</ele><time>2022-09-06T11:19:33Z</time><name>PT928</name></trkpt>
<trkpt lat="52.691650" lon="06.021933"><ele>-3.1</ele><time>2022-09-06T11:19:35Z</time><name>PT929</name></trkpt>
<trkpt lat="52.691656" lon="06.021958"><ele>-3.1</ele><time>2022-09-06T11:19:36Z</time><name>PT930</name></trkpt>
<trkpt lat="52.691662" lon="06.021982"><ele>-3.1</ele><time>2022-09-06T11:19:36Z</time><name>PT931</name></trkpt>
<trkpt lat="52.691669" lon="06.022007"><ele>-3.2</ele><time>2022-09-06T11:19:38Z</time><name>PT932</name></trkpt>
<trkpt lat="52.691676" lon="06.022031"><ele>-3.2</ele><time>2022-09-06T11:19:39Z</time><name>PT933</name></trkpt>
<trkpt lat="52.691683" lon="06.022056"><ele>-3.1</ele><time>2022-09-06T11:19:39Z</time><name>PT934</name></trkpt>
<trkpt lat="52.691692" lon="06.022080"><ele>-3.3</ele><time>2022-09-06T11:19:41Z</time><name>PT935</name></trkpt>
<trkpt lat="52.691701" lon="06.022104"><ele>-3.3</ele><time>2022-09-06T11:19:42Z</time><name>PT936</name></trkpt>
<trkpt lat="52.691708" lon="06.022128"><ele>-3.3</ele><time>2022-09-06T11:19:42Z</time><name>PT937</name></trkpt>
<trkpt lat="52.691717" lon="06.022152"><ele>-3.4</ele><time>2022-09-06T11:19:44Z</time><name>PT938</name></trkpt>
<trkpt lat="52.691725" lon="06.022175"><ele>-3.4</ele><time>2022-09-06T11:19:45Z</time><name>PT939</name></trkpt>
<trkpt lat="52.691733" lon="06.022198"><ele>-3.1</ele><time>2022-09-06T11:19:45Z</time><name>PT940</name></trkpt>
<trkpt lat="52.691743" lon="06.022222"><ele>-3</ele><time>2022-09-06T11:19:47Z</time><name>PT941</name></trkpt>
<trkpt lat="52.691752" lon="06.022245"><ele>-3</ele><time>2022-09-06T11:19:48Z</time><name>PT942</name></trkpt>
<trkpt lat="52.691762" lon="06.022268"><ele>-2.9</ele><time>2022-09-06T11:19:48Z</time><name>PT943</name></trkpt>
<trkpt lat="52.691772" lon="06.022289"><ele>-2.9</ele><time>2022-09-06T11:19:50Z</time><name>PT944</name></trkpt>
<trkpt lat="52.691781" lon="06.022312"><ele>-3</ele><time>2022-09-06T11:19:51Z</time><name>PT945</name></trkpt>
<trkpt lat="52.691791" lon="06.022333"><ele>-3</ele><time>2022-09-06T11:19:51Z</time><name>PT946</name></trkpt>
<trkpt lat="52.691801" lon="06.022354"><ele>-3.2</ele><time>2022-09-06T11:19:53Z</time><name>PT947</name></trkpt>
<trkpt lat="52.691811" lon="06.022376"><ele>-3.4</ele><time>2022-09-06T11:19:54Z</time><name>PT948</name></trkpt>
<trkpt lat="52.691822" lon="06.022397"><ele>-3.6</ele><time>2022-09-06T11:19:54Z</time><name>PT949</name></trkpt>
<trkpt lat="52.691832" lon="06.022418"><ele>-3.6</ele><time>2022-09-06T11:19:56Z</time><name>PT950</name></trkpt>
<trkpt lat="52.691842" lon="06.022439"><ele>-3.6</ele><time>2022-09-06T11:19:57Z</time><name>PT951</name></trkpt>
<trkpt lat="52.691853" lon="06.022459"><ele>-3.5</ele><time>2022-09-06T11:19:57Z</time><name>PT952</name></trkpt>
<trkpt lat="52.691865" lon="06.022480"><ele>-3.1</ele><time>2022-09-06T11:19:59Z</time><name>PT953</name></trkpt>
<trkpt lat="52.691877" lon="06.022500"><ele>-3</ele><time>2022-09-06T11:20:00Z</time><name>PT954</name></trkpt>
<trkpt lat="52.691888" lon="06.022521"><ele>-3</ele><time>2022-09-06T11:20:00Z</time><name>PT955</name></trkpt>
<trkpt lat="52.691899" lon="06.022542"><ele>-3</ele><time>2022-09-06T11:20:02Z</time><name>PT956</name></trkpt>
<trkpt lat="52.691910" lon="06.022562"><ele>-3.1</ele><time>2022-09-06T11:20:03Z</time><name>PT957</name></trkpt>
<trkpt lat="52.691922" lon="06.022582"><ele>-3.2</ele><time>2022-09-06T11:20:03Z</time><name>PT958</name></trkpt>
<trkpt lat="52.691934" lon="06.022600"><ele>-3.2</ele><time>2022-09-06T11:20:05Z</time><name>PT959</name></trkpt>
<trkpt lat="52.691947" lon="06.022619"><ele>-3.2</ele><time>2022-09-06T11:20:06Z</time><name>PT960</name></trkpt>
<trkpt lat="52.691961" lon="06.022637"><ele>-3.1</ele><time>2022-09-06T11:20:06Z</time><name>PT961</name></trkpt>
<trkpt lat="52.691974" lon="06.022655"><ele>-3.2</ele><time>2022-09-06T11:20:08Z</time><name>PT962</name></trkpt>
<trkpt lat="52.691988" lon="06.022671"><ele>-3.2</ele><time>2022-09-06T11:20:09Z</time><name>PT963</name></trkpt>
<trkpt lat="52.692002" lon="06.022687"><ele>-3.2</ele><time>2022-09-06T11:20:09Z</time><name>PT964</name></trkpt>
<trkpt lat="52.692016" lon="06.022703"><ele>-3.3</ele><time>2022-09-06T11:20:11Z</time><name>PT965</name></trkpt>
<trkpt lat="52.692030" lon="06.022720"><ele>-3.1</ele><time>2022-09-06T11:20:12Z</time><name>PT966</name></trkpt>
<trkpt lat="52.692042" lon="06.022737"><ele>-3.1</ele><time>2022-09-06T11:20:12Z</time><name>PT967</name></trkpt>
<trkpt lat="52.692055" lon="06.022751"><ele>-3</ele><time>2022-09-06T11:20:14Z</time><name>PT968</name></trkpt>
<trkpt lat="52.692070" lon="06.022768"><ele>-3.1</ele><time>2022-09-06T11:20:15Z</time><name>PT969</name></trkpt>
<trkpt lat="52.692084" lon="06.022784"><ele>-3</ele><time>2022-09-06T11:20:15Z</time><name>PT970</name></trkpt>
<trkpt lat="52.692098" lon="06.022799"><ele>-3</ele><time>2022-09-06T11:20:17Z</time><name>PT971</name></trkpt>
<trkpt lat="52.692111" lon="06.022814"><ele>-3.1</ele><time>2022-09-06T11:20:18Z</time><name>PT972</name></trkpt>
<trkpt lat="52.692126" lon="06.022828"><ele>-2.9</ele><time>2022-09-06T11:20:18Z</time><name>PT973</name></trkpt>
<trkpt lat="52.692141" lon="06.022844"><ele>-3</ele><time>2022-09-06T11:20:20Z</time><name>PT974</name></trkpt>
<trkpt lat="52.692158" lon="06.022858"><ele>-2.9</ele><time>2022-09-06T11:20:21Z</time><name>PT975</name></trkpt>
<trkpt lat="52.692172" lon="06.022873"><ele>-2.9</ele><time>2022-09-06T11:20:21Z</time><name>PT976</name></trkpt>
<trkpt lat="52.692188" lon="06.022888"><ele>-3</ele><time>2022-09-06T11:20:23Z</time><name>PT977</name></trkpt>
<trkpt lat="52.692206" lon="06.022902"><ele>-3</ele><time>2022-09-06T11:20:24Z</time><name>PT978</name></trkpt>
<trkpt lat="52.692222" lon="06.022916"><ele>-3</ele><time>2022-09-06T11:20:25Z</time><name>PT979</name></trkpt>
<trkpt lat="52.692237" lon="06.022930"><ele>-3</ele><time>2022-09-06T11:20:26Z</time><name>PT980</name></trkpt>
<trkpt lat="52.692253" lon="06.022943"><ele>-2.8</ele><time>2022-09-06T11:20:27Z</time><name>PT981</name></trkpt>
<trkpt lat="52.692269" lon="06.022955"><ele>-2.8</ele><time>2022-09-06T11:20:27Z</time><name>PT982</name></trkpt>
<trkpt lat="52.692285" lon="06.022966"><ele>-2.7</ele><time>2022-09-06T11:20:29Z</time><name>PT983</name></trkpt>
<trkpt lat="52.692301" lon="06.022979"><ele>-2.9</ele><time>2022-09-06T11:20:30Z</time><name>PT984</name></trkpt>
<trkpt lat="52.692318" lon="06.022991"><ele>-2.9</ele><time>2022-09-06T11:20:30Z</time><name>PT985</name></trkpt>
<trkpt lat="52.692334" lon="06.023003"><ele>-3.2</ele><time>2022-09-06T11:20:32Z</time><name>PT986</name></trkpt>
<trkpt lat="52.692348" lon="06.023014"><ele>-3.4</ele><time>2022-09-06T11:20:33Z</time><name>PT987</name></trkpt>
<trkpt lat="52.692363" lon="06.023026"><ele>-3.4</ele><time>2022-09-06T11:20:33Z</time><name>PT988</name></trkpt>
<trkpt lat="52.692379" lon="06.023037"><ele>-3.3</ele><time>2022-09-06T11:20:35Z</time><name>PT989</name></trkpt>
<trkpt lat="52.692394" lon="06.023049"><ele>-3.2</ele><time>2022-09-06T11:20:36Z</time><name>PT990</name></trkpt>
<trkpt lat="52.692410" lon="06.023062"><ele>-3.1</ele><time>2022-09-06T11:20:36Z</time><name>PT991</name></trkpt>
<trkpt lat="52.692426" lon="06.023074"><ele>-3.1</ele><time>2022-09-06T11:20:38Z</time><name>PT992</name></trkpt>
<trkpt lat="52.692441" lon="06.023086"><ele>-3.1</ele><time>2022-09-06T11:20:39Z</time><name>PT993</name></trkpt>
<trkpt lat="52.692457" lon="06.023099"><ele>-3.2</ele><time>2022-09-06T11:20:39Z</time><name>PT994</name></trkpt>
<trkpt lat="52.692472" lon="06.023110"><ele>-3.1</ele><time>2022-09-06T11:20:41Z</time><name>PT995</name></trkpt>
<trkpt lat="52.692488" lon="06.023122"><ele>-3</ele><time>2022-09-06T11:20:42Z</time><name>PT996</name></trkpt>
<trkpt lat="52.692503" lon="06.023135"><ele>-3</ele><time>2022-09-06T11:20:42Z</time><name>PT997</name></trkpt>
<trkpt lat="52.692519" lon="06.023147"><ele>-3</ele><time>2022-09-06T11:20:44Z</time><name>PT998</name></trkpt>
<trkpt lat="52.692535" lon="06.023159"><ele>-3</ele><time>2022-09-06T11:20:45Z</time><name>PT999</name></trkpt>
<trkpt lat="52.692550" lon="06.023171"><ele>-3</ele><time>2022-09-06T11:20:45Z</time><name>PT1000</name></trkpt>
<trkpt lat="52.692564" lon="06.023185"><ele>-3.1</ele><time>2022-09-06T11:20:47Z</time><name>PT1001</name></trkpt>
<trkpt lat="52.692579" lon="06.023199"><ele>-3.2</ele><time>2022-09-06T11:20:48Z</time><name>PT1002</name></trkpt>
<trkpt lat="52.692594" lon="06.023213"><ele>-3.3</ele><time>2022-09-06T11:20:48Z</time><name>PT1003</name></trkpt>
<trkpt lat="52.692609" lon="06.023226"><ele>-3.4</ele><time>2022-09-06T11:20:50Z</time><name>PT1004</name></trkpt>
<trkpt lat="52.692625" lon="06.023239"><ele>-3.3</ele><time>2022-09-06T11:20:51Z</time><name>PT1005</name></trkpt>
<trkpt lat="52.692641" lon="06.023252"><ele>-3.2</ele><time>2022-09-06T11:20:51Z</time><name>PT1006</name></trkpt>
<trkpt lat="52.692656" lon="06.023265"><ele>-3</ele><time>2022-09-06T11:20:53Z</time><name>PT1007</name></trkpt>
<trkpt lat="52.692672" lon="06.023278"><ele>-2.9</ele><time>2022-09-06T11:20:54Z</time><name>PT1008</name></trkpt>
<trkpt lat="52.692687" lon="06.023291"><ele>-2.9</ele><time>2022-09-06T11:20:54Z</time><name>PT1009</name></trkpt>
<trkpt lat="52.692703" lon="06.023304"><ele>-3</ele><time>2022-09-06T11:20:56Z</time><name>PT1010</name></trkpt>
<trkpt lat="52.692718" lon="06.023318"><ele>-3</ele><time>2022-09-06T11:20:57Z</time><name>PT1011</name></trkpt>
<trkpt lat="52.692734" lon="06.023331"><ele>-3</ele><time>2022-09-06T11:20:57Z</time><name>PT1012</name></trkpt>
<trkpt lat="52.692749" lon="06.023345"><ele>-3</ele><time>2022-09-06T11:20:59Z</time><name>PT1013</name></trkpt>
<trkpt lat="52.692765" lon="06.023358"><ele>-3.1</ele><time>2022-09-06T11:21:00Z</time><name>PT1014</name></trkpt>
<trkpt lat="52.692780" lon="06.023370"><ele>-3.1</ele><time>2022-09-06T11:21:00Z</time><name>PT1015</name></trkpt>
<trkpt lat="52.692795" lon="06.023382"><ele>-3.1</ele><time>2022-09-06T11:21:02Z</time><name>PT1016</name></trkpt>
<trkpt lat="52.692809" lon="06.023393"><ele>-3</ele><time>2022-09-06T11:21:03Z</time><name>PT1017</name></trkpt>
<trkpt lat="52.692824" lon="06.023404"><ele>-3</ele><time>2022-09-06T11:21:03Z</time><name>PT1018</name></trkpt>
<trkpt lat="52.692839" lon="06.023416"><ele>-2.9</ele><time>2022-09-06T11:21:05Z</time><name>PT1019</name></trkpt>
<trkpt lat="52.692854" lon="06.023428"><ele>-2.7</ele><time>2022-09-06T11:21:06Z</time><name>PT1020</name></trkpt>
<trkpt lat="52.692870" lon="06.023438"><ele>-2.8</ele><time>2022-09-06T11:21:06Z</time><name>PT1021</name></trkpt>
<trkpt lat="52.692886" lon="06.023450"><ele>-3</ele><time>2022-09-06T11:21:08Z</time><name>PT1022</name></trkpt>
<trkpt lat="52.692902" lon="06.023462"><ele>-3.1</ele><time>2022-09-06T11:21:09Z</time><name>PT1023</name></trkpt>
<trkpt lat="52.692917" lon="06.023473"><ele>-3.2</ele><time>2022-09-06T11:21:09Z</time><name>PT1024</name></trkpt>
<trkpt lat="52.692932" lon="06.023484"><ele>-3.2</ele><time>2022-09-06T11:21:11Z</time><name>PT1025</name></trkpt>
<trkpt lat="52.692948" lon="06.023496"><ele>-3.3</ele><time>2022-09-06T11:21:12Z</time><name>PT1026</name></trkpt>
<trkpt lat="52.692963" lon="06.023507"><ele>-3.1</ele><time>2022-09-06T11:21:12Z</time><name>PT1027</name></trkpt>
<trkpt lat="52.692978" lon="06.023519"><ele>-3.2</ele><time>2022-09-06T11:21:14Z</time><name>PT1028</name></trkpt>
<trkpt lat="52.692994" lon="06.023530"><ele>-3.2</ele><time>2022-09-06T11:21:15Z</time><name>PT1029</name></trkpt>
<trkpt lat="52.693009" lon="06.023541"><ele>-3.1</ele><time>2022-09-06T11:21:15Z</time><name>PT1030</name></trkpt>
<trkpt lat="52.693025" lon="06.023552"><ele>-3.2</ele><time>2022-09-06T11:21:17Z</time><name>PT1031</name></trkpt>
<trkpt lat="52.693041" lon="06.023564"><ele>-3.1</ele><time>2022-09-06T11:21:18Z</time><name>PT1032</name></trkpt>
<trkpt lat="52.693057" lon="06.023576"><ele>-3.1</ele><time>2022-09-06T11:21:18Z</time><name>PT1033</name></trkpt>
<trkpt lat="52.693072" lon="06.023587"><ele>-3</ele><time>2022-09-06T11:21:20Z</time><name>PT1034</name></trkpt>
<trkpt lat="52.693088" lon="06.023598"><ele>-3</ele><time>2022-09-06T11:21:21Z</time><name>PT1035</name></trkpt>
<trkpt lat="52.693104" lon="06.023609"><ele>-3</ele><time>2022-09-06T11:21:21Z</time><name>PT1036</name></trkpt>
<trkpt lat="52.693120" lon="06.023620"><ele>-3</ele><time>2022-09-06T11:21:23Z</time><name>PT1037</name></trkpt>
<trkpt lat="52.693136" lon="06.023631"><ele>-3</ele><time>2022-09-06T11:21:24Z</time><name>PT1038</name></trkpt>
<trkpt lat="52.693152" lon="06.023641"><ele>-3</ele><time>2022-09-06T11:21:24Z</time><name>PT1039</name></trkpt>
<trkpt lat="52.693167" lon="06.023653"><ele>-3</ele><time>2022-09-06T11:21:26Z</time><name>PT1040</name></trkpt>
<trkpt lat="52.693183" lon="06.023664"><ele>-3</ele><time>2022-09-06T11:21:27Z</time><name>PT1041</name></trkpt>
<trkpt lat="52.693199" lon="06.023676"><ele>-3</ele><time>2022-09-06T11:21:27Z</time><name>PT1042</name></trkpt>
<trkpt lat="52.693215" lon="06.023687"><ele>-3</ele><time>2022-09-06T11:21:29Z</time><name>PT1043</name></trkpt>
<trkpt lat="52.693231" lon="06.023698"><ele>-3</ele><time>2022-09-06T11:21:30Z</time><name>PT1044</name></trkpt>
<trkpt lat="52.693247" lon="06.023710"><ele>-2.8</ele><time>2022-09-06T11:21:30Z</time><name>PT1045</name></trkpt>
<trkpt lat="52.693262" lon="06.023725"><ele>-2.9</ele><time>2022-09-06T11:21:32Z</time><name>PT1046</name></trkpt>
<trkpt lat="52.693276" lon="06.023739"><ele>-2.9</ele><time>2022-09-06T11:21:33Z</time><name>PT1047</name></trkpt>
<trkpt lat="52.693290" lon="06.023755"><ele>-2.8</ele><time>2022-09-06T11:21:33Z</time><name>PT1048</name></trkpt>
<trkpt lat="52.693304" lon="06.023769"><ele>-3</ele><time>2022-09-06T11:21:35Z</time><name>PT1049</name></trkpt>
<trkpt lat="52.693319" lon="06.023783"><ele>-3</ele><time>2022-09-06T11:21:36Z</time><name>PT1050</name></trkpt>
<trkpt lat="52.693335" lon="06.023796"><ele>-2.8</ele><time>2022-09-06T11:21:36Z</time><name>PT1051</name></trkpt>
<trkpt lat="52.693352" lon="06.023807"><ele>-2.7</ele><time>2022-09-06T11:21:38Z</time><name>PT1052</name></trkpt>
<trkpt lat="52.693368" lon="06.023819"><ele>-2.6</ele><time>2022-09-06T11:21:39Z</time><name>PT1053</name></trkpt>
<trkpt lat="52.693384" lon="06.023832"><ele>-2.6</ele><time>2022-09-06T11:21:39Z</time><name>PT1054</name></trkpt>
<trkpt lat="52.693400" lon="06.023844"><ele>-2.8</ele><time>2022-09-06T11:21:41Z</time><name>PT1055</name></trkpt>
<trkpt lat="52.693416" lon="06.023855"><ele>-2.8</ele><time>2022-09-06T11:21:42Z</time><name>PT1056</name></trkpt>
<trkpt lat="52.693432" lon="06.023867"><ele>-3</ele><time>2022-09-06T11:21:42Z</time><name>PT1057</name></trkpt>
<trkpt lat="52.693448" lon="06.023879"><ele>-3</ele><time>2022-09-06T11:21:44Z</time><name>PT1058</name></trkpt>
<trkpt lat="52.693464" lon="06.023891"><ele>-3</ele><time>2022-09-06T11:21:45Z</time><name>PT1059</name></trkpt>
<trkpt lat="52.693480" lon="06.023903"><ele>-3.1</ele><time>2022-09-06T11:21:45Z</time><name>PT1060</name></trkpt>
<trkpt lat="52.693496" lon="06.023915"><ele>-3.1</ele><time>2022-09-06T11:21:47Z</time><name>PT1061</name></trkpt>
<trkpt lat="52.693513" lon="06.023927"><ele>-3.1</ele><time>2022-09-06T11:21:48Z</time><name>PT1062</name></trkpt>
<trkpt lat="52.693529" lon="06.023938"><ele>-3</ele><time>2022-09-06T11:21:48Z</time><name>PT1063</name></trkpt>
<trkpt lat="52.693545" lon="06.023950"><ele>-3</ele><time>2022-09-06T11:21:50Z</time><name>PT1064</name></trkpt>
<trkpt lat="52.693561" lon="06.023962"><ele>-3.2</ele><time>2022-09-06T11:21:51Z</time><name>PT1065</name></trkpt>
<trkpt lat="52.693577" lon="06.023973"><ele>-3.1</ele><time>2022-09-06T11:21:51Z</time><name>PT1066</name></trkpt>
<trkpt lat="52.693593" lon="06.023985"><ele>-3.2</ele><time>2022-09-06T11:21:53Z</time><name>PT1067</name></trkpt>
<trkpt lat="52.693609" lon="06.023996"><ele>-3.3</ele><time>2022-09-06T11:21:54Z</time><name>PT1068</name></trkpt>
<trkpt lat="52.693625" lon="06.024008"><ele>-3.3</ele><time>2022-09-06T11:21:54Z</time><name>PT1069</name></trkpt>
<trkpt lat="52.693640" lon="06.024020"><ele>-3.1</ele><time>2022-09-06T11:21:56Z</time><name>PT1070</name></trkpt>
<trkpt lat="52.693656" lon="06.024031"><ele>-3.2</ele><time>2022-09-06T11:21:57Z</time><name>PT1071</name></trkpt>
<trkpt lat="52.693671" lon="06.024042"><ele>-3.2</ele><time>2022-09-06T11:21:57Z</time><name>PT1072</name></trkpt>
<trkpt lat="52.693687" lon="06.024054"><ele>-3.2</ele><time>2022-09-06T11:21:59Z</time><name>PT1073</name></trkpt>
<trkpt lat="52.693702" lon="06.024066"><ele>-3.2</ele><time>2022-09-06T11:22:00Z</time><name>PT1074</name></trkpt>
<trkpt lat="52.693717" lon="06.024077"><ele>-3.3</ele><time>2022-09-06T11:22:00Z</time><name>PT1075</name></trkpt>
<trkpt lat="52.693731" lon="06.024088"><ele>-3.1</ele><time>2022-09-06T11:22:02Z</time><name>PT1076</name></trkpt>
<trkpt lat="52.693744" lon="06.024098"><ele>-3</ele><time>2022-09-06T11:22:03Z</time><name>PT1077</name></trkpt>
<trkpt lat="52.693758" lon="06.024108"><ele>-3.1</ele><time>2022-09-06T11:22:03Z</time><name>PT1078</name></trkpt>
<trkpt lat="52.693774" lon="06.024119"><ele>-3</ele><time>2022-09-06T11:22:05Z</time><name>PT1079</name></trkpt>
<trkpt lat="52.693789" lon="06.024129"><ele>-3.1</ele><time>2022-09-06T11:22:06Z</time><name>PT1080</name></trkpt>
<trkpt lat="52.693806" lon="06.024138"><ele>-3.2</ele><time>2022-09-06T11:22:06Z</time><name>PT1081</name></trkpt>
<trkpt lat="52.693822" lon="06.024149"><ele>-3.2</ele><time>2022-09-06T11:22:08Z</time><name>PT1082</name></trkpt>
<trkpt lat="52.693837" lon="06.024159"><ele>-3.1</ele><time>2022-09-06T11:22:09Z</time><name>PT1083</name></trkpt>
<trkpt lat="52.693853" lon="06.024169"><ele>-3.2</ele><time>2022-09-06T11:22:09Z</time><name>PT1084</name></trkpt>
<trkpt lat="52.693869" lon="06.024181"><ele>-3</ele><time>2022-09-06T11:22:11Z</time><name>PT1085</name></trkpt>
<trkpt lat="52.693885" lon="06.024192"><ele>-2.8</ele><time>2022-09-06T11:22:12Z</time><name>PT1086</name></trkpt>
<trkpt lat="52.693901" lon="06.024204"><ele>-2.7</ele><time>2022-09-06T11:22:12Z</time><name>PT1087</name></trkpt>
<trkpt lat="52.693916" lon="06.024215"><ele>-2.7</ele><time>2022-09-06T11:22:14Z</time><name>PT1088</name></trkpt>
<trkpt lat="52.693932" lon="06.024226"><ele>-2.8</ele><time>2022-09-06T11:22:15Z</time><name>PT1089</name></trkpt>
<trkpt lat="52.693948" lon="06.024238"><ele>-2.8</ele><time>2022-09-06T11:22:15Z</time><name>PT1090</name></trkpt>
<trkpt lat="52.693964" lon="06.024250"><ele>-3</ele><time>2022-09-06T11:22:17Z</time><name>PT1091</name></trkpt>
<trkpt lat="52.693979" lon="06.024262"><ele>-3</ele><time>2022-09-06T11:22:18Z</time><name>PT1092</name></trkpt>
<trkpt lat="52.693994" lon="06.024273"><ele>-3</ele><time>2022-09-06T11:22:18Z</time><name>PT1093</name></trkpt>
<trkpt lat="52.694010" lon="06.024285"><ele>-2.9</ele><time>2022-09-06T11:22:20Z</time><name>PT1094</name></trkpt>
<trkpt lat="52.694025" lon="06.024296"><ele>-2.8</ele><time>2022-09-06T11:22:21Z</time><name>PT1095</name></trkpt>
<trkpt lat="52.694041" lon="06.024308"><ele>-2.6</ele><time>2022-09-06T11:22:21Z</time><name>PT1096</name></trkpt>
<trkpt lat="52.694056" lon="06.024321"><ele>-2.7</ele><time>2022-09-06T11:22:23Z</time><name>PT1097</name></trkpt>
<trkpt lat="52.694071" lon="06.024334"><ele>-2.7</ele><time>2022-09-06T11:22:24Z</time><name>PT1098</name></trkpt>
<trkpt lat="52.694086" lon="06.024346"><ele>-2.8</ele><time>2022-09-06T11:22:24Z</time><name>PT1099</name></trkpt>
<trkpt lat="52.694100" lon="06.024359"><ele>-3</ele><time>2022-09-06T11:22:26Z</time><name>PT1100</name></trkpt>
<trkpt lat="52.694115" lon="06.024372"><ele>-3</ele><time>2022-09-06T11:22:27Z</time><name>PT1101</name></trkpt>
<trkpt lat="52.694129" lon="06.024384"><ele>-2.8</ele><time>2022-09-06T11:22:27Z</time><name>PT1102</name></trkpt>
<trkpt lat="52.694144" lon="06.024397"><ele>-2.9</ele><time>2022-09-06T11:22:29Z</time><name>PT1103</name></trkpt>
<trkpt lat="52.694159" lon="06.024409"><ele>-3</ele><time>2022-09-06T11:22:30Z</time><name>PT1104</name></trkpt>
<trkpt lat="52.694174" lon="06.024422"><ele>-3</ele><time>2022-09-06T11:22:30Z</time><name>PT1105</name></trkpt>
<trkpt lat="52.694190" lon="06.024435"><ele>-3</ele><time>2022-09-06T11:22:32Z</time><name>PT1106</name></trkpt>
<trkpt lat="52.694205" lon="06.024448"><ele>-3</ele><time>2022-09-06T11:22:33Z</time><name>PT1107</name></trkpt>
<trkpt lat="52.694220" lon="06.024460"><ele>-3</ele><time>2022-09-06T11:22:33Z</time><name>PT1108</name></trkpt>
<trkpt lat="52.694235" lon="06.024473"><ele>-3.2</ele><time>2022-09-06T11:22:35Z</time><name>PT1109</name></trkpt>
<trkpt lat="52.694248" lon="06.024485"><ele>-3.4</ele><time>2022-09-06T11:22:36Z</time><name>PT1110</name></trkpt>
<trkpt lat="52.694263" lon="06.024500"><ele>-3.3</ele><time>2022-09-06T11:22:36Z</time><name>PT1111</name></trkpt>
<trkpt lat="52.694278" lon="06.024514"><ele>-3.4</ele><time>2022-09-06T11:22:38Z</time><name>PT1112</name></trkpt>
<trkpt lat="52.694291" lon="06.024528"><ele>-3.1</ele><time>2022-09-06T11:22:39Z</time><name>PT1113</name></trkpt>
<trkpt lat="52.694305" lon="06.024542"><ele>-3.1</ele><time>2022-09-06T11:22:39Z</time><name>PT1114</name></trkpt>
<trkpt lat="52.694321" lon="06.024554"><ele>-3.1</ele><time>2022-09-06T11:22:41Z</time><name>PT1115</name></trkpt>
<trkpt lat="52.694334" lon="06.024568"><ele>-3</ele><time>2022-09-06T11:22:42Z</time><name>PT1116</name></trkpt>
<trkpt lat="52.694348" lon="06.024582"><ele>-3.1</ele><time>2022-09-06T11:22:42Z</time><name>PT1117</name></trkpt>
<trkpt lat="52.694363" lon="06.024595"><ele>-3.1</ele><time>2022-09-06T11:22:44Z</time><name>PT1118</name></trkpt>
<trkpt lat="52.694378" lon="06.024611"><ele>-3</ele><time>2022-09-06T11:22:45Z</time><name>PT1119</name></trkpt>
<trkpt lat="52.694393" lon="06.024621"><ele>-3</ele><time>2022-09-06T11:22:45Z</time><name>PT1120</name></trkpt>
<trkpt lat="52.694409" lon="06.024633"><ele>-3</ele><time>2022-09-06T11:22:47Z</time><name>PT1121</name></trkpt>
<trkpt lat="52.694425" lon="06.024645"><ele>-3</ele><time>2022-09-06T11:22:48Z</time><name>PT1122</name></trkpt>
<trkpt lat="52.694440" lon="06.024658"><ele>-2.9</ele><time>2022-09-06T11:22:48Z</time><name>PT1123</name></trkpt>
<trkpt lat="52.694455" lon="06.024671"><ele>-3</ele><time>2022-09-06T11:22:50Z</time><name>PT1124</name></trkpt>
<trkpt lat="52.694471" lon="06.024684"><ele>-3</ele><time>2022-09-06T11:22:51Z</time><name>PT1125</name></trkpt>
<trkpt lat="52.694486" lon="06.024697"><ele>-2.9</ele><time>2022-09-06T11:22:51Z</time><name>PT1126</name></trkpt>
<trkpt lat="52.694501" lon="06.024710"><ele>-3</ele><time>2022-09-06T11:22:53Z</time><name>PT1127</name></trkpt>
<trkpt lat="52.694516" lon="06.024722"><ele>-2.9</ele><time>2022-09-06T11:22:54Z</time><name>PT1128</name></trkpt>
<trkpt lat="52.694531" lon="06.024736"><ele>-2.7</ele><time>2022-09-06T11:22:54Z</time><name>PT1129</name></trkpt>
<trkpt lat="52.694546" lon="06.024749"><ele>-2.7</ele><time>2022-09-06T11:22:56Z</time><name>PT1130</name></trkpt>
<trkpt lat="52.694561" lon="06.024762"><ele>-2.6</ele><time>2022-09-06T11:22:57Z</time><name>PT1131</name></trkpt>
<trkpt lat="52.694576" lon="06.024775"><ele>-2.8</ele><time>2022-09-06T11:22:57Z</time><name>PT1132</name></trkpt>
<trkpt lat="52.694591" lon="06.024787"><ele>-2.9</ele><time>2022-09-06T11:22:59Z</time><name>PT1133</name></trkpt>
<trkpt lat="52.694606" lon="06.024800"><ele>-2.9</ele><time>2022-09-06T11:23:00Z</time><name>PT1134</name></trkpt>
<trkpt lat="52.694621" lon="06.024813"><ele>-3</ele><time>2022-09-06T11:23:00Z</time><name>PT1135</name></trkpt>
<trkpt lat="52.694636" lon="06.024825"><ele>-3</ele><time>2022-09-06T11:23:02Z</time><name>PT1136</name></trkpt>
<trkpt lat="52.694651" lon="06.024839"><ele>-3</ele><time>2022-09-06T11:23:03Z</time><name>PT1137</name></trkpt>
<trkpt lat="52.694666" lon="06.024852"><ele>-3</ele><time>2022-09-06T11:23:03Z</time><name>PT1138</name></trkpt>
<trkpt lat="52.694681" lon="06.024865"><ele>-2.9</ele><time>2022-09-06T11:23:05Z</time><name>PT1139</name></trkpt>
<trkpt lat="52.694697" lon="06.024878"><ele>-2.8</ele><time>2022-09-06T11:23:06Z</time><name>PT1140</name></trkpt>
<trkpt lat="52.694711" lon="06.024892"><ele>-2.9</ele><time>2022-09-06T11:23:06Z</time><name>PT1141</name></trkpt>
<trkpt lat="52.694726" lon="06.024905"><ele>-2.8</ele><time>2022-09-06T11:23:08Z</time><name>PT1142</name></trkpt>
<trkpt lat="52.694741" lon="06.024919"><ele>-2.7</ele><time>2022-09-06T11:23:09Z</time><name>PT1143</name></trkpt>
<trkpt lat="52.694756" lon="06.024931"><ele>-2.7</ele><time>2022-09-06T11:23:09Z</time><name>PT1144</name></trkpt>
<trkpt lat="52.694771" lon="06.024944"><ele>-2.8</ele><time>2022-09-06T11:23:11Z</time><name>PT1145</name></trkpt>
<trkpt lat="52.694786" lon="06.024958"><ele>-2.5</ele><time>2022-09-06T11:23:12Z</time><name>PT1146</name></trkpt>
<trkpt lat="52.694801" lon="06.024970"><ele>-2.5</ele><time>2022-09-06T11:23:12Z</time><name>PT1147</name></trkpt>
<trkpt lat="52.694816" lon="06.024984"><ele>-2.6</ele><time>2022-09-06T11:23:14Z</time><name>PT1148</name></trkpt>
<trkpt lat="52.694831" lon="06.024997"><ele>-2.5</ele><time>2022-09-06T11:23:15Z</time><name>PT1149</name></trkpt>
<trkpt lat="52.694846" lon="06.025010"><ele>-2.5</ele><time>2022-09-06T11:23:15Z</time><name>PT1150</name></trkpt>
<trkpt lat="52.694862" lon="06.025022"><ele>-2.6</ele><time>2022-09-06T11:23:17Z</time><name>PT1151</name></trkpt>
<trkpt lat="52.694877" lon="06.025035"><ele>-2.7</ele><time>2022-09-06T11:23:18Z</time><name>PT1152</name></trkpt>
<trkpt lat="52.694892" lon="06.025048"><ele>-2.5</ele><time>2022-09-06T11:23:18Z</time><name>PT1153</name></trkpt>
<trkpt lat="52.694909" lon="06.025061"><ele>-2.5</ele><time>2022-09-06T11:23:20Z</time><name>PT1154</name></trkpt>
<trkpt lat="52.694926" lon="06.025074"><ele>-2.5</ele><time>2022-09-06T11:23:21Z</time><name>PT1155</name></trkpt>
<trkpt lat="52.694942" lon="06.025084"><ele>-2.5</ele><time>2022-09-06T11:23:21Z</time><name>PT1156</name></trkpt>
<trkpt lat="52.694958" lon="06.025096"><ele>-2.5</ele><time>2022-09-06T11:23:23Z</time><name>PT1157</name></trkpt>
<trkpt lat="52.694973" lon="06.025109"><ele>-2.5</ele><time>2022-09-06T11:23:24Z</time><name>PT1158</name></trkpt>
<trkpt lat="52.694989" lon="06.025121"><ele>-2.5</ele><time>2022-09-06T11:23:24Z</time><name>PT1159</name></trkpt>
<trkpt lat="52.695006" lon="06.025134"><ele>-2.4</ele><time>2022-09-06T11:23:26Z</time><name>PT1160</name></trkpt>
<trkpt lat="52.695020" lon="06.025148"><ele>-2.4</ele><time>2022-09-06T11:23:27Z</time><name>PT1161</name></trkpt>
<trkpt lat="52.695035" lon="06.025161"><ele>-2.4</ele><time>2022-09-06T11:23:27Z</time><name>PT1162</name></trkpt>
<trkpt lat="52.695050" lon="06.025172"><ele>-2.3</ele><time>2022-09-06T11:23:29Z</time><name>PT1163</name></trkpt>
<trkpt lat="52.695063" lon="06.025186"><ele>-2.4</ele><time>2022-09-06T11:23:30Z</time><name>PT1164</name></trkpt>
<trkpt lat="52.695079" lon="06.025201"><ele>-2.5</ele><time>2022-09-06T11:23:30Z</time><name>PT1165</name></trkpt>
<trkpt lat="52.695094" lon="06.025214"><ele>-2.5</ele><time>2022-09-06T11:23:32Z</time><name>PT1166</name></trkpt>
<trkpt lat="52.695110" lon="06.025227"><ele>-2.6</ele><time>2022-09-06T11:23:33Z</time><name>PT1167</name></trkpt>
<trkpt lat="52.695125" lon="06.025241"><ele>-2.7</ele><time>2022-09-06T11:23:33Z</time><name>PT1168</name></trkpt>
<trkpt lat="52.695141" lon="06.025254"><ele>-2.9</ele><time>2022-09-06T11:23:35Z</time><name>PT1169</name></trkpt>
<trkpt lat="52.695156" lon="06.025268"><ele>-3</ele><time>2022-09-06T11:23:36Z</time><name>PT1170</name></trkpt>
<trkpt lat="52.695171" lon="06.025281"><ele>-3</ele><time>2022-09-06T11:23:36Z</time><name>PT1171</name></trkpt>
<trkpt lat="52.695186" lon="06.025294"><ele>-3</ele><time>2022-09-06T11:23:38Z</time><name>PT1172</name></trkpt>
<trkpt lat="52.695201" lon="06.025306"><ele>-2.9</ele><time>2022-09-06T11:23:39Z</time><name>PT1173</name></trkpt>
<trkpt lat="52.695216" lon="06.025320"><ele>-2.9</ele><time>2022-09-06T11:23:39Z</time><name>PT1174</name></trkpt>
<trkpt lat="52.695230" lon="06.025334"><ele>-3</ele><time>2022-09-06T11:23:41Z</time><name>PT1175</name></trkpt>
<trkpt lat="52.695247" lon="06.025348"><ele>-3.1</ele><time>2022-09-06T11:23:42Z</time><name>PT1176</name></trkpt>
<trkpt lat="52.695262" lon="06.025363"><ele>-3.1</ele><time>2022-09-06T11:23:42Z</time><name>PT1177</name></trkpt>
<trkpt lat="52.695275" lon="06.025376"><ele>-3</ele><time>2022-09-06T11:23:44Z</time><name>PT1178</name></trkpt>
<trkpt lat="52.695290" lon="06.025389"><ele>-2.9</ele><time>2022-09-06T11:23:45Z</time><name>PT1179</name></trkpt>
<trkpt lat="52.695304" lon="06.025402"><ele>-2.9</ele><time>2022-09-06T11:23:45Z</time><name>PT1180</name></trkpt>
<trkpt lat="52.695319" lon="06.025415"><ele>-2.9</ele><time>2022-09-06T11:23:47Z</time><name>PT1181</name></trkpt>
<trkpt lat="52.695333" lon="06.025429"><ele>-3</ele><time>2022-09-06T11:23:48Z</time><name>PT1182</name></trkpt>
<trkpt lat="52.695348" lon="06.025443"><ele>-3</ele><time>2022-09-06T11:23:48Z</time><name>PT1183</name></trkpt>
<trkpt lat="52.695362" lon="06.025457"><ele>-3</ele><time>2022-09-06T11:23:50Z</time><name>PT1184</name></trkpt>
<trkpt lat="52.695377" lon="06.025472"><ele>-2.9</ele><time>2022-09-06T11:23:51Z</time><name>PT1185</name></trkpt>
<trkpt lat="52.695391" lon="06.025483"><ele>-2.9</ele><time>2022-09-06T11:23:51Z</time><name>PT1186</name></trkpt>
<trkpt lat="52.695410" lon="06.025499"><ele>-2.9</ele><time>2022-09-06T11:23:53Z</time><name>PT1187</name></trkpt>
<trkpt lat="52.695425" lon="06.025514"><ele>-2.9</ele><time>2022-09-06T11:23:54Z</time><name>PT1188</name></trkpt>
<trkpt lat="52.695439" lon="06.025528"><ele>-2.8</ele><time>2022-09-06T11:23:54Z</time><name>PT1189</name></trkpt>
<trkpt lat="52.695452" lon="06.025542"><ele>-2.7</ele><time>2022-09-06T11:23:56Z</time><name>PT1190</name></trkpt>
<trkpt lat="52.695466" lon="06.025557"><ele>-2.4</ele><time>2022-09-06T11:23:57Z</time><name>PT1191</name></trkpt>
<trkpt lat="52.695481" lon="06.025573"><ele>-2.5</ele><time>2022-09-06T11:23:57Z</time><name>PT1192</name></trkpt>
<trkpt lat="52.695495" lon="06.025589"><ele>-2.4</ele><time>2022-09-06T11:23:59Z</time><name>PT1193</name></trkpt>
<trkpt lat="52.695510" lon="06.025604"><ele>-2.5</ele><time>2022-09-06T11:24:00Z</time><name>PT1194</name></trkpt>
<trkpt lat="52.695524" lon="06.025619"><ele>-2.5</ele><time>2022-09-06T11:24:00Z</time><name>PT1195</name></trkpt>
<trkpt lat="52.695539" lon="06.025635"><ele>-2.7</ele><time>2022-09-06T11:24:02Z</time><name>PT1196</name></trkpt>
<trkpt lat="52.695552" lon="06.025651"><ele>-2.5</ele><time>2022-09-06T11:24:03Z</time><name>PT1197</name></trkpt>
<trkpt lat="52.695567" lon="06.025666"><ele>-2.5</ele><time>2022-09-06T11:24:03Z</time><name>PT1198</name></trkpt>
<trkpt lat="52.695580" lon="06.025682"><ele>-2.3</ele><time>2022-09-06T11:24:05Z</time><name>PT1199</name></trkpt>
<trkpt lat="52.695594" lon="06.025699"><ele>-2.1</ele><time>2022-09-06T11:24:06Z</time><name>PT1200</name></trkpt>
<trkpt lat="52.695608" lon="06.025715"><ele>-2.3</ele><time>2022-09-06T11:24:06Z</time><name>PT1201</name></trkpt>
<trkpt lat="52.695622" lon="06.025731"><ele>-2.5</ele><time>2022-09-06T11:24:08Z</time><name>PT1202</name></trkpt>
<trkpt lat="52.695637" lon="06.025748"><ele>-2.5</ele><time>2022-09-06T11:24:09Z</time><name>PT1203</name></trkpt>
<trkpt lat="52.695651" lon="06.025764"><ele>-2.6</ele><time>2022-09-06T11:24:09Z</time><name>PT1204</name></trkpt>
<trkpt lat="52.695665" lon="06.025780"><ele>-2.7</ele><time>2022-09-06T11:24:11Z</time><name>PT1205</name></trkpt>
<trkpt lat="52.695679" lon="06.025796"><ele>-2.7</ele><time>2022-09-06T11:24:12Z</time><name>PT1206</name></trkpt>
<trkpt lat="52.695693" lon="06.025812"><ele>-2.8</ele><time>2022-09-06T11:24:12Z</time><name>PT1207</name></trkpt>
<trkpt lat="52.695706" lon="06.025828"><ele>-2.8</ele><time>2022-09-06T11:24:14Z</time><name>PT1208</name></trkpt>
<trkpt lat="52.695720" lon="06.025844"><ele>-2.7</ele><time>2022-09-06T11:24:15Z</time><name>PT1209</name></trkpt>
<trkpt lat="52.695734" lon="06.025860"><ele>-2.5</ele><time>2022-09-06T11:24:15Z</time><name>PT1210</name></trkpt>
<trkpt lat="52.695748" lon="06.025875"><ele>-2.5</ele><time>2022-09-06T11:24:17Z</time><name>PT1211</name></trkpt>
<trkpt lat="52.695762" lon="06.025891"><ele>-2.6</ele><time>2022-09-06T11:24:18Z</time><name>PT1212</name></trkpt>
<trkpt lat="52.695776" lon="06.025905"><ele>-2.6</ele><time>2022-09-06T11:24:18Z</time><name>PT1213</name></trkpt>
<trkpt lat="52.695789" lon="06.025918"><ele>-2.7</ele><time>2022-09-06T11:24:20Z</time><name>PT1214</name></trkpt>
<trkpt lat="52.695804" lon="06.025934"><ele>-2.7</ele><time>2022-09-06T11:24:21Z</time><name>PT1215</name></trkpt>
<trkpt lat="52.695818" lon="06.025947"><ele>-2.6</ele><time>2022-09-06T11:24:21Z</time><name>PT1216</name></trkpt>
<trkpt lat="52.695831" lon="06.025963"><ele>-2.7</ele><time>2022-09-06T11:24:23Z</time><name>PT1217</name></trkpt>
<trkpt lat="52.695844" lon="06.025978"><ele>-2.8</ele><time>2022-09-06T11:24:24Z</time><name>PT1218</name></trkpt>
<trkpt lat="52.695857" lon="06.025993"><ele>-2.8</ele><time>2022-09-06T11:24:24Z</time><name>PT1219</name></trkpt>
<trkpt lat="52.695871" lon="06.026007"><ele>-2.7</ele><time>2022-09-06T11:24:26Z</time><name>PT1220</name></trkpt>
<trkpt lat="52.695884" lon="06.026022"><ele>-2.7</ele><time>2022-09-06T11:24:27Z</time><name>PT1221</name></trkpt>
<trkpt lat="52.695897" lon="06.026038"><ele>-2.9</ele><time>2022-09-06T11:24:27Z</time><name>PT1222</name></trkpt>
<trkpt lat="52.695910" lon="06.026054"><ele>-2.7</ele><time>2022-09-06T11:24:29Z</time><name>PT1223</name></trkpt>
<trkpt lat="52.695923" lon="06.026070"><ele>-2.7</ele><time>2022-09-06T11:24:30Z</time><name>PT1224</name></trkpt>
<trkpt lat="52.695937" lon="06.026085"><ele>-2.7</ele><time>2022-09-06T11:24:30Z</time><name>PT1225</name></trkpt>
<trkpt lat="52.695951" lon="06.026100"><ele>-2.5</ele><time>2022-09-06T11:24:32Z</time><name>PT1226</name></trkpt>
<trkpt lat="52.695964" lon="06.026117"><ele>-2.3</ele><time>2022-09-06T11:24:33Z</time><name>PT1227</name></trkpt>
<trkpt lat="52.695977" lon="06.026130"><ele>-2.4</ele><time>2022-09-06T11:24:33Z</time><name>PT1228</name></trkpt>
<trkpt lat="52.695990" lon="06.026144"><ele>-2.5</ele><time>2022-09-06T11:24:35Z</time><name>PT1229</name></trkpt>
<trkpt lat="52.696001" lon="06.026160"><ele>-2.4</ele><time>2022-09-06T11:24:36Z</time><name>PT1230</name></trkpt>
<trkpt lat="52.696014" lon="06.026177"><ele>-2.4</ele><time>2022-09-06T11:24:36Z</time><name>PT1231</name></trkpt>
<trkpt lat="52.696029" lon="06.026194"><ele>-2.4</ele><time>2022-09-06T11:24:38Z</time><name>PT1232</name></trkpt>
<trkpt lat="52.696042" lon="06.026211"><ele>-2.1</ele><time>2022-09-06T11:24:39Z</time><name>PT1233</name></trkpt>
<trkpt lat="52.696056" lon="06.026227"><ele>-2.2</ele><time>2022-09-06T11:24:39Z</time><name>PT1234</name></trkpt>
<trkpt lat="52.696069" lon="06.026243"><ele>-2.3</ele><time>2022-09-06T11:24:41Z</time><name>PT1235</name></trkpt>
<trkpt lat="52.696082" lon="06.026259"><ele>-2.2</ele><time>2022-09-06T11:24:42Z</time><name>PT1236</name></trkpt>
<trkpt lat="52.696095" lon="06.026276"><ele>-2.2</ele><time>2022-09-06T11:24:42Z</time><name>PT1237</name></trkpt>
<trkpt lat="52.696108" lon="06.026292"><ele>-2.5</ele><time>2022-09-06T11:24:44Z</time><name>PT1238</name></trkpt>
<trkpt lat="52.696121" lon="06.026307"><ele>-2.6</ele><time>2022-09-06T11:24:45Z</time><name>PT1239</name></trkpt>
<trkpt lat="52.696134" lon="06.026324"><ele>-2.7</ele><time>2022-09-06T11:24:45Z</time><name>PT1240</name></trkpt>
<trkpt lat="52.696147" lon="06.026339"><ele>-2.6</ele><time>2022-09-06T11:24:47Z</time><name>PT1241</name></trkpt>
<trkpt lat="52.696159" lon="06.026354"><ele>-2.5</ele><time>2022-09-06T11:24:48Z</time><name>PT1242</name></trkpt>
<trkpt lat="52.696172" lon="06.026370"><ele>-2.5</ele><time>2022-09-06T11:24:48Z</time><name>PT1243</name></trkpt>
<trkpt lat="52.696185" lon="06.026386"><ele>-2.4</ele><time>2022-09-06T11:24:50Z</time><name>PT1244</name></trkpt>
<trkpt lat="52.696198" lon="06.026402"><ele>-2.5</ele><time>2022-09-06T11:24:51Z</time><name>PT1245</name></trkpt>
<trkpt lat="52.696211" lon="06.026418"><ele>-2.5</ele><time>2022-09-06T11:24:51Z</time><name>PT1246</name></trkpt>
<trkpt lat="52.696224" lon="06.026434"><ele>-2.5</ele><time>2022-09-06T11:24:53Z</time><name>PT1247</name></trkpt>
<trkpt lat="52.696238" lon="06.026451"><ele>-2.6</ele><time>2022-09-06T11:24:54Z</time><name>PT1248</name></trkpt>
<trkpt lat="52.696251" lon="06.026467"><ele>-2.5</ele><time>2022-09-06T11:24:54Z</time><name>PT1249</name></trkpt>
<trkpt lat="52.696263" lon="06.026483"><ele>-2.5</ele><time>2022-09-06T11:24:56Z</time><name>PT1250</name></trkpt>
<trkpt lat="52.696274" lon="06.026500"><ele>-2.5</ele><time>2022-09-06T11:24:57Z</time><name>PT1251</name></trkpt>
<trkpt lat="52.696288" lon="06.026517"><ele>-2.5</ele><time>2022-09-06T11:24:57Z</time><name>PT1252</name></trkpt>
<trkpt lat="52.696300" lon="06.026534"><ele>-2.5</ele><time>2022-09-06T11:24:59Z</time><name>PT1253</name></trkpt>
<trkpt lat="52.696312" lon="06.026552"><ele>-2.3</ele><time>2022-09-06T11:25:00Z</time><name>PT1254</name></trkpt>
<trkpt lat="52.696325" lon="06.026567"><ele>-2.3</ele><time>2022-09-06T11:25:00Z</time><name>PT1255</name></trkpt>
<trkpt lat="52.696338" lon="06.026583"><ele>-2.5</ele><time>2022-09-06T11:25:02Z</time><name>PT1256</name></trkpt>
<trkpt lat="52.696351" lon="06.026598"><ele>-2.5</ele><time>2022-09-06T11:25:03Z</time><name>PT1257</name></trkpt>
<trkpt lat="52.696364" lon="06.026614"><ele>-2.5</ele><time>2022-09-06T11:25:03Z</time><name>PT1258</name></trkpt>
<trkpt lat="52.696378" lon="06.026628"><ele>-2.5</ele><time>2022-09-06T11:25:05Z</time><name>PT1259</name></trkpt>
<trkpt lat="52.696393" lon="06.026641"><ele>-2.5</ele><time>2022-09-06T11:25:06Z</time><name>PT1260</name></trkpt>
<trkpt lat="52.696408" lon="06.026653"><ele>-2.5</ele><time>2022-09-06T11:25:06Z</time><name>PT1261</name></trkpt>
<trkpt lat="52.696425" lon="06.026668"><ele>-2.5</ele><time>2022-09-06T11:25:08Z</time><name>PT1262</name></trkpt>
<trkpt lat="52.696440" lon="06.026681"><ele>-2.6</ele><time>2022-09-06T11:25:09Z</time><name>PT1263</name></trkpt>
<trkpt lat="52.696455" lon="06.026696"><ele>-2.5</ele><time>2022-09-06T11:25:09Z</time><name>PT1264</name></trkpt>
<trkpt lat="52.696469" lon="06.026713"><ele>-2.6</ele><time>2022-09-06T11:25:11Z</time><name>PT1265</name></trkpt>
<trkpt lat="52.696486" lon="06.026730"><ele>-2.5</ele><time>2022-09-06T11:25:12Z</time><name>PT1266</name></trkpt>
<trkpt lat="52.696501" lon="06.026748"><ele>-2.6</ele><time>2022-09-06T11:25:12Z</time><name>PT1267</name></trkpt>
<trkpt lat="52.696514" lon="06.026766"><ele>-2.5</ele><time>2022-09-06T11:25:14Z</time><name>PT1268</name></trkpt>
<trkpt lat="52.696528" lon="06.026781"><ele>-2.6</ele><time>2022-09-06T11:25:15Z</time><name>PT1269</name></trkpt>
<trkpt lat="52.696540" lon="06.026796"><ele>-2.7</ele><time>2022-09-06T11:25:15Z</time><name>PT1270</name></trkpt>
<trkpt lat="52.696554" lon="06.026811"><ele>-2.7</ele><time>2022-09-06T11:25:17Z</time><name>PT1271</name></trkpt>
<trkpt lat="52.696567" lon="06.026827"><ele>-2.8</ele><time>2022-09-06T11:25:18Z</time><name>PT1272</name></trkpt>
<trkpt lat="52.696581" lon="06.026843"><ele>-2.7</ele><time>2022-09-06T11:25:18Z</time><name>PT1273</name></trkpt>
<trkpt lat="52.696596" lon="06.026859"><ele>-2.5</ele><time>2022-09-06T11:25:20Z</time><name>PT1274</name></trkpt>
<trkpt lat="52.696609" lon="06.026877"><ele>-2.6</ele><time>2022-09-06T11:25:21Z</time><name>PT1275</name></trkpt>
<trkpt lat="52.696622" lon="06.026895"><ele>-2.7</ele><time>2022-09-06T11:25:21Z</time><name>PT1276</name></trkpt>
<trkpt lat="52.696633" lon="06.026912"><ele>-2.5</ele><time>2022-09-06T11:25:23Z</time><name>PT1277</name></trkpt>
<trkpt lat="52.696646" lon="06.026931"><ele>-2.7</ele><time>2022-09-06T11:25:24Z</time><name>PT1278</name></trkpt>
<trkpt lat="52.696661" lon="06.026947"><ele>-2.8</ele><time>2022-09-06T11:25:24Z</time><name>PT1279</name></trkpt>
<trkpt lat="52.696676" lon="06.026967"><ele>-2.6</ele><time>2022-09-06T11:25:26Z</time><name>PT1280</name></trkpt>
<trkpt lat="52.696689" lon="06.026983"><ele>-2.9</ele><time>2022-09-06T11:25:27Z</time><name>PT1281</name></trkpt>
<trkpt lat="52.696703" lon="06.026998"><ele>-2.8</ele><time>2022-09-06T11:25:27Z</time><name>PT1282</name></trkpt>
<trkpt lat="52.696717" lon="06.027014"><ele>-2.6</ele><time>2022-09-06T11:25:29Z</time><name>PT1283</name></trkpt>
<trkpt lat="52.696730" lon="06.027030"><ele>-2.5</ele><time>2022-09-06T11:25:30Z</time><name>PT1284</name></trkpt>
<trkpt lat="52.696743" lon="06.027045"><ele>-2.5</ele><time>2022-09-06T11:25:30Z</time><name>PT1285</name></trkpt>
<trkpt lat="52.696756" lon="06.027060"><ele>-2.5</ele><time>2022-09-06T11:25:32Z</time><name>PT1286</name></trkpt>
<trkpt lat="52.696769" lon="06.027075"><ele>-2.5</ele><time>2022-09-06T11:25:33Z</time><name>PT1287</name></trkpt>
<trkpt lat="52.696782" lon="06.027089"><ele>-2.6</ele><time>2022-09-06T11:25:33Z</time><name>PT1288</name></trkpt>
<trkpt lat="52.696795" lon="06.027104"><ele>-2.7</ele><time>2022-09-06T11:25:35Z</time><name>PT1289</name></trkpt>
<trkpt lat="52.696809" lon="06.027119"><ele>-2.8</ele><time>2022-09-06T11:25:36Z</time><name>PT1290</name></trkpt>
<trkpt lat="52.696822" lon="06.027134"><ele>-2.7</ele><time>2022-09-06T11:25:36Z</time><name>PT1291</name></trkpt>
<trkpt lat="52.696835" lon="06.027150"><ele>-2.8</ele><time>2022-09-06T11:25:38Z</time><name>PT1292</name></trkpt>
<trkpt lat="52.696849" lon="06.027165"><ele>-2.6</ele><time>2022-09-06T11:25:39Z</time><name>PT1293</name></trkpt>
<trkpt lat="52.696862" lon="06.027180"><ele>-2.5</ele><time>2022-09-06T11:25:39Z</time><name>PT1294</name></trkpt>
<trkpt lat="52.696875" lon="06.027195"><ele>-2.5</ele><time>2022-09-06T11:25:41Z</time><name>PT1295</name></trkpt>
<trkpt lat="52.696889" lon="06.027210"><ele>-2.3</ele><time>2022-09-06T11:25:42Z</time><name>PT1296</name></trkpt>
<trkpt lat="52.696903" lon="06.027225"><ele>-2.3</ele><time>2022-09-06T11:25:42Z</time><name>PT1297</name></trkpt>
<trkpt lat="52.696917" lon="06.027241"><ele>-2.3</ele><time>2022-09-06T11:25:44Z</time><name>PT1298</name></trkpt>
<trkpt lat="52.696930" lon="06.027256"><ele>-2.4</ele><time>2022-09-06T11:25:45Z</time><name>PT1299</name></trkpt>
<trkpt lat="52.696943" lon="06.027271"><ele>-2.5</ele><time>2022-09-06T11:25:45Z</time><name>PT1300</name></trkpt>
<trkpt lat="52.696956" lon="06.027287"><ele>-2.7</ele><time>2022-09-06T11:25:47Z</time><name>PT1301</name></trkpt>
<trkpt lat="52.696970" lon="06.027301"><ele>-2.8</ele><time>2022-09-06T11:25:48Z</time><name>PT1302</name></trkpt>
<trkpt lat="52.696984" lon="06.027316"><ele>-3</ele><time>2022-09-06T11:25:48Z</time><name>PT1303</name></trkpt>
<trkpt lat="52.696996" lon="06.027331"><ele>-2.9</ele><time>2022-09-06T11:25:50Z</time><name>PT1304</name></trkpt>
<trkpt lat="52.697008" lon="06.027347"><ele>-2.7</ele><time>2022-09-06T11:25:51Z</time><name>PT1305</name></trkpt>
<trkpt lat="52.697021" lon="06.027363"><ele>-2.7</ele><time>2022-09-06T11:25:51Z</time><name>PT1306</name></trkpt>
<trkpt lat="52.697035" lon="06.027379"><ele>-2.5</ele><time>2022-09-06T11:25:53Z</time><name>PT1307</name></trkpt>
<trkpt lat="52.697049" lon="06.027394"><ele>-2.4</ele><time>2022-09-06T11:25:54Z</time><name>PT1308</name></trkpt>
<trkpt lat="52.697062" lon="06.027409"><ele>-2.4</ele><time>2022-09-06T11:25:54Z</time><name>PT1309</name></trkpt>
<trkpt lat="52.697075" lon="06.027426"><ele>-2.5</ele><time>2022-09-06T11:25:56Z</time><name>PT1310</name></trkpt>
<trkpt lat="52.697089" lon="06.027441"><ele>-2.7</ele><time>2022-09-06T11:25:57Z</time><name>PT1311</name></trkpt>
<trkpt lat="52.697102" lon="06.027456"><ele>-2.6</ele><time>2022-09-06T11:25:57Z</time><name>PT1312</name></trkpt>
<trkpt lat="52.697116" lon="06.027471"><ele>-2.6</ele><time>2022-09-06T11:25:59Z</time><name>PT1313</name></trkpt>
<trkpt lat="52.697130" lon="06.027486"><ele>-2.5</ele><time>2022-09-06T11:26:00Z</time><name>PT1314</name></trkpt>
<trkpt lat="52.697144" lon="06.027502"><ele>-2.5</ele><time>2022-09-06T11:26:00Z</time><name>PT1315</name></trkpt>
<trkpt lat="52.697158" lon="06.027517"><ele>-2.5</ele><time>2022-09-06T11:26:02Z</time><name>PT1316</name></trkpt>
<trkpt lat="52.697172" lon="06.027532"><ele>-2.8</ele><time>2022-09-06T11:26:03Z</time><name>PT1317</name></trkpt>
<trkpt lat="52.697185" lon="06.027548"><ele>-3</ele><time>2022-09-06T11:26:03Z</time><name>PT1318</name></trkpt>
<trkpt lat="52.697199" lon="06.027563"><ele>-3</ele><time>2022-09-06T11:26:05Z</time><name>PT1319</name></trkpt>
<trkpt lat="52.697212" lon="06.027579"><ele>-3</ele><time>2022-09-06T11:26:06Z</time><name>PT1320</name></trkpt>
<trkpt lat="52.697225" lon="06.027594"><ele>-3</ele><time>2022-09-06T11:26:06Z</time><name>PT1321</name></trkpt>
<trkpt lat="52.697239" lon="06.027608"><ele>-2.9</ele><time>2022-09-06T11:26:08Z</time><name>PT1322</name></trkpt>
<trkpt lat="52.697252" lon="06.027622"><ele>-2.6</ele><time>2022-09-06T11:26:09Z</time><name>PT1323</name></trkpt>
<trkpt lat="52.697265" lon="06.027637"><ele>-2.6</ele><time>2022-09-06T11:26:09Z</time><name>PT1324</name></trkpt>
<trkpt lat="52.697279" lon="06.027653"><ele>-2.6</ele><time>2022-09-06T11:26:11Z</time><name>PT1325</name></trkpt>
<trkpt lat="52.697293" lon="06.027668"><ele>-2.5</ele><time>2022-09-06T11:26:12Z</time><name>PT1326</name></trkpt>
<trkpt lat="52.697306" lon="06.027683"><ele>-2.6</ele><time>2022-09-06T11:26:12Z</time><name>PT1327</name></trkpt>
<trkpt lat="52.697320" lon="06.027698"><ele>-2.6</ele><time>2022-09-06T11:26:14Z</time><name>PT1328</name></trkpt>
<trkpt lat="52.697333" lon="06.027711"><ele>-2.6</ele><time>2022-09-06T11:26:15Z</time><name>PT1329</name></trkpt>
<trkpt lat="52.697346" lon="06.027726"><ele>-2.8</ele><time>2022-09-06T11:26:15Z</time><name>PT1330</name></trkpt>
<trkpt lat="52.697359" lon="06.027742"><ele>-2.7</ele><time>2022-09-06T11:26:17Z</time><name>PT1331</name></trkpt>
<trkpt lat="52.697373" lon="06.027756"><ele>-2.7</ele><time>2022-09-06T11:26:18Z</time><name>PT1332</name></trkpt>
<trkpt lat="52.697386" lon="06.027771"><ele>-2.6</ele><time>2022-09-06T11:26:18Z</time><name>PT1333</name></trkpt>
<trkpt lat="52.697399" lon="06.027785"><ele>-2.4</ele><time>2022-09-06T11:26:20Z</time><name>PT1334</name></trkpt>
<trkpt lat="52.697412" lon="06.027800"><ele>-2.4</ele><time>2022-09-06T11:26:21Z</time><name>PT1335</name></trkpt>
<trkpt lat="52.697425" lon="06.027812"><ele>-2.5</ele><time>2022-09-06T11:26:21Z</time><name>PT1336</name></trkpt>
<trkpt lat="52.697439" lon="06.027826"><ele>-2.6</ele><time>2022-09-06T11:26:23Z</time><name>PT1337</name></trkpt>
<trkpt lat="52.697453" lon="06.027841"><ele>-2.8</ele><time>2022-09-06T11:26:24Z</time><name>PT1338</name></trkpt>
<trkpt lat="52.697467" lon="06.027855"><ele>-2.8</ele><time>2022-09-06T11:26:24Z</time><name>PT1339</name></trkpt>
<trkpt lat="52.697481" lon="06.027869"><ele>-2.8</ele><time>2022-09-06T11:26:26Z</time><name>PT1340</name></trkpt>
<trkpt lat="52.697495" lon="06.027884"><ele>-2.7</ele><time>2022-09-06T11:26:27Z</time><name>PT1341</name></trkpt>
<trkpt lat="52.697509" lon="06.027898"><ele>-2.6</ele><time>2022-09-06T11:26:27Z</time><name>PT1342</name></trkpt>
<trkpt lat="52.697523" lon="06.027912"><ele>-2.7</ele><time>2022-09-06T11:26:29Z</time><name>PT1343</name></trkpt>
<trkpt lat="52.697538" lon="06.027926"><ele>-2.8</ele><time>2022-09-06T11:26:30Z</time><name>PT1344</name></trkpt>
<trkpt lat="52.697552" lon="06.027939"><ele>-3</ele><time>2022-09-06T11:26:30Z</time><name>PT1345</name></trkpt>
<trkpt lat="52.697566" lon="06.027952"><ele>-3</ele><time>2022-09-06T11:26:32Z</time><name>PT1346</name></trkpt>
<trkpt lat="52.697581" lon="06.027965"><ele>-2.8</ele><time>2022-09-06T11:26:33Z</time><name>PT1347</name></trkpt>
<trkpt lat="52.697595" lon="06.027978"><ele>-2.8</ele><time>2022-09-06T11:26:33Z</time><name>PT1348</name></trkpt>
<trkpt lat="52.697609" lon="06.027991"><ele>-2.5</ele><time>2022-09-06T11:26:35Z</time><name>PT1349</name></trkpt>
<trkpt lat="52.697623" lon="06.028004"><ele>-2.5</ele><time>2022-09-06T11:26:36Z</time><name>PT1350</name></trkpt>
<trkpt lat="52.697638" lon="06.028016"><ele>-2.6</ele><time>2022-09-06T11:26:36Z</time><name>PT1351</name></trkpt>
<trkpt lat="52.697652" lon="06.028029"><ele>-2.5</ele><time>2022-09-06T11:26:38Z</time><name>PT1352</name></trkpt>
<trkpt lat="52.697666" lon="06.028042"><ele>-2.6</ele><time>2022-09-06T11:26:39Z</time><name>PT1353</name></trkpt>
<trkpt lat="52.697681" lon="06.028055"><ele>-2.8</ele><time>2022-09-06T11:26:39Z</time><name>PT1354</name></trkpt>
<trkpt lat="52.697695" lon="06.028068"><ele>-2.5</ele><time>2022-09-06T11:26:41Z</time><name>PT1355</name></trkpt>
<trkpt lat="52.697710" lon="06.028081"><ele>-2.6</ele><time>2022-09-06T11:26:42Z</time><name>PT1356</name></trkpt>
<trkpt lat="52.697723" lon="06.028093"><ele>-2.6</ele><time>2022-09-06T11:26:42Z</time><name>PT1357</name></trkpt>
<trkpt lat="52.697738" lon="06.028106"><ele>-2.5</ele><time>2022-09-06T11:26:44Z</time><name>PT1358</name></trkpt>
<trkpt lat="52.697752" lon="06.028119"><ele>-2.6</ele><time>2022-09-06T11:26:45Z</time><name>PT1359</name></trkpt>
<trkpt lat="52.697767" lon="06.028131"><ele>-2.5</ele><time>2022-09-06T11:26:45Z</time><name>PT1360</name></trkpt>
<trkpt lat="52.697781" lon="06.028144"><ele>-2.5</ele><time>2022-09-06T11:26:47Z</time><name>PT1361</name></trkpt>
<trkpt lat="52.697796" lon="06.028156"><ele>-2.5</ele><time>2022-09-06T11:26:48Z</time><name>PT1362</name></trkpt>
<trkpt lat="52.697810" lon="06.028168"><ele>-2.5</ele><time>2022-09-06T11:26:48Z</time><name>PT1363</name></trkpt>
<trkpt lat="52.697825" lon="06.028180"><ele>-2.5</ele><time>2022-09-06T11:26:50Z</time><name>PT1364</name></trkpt>
<trkpt lat="52.697839" lon="06.028192"><ele>-2.5</ele><time>2022-09-06T11:26:51Z</time><name>PT1365</name></trkpt>
<trkpt lat="52.697854" lon="06.028204"><ele>-2.6</ele><time>2022-09-06T11:26:51Z</time><name>PT1366</name></trkpt>
<trkpt lat="52.697869" lon="06.028216"><ele>-2.5</ele><time>2022-09-06T11:26:53Z</time><name>PT1367</name></trkpt>
<trkpt lat="52.697885" lon="06.028229"><ele>-2.6</ele><time>2022-09-06T11:26:54Z</time><name>PT1368</name></trkpt>
<trkpt lat="52.697900" lon="06.028241"><ele>-2.6</ele><time>2022-09-06T11:26:54Z</time><name>PT1369</name></trkpt>
<trkpt lat="52.697914" lon="06.028253"><ele>-2.6</ele><time>2022-09-06T11:26:56Z</time><name>PT1370</name></trkpt>
<trkpt lat="52.697929" lon="06.028265"><ele>-2.5</ele><time>2022-09-06T11:26:57Z</time><name>PT1371</name></trkpt>
<trkpt lat="52.697944" lon="06.028277"><ele>-2.5</ele><time>2022-09-06T11:26:57Z</time><name>PT1372</name></trkpt>
<trkpt lat="52.697960" lon="06.028292"><ele>-2.5</ele><time>2022-09-06T11:26:59Z</time><name>PT1373</name></trkpt>
<trkpt lat="52.697975" lon="06.028306"><ele>-2.4</ele><time>2022-09-06T11:27:00Z</time><name>PT1374</name></trkpt>
<trkpt lat="52.697989" lon="06.028319"><ele>-2.5</ele><time>2022-09-06T11:27:00Z</time><name>PT1375</name></trkpt>
<trkpt lat="52.698004" lon="06.028332"><ele>-2.4</ele><time>2022-09-06T11:27:02Z</time><name>PT1376</name></trkpt>
<trkpt lat="52.698019" lon="06.028344"><ele>-2.2</ele><time>2022-09-06T11:27:03Z</time><name>PT1377</name></trkpt>
<trkpt lat="52.698033" lon="06.028356"><ele>-2.2</ele><time>2022-09-06T11:27:03Z</time><name>PT1378</name></trkpt>
<trkpt lat="52.698048" lon="06.028366"><ele>-2.3</ele><time>2022-09-06T11:27:05Z</time><name>PT1379</name></trkpt>
<trkpt lat="52.698062" lon="06.028375"><ele>-2.3</ele><time>2022-09-06T11:27:06Z</time><name>PT1380</name></trkpt>
<trkpt lat="52.698077" lon="06.028383"><ele>-2.5</ele><time>2022-09-06T11:27:06Z</time><name>PT1381</name></trkpt>
<trkpt lat="52.698091" lon="06.028393"><ele>-2.5</ele><time>2022-09-06T11:27:08Z</time><name>PT1382</name></trkpt>
<trkpt lat="52.698106" lon="06.028409"><ele>-2.7</ele><time>2022-09-06T11:27:09Z</time><name>PT1383</name></trkpt>
<trkpt lat="52.698122" lon="06.028423"><ele>-2.8</ele><time>2022-09-06T11:27:09Z</time><name>PT1384</name></trkpt>
<trkpt lat="52.698137" lon="06.028433"><ele>-2.8</ele><time>2022-09-06T11:27:11Z</time><name>PT1385</name></trkpt>
<trkpt lat="52.698152" lon="06.028446"><ele>-2.5</ele><time>2022-09-06T11:27:12Z</time><name>PT1386</name></trkpt>
<trkpt lat="52.698167" lon="06.028459"><ele>-2.5</ele><time>2022-09-06T11:27:12Z</time><name>PT1387</name></trkpt>
<trkpt lat="52.698184" lon="06.028471"><ele>-2.3</ele><time>2022-09-06T11:27:14Z</time><name>PT1388</name></trkpt>
<trkpt lat="52.698200" lon="06.028485"><ele>-2.4</ele><time>2022-09-06T11:27:15Z</time><name>PT1389</name></trkpt>
<trkpt lat="52.698217" lon="06.028499"><ele>-2.5</ele><time>2022-09-06T11:27:15Z</time><name>PT1390</name></trkpt>
<trkpt lat="52.698232" lon="06.028510"><ele>-2.8</ele><time>2022-09-06T11:27:17Z</time><name>PT1391</name></trkpt>
<trkpt lat="52.698246" lon="06.028522"><ele>-2.9</ele><time>2022-09-06T11:27:18Z</time><name>PT1392</name></trkpt>
<trkpt lat="52.698260" lon="06.028535"><ele>-3</ele><time>2022-09-06T11:27:18Z</time><name>PT1393</name></trkpt>
<trkpt lat="52.698275" lon="06.028549"><ele>-2.8</ele><time>2022-09-06T11:27:20Z</time><name>PT1394</name></trkpt>
<trkpt lat="52.698289" lon="06.028563"><ele>-2.7</ele><time>2022-09-06T11:27:21Z</time><name>PT1395</name></trkpt>
<trkpt lat="52.698304" lon="06.028576"><ele>-2.7</ele><time>2022-09-06T11:27:21Z</time><name>PT1396</name></trkpt>
<trkpt lat="52.698319" lon="06.028590"><ele>-2.7</ele><time>2022-09-06T11:27:23Z</time><name>PT1397</name></trkpt>
<trkpt lat="52.698333" lon="06.028604"><ele>-2.8</ele><time>2022-09-06T11:27:24Z</time><name>PT1398</name></trkpt>
<trkpt lat="52.698347" lon="06.028616"><ele>-2.9</ele><time>2022-09-06T11:27:24Z</time><name>PT1399</name></trkpt>
<trkpt lat="52.698361" lon="06.028629"><ele>-2.7</ele><time>2022-09-06T11:27:26Z</time><name>PT1400</name></trkpt>
<trkpt lat="52.698375" lon="06.028642"><ele>-2.7</ele><time>2022-09-06T11:27:27Z</time><name>PT1401</name></trkpt>
<trkpt lat="52.698389" lon="06.028655"><ele>-2.8</ele><time>2022-09-06T11:27:27Z</time><name>PT1402</name></trkpt>
<trkpt lat="52.698403" lon="06.028668"><ele>-3</ele><time>2022-09-06T11:27:29Z</time><name>PT1403</name></trkpt>
<trkpt lat="52.698417" lon="06.028681"><ele>-3.1</ele><time>2022-09-06T11:27:30Z</time><name>PT1404</name></trkpt>
<trkpt lat="52.698431" lon="06.028695"><ele>-3.1</ele><time>2022-09-06T11:27:30Z</time><name>PT1405</name></trkpt>
<trkpt lat="52.698445" lon="06.028709"><ele>-3.2</ele><time>2022-09-06T11:27:32Z</time><name>PT1406</name></trkpt>
<trkpt lat="52.698459" lon="06.028723"><ele>-3</ele><time>2022-09-06T11:27:33Z</time><name>PT1407</name></trkpt>
<trkpt lat="52.698473" lon="06.028737"><ele>-3</ele><time>2022-09-06T11:27:33Z</time><name>PT1408</name></trkpt>
<trkpt lat="52.698487" lon="06.028751"><ele>-3.1</ele><time>2022-09-06T11:27:35Z</time><name>PT1409</name></trkpt>
<trkpt lat="52.698501" lon="06.028765"><ele>-3</ele><time>2022-09-06T11:27:36Z</time><name>PT1410</name></trkpt>
<trkpt lat="52.698515" lon="06.028778"><ele>-2.9</ele><time>2022-09-06T11:27:36Z</time><name>PT1411</name></trkpt>
<trkpt lat="52.698529" lon="06.028790"><ele>-2.8</ele><time>2022-09-06T11:27:38Z</time><name>PT1412</name></trkpt>
<trkpt lat="52.698543" lon="06.028803"><ele>-2.8</ele><time>2022-09-06T11:27:39Z</time><name>PT1413</name></trkpt>
<trkpt lat="52.698557" lon="06.028817"><ele>-2.8</ele><time>2022-09-06T11:27:39Z</time><name>PT1414</name></trkpt>
<trkpt lat="52.698571" lon="06.028832"><ele>-3</ele><time>2022-09-06T11:27:41Z</time><name>PT1415</name></trkpt>
<trkpt lat="52.698584" lon="06.028847"><ele>-3</ele><time>2022-09-06T11:27:42Z</time><name>PT1416</name></trkpt>
<trkpt lat="52.698598" lon="06.028861"><ele>-2.7</ele><time>2022-09-06T11:27:42Z</time><name>PT1417</name></trkpt>
<trkpt lat="52.698612" lon="06.028877"><ele>-2.8</ele><time>2022-09-06T11:27:44Z</time><name>PT1418</name></trkpt>
<trkpt lat="52.698626" lon="06.028892"><ele>-2.8</ele><time>2022-09-06T11:27:45Z</time><name>PT1419</name></trkpt>
<trkpt lat="52.698640" lon="06.028907"><ele>-2.8</ele><time>2022-09-06T11:27:45Z</time><name>PT1420</name></trkpt>
<trkpt lat="52.698653" lon="06.028922"><ele>-2.8</ele><time>2022-09-06T11:27:47Z</time><name>PT1421</name></trkpt>
<trkpt lat="52.698667" lon="06.028937"><ele>-2.8</ele><time>2022-09-06T11:27:48Z</time><name>PT1422</name></trkpt>
<trkpt lat="52.698680" lon="06.028952"><ele>-2.8</ele><time>2022-09-06T11:27:48Z</time><name>PT1423</name></trkpt>
<trkpt lat="52.698694" lon="06.028967"><ele>-2.6</ele><time>2022-09-06T11:27:50Z</time><name>PT1424</name></trkpt>
<trkpt lat="52.698707" lon="06.028983"><ele>-2.7</ele><time>2022-09-06T11:27:51Z</time><name>PT1425</name></trkpt>
<trkpt lat="52.698721" lon="06.028998"><ele>-2.8</ele><time>2022-09-06T11:27:51Z</time><name>PT1426</name></trkpt>
<trkpt lat="52.698734" lon="06.029014"><ele>-3</ele><time>2022-09-06T11:27:53Z</time><name>PT1427</name></trkpt>
<trkpt lat="52.698748" lon="06.029030"><ele>-3</ele><time>2022-09-06T11:27:54Z</time><name>PT1428</name></trkpt>
<trkpt lat="52.698761" lon="06.029046"><ele>-3</ele><time>2022-09-06T11:27:54Z</time><name>PT1429</name></trkpt>
<trkpt lat="52.698774" lon="06.029062"><ele>-3.1</ele><time>2022-09-06T11:27:56Z</time><name>PT1430</name></trkpt>
<trkpt lat="52.698788" lon="06.029078"><ele>-3</ele><time>2022-09-06T11:27:57Z</time><name>PT1431</name></trkpt>
<trkpt lat="52.698801" lon="06.029094"><ele>-3</ele><time>2022-09-06T11:27:57Z</time><name>PT1432</name></trkpt>
<trkpt lat="52.698814" lon="06.029110"><ele>-3</ele><time>2022-09-06T11:27:59Z</time><name>PT1433</name></trkpt>
<trkpt lat="52.698828" lon="06.029126"><ele>-2.8</ele><time>2022-09-06T11:28:00Z</time><name>PT1434</name></trkpt>
<trkpt lat="52.698841" lon="06.029141"><ele>-2.8</ele><time>2022-09-06T11:28:00Z</time><name>PT1435</name></trkpt>
<trkpt lat="52.698855" lon="06.029157"><ele>-3</ele><time>2022-09-06T11:28:02Z</time><name>PT1436</name></trkpt>
<trkpt lat="52.698868" lon="06.029173"><ele>-2.7</ele><time>2022-09-06T11:28:03Z</time><name>PT1437</name></trkpt>
<trkpt lat="52.698882" lon="06.029188"><ele>-2.9</ele><time>2022-09-06T11:28:03Z</time><name>PT1438</name></trkpt>
<trkpt lat="52.698895" lon="06.029204"><ele>-2.9</ele><time>2022-09-06T11:28:05Z</time><name>PT1439</name></trkpt>
<trkpt lat="52.698908" lon="06.029220"><ele>-2.9</ele><time>2022-09-06T11:28:06Z</time><name>PT1440</name></trkpt>
<trkpt lat="52.698922" lon="06.029234"><ele>-3</ele><time>2022-09-06T11:28:06Z</time><name>PT1441</name></trkpt>
<trkpt lat="52.698936" lon="06.029249"><ele>-3</ele><time>2022-09-06T11:28:08Z</time><name>PT1442</name></trkpt>
<trkpt lat="52.698950" lon="06.029264"><ele>-3</ele><time>2022-09-06T11:28:09Z</time><name>PT1443</name></trkpt>
<trkpt lat="52.698963" lon="06.029278"><ele>-3</ele><time>2022-09-06T11:28:09Z</time><name>PT1444</name></trkpt>
<trkpt lat="52.698977" lon="06.029293"><ele>-2.8</ele><time>2022-09-06T11:28:11Z</time><name>PT1445</name></trkpt>
<trkpt lat="52.698991" lon="06.029307"><ele>-2.7</ele><time>2022-09-06T11:28:12Z</time><name>PT1446</name></trkpt>
<trkpt lat="52.699005" lon="06.029321"><ele>-2.6</ele><time>2022-09-06T11:28:12Z</time><name>PT1447</name></trkpt>
<trkpt lat="52.699019" lon="06.029335"><ele>-2.5</ele><time>2022-09-06T11:28:14Z</time><name>PT1448</name></trkpt>
<trkpt lat="52.699033" lon="06.029350"><ele>-2.5</ele><time>2022-09-06T11:28:15Z</time><name>PT1449</name></trkpt>
<trkpt lat="52.699047" lon="06.029364"><ele>-2.6</ele><time>2022-09-06T11:28:15Z</time><name>PT1450</name></trkpt>
<trkpt lat="52.699061" lon="06.029378"><ele>-2.9</ele><time>2022-09-06T11:28:17Z</time><name>PT1451</name></trkpt>
<trkpt lat="52.699074" lon="06.029392"><ele>-3.1</ele><time>2022-09-06T11:28:18Z</time><name>PT1452</name></trkpt>
<trkpt lat="52.699088" lon="06.029407"><ele>-3.2</ele><time>2022-09-06T11:28:18Z</time><name>PT1453</name></trkpt>
<trkpt lat="52.699102" lon="06.029420"><ele>-3.1</ele><time>2022-09-06T11:28:20Z</time><name>PT1454</name></trkpt>
<trkpt lat="52.699115" lon="06.029435"><ele>-3</ele><time>2022-09-06T11:28:21Z</time><name>PT1455</name></trkpt>
<trkpt lat="52.699129" lon="06.029450"><ele>-3.1</ele><time>2022-09-06T11:28:21Z</time><name>PT1456</name></trkpt>
<trkpt lat="52.699143" lon="06.029463"><ele>-3</ele><time>2022-09-06T11:28:23Z</time><name>PT1457</name></trkpt>
<trkpt lat="52.699156" lon="06.029477"><ele>-3</ele><time>2022-09-06T11:28:24Z</time><name>PT1458</name></trkpt>
<trkpt lat="52.699170" lon="06.029491"><ele>-3</ele><time>2022-09-06T11:28:24Z</time><name>PT1459</name></trkpt>
<trkpt lat="52.699183" lon="06.029506"><ele>-3</ele><time>2022-09-06T11:28:26Z</time><name>PT1460</name></trkpt>
<trkpt lat="52.699196" lon="06.029521"><ele>-2.9</ele><time>2022-09-06T11:28:27Z</time><name>PT1461</name></trkpt>
<trkpt lat="52.699209" lon="06.029536"><ele>-2.7</ele><time>2022-09-06T11:28:27Z</time><name>PT1462</name></trkpt>
<trkpt lat="52.699222" lon="06.029550"><ele>-2.7</ele><time>2022-09-06T11:28:29Z</time><name>PT1463</name></trkpt>
<trkpt lat="52.699235" lon="06.029564"><ele>-2.6</ele><time>2022-09-06T11:28:30Z</time><name>PT1464</name></trkpt>
<trkpt lat="52.699249" lon="06.029578"><ele>-2.6</ele><time>2022-09-06T11:28:30Z</time><name>PT1465</name></trkpt>
<trkpt lat="52.699262" lon="06.029592"><ele>-2.8</ele><time>2022-09-06T11:28:32Z</time><name>PT1466</name></trkpt>
<trkpt lat="52.699275" lon="06.029606"><ele>-2.7</ele><time>2022-09-06T11:28:33Z</time><name>PT1467</name></trkpt>
<trkpt lat="52.699289" lon="06.029620"><ele>-2.7</ele><time>2022-09-06T11:28:33Z</time><name>PT1468</name></trkpt>
<trkpt lat="52.699302" lon="06.029634"><ele>-2.7</ele><time>2022-09-06T11:28:35Z</time><name>PT1469</name></trkpt>
<trkpt lat="52.699316" lon="06.029647"><ele>-2.7</ele><time>2022-09-06T11:28:36Z</time><name>PT1470</name></trkpt>
<trkpt lat="52.699330" lon="06.029660"><ele>-2.6</ele><time>2022-09-06T11:28:36Z</time><name>PT1471</name></trkpt>
<trkpt lat="52.699343" lon="06.029674"><ele>-2.6</ele><time>2022-09-06T11:28:38Z</time><name>PT1472</name></trkpt>
<trkpt lat="52.699357" lon="06.029689"><ele>-2.6</ele><time>2022-09-06T11:28:39Z</time><name>PT1473</name></trkpt>
<trkpt lat="52.699371" lon="06.029702"><ele>-2.7</ele><time>2022-09-06T11:28:39Z</time><name>PT1474</name></trkpt>
<trkpt lat="52.699384" lon="06.029716"><ele>-2.8</ele><time>2022-09-06T11:28:41Z</time><name>PT1475</name></trkpt>
<trkpt lat="52.699398" lon="06.029730"><ele>-3</ele><time>2022-09-06T11:28:42Z</time><name>PT1476</name></trkpt>
<trkpt lat="52.699411" lon="06.029744"><ele>-3</ele><time>2022-09-06T11:28:42Z</time><name>PT1477</name></trkpt>
<trkpt lat="52.699425" lon="06.029757"><ele>-2.9</ele><time>2022-09-06T11:28:44Z</time><name>PT1478</name></trkpt>
<trkpt lat="52.699440" lon="06.029770"><ele>-2.7</ele><time>2022-09-06T11:28:45Z</time><name>PT1479</name></trkpt>
<trkpt lat="52.699453" lon="06.029783"><ele>-2.6</ele><time>2022-09-06T11:28:45Z</time><name>PT1480</name></trkpt>
<trkpt lat="52.699467" lon="06.029796"><ele>-2.6</ele><time>2022-09-06T11:28:47Z</time><name>PT1481</name></trkpt>
<trkpt lat="52.699481" lon="06.029809"><ele>-2.6</ele><time>2022-09-06T11:28:48Z</time><name>PT1482</name></trkpt>
<trkpt lat="52.699495" lon="06.029821"><ele>-2.8</ele><time>2022-09-06T11:28:48Z</time><name>PT1483</name></trkpt>
<trkpt lat="52.699509" lon="06.029834"><ele>-2.6</ele><time>2022-09-06T11:28:50Z</time><name>PT1484</name></trkpt>
<trkpt lat="52.699523" lon="06.029847"><ele>-2.6</ele><time>2022-09-06T11:28:51Z</time><name>PT1485</name></trkpt>
<trkpt lat="52.699538" lon="06.029860"><ele>-2.6</ele><time>2022-09-06T11:28:51Z</time><name>PT1486</name></trkpt>
<trkpt lat="52.699552" lon="06.029872"><ele>-2.6</ele><time>2022-09-06T11:28:53Z</time><name>PT1487</name></trkpt>
<trkpt lat="52.699567" lon="06.029885"><ele>-2.9</ele><time>2022-09-06T11:28:54Z</time><name>PT1488</name></trkpt>
<trkpt lat="52.699582" lon="06.029898"><ele>-2.8</ele><time>2022-09-06T11:28:54Z</time><name>PT1489</name></trkpt>
<trkpt lat="52.699596" lon="06.029910"><ele>-2.7</ele><time>2022-09-06T11:28:56Z</time><name>PT1490</name></trkpt>
<trkpt lat="52.699611" lon="06.029923"><ele>-2.8</ele><time>2022-09-06T11:28:57Z</time><name>PT1491</name></trkpt>
<trkpt lat="52.699626" lon="06.029936"><ele>-2.7</ele><time>2022-09-06T11:28:57Z</time><name>PT1492</name></trkpt>
<trkpt lat="52.699641" lon="06.029948"><ele>-2.6</ele><time>2022-09-06T11:28:59Z</time><name>PT1493</name></trkpt>
<trkpt lat="52.699655" lon="06.029961"><ele>-2.8</ele><time>2022-09-06T11:29:00Z</time><name>PT1494</name></trkpt>
<trkpt lat="52.699670" lon="06.029974"><ele>-2.8</ele><time>2022-09-06T11:29:00Z</time><name>PT1495</name></trkpt>
<trkpt lat="52.699684" lon="06.029987"><ele>-2.7</ele><time>2022-09-06T11:29:02Z</time><name>PT1496</name></trkpt>
<trkpt lat="52.699698" lon="06.030000"><ele>-2.7</ele><time>2022-09-06T11:29:03Z</time><name>PT1497</name></trkpt>
<trkpt lat="52.699712" lon="06.030012"><ele>-2.5</ele><time>2022-09-06T11:29:03Z</time><name>PT1498</name></trkpt>
<trkpt lat="52.699726" lon="06.030024"><ele>-2.5</ele><time>2022-09-06T11:29:05Z</time><name>PT1499</name></trkpt>
<trkpt lat="52.699739" lon="06.030037"><ele>-2.5</ele><time>2022-09-06T11:29:06Z</time><name>PT1500</name></trkpt>
<trkpt lat="52.699754" lon="06.030049"><ele>-2.5</ele><time>2022-09-06T11:29:06Z</time><name>PT1501</name></trkpt>
<trkpt lat="52.699768" lon="06.030061"><ele>-2.5</ele><time>2022-09-06T11:29:08Z</time><name>PT1502</name></trkpt>
<trkpt lat="52.699781" lon="06.030075"><ele>-2.3</ele><time>2022-09-06T11:29:09Z</time><name>PT1503</name></trkpt>
<trkpt lat="52.699795" lon="06.030088"><ele>-2.3</ele><time>2022-09-06T11:29:09Z</time><name>PT1504</name></trkpt>
<trkpt lat="52.699809" lon="06.030103"><ele>-2.2</ele><time>2022-09-06T11:29:11Z</time><name>PT1505</name></trkpt>
<trkpt lat="52.699822" lon="06.030117"><ele>-2.4</ele><time>2022-09-06T11:29:12Z</time><name>PT1506</name></trkpt>
<trkpt lat="52.699835" lon="06.030131"><ele>-2.5</ele><time>2022-09-06T11:29:12Z</time><name>PT1507</name></trkpt>
<trkpt lat="52.699848" lon="06.030146"><ele>-2.5</ele><time>2022-09-06T11:29:14Z</time><name>PT1508</name></trkpt>
<trkpt lat="52.699862" lon="06.030160"><ele>-2.5</ele><time>2022-09-06T11:29:15Z</time><name>PT1509</name></trkpt>
<trkpt lat="52.699875" lon="06.030175"><ele>-2.5</ele><time>2022-09-06T11:29:15Z</time><name>PT1510</name></trkpt>
<trkpt lat="52.699889" lon="06.030190"><ele>-2.5</ele><time>2022-09-06T11:29:17Z</time><name>PT1511</name></trkpt>
<trkpt lat="52.699902" lon="06.030206"><ele>-2.5</ele><time>2022-09-06T11:29:18Z</time><name>PT1512</name></trkpt>
<trkpt lat="52.699915" lon="06.030221"><ele>-2.7</ele><time>2022-09-06T11:29:18Z</time><name>PT1513</name></trkpt>
<trkpt lat="52.699929" lon="06.030234"><ele>-2.6</ele><time>2022-09-06T11:29:20Z</time><name>PT1514</name></trkpt>
<trkpt lat="52.699943" lon="06.030248"><ele>-2.7</ele><time>2022-09-06T11:29:21Z</time><name>PT1515</name></trkpt>
<trkpt lat="52.699956" lon="06.030262"><ele>-2.6</ele><time>2022-09-06T11:29:21Z</time><name>PT1516</name></trkpt>
<trkpt lat="52.699969" lon="06.030277"><ele>-2.7</ele><time>2022-09-06T11:29:23Z</time><name>PT1517</name></trkpt>
<trkpt lat="52.699982" lon="06.030292"><ele>-2.7</ele><time>2022-09-06T11:29:24Z</time><name>PT1518</name></trkpt>
<trkpt lat="52.699995" lon="06.030308"><ele>-2.7</ele><time>2022-09-06T11:29:24Z</time><name>PT1519</name></trkpt>
<trkpt lat="52.700008" lon="06.030323"><ele>-2.7</ele><time>2022-09-06T11:29:26Z</time><name>PT1520</name></trkpt>
<trkpt lat="52.700020" lon="06.030338"><ele>-2.6</ele><time>2022-09-06T11:29:27Z</time><name>PT1521</name></trkpt>
<trkpt lat="52.700033" lon="06.030354"><ele>-2.6</ele><time>2022-09-06T11:29:27Z</time><name>PT1522</name></trkpt>
<trkpt lat="52.700046" lon="06.030370"><ele>-2.5</ele><time>2022-09-06T11:29:29Z</time><name>PT1523</name></trkpt>
<trkpt lat="52.700057" lon="06.030386"><ele>-2.5</ele><time>2022-09-06T11:29:30Z</time><name>PT1524</name></trkpt>
<trkpt lat="52.700070" lon="06.030402"><ele>-2.5</ele><time>2022-09-06T11:29:30Z</time><name>PT1525</name></trkpt>
<trkpt lat="52.700082" lon="06.030419"><ele>-2.5</ele><time>2022-09-06T11:29:32Z</time><name>PT1526</name></trkpt>
<trkpt lat="52.700094" lon="06.030435"><ele>-2.6</ele><time>2022-09-06T11:29:33Z</time><name>PT1527</name></trkpt>
<trkpt lat="52.700106" lon="06.030451"><ele>-2.4</ele><time>2022-09-06T11:29:33Z</time><name>PT1528</name></trkpt>
<trkpt lat="52.700118" lon="06.030467"><ele>-2.4</ele><time>2022-09-06T11:29:35Z</time><name>PT1529</name></trkpt>
<trkpt lat="52.700130" lon="06.030485"><ele>-2.5</ele><time>2022-09-06T11:29:36Z</time><name>PT1530</name></trkpt>
<trkpt lat="52.700142" lon="06.030502"><ele>-2.4</ele><time>2022-09-06T11:29:36Z</time><name>PT1531</name></trkpt>
<trkpt lat="52.700153" lon="06.030520"><ele>-2.4</ele><time>2022-09-06T11:29:38Z</time><name>PT1532</name></trkpt>
<trkpt lat="52.700165" lon="06.030537"><ele>-2.5</ele><time>2022-09-06T11:29:39Z</time><name>PT1533</name></trkpt>
<trkpt lat="52.700176" lon="06.030554"><ele>-2.3</ele><time>2022-09-06T11:29:39Z</time><name>PT1534</name></trkpt>
<trkpt lat="52.700188" lon="06.030571"><ele>-2.2</ele><time>2022-09-06T11:29:41Z</time><name>PT1535</name></trkpt>
<trkpt lat="52.700200" lon="06.030588"><ele>-2.3</ele><time>2022-09-06T11:29:42Z</time><name>PT1536</name></trkpt>
<trkpt lat="52.700211" lon="06.030605"><ele>-2.4</ele><time>2022-09-06T11:29:42Z</time><name>PT1537</name></trkpt>
<trkpt lat="52.700223" lon="06.030622"><ele>-2.5</ele><time>2022-09-06T11:29:44Z</time><name>PT1538</name></trkpt>
<trkpt lat="52.700235" lon="06.030639"><ele>-2.5</ele><time>2022-09-06T11:29:45Z</time><name>PT1539</name></trkpt>
<trkpt lat="52.700246" lon="06.030655"><ele>-2.5</ele><time>2022-09-06T11:29:45Z</time><name>PT1540</name></trkpt>
<trkpt lat="52.700258" lon="06.030673"><ele>-2.5</ele><time>2022-09-06T11:29:47Z</time><name>PT1541</name></trkpt>
<trkpt lat="52.700269" lon="06.030691"><ele>-2.4</ele><time>2022-09-06T11:29:48Z</time><name>PT1542</name></trkpt>
<trkpt lat="52.700280" lon="06.030708"><ele>-2.3</ele><time>2022-09-06T11:29:48Z</time><name>PT1543</name></trkpt>
<trkpt lat="52.700291" lon="06.030725"><ele>-2.4</ele><time>2022-09-06T11:29:50Z</time><name>PT1544</name></trkpt>
<trkpt lat="52.700302" lon="06.030744"><ele>-2.3</ele><time>2022-09-06T11:29:51Z</time><name>PT1545</name></trkpt>
<trkpt lat="52.700313" lon="06.030762"><ele>-2.4</ele><time>2022-09-06T11:29:51Z</time><name>PT1546</name></trkpt>
<trkpt lat="52.700324" lon="06.030781"><ele>-2.3</ele><time>2022-09-06T11:29:53Z</time><name>PT1547</name></trkpt>
<trkpt lat="52.700335" lon="06.030800"><ele>-2.3</ele><time>2022-09-06T11:29:54Z</time><name>PT1548</name></trkpt>
<trkpt lat="52.700346" lon="06.030820"><ele>-2.2</ele><time>2022-09-06T11:29:54Z</time><name>PT1549</name></trkpt>
<trkpt lat="52.700357" lon="06.030840"><ele>-2.2</ele><time>2022-09-06T11:29:56Z</time><name>PT1550</name></trkpt>
<trkpt lat="52.700368" lon="06.030859"><ele>-2.1</ele><time>2022-09-06T11:29:57Z</time><name>PT1551</name></trkpt>
<trkpt lat="52.700378" lon="06.030878"><ele>-2.1</ele><time>2022-09-06T11:29:57Z</time><name>PT1552</name></trkpt>
<trkpt lat="52.700389" lon="06.030897"><ele>-2.1</ele><time>2022-09-06T11:29:59Z</time><name>PT1553</name></trkpt>
<trkpt lat="52.700400" lon="06.030915"><ele>-2.1</ele><time>2022-09-06T11:30:00Z</time><name>PT1554</name></trkpt>
<trkpt lat="52.700409" lon="06.030933"><ele>-2.2</ele><time>2022-09-06T11:30:00Z</time><name>PT1555</name></trkpt>
<trkpt lat="52.700420" lon="06.030951"><ele>-2.3</ele><time>2022-09-06T11:30:02Z</time><name>PT1556</name></trkpt>
<trkpt lat="52.700430" lon="06.030969"><ele>-2.4</ele><time>2022-09-06T11:30:03Z</time><name>PT1557</name></trkpt>
<trkpt lat="52.700441" lon="06.030987"><ele>-2.5</ele><time>2022-09-06T11:30:03Z</time><name>PT1558</name></trkpt>
<trkpt lat="52.700452" lon="06.031003"><ele>-2.5</ele><time>2022-09-06T11:30:05Z</time><name>PT1559</name></trkpt>
<trkpt lat="52.700462" lon="06.031020"><ele>-2.5</ele><time>2022-09-06T11:30:06Z</time><name>PT1560</name></trkpt>
<trkpt lat="52.700472" lon="06.031038"><ele>-2.5</ele><time>2022-09-06T11:30:06Z</time><name>PT1561</name></trkpt>
<trkpt lat="52.700482" lon="06.031056"><ele>-2.5</ele><time>2022-09-06T11:30:08Z</time><name>PT1562</name></trkpt>
<trkpt lat="52.700492" lon="06.031075"><ele>-2.5</ele><time>2022-09-06T11:30:09Z</time><name>PT1563</name></trkpt>
<trkpt lat="52.700502" lon="06.031094"><ele>-2.5</ele><time>2022-09-06T11:30:09Z</time><name>PT1564</name></trkpt>
<trkpt lat="52.700512" lon="06.031113"><ele>-2.6</ele><time>2022-09-06T11:30:11Z</time><name>PT1565</name></trkpt>
<trkpt lat="52.700523" lon="06.031130"><ele>-2.6</ele><time>2022-09-06T11:30:12Z</time><name>PT1566</name></trkpt>
<trkpt lat="52.700534" lon="06.031148"><ele>-2.5</ele><time>2022-09-06T11:30:12Z</time><name>PT1567</name></trkpt>
<trkpt lat="52.700544" lon="06.031167"><ele>-2.5</ele><time>2022-09-06T11:30:14Z</time><name>PT1568</name></trkpt>
<trkpt lat="52.700554" lon="06.031186"><ele>-2.5</ele><time>2022-09-06T11:30:15Z</time><name>PT1569</name></trkpt>
<trkpt lat="52.700565" lon="06.031205"><ele>-2.5</ele><time>2022-09-06T11:30:15Z</time><name>PT1570</name></trkpt>
<trkpt lat="52.700574" lon="06.031225"><ele>-2.6</ele><time>2022-09-06T11:30:17Z</time><name>PT1571</name></trkpt>
<trkpt lat="52.700585" lon="06.031243"><ele>-2.6</ele><time>2022-09-06T11:30:18Z</time><name>PT1572</name></trkpt>
<trkpt lat="52.700595" lon="06.031261"><ele>-2.6</ele><time>2022-09-06T11:30:18Z</time><name>PT1573</name></trkpt>
<trkpt lat="52.700605" lon="06.031280"><ele>-2.7</ele><time>2022-09-06T11:30:20Z</time><name>PT1574</name></trkpt>
<trkpt lat="52.700615" lon="06.031299"><ele>-2.6</ele><time>2022-09-06T11:30:21Z</time><name>PT1575</name></trkpt>
<trkpt lat="52.700625" lon="06.031317"><ele>-2.6</ele><time>2022-09-06T11:30:21Z</time><name>PT1576</name></trkpt>
<trkpt lat="52.700636" lon="06.031336"><ele>-2.5</ele><time>2022-09-06T11:30:23Z</time><name>PT1577</name></trkpt>
<trkpt lat="52.700646" lon="06.031354"><ele>-2.4</ele><time>2022-09-06T11:30:24Z</time><name>PT1578</name></trkpt>
<trkpt lat="52.700656" lon="06.031373"><ele>-2.5</ele><time>2022-09-06T11:30:24Z</time><name>PT1579</name></trkpt>
<trkpt lat="52.700666" lon="06.031392"><ele>-2.3</ele><time>2022-09-06T11:30:26Z</time><name>PT1580</name></trkpt>
<trkpt lat="52.700676" lon="06.031412"><ele>-2.3</ele><time>2022-09-06T11:30:27Z</time><name>PT1581</name></trkpt>
<trkpt lat="52.700686" lon="06.031431"><ele>-2.5</ele><time>2022-09-06T11:30:27Z</time><name>PT1582</name></trkpt>
<trkpt lat="52.700695" lon="06.031450"><ele>-2.5</ele><time>2022-09-06T11:30:29Z</time><name>PT1583</name></trkpt>
<trkpt lat="52.700705" lon="06.031469"><ele>-2.5</ele><time>2022-09-06T11:30:30Z</time><name>PT1584</name></trkpt>
<trkpt lat="52.700715" lon="06.031489"><ele>-2.5</ele><time>2022-09-06T11:30:30Z</time><name>PT1585</name></trkpt>
<trkpt lat="52.700724" lon="06.031509"><ele>-2.4</ele><time>2022-09-06T11:30:32Z</time><name>PT1586</name></trkpt>
<trkpt lat="52.700732" lon="06.031529"><ele>-2.4</ele><time>2022-09-06T11:30:33Z</time><name>PT1587</name></trkpt>
<trkpt lat="52.700741" lon="06.031549"><ele>-2.4</ele><time>2022-09-06T11:30:33Z</time><name>PT1588</name></trkpt>
<trkpt lat="52.700751" lon="06.031570"><ele>-2.4</ele><time>2022-09-06T11:30:35Z</time><name>PT1589</name></trkpt>
<trkpt lat="52.700760" lon="06.031590"><ele>-2.5</ele><time>2022-09-06T11:30:36Z</time><name>PT1590</name></trkpt>
<trkpt lat="52.700770" lon="06.031610"><ele>-2.6</ele><time>2022-09-06T11:30:36Z</time><name>PT1591</name></trkpt>
<trkpt lat="52.700780" lon="06.031631"><ele>-2.7</ele><time>2022-09-06T11:30:38Z</time><name>PT1592</name></trkpt>
<trkpt lat="52.700790" lon="06.031650"><ele>-2.7</ele><time>2022-09-06T11:30:39Z</time><name>PT1593</name></trkpt>
<trkpt lat="52.700801" lon="06.031669"><ele>-2.6</ele><time>2022-09-06T11:30:39Z</time><name>PT1594</name></trkpt>
<trkpt lat="52.700811" lon="06.031686"><ele>-2.7</ele><time>2022-09-06T11:30:41Z</time><name>PT1595</name></trkpt>
<trkpt lat="52.700821" lon="06.031705"><ele>-2.5</ele><time>2022-09-06T11:30:42Z</time><name>PT1596</name></trkpt>
<trkpt lat="52.700831" lon="06.031723"><ele>-2.5</ele><time>2022-09-06T11:30:42Z</time><name>PT1597</name></trkpt>
<trkpt lat="52.700840" lon="06.031742"><ele>-2.4</ele><time>2022-09-06T11:30:44Z</time><name>PT1598</name></trkpt>
<trkpt lat="52.700850" lon="06.031761"><ele>-2.3</ele><time>2022-09-06T11:30:45Z</time><name>PT1599</name></trkpt>
<trkpt lat="52.700860" lon="06.031781"><ele>-2.4</ele><time>2022-09-06T11:30:45Z</time><name>PT1600</name></trkpt>
<trkpt lat="52.700870" lon="06.031800"><ele>-2.5</ele><time>2022-09-06T11:30:47Z</time><name>PT1601</name></trkpt>
<trkpt lat="52.700877" lon="06.031807"><ele>-2.6</ele><time>2022-09-06T11:30:48Z</time><name>PT1602</name></trkpt>
<trkpt lat="52.700889" lon="06.031821"><ele>-2.6</ele><time>2022-09-06T11:30:48Z</time><name>PT1603</name></trkpt>
<trkpt lat="52.700900" lon="06.031842"><ele>-2.5</ele><time>2022-09-06T11:30:50Z</time><name>PT1604</name></trkpt>
<trkpt lat="52.700911" lon="06.031863"><ele>-2.5</ele><time>2022-09-06T11:30:51Z</time><name>PT1605</name></trkpt>
<trkpt lat="52.700921" lon="06.031885"><ele>-2.6</ele><time>2022-09-06T11:30:51Z</time><name>PT1606</name></trkpt>
<trkpt lat="52.700930" lon="06.031906"><ele>-2.5</ele><time>2022-09-06T11:30:53Z</time><name>PT1607</name></trkpt>
<trkpt lat="52.700940" lon="06.031927"><ele>-2.5</ele><time>2022-09-06T11:30:54Z</time><name>PT1608</name></trkpt>
<trkpt lat="52.700947" lon="06.031944"><ele>-2.5</ele><time>2022-09-06T11:30:54Z</time><name>PT1609</name></trkpt>
<trkpt lat="52.700952" lon="06.031972"><ele>-2.4</ele><time>2022-09-06T11:30:56Z</time><name>PT1610</name></trkpt>
<trkpt lat="52.700961" lon="06.031994"><ele>-2.4</ele><time>2022-09-06T11:30:57Z</time><name>PT1611</name></trkpt>
<trkpt lat="52.700970" lon="06.032017"><ele>-2.5</ele><time>2022-09-06T11:30:57Z</time><name>PT1612</name></trkpt>
<trkpt lat="52.700979" lon="06.032036"><ele>-2.5</ele><time>2022-09-06T11:30:59Z</time><name>PT1613</name></trkpt>
<trkpt lat="52.700988" lon="06.032056"><ele>-2.5</ele><time>2022-09-06T11:31:00Z</time><name>PT1614</name></trkpt>
<trkpt lat="52.700997" lon="06.032077"><ele>-2.5</ele><time>2022-09-06T11:31:00Z</time><name>PT1615</name></trkpt>
<trkpt lat="52.701006" lon="06.032098"><ele>-2.6</ele><time>2022-09-06T11:31:02Z</time><name>PT1616</name></trkpt>
<trkpt lat="52.701014" lon="06.032118"><ele>-2.5</ele><time>2022-09-06T11:31:03Z</time><name>PT1617</name></trkpt>
<trkpt lat="52.701023" lon="06.032138"><ele>-2.5</ele><time>2022-09-06T11:31:03Z</time><name>PT1618</name></trkpt>
<trkpt lat="52.701031" lon="06.032159"><ele>-2.5</ele><time>2022-09-06T11:31:05Z</time><name>PT1619</name></trkpt>
<trkpt lat="52.701039" lon="06.032179"><ele>-2.6</ele><time>2022-09-06T11:31:06Z</time><name>PT1620</name></trkpt>
<trkpt lat="52.701047" lon="06.032200"><ele>-2.6</ele><time>2022-09-06T11:31:06Z</time><name>PT1621</name></trkpt>
<trkpt lat="52.701055" lon="06.032221"><ele>-2.6</ele><time>2022-09-06T11:31:08Z</time><name>PT1622</name></trkpt>
<trkpt lat="52.701063" lon="06.032242"><ele>-2.5</ele><time>2022-09-06T11:31:09Z</time><name>PT1623</name></trkpt>
<trkpt lat="52.701070" lon="06.032262"><ele>-2.5</ele><time>2022-09-06T11:31:09Z</time><name>PT1624</name></trkpt>
<trkpt lat="52.701078" lon="06.032283"><ele>-2.5</ele><time>2022-09-06T11:31:11Z</time><name>PT1625</name></trkpt>
<trkpt lat="52.701085" lon="06.032304"><ele>-2.4</ele><time>2022-09-06T11:31:12Z</time><name>PT1626</name></trkpt>
<trkpt lat="52.701093" lon="06.032325"><ele>-2.4</ele><time>2022-09-06T11:31:12Z</time><name>PT1627</name></trkpt>
<trkpt lat="52.701100" lon="06.032346"><ele>-2.5</ele><time>2022-09-06T11:31:14Z</time><name>PT1628</name></trkpt>
<trkpt lat="52.701107" lon="06.032367"><ele>-2.4</ele><time>2022-09-06T11:31:15Z</time><name>PT1629</name></trkpt>
<trkpt lat="52.701115" lon="06.032389"><ele>-2.3</ele><time>2022-09-06T11:31:15Z</time><name>PT1630</name></trkpt>
<trkpt lat="52.701122" lon="06.032410"><ele>-2.2</ele><time>2022-09-06T11:31:17Z</time><name>PT1631</name></trkpt>
<trkpt lat="52.701129" lon="06.032431"><ele>-2.4</ele><time>2022-09-06T11:31:18Z</time><name>PT1632</name></trkpt>
<trkpt lat="52.701138" lon="06.032450"><ele>-2.5</ele><time>2022-09-06T11:31:18Z</time><name>PT1633</name></trkpt>
<trkpt lat="52.701146" lon="06.032472"><ele>-2.5</ele><time>2022-09-06T11:31:20Z</time><name>PT1634</name></trkpt>
<trkpt lat="52.701154" lon="06.032493"><ele>-2.4</ele><time>2022-09-06T11:31:21Z</time><name>PT1635</name></trkpt>
<trkpt lat="52.701161" lon="06.032514"><ele>-2.5</ele><time>2022-09-06T11:31:21Z</time><name>PT1636</name></trkpt>
<trkpt lat="52.701170" lon="06.032538"><ele>-2.5</ele><time>2022-09-06T11:31:23Z</time><name>PT1637</name></trkpt>
<trkpt lat="52.701178" lon="06.032561"><ele>-2.5</ele><time>2022-09-06T11:31:24Z</time><name>PT1638</name></trkpt>
<trkpt lat="52.701186" lon="06.032584"><ele>-2.6</ele><time>2022-09-06T11:31:24Z</time><name>PT1639</name></trkpt>
<trkpt lat="52.701193" lon="06.032608"><ele>-2.5</ele><time>2022-09-06T11:31:26Z</time><name>PT1640</name></trkpt>
<trkpt lat="52.701200" lon="06.032631"><ele>-2.5</ele><time>2022-09-06T11:31:27Z</time><name>PT1641</name></trkpt>
<trkpt lat="52.701207" lon="06.032653"><ele>-2.4</ele><time>2022-09-06T11:31:27Z</time><name>PT1642</name></trkpt>
<trkpt lat="52.701214" lon="06.032676"><ele>-2.4</ele><time>2022-09-06T11:31:29Z</time><name>PT1643</name></trkpt>
<trkpt lat="52.701221" lon="06.032698"><ele>-2.5</ele><time>2022-09-06T11:31:30Z</time><name>PT1644</name></trkpt>
<trkpt lat="52.701228" lon="06.032720"><ele>-2.5</ele><time>2022-09-06T11:31:30Z</time><name>PT1645</name></trkpt>
<trkpt lat="52.701235" lon="06.032742"><ele>-2.6</ele><time>2022-09-06T11:31:32Z</time><name>PT1646</name></trkpt>
<trkpt lat="52.701242" lon="06.032764"><ele>-2.6</ele><time>2022-09-06T11:31:33Z</time><name>PT1647</name></trkpt>
<trkpt lat="52.701249" lon="06.032785"><ele>-2.6</ele><time>2022-09-06T11:31:33Z</time><name>PT1648</name></trkpt>
<trkpt lat="52.701256" lon="06.032807"><ele>-2.5</ele><time>2022-09-06T11:31:35Z</time><name>PT1649</name></trkpt>
<trkpt lat="52.701263" lon="06.032828"><ele>-2.6</ele><time>2022-09-06T11:31:36Z</time><name>PT1650</name></trkpt>
<trkpt lat="52.701269" lon="06.032850"><ele>-2.5</ele><time>2022-09-06T11:31:36Z</time><name>PT1651</name></trkpt>
<trkpt lat="52.701276" lon="06.032872"><ele>-2.7</ele><time>2022-09-06T11:31:38Z</time><name>PT1652</name></trkpt>
<trkpt lat="52.701283" lon="06.032894"><ele>-2.9</ele><time>2022-09-06T11:31:39Z</time><name>PT1653</name></trkpt>
<trkpt lat="52.701290" lon="06.032915"><ele>-2.8</ele><time>2022-09-06T11:31:39Z</time><name>PT1654</name></trkpt>
<trkpt lat="52.701297" lon="06.032937"><ele>-2.6</ele><time>2022-09-06T11:31:41Z</time><name>PT1655</name></trkpt>
<trkpt lat="52.701303" lon="06.032958"><ele>-2.7</ele><time>2022-09-06T11:31:42Z</time><name>PT1656</name></trkpt>
<trkpt lat="52.701310" lon="06.032980"><ele>-2.5</ele><time>2022-09-06T11:31:42Z</time><name>PT1657</name></trkpt>
<trkpt lat="52.701317" lon="06.033002"><ele>-2.6</ele><time>2022-09-06T11:31:44Z</time><name>PT1658</name></trkpt>
<trkpt lat="52.701324" lon="06.033024"><ele>-2.7</ele><time>2022-09-06T11:31:45Z</time><name>PT1659</name></trkpt>
<trkpt lat="52.701331" lon="06.033046"><ele>-2.8</ele><time>2022-09-06T11:31:45Z</time><name>PT1660</name></trkpt>
<trkpt lat="52.701336" lon="06.033071"><ele>-2.6</ele><time>2022-09-06T11:31:47Z</time><name>PT1661</name></trkpt>
<trkpt lat="52.701343" lon="06.033093"><ele>-2.5</ele><time>2022-09-06T11:31:48Z</time><name>PT1662</name></trkpt>
<trkpt lat="52.701350" lon="06.033115"><ele>-2.5</ele><time>2022-09-06T11:31:48Z</time><name>PT1663</name></trkpt>
<trkpt lat="52.701357" lon="06.033138"><ele>-2.5</ele><time>2022-09-06T11:31:50Z</time><name>PT1664</name></trkpt>
<trkpt lat="52.701364" lon="06.033159"><ele>-2.5</ele><time>2022-09-06T11:31:51Z</time><name>PT1665</name></trkpt>
<trkpt lat="52.701371" lon="06.033181"><ele>-2.4</ele><time>2022-09-06T11:31:51Z</time><name>PT1666</name></trkpt>
<trkpt lat="52.701378" lon="06.033202"><ele>-2.5</ele><time>2022-09-06T11:31:53Z</time><name>PT1667</name></trkpt>
<trkpt lat="52.701384" lon="06.033224"><ele>-2.5</ele><time>2022-09-06T11:31:54Z</time><name>PT1668</name></trkpt>
<trkpt lat="52.701390" lon="06.033247"><ele>-2.6</ele><time>2022-09-06T11:31:54Z</time><name>PT1669</name></trkpt>
<trkpt lat="52.701396" lon="06.033269"><ele>-2.8</ele><time>2022-09-06T11:31:56Z</time><name>PT1670</name></trkpt>
<trkpt lat="52.701401" lon="06.033291"><ele>-2.5</ele><time>2022-09-06T11:31:57Z</time><name>PT1671</name></trkpt>
<trkpt lat="52.701407" lon="06.033314"><ele>-2.5</ele><time>2022-09-06T11:31:57Z</time><name>PT1672</name></trkpt>
<trkpt lat="52.701413" lon="06.033336"><ele>-2.6</ele><time>2022-09-06T11:31:59Z</time><name>PT1673</name></trkpt>
<trkpt lat="52.701418" lon="06.033359"><ele>-2.4</ele><time>2022-09-06T11:32:00Z</time><name>PT1674</name></trkpt>
<trkpt lat="52.701423" lon="06.033381"><ele>-2.5</ele><time>2022-09-06T11:32:00Z</time><name>PT1675</name></trkpt>
<trkpt lat="52.701429" lon="06.033402"><ele>-2.5</ele><time>2022-09-06T11:32:02Z</time><name>PT1676</name></trkpt>
<trkpt lat="52.701434" lon="06.033425"><ele>-2.5</ele><time>2022-09-06T11:32:03Z</time><name>PT1677</name></trkpt>
<trkpt lat="52.701440" lon="06.033449"><ele>-2.5</ele><time>2022-09-06T11:32:03Z</time><name>PT1678</name></trkpt>
<trkpt lat="52.701445" lon="06.033473"><ele>-2.5</ele><time>2022-09-06T11:32:05Z</time><name>PT1679</name></trkpt>
<trkpt lat="52.701449" lon="06.033498"><ele>-2.4</ele><time>2022-09-06T11:32:06Z</time><name>PT1680</name></trkpt>
<trkpt lat="52.701454" lon="06.033522"><ele>-2.5</ele><time>2022-09-06T11:32:06Z</time><name>PT1681</name></trkpt>
<trkpt lat="52.701458" lon="06.033545"><ele>-2.6</ele><time>2022-09-06T11:32:08Z</time><name>PT1682</name></trkpt>
<trkpt lat="52.701462" lon="06.033570"><ele>-2.9</ele><time>2022-09-06T11:32:09Z</time><name>PT1683</name></trkpt>
<trkpt lat="52.701466" lon="06.033594"><ele>-3</ele><time>2022-09-06T11:32:09Z</time><name>PT1684</name></trkpt>
<trkpt lat="52.701470" lon="06.033617"><ele>-3</ele><time>2022-09-06T11:32:11Z</time><name>PT1685</name></trkpt>
<trkpt lat="52.701473" lon="06.033641"><ele>-3</ele><time>2022-09-06T11:32:12Z</time><name>PT1686</name></trkpt>
<trkpt lat="52.701476" lon="06.033664"><ele>-2.9</ele><time>2022-09-06T11:32:12Z</time><name>PT1687</name></trkpt>
<trkpt lat="52.701480" lon="06.033687"><ele>-2.8</ele><time>2022-09-06T11:32:14Z</time><name>PT1688</name></trkpt>
<trkpt lat="52.701484" lon="06.033711"><ele>-2.8</ele><time>2022-09-06T11:32:15Z</time><name>PT1689</name></trkpt>
<trkpt lat="52.701487" lon="06.033734"><ele>-2.7</ele><time>2022-09-06T11:32:15Z</time><name>PT1690</name></trkpt>
<trkpt lat="52.701489" lon="06.033759"><ele>-2.6</ele><time>2022-09-06T11:32:17Z</time><name>PT1691</name></trkpt>
<trkpt lat="52.701492" lon="06.033783"><ele>-2.5</ele><time>2022-09-06T11:32:18Z</time><name>PT1692</name></trkpt>
<trkpt lat="52.701494" lon="06.033807"><ele>-2.7</ele><time>2022-09-06T11:32:18Z</time><name>PT1693</name></trkpt>
<trkpt lat="52.701496" lon="06.033831"><ele>-2.9</ele><time>2022-09-06T11:32:20Z</time><name>PT1694</name></trkpt>
<trkpt lat="52.701498" lon="06.033855"><ele>-2.9</ele><time>2022-09-06T11:32:21Z</time><name>PT1695</name></trkpt>
<trkpt lat="52.701500" lon="06.033879"><ele>-2.8</ele><time>2022-09-06T11:32:21Z</time><name>PT1696</name></trkpt>
<trkpt lat="52.701501" lon="06.033903"><ele>-2.7</ele><time>2022-09-06T11:32:23Z</time><name>PT1697</name></trkpt>
<trkpt lat="52.701502" lon="06.033927"><ele>-2.5</ele><time>2022-09-06T11:32:24Z</time><name>PT1698</name></trkpt>
<trkpt lat="52.701504" lon="06.033951"><ele>-2.6</ele><time>2022-09-06T11:32:24Z</time><name>PT1699</name></trkpt>
<trkpt lat="52.701506" lon="06.033974"><ele>-2.8</ele><time>2022-09-06T11:32:26Z</time><name>PT1700</name></trkpt>
<trkpt lat="52.701507" lon="06.033998"><ele>-2.8</ele><time>2022-09-06T11:32:27Z</time><name>PT1701</name></trkpt>
<trkpt lat="52.701508" lon="06.034022"><ele>-3</ele><time>2022-09-06T11:32:27Z</time><name>PT1702</name></trkpt>
<trkpt lat="52.701508" lon="06.034046"><ele>-3</ele><time>2022-09-06T11:32:29Z</time><name>PT1703</name></trkpt>
<trkpt lat="52.701509" lon="06.034070"><ele>-3</ele><time>2022-09-06T11:32:30Z</time><name>PT1704</name></trkpt>
<trkpt lat="52.701509" lon="06.034093"><ele>-3</ele><time>2022-09-06T11:32:30Z</time><name>PT1705</name></trkpt>
<trkpt lat="52.701510" lon="06.034116"><ele>-3</ele><time>2022-09-06T11:32:32Z</time><name>PT1706</name></trkpt>
<trkpt lat="52.701510" lon="06.034139"><ele>-3</ele><time>2022-09-06T11:32:33Z</time><name>PT1707</name></trkpt>
<trkpt lat="52.701510" lon="06.034163"><ele>-2.9</ele><time>2022-09-06T11:32:33Z</time><name>PT1708</name></trkpt>
<trkpt lat="52.701509" lon="06.034187"><ele>-2.9</ele><time>2022-09-06T11:32:35Z</time><name>PT1709</name></trkpt>
<trkpt lat="52.701508" lon="06.034211"><ele>-2.6</ele><time>2022-09-06T11:32:36Z</time><name>PT1710</name></trkpt>
<trkpt lat="52.701507" lon="06.034234"><ele>-2.7</ele><time>2022-09-06T11:32:36Z</time><name>PT1711</name></trkpt>
<trkpt lat="52.701505" lon="06.034258"><ele>-2.6</ele><time>2022-09-06T11:32:38Z</time><name>PT1712</name></trkpt>
<trkpt lat="52.701504" lon="06.034283"><ele>-2.7</ele><time>2022-09-06T11:32:39Z</time><name>PT1713</name></trkpt>
<trkpt lat="52.701502" lon="06.034305"><ele>-2.6</ele><time>2022-09-06T11:32:39Z</time><name>PT1714</name></trkpt>
<trkpt lat="52.701499" lon="06.034331"><ele>-2.6</ele><time>2022-09-06T11:32:41Z</time><name>PT1715</name></trkpt>
<trkpt lat="52.701496" lon="06.034355"><ele>-2.8</ele><time>2022-09-06T11:32:42Z</time><name>PT1716</name></trkpt>
<trkpt lat="52.701491" lon="06.034376"><ele>-2.7</ele><time>2022-09-06T11:32:42Z</time><name>PT1717</name></trkpt>
<trkpt lat="52.701487" lon="06.034398"><ele>-2.8</ele><time>2022-09-06T11:32:44Z</time><name>PT1718</name></trkpt>
<trkpt lat="52.701484" lon="06.034422"><ele>-2.9</ele><time>2022-09-06T11:32:45Z</time><name>PT1719</name></trkpt>
<trkpt lat="52.701480" lon="06.034445"><ele>-2.9</ele><time>2022-09-06T11:32:45Z</time><name>PT1720</name></trkpt>
<trkpt lat="52.701475" lon="06.034467"><ele>-2.9</ele><time>2022-09-06T11:32:47Z</time><name>PT1721</name></trkpt>
<trkpt lat="52.701468" lon="06.034488"><ele>-2.9</ele><time>2022-09-06T11:32:48Z</time><name>PT1722</name></trkpt>
<trkpt lat="52.701463" lon="06.034509"><ele>-2.7</ele><time>2022-09-06T11:32:48Z</time><name>PT1723</name></trkpt>
<trkpt lat="52.701457" lon="06.034530"><ele>-2.7</ele><time>2022-09-06T11:32:50Z</time><name>PT1724</name></trkpt>
<trkpt lat="52.701451" lon="06.034551"><ele>-2.4</ele><time>2022-09-06T11:32:51Z</time><name>PT1725</name></trkpt>
<trkpt lat="52.701444" lon="06.034572"><ele>-2.5</ele><time>2022-09-06T11:32:51Z</time><name>PT1726</name></trkpt>
<trkpt lat="52.701437" lon="06.034592"><ele>-2.5</ele><time>2022-09-06T11:32:53Z</time><name>PT1727</name></trkpt>
<trkpt lat="52.701429" lon="06.034613"><ele>-2.5</ele><time>2022-09-06T11:32:54Z</time><name>PT1728</name></trkpt>
<trkpt lat="52.701420" lon="06.034634"><ele>-2.5</ele><time>2022-09-06T11:32:54Z</time><name>PT1729</name></trkpt>
<trkpt lat="52.701411" lon="06.034655"><ele>-2.6</ele><time>2022-09-06T11:32:56Z</time><name>PT1730</name></trkpt>
<trkpt lat="52.701404" lon="06.034674"><ele>-2.5</ele><time>2022-09-06T11:32:57Z</time><name>PT1731</name></trkpt>
<trkpt lat="52.701394" lon="06.034694"><ele>-2.5</ele><time>2022-09-06T11:32:57Z</time><name>PT1732</name></trkpt>
<trkpt lat="52.701384" lon="06.034714"><ele>-2.5</ele><time>2022-09-06T11:32:59Z</time><name>PT1733</name></trkpt>
<trkpt lat="52.701374" lon="06.034733"><ele>-2.6</ele><time>2022-09-06T11:33:00Z</time><name>PT1734</name></trkpt>
<trkpt lat="52.701364" lon="06.034752"><ele>-2.7</ele><time>2022-09-06T11:33:00Z</time><name>PT1735</name></trkpt>
<trkpt lat="52.701354" lon="06.034770"><ele>-2.9</ele><time>2022-09-06T11:33:02Z</time><name>PT1736</name></trkpt>
<trkpt lat="52.701345" lon="06.034788"><ele>-3</ele><time>2022-09-06T11:33:03Z</time><name>PT1737</name></trkpt>
<trkpt lat="52.701336" lon="06.034807"><ele>-2.7</ele><time>2022-09-06T11:33:03Z</time><name>PT1738</name></trkpt>
<trkpt lat="52.701327" lon="06.034825"><ele>-2.8</ele><time>2022-09-06T11:33:05Z</time><name>PT1739</name></trkpt>
<trkpt lat="52.701317" lon="06.034843"><ele>-2.6</ele><time>2022-09-06T11:33:06Z</time><name>PT1740</name></trkpt>
<trkpt lat="52.701307" lon="06.034860"><ele>-2.5</ele><time>2022-09-06T11:33:06Z</time><name>PT1741</name></trkpt>
<trkpt lat="52.701297" lon="06.034878"><ele>-2.7</ele><time>2022-09-06T11:33:08Z</time><name>PT1742</name></trkpt>
<trkpt lat="52.701286" lon="06.034895"><ele>-2.7</ele><time>2022-09-06T11:33:09Z</time><name>PT1743</name></trkpt>
<trkpt lat="52.701276" lon="06.034912"><ele>-2.6</ele><time>2022-09-06T11:33:09Z</time><name>PT1744</name></trkpt>
<trkpt lat="52.701265" lon="06.034930"><ele>-2.8</ele><time>2022-09-06T11:33:11Z</time><name>PT1745</name></trkpt>
<trkpt lat="52.701255" lon="06.034947"><ele>-2.7</ele><time>2022-09-06T11:33:12Z</time><name>PT1746</name></trkpt>
<trkpt lat="52.701245" lon="06.034965"><ele>-2.8</ele><time>2022-09-06T11:33:12Z</time><name>PT1747</name></trkpt>
<trkpt lat="52.701235" lon="06.034982"><ele>-2.8</ele><time>2022-09-06T11:33:14Z</time><name>PT1748</name></trkpt>
<trkpt lat="52.701224" lon="06.034999"><ele>-2.8</ele><time>2022-09-06T11:33:15Z</time><name>PT1749</name></trkpt>
<trkpt lat="52.701214" lon="06.035017"><ele>-2.9</ele><time>2022-09-06T11:33:15Z</time><name>PT1750</name></trkpt>
<trkpt lat="52.701204" lon="06.035034"><ele>-2.7</ele><time>2022-09-06T11:33:17Z</time><name>PT1751</name></trkpt>
<trkpt lat="52.701192" lon="06.035051"><ele>-2.7</ele><time>2022-09-06T11:33:18Z</time><name>PT1752</name></trkpt>
<trkpt lat="52.701181" lon="06.035069"><ele>-2.6</ele><time>2022-09-06T11:33:18Z</time><name>PT1753</name></trkpt>
<trkpt lat="52.701170" lon="06.035086"><ele>-2.5</ele><time>2022-09-06T11:33:20Z</time><name>PT1754</name></trkpt>
<trkpt lat="52.701159" lon="06.035103"><ele>-2.5</ele><time>2022-09-06T11:33:21Z</time><name>PT1755</name></trkpt>
<trkpt lat="52.701148" lon="06.035119"><ele>-2.5</ele><time>2022-09-06T11:33:21Z</time><name>PT1756</name></trkpt>
<trkpt lat="52.701136" lon="06.035135"><ele>-2.5</ele><time>2022-09-06T11:33:23Z</time><name>PT1757</name></trkpt>
<trkpt lat="52.701125" lon="06.035151"><ele>-2.6</ele><time>2022-09-06T11:33:24Z</time><name>PT1758</name></trkpt>
<trkpt lat="52.701114" lon="06.035167"><ele>-2.5</ele><time>2022-09-06T11:33:24Z</time><name>PT1759</name></trkpt>
<trkpt lat="52.701102" lon="06.035182"><ele>-2.6</ele><time>2022-09-06T11:33:26Z</time><name>PT1760</name></trkpt>
<trkpt lat="52.701091" lon="06.035197"><ele>-2.6</ele><time>2022-09-06T11:33:27Z</time><name>PT1761</name></trkpt>
<trkpt lat="52.701079" lon="06.035212"><ele>-2.7</ele><time>2022-09-06T11:33:27Z</time><name>PT1762</name></trkpt>
<trkpt lat="52.701067" lon="06.035227"><ele>-2.8</ele><time>2022-09-06T11:33:29Z</time><name>PT1763</name></trkpt>
<trkpt lat="52.701055" lon="06.035242"><ele>-2.9</ele><time>2022-09-06T11:33:30Z</time><name>PT1764</name></trkpt>
<trkpt lat="52.701043" lon="06.035257"><ele>-2.9</ele><time>2022-09-06T11:33:30Z</time><name>PT1765</name></trkpt>
<trkpt lat="52.701031" lon="06.035271"><ele>-2.9</ele><time>2022-09-06T11:33:32Z</time><name>PT1766</name></trkpt>
<trkpt lat="52.701019" lon="06.035286"><ele>-2.9</ele><time>2022-09-06T11:33:33Z</time><name>PT1767</name></trkpt>
<trkpt lat="52.701007" lon="06.035300"><ele>-2.8</ele><time>2022-09-06T11:33:33Z</time><name>PT1768</name></trkpt>
<trkpt lat="52.700994" lon="06.035315"><ele>-2.6</ele><time>2022-09-06T11:33:35Z</time><name>PT1769</name></trkpt>
<trkpt lat="52.700982" lon="06.035328"><ele>-2.8</ele><time>2022-09-06T11:33:36Z</time><name>PT1770</name></trkpt>
<trkpt lat="52.700971" lon="06.035341"><ele>-2.6</ele><time>2022-09-06T11:33:36Z</time><name>PT1771</name></trkpt>
<trkpt lat="52.700961" lon="06.035353"><ele>-2.8</ele><time>2022-09-06T11:33:38Z</time><name>PT1772</name></trkpt>
<trkpt lat="52.700952" lon="06.035363"><ele>-2.8</ele><time>2022-09-06T11:33:39Z</time><name>PT1773</name></trkpt>
<trkpt lat="52.700941" lon="06.035373"><ele>-2.8</ele><time>2022-09-06T11:33:39Z</time><name>PT1774</name></trkpt>
<trkpt lat="52.700930" lon="06.035382"><ele>-2.6</ele><time>2022-09-06T11:33:41Z</time><name>PT1775</name></trkpt>
<trkpt lat="52.700919" lon="06.035391"><ele>-2.5</ele><time>2022-09-06T11:33:42Z</time><name>PT1776</name></trkpt>
<trkpt lat="52.700908" lon="06.035399"><ele>-2.5</ele><time>2022-09-06T11:33:42Z</time><name>PT1777</name></trkpt>
<trkpt lat="52.700896" lon="06.035407"><ele>-2.5</ele><time>2022-09-06T11:33:44Z</time><name>PT1778</name></trkpt>
<trkpt lat="52.700883" lon="06.035415"><ele>-2.5</ele><time>2022-09-06T11:33:45Z</time><name>PT1779</name></trkpt>
<trkpt lat="52.700871" lon="06.035424"><ele>-2.6</ele><time>2022-09-06T11:33:45Z</time><name>PT1780</name></trkpt>
<trkpt lat="52.700858" lon="06.035432"><ele>-2.5</ele><time>2022-09-06T11:33:47Z</time><name>PT1781</name></trkpt>
<trkpt lat="52.700845" lon="06.035442"><ele>-2.7</ele><time>2022-09-06T11:33:48Z</time><name>PT1782</name></trkpt>
<trkpt lat="52.700830" lon="06.035452"><ele>-2.6</ele><time>2022-09-06T11:33:48Z</time><name>PT1783</name></trkpt>
<trkpt lat="52.700817" lon="06.035464"><ele>-2.9</ele><time>2022-09-06T11:33:50Z</time><name>PT1784</name></trkpt>
<trkpt lat="52.700803" lon="06.035475"><ele>-3.1</ele><time>2022-09-06T11:33:51Z</time><name>PT1785</name></trkpt>
<trkpt lat="52.700791" lon="06.035489"><ele>-3.3</ele><time>2022-09-06T11:33:51Z</time><name>PT1786</name></trkpt>
<trkpt lat="52.700779" lon="06.035505"><ele>-3.3</ele><time>2022-09-06T11:33:53Z</time><name>PT1787</name></trkpt>
<trkpt lat="52.700769" lon="06.035523"><ele>-3.3</ele><time>2022-09-06T11:33:54Z</time><name>PT1788</name></trkpt>
<trkpt lat="52.700758" lon="06.035540"><ele>-3.2</ele><time>2022-09-06T11:33:54Z</time><name>PT1789</name></trkpt>
<trkpt lat="52.700747" lon="06.035558"><ele>-3</ele><time>2022-09-06T11:33:56Z</time><name>PT1790</name></trkpt>
<trkpt lat="52.700738" lon="06.035578"><ele>-3</ele><time>2022-09-06T11:33:57Z</time><name>PT1791</name></trkpt>
<trkpt lat="52.700727" lon="06.035599"><ele>-2.9</ele><time>2022-09-06T11:33:57Z</time><name>PT1792</name></trkpt>
<trkpt lat="52.700719" lon="06.035623"><ele>-2.9</ele><time>2022-09-06T11:33:59Z</time><name>PT1793</name></trkpt>
<trkpt lat="52.700710" lon="06.035646"><ele>-2.7</ele><time>2022-09-06T11:34:00Z</time><name>PT1794</name></trkpt>
<trkpt lat="52.700702" lon="06.035671"><ele>-2.5</ele><time>2022-09-06T11:34:00Z</time><name>PT1795</name></trkpt>
<trkpt lat="52.700696" lon="06.035696"><ele>-2.6</ele><time>2022-09-06T11:34:02Z</time><name>PT1796</name></trkpt>
<trkpt lat="52.700688" lon="06.035725"><ele>-2.4</ele><time>2022-09-06T11:34:03Z</time><name>PT1797</name></trkpt>
<trkpt lat="52.700681" lon="06.035750"><ele>-2.4</ele><time>2022-09-06T11:34:03Z</time><name>PT1798</name></trkpt>
<trkpt lat="52.700675" lon="06.035776"><ele>-2.5</ele><time>2022-09-06T11:34:05Z</time><name>PT1799</name></trkpt>
<trkpt lat="52.700671" lon="06.035801"><ele>-2.4</ele><time>2022-09-06T11:34:06Z</time><name>PT1800</name></trkpt>
<trkpt lat="52.700668" lon="06.035828"><ele>-2.4</ele><time>2022-09-06T11:34:06Z</time><name>PT1801</name></trkpt>
<trkpt lat="52.700664" lon="06.035855"><ele>-2.5</ele><time>2022-09-06T11:34:08Z</time><name>PT1802</name></trkpt>
<trkpt lat="52.700662" lon="06.035882"><ele>-2.4</ele><time>2022-09-06T11:34:09Z</time><name>PT1803</name></trkpt>
<trkpt lat="52.700661" lon="06.035911"><ele>-2.4</ele><time>2022-09-06T11:34:09Z</time><name>PT1804</name></trkpt>
<trkpt lat="52.700659" lon="06.035940"><ele>-2.5</ele><time>2022-09-06T11:34:11Z</time><name>PT1805</name></trkpt>
<trkpt lat="52.700659" lon="06.035968"><ele>-2.5</ele><time>2022-09-06T11:34:12Z</time><name>PT1806</name></trkpt>
<trkpt lat="52.700659" lon="06.035997"><ele>-2.4</ele><time>2022-09-06T11:34:12Z</time><name>PT1807</name></trkpt>
<trkpt lat="52.700660" lon="06.036026"><ele>-2.5</ele><time>2022-09-06T11:34:14Z</time><name>PT1808</name></trkpt>
<trkpt lat="52.700662" lon="06.036055"><ele>-2.5</ele><time>2022-09-06T11:34:15Z</time><name>PT1809</name></trkpt>
<trkpt lat="52.700664" lon="06.036084"><ele>-2.7</ele><time>2022-09-06T11:34:15Z</time><name>PT1810</name></trkpt>
<trkpt lat="52.700667" lon="06.036113"><ele>-2.8</ele><time>2022-09-06T11:34:17Z</time><name>PT1811</name></trkpt>
<trkpt lat="52.700671" lon="06.036141"><ele>-2.5</ele><time>2022-09-06T11:34:18Z</time><name>PT1812</name></trkpt>
<trkpt lat="52.700676" lon="06.036168"><ele>-2.4</ele><time>2022-09-06T11:34:18Z</time><name>PT1813</name></trkpt>
<trkpt lat="52.700677" lon="06.036199"><ele>-2.4</ele><time>2022-09-06T11:34:20Z</time><name>PT1814</name></trkpt>
<trkpt lat="52.700682" lon="06.036226"><ele>-2.3</ele><time>2022-09-06T11:34:21Z</time><name>PT1815</name></trkpt>
<trkpt lat="52.700689" lon="06.036253"><ele>-2.3</ele><time>2022-09-06T11:34:21Z</time><name>PT1816</name></trkpt>
<trkpt lat="52.700697" lon="06.036280"><ele>-2.4</ele><time>2022-09-06T11:34:23Z</time><name>PT1817</name></trkpt>
<trkpt lat="52.700706" lon="06.036306"><ele>-2.4</ele><time>2022-09-06T11:34:24Z</time><name>PT1818</name></trkpt>
<trkpt lat="52.700716" lon="06.036331"><ele>-2.4</ele><time>2022-09-06T11:34:24Z</time><name>PT1819</name></trkpt>
<trkpt lat="52.700725" lon="06.036355"><ele>-2.2</ele><time>2022-09-06T11:34:26Z</time><name>PT1820</name></trkpt>
<trkpt lat="52.700735" lon="06.036381"><ele>-2.2</ele><time>2022-09-06T11:34:27Z</time><name>PT1821</name></trkpt>
<trkpt lat="52.700746" lon="06.036404"><ele>-2.2</ele><time>2022-09-06T11:34:27Z</time><name>PT1822</name></trkpt>
<trkpt lat="52.700757" lon="06.036428"><ele>-2.3</ele><time>2022-09-06T11:34:29Z</time><name>PT1823</name></trkpt>
<trkpt lat="52.700769" lon="06.036450"><ele>-2.5</ele><time>2022-09-06T11:34:30Z</time><name>PT1824</name></trkpt>
<trkpt lat="52.700780" lon="06.036473"><ele>-2.5</ele><time>2022-09-06T11:34:30Z</time><name>PT1825</name></trkpt>
<trkpt lat="52.700792" lon="06.036496"><ele>-2.5</ele><time>2022-09-06T11:34:32Z</time><name>PT1826</name></trkpt>
<trkpt lat="52.700803" lon="06.036517"><ele>-2.7</ele><time>2022-09-06T11:34:33Z</time><name>PT1827</name></trkpt>
<trkpt lat="52.700815" lon="06.036540"><ele>-2.7</ele><time>2022-09-06T11:34:33Z</time><name>PT1828</name></trkpt>
<trkpt lat="52.700827" lon="06.036563"><ele>-2.8</ele><time>2022-09-06T11:34:35Z</time><name>PT1829</name></trkpt>
<trkpt lat="52.700838" lon="06.036587"><ele>-2.8</ele><time>2022-09-06T11:34:36Z</time><name>PT1830</name></trkpt>
<trkpt lat="52.700849" lon="06.036610"><ele>-2.9</ele><time>2022-09-06T11:34:36Z</time><name>PT1831</name></trkpt>
<trkpt lat="52.700859" lon="06.036634"><ele>-2.7</ele><time>2022-09-06T11:34:38Z</time><name>PT1832</name></trkpt>
<trkpt lat="52.700870" lon="06.036657"><ele>-2.5</ele><time>2022-09-06T11:34:39Z</time><name>PT1833</name></trkpt>
<trkpt lat="52.700879" lon="06.036681"><ele>-2.5</ele><time>2022-09-06T11:34:39Z</time><name>PT1834</name></trkpt>
<trkpt lat="52.700888" lon="06.036706"><ele>-2.4</ele><time>2022-09-06T11:34:41Z</time><name>PT1835</name></trkpt>
<trkpt lat="52.700895" lon="06.036737"><ele>-2.2</ele><time>2022-09-06T11:34:42Z</time><name>PT1836</name></trkpt>
<trkpt lat="52.700900" lon="06.036773"><ele>-2.3</ele><time>2022-09-06T11:34:42Z</time><name>PT1837</name></trkpt>
<trkpt lat="52.700909" lon="06.036798"><ele>-2.4</ele><time>2022-09-06T11:34:44Z</time><name>PT1838</name></trkpt>
<trkpt lat="52.700917" lon="06.036824"><ele>-2.3</ele><time>2022-09-06T11:34:45Z</time><name>PT1839</name></trkpt>
<trkpt lat="52.700924" lon="06.036851"><ele>-2.3</ele><time>2022-09-06T11:34:45Z</time><name>PT1840</name></trkpt>
<trkpt lat="52.700931" lon="06.036878"><ele>-2.5</ele><time>2022-09-06T11:34:47Z</time><name>PT1841</name></trkpt>
<trkpt lat="52.700938" lon="06.036904"><ele>-2.5</ele><time>2022-09-06T11:34:48Z</time><name>PT1842</name></trkpt>
<trkpt lat="52.700944" lon="06.036930"><ele>-2.7</ele><time>2022-09-06T11:34:48Z</time><name>PT1843</name></trkpt>
<trkpt lat="52.700950" lon="06.036957"><ele>-2.9</ele><time>2022-09-06T11:34:50Z</time><name>PT1844</name></trkpt>
<trkpt lat="52.700956" lon="06.036984"><ele>-2.8</ele><time>2022-09-06T11:34:51Z</time><name>PT1845</name></trkpt>
<trkpt lat="52.700962" lon="06.037011"><ele>-2.7</ele><time>2022-09-06T11:34:51Z</time><name>PT1846</name></trkpt>
<trkpt lat="52.700968" lon="06.037039"><ele>-2.7</ele><time>2022-09-06T11:34:53Z</time><name>PT1847</name></trkpt>
<trkpt lat="52.700973" lon="06.037068"><ele>-2.5</ele><time>2022-09-06T11:34:54Z</time><name>PT1848</name></trkpt>
<trkpt lat="52.700977" lon="06.037096"><ele>-2.5</ele><time>2022-09-06T11:34:54Z</time><name>PT1849</name></trkpt>
<trkpt lat="52.700982" lon="06.037124"><ele>-2.5</ele><time>2022-09-06T11:34:56Z</time><name>PT1850</name></trkpt>
<trkpt lat="52.700985" lon="06.037152"><ele>-2.5</ele><time>2022-09-06T11:34:57Z</time><name>PT1851</name></trkpt>
<trkpt lat="52.700988" lon="06.037180"><ele>-2.7</ele><time>2022-09-06T11:34:57Z</time><name>PT1852</name></trkpt>
<trkpt lat="52.700990" lon="06.037209"><ele>-2.5</ele><time>2022-09-06T11:34:59Z</time><name>PT1853</name></trkpt>
<trkpt lat="52.700992" lon="06.037237"><ele>-2.5</ele><time>2022-09-06T11:35:00Z</time><name>PT1854</name></trkpt>
<trkpt lat="52.700994" lon="06.037265"><ele>-2.6</ele><time>2022-09-06T11:35:00Z</time><name>PT1855</name></trkpt>
<trkpt lat="52.700996" lon="06.037293"><ele>-2.5</ele><time>2022-09-06T11:35:02Z</time><name>PT1856</name></trkpt>
<trkpt lat="52.700997" lon="06.037320"><ele>-2.5</ele><time>2022-09-06T11:35:03Z</time><name>PT1857</name></trkpt>
<trkpt lat="52.700998" lon="06.037347"><ele>-2.4</ele><time>2022-09-06T11:35:03Z</time><name>PT1858</name></trkpt>
<trkpt lat="52.700998" lon="06.037376"><ele>-2.5</ele><time>2022-09-06T11:35:05Z</time><name>PT1859</name></trkpt>
<trkpt lat="52.700998" lon="06.037403"><ele>-2.2</ele><time>2022-09-06T11:35:06Z</time><name>PT1860</name></trkpt>
<trkpt lat="52.700998" lon="06.037431"><ele>-2.3</ele><time>2022-09-06T11:35:06Z</time><name>PT1861</name></trkpt>
<trkpt lat="52.700996" lon="06.037459"><ele>-2.4</ele><time>2022-09-06T11:35:08Z</time><name>PT1862</name></trkpt>
<trkpt lat="52.700995" lon="06.037487"><ele>-2.4</ele><time>2022-09-06T11:35:09Z</time><name>PT1863</name></trkpt>
<trkpt lat="52.700992" lon="06.037515"><ele>-2.5</ele><time>2022-09-06T11:35:09Z</time><name>PT1864</name></trkpt>
<trkpt lat="52.700990" lon="06.037543"><ele>-2.4</ele><time>2022-09-06T11:35:11Z</time><name>PT1865</name></trkpt>
<trkpt lat="52.700987" lon="06.037571"><ele>-2.4</ele><time>2022-09-06T11:35:12Z</time><name>PT1866</name></trkpt>
<trkpt lat="52.700984" lon="06.037598"><ele>-2.5</ele><time>2022-09-06T11:35:12Z</time><name>PT1867</name></trkpt>
<trkpt lat="52.700980" lon="06.037625"><ele>-2.5</ele><time>2022-09-06T11:35:14Z</time><name>PT1868</name></trkpt>
<trkpt lat="52.700976" lon="06.037652"><ele>-2.6</ele><time>2022-09-06T11:35:15Z</time><name>PT1869</name></trkpt>
<trkpt lat="52.700973" lon="06.037680"><ele>-2.6</ele><time>2022-09-06T11:35:15Z</time><name>PT1870</name></trkpt>
<trkpt lat="52.700969" lon="06.037708"><ele>-2.8</ele><time>2022-09-06T11:35:17Z</time><name>PT1871</name></trkpt>
<trkpt lat="52.700965" lon="06.037735"><ele>-2.7</ele><time>2022-09-06T11:35:18Z</time><name>PT1872</name></trkpt>
<trkpt lat="52.700962" lon="06.037763"><ele>-2.7</ele><time>2022-09-06T11:35:18Z</time><name>PT1873</name></trkpt>
<trkpt lat="52.700959" lon="06.037789"><ele>-2.6</ele><time>2022-09-06T11:35:20Z</time><name>PT1874</name></trkpt>
<trkpt lat="52.700954" lon="06.037813"><ele>-2.6</ele><time>2022-09-06T11:35:21Z</time><name>PT1875</name></trkpt>
<trkpt lat="52.700950" lon="06.037835"><ele>-2.5</ele><time>2022-09-06T11:35:21Z</time><name>PT1876</name></trkpt>
<trkpt lat="52.700948" lon="06.037862"><ele>-2.5</ele><time>2022-09-06T11:35:23Z</time><name>PT1877</name></trkpt>
<trkpt lat="52.700947" lon="06.037888"><ele>-2.4</ele><time>2022-09-06T11:35:24Z</time><name>PT1878</name></trkpt>
<trkpt lat="52.700945" lon="06.037907"><ele>-2.3</ele><time>2022-09-06T11:35:24Z</time><name>PT1879</name></trkpt>
<trkpt lat="52.700943" lon="06.037927"><ele>-2.3</ele><time>2022-09-06T11:35:26Z</time><name>PT1880</name></trkpt>
<trkpt lat="52.700942" lon="06.037955"><ele>-2.4</ele><time>2022-09-06T11:35:27Z</time><name>PT1881</name></trkpt>
<trkpt lat="52.700939" lon="06.037982"><ele>-2.5</ele><time>2022-09-06T11:35:27Z</time><name>PT1882</name></trkpt>
<trkpt lat="52.700935" lon="06.038007"><ele>-2.7</ele><time>2022-09-06T11:35:29Z</time><name>PT1883</name></trkpt>
<trkpt lat="52.700936" lon="06.038038"><ele>-2.8</ele><time>2022-09-06T11:35:30Z</time><name>PT1884</name></trkpt>
<trkpt lat="52.700936" lon="06.038065"><ele>-2.7</ele><time>2022-09-06T11:35:30Z</time><name>PT1885</name></trkpt>
<trkpt lat="52.700938" lon="06.038092"><ele>-2.5</ele><time>2022-09-06T11:35:32Z</time><name>PT1886</name></trkpt>
<trkpt lat="52.700939" lon="06.038122"><ele>-2.2</ele><time>2022-09-06T11:35:33Z</time><name>PT1887</name></trkpt>
<trkpt lat="52.700938" lon="06.038152"><ele>-2.1</ele><time>2022-09-06T11:35:33Z</time><name>PT1888</name></trkpt>
<trkpt lat="52.700939" lon="06.038183"><ele>-1.9</ele><time>2022-09-06T11:35:35Z</time><name>PT1889</name></trkpt>
<trkpt lat="52.700940" lon="06.038209"><ele>-1.8</ele><time>2022-09-06T11:35:36Z</time><name>PT1890</name></trkpt>
<trkpt lat="52.700941" lon="06.038232"><ele>-1.9</ele><time>2022-09-06T11:35:36Z</time><name>PT1891</name></trkpt>
<trkpt lat="52.700945" lon="06.038263"><ele>-1.9</ele><time>2022-09-06T11:35:38Z</time><name>PT1892</name></trkpt>
<trkpt lat="52.700950" lon="06.038291"><ele>-1.8</ele><time>2022-09-06T11:35:39Z</time><name>PT1893</name></trkpt>
<trkpt lat="52.700951" lon="06.038317"><ele>-1.9</ele><time>2022-09-06T11:35:39Z</time><name>PT1894</name></trkpt>
<trkpt lat="52.700953" lon="06.038344"><ele>-2</ele><time>2022-09-06T11:35:41Z</time><name>PT1895</name></trkpt>
<trkpt lat="52.700955" lon="06.038372"><ele>-2</ele><time>2022-09-06T11:35:42Z</time><name>PT1896</name></trkpt>
<trkpt lat="52.700956" lon="06.038400"><ele>-1.9</ele><time>2022-09-06T11:35:42Z</time><name>PT1897</name></trkpt>
<trkpt lat="52.700957" lon="06.038430"><ele>-1.9</ele><time>2022-09-06T11:35:44Z</time><name>PT1898</name></trkpt>
<trkpt lat="52.700958" lon="06.038457"><ele>-1.7</ele><time>2022-09-06T11:35:45Z</time><name>PT1899</name></trkpt>
<trkpt lat="52.700962" lon="06.038481"><ele>-1.8</ele><time>2022-09-06T11:35:45Z</time><name>PT1900</name></trkpt>
<trkpt lat="52.700965" lon="06.038503"><ele>-1.8</ele><time>2022-09-06T11:35:47Z</time><name>PT1901</name></trkpt>
<trkpt lat="52.700966" lon="06.038529"><ele>-1.8</ele><time>2022-09-06T11:35:48Z</time><name>PT1902</name></trkpt>
<trkpt lat="52.700968" lon="06.038557"><ele>-1.7</ele><time>2022-09-06T11:35:48Z</time><name>PT1903</name></trkpt>
<trkpt lat="52.700972" lon="06.038583"><ele>-1.9</ele><time>2022-09-06T11:35:50Z</time><name>PT1904</name></trkpt>
<trkpt lat="52.700975" lon="06.038608"><ele>-2</ele><time>2022-09-06T11:35:51Z</time><name>PT1905</name></trkpt>
<trkpt lat="52.700978" lon="06.038633"><ele>-2</ele><time>2022-09-06T11:35:51Z</time><name>PT1906</name></trkpt>
<trkpt lat="52.700983" lon="06.038658"><ele>-1.8</ele><time>2022-09-06T11:35:53Z</time><name>PT1907</name></trkpt>
<trkpt lat="52.700990" lon="06.038685"><ele>-1.9</ele><time>2022-09-06T11:35:54Z</time><name>PT1908</name></trkpt>
<trkpt lat="52.700998" lon="06.038710"><ele>-1.8</ele><time>2022-09-06T11:35:54Z</time><name>PT1909</name></trkpt>
<trkpt lat="52.701005" lon="06.038732"><ele>-1.8</ele><time>2022-09-06T11:35:56Z</time><name>PT1910</name></trkpt>
<trkpt lat="52.701008" lon="06.038755"><ele>-1.9</ele><time>2022-09-06T11:35:57Z</time><name>PT1911</name></trkpt>
<trkpt lat="52.701013" lon="06.038780"><ele>-1.8</ele><time>2022-09-06T11:35:57Z</time><name>PT1912</name></trkpt>
<trkpt lat="52.701018" lon="06.038804"><ele>-1.7</ele><time>2022-09-06T11:35:59Z</time><name>PT1913</name></trkpt>
<trkpt lat="52.701022" lon="06.038832"><ele>-1.6</ele><time>2022-09-06T11:36:00Z</time><name>PT1914</name></trkpt>
<trkpt lat="52.701027" lon="06.038855"><ele>-1.7</ele><time>2022-09-06T11:36:00Z</time><name>PT1915</name></trkpt>
<trkpt lat="52.701032" lon="06.038881"><ele>-1.8</ele><time>2022-09-06T11:36:02Z</time><name>PT1916</name></trkpt>
<trkpt lat="52.701037" lon="06.038908"><ele>-1.8</ele><time>2022-09-06T11:36:03Z</time><name>PT1917</name></trkpt>
<trkpt lat="52.701041" lon="06.038934"><ele>-1.8</ele><time>2022-09-06T11:36:03Z</time><name>PT1918</name></trkpt>
<trkpt lat="52.701046" lon="06.038962"><ele>-1.7</ele><time>2022-09-06T11:36:05Z</time><name>PT1919</name></trkpt>
<trkpt lat="52.701050" lon="06.038989"><ele>-1.7</ele><time>2022-09-06T11:36:06Z</time><name>PT1920</name></trkpt>
<trkpt lat="52.701055" lon="06.039016"><ele>-1.7</ele><time>2022-09-06T11:36:06Z</time><name>PT1921</name></trkpt>
<trkpt lat="52.701059" lon="06.039043"><ele>-1.6</ele><time>2022-09-06T11:36:08Z</time><name>PT1922</name></trkpt>
<trkpt lat="52.701063" lon="06.039070"><ele>-1.6</ele><time>2022-09-06T11:36:09Z</time><name>PT1923</name></trkpt>
<trkpt lat="52.701067" lon="06.039096"><ele>-1.6</ele><time>2022-09-06T11:36:09Z</time><name>PT1924</name></trkpt>
<trkpt lat="52.701071" lon="06.039123"><ele>-1.5</ele><time>2022-09-06T11:36:11Z</time><name>PT1925</name></trkpt>
<trkpt lat="52.701075" lon="06.039150"><ele>-1.4</ele><time>2022-09-06T11:36:12Z</time><name>PT1926</name></trkpt>
<trkpt lat="52.701078" lon="06.039176"><ele>-1.3</ele><time>2022-09-06T11:36:12Z</time><name>PT1927</name></trkpt>
<trkpt lat="52.701082" lon="06.039202"><ele>-1.1</ele><time>2022-09-06T11:36:14Z</time><name>PT1928</name></trkpt>
<trkpt lat="52.701086" lon="06.039230"><ele>-1.2</ele><time>2022-09-06T11:36:15Z</time><name>PT1929</name></trkpt>
<trkpt lat="52.701089" lon="06.039257"><ele>-1.2</ele><time>2022-09-06T11:36:15Z</time><name>PT1930</name></trkpt>
<trkpt lat="52.701092" lon="06.039283"><ele>-1.5</ele><time>2022-09-06T11:36:17Z</time><name>PT1931</name></trkpt>
<trkpt lat="52.701097" lon="06.039311"><ele>-1.6</ele><time>2022-09-06T11:36:18Z</time><name>PT1932</name></trkpt>
<trkpt lat="52.701100" lon="06.039338"><ele>-1.6</ele><time>2022-09-06T11:36:18Z</time><name>PT1933</name></trkpt>
<trkpt lat="52.701104" lon="06.039366"><ele>-1.6</ele><time>2022-09-06T11:36:20Z</time><name>PT1934</name></trkpt>
<trkpt lat="52.701108" lon="06.039393"><ele>-1.6</ele><time>2022-09-06T11:36:21Z</time><name>PT1935</name></trkpt>
<trkpt lat="52.701112" lon="06.039420"><ele>-1.6</ele><time>2022-09-06T11:36:21Z</time><name>PT1936</name></trkpt>
<trkpt lat="52.701115" lon="06.039446"><ele>-1.4</ele><time>2022-09-06T11:36:23Z</time><name>PT1937</name></trkpt>
<trkpt lat="52.701119" lon="06.039474"><ele>-1.4</ele><time>2022-09-06T11:36:24Z</time><name>PT1938</name></trkpt>
<trkpt lat="52.701122" lon="06.039501"><ele>-1.4</ele><time>2022-09-06T11:36:24Z</time><name>PT1939</name></trkpt>
<trkpt lat="52.701126" lon="06.039528"><ele>-1.2</ele><time>2022-09-06T11:36:26Z</time><name>PT1940</name></trkpt>
<trkpt lat="52.701128" lon="06.039553"><ele>-1.2</ele><time>2022-09-06T11:36:27Z</time><name>PT1941</name></trkpt>
<trkpt lat="52.701130" lon="06.039579"><ele>-1.2</ele><time>2022-09-06T11:36:27Z</time><name>PT1942</name></trkpt>
<trkpt lat="52.701133" lon="06.039606"><ele>-1.1</ele><time>2022-09-06T11:36:29Z</time><name>PT1943</name></trkpt>
<trkpt lat="52.701136" lon="06.039635"><ele>-1.1</ele><time>2022-09-06T11:36:30Z</time><name>PT1944</name></trkpt>
<trkpt lat="52.701139" lon="06.039663"><ele>-1.4</ele><time>2022-09-06T11:36:30Z</time><name>PT1945</name></trkpt>
<trkpt lat="52.701141" lon="06.039690"><ele>-1.5</ele><time>2022-09-06T11:36:32Z</time><name>PT1946</name></trkpt>
<trkpt lat="52.701144" lon="06.039717"><ele>-1.5</ele><time>2022-09-06T11:36:33Z</time><name>PT1947</name></trkpt>
<trkpt lat="52.701147" lon="06.039745"><ele>-1.6</ele><time>2022-09-06T11:36:33Z</time><name>PT1948</name></trkpt>
<trkpt lat="52.701150" lon="06.039773"><ele>-1.6</ele><time>2022-09-06T11:36:35Z</time><name>PT1949</name></trkpt>
<trkpt lat="52.701152" lon="06.039800"><ele>-1.8</ele><time>2022-09-06T11:36:36Z</time><name>PT1950</name></trkpt>
<trkpt lat="52.701155" lon="06.039827"><ele>-1.8</ele><time>2022-09-06T11:36:36Z</time><name>PT1951</name></trkpt>
<trkpt lat="52.701158" lon="06.039855"><ele>-1.7</ele><time>2022-09-06T11:36:38Z</time><name>PT1952</name></trkpt>
<trkpt lat="52.701162" lon="06.039882"><ele>-1.6</ele><time>2022-09-06T11:36:39Z</time><name>PT1953</name></trkpt>
<trkpt lat="52.701165" lon="06.039910"><ele>-1.7</ele><time>2022-09-06T11:36:39Z</time><name>PT1954</name></trkpt>
<trkpt lat="52.701168" lon="06.039938"><ele>-1.6</ele><time>2022-09-06T11:36:41Z</time><name>PT1955</name></trkpt>
<trkpt lat="52.701170" lon="06.039965"><ele>-1.7</ele><time>2022-09-06T11:36:42Z</time><name>PT1956</name></trkpt>
<trkpt lat="52.701172" lon="06.039992"><ele>-1.8</ele><time>2022-09-06T11:36:42Z</time><name>PT1957</name></trkpt>
<trkpt lat="52.701174" lon="06.040020"><ele>-1.8</ele><time>2022-09-06T11:36:44Z</time><name>PT1958</name></trkpt>
<trkpt lat="52.701176" lon="06.040048"><ele>-1.7</ele><time>2022-09-06T11:36:45Z</time><name>PT1959</name></trkpt>
<trkpt lat="52.701178" lon="06.040078"><ele>-1.7</ele><time>2022-09-06T11:36:45Z</time><name>PT1960</name></trkpt>
<trkpt lat="52.701180" lon="06.040106"><ele>-1.6</ele><time>2022-09-06T11:36:47Z</time><name>PT1961</name></trkpt>
<trkpt lat="52.701181" lon="06.040133"><ele>-1.7</ele><time>2022-09-06T11:36:48Z</time><name>PT1962</name></trkpt>
<trkpt lat="52.701183" lon="06.040160"><ele>-1.8</ele><time>2022-09-06T11:36:48Z</time><name>PT1963</name></trkpt>
<trkpt lat="52.701185" lon="06.040188"><ele>-2</ele><time>2022-09-06T11:36:50Z</time><name>PT1964</name></trkpt>
<trkpt lat="52.701186" lon="06.040216"><ele>-2</ele><time>2022-09-06T11:36:51Z</time><name>PT1965</name></trkpt>
<trkpt lat="52.701188" lon="06.040244"><ele>-1.9</ele><time>2022-09-06T11:36:51Z</time><name>PT1966</name></trkpt>
<trkpt lat="52.701190" lon="06.040272"><ele>-1.9</ele><time>2022-09-06T11:36:53Z</time><name>PT1967</name></trkpt>
<trkpt lat="52.701192" lon="06.040301"><ele>-1.5</ele><time>2022-09-06T11:36:54Z</time><name>PT1968</name></trkpt>
<trkpt lat="52.701194" lon="06.040329"><ele>-1.4</ele><time>2022-09-06T11:36:54Z</time><name>PT1969</name></trkpt>
<trkpt lat="52.701195" lon="06.040358"><ele>-1.4</ele><time>2022-09-06T11:36:56Z</time><name>PT1970</name></trkpt>
<trkpt lat="52.701196" lon="06.040387"><ele>-1.1</ele><time>2022-09-06T11:36:57Z</time><name>PT1971</name></trkpt>
<trkpt lat="52.701197" lon="06.040415"><ele>-1.2</ele><time>2022-09-06T11:36:57Z</time><name>PT1972</name></trkpt>
<trkpt lat="52.701198" lon="06.040443"><ele>-1.5</ele><time>2022-09-06T11:36:59Z</time><name>PT1973</name></trkpt>
<trkpt lat="52.701198" lon="06.040470"><ele>-1.6</ele><time>2022-09-06T11:37:00Z</time><name>PT1974</name></trkpt>
<trkpt lat="52.701197" lon="06.040496"><ele>-1.7</ele><time>2022-09-06T11:37:00Z</time><name>PT1975</name></trkpt>
<trkpt lat="52.701197" lon="06.040525"><ele>-1.8</ele><time>2022-09-06T11:37:02Z</time><name>PT1976</name></trkpt>
<trkpt lat="52.701197" lon="06.040554"><ele>-1.6</ele><time>2022-09-06T11:37:03Z</time><name>PT1977</name></trkpt>
<trkpt lat="52.701197" lon="06.040583"><ele>-1.5</ele><time>2022-09-06T11:37:03Z</time><name>PT1978</name></trkpt>
<trkpt lat="52.701197" lon="06.040613"><ele>-1.5</ele><time>2022-09-06T11:37:05Z</time><name>PT1979</name></trkpt>
<trkpt lat="52.701197" lon="06.040642"><ele>-1.2</ele><time>2022-09-06T11:37:06Z</time><name>PT1980</name></trkpt>
<trkpt lat="52.701197" lon="06.040671"><ele>-1.1</ele><time>2022-09-06T11:37:06Z</time><name>PT1981</name></trkpt>
<trkpt lat="52.701197" lon="06.040701"><ele>-1.2</ele><time>2022-09-06T11:37:08Z</time><name>PT1982</name></trkpt>
<trkpt lat="52.701196" lon="06.040729"><ele>-1.5</ele><time>2022-09-06T11:37:09Z</time><name>PT1983</name></trkpt>
<trkpt lat="52.701196" lon="06.040758"><ele>-1.5</ele><time>2022-09-06T11:37:09Z</time><name>PT1984</name></trkpt>
<trkpt lat="52.701197" lon="06.040786"><ele>-1.5</ele><time>2022-09-06T11:37:11Z</time><name>PT1985</name></trkpt>
<trkpt lat="52.701197" lon="06.040817"><ele>-1.5</ele><time>2022-09-06T11:37:12Z</time><name>PT1986</name></trkpt>
<trkpt lat="52.701197" lon="06.040850"><ele>-1.5</ele><time>2022-09-06T11:37:12Z</time><name>PT1987</name></trkpt>
<trkpt lat="52.701198" lon="06.040878"><ele>-1.5</ele><time>2022-09-06T11:37:14Z</time><name>PT1988</name></trkpt>
<trkpt lat="52.701200" lon="06.040904"><ele>-1.6</ele><time>2022-09-06T11:37:15Z</time><name>PT1989</name></trkpt>
<trkpt lat="52.701201" lon="06.040931"><ele>-1.8</ele><time>2022-09-06T11:37:15Z</time><name>PT1990</name></trkpt>
<trkpt lat="52.701201" lon="06.040956"><ele>-1.9</ele><time>2022-09-06T11:37:17Z</time><name>PT1991</name></trkpt>
<trkpt lat="52.701200" lon="06.040984"><ele>-2</ele><time>2022-09-06T11:37:18Z</time><name>PT1992</name></trkpt>
<trkpt lat="52.701199" lon="06.041012"><ele>-2</ele><time>2022-09-06T11:37:18Z</time><name>PT1993</name></trkpt>
<trkpt lat="52.701198" lon="06.041040"><ele>-2</ele><time>2022-09-06T11:37:20Z</time><name>PT1994</name></trkpt>
<trkpt lat="52.701195" lon="06.041069"><ele>-2</ele><time>2022-09-06T11:37:21Z</time><name>PT1995</name></trkpt>
<trkpt lat="52.701192" lon="06.041096"><ele>-2</ele><time>2022-09-06T11:37:21Z</time><name>PT1996</name></trkpt>
<trkpt lat="52.701190" lon="06.041124"><ele>-2</ele><time>2022-09-06T11:37:23Z</time><name>PT1997</name></trkpt>
<trkpt lat="52.701187" lon="06.041152"><ele>-2</ele><time>2022-09-06T11:37:24Z</time><name>PT1998</name></trkpt>
<trkpt lat="52.701185" lon="06.041179"><ele>-2</ele><time>2022-09-06T11:37:24Z</time><name>PT1999</name></trkpt>
<trkpt lat="52.701182" lon="06.041206"><ele>-2</ele><time>2022-09-06T11:37:26Z</time><name>PT2000</name></trkpt>
<trkpt lat="52.701179" lon="06.041234"><ele>-1.8</ele><time>2022-09-06T11:37:27Z</time><name>PT2001</name></trkpt>
<trkpt lat="52.701175" lon="06.041262"><ele>-1.8</ele><time>2022-09-06T11:37:27Z</time><name>PT2002</name></trkpt>
<trkpt lat="52.701171" lon="06.041289"><ele>-1.8</ele><time>2022-09-06T11:37:29Z</time><name>PT2003</name></trkpt>
<trkpt lat="52.701168" lon="06.041316"><ele>-1.7</ele><time>2022-09-06T11:37:30Z</time><name>PT2004</name></trkpt>
<trkpt lat="52.701164" lon="06.041344"><ele>-1.9</ele><time>2022-09-06T11:37:30Z</time><name>PT2005</name></trkpt>
<trkpt lat="52.701160" lon="06.041371"><ele>-2</ele><time>2022-09-06T11:37:32Z</time><name>PT2006</name></trkpt>
<trkpt lat="52.701155" lon="06.041398"><ele>-2</ele><time>2022-09-06T11:37:33Z</time><name>PT2007</name></trkpt>
<trkpt lat="52.701151" lon="06.041424"><ele>-2.2</ele><time>2022-09-06T11:37:33Z</time><name>PT2008</name></trkpt>
<trkpt lat="52.701146" lon="06.041451"><ele>-2.3</ele><time>2022-09-06T11:37:35Z</time><name>PT2009</name></trkpt>
<trkpt lat="52.701141" lon="06.041477"><ele>-2.2</ele><time>2022-09-06T11:37:36Z</time><name>PT2010</name></trkpt>
<trkpt lat="52.701136" lon="06.041505"><ele>-2.3</ele><time>2022-09-06T11:37:36Z</time><name>PT2011</name></trkpt>
<trkpt lat="52.701130" lon="06.041531"><ele>-2.3</ele><time>2022-09-06T11:37:38Z</time><name>PT2012</name></trkpt>
<trkpt lat="52.701125" lon="06.041558"><ele>-2.3</ele><time>2022-09-06T11:37:39Z</time><name>PT2013</name></trkpt>
<trkpt lat="52.701118" lon="06.041585"><ele>-2.1</ele><time>2022-09-06T11:37:39Z</time><name>PT2014</name></trkpt>
<trkpt lat="52.701113" lon="06.041615"><ele>-2</ele><time>2022-09-06T11:37:41Z</time><name>PT2015</name></trkpt>
<trkpt lat="52.701107" lon="06.041640"><ele>-2</ele><time>2022-09-06T11:37:42Z</time><name>PT2016</name></trkpt>
<trkpt lat="52.701101" lon="06.041666"><ele>-2</ele><time>2022-09-06T11:37:42Z</time><name>PT2017</name></trkpt>
<trkpt lat="52.701094" lon="06.041692"><ele>-2</ele><time>2022-09-06T11:37:44Z</time><name>PT2018</name></trkpt>
<trkpt lat="52.701088" lon="06.041719"><ele>-2</ele><time>2022-09-06T11:37:45Z</time><name>PT2019</name></trkpt>
<trkpt lat="52.701081" lon="06.041745"><ele>-2</ele><time>2022-09-06T11:37:45Z</time><name>PT2020</name></trkpt>
<trkpt lat="52.701074" lon="06.041770"><ele>-2.1</ele><time>2022-09-06T11:37:47Z</time><name>PT2021</name></trkpt>
<trkpt lat="52.701067" lon="06.041796"><ele>-2</ele><time>2022-09-06T11:37:48Z</time><name>PT2022</name></trkpt>
<trkpt lat="52.701060" lon="06.041821"><ele>-1.9</ele><time>2022-09-06T11:37:48Z</time><name>PT2023</name></trkpt>
<trkpt lat="52.701052" lon="06.041847"><ele>-1.9</ele><time>2022-09-06T11:37:50Z</time><name>PT2024</name></trkpt>
<trkpt lat="52.701044" lon="06.041871"><ele>-1.8</ele><time>2022-09-06T11:37:51Z</time><name>PT2025</name></trkpt>
<trkpt lat="52.701036" lon="06.041896"><ele>-1.9</ele><time>2022-09-06T11:37:51Z</time><name>PT2026</name></trkpt>
<trkpt lat="52.701027" lon="06.041919"><ele>-1.9</ele><time>2022-09-06T11:37:53Z</time><name>PT2027</name></trkpt>
<trkpt lat="52.701019" lon="06.041943"><ele>-1.7</ele><time>2022-09-06T11:37:54Z</time><name>PT2028</name></trkpt>
<trkpt lat="52.701010" lon="06.041966"><ele>-1.8</ele><time>2022-09-06T11:37:54Z</time><name>PT2029</name></trkpt>
<trkpt lat="52.701001" lon="06.041987"><ele>-1.9</ele><time>2022-09-06T11:37:56Z</time><name>PT2030</name></trkpt>
<trkpt lat="52.700993" lon="06.042010"><ele>-2</ele><time>2022-09-06T11:37:57Z</time><name>PT2031</name></trkpt>
<trkpt lat="52.700983" lon="06.042033"><ele>-2.2</ele><time>2022-09-06T11:37:57Z</time><name>PT2032</name></trkpt>
<trkpt lat="52.700974" lon="06.042056"><ele>-2.3</ele><time>2022-09-06T11:37:59Z</time><name>PT2033</name></trkpt>
<trkpt lat="52.700964" lon="06.042077"><ele>-2.2</ele><time>2022-09-06T11:38:00Z</time><name>PT2034</name></trkpt>
<trkpt lat="52.700954" lon="06.042099"><ele>-2.1</ele><time>2022-09-06T11:38:00Z</time><name>PT2035</name></trkpt>
<trkpt lat="52.700943" lon="06.042119"><ele>-2</ele><time>2022-09-06T11:38:02Z</time><name>PT2036</name></trkpt>
<trkpt lat="52.700933" lon="06.042139"><ele>-2</ele><time>2022-09-06T11:38:03Z</time><name>PT2037</name></trkpt>
<trkpt lat="52.700922" lon="06.042158"><ele>-2.1</ele><time>2022-09-06T11:38:03Z</time><name>PT2038</name></trkpt>
<trkpt lat="52.700911" lon="06.042177"><ele>-2.1</ele><time>2022-09-06T11:38:05Z</time><name>PT2039</name></trkpt>
<trkpt lat="52.700899" lon="06.042197"><ele>-2.2</ele><time>2022-09-06T11:38:06Z</time><name>PT2040</name></trkpt>
<trkpt lat="52.700888" lon="06.042217"><ele>-2</ele><time>2022-09-06T11:38:06Z</time><name>PT2041</name></trkpt>
<trkpt lat="52.700877" lon="06.042237"><ele>-2.1</ele><time>2022-09-06T11:38:08Z</time><name>PT2042</name></trkpt>
<trkpt lat="52.700865" lon="06.042257"><ele>-2.1</ele><time>2022-09-06T11:38:09Z</time><name>PT2043</name></trkpt>
<trkpt lat="52.700854" lon="06.042277"><ele>-2.2</ele><time>2022-09-06T11:38:09Z</time><name>PT2044</name></trkpt>
<trkpt lat="52.700844" lon="06.042300"><ele>-2.4</ele><time>2022-09-06T11:38:11Z</time><name>PT2045</name></trkpt>
<trkpt lat="52.700831" lon="06.042330"><ele>-2.5</ele><time>2022-09-06T11:38:12Z</time><name>PT2046</name></trkpt>
<trkpt lat="52.700818" lon="06.042352"><ele>-2.5</ele><time>2022-09-06T11:38:12Z</time><name>PT2047</name></trkpt>
<trkpt lat="52.700806" lon="06.042371"><ele>-2.4</ele><time>2022-09-06T11:38:14Z</time><name>PT2048</name></trkpt>
<trkpt lat="52.700794" lon="06.042387"><ele>-2.2</ele><time>2022-09-06T11:38:15Z</time><name>PT2049</name></trkpt>
<trkpt lat="52.700782" lon="06.042403"><ele>-2.2</ele><time>2022-09-06T11:38:15Z</time><name>PT2050</name></trkpt>
<trkpt lat="52.700770" lon="06.042422"><ele>-2.4</ele><time>2022-09-06T11:38:17Z</time><name>PT2051</name></trkpt>
<trkpt lat="52.700758" lon="06.042439"><ele>-2.5</ele><time>2022-09-06T11:38:18Z</time><name>PT2052</name></trkpt>
<trkpt lat="52.700747" lon="06.042457"><ele>-2.5</ele><time>2022-09-06T11:38:18Z</time><name>PT2053</name></trkpt>
<trkpt lat="52.700736" lon="06.042475"><ele>-2.5</ele><time>2022-09-06T11:38:20Z</time><name>PT2054</name></trkpt>
<trkpt lat="52.700725" lon="06.042492"><ele>-2.4</ele><time>2022-09-06T11:38:21Z</time><name>PT2055</name></trkpt>
<trkpt lat="52.700714" lon="06.042510"><ele>-2.3</ele><time>2022-09-06T11:38:21Z</time><name>PT2056</name></trkpt>
<trkpt lat="52.700703" lon="06.042528"><ele>-2.1</ele><time>2022-09-06T11:38:23Z</time><name>PT2057</name></trkpt>
<trkpt lat="52.700691" lon="06.042546"><ele>-2</ele><time>2022-09-06T11:38:24Z</time><name>PT2058</name></trkpt>
<trkpt lat="52.700680" lon="06.042563"><ele>-2</ele><time>2022-09-06T11:38:24Z</time><name>PT2059</name></trkpt>
<trkpt lat="52.700669" lon="06.042581"><ele>-2</ele><time>2022-09-06T11:38:26Z</time><name>PT2060</name></trkpt>
<trkpt lat="52.700658" lon="06.042599"><ele>-1.8</ele><time>2022-09-06T11:38:27Z</time><name>PT2061</name></trkpt>
<trkpt lat="52.700647" lon="06.042617"><ele>-2</ele><time>2022-09-06T11:38:27Z</time><name>PT2062</name></trkpt>
<trkpt lat="52.700635" lon="06.042635"><ele>-2</ele><time>2022-09-06T11:38:29Z</time><name>PT2063</name></trkpt>
<trkpt lat="52.700623" lon="06.042655"><ele>-2.1</ele><time>2022-09-06T11:38:30Z</time><name>PT2064</name></trkpt>
<trkpt lat="52.700611" lon="06.042675"><ele>-2.2</ele><time>2022-09-06T11:38:30Z</time><name>PT2065</name></trkpt>
<trkpt lat="52.700600" lon="06.042693"><ele>-2.3</ele><time>2022-09-06T11:38:32Z</time><name>PT2066</name></trkpt>
<trkpt lat="52.700588" lon="06.042712"><ele>-2.1</ele><time>2022-09-06T11:38:33Z</time><name>PT2067</name></trkpt>
<trkpt lat="52.700577" lon="06.042731"><ele>-2.2</ele><time>2022-09-06T11:38:33Z</time><name>PT2068</name></trkpt>
<trkpt lat="52.700566" lon="06.042750"><ele>-2.2</ele><time>2022-09-06T11:38:35Z</time><name>PT2069</name></trkpt>
<trkpt lat="52.700554" lon="06.042769"><ele>-2.1</ele><time>2022-09-06T11:38:36Z</time><name>PT2070</name></trkpt>
<trkpt lat="52.700543" lon="06.042788"><ele>-2.1</ele><time>2022-09-06T11:38:36Z</time><name>PT2071</name></trkpt>
<trkpt lat="52.700531" lon="06.042806"><ele>-2</ele><time>2022-09-06T11:38:38Z</time><name>PT2072</name></trkpt>
<trkpt lat="52.700519" lon="06.042825"><ele>-2</ele><time>2022-09-06T11:38:39Z</time><name>PT2073</name></trkpt>
<trkpt lat="52.700508" lon="06.042843"><ele>-1.9</ele><time>2022-09-06T11:38:39Z</time><name>PT2074</name></trkpt>
<trkpt lat="52.700499" lon="06.042861"><ele>-2.1</ele><time>2022-09-06T11:38:41Z</time><name>PT2075</name></trkpt>
<trkpt lat="52.700481" lon="06.042883"><ele>-2.3</ele><time>2022-09-06T11:38:42Z</time><name>PT2076</name></trkpt>
<trkpt lat="52.700469" lon="06.042903"><ele>-2.1</ele><time>2022-09-06T11:38:42Z</time><name>PT2077</name></trkpt>
<trkpt lat="52.700457" lon="06.042922"><ele>-2.1</ele><time>2022-09-06T11:38:44Z</time><name>PT2078</name></trkpt>
<trkpt lat="52.700447" lon="06.042940"><ele>-2</ele><time>2022-09-06T11:38:45Z</time><name>PT2079</name></trkpt>
<trkpt lat="52.700438" lon="06.042959"><ele>-2</ele><time>2022-09-06T11:38:45Z</time><name>PT2080</name></trkpt>
<trkpt lat="52.700424" lon="06.042979"><ele>-2</ele><time>2022-09-06T11:38:47Z</time><name>PT2081</name></trkpt>
<trkpt lat="52.700414" lon="06.042999"><ele>-2</ele><time>2022-09-06T11:38:48Z</time><name>PT2082</name></trkpt>
<trkpt lat="52.700405" lon="06.043018"><ele>-2.1</ele><time>2022-09-06T11:38:48Z</time><name>PT2083</name></trkpt>
<trkpt lat="52.700394" lon="06.043036"><ele>-2.1</ele><time>2022-09-06T11:38:50Z</time><name>PT2084</name></trkpt>
<trkpt lat="52.700383" lon="06.043055"><ele>-2.2</ele><time>2022-09-06T11:38:51Z</time><name>PT2085</name></trkpt>
<trkpt lat="52.700372" lon="06.043074"><ele>-2.2</ele><time>2022-09-06T11:38:51Z</time><name>PT2086</name></trkpt>
<trkpt lat="52.700362" lon="06.043093"><ele>-2.2</ele><time>2022-09-06T11:38:53Z</time><name>PT2087</name></trkpt>
<trkpt lat="52.700351" lon="06.043112"><ele>-2</ele><time>2022-09-06T11:38:54Z</time><name>PT2088</name></trkpt>
<trkpt lat="52.700340" lon="06.043132"><ele>-2</ele><time>2022-09-06T11:38:54Z</time><name>PT2089</name></trkpt>
<trkpt lat="52.700329" lon="06.043151"><ele>-2</ele><time>2022-09-06T11:38:56Z</time><name>PT2090</name></trkpt>
<trkpt lat="52.700319" lon="06.043171"><ele>-1.9</ele><time>2022-09-06T11:38:57Z</time><name>PT2091</name></trkpt>
<trkpt lat="52.700307" lon="06.043190"><ele>-1.9</ele><time>2022-09-06T11:38:57Z</time><name>PT2092</name></trkpt>
<trkpt lat="52.700296" lon="06.043209"><ele>-1.8</ele><time>2022-09-06T11:38:59Z</time><name>PT2093</name></trkpt>
<trkpt lat="52.700285" lon="06.043229"><ele>-2</ele><time>2022-09-06T11:39:00Z</time><name>PT2094</name></trkpt>
<trkpt lat="52.700274" lon="06.043249"><ele>-1.9</ele><time>2022-09-06T11:39:00Z</time><name>PT2095</name></trkpt>
<trkpt lat="52.700263" lon="06.043268"><ele>-2</ele><time>2022-09-06T11:39:02Z</time><name>PT2096</name></trkpt>
<trkpt lat="52.700250" lon="06.043291"><ele>-2.1</ele><time>2022-09-06T11:39:03Z</time><name>PT2097</name></trkpt>
<trkpt lat="52.700239" lon="06.043313"><ele>-2.2</ele><time>2022-09-06T11:39:03Z</time><name>PT2098</name></trkpt>
<trkpt lat="52.700227" lon="06.043332"><ele>-2.2</ele><time>2022-09-06T11:39:05Z</time><name>PT2099</name></trkpt>
<trkpt lat="52.700216" lon="06.043351"><ele>-2.5</ele><time>2022-09-06T11:39:06Z</time><name>PT2100</name></trkpt>
<trkpt lat="52.700204" lon="06.043370"><ele>-2.4</ele><time>2022-09-06T11:39:06Z</time><name>PT2101</name></trkpt>
<trkpt lat="52.700193" lon="06.043388"><ele>-2.2</ele><time>2022-09-06T11:39:08Z</time><name>PT2102</name></trkpt>
<trkpt lat="52.700181" lon="06.043408"><ele>-2</ele><time>2022-09-06T11:39:09Z</time><name>PT2103</name></trkpt>
<trkpt lat="52.700170" lon="06.043425"><ele>-2</ele><time>2022-09-06T11:39:09Z</time><name>PT2104</name></trkpt>
<trkpt lat="52.700158" lon="06.043444"><ele>-1.9</ele><time>2022-09-06T11:39:11Z</time><name>PT2105</name></trkpt>
<trkpt lat="52.700147" lon="06.043463"><ele>-1.9</ele><time>2022-09-06T11:39:12Z</time><name>PT2106</name></trkpt>
<trkpt lat="52.700135" lon="06.043484"><ele>-1.9</ele><time>2022-09-06T11:39:12Z</time><name>PT2107</name></trkpt>
<trkpt lat="52.700123" lon="06.043504"><ele>-1.9</ele><time>2022-09-06T11:39:14Z</time><name>PT2108</name></trkpt>
<trkpt lat="52.700112" lon="06.043523"><ele>-1.9</ele><time>2022-09-06T11:39:15Z</time><name>PT2109</name></trkpt>
<trkpt lat="52.700101" lon="06.043543"><ele>-1.9</ele><time>2022-09-06T11:39:15Z</time><name>PT2110</name></trkpt>
<trkpt lat="52.700090" lon="06.043563"><ele>-1.9</ele><time>2022-09-06T11:39:17Z</time><name>PT2111</name></trkpt>
<trkpt lat="52.700078" lon="06.043582"><ele>-2</ele><time>2022-09-06T11:39:18Z</time><name>PT2112</name></trkpt>
<trkpt lat="52.700068" lon="06.043601"><ele>-2</ele><time>2022-09-06T11:39:18Z</time><name>PT2113</name></trkpt>
<trkpt lat="52.700057" lon="06.043620"><ele>-2.2</ele><time>2022-09-06T11:39:20Z</time><name>PT2114</name></trkpt>
<trkpt lat="52.700046" lon="06.043639"><ele>-2.3</ele><time>2022-09-06T11:39:21Z</time><name>PT2115</name></trkpt>
<trkpt lat="52.700036" lon="06.043654"><ele>-2.4</ele><time>2022-09-06T11:39:21Z</time><name>PT2116</name></trkpt>
<trkpt lat="52.700026" lon="06.043675"><ele>-2.3</ele><time>2022-09-06T11:39:23Z</time><name>PT2117</name></trkpt>
<trkpt lat="52.700016" lon="06.043696"><ele>-2.1</ele><time>2022-09-06T11:39:24Z</time><name>PT2118</name></trkpt>
<trkpt lat="52.700006" lon="06.043717"><ele>-2.1</ele><time>2022-09-06T11:39:24Z</time><name>PT2119</name></trkpt>
<trkpt lat="52.699996" lon="06.043737"><ele>-2.2</ele><time>2022-09-06T11:39:26Z</time><name>PT2120</name></trkpt>
<trkpt lat="52.699985" lon="06.043757"><ele>-2.4</ele><time>2022-09-06T11:39:27Z</time><name>PT2121</name></trkpt>
<trkpt lat="52.699975" lon="06.043775"><ele>-2.5</ele><time>2022-09-06T11:39:27Z</time><name>PT2122</name></trkpt>
<trkpt lat="52.699964" lon="06.043797"><ele>-2.4</ele><time>2022-09-06T11:39:29Z</time><name>PT2123</name></trkpt>
<trkpt lat="52.699953" lon="06.043818"><ele>-2.1</ele><time>2022-09-06T11:39:30Z</time><name>PT2124</name></trkpt>
<trkpt lat="52.699942" lon="06.043839"><ele>-2.1</ele><time>2022-09-06T11:39:30Z</time><name>PT2125</name></trkpt>
<trkpt lat="52.699931" lon="06.043859"><ele>-2</ele><time>2022-09-06T11:39:32Z</time><name>PT2126</name></trkpt>
<trkpt lat="52.699920" lon="06.043880"><ele>-2.1</ele><time>2022-09-06T11:39:33Z</time><name>PT2127</name></trkpt>
<trkpt lat="52.699909" lon="06.043902"><ele>-2.3</ele><time>2022-09-06T11:39:33Z</time><name>PT2128</name></trkpt>
<trkpt lat="52.699899" lon="06.043922"><ele>-2.5</ele><time>2022-09-06T11:39:35Z</time><name>PT2129</name></trkpt>
<trkpt lat="52.699885" lon="06.043944"><ele>-2.6</ele><time>2022-09-06T11:39:36Z</time><name>PT2130</name></trkpt>
<trkpt lat="52.699876" lon="06.043966"><ele>-2.6</ele><time>2022-09-06T11:39:36Z</time><name>PT2131</name></trkpt>
<trkpt lat="52.699865" lon="06.043986"><ele>-2.5</ele><time>2022-09-06T11:39:38Z</time><name>PT2132</name></trkpt>
<trkpt lat="52.699856" lon="06.044006"><ele>-2.1</ele><time>2022-09-06T11:39:39Z</time><name>PT2133</name></trkpt>
<trkpt lat="52.699843" lon="06.044026"><ele>-2</ele><time>2022-09-06T11:39:39Z</time><name>PT2134</name></trkpt>
<trkpt lat="52.699832" lon="06.044046"><ele>-2</ele><time>2022-09-06T11:39:41Z</time><name>PT2135</name></trkpt>
<trkpt lat="52.699820" lon="06.044066"><ele>-2</ele><time>2022-09-06T11:39:42Z</time><name>PT2136</name></trkpt>
<trkpt lat="52.699809" lon="06.044085"><ele>-2</ele><time>2022-09-06T11:39:42Z</time><name>PT2137</name></trkpt>
<trkpt lat="52.699797" lon="06.044104"><ele>-2.2</ele><time>2022-09-06T11:39:44Z</time><name>PT2138</name></trkpt>
<trkpt lat="52.699786" lon="06.044123"><ele>-1.9</ele><time>2022-09-06T11:39:45Z</time><name>PT2139</name></trkpt>
<trkpt lat="52.699775" lon="06.044142"><ele>-2.1</ele><time>2022-09-06T11:39:45Z</time><name>PT2140</name></trkpt>
<trkpt lat="52.699765" lon="06.044162"><ele>-2</ele><time>2022-09-06T11:39:47Z</time><name>PT2141</name></trkpt>
<trkpt lat="52.699754" lon="06.044185"><ele>-2</ele><time>2022-09-06T11:39:48Z</time><name>PT2142</name></trkpt>
<trkpt lat="52.699744" lon="06.044205"><ele>-1.9</ele><time>2022-09-06T11:39:48Z</time><name>PT2143</name></trkpt>
<trkpt lat="52.699734" lon="06.044225"><ele>-1.9</ele><time>2022-09-06T11:39:50Z</time><name>PT2144</name></trkpt>
<trkpt lat="52.699726" lon="06.044246"><ele>-2</ele><time>2022-09-06T11:39:51Z</time><name>PT2145</name></trkpt>
<trkpt lat="52.699718" lon="06.044268"><ele>-2</ele><time>2022-09-06T11:39:51Z</time><name>PT2146</name></trkpt>
<trkpt lat="52.699710" lon="06.044289"><ele>-2</ele><time>2022-09-06T11:39:53Z</time><name>PT2147</name></trkpt>
<trkpt lat="52.699702" lon="06.044311"><ele>-2.2</ele><time>2022-09-06T11:39:54Z</time><name>PT2148</name></trkpt>
<trkpt lat="52.699694" lon="06.044332"><ele>-2.2</ele><time>2022-09-06T11:39:54Z</time><name>PT2149</name></trkpt>
<trkpt lat="52.699686" lon="06.044353"><ele>-2.2</ele><time>2022-09-06T11:39:56Z</time><name>PT2150</name></trkpt>
<trkpt lat="52.699679" lon="06.044374"><ele>-2.2</ele><time>2022-09-06T11:39:57Z</time><name>PT2151</name></trkpt>
<trkpt lat="52.699672" lon="06.044396"><ele>-2</ele><time>2022-09-06T11:39:57Z</time><name>PT2152</name></trkpt>
<trkpt lat="52.699667" lon="06.044415"><ele>-2</ele><time>2022-09-06T11:39:59Z</time><name>PT2153</name></trkpt>
<trkpt lat="52.699661" lon="06.044436"><ele>-2</ele><time>2022-09-06T11:40:00Z</time><name>PT2154</name></trkpt>
<trkpt lat="52.699654" lon="06.044458"><ele>-1.9</ele><time>2022-09-06T11:40:00Z</time><name>PT2155</name></trkpt>
<trkpt lat="52.699648" lon="06.044481"><ele>-1.8</ele><time>2022-09-06T11:40:02Z</time><name>PT2156</name></trkpt>
<trkpt lat="52.699642" lon="06.044504"><ele>-1.7</ele><time>2022-09-06T11:40:03Z</time><name>PT2157</name></trkpt>
<trkpt lat="52.699636" lon="06.044528"><ele>-1.7</ele><time>2022-09-06T11:40:03Z</time><name>PT2158</name></trkpt>
<trkpt lat="52.699630" lon="06.044551"><ele>-1.9</ele><time>2022-09-06T11:40:05Z</time><name>PT2159</name></trkpt>
<trkpt lat="52.699625" lon="06.044576"><ele>-1.8</ele><time>2022-09-06T11:40:06Z</time><name>PT2160</name></trkpt>
<trkpt lat="52.699619" lon="06.044600"><ele>-1.7</ele><time>2022-09-06T11:40:06Z</time><name>PT2161</name></trkpt>
<trkpt lat="52.699615" lon="06.044623"><ele>-1.8</ele><time>2022-09-06T11:40:08Z</time><name>PT2162</name></trkpt>
<trkpt lat="52.699611" lon="06.044647"><ele>-1.8</ele><time>2022-09-06T11:40:09Z</time><name>PT2163</name></trkpt>
<trkpt lat="52.699607" lon="06.044672"><ele>-1.6</ele><time>2022-09-06T11:40:09Z</time><name>PT2164</name></trkpt>
<trkpt lat="52.699603" lon="06.044698"><ele>-1.9</ele><time>2022-09-06T11:40:11Z</time><name>PT2165</name></trkpt>
<trkpt lat="52.699599" lon="06.044723"><ele>-1.7</ele><time>2022-09-06T11:40:12Z</time><name>PT2166</name></trkpt>
<trkpt lat="52.699596" lon="06.044748"><ele>-1.9</ele><time>2022-09-06T11:40:12Z</time><name>PT2167</name></trkpt>
<trkpt lat="52.699594" lon="06.044775"><ele>-2</ele><time>2022-09-06T11:40:14Z</time><name>PT2168</name></trkpt>
<trkpt lat="52.699591" lon="06.044801"><ele>-2</ele><time>2022-09-06T11:40:15Z</time><name>PT2169</name></trkpt>
<trkpt lat="52.699589" lon="06.044827"><ele>-2</ele><time>2022-09-06T11:40:15Z</time><name>PT2170</name></trkpt>
<trkpt lat="52.699586" lon="06.044851"><ele>-1.7</ele><time>2022-09-06T11:40:17Z</time><name>PT2171</name></trkpt>
<trkpt lat="52.699584" lon="06.044877"><ele>-1.5</ele><time>2022-09-06T11:40:18Z</time><name>PT2172</name></trkpt>
<trkpt lat="52.699583" lon="06.044902"><ele>-1.6</ele><time>2022-09-06T11:40:18Z</time><name>PT2173</name></trkpt>
<trkpt lat="52.699582" lon="06.044929"><ele>-1.6</ele><time>2022-09-06T11:40:20Z</time><name>PT2174</name></trkpt>
<trkpt lat="52.699582" lon="06.044955"><ele>-1.7</ele><time>2022-09-06T11:40:21Z</time><name>PT2175</name></trkpt>
<trkpt lat="52.699582" lon="06.044980"><ele>-1.7</ele><time>2022-09-06T11:40:21Z</time><name>PT2176</name></trkpt>
<trkpt lat="52.699582" lon="06.045005"><ele>-1.5</ele><time>2022-09-06T11:40:23Z</time><name>PT2177</name></trkpt>
<trkpt lat="52.699583" lon="06.045031"><ele>-1.5</ele><time>2022-09-06T11:40:24Z</time><name>PT2178</name></trkpt>
<trkpt lat="52.699584" lon="06.045056"><ele>-1.5</ele><time>2022-09-06T11:40:24Z</time><name>PT2179</name></trkpt>
<trkpt lat="52.699585" lon="06.045082"><ele>-1.6</ele><time>2022-09-06T11:40:26Z</time><name>PT2180</name></trkpt>
<trkpt lat="52.699587" lon="06.045107"><ele>-1.9</ele><time>2022-09-06T11:40:27Z</time><name>PT2181</name></trkpt>
<trkpt lat="52.699589" lon="06.045133"><ele>-1.9</ele><time>2022-09-06T11:40:27Z</time><name>PT2182</name></trkpt>
<trkpt lat="52.699591" lon="06.045157"><ele>-1.9</ele><time>2022-09-06T11:40:29Z</time><name>PT2183</name></trkpt>
<trkpt lat="52.699594" lon="06.045184"><ele>-2</ele><time>2022-09-06T11:40:30Z</time><name>PT2184</name></trkpt>
<trkpt lat="52.699597" lon="06.045207"><ele>-2</ele><time>2022-09-06T11:40:30Z</time><name>PT2185</name></trkpt>
<trkpt lat="52.699601" lon="06.045229"><ele>-2</ele><time>2022-09-06T11:40:32Z</time><name>PT2186</name></trkpt>
<trkpt lat="52.699604" lon="06.045252"><ele>-2</ele><time>2022-09-06T11:40:33Z</time><name>PT2187</name></trkpt>
<trkpt lat="52.699609" lon="06.045277"><ele>-2</ele><time>2022-09-06T11:40:33Z</time><name>PT2188</name></trkpt>
<trkpt lat="52.699614" lon="06.045302"><ele>-2</ele><time>2022-09-06T11:40:35Z</time><name>PT2189</name></trkpt>
<trkpt lat="52.699619" lon="06.045326"><ele>-2</ele><time>2022-09-06T11:40:36Z</time><name>PT2190</name></trkpt>
<trkpt lat="52.699624" lon="06.045348"><ele>-2</ele><time>2022-09-06T11:40:36Z</time><name>PT2191</name></trkpt>
<trkpt lat="52.699630" lon="06.045370"><ele>-2</ele><time>2022-09-06T11:40:38Z</time><name>PT2192</name></trkpt>
<trkpt lat="52.699634" lon="06.045393"><ele>-2.1</ele><time>2022-09-06T11:40:39Z</time><name>PT2193</name></trkpt>
<trkpt lat="52.699641" lon="06.045416"><ele>-2.3</ele><time>2022-09-06T11:40:39Z</time><name>PT2194</name></trkpt>
<trkpt lat="52.699648" lon="06.045439"><ele>-2.2</ele><time>2022-09-06T11:40:41Z</time><name>PT2195</name></trkpt>
<trkpt lat="52.699654" lon="06.045463"><ele>-2.1</ele><time>2022-09-06T11:40:42Z</time><name>PT2196</name></trkpt>
<trkpt lat="52.699661" lon="06.045486"><ele>-2</ele><time>2022-09-06T11:40:42Z</time><name>PT2197</name></trkpt>
<trkpt lat="52.699669" lon="06.045509"><ele>-2.1</ele><time>2022-09-06T11:40:44Z</time><name>PT2198</name></trkpt>
<trkpt lat="52.699677" lon="06.045532"><ele>-2.1</ele><time>2022-09-06T11:40:45Z</time><name>PT2199</name></trkpt>
<trkpt lat="52.699686" lon="06.045557"><ele>-2.1</ele><time>2022-09-06T11:40:45Z</time><name>PT2200</name></trkpt>
<trkpt lat="52.699694" lon="06.045582"><ele>-2.3</ele><time>2022-09-06T11:40:47Z</time><name>PT2201</name></trkpt>
<trkpt lat="52.699703" lon="06.045605"><ele>-2.1</ele><time>2022-09-06T11:40:48Z</time><name>PT2202</name></trkpt>
<trkpt lat="52.699712" lon="06.045628"><ele>-2.1</ele><time>2022-09-06T11:40:48Z</time><name>PT2203</name></trkpt>
<trkpt lat="52.699720" lon="06.045647"><ele>-2.1</ele><time>2022-09-06T11:40:50Z</time><name>PT2204</name></trkpt>
<trkpt lat="52.699728" lon="06.045667"><ele>-2</ele><time>2022-09-06T11:40:51Z</time><name>PT2205</name></trkpt>
<trkpt lat="52.699738" lon="06.045687"><ele>-2.1</ele><time>2022-09-06T11:40:51Z</time><name>PT2206</name></trkpt>
<trkpt lat="52.699748" lon="06.045709"><ele>-2.2</ele><time>2022-09-06T11:40:53Z</time><name>PT2207</name></trkpt>
<trkpt lat="52.699759" lon="06.045730"><ele>-2.4</ele><time>2022-09-06T11:40:54Z</time><name>PT2208</name></trkpt>
<trkpt lat="52.699770" lon="06.045751"><ele>-2.5</ele><time>2022-09-06T11:40:54Z</time><name>PT2209</name></trkpt>
<trkpt lat="52.699781" lon="06.045771"><ele>-2.3</ele><time>2022-09-06T11:40:56Z</time><name>PT2210</name></trkpt>
<trkpt lat="52.699790" lon="06.045790"><ele>-2.3</ele><time>2022-09-06T11:40:57Z</time><name>PT2211</name></trkpt>
<trkpt lat="52.699799" lon="06.045806"><ele>-2.3</ele><time>2022-09-06T11:40:57Z</time><name>PT2212</name></trkpt>
<trkpt lat="52.699808" lon="06.045822"><ele>-2.3</ele><time>2022-09-06T11:40:59Z</time><name>PT2213</name></trkpt>
<trkpt lat="52.699818" lon="06.045837"><ele>-2.3</ele><time>2022-09-06T11:41:00Z</time><name>PT2214</name></trkpt>
<trkpt lat="52.699827" lon="06.045851"><ele>-2.3</ele><time>2022-09-06T11:41:00Z</time><name>PT2215</name></trkpt>
<trkpt lat="52.699835" lon="06.045863"><ele>-2.3</ele><time>2022-09-06T11:41:02Z</time><name>PT2216</name></trkpt>
<trkpt lat="52.699843" lon="06.045875"><ele>-2.4</ele><time>2022-09-06T11:41:03Z</time><name>PT2217</name></trkpt>
<trkpt lat="52.699854" lon="06.045889"><ele>-2.5</ele><time>2022-09-06T11:41:03Z</time><name>PT2218</name></trkpt>
<trkpt lat="52.699864" lon="06.045902"><ele>-2.5</ele><time>2022-09-06T11:41:05Z</time><name>PT2219</name></trkpt>
<trkpt lat="52.699875" lon="06.045916"><ele>-2.5</ele><time>2022-09-06T11:41:06Z</time><name>PT2220</name></trkpt>
<trkpt lat="52.699886" lon="06.045930"><ele>-2.5</ele><time>2022-09-06T11:41:06Z</time><name>PT2221</name></trkpt>
<trkpt lat="52.699898" lon="06.045945"><ele>-2.5</ele><time>2022-09-06T11:41:08Z</time><name>PT2222</name></trkpt>
<trkpt lat="52.699908" lon="06.045959"><ele>-2.5</ele><time>2022-09-06T11:41:09Z</time><name>PT2223</name></trkpt>
<trkpt lat="52.699919" lon="06.045974"><ele>-2.6</ele><time>2022-09-06T11:41:09Z</time><name>PT2224</name></trkpt>
<trkpt lat="52.699929" lon="06.045989"><ele>-2.6</ele><time>2022-09-06T11:41:11Z</time><name>PT2225</name></trkpt>
<trkpt lat="52.699941" lon="06.046005"><ele>-2.7</ele><time>2022-09-06T11:41:12Z</time><name>PT2226</name></trkpt>
<trkpt lat="52.699952" lon="06.046021"><ele>-2.5</ele><time>2022-09-06T11:41:12Z</time><name>PT2227</name></trkpt>
<trkpt lat="52.699963" lon="06.046039"><ele>-2.6</ele><time>2022-09-06T11:41:14Z</time><name>PT2228</name></trkpt>
<trkpt lat="52.699976" lon="06.046056"><ele>-2.6</ele><time>2022-09-06T11:41:15Z</time><name>PT2229</name></trkpt>
<trkpt lat="52.699987" lon="06.046074"><ele>-2.5</ele><time>2022-09-06T11:41:15Z</time><name>PT2230</name></trkpt>
<trkpt lat="52.699998" lon="06.046093"><ele>-2.6</ele><time>2022-09-06T11:41:17Z</time><name>PT2231</name></trkpt>
<trkpt lat="52.700008" lon="06.046111"><ele>-2.5</ele><time>2022-09-06T11:41:18Z</time><name>PT2232</name></trkpt>
<trkpt lat="52.700019" lon="06.046129"><ele>-2.5</ele><time>2022-09-06T11:41:18Z</time><name>PT2233</name></trkpt>
<trkpt lat="52.700029" lon="06.046147"><ele>-2.5</ele><time>2022-09-06T11:41:20Z</time><name>PT2234</name></trkpt>
<trkpt lat="52.700039" lon="06.046166"><ele>-2.6</ele><time>2022-09-06T11:41:21Z</time><name>PT2235</name></trkpt>
<trkpt lat="52.700048" lon="06.046186"><ele>-2.5</ele><time>2022-09-06T11:41:21Z</time><name>PT2236</name></trkpt>
<trkpt lat="52.700056" lon="06.046207"><ele>-2.5</ele><time>2022-09-06T11:41:23Z</time><name>PT2237</name></trkpt>
<trkpt lat="52.700065" lon="06.046228"><ele>-2.5</ele><time>2022-09-06T11:41:24Z</time><name>PT2238</name></trkpt>
<trkpt lat="52.700074" lon="06.046252"><ele>-2.2</ele><time>2022-09-06T11:41:24Z</time><name>PT2239</name></trkpt>
<trkpt lat="52.700083" lon="06.046275"><ele>-2.2</ele><time>2022-09-06T11:41:26Z</time><name>PT2240</name></trkpt>
<trkpt lat="52.700091" lon="06.046299"><ele>-2.2</ele><time>2022-09-06T11:41:27Z</time><name>PT2241</name></trkpt>
<trkpt lat="52.700099" lon="06.046323"><ele>-2.2</ele><time>2022-09-06T11:41:27Z</time><name>PT2242</name></trkpt>
<trkpt lat="52.700107" lon="06.046347"><ele>-2.4</ele><time>2022-09-06T11:41:29Z</time><name>PT2243</name></trkpt>
<trkpt lat="52.700115" lon="06.046372"><ele>-2.5</ele><time>2022-09-06T11:41:30Z</time><name>PT2244</name></trkpt>
<trkpt lat="52.700124" lon="06.046396"><ele>-2.7</ele><time>2022-09-06T11:41:30Z</time><name>PT2245</name></trkpt>
<trkpt lat="52.700132" lon="06.046420"><ele>-2.7</ele><time>2022-09-06T11:41:32Z</time><name>PT2246</name></trkpt>
<trkpt lat="52.700140" lon="06.046444"><ele>-2.7</ele><time>2022-09-06T11:41:33Z</time><name>PT2247</name></trkpt>
<trkpt lat="52.700150" lon="06.046469"><ele>-2.6</ele><time>2022-09-06T11:41:33Z</time><name>PT2248</name></trkpt>
<trkpt lat="52.700158" lon="06.046494"><ele>-2.5</ele><time>2022-09-06T11:41:35Z</time><name>PT2249</name></trkpt>
<trkpt lat="52.700166" lon="06.046519"><ele>-2.1</ele><time>2022-09-06T11:41:36Z</time><name>PT2250</name></trkpt>
<trkpt lat="52.700174" lon="06.046544"><ele>-2.3</ele><time>2022-09-06T11:41:36Z</time><name>PT2251</name></trkpt>
<trkpt lat="52.700181" lon="06.046569"><ele>-2.2</ele><time>2022-09-06T11:41:38Z</time><name>PT2252</name></trkpt>
<trkpt lat="52.700189" lon="06.046594"><ele>-2.4</ele><time>2022-09-06T11:41:39Z</time><name>PT2253</name></trkpt>
<trkpt lat="52.700196" lon="06.046620"><ele>-2.5</ele><time>2022-09-06T11:41:39Z</time><name>PT2254</name></trkpt>
<trkpt lat="52.700204" lon="06.046645"><ele>-2.7</ele><time>2022-09-06T11:41:41Z</time><name>PT2255</name></trkpt>
<trkpt lat="52.700211" lon="06.046672"><ele>-2.6</ele><time>2022-09-06T11:41:42Z</time><name>PT2256</name></trkpt>
<trkpt lat="52.700219" lon="06.046697"><ele>-2.7</ele><time>2022-09-06T11:41:42Z</time><name>PT2257</name></trkpt>
<trkpt lat="52.700226" lon="06.046721"><ele>-2.7</ele><time>2022-09-06T11:41:44Z</time><name>PT2258</name></trkpt>
<trkpt lat="52.700234" lon="06.046747"><ele>-2.7</ele><time>2022-09-06T11:41:45Z</time><name>PT2259</name></trkpt>
<trkpt lat="52.700241" lon="06.046773"><ele>-2.7</ele><time>2022-09-06T11:41:45Z</time><name>PT2260</name></trkpt>
<trkpt lat="52.700248" lon="06.046799"><ele>-2.6</ele><time>2022-09-06T11:41:47Z</time><name>PT2261</name></trkpt>
<trkpt lat="52.700256" lon="06.046824"><ele>-2.7</ele><time>2022-09-06T11:41:48Z</time><name>PT2262</name></trkpt>
<trkpt lat="52.700263" lon="06.046850"><ele>-2.6</ele><time>2022-09-06T11:41:48Z</time><name>PT2263</name></trkpt>
<trkpt lat="52.700270" lon="06.046876"><ele>-2.6</ele><time>2022-09-06T11:41:50Z</time><name>PT2264</name></trkpt>
<trkpt lat="52.700277" lon="06.046902"><ele>-2.5</ele><time>2022-09-06T11:41:51Z</time><name>PT2265</name></trkpt>
<trkpt lat="52.700284" lon="06.046928"><ele>-2.5</ele><time>2022-09-06T11:41:51Z</time><name>PT2266</name></trkpt>
<trkpt lat="52.700291" lon="06.046954"><ele>-2.5</ele><time>2022-09-06T11:41:53Z</time><name>PT2267</name></trkpt>
<trkpt lat="52.700298" lon="06.046980"><ele>-2.5</ele><time>2022-09-06T11:41:54Z</time><name>PT2268</name></trkpt>
<trkpt lat="52.700304" lon="06.047006"><ele>-2.6</ele><time>2022-09-06T11:41:54Z</time><name>PT2269</name></trkpt>
<trkpt lat="52.700310" lon="06.047032"><ele>-2.8</ele><time>2022-09-06T11:41:56Z</time><name>PT2270</name></trkpt>
<trkpt lat="52.700317" lon="06.047058"><ele>-2.9</ele><time>2022-09-06T11:41:57Z</time><name>PT2271</name></trkpt>
<trkpt lat="52.700323" lon="06.047085"><ele>-2.9</ele><time>2022-09-06T11:41:57Z</time><name>PT2272</name></trkpt>
<trkpt lat="52.700329" lon="06.047111"><ele>-2.7</ele><time>2022-09-06T11:41:59Z</time><name>PT2273</name></trkpt>
<trkpt lat="52.700335" lon="06.047138"><ele>-2.6</ele><time>2022-09-06T11:42:00Z</time><name>PT2274</name></trkpt>
<trkpt lat="52.700341" lon="06.047164"><ele>-2.5</ele><time>2022-09-06T11:42:00Z</time><name>PT2275</name></trkpt>
<trkpt lat="52.700348" lon="06.047191"><ele>-2.5</ele><time>2022-09-06T11:42:02Z</time><name>PT2276</name></trkpt>
<trkpt lat="52.700355" lon="06.047217"><ele>-2.5</ele><time>2022-09-06T11:42:03Z</time><name>PT2277</name></trkpt>
<trkpt lat="52.700361" lon="06.047244"><ele>-2.5</ele><time>2022-09-06T11:42:03Z</time><name>PT2278</name></trkpt>
<trkpt lat="52.700367" lon="06.047271"><ele>-2.5</ele><time>2022-09-06T11:42:05Z</time><name>PT2279</name></trkpt>
<trkpt lat="52.700373" lon="06.047298"><ele>-2.5</ele><time>2022-09-06T11:42:06Z</time><name>PT2280</name></trkpt>
<trkpt lat="52.700379" lon="06.047326"><ele>-2.7</ele><time>2022-09-06T11:42:06Z</time><name>PT2281</name></trkpt>
<trkpt lat="52.700384" lon="06.047354"><ele>-2.6</ele><time>2022-09-06T11:42:08Z</time><name>PT2282</name></trkpt>
<trkpt lat="52.700393" lon="06.047384"><ele>-2.5</ele><time>2022-09-06T11:42:09Z</time><name>PT2283</name></trkpt>
<trkpt lat="52.700400" lon="06.047413"><ele>-2.6</ele><time>2022-09-06T11:42:09Z</time><name>PT2284</name></trkpt>
<trkpt lat="52.700407" lon="06.047440"><ele>-2.4</ele><time>2022-09-06T11:42:11Z</time><name>PT2285</name></trkpt>
<trkpt lat="52.700415" lon="06.047467"><ele>-2.2</ele><time>2022-09-06T11:42:12Z</time><name>PT2286</name></trkpt>
<trkpt lat="52.700422" lon="06.047494"><ele>-2.2</ele><time>2022-09-06T11:42:12Z</time><name>PT2287</name></trkpt>
<trkpt lat="52.700429" lon="06.047517"><ele>-2.1</ele><time>2022-09-06T11:42:14Z</time><name>PT2288</name></trkpt>
<trkpt lat="52.700433" lon="06.047541"><ele>-2.2</ele><time>2022-09-06T11:42:15Z</time><name>PT2289</name></trkpt>
<trkpt lat="52.700439" lon="06.047566"><ele>-2.2</ele><time>2022-09-06T11:42:15Z</time><name>PT2290</name></trkpt>
<trkpt lat="52.700446" lon="06.047591"><ele>-2</ele><time>2022-09-06T11:42:17Z</time><name>PT2291</name></trkpt>
<trkpt lat="52.700452" lon="06.047617"><ele>-2</ele><time>2022-09-06T11:42:18Z</time><name>PT2292</name></trkpt>
<trkpt lat="52.700459" lon="06.047643"><ele>-2</ele><time>2022-09-06T11:42:18Z</time><name>PT2293</name></trkpt>
<trkpt lat="52.700465" lon="06.047669"><ele>-2.1</ele><time>2022-09-06T11:42:20Z</time><name>PT2294</name></trkpt>
<trkpt lat="52.700471" lon="06.047696"><ele>-2.3</ele><time>2022-09-06T11:42:21Z</time><name>PT2295</name></trkpt>
<trkpt lat="52.700477" lon="06.047722"><ele>-2.2</ele><time>2022-09-06T11:42:21Z</time><name>PT2296</name></trkpt>
<trkpt lat="52.700483" lon="06.047747"><ele>-2.1</ele><time>2022-09-06T11:42:23Z</time><name>PT2297</name></trkpt>
<trkpt lat="52.700490" lon="06.047773"><ele>-2.2</ele><time>2022-09-06T11:42:24Z</time><name>PT2298</name></trkpt>
<trkpt lat="52.700497" lon="06.047798"><ele>-2.1</ele><time>2022-09-06T11:42:24Z</time><name>PT2299</name></trkpt>
<trkpt lat="52.700503" lon="06.047823"><ele>-2.2</ele><time>2022-09-06T11:42:26Z</time><name>PT2300</name></trkpt>
<trkpt lat="52.700510" lon="06.047848"><ele>-2.1</ele><time>2022-09-06T11:42:27Z</time><name>PT2301</name></trkpt>
<trkpt lat="52.700517" lon="06.047873"><ele>-2</ele><time>2022-09-06T11:42:27Z</time><name>PT2302</name></trkpt>
<trkpt lat="52.700524" lon="06.047898"><ele>-2.1</ele><time>2022-09-06T11:42:29Z</time><name>PT2303</name></trkpt>
<trkpt lat="52.700531" lon="06.047925"><ele>-2</ele><time>2022-09-06T11:42:30Z</time><name>PT2304</name></trkpt>
<trkpt lat="52.700538" lon="06.047954"><ele>-2</ele><time>2022-09-06T11:42:30Z</time><name>PT2305</name></trkpt>
<trkpt lat="52.700546" lon="06.047980"><ele>-2</ele><time>2022-09-06T11:42:32Z</time><name>PT2306</name></trkpt>
<trkpt lat="52.700553" lon="06.048006"><ele>-1.9</ele><time>2022-09-06T11:42:33Z</time><name>PT2307</name></trkpt>
<trkpt lat="52.700561" lon="06.048032"><ele>-1.9</ele><time>2022-09-06T11:42:33Z</time><name>PT2308</name></trkpt>
<trkpt lat="52.700568" lon="06.048058"><ele>-2</ele><time>2022-09-06T11:42:35Z</time><name>PT2309</name></trkpt>
<trkpt lat="52.700575" lon="06.048084"><ele>-2.3</ele><time>2022-09-06T11:42:36Z</time><name>PT2310</name></trkpt>
<trkpt lat="52.700582" lon="06.048111"><ele>-2.5</ele><time>2022-09-06T11:42:36Z</time><name>PT2311</name></trkpt>
<trkpt lat="52.700589" lon="06.048139"><ele>-2.3</ele><time>2022-09-06T11:42:38Z</time><name>PT2312</name></trkpt>
<trkpt lat="52.700596" lon="06.048165"><ele>-2.4</ele><time>2022-09-06T11:42:39Z</time><name>PT2313</name></trkpt>
<trkpt lat="52.700603" lon="06.048191"><ele>-2.1</ele><time>2022-09-06T11:42:39Z</time><name>PT2314</name></trkpt>
<trkpt lat="52.700610" lon="06.048217"><ele>-2</ele><time>2022-09-06T11:42:41Z</time><name>PT2315</name></trkpt>
<trkpt lat="52.700618" lon="06.048243"><ele>-2.1</ele><time>2022-09-06T11:42:42Z</time><name>PT2316</name></trkpt>
<trkpt lat="52.700625" lon="06.048269"><ele>-2</ele><time>2022-09-06T11:42:42Z</time><name>PT2317</name></trkpt>
<trkpt lat="52.700631" lon="06.048296"><ele>-2.2</ele><time>2022-09-06T11:42:44Z</time><name>PT2318</name></trkpt>
<trkpt lat="52.700639" lon="06.048322"><ele>-2.3</ele><time>2022-09-06T11:42:45Z</time><name>PT2319</name></trkpt>
<trkpt lat="52.700645" lon="06.048347"><ele>-2.1</ele><time>2022-09-06T11:42:45Z</time><name>PT2320</name></trkpt>
<trkpt lat="52.700652" lon="06.048372"><ele>-2</ele><time>2022-09-06T11:42:47Z</time><name>PT2321</name></trkpt>
<trkpt lat="52.700660" lon="06.048398"><ele>-2</ele><time>2022-09-06T11:42:48Z</time><name>PT2322</name></trkpt>
<trkpt lat="52.700667" lon="06.048423"><ele>-2</ele><time>2022-09-06T11:42:48Z</time><name>PT2323</name></trkpt>
<trkpt lat="52.700674" lon="06.048448"><ele>-2.1</ele><time>2022-09-06T11:42:50Z</time><name>PT2324</name></trkpt>
<trkpt lat="52.700681" lon="06.048473"><ele>-2.2</ele><time>2022-09-06T11:42:51Z</time><name>PT2325</name></trkpt>
<trkpt lat="52.700689" lon="06.048495"><ele>-2.1</ele><time>2022-09-06T11:42:51Z</time><name>PT2326</name></trkpt>
<trkpt lat="52.700698" lon="06.048517"><ele>-2.2</ele><time>2022-09-06T11:42:53Z</time><name>PT2327</name></trkpt>
<trkpt lat="52.700706" lon="06.048540"><ele>-2.3</ele><time>2022-09-06T11:42:54Z</time><name>PT2328</name></trkpt>
<trkpt lat="52.700714" lon="06.048562"><ele>-2.3</ele><time>2022-09-06T11:42:54Z</time><name>PT2329</name></trkpt>
<trkpt lat="52.700721" lon="06.048585"><ele>-2.3</ele><time>2022-09-06T11:42:56Z</time><name>PT2330</name></trkpt>
<trkpt lat="52.700728" lon="06.048609"><ele>-2.3</ele><time>2022-09-06T11:42:57Z</time><name>PT2331</name></trkpt>
<trkpt lat="52.700736" lon="06.048633"><ele>-2.3</ele><time>2022-09-06T11:42:57Z</time><name>PT2332</name></trkpt>
<trkpt lat="52.700742" lon="06.048657"><ele>-2.2</ele><time>2022-09-06T11:42:59Z</time><name>PT2333</name></trkpt>
<trkpt lat="52.700750" lon="06.048680"><ele>-2.2</ele><time>2022-09-06T11:43:00Z</time><name>PT2334</name></trkpt>
<trkpt lat="52.700757" lon="06.048705"><ele>-2.2</ele><time>2022-09-06T11:43:00Z</time><name>PT2335</name></trkpt>
<trkpt lat="52.700765" lon="06.048728"><ele>-2.1</ele><time>2022-09-06T11:43:02Z</time><name>PT2336</name></trkpt>
<trkpt lat="52.700772" lon="06.048753"><ele>-2</ele><time>2022-09-06T11:43:03Z</time><name>PT2337</name></trkpt>
<trkpt lat="52.700778" lon="06.048779"><ele>-2</ele><time>2022-09-06T11:43:03Z</time><name>PT2338</name></trkpt>
<trkpt lat="52.700785" lon="06.048805"><ele>-1.9</ele><time>2022-09-06T11:43:05Z</time><name>PT2339</name></trkpt>
<trkpt lat="52.700792" lon="06.048829"><ele>-2</ele><time>2022-09-06T11:43:06Z</time><name>PT2340</name></trkpt>
<trkpt lat="52.700799" lon="06.048853"><ele>-2</ele><time>2022-09-06T11:43:06Z</time><name>PT2341</name></trkpt>
<trkpt lat="52.700807" lon="06.048875"><ele>-2</ele><time>2022-09-06T11:43:08Z</time><name>PT2342</name></trkpt>
<trkpt lat="52.700814" lon="06.048898"><ele>-2</ele><time>2022-09-06T11:43:09Z</time><name>PT2343</name></trkpt>
<trkpt lat="52.700821" lon="06.048922"><ele>-2</ele><time>2022-09-06T11:43:09Z</time><name>PT2344</name></trkpt>
<trkpt lat="52.700829" lon="06.048946"><ele>-2</ele><time>2022-09-06T11:43:11Z</time><name>PT2345</name></trkpt>
<trkpt lat="52.700836" lon="06.048969"><ele>-2</ele><time>2022-09-06T11:43:12Z</time><name>PT2346</name></trkpt>
<trkpt lat="52.700842" lon="06.048992"><ele>-2</ele><time>2022-09-06T11:43:12Z</time><name>PT2347</name></trkpt>
<trkpt lat="52.700849" lon="06.049015"><ele>-2</ele><time>2022-09-06T11:43:14Z</time><name>PT2348</name></trkpt>
<trkpt lat="52.700856" lon="06.049038"><ele>-2</ele><time>2022-09-06T11:43:15Z</time><name>PT2349</name></trkpt>
<trkpt lat="52.700862" lon="06.049061"><ele>-2.1</ele><time>2022-09-06T11:43:15Z</time><name>PT2350</name></trkpt>
<trkpt lat="52.700870" lon="06.049085"><ele>-2.1</ele><time>2022-09-06T11:43:17Z</time><name>PT2351</name></trkpt>
<trkpt lat="52.700876" lon="06.049109"><ele>-2</ele><time>2022-09-06T11:43:18Z</time><name>PT2352</name></trkpt>
<trkpt lat="52.700883" lon="06.049132"><ele>-1.9</ele><time>2022-09-06T11:43:18Z</time><name>PT2353</name></trkpt>
<trkpt lat="52.700890" lon="06.049156"><ele>-1.8</ele><time>2022-09-06T11:43:20Z</time><name>PT2354</name></trkpt>
<trkpt lat="52.700896" lon="06.049179"><ele>-1.6</ele><time>2022-09-06T11:43:21Z</time><name>PT2355</name></trkpt>
<trkpt lat="52.700903" lon="06.049204"><ele>-1.6</ele><time>2022-09-06T11:43:21Z</time><name>PT2356</name></trkpt>
<trkpt lat="52.700911" lon="06.049228"><ele>-1.5</ele><time>2022-09-06T11:43:23Z</time><name>PT2357</name></trkpt>
<trkpt lat="52.700918" lon="06.049251"><ele>-1.6</ele><time>2022-09-06T11:43:24Z</time><name>PT2358</name></trkpt>
<trkpt lat="52.700928" lon="06.049280"><ele>-1.7</ele><time>2022-09-06T11:43:24Z</time><name>PT2359</name></trkpt>
<trkpt lat="52.700935" lon="06.049308"><ele>-1.7</ele><time>2022-09-06T11:43:26Z</time><name>PT2360</name></trkpt>
<trkpt lat="52.700942" lon="06.049332"><ele>-2</ele><time>2022-09-06T11:43:27Z</time><name>PT2361</name></trkpt>
<trkpt lat="52.700948" lon="06.049358"><ele>-2</ele><time>2022-09-06T11:43:27Z</time><name>PT2362</name></trkpt>
<trkpt lat="52.700954" lon="06.049383"><ele>-2</ele><time>2022-09-06T11:43:29Z</time><name>PT2363</name></trkpt>
<trkpt lat="52.700961" lon="06.049407"><ele>-2.2</ele><time>2022-09-06T11:43:30Z</time><name>PT2364</name></trkpt>
<trkpt lat="52.700969" lon="06.049432"><ele>-2.2</ele><time>2022-09-06T11:43:30Z</time><name>PT2365</name></trkpt>
<trkpt lat="52.700977" lon="06.049456"><ele>-2.1</ele><time>2022-09-06T11:43:32Z</time><name>PT2366</name></trkpt>
<trkpt lat="52.700984" lon="06.049480"><ele>-2.2</ele><time>2022-09-06T11:43:33Z</time><name>PT2367</name></trkpt>
<trkpt lat="52.700991" lon="06.049503"><ele>-2.2</ele><time>2022-09-06T11:43:33Z</time><name>PT2368</name></trkpt>
<trkpt lat="52.700998" lon="06.049526"><ele>-2</ele><time>2022-09-06T11:43:35Z</time><name>PT2369</name></trkpt>
<trkpt lat="52.701005" lon="06.049549"><ele>-2</ele><time>2022-09-06T11:43:36Z</time><name>PT2370</name></trkpt>
<trkpt lat="52.701012" lon="06.049573"><ele>-2</ele><time>2022-09-06T11:43:36Z</time><name>PT2371</name></trkpt>
<trkpt lat="52.701020" lon="06.049596"><ele>-2.1</ele><time>2022-09-06T11:43:38Z</time><name>PT2372</name></trkpt>
<trkpt lat="52.701028" lon="06.049619"><ele>-2.3</ele><time>2022-09-06T11:43:39Z</time><name>PT2373</name></trkpt>
<trkpt lat="52.701035" lon="06.049642"><ele>-2.3</ele><time>2022-09-06T11:43:39Z</time><name>PT2374</name></trkpt>
<trkpt lat="52.701043" lon="06.049665"><ele>-2.3</ele><time>2022-09-06T11:43:41Z</time><name>PT2375</name></trkpt>
<trkpt lat="52.701049" lon="06.049689"><ele>-2.3</ele><time>2022-09-06T11:43:42Z</time><name>PT2376</name></trkpt>
<trkpt lat="52.701056" lon="06.049713"><ele>-2</ele><time>2022-09-06T11:43:43Z</time><name>PT2377</name></trkpt>
<trkpt lat="52.701065" lon="06.049741"><ele>-2</ele><time>2022-09-06T11:43:44Z</time><name>PT2378</name></trkpt>
<trkpt lat="52.701074" lon="06.049766"><ele>-2</ele><time>2022-09-06T11:43:45Z</time><name>PT2379</name></trkpt>
<trkpt lat="52.701083" lon="06.049791"><ele>-2</ele><time>2022-09-06T11:43:45Z</time><name>PT2380</name></trkpt>
<trkpt lat="52.701090" lon="06.049815"><ele>-2</ele><time>2022-09-06T11:43:47Z</time><name>PT2381</name></trkpt>
<trkpt lat="52.701098" lon="06.049840"><ele>-2.2</ele><time>2022-09-06T11:43:48Z</time><name>PT2382</name></trkpt>
<trkpt lat="52.701105" lon="06.049865"><ele>-2</ele><time>2022-09-06T11:43:48Z</time><name>PT2383</name></trkpt>
<trkpt lat="52.701113" lon="06.049890"><ele>-2.1</ele><time>2022-09-06T11:43:50Z</time><name>PT2384</name></trkpt>
<trkpt lat="52.701121" lon="06.049915"><ele>-2.1</ele><time>2022-09-06T11:43:51Z</time><name>PT2385</name></trkpt>
<trkpt lat="52.701128" lon="06.049940"><ele>-2</ele><time>2022-09-06T11:43:51Z</time><name>PT2386</name></trkpt>
<trkpt lat="52.701136" lon="06.049965"><ele>-1.9</ele><time>2022-09-06T11:43:53Z</time><name>PT2387</name></trkpt>
<trkpt lat="52.701143" lon="06.049991"><ele>-1.7</ele><time>2022-09-06T11:43:54Z</time><name>PT2388</name></trkpt>
<trkpt lat="52.701151" lon="06.050016"><ele>-1.5</ele><time>2022-09-06T11:43:54Z</time><name>PT2389</name></trkpt>
<trkpt lat="52.701158" lon="06.050040"><ele>-1.5</ele><time>2022-09-06T11:43:56Z</time><name>PT2390</name></trkpt>
<trkpt lat="52.701166" lon="06.050065"><ele>-1.5</ele><time>2022-09-06T11:43:57Z</time><name>PT2391</name></trkpt>
<trkpt lat="52.701174" lon="06.050090"><ele>-1.6</ele><time>2022-09-06T11:43:57Z</time><name>PT2392</name></trkpt>
<trkpt lat="52.701181" lon="06.050115"><ele>-1.9</ele><time>2022-09-06T11:43:59Z</time><name>PT2393</name></trkpt>
<trkpt lat="52.701190" lon="06.050134"><ele>-2</ele><time>2022-09-06T11:44:00Z</time><name>PT2394</name></trkpt>
<trkpt lat="52.701199" lon="06.050156"><ele>-2.3</ele><time>2022-09-06T11:44:00Z</time><name>PT2395</name></trkpt>
<trkpt lat="52.701203" lon="06.050181"><ele>-2.4</ele><time>2022-09-06T11:44:02Z</time><name>PT2396</name></trkpt>
<trkpt lat="52.701210" lon="06.050205"><ele>-2.4</ele><time>2022-09-06T11:44:03Z</time><name>PT2397</name></trkpt>
<trkpt lat="52.701215" lon="06.050230"><ele>-2.2</ele><time>2022-09-06T11:44:03Z</time><name>PT2398</name></trkpt>
<trkpt lat="52.701222" lon="06.050254"><ele>-2.2</ele><time>2022-09-06T11:44:05Z</time><name>PT2399</name></trkpt>
<trkpt lat="52.701229" lon="06.050279"><ele>-2</ele><time>2022-09-06T11:44:06Z</time><name>PT2400</name></trkpt>
<trkpt lat="52.701236" lon="06.050304"><ele>-2</ele><time>2022-09-06T11:44:06Z</time><name>PT2401</name></trkpt>
<trkpt lat="52.701243" lon="06.050330"><ele>-2</ele><time>2022-09-06T11:44:08Z</time><name>PT2402</name></trkpt>
<trkpt lat="52.701250" lon="06.050355"><ele>-2.1</ele><time>2022-09-06T11:44:09Z</time><name>PT2403</name></trkpt>
<trkpt lat="52.701258" lon="06.050380"><ele>-2.3</ele><time>2022-09-06T11:44:09Z</time><name>PT2404</name></trkpt>
<trkpt lat="52.701265" lon="06.050405"><ele>-2.3</ele><time>2022-09-06T11:44:11Z</time><name>PT2405</name></trkpt>
<trkpt lat="52.701272" lon="06.050429"><ele>-2.4</ele><time>2022-09-06T11:44:12Z</time><name>PT2406</name></trkpt>
<trkpt lat="52.701279" lon="06.050454"><ele>-2.3</ele><time>2022-09-06T11:44:12Z</time><name>PT2407</name></trkpt>
<trkpt lat="52.701286" lon="06.050478"><ele>-2.2</ele><time>2022-09-06T11:44:14Z</time><name>PT2408</name></trkpt>
<trkpt lat="52.701293" lon="06.050503"><ele>-2.1</ele><time>2022-09-06T11:44:15Z</time><name>PT2409</name></trkpt>
<trkpt lat="52.701299" lon="06.050527"><ele>-2</ele><time>2022-09-06T11:44:15Z</time><name>PT2410</name></trkpt>
<trkpt lat="52.701306" lon="06.050552"><ele>-2</ele><time>2022-09-06T11:44:17Z</time><name>PT2411</name></trkpt>
<trkpt lat="52.701313" lon="06.050577"><ele>-2</ele><time>2022-09-06T11:44:18Z</time><name>PT2412</name></trkpt>
<trkpt lat="52.701319" lon="06.050602"><ele>-2</ele><time>2022-09-06T11:44:18Z</time><name>PT2413</name></trkpt>
<trkpt lat="52.701325" lon="06.050627"><ele>-2</ele><time>2022-09-06T11:44:20Z</time><name>PT2414</name></trkpt>
<trkpt lat="52.701335" lon="06.050654"><ele>-1.9</ele><time>2022-09-06T11:44:21Z</time><name>PT2415</name></trkpt>
<trkpt lat="52.701342" lon="06.050680"><ele>-2</ele><time>2022-09-06T11:44:21Z</time><name>PT2416</name></trkpt>
<trkpt lat="52.701349" lon="06.050712"><ele>-2</ele><time>2022-09-06T11:44:23Z</time><name>PT2417</name></trkpt>
<trkpt lat="52.701357" lon="06.050742"><ele>-1.9</ele><time>2022-09-06T11:44:24Z</time><name>PT2418</name></trkpt>
<trkpt lat="52.701364" lon="06.050769"><ele>-1.8</ele><time>2022-09-06T11:44:24Z</time><name>PT2419</name></trkpt>
<trkpt lat="52.701370" lon="06.050799"><ele>-1.9</ele><time>2022-09-06T11:44:26Z</time><name>PT2420</name></trkpt>
<trkpt lat="52.701376" lon="06.050830"><ele>-1.9</ele><time>2022-09-06T11:44:27Z</time><name>PT2421</name></trkpt>
<trkpt lat="52.701381" lon="06.050857"><ele>-1.8</ele><time>2022-09-06T11:44:27Z</time><name>PT2422</name></trkpt>
<trkpt lat="52.701387" lon="06.050883"><ele>-1.9</ele><time>2022-09-06T11:44:29Z</time><name>PT2423</name></trkpt>
<trkpt lat="52.701393" lon="06.050907"><ele>-2.2</ele><time>2022-09-06T11:44:30Z</time><name>PT2424</name></trkpt>
<trkpt lat="52.701398" lon="06.050932"><ele>-2.3</ele><time>2022-09-06T11:44:30Z</time><name>PT2425</name></trkpt>
<trkpt lat="52.701400" lon="06.050959"><ele>-2.4</ele><time>2022-09-06T11:44:32Z</time><name>PT2426</name></trkpt>
<trkpt lat="52.701404" lon="06.050988"><ele>-2.7</ele><time>2022-09-06T11:44:33Z</time><name>PT2427</name></trkpt>
<trkpt lat="52.701410" lon="06.051017"><ele>-2.6</ele><time>2022-09-06T11:44:33Z</time><name>PT2428</name></trkpt>
<trkpt lat="52.701416" lon="06.051044"><ele>-2.6</ele><time>2022-09-06T11:44:35Z</time><name>PT2429</name></trkpt>
<trkpt lat="52.701421" lon="06.051072"><ele>-2.5</ele><time>2022-09-06T11:44:36Z</time><name>PT2430</name></trkpt>
<trkpt lat="52.701426" lon="06.051099"><ele>-2.6</ele><time>2022-09-06T11:44:36Z</time><name>PT2431</name></trkpt>
<trkpt lat="52.701432" lon="06.051127"><ele>-2.9</ele><time>2022-09-06T11:44:38Z</time><name>PT2432</name></trkpt>
<trkpt lat="52.701437" lon="06.051154"><ele>-3.2</ele><time>2022-09-06T11:44:39Z</time><name>PT2433</name></trkpt>
<trkpt lat="52.701442" lon="06.051185"><ele>-3.3</ele><time>2022-09-06T11:44:39Z</time><name>PT2434</name></trkpt>
<trkpt lat="52.701446" lon="06.051219"><ele>-3.3</ele><time>2022-09-06T11:44:41Z</time><name>PT2435</name></trkpt>
<trkpt lat="52.701452" lon="06.051245"><ele>-3.1</ele><time>2022-09-06T11:44:42Z</time><name>PT2436</name></trkpt>
<trkpt lat="52.701457" lon="06.051272"><ele>-3</ele><time>2022-09-06T11:44:42Z</time><name>PT2437</name></trkpt>
<trkpt lat="52.701463" lon="06.051303"><ele>-2.9</ele><time>2022-09-06T11:44:44Z</time><name>PT2438</name></trkpt>
<trkpt lat="52.701468" lon="06.051340"><ele>-2.6</ele><time>2022-09-06T11:44:45Z</time><name>PT2439</name></trkpt>
<trkpt lat="52.701473" lon="06.051373"><ele>-2.7</ele><time>2022-09-06T11:44:45Z</time><name>PT2440</name></trkpt>
<trkpt lat="52.701476" lon="06.051403"><ele>-2.6</ele><time>2022-09-06T11:44:47Z</time><name>PT2441</name></trkpt>
<trkpt lat="52.701479" lon="06.051432"><ele>-2.6</ele><time>2022-09-06T11:44:48Z</time><name>PT2442</name></trkpt>
<trkpt lat="52.701483" lon="06.051464"><ele>-2.5</ele><time>2022-09-06T11:44:48Z</time><name>PT2443</name></trkpt>
<trkpt lat="52.701487" lon="06.051491"><ele>-2.4</ele><time>2022-09-06T11:44:50Z</time><name>PT2444</name></trkpt>
<trkpt lat="52.701493" lon="06.051519"><ele>-2.5</ele><time>2022-09-06T11:44:51Z</time><name>PT2445</name></trkpt>
<trkpt lat="52.701497" lon="06.051546"><ele>-2.5</ele><time>2022-09-06T11:44:51Z</time><name>PT2446</name></trkpt>
<trkpt lat="52.701502" lon="06.051573"><ele>-2.3</ele><time>2022-09-06T11:44:53Z</time><name>PT2447</name></trkpt>
<trkpt lat="52.701507" lon="06.051600"><ele>-2.4</ele><time>2022-09-06T11:44:54Z</time><name>PT2448</name></trkpt>
<trkpt lat="52.701512" lon="06.051627"><ele>-2.5</ele><time>2022-09-06T11:44:54Z</time><name>PT2449</name></trkpt>
<trkpt lat="52.701516" lon="06.051656"><ele>-2.6</ele><time>2022-09-06T11:44:56Z</time><name>PT2450</name></trkpt>
<trkpt lat="52.701520" lon="06.051684"><ele>-2.5</ele><time>2022-09-06T11:44:57Z</time><name>PT2451</name></trkpt>
<trkpt lat="52.701524" lon="06.051713"><ele>-2.6</ele><time>2022-09-06T11:44:57Z</time><name>PT2452</name></trkpt>
<trkpt lat="52.701528" lon="06.051744"><ele>-2.6</ele><time>2022-09-06T11:44:59Z</time><name>PT2453</name></trkpt>
<trkpt lat="52.701532" lon="06.051773"><ele>-2.6</ele><time>2022-09-06T11:45:00Z</time><name>PT2454</name></trkpt>
<trkpt lat="52.701536" lon="06.051800"><ele>-2.5</ele><time>2022-09-06T11:45:00Z</time><name>PT2455</name></trkpt>
<trkpt lat="52.701540" lon="06.051827"><ele>-2.5</ele><time>2022-09-06T11:45:02Z</time><name>PT2456</name></trkpt>
<trkpt lat="52.701544" lon="06.051855"><ele>-2.7</ele><time>2022-09-06T11:45:03Z</time><name>PT2457</name></trkpt>
<trkpt lat="52.701546" lon="06.051883"><ele>-2.7</ele><time>2022-09-06T11:45:03Z</time><name>PT2458</name></trkpt>
<trkpt lat="52.701550" lon="06.051910"><ele>-2.7</ele><time>2022-09-06T11:45:05Z</time><name>PT2459</name></trkpt>
<trkpt lat="52.701552" lon="06.051937"><ele>-2.6</ele><time>2022-09-06T11:45:06Z</time><name>PT2460</name></trkpt>
<trkpt lat="52.701555" lon="06.051963"><ele>-2.5</ele><time>2022-09-06T11:45:06Z</time><name>PT2461</name></trkpt>
<trkpt lat="52.701559" lon="06.051990"><ele>-2.5</ele><time>2022-09-06T11:45:08Z</time><name>PT2462</name></trkpt>
<trkpt lat="52.701562" lon="06.052017"><ele>-2.3</ele><time>2022-09-06T11:45:09Z</time><name>PT2463</name></trkpt>
<trkpt lat="52.701565" lon="06.052044"><ele>-2.3</ele><time>2022-09-06T11:45:09Z</time><name>PT2464</name></trkpt>
<trkpt lat="52.701566" lon="06.052071"><ele>-2.2</ele><time>2022-09-06T11:45:11Z</time><name>PT2465</name></trkpt>
<trkpt lat="52.701569" lon="06.052098"><ele>-2.3</ele><time>2022-09-06T11:45:12Z</time><name>PT2466</name></trkpt>
<trkpt lat="52.701572" lon="06.052127"><ele>-2.3</ele><time>2022-09-06T11:45:12Z</time><name>PT2467</name></trkpt>
<trkpt lat="52.701573" lon="06.052153"><ele>-2.4</ele><time>2022-09-06T11:45:14Z</time><name>PT2468</name></trkpt>
<trkpt lat="52.701576" lon="06.052180"><ele>-2.4</ele><time>2022-09-06T11:45:15Z</time><name>PT2469</name></trkpt>
<trkpt lat="52.701579" lon="06.052208"><ele>-2.5</ele><time>2022-09-06T11:45:15Z</time><name>PT2470</name></trkpt>
<trkpt lat="52.701581" lon="06.052235"><ele>-2.3</ele><time>2022-09-06T11:45:17Z</time><name>PT2471</name></trkpt>
<trkpt lat="52.701583" lon="06.052265"><ele>-2.2</ele><time>2022-09-06T11:45:18Z</time><name>PT2472</name></trkpt>
<trkpt lat="52.701586" lon="06.052293"><ele>-2.3</ele><time>2022-09-06T11:45:18Z</time><name>PT2473</name></trkpt>
<trkpt lat="52.701589" lon="06.052320"><ele>-2.1</ele><time>2022-09-06T11:45:20Z</time><name>PT2474</name></trkpt>
<trkpt lat="52.701592" lon="06.052347"><ele>-2.2</ele><time>2022-09-06T11:45:21Z</time><name>PT2475</name></trkpt>
<trkpt lat="52.701595" lon="06.052372"><ele>-2.3</ele><time>2022-09-06T11:45:21Z</time><name>PT2476</name></trkpt>
<trkpt lat="52.701597" lon="06.052399"><ele>-2.4</ele><time>2022-09-06T11:45:23Z</time><name>PT2477</name></trkpt>
<trkpt lat="52.701599" lon="06.052426"><ele>-2.3</ele><time>2022-09-06T11:45:24Z</time><name>PT2478</name></trkpt>
<trkpt lat="52.701602" lon="06.052453"><ele>-2.5</ele><time>2022-09-06T11:45:24Z</time><name>PT2479</name></trkpt>
<trkpt lat="52.701603" lon="06.052479"><ele>-2.6</ele><time>2022-09-06T11:45:26Z</time><name>PT2480</name></trkpt>
<trkpt lat="52.701605" lon="06.052506"><ele>-2.5</ele><time>2022-09-06T11:45:27Z</time><name>PT2481</name></trkpt>
<trkpt lat="52.701607" lon="06.052533"><ele>-2.7</ele><time>2022-09-06T11:45:27Z</time><name>PT2482</name></trkpt>
<trkpt lat="52.701609" lon="06.052560"><ele>-2.5</ele><time>2022-09-06T11:45:29Z</time><name>PT2483</name></trkpt>
<trkpt lat="52.701611" lon="06.052587"><ele>-2.3</ele><time>2022-09-06T11:45:30Z</time><name>PT2484</name></trkpt>
<trkpt lat="52.701612" lon="06.052613"><ele>-2.3</ele><time>2022-09-06T11:45:30Z</time><name>PT2485</name></trkpt>
<trkpt lat="52.701614" lon="06.052640"><ele>-2.4</ele><time>2022-09-06T11:45:32Z</time><name>PT2486</name></trkpt>
<trkpt lat="52.701616" lon="06.052666"><ele>-2.3</ele><time>2022-09-06T11:45:33Z</time><name>PT2487</name></trkpt>
<trkpt lat="52.701617" lon="06.052692"><ele>-2.3</ele><time>2022-09-06T11:45:33Z</time><name>PT2488</name></trkpt>
<trkpt lat="52.701619" lon="06.052718"><ele>-2.5</ele><time>2022-09-06T11:45:35Z</time><name>PT2489</name></trkpt>
<trkpt lat="52.701620" lon="06.052744"><ele>-2.3</ele><time>2022-09-06T11:45:36Z</time><name>PT2490</name></trkpt>
<trkpt lat="52.701621" lon="06.052770"><ele>-2.3</ele><time>2022-09-06T11:45:36Z</time><name>PT2491</name></trkpt>
<trkpt lat="52.701622" lon="06.052796"><ele>-2.3</ele><time>2022-09-06T11:45:38Z</time><name>PT2492</name></trkpt>
<trkpt lat="52.701623" lon="06.052823"><ele>-2.5</ele><time>2022-09-06T11:45:39Z</time><name>PT2493</name></trkpt>
<trkpt lat="52.701625" lon="06.052850"><ele>-2.3</ele><time>2022-09-06T11:45:39Z</time><name>PT2494</name></trkpt>
<trkpt lat="52.701625" lon="06.052876"><ele>-2.2</ele><time>2022-09-06T11:45:41Z</time><name>PT2495</name></trkpt>
<trkpt lat="52.701626" lon="06.052901"><ele>-2.2</ele><time>2022-09-06T11:45:42Z</time><name>PT2496</name></trkpt>
<trkpt lat="52.701626" lon="06.052928"><ele>-1.9</ele><time>2022-09-06T11:45:42Z</time><name>PT2497</name></trkpt>
<trkpt lat="52.701627" lon="06.052954"><ele>-1.9</ele><time>2022-09-06T11:45:44Z</time><name>PT2498</name></trkpt>
<trkpt lat="52.701627" lon="06.052981"><ele>-2</ele><time>2022-09-06T11:45:45Z</time><name>PT2499</name></trkpt>
<trkpt lat="52.701626" lon="06.053006"><ele>-2.1</ele><time>2022-09-06T11:45:46Z</time><name>PT2500</name></trkpt>
<trkpt lat="52.701626" lon="06.053033"><ele>-2.1</ele><time>2022-09-06T11:45:47Z</time><name>PT2501</name></trkpt>
<trkpt lat="52.701626" lon="06.053060"><ele>-2.2</ele><time>2022-09-06T11:45:48Z</time><name>PT2502</name></trkpt>
<trkpt lat="52.701626" lon="06.053087"><ele>-2.1</ele><time>2022-09-06T11:45:48Z</time><name>PT2503</name></trkpt>
<trkpt lat="52.701627" lon="06.053115"><ele>-2</ele><time>2022-09-06T11:45:50Z</time><name>PT2504</name></trkpt>
<trkpt lat="52.701627" lon="06.053143"><ele>-2</ele><time>2022-09-06T11:45:51Z</time><name>PT2505</name></trkpt>
<trkpt lat="52.701627" lon="06.053171"><ele>-1.9</ele><time>2022-09-06T11:45:51Z</time><name>PT2506</name></trkpt>
<trkpt lat="52.701627" lon="06.053199"><ele>-2</ele><time>2022-09-06T11:45:53Z</time><name>PT2507</name></trkpt>
<trkpt lat="52.701627" lon="06.053227"><ele>-2.2</ele><time>2022-09-06T11:45:54Z</time><name>PT2508</name></trkpt>
<trkpt lat="52.701626" lon="06.053255"><ele>-2.2</ele><time>2022-09-06T11:45:54Z</time><name>PT2509</name></trkpt>
<trkpt lat="52.701627" lon="06.053281"><ele>-2.3</ele><time>2022-09-06T11:45:56Z</time><name>PT2510</name></trkpt>
<trkpt lat="52.701630" lon="06.053307"><ele>-2.3</ele><time>2022-09-06T11:45:57Z</time><name>PT2511</name></trkpt>
<trkpt lat="52.701631" lon="06.053333"><ele>-2.3</ele><time>2022-09-06T11:45:57Z</time><name>PT2512</name></trkpt>
<trkpt lat="52.701630" lon="06.053360"><ele>-2.2</ele><time>2022-09-06T11:45:59Z</time><name>PT2513</name></trkpt>
<trkpt lat="52.701631" lon="06.053388"><ele>-2.2</ele><time>2022-09-06T11:46:00Z</time><name>PT2514</name></trkpt>
<trkpt lat="52.701632" lon="06.053416"><ele>-2.1</ele><time>2022-09-06T11:46:00Z</time><name>PT2515</name></trkpt>
<trkpt lat="52.701634" lon="06.053443"><ele>-2.3</ele><time>2022-09-06T11:46:02Z</time><name>PT2516</name></trkpt>
<trkpt lat="52.701636" lon="06.053469"><ele>-2.5</ele><time>2022-09-06T11:46:03Z</time><name>PT2517</name></trkpt>
<trkpt lat="52.701638" lon="06.053495"><ele>-2.5</ele><time>2022-09-06T11:46:03Z</time><name>PT2518</name></trkpt>
<trkpt lat="52.701641" lon="06.053522"><ele>-2.4</ele><time>2022-09-06T11:46:05Z</time><name>PT2519</name></trkpt>
<trkpt lat="52.701644" lon="06.053549"><ele>-2.5</ele><time>2022-09-06T11:46:06Z</time><name>PT2520</name></trkpt>
<trkpt lat="52.701646" lon="06.053575"><ele>-2.5</ele><time>2022-09-06T11:46:06Z</time><name>PT2521</name></trkpt>
<trkpt lat="52.701650" lon="06.053601"><ele>-2.3</ele><time>2022-09-06T11:46:08Z</time><name>PT2522</name></trkpt>
<trkpt lat="52.701655" lon="06.053627"><ele>-2.2</ele><time>2022-09-06T11:46:09Z</time><name>PT2523</name></trkpt>
<trkpt lat="52.701660" lon="06.053652"><ele>-2.3</ele><time>2022-09-06T11:46:09Z</time><name>PT2524</name></trkpt>
<trkpt lat="52.701665" lon="06.053677"><ele>-2.4</ele><time>2022-09-06T11:46:11Z</time><name>PT2525</name></trkpt>
<trkpt lat="52.701671" lon="06.053704"><ele>-2.6</ele><time>2022-09-06T11:46:12Z</time><name>PT2526</name></trkpt>
<trkpt lat="52.701678" lon="06.053730"><ele>-2.6</ele><time>2022-09-06T11:46:12Z</time><name>PT2527</name></trkpt>
<trkpt lat="52.701684" lon="06.053756"><ele>-2.6</ele><time>2022-09-06T11:46:14Z</time><name>PT2528</name></trkpt>
<trkpt lat="52.701691" lon="06.053782"><ele>-2.5</ele><time>2022-09-06T11:46:15Z</time><name>PT2529</name></trkpt>
<trkpt lat="52.701697" lon="06.053807"><ele>-2.5</ele><time>2022-09-06T11:46:15Z</time><name>PT2530</name></trkpt>
<trkpt lat="52.701704" lon="06.053831"><ele>-2.5</ele><time>2022-09-06T11:46:17Z</time><name>PT2531</name></trkpt>
<trkpt lat="52.701712" lon="06.053855"><ele>-2.5</ele><time>2022-09-06T11:46:18Z</time><name>PT2532</name></trkpt>
<trkpt lat="52.701720" lon="06.053881"><ele>-2.5</ele><time>2022-09-06T11:46:18Z</time><name>PT2533</name></trkpt>
<trkpt lat="52.701730" lon="06.053906"><ele>-2.6</ele><time>2022-09-06T11:46:20Z</time><name>PT2534</name></trkpt>
<trkpt lat="52.701739" lon="06.053931"><ele>-2.4</ele><time>2022-09-06T11:46:21Z</time><name>PT2535</name></trkpt>
<trkpt lat="52.701748" lon="06.053954"><ele>-2.4</ele><time>2022-09-06T11:46:21Z</time><name>PT2536</name></trkpt>
<trkpt lat="52.701758" lon="06.053979"><ele>-2.2</ele><time>2022-09-06T11:46:23Z</time><name>PT2537</name></trkpt>
<trkpt lat="52.701766" lon="06.054001"><ele>-2.2</ele><time>2022-09-06T11:46:24Z</time><name>PT2538</name></trkpt>
<trkpt lat="52.701775" lon="06.054025"><ele>-2.2</ele><time>2022-09-06T11:46:24Z</time><name>PT2539</name></trkpt>
<trkpt lat="52.701785" lon="06.054047"><ele>-2.3</ele><time>2022-09-06T11:46:26Z</time><name>PT2540</name></trkpt>
<trkpt lat="52.701795" lon="06.054066"><ele>-2.1</ele><time>2022-09-06T11:46:27Z</time><name>PT2541</name></trkpt>
<trkpt lat="52.701805" lon="06.054086"><ele>-2.2</ele><time>2022-09-06T11:46:27Z</time><name>PT2542</name></trkpt>
<trkpt lat="52.701816" lon="06.054106"><ele>-2.2</ele><time>2022-09-06T11:46:29Z</time><name>PT2543</name></trkpt>
<trkpt lat="52.701827" lon="06.054127"><ele>-2.4</ele><time>2022-09-06T11:46:30Z</time><name>PT2544</name></trkpt>
<trkpt lat="52.701838" lon="06.054147"><ele>-2.5</ele><time>2022-09-06T11:46:30Z</time><name>PT2545</name></trkpt>
<trkpt lat="52.701849" lon="06.054168"><ele>-2.8</ele><time>2022-09-06T11:46:32Z</time><name>PT2546</name></trkpt>
<trkpt lat="52.701860" lon="06.054188"><ele>-2.7</ele><time>2022-09-06T11:46:33Z</time><name>PT2547</name></trkpt>
<trkpt lat="52.701870" lon="06.054209"><ele>-2.6</ele><time>2022-09-06T11:46:33Z</time><name>PT2548</name></trkpt>
<trkpt lat="52.701880" lon="06.054230"><ele>-2.5</ele><time>2022-09-06T11:46:35Z</time><name>PT2549</name></trkpt>
<trkpt lat="52.701891" lon="06.054252"><ele>-2.5</ele><time>2022-09-06T11:46:36Z</time><name>PT2550</name></trkpt>
<trkpt lat="52.701902" lon="06.054274"><ele>-2.5</ele><time>2022-09-06T11:46:36Z</time><name>PT2551</name></trkpt>
<trkpt lat="52.701912" lon="06.054295"><ele>-2.4</ele><time>2022-09-06T11:46:38Z</time><name>PT2552</name></trkpt>
<trkpt lat="52.701923" lon="06.054317"><ele>-2.5</ele><time>2022-09-06T11:46:39Z</time><name>PT2553</name></trkpt>
<trkpt lat="52.701929" lon="06.054335"><ele>-2.5</ele><time>2022-09-06T11:46:39Z</time><name>PT2554</name></trkpt>
<trkpt lat="52.701939" lon="06.054353"><ele>-2.4</ele><time>2022-09-06T11:46:41Z</time><name>PT2555</name></trkpt>
<trkpt lat="52.701950" lon="06.054373"><ele>-2.3</ele><time>2022-09-06T11:46:42Z</time><name>PT2556</name></trkpt>
<trkpt lat="52.701961" lon="06.054394"><ele>-2.1</ele><time>2022-09-06T11:46:42Z</time><name>PT2557</name></trkpt>
<trkpt lat="52.701972" lon="06.054415"><ele>-2</ele><time>2022-09-06T11:46:44Z</time><name>PT2558</name></trkpt>
<trkpt lat="52.701987" lon="06.054439"><ele>-1.9</ele><time>2022-09-06T11:46:45Z</time><name>PT2559</name></trkpt>
<trkpt lat="52.701998" lon="06.054459"><ele>-2</ele><time>2022-09-06T11:46:46Z</time><name>PT2560</name></trkpt>
<trkpt lat="52.702009" lon="06.054480"><ele>-2</ele><time>2022-09-06T11:46:47Z</time><name>PT2561</name></trkpt>
<trkpt lat="52.702020" lon="06.054502"><ele>-2.4</ele><time>2022-09-06T11:46:48Z</time><name>PT2562</name></trkpt>
<trkpt lat="52.702030" lon="06.054524"><ele>-2.5</ele><time>2022-09-06T11:46:48Z</time><name>PT2563</name></trkpt>
<trkpt lat="52.702041" lon="06.054545"><ele>-2.6</ele><time>2022-09-06T11:46:50Z</time><name>PT2564</name></trkpt>
<trkpt lat="52.702051" lon="06.054568"><ele>-2.7</ele><time>2022-09-06T11:46:51Z</time><name>PT2565</name></trkpt>
<trkpt lat="52.702062" lon="06.054589"><ele>-2.8</ele><time>2022-09-06T11:46:51Z</time><name>PT2566</name></trkpt>
<trkpt lat="52.702072" lon="06.054612"><ele>-2.8</ele><time>2022-09-06T11:46:53Z</time><name>PT2567</name></trkpt>
<trkpt lat="52.702083" lon="06.054635"><ele>-2.9</ele><time>2022-09-06T11:46:54Z</time><name>PT2568</name></trkpt>
<trkpt lat="52.702094" lon="06.054658"><ele>-2.9</ele><time>2022-09-06T11:46:54Z</time><name>PT2569</name></trkpt>
<trkpt lat="52.702104" lon="06.054681"><ele>-2.8</ele><time>2022-09-06T11:46:56Z</time><name>PT2570</name></trkpt>
<trkpt lat="52.702115" lon="06.054703"><ele>-2.9</ele><time>2022-09-06T11:46:57Z</time><name>PT2571</name></trkpt>
<trkpt lat="52.702125" lon="06.054727"><ele>-2.8</ele><time>2022-09-06T11:46:57Z</time><name>PT2572</name></trkpt>
<trkpt lat="52.702136" lon="06.054749"><ele>-2.9</ele><time>2022-09-06T11:46:59Z</time><name>PT2573</name></trkpt>
<trkpt lat="52.702147" lon="06.054770"><ele>-3</ele><time>2022-09-06T11:47:00Z</time><name>PT2574</name></trkpt>
<trkpt lat="52.702157" lon="06.054792"><ele>-2.9</ele><time>2022-09-06T11:47:00Z</time><name>PT2575</name></trkpt>
<trkpt lat="52.702168" lon="06.054815"><ele>-2.8</ele><time>2022-09-06T11:47:02Z</time><name>PT2576</name></trkpt>
<trkpt lat="52.702177" lon="06.054837"><ele>-2.7</ele><time>2022-09-06T11:47:03Z</time><name>PT2577</name></trkpt>
<trkpt lat="52.702188" lon="06.054860"><ele>-2.7</ele><time>2022-09-06T11:47:03Z</time><name>PT2578</name></trkpt>
<trkpt lat="52.702198" lon="06.054883"><ele>-2.6</ele><time>2022-09-06T11:47:05Z</time><name>PT2579</name></trkpt>
<trkpt lat="52.702209" lon="06.054906"><ele>-2.7</ele><time>2022-09-06T11:47:06Z</time><name>PT2580</name></trkpt>
<trkpt lat="52.702219" lon="06.054928"><ele>-2.6</ele><time>2022-09-06T11:47:06Z</time><name>PT2581</name></trkpt>
<trkpt lat="52.702229" lon="06.054951"><ele>-2.7</ele><time>2022-09-06T11:47:08Z</time><name>PT2582</name></trkpt>
<trkpt lat="52.702240" lon="06.054973"><ele>-2.9</ele><time>2022-09-06T11:47:09Z</time><name>PT2583</name></trkpt>
<trkpt lat="52.702250" lon="06.054996"><ele>-3</ele><time>2022-09-06T11:47:09Z</time><name>PT2584</name></trkpt>
<trkpt lat="52.702261" lon="06.055018"><ele>-2.9</ele><time>2022-09-06T11:47:11Z</time><name>PT2585</name></trkpt>
<trkpt lat="52.702271" lon="06.055040"><ele>-3</ele><time>2022-09-06T11:47:12Z</time><name>PT2586</name></trkpt>
<trkpt lat="52.702281" lon="06.055061"><ele>-2.8</ele><time>2022-09-06T11:47:12Z</time><name>PT2587</name></trkpt>
<trkpt lat="52.702292" lon="06.055083"><ele>-2.5</ele><time>2022-09-06T11:47:14Z</time><name>PT2588</name></trkpt>
<trkpt lat="52.702302" lon="06.055104"><ele>-2.6</ele><time>2022-09-06T11:47:15Z</time><name>PT2589</name></trkpt>
<trkpt lat="52.702312" lon="06.055126"><ele>-2.7</ele><time>2022-09-06T11:47:15Z</time><name>PT2590</name></trkpt>
<trkpt lat="52.702322" lon="06.055147"><ele>-2.5</ele><time>2022-09-06T11:47:17Z</time><name>PT2591</name></trkpt>
<trkpt lat="52.702333" lon="06.055169"><ele>-2.7</ele><time>2022-09-06T11:47:18Z</time><name>PT2592</name></trkpt>
<trkpt lat="52.702344" lon="06.055190"><ele>-2.7</ele><time>2022-09-06T11:47:18Z</time><name>PT2593</name></trkpt>
<trkpt lat="52.702354" lon="06.055212"><ele>-2.8</ele><time>2022-09-06T11:47:20Z</time><name>PT2594</name></trkpt>
<trkpt lat="52.702364" lon="06.055233"><ele>-2.7</ele><time>2022-09-06T11:47:21Z</time><name>PT2595</name></trkpt>
<trkpt lat="52.702375" lon="06.055255"><ele>-2.9</ele><time>2022-09-06T11:47:21Z</time><name>PT2596</name></trkpt>
<trkpt lat="52.702385" lon="06.055277"><ele>-2.7</ele><time>2022-09-06T11:47:23Z</time><name>PT2597</name></trkpt>
<trkpt lat="52.702396" lon="06.055299"><ele>-2.7</ele><time>2022-09-06T11:47:24Z</time><name>PT2598</name></trkpt>
<trkpt lat="52.702407" lon="06.055321"><ele>-2.5</ele><time>2022-09-06T11:47:24Z</time><name>PT2599</name></trkpt>
<trkpt lat="52.702417" lon="06.055344"><ele>-2.5</ele><time>2022-09-06T11:47:26Z</time><name>PT2600</name></trkpt>
<trkpt lat="52.702428" lon="06.055366"><ele>-2.4</ele><time>2022-09-06T11:47:27Z</time><name>PT2601</name></trkpt>
<trkpt lat="52.702439" lon="06.055387"><ele>-2.4</ele><time>2022-09-06T11:47:27Z</time><name>PT2602</name></trkpt>
<trkpt lat="52.702449" lon="06.055408"><ele>-2.3</ele><time>2022-09-06T11:47:29Z</time><name>PT2603</name></trkpt>
<trkpt lat="52.702460" lon="06.055429"><ele>-2.2</ele><time>2022-09-06T11:47:30Z</time><name>PT2604</name></trkpt>
<trkpt lat="52.702470" lon="06.055449"><ele>-2.2</ele><time>2022-09-06T11:47:30Z</time><name>PT2605</name></trkpt>
<trkpt lat="52.702480" lon="06.055469"><ele>-2.5</ele><time>2022-09-06T11:47:32Z</time><name>PT2606</name></trkpt>
<trkpt lat="52.702491" lon="06.055488"><ele>-2.5</ele><time>2022-09-06T11:47:33Z</time><name>PT2607</name></trkpt>
<trkpt lat="52.702502" lon="06.055507"><ele>-2.6</ele><time>2022-09-06T11:47:33Z</time><name>PT2608</name></trkpt>
<trkpt lat="52.702513" lon="06.055527"><ele>-2.6</ele><time>2022-09-06T11:47:35Z</time><name>PT2609</name></trkpt>
<trkpt lat="52.702523" lon="06.055548"><ele>-2.6</ele><time>2022-09-06T11:47:36Z</time><name>PT2610</name></trkpt>
<trkpt lat="52.702535" lon="06.055566"><ele>-2.6</ele><time>2022-09-06T11:47:36Z</time><name>PT2611</name></trkpt>
<trkpt lat="52.702546" lon="06.055585"><ele>-2.6</ele><time>2022-09-06T11:47:38Z</time><name>PT2612</name></trkpt>
<trkpt lat="52.702558" lon="06.055605"><ele>-2.5</ele><time>2022-09-06T11:47:39Z</time><name>PT2613</name></trkpt>
<trkpt lat="52.702569" lon="06.055626"><ele>-2.5</ele><time>2022-09-06T11:47:39Z</time><name>PT2614</name></trkpt>
<trkpt lat="52.702580" lon="06.055648"><ele>-2.6</ele><time>2022-09-06T11:47:41Z</time><name>PT2615</name></trkpt>
<trkpt lat="52.702591" lon="06.055670"><ele>-2.5</ele><time>2022-09-06T11:47:42Z</time><name>PT2616</name></trkpt>
<trkpt lat="52.702602" lon="06.055692"><ele>-2.5</ele><time>2022-09-06T11:47:42Z</time><name>PT2617</name></trkpt>
<trkpt lat="52.702614" lon="06.055714"><ele>-2.5</ele><time>2022-09-06T11:47:44Z</time><name>PT2618</name></trkpt>
<trkpt lat="52.702624" lon="06.055736"><ele>-2.4</ele><time>2022-09-06T11:47:45Z</time><name>PT2619</name></trkpt>
<trkpt lat="52.702635" lon="06.055759"><ele>-2.5</ele><time>2022-09-06T11:47:45Z</time><name>PT2620</name></trkpt>
<trkpt lat="52.702645" lon="06.055779"><ele>-2.5</ele><time>2022-09-06T11:47:47Z</time><name>PT2621</name></trkpt>
<trkpt lat="52.702654" lon="06.055802"><ele>-2.6</ele><time>2022-09-06T11:47:48Z</time><name>PT2622</name></trkpt>
<trkpt lat="52.702662" lon="06.055827"><ele>-2.5</ele><time>2022-09-06T11:47:49Z</time><name>PT2623</name></trkpt>
<trkpt lat="52.702668" lon="06.055850"><ele>-2.6</ele><time>2022-09-06T11:47:50Z</time><name>PT2624</name></trkpt>
<trkpt lat="52.702676" lon="06.055872"><ele>-2.6</ele><time>2022-09-06T11:47:51Z</time><name>PT2625</name></trkpt>
<trkpt lat="52.702686" lon="06.055896"><ele>-2.5</ele><time>2022-09-06T11:47:51Z</time><name>PT2626</name></trkpt>
<trkpt lat="52.702696" lon="06.055919"><ele>-2.6</ele><time>2022-09-06T11:47:53Z</time><name>PT2627</name></trkpt>
<trkpt lat="52.702706" lon="06.055942"><ele>-2.5</ele><time>2022-09-06T11:47:54Z</time><name>PT2628</name></trkpt>
<trkpt lat="52.702715" lon="06.055964"><ele>-2.5</ele><time>2022-09-06T11:47:54Z</time><name>PT2629</name></trkpt>
<trkpt lat="52.702723" lon="06.055983"><ele>-2.5</ele><time>2022-09-06T11:47:56Z</time><name>PT2630</name></trkpt>
<trkpt lat="52.702732" lon="06.056004"><ele>-2.4</ele><time>2022-09-06T11:47:57Z</time><name>PT2631</name></trkpt>
<trkpt lat="52.702741" lon="06.056027"><ele>-2.4</ele><time>2022-09-06T11:47:57Z</time><name>PT2632</name></trkpt>
<trkpt lat="52.702748" lon="06.056049"><ele>-2.2</ele><time>2022-09-06T11:47:59Z</time><name>PT2633</name></trkpt>
<trkpt lat="52.702756" lon="06.056072"><ele>-2.1</ele><time>2022-09-06T11:48:00Z</time><name>PT2634</name></trkpt>
<trkpt lat="52.702764" lon="06.056096"><ele>-2.1</ele><time>2022-09-06T11:48:00Z</time><name>PT2635</name></trkpt>
<trkpt lat="52.702773" lon="06.056119"><ele>-2</ele><time>2022-09-06T11:48:02Z</time><name>PT2636</name></trkpt>
<trkpt lat="52.702781" lon="06.056142"><ele>-2.4</ele><time>2022-09-06T11:48:03Z</time><name>PT2637</name></trkpt>
<trkpt lat="52.702790" lon="06.056165"><ele>-2.5</ele><time>2022-09-06T11:48:03Z</time><name>PT2638</name></trkpt>
<trkpt lat="52.702800" lon="06.056189"><ele>-2.4</ele><time>2022-09-06T11:48:05Z</time><name>PT2639</name></trkpt>
<trkpt lat="52.702809" lon="06.056210"><ele>-2.5</ele><time>2022-09-06T11:48:06Z</time><name>PT2640</name></trkpt>
<trkpt lat="52.702816" lon="06.056233"><ele>-2.5</ele><time>2022-09-06T11:48:06Z</time><name>PT2641</name></trkpt>
<trkpt lat="52.702825" lon="06.056255"><ele>-2.5</ele><time>2022-09-06T11:48:08Z</time><name>PT2642</name></trkpt>
<trkpt lat="52.702832" lon="06.056277"><ele>-2.7</ele><time>2022-09-06T11:48:09Z</time><name>PT2643</name></trkpt>
<trkpt lat="52.702840" lon="06.056301"><ele>-2.7</ele><time>2022-09-06T11:48:09Z</time><name>PT2644</name></trkpt>
<trkpt lat="52.702848" lon="06.056326"><ele>-2.7</ele><time>2022-09-06T11:48:11Z</time><name>PT2645</name></trkpt>
<trkpt lat="52.702856" lon="06.056349"><ele>-2.6</ele><time>2022-09-06T11:48:12Z</time><name>PT2646</name></trkpt>
<trkpt lat="52.702864" lon="06.056374"><ele>-2.6</ele><time>2022-09-06T11:48:12Z</time><name>PT2647</name></trkpt>
<trkpt lat="52.702873" lon="06.056397"><ele>-2.5</ele><time>2022-09-06T11:48:14Z</time><name>PT2648</name></trkpt>
<trkpt lat="52.702882" lon="06.056420"><ele>-2.5</ele><time>2022-09-06T11:48:15Z</time><name>PT2649</name></trkpt>
<trkpt lat="52.702890" lon="06.056444"><ele>-2.5</ele><time>2022-09-06T11:48:15Z</time><name>PT2650</name></trkpt>
<trkpt lat="52.702898" lon="06.056467"><ele>-2.5</ele><time>2022-09-06T11:48:17Z</time><name>PT2651</name></trkpt>
<trkpt lat="52.702907" lon="06.056490"><ele>-2.4</ele><time>2022-09-06T11:48:18Z</time><name>PT2652</name></trkpt>
<trkpt lat="52.702916" lon="06.056512"><ele>-2.5</ele><time>2022-09-06T11:48:18Z</time><name>PT2653</name></trkpt>
<trkpt lat="52.702925" lon="06.056536"><ele>-2.5</ele><time>2022-09-06T11:48:20Z</time><name>PT2654</name></trkpt>
<trkpt lat="52.702934" lon="06.056558"><ele>-2.6</ele><time>2022-09-06T11:48:21Z</time><name>PT2655</name></trkpt>
<trkpt lat="52.702943" lon="06.056582"><ele>-2.7</ele><time>2022-09-06T11:48:21Z</time><name>PT2656</name></trkpt>
<trkpt lat="52.702952" lon="06.056606"><ele>-2.7</ele><time>2022-09-06T11:48:23Z</time><name>PT2657</name></trkpt>
<trkpt lat="52.702960" lon="06.056628"><ele>-2.7</ele><time>2022-09-06T11:48:24Z</time><name>PT2658</name></trkpt>
<trkpt lat="52.702968" lon="06.056651"><ele>-2.5</ele><time>2022-09-06T11:48:24Z</time><name>PT2659</name></trkpt>
<trkpt lat="52.702977" lon="06.056673"><ele>-2.5</ele><time>2022-09-06T11:48:26Z</time><name>PT2660</name></trkpt>
<trkpt lat="52.702985" lon="06.056697"><ele>-2.4</ele><time>2022-09-06T11:48:27Z</time><name>PT2661</name></trkpt>
<trkpt lat="52.702993" lon="06.056720"><ele>-2.4</ele><time>2022-09-06T11:48:27Z</time><name>PT2662</name></trkpt>
<trkpt lat="52.703001" lon="06.056744"><ele>-2.4</ele><time>2022-09-06T11:48:29Z</time><name>PT2663</name></trkpt>
<trkpt lat="52.703010" lon="06.056767"><ele>-2.5</ele><time>2022-09-06T11:48:30Z</time><name>PT2664</name></trkpt>
<trkpt lat="52.703018" lon="06.056790"><ele>-2.5</ele><time>2022-09-06T11:48:30Z</time><name>PT2665</name></trkpt>
<trkpt lat="52.703026" lon="06.056813"><ele>-2.5</ele><time>2022-09-06T11:48:32Z</time><name>PT2666</name></trkpt>
<trkpt lat="52.703035" lon="06.056836"><ele>-2.7</ele><time>2022-09-06T11:48:33Z</time><name>PT2667</name></trkpt>
<trkpt lat="52.703043" lon="06.056859"><ele>-2.8</ele><time>2022-09-06T11:48:34Z</time><name>PT2668</name></trkpt>
<trkpt lat="52.703051" lon="06.056883"><ele>-2.8</ele><time>2022-09-06T11:48:35Z</time><name>PT2669</name></trkpt>
<trkpt lat="52.703059" lon="06.056907"><ele>-2.9</ele><time>2022-09-06T11:48:36Z</time><name>PT2670</name></trkpt>
<trkpt lat="52.703068" lon="06.056930"><ele>-2.9</ele><time>2022-09-06T11:48:36Z</time><name>PT2671</name></trkpt>
<trkpt lat="52.703076" lon="06.056953"><ele>-2.9</ele><time>2022-09-06T11:48:38Z</time><name>PT2672</name></trkpt>
<trkpt lat="52.703084" lon="06.056976"><ele>-2.7</ele><time>2022-09-06T11:48:39Z</time><name>PT2673</name></trkpt>
<trkpt lat="52.703092" lon="06.056999"><ele>-2.7</ele><time>2022-09-06T11:48:39Z</time><name>PT2674</name></trkpt>
<trkpt lat="52.703101" lon="06.057022"><ele>-2.6</ele><time>2022-09-06T11:48:41Z</time><name>PT2675</name></trkpt>
<trkpt lat="52.703108" lon="06.057045"><ele>-2.4</ele><time>2022-09-06T11:48:42Z</time><name>PT2676</name></trkpt>
<trkpt lat="52.703117" lon="06.057068"><ele>-2.3</ele><time>2022-09-06T11:48:42Z</time><name>PT2677</name></trkpt>
<trkpt lat="52.703126" lon="06.057092"><ele>-2.4</ele><time>2022-09-06T11:48:44Z</time><name>PT2678</name></trkpt>
<trkpt lat="52.703134" lon="06.057117"><ele>-2.3</ele><time>2022-09-06T11:48:45Z</time><name>PT2679</name></trkpt>
<trkpt lat="52.703142" lon="06.057141"><ele>-2.4</ele><time>2022-09-06T11:48:45Z</time><name>PT2680</name></trkpt>
<trkpt lat="52.703150" lon="06.057165"><ele>-2.5</ele><time>2022-09-06T11:48:47Z</time><name>PT2681</name></trkpt>
<trkpt lat="52.703159" lon="06.057189"><ele>-2.5</ele><time>2022-09-06T11:48:48Z</time><name>PT2682</name></trkpt>
<trkpt lat="52.703168" lon="06.057214"><ele>-2.5</ele><time>2022-09-06T11:48:48Z</time><name>PT2683</name></trkpt>
<trkpt lat="52.703176" lon="06.057238"><ele>-2.5</ele><time>2022-09-06T11:48:50Z</time><name>PT2684</name></trkpt>
<trkpt lat="52.703184" lon="06.057262"><ele>-2.5</ele><time>2022-09-06T11:48:51Z</time><name>PT2685</name></trkpt>
<trkpt lat="52.703193" lon="06.057286"><ele>-2.5</ele><time>2022-09-06T11:48:51Z</time><name>PT2686</name></trkpt>
<trkpt lat="52.703201" lon="06.057311"><ele>-2.5</ele><time>2022-09-06T11:48:53Z</time><name>PT2687</name></trkpt>
<trkpt lat="52.703208" lon="06.057336"><ele>-2.6</ele><time>2022-09-06T11:48:54Z</time><name>PT2688</name></trkpt>
<trkpt lat="52.703216" lon="06.057361"><ele>-2.5</ele><time>2022-09-06T11:48:54Z</time><name>PT2689</name></trkpt>
<trkpt lat="52.703224" lon="06.057386"><ele>-2.5</ele><time>2022-09-06T11:48:56Z</time><name>PT2690</name></trkpt>
<trkpt lat="52.703232" lon="06.057411"><ele>-2.5</ele><time>2022-09-06T11:48:57Z</time><name>PT2691</name></trkpt>
<trkpt lat="52.703240" lon="06.057435"><ele>-2.5</ele><time>2022-09-06T11:48:57Z</time><name>PT2692</name></trkpt>
<trkpt lat="52.703249" lon="06.057459"><ele>-2.4</ele><time>2022-09-06T11:48:59Z</time><name>PT2693</name></trkpt>
<trkpt lat="52.703257" lon="06.057483"><ele>-2.5</ele><time>2022-09-06T11:49:00Z</time><name>PT2694</name></trkpt>
<trkpt lat="52.703266" lon="06.057507"><ele>-2.5</ele><time>2022-09-06T11:49:00Z</time><name>PT2695</name></trkpt>
<trkpt lat="52.703274" lon="06.057531"><ele>-2.5</ele><time>2022-09-06T11:49:02Z</time><name>PT2696</name></trkpt>
<trkpt lat="52.703282" lon="06.057555"><ele>-2.5</ele><time>2022-09-06T11:49:03Z</time><name>PT2697</name></trkpt>
<trkpt lat="52.703291" lon="06.057581"><ele>-2.5</ele><time>2022-09-06T11:49:03Z</time><name>PT2698</name></trkpt>
<trkpt lat="52.703298" lon="06.057606"><ele>-2.5</ele><time>2022-09-06T11:49:05Z</time><name>PT2699</name></trkpt>
<trkpt lat="52.703305" lon="06.057631"><ele>-2.4</ele><time>2022-09-06T11:49:06Z</time><name>PT2700</name></trkpt>
<trkpt lat="52.703313" lon="06.057654"><ele>-2.4</ele><time>2022-09-06T11:49:07Z</time><name>PT2701</name></trkpt>
<trkpt lat="52.703321" lon="06.057678"><ele>-2.5</ele><time>2022-09-06T11:49:08Z</time><name>PT2702</name></trkpt>
<trkpt lat="52.703329" lon="06.057702"><ele>-2.5</ele><time>2022-09-06T11:49:09Z</time><name>PT2703</name></trkpt>
<trkpt lat="52.703337" lon="06.057726"><ele>-2.4</ele><time>2022-09-06T11:49:09Z</time><name>PT2704</name></trkpt>
<trkpt lat="52.703345" lon="06.057750"><ele>-2.5</ele><time>2022-09-06T11:49:11Z</time><name>PT2705</name></trkpt>
<trkpt lat="52.703354" lon="06.057774"><ele>-2.4</ele><time>2022-09-06T11:49:12Z</time><name>PT2706</name></trkpt>
<trkpt lat="52.703361" lon="06.057796"><ele>-2.4</ele><time>2022-09-06T11:49:12Z</time><name>PT2707</name></trkpt>
<trkpt lat="52.703369" lon="06.057819"><ele>-2.2</ele><time>2022-09-06T11:49:14Z</time><name>PT2708</name></trkpt>
<trkpt lat="52.703377" lon="06.057843"><ele>-2.1</ele><time>2022-09-06T11:49:15Z</time><name>PT2709</name></trkpt>
<trkpt lat="52.703385" lon="06.057866"><ele>-2.1</ele><time>2022-09-06T11:49:15Z</time><name>PT2710</name></trkpt>
<trkpt lat="52.703393" lon="06.057890"><ele>-2.1</ele><time>2022-09-06T11:49:17Z</time><name>PT2711</name></trkpt>
<trkpt lat="52.703402" lon="06.057914"><ele>-2.3</ele><time>2022-09-06T11:49:18Z</time><name>PT2712</name></trkpt>
<trkpt lat="52.703410" lon="06.057938"><ele>-2.3</ele><time>2022-09-06T11:49:18Z</time><name>PT2713</name></trkpt>
<trkpt lat="52.703418" lon="06.057962"><ele>-2.5</ele><time>2022-09-06T11:49:20Z</time><name>PT2714</name></trkpt>
<trkpt lat="52.703426" lon="06.057986"><ele>-2.6</ele><time>2022-09-06T11:49:21Z</time><name>PT2715</name></trkpt>
<trkpt lat="52.703434" lon="06.058009"><ele>-2.6</ele><time>2022-09-06T11:49:21Z</time><name>PT2716</name></trkpt>
<trkpt lat="52.703443" lon="06.058033"><ele>-2.5</ele><time>2022-09-06T11:49:23Z</time><name>PT2717</name></trkpt>
<trkpt lat="52.703451" lon="06.058057"><ele>-2.5</ele><time>2022-09-06T11:49:24Z</time><name>PT2718</name></trkpt>
<trkpt lat="52.703459" lon="06.058081"><ele>-2.5</ele><time>2022-09-06T11:49:24Z</time><name>PT2719</name></trkpt>
<trkpt lat="52.703467" lon="06.058105"><ele>-2.4</ele><time>2022-09-06T11:49:26Z</time><name>PT2720</name></trkpt>
<trkpt lat="52.703474" lon="06.058129"><ele>-2.4</ele><time>2022-09-06T11:49:27Z</time><name>PT2721</name></trkpt>
<trkpt lat="52.703483" lon="06.058152"><ele>-2.4</ele><time>2022-09-06T11:49:27Z</time><name>PT2722</name></trkpt>
<trkpt lat="52.703491" lon="06.058176"><ele>-2.3</ele><time>2022-09-06T11:49:29Z</time><name>PT2723</name></trkpt>
<trkpt lat="52.703499" lon="06.058200"><ele>-2.5</ele><time>2022-09-06T11:49:30Z</time><name>PT2724</name></trkpt>
<trkpt lat="52.703507" lon="06.058224"><ele>-2.5</ele><time>2022-09-06T11:49:30Z</time><name>PT2725</name></trkpt>
<trkpt lat="52.703515" lon="06.058248"><ele>-2.5</ele><time>2022-09-06T11:49:32Z</time><name>PT2726</name></trkpt>
<trkpt lat="52.703523" lon="06.058272"><ele>-2.5</ele><time>2022-09-06T11:49:33Z</time><name>PT2727</name></trkpt>
<trkpt lat="52.703530" lon="06.058296"><ele>-2.6</ele><time>2022-09-06T11:49:33Z</time><name>PT2728</name></trkpt>
<trkpt lat="52.703539" lon="06.058319"><ele>-2.6</ele><time>2022-09-06T11:49:35Z</time><name>PT2729</name></trkpt>
<trkpt lat="52.703547" lon="06.058342"><ele>-2.5</ele><time>2022-09-06T11:49:36Z</time><name>PT2730</name></trkpt>
<trkpt lat="52.703554" lon="06.058366"><ele>-2.6</ele><time>2022-09-06T11:49:36Z</time><name>PT2731</name></trkpt>
<trkpt lat="52.703562" lon="06.058390"><ele>-2.6</ele><time>2022-09-06T11:49:38Z</time><name>PT2732</name></trkpt>
<trkpt lat="52.703570" lon="06.058413"><ele>-2.4</ele><time>2022-09-06T11:49:39Z</time><name>PT2733</name></trkpt>
<trkpt lat="52.703577" lon="06.058437"><ele>-2.3</ele><time>2022-09-06T11:49:39Z</time><name>PT2734</name></trkpt>
<trkpt lat="52.703584" lon="06.058462"><ele>-2.4</ele><time>2022-09-06T11:49:41Z</time><name>PT2735</name></trkpt>
<trkpt lat="52.703592" lon="06.058486"><ele>-2.3</ele><time>2022-09-06T11:49:42Z</time><name>PT2736</name></trkpt>
<trkpt lat="52.703600" lon="06.058510"><ele>-2.3</ele><time>2022-09-06T11:49:42Z</time><name>PT2737</name></trkpt>
<trkpt lat="52.703607" lon="06.058533"><ele>-2.4</ele><time>2022-09-06T11:49:44Z</time><name>PT2738</name></trkpt>
<trkpt lat="52.703615" lon="06.058556"><ele>-2.5</ele><time>2022-09-06T11:49:45Z</time><name>PT2739</name></trkpt>
<trkpt lat="52.703623" lon="06.058579"><ele>-2.3</ele><time>2022-09-06T11:49:45Z</time><name>PT2740</name></trkpt>
<trkpt lat="52.703630" lon="06.058603"><ele>-2.4</ele><time>2022-09-06T11:49:47Z</time><name>PT2741</name></trkpt>
<trkpt lat="52.703638" lon="06.058627"><ele>-2.4</ele><time>2022-09-06T11:49:48Z</time><name>PT2742</name></trkpt>
<trkpt lat="52.703646" lon="06.058651"><ele>-2.3</ele><time>2022-09-06T11:49:48Z</time><name>PT2743</name></trkpt>
<trkpt lat="52.703653" lon="06.058675"><ele>-2.1</ele><time>2022-09-06T11:49:50Z</time><name>PT2744</name></trkpt>
<trkpt lat="52.703660" lon="06.058698"><ele>-2.1</ele><time>2022-09-06T11:49:51Z</time><name>PT2745</name></trkpt>
<trkpt lat="52.703667" lon="06.058720"><ele>-2</ele><time>2022-09-06T11:49:51Z</time><name>PT2746</name></trkpt>
<trkpt lat="52.703674" lon="06.058744"><ele>-2</ele><time>2022-09-06T11:49:53Z</time><name>PT2747</name></trkpt>
<trkpt lat="52.703681" lon="06.058769"><ele>-2</ele><time>2022-09-06T11:49:54Z</time><name>PT2748</name></trkpt>
<trkpt lat="52.703689" lon="06.058793"><ele>-2</ele><time>2022-09-06T11:49:54Z</time><name>PT2749</name></trkpt>
<trkpt lat="52.703696" lon="06.058816"><ele>-2.1</ele><time>2022-09-06T11:49:56Z</time><name>PT2750</name></trkpt>
<trkpt lat="52.703703" lon="06.058840"><ele>-2.4</ele><time>2022-09-06T11:49:57Z</time><name>PT2751</name></trkpt>
<trkpt lat="52.703710" lon="06.058864"><ele>-2.5</ele><time>2022-09-06T11:49:57Z</time><name>PT2752</name></trkpt>
<trkpt lat="52.703717" lon="06.058887"><ele>-2.3</ele><time>2022-09-06T11:49:59Z</time><name>PT2753</name></trkpt>
<trkpt lat="52.703724" lon="06.058911"><ele>-2.3</ele><time>2022-09-06T11:50:00Z</time><name>PT2754</name></trkpt>
<trkpt lat="52.703731" lon="06.058935"><ele>-2.3</ele><time>2022-09-06T11:50:00Z</time><name>PT2755</name></trkpt>
<trkpt lat="52.703739" lon="06.058959"><ele>-2.1</ele><time>2022-09-06T11:50:02Z</time><name>PT2756</name></trkpt>
<trkpt lat="52.703745" lon="06.058984"><ele>-2.1</ele><time>2022-09-06T11:50:03Z</time><name>PT2757</name></trkpt>
<trkpt lat="52.703752" lon="06.059008"><ele>-2.1</ele><time>2022-09-06T11:50:03Z</time><name>PT2758</name></trkpt>
<trkpt lat="52.703758" lon="06.059033"><ele>-2</ele><time>2022-09-06T11:50:05Z</time><name>PT2759</name></trkpt>
<trkpt lat="52.703765" lon="06.059057"><ele>-2.3</ele><time>2022-09-06T11:50:06Z</time><name>PT2760</name></trkpt>
<trkpt lat="52.703772" lon="06.059081"><ele>-2.4</ele><time>2022-09-06T11:50:07Z</time><name>PT2761</name></trkpt>
<trkpt lat="52.703779" lon="06.059105"><ele>-2.4</ele><time>2022-09-06T11:50:08Z</time><name>PT2762</name></trkpt>
<trkpt lat="52.703786" lon="06.059129"><ele>-2.5</ele><time>2022-09-06T11:50:09Z</time><name>PT2763</name></trkpt>
<trkpt lat="52.703792" lon="06.059153"><ele>-2.5</ele><time>2022-09-06T11:50:09Z</time><name>PT2764</name></trkpt>
<trkpt lat="52.703798" lon="06.059178"><ele>-2.3</ele><time>2022-09-06T11:50:11Z</time><name>PT2765</name></trkpt>
<trkpt lat="52.703805" lon="06.059202"><ele>-2.2</ele><time>2022-09-06T11:50:12Z</time><name>PT2766</name></trkpt>
<trkpt lat="52.703813" lon="06.059227"><ele>-2.1</ele><time>2022-09-06T11:50:12Z</time><name>PT2767</name></trkpt>
<trkpt lat="52.703820" lon="06.059252"><ele>-2</ele><time>2022-09-06T11:50:14Z</time><name>PT2768</name></trkpt>
<trkpt lat="52.703827" lon="06.059277"><ele>-2</ele><time>2022-09-06T11:50:15Z</time><name>PT2769</name></trkpt>
<trkpt lat="52.703835" lon="06.059301"><ele>-2</ele><time>2022-09-06T11:50:15Z</time><name>PT2770</name></trkpt>
<trkpt lat="52.703843" lon="06.059325"><ele>-2</ele><time>2022-09-06T11:50:17Z</time><name>PT2771</name></trkpt>
<trkpt lat="52.703851" lon="06.059348"><ele>-2</ele><time>2022-09-06T11:50:18Z</time><name>PT2772</name></trkpt>
<trkpt lat="52.703858" lon="06.059372"><ele>-2</ele><time>2022-09-06T11:50:18Z</time><name>PT2773</name></trkpt>
<trkpt lat="52.703866" lon="06.059395"><ele>-1.8</ele><time>2022-09-06T11:50:20Z</time><name>PT2774</name></trkpt>
<trkpt lat="52.703873" lon="06.059419"><ele>-2</ele><time>2022-09-06T11:50:21Z</time><name>PT2775</name></trkpt>
<trkpt lat="52.703881" lon="06.059443"><ele>-1.9</ele><time>2022-09-06T11:50:21Z</time><name>PT2776</name></trkpt>
<trkpt lat="52.703888" lon="06.059466"><ele>-2</ele><time>2022-09-06T11:50:23Z</time><name>PT2777</name></trkpt>
<trkpt lat="52.703895" lon="06.059491"><ele>-2.1</ele><time>2022-09-06T11:50:24Z</time><name>PT2778</name></trkpt>
<trkpt lat="52.703903" lon="06.059516"><ele>-2.1</ele><time>2022-09-06T11:50:24Z</time><name>PT2779</name></trkpt>
<trkpt lat="52.703910" lon="06.059540"><ele>-2.2</ele><time>2022-09-06T11:50:26Z</time><name>PT2780</name></trkpt>
<trkpt lat="52.703917" lon="06.059564"><ele>-2.3</ele><time>2022-09-06T11:50:27Z</time><name>PT2781</name></trkpt>
<trkpt lat="52.703924" lon="06.059589"><ele>-2.1</ele><time>2022-09-06T11:50:27Z</time><name>PT2782</name></trkpt>
<trkpt lat="52.703930" lon="06.059613"><ele>-2.2</ele><time>2022-09-06T11:50:29Z</time><name>PT2783</name></trkpt>
<trkpt lat="52.703937" lon="06.059637"><ele>-2.1</ele><time>2022-09-06T11:50:30Z</time><name>PT2784</name></trkpt>
<trkpt lat="52.703944" lon="06.059662"><ele>-2.2</ele><time>2022-09-06T11:50:30Z</time><name>PT2785</name></trkpt>
<trkpt lat="52.703951" lon="06.059686"><ele>-2.1</ele><time>2022-09-06T11:50:32Z</time><name>PT2786</name></trkpt>
<trkpt lat="52.703958" lon="06.059711"><ele>-2</ele><time>2022-09-06T11:50:33Z</time><name>PT2787</name></trkpt>
<trkpt lat="52.703964" lon="06.059737"><ele>-2</ele><time>2022-09-06T11:50:33Z</time><name>PT2788</name></trkpt>
<trkpt lat="52.703971" lon="06.059761"><ele>-2</ele><time>2022-09-06T11:50:35Z</time><name>PT2789</name></trkpt>
<trkpt lat="52.703977" lon="06.059786"><ele>-2</ele><time>2022-09-06T11:50:36Z</time><name>PT2790</name></trkpt>
<trkpt lat="52.703984" lon="06.059812"><ele>-2</ele><time>2022-09-06T11:50:36Z</time><name>PT2791</name></trkpt>
<trkpt lat="52.703991" lon="06.059838"><ele>-2.2</ele><time>2022-09-06T11:50:38Z</time><name>PT2792</name></trkpt>
<trkpt lat="52.703998" lon="06.059862"><ele>-2.4</ele><time>2022-09-06T11:50:39Z</time><name>PT2793</name></trkpt>
<trkpt lat="52.704004" lon="06.059888"><ele>-2.5</ele><time>2022-09-06T11:50:39Z</time><name>PT2794</name></trkpt>
<trkpt lat="52.704010" lon="06.059913"><ele>-2.5</ele><time>2022-09-06T11:50:41Z</time><name>PT2795</name></trkpt>
<trkpt lat="52.704016" lon="06.059939"><ele>-2.5</ele><time>2022-09-06T11:50:42Z</time><name>PT2796</name></trkpt>
<trkpt lat="52.704021" lon="06.059965"><ele>-2.5</ele><time>2022-09-06T11:50:42Z</time><name>PT2797</name></trkpt>
<trkpt lat="52.704027" lon="06.059989"><ele>-2.5</ele><time>2022-09-06T11:50:44Z</time><name>PT2798</name></trkpt>
<trkpt lat="52.704033" lon="06.060015"><ele>-2.5</ele><time>2022-09-06T11:50:45Z</time><name>PT2799</name></trkpt>
<trkpt lat="52.704039" lon="06.060039"><ele>-2.4</ele><time>2022-09-06T11:50:45Z</time><name>PT2800</name></trkpt>
<trkpt lat="52.704046" lon="06.060064"><ele>-2.4</ele><time>2022-09-06T11:50:47Z</time><name>PT2801</name></trkpt>
<trkpt lat="52.704053" lon="06.060089"><ele>-2.1</ele><time>2022-09-06T11:50:48Z</time><name>PT2802</name></trkpt>
<trkpt lat="52.704059" lon="06.060114"><ele>-2.1</ele><time>2022-09-06T11:50:48Z</time><name>PT2803</name></trkpt>
<trkpt lat="52.704065" lon="06.060139"><ele>-1.9</ele><time>2022-09-06T11:50:50Z</time><name>PT2804</name></trkpt>
<trkpt lat="52.704071" lon="06.060163"><ele>-2</ele><time>2022-09-06T11:50:51Z</time><name>PT2805</name></trkpt>
<trkpt lat="52.704075" lon="06.060190"><ele>-2.1</ele><time>2022-09-06T11:50:51Z</time><name>PT2806</name></trkpt>
<trkpt lat="52.704081" lon="06.060217"><ele>-2.3</ele><time>2022-09-06T11:50:53Z</time><name>PT2807</name></trkpt>
<trkpt lat="52.704087" lon="06.060242"><ele>-2.5</ele><time>2022-09-06T11:50:54Z</time><name>PT2808</name></trkpt>
<trkpt lat="52.704093" lon="06.060266"><ele>-2.6</ele><time>2022-09-06T11:50:54Z</time><name>PT2809</name></trkpt>
<trkpt lat="52.704100" lon="06.060290"><ele>-2.7</ele><time>2022-09-06T11:50:56Z</time><name>PT2810</name></trkpt>
<trkpt lat="52.704106" lon="06.060315"><ele>-2.4</ele><time>2022-09-06T11:50:57Z</time><name>PT2811</name></trkpt>
<trkpt lat="52.704113" lon="06.060339"><ele>-2.2</ele><time>2022-09-06T11:50:57Z</time><name>PT2812</name></trkpt>
<trkpt lat="52.704119" lon="06.060363"><ele>-2.1</ele><time>2022-09-06T11:50:59Z</time><name>PT2813</name></trkpt>
<trkpt lat="52.704125" lon="06.060388"><ele>-2.4</ele><time>2022-09-06T11:51:00Z</time><name>PT2814</name></trkpt>
<trkpt lat="52.704131" lon="06.060412"><ele>-2.3</ele><time>2022-09-06T11:51:00Z</time><name>PT2815</name></trkpt>
<trkpt lat="52.704137" lon="06.060436"><ele>-2.5</ele><time>2022-09-06T11:51:02Z</time><name>PT2816</name></trkpt>
<trkpt lat="52.704143" lon="06.060461"><ele>-2.6</ele><time>2022-09-06T11:51:03Z</time><name>PT2817</name></trkpt>
<trkpt lat="52.704149" lon="06.060485"><ele>-2.5</ele><time>2022-09-06T11:51:03Z</time><name>PT2818</name></trkpt>
<trkpt lat="52.704154" lon="06.060511"><ele>-2.3</ele><time>2022-09-06T11:51:05Z</time><name>PT2819</name></trkpt>
<trkpt lat="52.704160" lon="06.060536"><ele>-2.5</ele><time>2022-09-06T11:51:06Z</time><name>PT2820</name></trkpt>
<trkpt lat="52.704165" lon="06.060561"><ele>-2.5</ele><time>2022-09-06T11:51:06Z</time><name>PT2821</name></trkpt>
<trkpt lat="52.704170" lon="06.060586"><ele>-2.6</ele><time>2022-09-06T11:51:08Z</time><name>PT2822</name></trkpt>
<trkpt lat="52.704175" lon="06.060610"><ele>-2.7</ele><time>2022-09-06T11:51:09Z</time><name>PT2823</name></trkpt>
<trkpt lat="52.704180" lon="06.060635"><ele>-2.8</ele><time>2022-09-06T11:51:09Z</time><name>PT2824</name></trkpt>
<trkpt lat="52.704185" lon="06.060660"><ele>-2.8</ele><time>2022-09-06T11:51:11Z</time><name>PT2825</name></trkpt>
<trkpt lat="52.704191" lon="06.060685"><ele>-2.9</ele><time>2022-09-06T11:51:12Z</time><name>PT2826</name></trkpt>
<trkpt lat="52.704196" lon="06.060711"><ele>-2.7</ele><time>2022-09-06T11:51:12Z</time><name>PT2827</name></trkpt>
<trkpt lat="52.704201" lon="06.060737"><ele>-2.7</ele><time>2022-09-06T11:51:14Z</time><name>PT2828</name></trkpt>
<trkpt lat="52.704206" lon="06.060761"><ele>-2.6</ele><time>2022-09-06T11:51:15Z</time><name>PT2829</name></trkpt>
<trkpt lat="52.704210" lon="06.060786"><ele>-2.5</ele><time>2022-09-06T11:51:15Z</time><name>PT2830</name></trkpt>
<trkpt lat="52.704214" lon="06.060812"><ele>-2.4</ele><time>2022-09-06T11:51:17Z</time><name>PT2831</name></trkpt>
<trkpt lat="52.704219" lon="06.060838"><ele>-2.5</ele><time>2022-09-06T11:51:18Z</time><name>PT2832</name></trkpt>
<trkpt lat="52.704224" lon="06.060863"><ele>-2.5</ele><time>2022-09-06T11:51:18Z</time><name>PT2833</name></trkpt>
<trkpt lat="52.704228" lon="06.060887"><ele>-2.6</ele><time>2022-09-06T11:51:20Z</time><name>PT2834</name></trkpt>
<trkpt lat="52.704233" lon="06.060912"><ele>-2.5</ele><time>2022-09-06T11:51:21Z</time><name>PT2835</name></trkpt>
<trkpt lat="52.704235" lon="06.060938"><ele>-2.7</ele><time>2022-09-06T11:51:21Z</time><name>PT2836</name></trkpt>
<trkpt lat="52.704240" lon="06.060964"><ele>-2.7</ele><time>2022-09-06T11:51:23Z</time><name>PT2837</name></trkpt>
<trkpt lat="52.704245" lon="06.060988"><ele>-2.6</ele><time>2022-09-06T11:51:24Z</time><name>PT2838</name></trkpt>
<trkpt lat="52.704250" lon="06.061016"><ele>-2.5</ele><time>2022-09-06T11:51:24Z</time><name>PT2839</name></trkpt>
<trkpt lat="52.704255" lon="06.061041"><ele>-2.6</ele><time>2022-09-06T11:51:26Z</time><name>PT2840</name></trkpt>
<trkpt lat="52.704259" lon="06.061067"><ele>-2.7</ele><time>2022-09-06T11:51:27Z</time><name>PT2841</name></trkpt>
<trkpt lat="52.704265" lon="06.061093"><ele>-2.7</ele><time>2022-09-06T11:51:27Z</time><name>PT2842</name></trkpt>
<trkpt lat="52.704270" lon="06.061119"><ele>-2.7</ele><time>2022-09-06T11:51:29Z</time><name>PT2843</name></trkpt>
<trkpt lat="52.704275" lon="06.061145"><ele>-2.6</ele><time>2022-09-06T11:51:30Z</time><name>PT2844</name></trkpt>
<trkpt lat="52.704279" lon="06.061171"><ele>-2.6</ele><time>2022-09-06T11:51:30Z</time><name>PT2845</name></trkpt>
<trkpt lat="52.704284" lon="06.061197"><ele>-2.6</ele><time>2022-09-06T11:51:32Z</time><name>PT2846</name></trkpt>
<trkpt lat="52.704289" lon="06.061222"><ele>-2.3</ele><time>2022-09-06T11:51:33Z</time><name>PT2847</name></trkpt>
<trkpt lat="52.704294" lon="06.061248"><ele>-2.2</ele><time>2022-09-06T11:51:33Z</time><name>PT2848</name></trkpt>
<trkpt lat="52.704299" lon="06.061275"><ele>-2.1</ele><time>2022-09-06T11:51:35Z</time><name>PT2849</name></trkpt>
<trkpt lat="52.704303" lon="06.061301"><ele>-2</ele><time>2022-09-06T11:51:36Z</time><name>PT2850</name></trkpt>
<trkpt lat="52.704308" lon="06.061328"><ele>-2.1</ele><time>2022-09-06T11:51:36Z</time><name>PT2851</name></trkpt>
<trkpt lat="52.704312" lon="06.061355"><ele>-2.2</ele><time>2022-09-06T11:51:38Z</time><name>PT2852</name></trkpt>
<trkpt lat="52.704317" lon="06.061385"><ele>-2.3</ele><time>2022-09-06T11:51:39Z</time><name>PT2853</name></trkpt>
<trkpt lat="52.704321" lon="06.061414"><ele>-2.3</ele><time>2022-09-06T11:51:39Z</time><name>PT2854</name></trkpt>
<trkpt lat="52.704323" lon="06.061443"><ele>-2.2</ele><time>2022-09-06T11:51:41Z</time><name>PT2855</name></trkpt>
<trkpt lat="52.704327" lon="06.061472"><ele>-2.2</ele><time>2022-09-06T11:51:42Z</time><name>PT2856</name></trkpt>
<trkpt lat="52.704330" lon="06.061498"><ele>-2.2</ele><time>2022-09-06T11:51:42Z</time><name>PT2857</name></trkpt>
<trkpt lat="52.704334" lon="06.061524"><ele>-2.2</ele><time>2022-09-06T11:51:44Z</time><name>PT2858</name></trkpt>
<trkpt lat="52.704338" lon="06.061550"><ele>-2.2</ele><time>2022-09-06T11:51:45Z</time><name>PT2859</name></trkpt>
<trkpt lat="52.704342" lon="06.061577"><ele>-2.2</ele><time>2022-09-06T11:51:45Z</time><name>PT2860</name></trkpt>
<trkpt lat="52.704346" lon="06.061602"><ele>-2.1</ele><time>2022-09-06T11:51:47Z</time><name>PT2861</name></trkpt>
<trkpt lat="52.704350" lon="06.061628"><ele>-2.1</ele><time>2022-09-06T11:51:48Z</time><name>PT2862</name></trkpt>
<trkpt lat="52.704354" lon="06.061654"><ele>-2</ele><time>2022-09-06T11:51:48Z</time><name>PT2863</name></trkpt>
<trkpt lat="52.704358" lon="06.061679"><ele>-2.3</ele><time>2022-09-06T11:51:50Z</time><name>PT2864</name></trkpt>
<trkpt lat="52.704362" lon="06.061704"><ele>-2.4</ele><time>2022-09-06T11:51:51Z</time><name>PT2865</name></trkpt>
<trkpt lat="52.704365" lon="06.061730"><ele>-2.5</ele><time>2022-09-06T11:51:51Z</time><name>PT2866</name></trkpt>
<trkpt lat="52.704369" lon="06.061757"><ele>-2.5</ele><time>2022-09-06T11:51:53Z</time><name>PT2867</name></trkpt>
<trkpt lat="52.704372" lon="06.061783"><ele>-2.5</ele><time>2022-09-06T11:51:54Z</time><name>PT2868</name></trkpt>
<trkpt lat="52.704375" lon="06.061809"><ele>-2.4</ele><time>2022-09-06T11:51:54Z</time><name>PT2869</name></trkpt>
<trkpt lat="52.704377" lon="06.061834"><ele>-2.4</ele><time>2022-09-06T11:51:56Z</time><name>PT2870</name></trkpt>
<trkpt lat="52.704379" lon="06.061860"><ele>-2.2</ele><time>2022-09-06T11:51:57Z</time><name>PT2871</name></trkpt>
<trkpt lat="52.704382" lon="06.061888"><ele>-2.3</ele><time>2022-09-06T11:51:57Z</time><name>PT2872</name></trkpt>
<trkpt lat="52.704385" lon="06.061912"><ele>-2.1</ele><time>2022-09-06T11:51:59Z</time><name>PT2873</name></trkpt>
<trkpt lat="52.704388" lon="06.061939"><ele>-2</ele><time>2022-09-06T11:52:00Z</time><name>PT2874</name></trkpt>
<trkpt lat="52.704392" lon="06.061965"><ele>-2</ele><time>2022-09-06T11:52:00Z</time><name>PT2875</name></trkpt>
<trkpt lat="52.704394" lon="06.061991"><ele>-2</ele><time>2022-09-06T11:52:02Z</time><name>PT2876</name></trkpt>
<trkpt lat="52.704397" lon="06.062017"><ele>-1.9</ele><time>2022-09-06T11:52:03Z</time><name>PT2877</name></trkpt>
<trkpt lat="52.704399" lon="06.062043"><ele>-2</ele><time>2022-09-06T11:52:04Z</time><name>PT2878</name></trkpt>
<trkpt lat="52.704402" lon="06.062068"><ele>-2.1</ele><time>2022-09-06T11:52:05Z</time><name>PT2879</name></trkpt>
<trkpt lat="52.704404" lon="06.062094"><ele>-2.1</ele><time>2022-09-06T11:52:06Z</time><name>PT2880</name></trkpt>
<trkpt lat="52.704407" lon="06.062120"><ele>-2.1</ele><time>2022-09-06T11:52:06Z</time><name>PT2881</name></trkpt>
<trkpt lat="52.704410" lon="06.062146"><ele>-2.1</ele><time>2022-09-06T11:52:08Z</time><name>PT2882</name></trkpt>
<trkpt lat="52.704413" lon="06.062171"><ele>-2</ele><time>2022-09-06T11:52:09Z</time><name>PT2883</name></trkpt>
<trkpt lat="52.704415" lon="06.062197"><ele>-2</ele><time>2022-09-06T11:52:09Z</time><name>PT2884</name></trkpt>
<trkpt lat="52.704418" lon="06.062223"><ele>-2</ele><time>2022-09-06T11:52:11Z</time><name>PT2885</name></trkpt>
<trkpt lat="52.704421" lon="06.062250"><ele>-2.1</ele><time>2022-09-06T11:52:12Z</time><name>PT2886</name></trkpt>
<trkpt lat="52.704423" lon="06.062276"><ele>-2</ele><time>2022-09-06T11:52:12Z</time><name>PT2887</name></trkpt>
<trkpt lat="52.704426" lon="06.062302"><ele>-2.2</ele><time>2022-09-06T11:52:14Z</time><name>PT2888</name></trkpt>
<trkpt lat="52.704429" lon="06.062327"><ele>-2</ele><time>2022-09-06T11:52:15Z</time><name>PT2889</name></trkpt>
<trkpt lat="52.704431" lon="06.062353"><ele>-2.1</ele><time>2022-09-06T11:52:15Z</time><name>PT2890</name></trkpt>
<trkpt lat="52.704434" lon="06.062379"><ele>-2.1</ele><time>2022-09-06T11:52:16Z</time><name>PT2891</name></trkpt>
<trkpt lat="52.704436" lon="06.062405"><ele>-2.1</ele><time>2022-09-06T11:52:18Z</time><name>PT2892</name></trkpt>
<trkpt lat="52.704439" lon="06.062431"><ele>-2</ele><time>2022-09-06T11:52:18Z</time><name>PT2893</name></trkpt>
<trkpt lat="52.704442" lon="06.062457"><ele>-2.1</ele><time>2022-09-06T11:52:20Z</time><name>PT2894</name></trkpt>
<trkpt lat="52.704444" lon="06.062483"><ele>-2</ele><time>2022-09-06T11:52:21Z</time><name>PT2895</name></trkpt>
<trkpt lat="52.704447" lon="06.062509"><ele>-2</ele><time>2022-09-06T11:52:21Z</time><name>PT2896</name></trkpt>
<trkpt lat="52.704450" lon="06.062535"><ele>-2.1</ele><time>2022-09-06T11:52:23Z</time><name>PT2897</name></trkpt>
<trkpt lat="52.704452" lon="06.062562"><ele>-2</ele><time>2022-09-06T11:52:24Z</time><name>PT2898</name></trkpt>
<trkpt lat="52.704454" lon="06.062588"><ele>-2</ele><time>2022-09-06T11:52:24Z</time><name>PT2899</name></trkpt>
<trkpt lat="52.704457" lon="06.062614"><ele>-2.1</ele><time>2022-09-06T11:52:26Z</time><name>PT2900</name></trkpt>
<trkpt lat="52.704460" lon="06.062641"><ele>-2.1</ele><time>2022-09-06T11:52:27Z</time><name>PT2901</name></trkpt>
<trkpt lat="52.704463" lon="06.062666"><ele>-2</ele><time>2022-09-06T11:52:27Z</time><name>PT2902</name></trkpt>
<trkpt lat="52.704464" lon="06.062691"><ele>-2.2</ele><time>2022-09-06T11:52:29Z</time><name>PT2903</name></trkpt>
<trkpt lat="52.704466" lon="06.062717"><ele>-2.1</ele><time>2022-09-06T11:52:30Z</time><name>PT2904</name></trkpt>
<trkpt lat="52.704467" lon="06.062742"><ele>-2.1</ele><time>2022-09-06T11:52:30Z</time><name>PT2905</name></trkpt>
<trkpt lat="52.704469" lon="06.062768"><ele>-2</ele><time>2022-09-06T11:52:32Z</time><name>PT2906</name></trkpt>
<trkpt lat="52.704471" lon="06.062793"><ele>-2.1</ele><time>2022-09-06T11:52:33Z</time><name>PT2907</name></trkpt>
<trkpt lat="52.704473" lon="06.062819"><ele>-2</ele><time>2022-09-06T11:52:33Z</time><name>PT2908</name></trkpt>
<trkpt lat="52.704476" lon="06.062846"><ele>-2.1</ele><time>2022-09-06T11:52:35Z</time><name>PT2909</name></trkpt>
<trkpt lat="52.704478" lon="06.062873"><ele>-2.1</ele><time>2022-09-06T11:52:36Z</time><name>PT2910</name></trkpt>
<trkpt lat="52.704482" lon="06.062902"><ele>-2</ele><time>2022-09-06T11:52:36Z</time><name>PT2911</name></trkpt>
<trkpt lat="52.704485" lon="06.062928"><ele>-2</ele><time>2022-09-06T11:52:38Z</time><name>PT2912</name></trkpt>
<trkpt lat="52.704488" lon="06.062955"><ele>-2</ele><time>2022-09-06T11:52:39Z</time><name>PT2913</name></trkpt>
<trkpt lat="52.704491" lon="06.062981"><ele>-2</ele><time>2022-09-06T11:52:39Z</time><name>PT2914</name></trkpt>
<trkpt lat="52.704494" lon="06.063008"><ele>-2</ele><time>2022-09-06T11:52:41Z</time><name>PT2915</name></trkpt>
<trkpt lat="52.704497" lon="06.063034"><ele>-2</ele><time>2022-09-06T11:52:42Z</time><name>PT2916</name></trkpt>
<trkpt lat="52.704500" lon="06.063060"><ele>-2</ele><time>2022-09-06T11:52:42Z</time><name>PT2917</name></trkpt>
<trkpt lat="52.704504" lon="06.063088"><ele>-2</ele><time>2022-09-06T11:52:44Z</time><name>PT2918</name></trkpt>
<trkpt lat="52.704507" lon="06.063115"><ele>-2</ele><time>2022-09-06T11:52:45Z</time><name>PT2919</name></trkpt>
<trkpt lat="52.704510" lon="06.063142"><ele>-2.1</ele><time>2022-09-06T11:52:45Z</time><name>PT2920</name></trkpt>
<trkpt lat="52.704512" lon="06.063168"><ele>-2</ele><time>2022-09-06T11:52:47Z</time><name>PT2921</name></trkpt>
<trkpt lat="52.704515" lon="06.063195"><ele>-2</ele><time>2022-09-06T11:52:48Z</time><name>PT2922</name></trkpt>
<trkpt lat="52.704517" lon="06.063221"><ele>-2</ele><time>2022-09-06T11:52:48Z</time><name>PT2923</name></trkpt>
<trkpt lat="52.704520" lon="06.063247"><ele>-2</ele><time>2022-09-06T11:52:50Z</time><name>PT2924</name></trkpt>
<trkpt lat="52.704523" lon="06.063274"><ele>-2.1</ele><time>2022-09-06T11:52:51Z</time><name>PT2925</name></trkpt>
<trkpt lat="52.704526" lon="06.063301"><ele>-2.1</ele><time>2022-09-06T11:52:51Z</time><name>PT2926</name></trkpt>
<trkpt lat="52.704529" lon="06.063328"><ele>-2.1</ele><time>2022-09-06T11:52:53Z</time><name>PT2927</name></trkpt>
<trkpt lat="52.704531" lon="06.063355"><ele>-2.2</ele><time>2022-09-06T11:52:54Z</time><name>PT2928</name></trkpt>
<trkpt lat="52.704534" lon="06.063382"><ele>-2.2</ele><time>2022-09-06T11:52:54Z</time><name>PT2929</name></trkpt>
<trkpt lat="52.704536" lon="06.063408"><ele>-2.1</ele><time>2022-09-06T11:52:56Z</time><name>PT2930</name></trkpt>
<trkpt lat="52.704538" lon="06.063437"><ele>-2.1</ele><time>2022-09-06T11:52:57Z</time><name>PT2931</name></trkpt>
<trkpt lat="52.704540" lon="06.063464"><ele>-2.1</ele><time>2022-09-06T11:52:57Z</time><name>PT2932</name></trkpt>
<trkpt lat="52.704542" lon="06.063491"><ele>-2</ele><time>2022-09-06T11:52:59Z</time><name>PT2933</name></trkpt>
<trkpt lat="52.704543" lon="06.063518"><ele>-2</ele><time>2022-09-06T11:53:00Z</time><name>PT2934</name></trkpt>
<trkpt lat="52.704545" lon="06.063544"><ele>-2</ele><time>2022-09-06T11:53:00Z</time><name>PT2935</name></trkpt>
<trkpt lat="52.704548" lon="06.063569"><ele>-1.9</ele><time>2022-09-06T11:53:02Z</time><name>PT2936</name></trkpt>
<trkpt lat="52.704550" lon="06.063594"><ele>-2</ele><time>2022-09-06T11:53:03Z</time><name>PT2937</name></trkpt>
<trkpt lat="52.704551" lon="06.063621"><ele>-2</ele><time>2022-09-06T11:53:03Z</time><name>PT2938</name></trkpt>
<trkpt lat="52.704553" lon="06.063647"><ele>-2</ele><time>2022-09-06T11:53:05Z</time><name>PT2939</name></trkpt>
<trkpt lat="52.704555" lon="06.063673"><ele>-2.1</ele><time>2022-09-06T11:53:06Z</time><name>PT2940</name></trkpt>
<trkpt lat="52.704556" lon="06.063698"><ele>-2.2</ele><time>2022-09-06T11:53:06Z</time><name>PT2941</name></trkpt>
<trkpt lat="52.704557" lon="06.063724"><ele>-2</ele><time>2022-09-06T11:53:08Z</time><name>PT2942</name></trkpt>
<trkpt lat="52.704562" lon="06.063755"><ele>-2</ele><time>2022-09-06T11:53:09Z</time><name>PT2943</name></trkpt>
<trkpt lat="52.704563" lon="06.063783"><ele>-1.8</ele><time>2022-09-06T11:53:09Z</time><name>PT2944</name></trkpt>
<trkpt lat="52.704564" lon="06.063810"><ele>-1.6</ele><time>2022-09-06T11:53:11Z</time><name>PT2945</name></trkpt>
<trkpt lat="52.704564" lon="06.063835"><ele>-1.5</ele><time>2022-09-06T11:53:12Z</time><name>PT2946</name></trkpt>
<trkpt lat="52.704564" lon="06.063859"><ele>-1.5</ele><time>2022-09-06T11:53:12Z</time><name>PT2947</name></trkpt>
<trkpt lat="52.704565" lon="06.063886"><ele>-1.5</ele><time>2022-09-06T11:53:14Z</time><name>PT2948</name></trkpt>
<trkpt lat="52.704565" lon="06.063912"><ele>-1.8</ele><time>2022-09-06T11:53:15Z</time><name>PT2949</name></trkpt>
<trkpt lat="52.704566" lon="06.063939"><ele>-2</ele><time>2022-09-06T11:53:15Z</time><name>PT2950</name></trkpt>
<trkpt lat="52.704567" lon="06.063965"><ele>-1.9</ele><time>2022-09-06T11:53:17Z</time><name>PT2951</name></trkpt>
<trkpt lat="52.704567" lon="06.063992"><ele>-1.9</ele><time>2022-09-06T11:53:18Z</time><name>PT2952</name></trkpt>
<trkpt lat="52.704568" lon="06.064019"><ele>-2</ele><time>2022-09-06T11:53:18Z</time><name>PT2953</name></trkpt>
<trkpt lat="52.704569" lon="06.064046"><ele>-2</ele><time>2022-09-06T11:53:20Z</time><name>PT2954</name></trkpt>
<trkpt lat="52.704569" lon="06.064073"><ele>-1.9</ele><time>2022-09-06T11:53:21Z</time><name>PT2955</name></trkpt>
<trkpt lat="52.704570" lon="06.064099"><ele>-1.9</ele><time>2022-09-06T11:53:21Z</time><name>PT2956</name></trkpt>
<trkpt lat="52.704570" lon="06.064126"><ele>-2</ele><time>2022-09-06T11:53:23Z</time><name>PT2957</name></trkpt>
<trkpt lat="52.704570" lon="06.064152"><ele>-1.9</ele><time>2022-09-06T11:53:24Z</time><name>PT2958</name></trkpt>
<trkpt lat="52.704570" lon="06.064178"><ele>-1.8</ele><time>2022-09-06T11:53:24Z</time><name>PT2959</name></trkpt>
<trkpt lat="52.704569" lon="06.064204"><ele>-2</ele><time>2022-09-06T11:53:26Z</time><name>PT2960</name></trkpt>
<trkpt lat="52.704568" lon="06.064231"><ele>-2</ele><time>2022-09-06T11:53:27Z</time><name>PT2961</name></trkpt>
<trkpt lat="52.704568" lon="06.064258"><ele>-2</ele><time>2022-09-06T11:53:27Z</time><name>PT2962</name></trkpt>
<trkpt lat="52.704567" lon="06.064285"><ele>-2</ele><time>2022-09-06T11:53:29Z</time><name>PT2963</name></trkpt>
<trkpt lat="52.704566" lon="06.064311"><ele>-2</ele><time>2022-09-06T11:53:30Z</time><name>PT2964</name></trkpt>
<trkpt lat="52.704565" lon="06.064338"><ele>-2</ele><time>2022-09-06T11:53:30Z</time><name>PT2965</name></trkpt>
<trkpt lat="52.704565" lon="06.064366"><ele>-2.1</ele><time>2022-09-06T11:53:32Z</time><name>PT2966</name></trkpt>
<trkpt lat="52.704565" lon="06.064393"><ele>-2.3</ele><time>2022-09-06T11:53:33Z</time><name>PT2967</name></trkpt>
<trkpt lat="52.704564" lon="06.064420"><ele>-2.3</ele><time>2022-09-06T11:53:33Z</time><name>PT2968</name></trkpt>
<trkpt lat="52.704562" lon="06.064445"><ele>-2.4</ele><time>2022-09-06T11:53:35Z</time><name>PT2969</name></trkpt>
<trkpt lat="52.704561" lon="06.064471"><ele>-2.5</ele><time>2022-09-06T11:53:36Z</time><name>PT2970</name></trkpt>
<trkpt lat="52.704559" lon="06.064495"><ele>-2.7</ele><time>2022-09-06T11:53:36Z</time><name>PT2971</name></trkpt>
<trkpt lat="52.704557" lon="06.064519"><ele>-2.9</ele><time>2022-09-06T11:53:38Z</time><name>PT2972</name></trkpt>
<trkpt lat="52.704555" lon="06.064544"><ele>-2.9</ele><time>2022-09-06T11:53:39Z</time><name>PT2973</name></trkpt>
<trkpt lat="52.704555" lon="06.064572"><ele>-2.8</ele><time>2022-09-06T11:53:39Z</time><name>PT2974</name></trkpt>
<trkpt lat="52.704553" lon="06.064597"><ele>-2.5</ele><time>2022-09-06T11:53:41Z</time><name>PT2975</name></trkpt>
<trkpt lat="52.704552" lon="06.064622"><ele>-2.2</ele><time>2022-09-06T11:53:42Z</time><name>PT2976</name></trkpt>
<trkpt lat="52.704550" lon="06.064647"><ele>-2.3</ele><time>2022-09-06T11:53:42Z</time><name>PT2977</name></trkpt>
<trkpt lat="52.704549" lon="06.064672"><ele>-2.3</ele><time>2022-09-06T11:53:44Z</time><name>PT2978</name></trkpt>
<trkpt lat="52.704547" lon="06.064697"><ele>-2.5</ele><time>2022-09-06T11:53:45Z</time><name>PT2979</name></trkpt>
<trkpt lat="52.704545" lon="06.064722"><ele>-2.5</ele><time>2022-09-06T11:53:45Z</time><name>PT2980</name></trkpt>
<trkpt lat="52.704544" lon="06.064751"><ele>-2.6</ele><time>2022-09-06T11:53:47Z</time><name>PT2981</name></trkpt>
<trkpt lat="52.704543" lon="06.064778"><ele>-2.5</ele><time>2022-09-06T11:53:48Z</time><name>PT2982</name></trkpt>
<trkpt lat="52.704542" lon="06.064805"><ele>-2.4</ele><time>2022-09-06T11:53:48Z</time><name>PT2983</name></trkpt>
<trkpt lat="52.704541" lon="06.064830"><ele>-2.4</ele><time>2022-09-06T11:53:50Z</time><name>PT2984</name></trkpt>
<trkpt lat="52.704540" lon="06.064855"><ele>-2.4</ele><time>2022-09-06T11:53:51Z</time><name>PT2985</name></trkpt>
<trkpt lat="52.704540" lon="06.064883"><ele>-2</ele><time>2022-09-06T11:53:51Z</time><name>PT2986</name></trkpt>
<trkpt lat="52.704540" lon="06.064911"><ele>-2</ele><time>2022-09-06T11:53:53Z</time><name>PT2987</name></trkpt>
<trkpt lat="52.704539" lon="06.064937"><ele>-1.9</ele><time>2022-09-06T11:53:54Z</time><name>PT2988</name></trkpt>
<trkpt lat="52.704538" lon="06.064964"><ele>-1.9</ele><time>2022-09-06T11:53:54Z</time><name>PT2989</name></trkpt>
<trkpt lat="52.704537" lon="06.064990"><ele>-1.8</ele><time>2022-09-06T11:53:56Z</time><name>PT2990</name></trkpt>
<trkpt lat="52.704536" lon="06.065018"><ele>-2</ele><time>2022-09-06T11:53:57Z</time><name>PT2991</name></trkpt>
<trkpt lat="52.704535" lon="06.065045"><ele>-2</ele><time>2022-09-06T11:53:57Z</time><name>PT2992</name></trkpt>
<trkpt lat="52.704534" lon="06.065072"><ele>-2</ele><time>2022-09-06T11:53:58Z</time><name>PT2993</name></trkpt>
<trkpt lat="52.704532" lon="06.065098"><ele>-2</ele><time>2022-09-06T11:54:00Z</time><name>PT2994</name></trkpt>
<trkpt lat="52.704530" lon="06.065125"><ele>-1.9</ele><time>2022-09-06T11:54:00Z</time><name>PT2995</name></trkpt>
<trkpt lat="52.704528" lon="06.065151"><ele>-1.9</ele><time>2022-09-06T11:54:02Z</time><name>PT2996</name></trkpt>
<trkpt lat="52.704526" lon="06.065178"><ele>-1.8</ele><time>2022-09-06T11:54:03Z</time><name>PT2997</name></trkpt>
<trkpt lat="52.704523" lon="06.065204"><ele>-1.8</ele><time>2022-09-06T11:54:03Z</time><name>PT2998</name></trkpt>
<trkpt lat="52.704521" lon="06.065231"><ele>-1.7</ele><time>2022-09-06T11:54:04Z</time><name>PT2999</name></trkpt>
<trkpt lat="52.704519" lon="06.065257"><ele>-1.9</ele><time>2022-09-06T11:54:06Z</time><name>PT3000</name></trkpt>
<trkpt lat="52.704515" lon="06.065284"><ele>-1.8</ele><time>2022-09-06T11:54:06Z</time><name>PT3001</name></trkpt>
<trkpt lat="52.704512" lon="06.065311"><ele>-1.9</ele><time>2022-09-06T11:54:08Z</time><name>PT3002</name></trkpt>
<trkpt lat="52.704508" lon="06.065339"><ele>-1.9</ele><time>2022-09-06T11:54:09Z</time><name>PT3003</name></trkpt>
<trkpt lat="52.704504" lon="06.065364"><ele>-1.8</ele><time>2022-09-06T11:54:09Z</time><name>PT3004</name></trkpt>
<trkpt lat="52.704500" lon="06.065389"><ele>-1.7</ele><time>2022-09-06T11:54:10Z</time><name>PT3005</name></trkpt>
<trkpt lat="52.704496" lon="06.065415"><ele>-1.7</ele><time>2022-09-06T11:54:12Z</time><name>PT3006</name></trkpt>
<trkpt lat="52.704492" lon="06.065442"><ele>-1.6</ele><time>2022-09-06T11:54:12Z</time><name>PT3007</name></trkpt>
<trkpt lat="52.704488" lon="06.065468"><ele>-1.8</ele><time>2022-09-06T11:54:14Z</time><name>PT3008</name></trkpt>
<trkpt lat="52.704483" lon="06.065492"><ele>-1.8</ele><time>2022-09-06T11:54:15Z</time><name>PT3009</name></trkpt>
<trkpt lat="52.704479" lon="06.065517"><ele>-1.7</ele><time>2022-09-06T11:54:15Z</time><name>PT3010</name></trkpt>
<trkpt lat="52.704474" lon="06.065542"><ele>-1.6</ele><time>2022-09-06T11:54:17Z</time><name>PT3011</name></trkpt>
<trkpt lat="52.704469" lon="06.065567"><ele>-1.7</ele><time>2022-09-06T11:54:18Z</time><name>PT3012</name></trkpt>
<trkpt lat="52.704464" lon="06.065592"><ele>-1.7</ele><time>2022-09-06T11:54:18Z</time><name>PT3013</name></trkpt>
<trkpt lat="52.704458" lon="06.065616"><ele>-1.7</ele><time>2022-09-06T11:54:20Z</time><name>PT3014</name></trkpt>
<trkpt lat="52.704452" lon="06.065641"><ele>-1.8</ele><time>2022-09-06T11:54:21Z</time><name>PT3015</name></trkpt>
<trkpt lat="52.704447" lon="06.065665"><ele>-1.8</ele><time>2022-09-06T11:54:21Z</time><name>PT3016</name></trkpt>
<trkpt lat="52.704442" lon="06.065688"><ele>-1.6</ele><time>2022-09-06T11:54:23Z</time><name>PT3017</name></trkpt>
<trkpt lat="52.704435" lon="06.065712"><ele>-1.7</ele><time>2022-09-06T11:54:24Z</time><name>PT3018</name></trkpt>
<trkpt lat="52.704429" lon="06.065737"><ele>-1.7</ele><time>2022-09-06T11:54:24Z</time><name>PT3019</name></trkpt>
<trkpt lat="52.704424" lon="06.065762"><ele>-1.8</ele><time>2022-09-06T11:54:26Z</time><name>PT3020</name></trkpt>
<trkpt lat="52.704418" lon="06.065787"><ele>-1.7</ele><time>2022-09-06T11:54:27Z</time><name>PT3021</name></trkpt>
<trkpt lat="52.704411" lon="06.065811"><ele>-1.5</ele><time>2022-09-06T11:54:27Z</time><name>PT3022</name></trkpt>
<trkpt lat="52.704405" lon="06.065836"><ele>-1.5</ele><time>2022-09-06T11:54:29Z</time><name>PT3023</name></trkpt>
<trkpt lat="52.704398" lon="06.065861"><ele>-1.5</ele><time>2022-09-06T11:54:30Z</time><name>PT3024</name></trkpt>
<trkpt lat="52.704391" lon="06.065886"><ele>-1.5</ele><time>2022-09-06T11:54:30Z</time><name>PT3025</name></trkpt>
<trkpt lat="52.704384" lon="06.065909"><ele>-1.6</ele><time>2022-09-06T11:54:32Z</time><name>PT3026</name></trkpt>
<trkpt lat="52.704377" lon="06.065934"><ele>-1.5</ele><time>2022-09-06T11:54:33Z</time><name>PT3027</name></trkpt>
<trkpt lat="52.704369" lon="06.065958"><ele>-1.5</ele><time>2022-09-06T11:54:33Z</time><name>PT3028</name></trkpt>
<trkpt lat="52.704361" lon="06.065981"><ele>-1.5</ele><time>2022-09-06T11:54:35Z</time><name>PT3029</name></trkpt>
<trkpt lat="52.704353" lon="06.066005"><ele>-1.5</ele><time>2022-09-06T11:54:36Z</time><name>PT3030</name></trkpt>
<trkpt lat="52.704345" lon="06.066028"><ele>-1.5</ele><time>2022-09-06T11:54:36Z</time><name>PT3031</name></trkpt>
<trkpt lat="52.704336" lon="06.066051"><ele>-1.7</ele><time>2022-09-06T11:54:37Z</time><name>PT3032</name></trkpt>
<trkpt lat="52.704327" lon="06.066074"><ele>-1.7</ele><time>2022-09-06T11:54:39Z</time><name>PT3033</name></trkpt>
<trkpt lat="52.704318" lon="06.066097"><ele>-2</ele><time>2022-09-06T11:54:39Z</time><name>PT3034</name></trkpt>
<trkpt lat="52.704309" lon="06.066118"><ele>-2</ele><time>2022-09-06T11:54:41Z</time><name>PT3035</name></trkpt>
<trkpt lat="52.704300" lon="06.066141"><ele>-2</ele><time>2022-09-06T11:54:42Z</time><name>PT3036</name></trkpt>
<trkpt lat="52.704291" lon="06.066163"><ele>-2</ele><time>2022-09-06T11:54:42Z</time><name>PT3037</name></trkpt>
<trkpt lat="52.704282" lon="06.066185"><ele>-2</ele><time>2022-09-06T11:54:44Z</time><name>PT3038</name></trkpt>
<trkpt lat="52.704273" lon="06.066207"><ele>-1.8</ele><time>2022-09-06T11:54:45Z</time><name>PT3039</name></trkpt>
<trkpt lat="52.704264" lon="06.066229"><ele>-1.8</ele><time>2022-09-06T11:54:45Z</time><name>PT3040</name></trkpt>
<trkpt lat="52.704255" lon="06.066250"><ele>-1.7</ele><time>2022-09-06T11:54:47Z</time><name>PT3041</name></trkpt>
<trkpt lat="52.704246" lon="06.066271"><ele>-1.9</ele><time>2022-09-06T11:54:48Z</time><name>PT3042</name></trkpt>
<trkpt lat="52.704236" lon="06.066293"><ele>-2</ele><time>2022-09-06T11:54:48Z</time><name>PT3043</name></trkpt>
<trkpt lat="52.704227" lon="06.066314"><ele>-1.9</ele><time>2022-09-06T11:54:50Z</time><name>PT3044</name></trkpt>
<trkpt lat="52.704219" lon="06.066336"><ele>-1.9</ele><time>2022-09-06T11:54:51Z</time><name>PT3045</name></trkpt>
<trkpt lat="52.704210" lon="06.066358"><ele>-1.9</ele><time>2022-09-06T11:54:51Z</time><name>PT3046</name></trkpt>
<trkpt lat="52.704202" lon="06.066379"><ele>-1.9</ele><time>2022-09-06T11:54:52Z</time><name>PT3047</name></trkpt>
<trkpt lat="52.704193" lon="06.066400"><ele>-1.8</ele><time>2022-09-06T11:54:54Z</time><name>PT3048</name></trkpt>
<trkpt lat="52.704184" lon="06.066421"><ele>-1.7</ele><time>2022-09-06T11:54:54Z</time><name>PT3049</name></trkpt>
<trkpt lat="52.704176" lon="06.066443"><ele>-1.6</ele><time>2022-09-06T11:54:55Z</time><name>PT3050</name></trkpt>
<trkpt lat="52.704167" lon="06.066464"><ele>-1.7</ele><time>2022-09-06T11:54:57Z</time><name>PT3051</name></trkpt>
<trkpt lat="52.704158" lon="06.066486"><ele>-1.8</ele><time>2022-09-06T11:54:57Z</time><name>PT3052</name></trkpt>
<trkpt lat="52.704149" lon="06.066507"><ele>-1.9</ele><time>2022-09-06T11:54:59Z</time><name>PT3053</name></trkpt>
<trkpt lat="52.704141" lon="06.066530"><ele>-1.9</ele><time>2022-09-06T11:55:00Z</time><name>PT3054</name></trkpt>
<trkpt lat="52.704132" lon="06.066552"><ele>-1.9</ele><time>2022-09-06T11:55:00Z</time><name>PT3055</name></trkpt>
<trkpt lat="52.704123" lon="06.066574"><ele>-1.7</ele><time>2022-09-06T11:55:01Z</time><name>PT3056</name></trkpt>
<trkpt lat="52.704114" lon="06.066596"><ele>-1.6</ele><time>2022-09-06T11:55:03Z</time><name>PT3057</name></trkpt>
<trkpt lat="52.704105" lon="06.066618"><ele>-1.5</ele><time>2022-09-06T11:55:03Z</time><name>PT3058</name></trkpt>
<trkpt lat="52.704096" lon="06.066640"><ele>-1.5</ele><time>2022-09-06T11:55:04Z</time><name>PT3059</name></trkpt>
<trkpt lat="52.704087" lon="06.066662"><ele>-1.9</ele><time>2022-09-06T11:55:06Z</time><name>PT3060</name></trkpt>
<trkpt lat="52.704078" lon="06.066685"><ele>-1.9</ele><time>2022-09-06T11:55:06Z</time><name>PT3061</name></trkpt>
<trkpt lat="52.704069" lon="06.066709"><ele>-2</ele><time>2022-09-06T11:55:08Z</time><name>PT3062</name></trkpt>
<trkpt lat="52.704060" lon="06.066732"><ele>-1.9</ele><time>2022-09-06T11:55:09Z</time><name>PT3063</name></trkpt>
<trkpt lat="52.704051" lon="06.066753"><ele>-1.9</ele><time>2022-09-06T11:55:09Z</time><name>PT3064</name></trkpt>
<trkpt lat="52.704042" lon="06.066776"><ele>-1.6</ele><time>2022-09-06T11:55:10Z</time><name>PT3065</name></trkpt>
<trkpt lat="52.704035" lon="06.066797"><ele>-1.6</ele><time>2022-09-06T11:55:12Z</time><name>PT3066</name></trkpt>
<trkpt lat="52.704026" lon="06.066820"><ele>-1.7</ele><time>2022-09-06T11:55:12Z</time><name>PT3067</name></trkpt>
<trkpt lat="52.704019" lon="06.066837"><ele>-1.9</ele><time>2022-09-06T11:55:14Z</time><name>PT3068</name></trkpt>
<trkpt lat="52.704012" lon="06.066854"><ele>-2</ele><time>2022-09-06T11:55:15Z</time><name>PT3069</name></trkpt>
<trkpt lat="52.704005" lon="06.066870"><ele>-2</ele><time>2022-09-06T11:55:15Z</time><name>PT3070</name></trkpt>
<trkpt lat="52.703998" lon="06.066887"><ele>-2</ele><time>2022-09-06T11:55:17Z</time><name>PT3071</name></trkpt>
<trkpt lat="52.703991" lon="06.066903"><ele>-2</ele><time>2022-09-06T11:55:18Z</time><name>PT3072</name></trkpt>
<trkpt lat="52.703983" lon="06.066920"><ele>-2</ele><time>2022-09-06T11:55:18Z</time><name>PT3073</name></trkpt>
<trkpt lat="52.703975" lon="06.066939"><ele>-2</ele><time>2022-09-06T11:55:20Z</time><name>PT3074</name></trkpt>
<trkpt lat="52.703967" lon="06.066959"><ele>-1.9</ele><time>2022-09-06T11:55:21Z</time><name>PT3075</name></trkpt>
<trkpt lat="52.703959" lon="06.066978"><ele>-2</ele><time>2022-09-06T11:55:21Z</time><name>PT3076</name></trkpt>
<trkpt lat="52.703951" lon="06.066998"><ele>-1.9</ele><time>2022-09-06T11:55:23Z</time><name>PT3077</name></trkpt>
<trkpt lat="52.703942" lon="06.067021"><ele>-1.7</ele><time>2022-09-06T11:55:24Z</time><name>PT3078</name></trkpt>
<trkpt lat="52.703934" lon="06.067043"><ele>-1.7</ele><time>2022-09-06T11:55:24Z</time><name>PT3079</name></trkpt>
<trkpt lat="52.703925" lon="06.067065"><ele>-1.7</ele><time>2022-09-06T11:55:26Z</time><name>PT3080</name></trkpt>
<trkpt lat="52.703917" lon="06.067087"><ele>-1.5</ele><time>2022-09-06T11:55:27Z</time><name>PT3081</name></trkpt>
<trkpt lat="52.703908" lon="06.067108"><ele>-1.5</ele><time>2022-09-06T11:55:27Z</time><name>PT3082</name></trkpt>
<trkpt lat="52.703900" lon="06.067129"><ele>-1.5</ele><time>2022-09-06T11:55:29Z</time><name>PT3083</name></trkpt>
<trkpt lat="52.703892" lon="06.067152"><ele>-1.5</ele><time>2022-09-06T11:55:30Z</time><name>PT3084</name></trkpt>
<trkpt lat="52.703883" lon="06.067174"><ele>-1.5</ele><time>2022-09-06T11:55:30Z</time><name>PT3085</name></trkpt>
<trkpt lat="52.703875" lon="06.067196"><ele>-1.6</ele><time>2022-09-06T11:55:32Z</time><name>PT3086</name></trkpt>
<trkpt lat="52.703866" lon="06.067219"><ele>-1.5</ele><time>2022-09-06T11:55:33Z</time><name>PT3087</name></trkpt>
<trkpt lat="52.703856" lon="06.067242"><ele>-1.5</ele><time>2022-09-06T11:55:33Z</time><name>PT3088</name></trkpt>
<trkpt lat="52.703846" lon="06.067264"><ele>-1.6</ele><time>2022-09-06T11:55:35Z</time><name>PT3089</name></trkpt>
<trkpt lat="52.703837" lon="06.067287"><ele>-1.6</ele><time>2022-09-06T11:55:36Z</time><name>PT3090</name></trkpt>
<trkpt lat="52.703827" lon="06.067308"><ele>-1.5</ele><time>2022-09-06T11:55:36Z</time><name>PT3091</name></trkpt>
<trkpt lat="52.703817" lon="06.067330"><ele>-1.7</ele><time>2022-09-06T11:55:38Z</time><name>PT3092</name></trkpt>
<trkpt lat="52.703808" lon="06.067351"><ele>-1.8</ele><time>2022-09-06T11:55:39Z</time><name>PT3093</name></trkpt>
<trkpt lat="52.703798" lon="06.067372"><ele>-1.8</ele><time>2022-09-06T11:55:39Z</time><name>PT3094</name></trkpt>
<trkpt lat="52.703787" lon="06.067395"><ele>-1.9</ele><time>2022-09-06T11:55:41Z</time><name>PT3095</name></trkpt>
<trkpt lat="52.703777" lon="06.067416"><ele>-1.8</ele><time>2022-09-06T11:55:42Z</time><name>PT3096</name></trkpt>
<trkpt lat="52.703766" lon="06.067438"><ele>-1.8</ele><time>2022-09-06T11:55:42Z</time><name>PT3097</name></trkpt>
<trkpt lat="52.703755" lon="06.067458"><ele>-1.6</ele><time>2022-09-06T11:55:43Z</time><name>PT3098</name></trkpt>
<trkpt lat="52.703743" lon="06.067480"><ele>-1.6</ele><time>2022-09-06T11:55:45Z</time><name>PT3099</name></trkpt>
<trkpt lat="52.703730" lon="06.067499"><ele>-1.6</ele><time>2022-09-06T11:55:45Z</time><name>PT3100</name></trkpt>
<trkpt lat="52.703717" lon="06.067519"><ele>-1.6</ele><time>2022-09-06T11:55:47Z</time><name>PT3101</name></trkpt>
<trkpt lat="52.703705" lon="06.067540"><ele>-1.6</ele><time>2022-09-06T11:55:48Z</time><name>PT3102</name></trkpt>
<trkpt lat="52.703692" lon="06.067559"><ele>-1.7</ele><time>2022-09-06T11:55:48Z</time><name>PT3103</name></trkpt>
<trkpt lat="52.703680" lon="06.067580"><ele>-1.5</ele><time>2022-09-06T11:55:50Z</time><name>PT3104</name></trkpt>
<trkpt lat="52.703667" lon="06.067600"><ele>-1.5</ele><time>2022-09-06T11:55:51Z</time><name>PT3105</name></trkpt>
<trkpt lat="52.703654" lon="06.067619"><ele>-1.5</ele><time>2022-09-06T11:55:51Z</time><name>PT3106</name></trkpt>
<trkpt lat="52.703642" lon="06.067638"><ele>-1.5</ele><time>2022-09-06T11:55:53Z</time><name>PT3107</name></trkpt>
<trkpt lat="52.703629" lon="06.067657"><ele>-1.5</ele><time>2022-09-06T11:55:54Z</time><name>PT3108</name></trkpt>
<trkpt lat="52.703616" lon="06.067676"><ele>-1.5</ele><time>2022-09-06T11:55:54Z</time><name>PT3109</name></trkpt>
<trkpt lat="52.703603" lon="06.067694"><ele>-1.6</ele><time>2022-09-06T11:55:56Z</time><name>PT3110</name></trkpt>
<trkpt lat="52.703590" lon="06.067712"><ele>-1.6</ele><time>2022-09-06T11:55:57Z</time><name>PT3111</name></trkpt>
<trkpt lat="52.703577" lon="06.067729"><ele>-1.6</ele><time>2022-09-06T11:55:57Z</time><name>PT3112</name></trkpt>
<trkpt lat="52.703563" lon="06.067745"><ele>-1.8</ele><time>2022-09-06T11:55:59Z</time><name>PT3113</name></trkpt>
<trkpt lat="52.703549" lon="06.067761"><ele>-1.8</ele><time>2022-09-06T11:56:00Z</time><name>PT3114</name></trkpt>
<trkpt lat="52.703535" lon="06.067777"><ele>-1.7</ele><time>2022-09-06T11:56:00Z</time><name>PT3115</name></trkpt>
<trkpt lat="52.703522" lon="06.067793"><ele>-1.6</ele><time>2022-09-06T11:56:02Z</time><name>PT3116</name></trkpt>
<trkpt lat="52.703508" lon="06.067809"><ele>-1.7</ele><time>2022-09-06T11:56:03Z</time><name>PT3117</name></trkpt>
<trkpt lat="52.703493" lon="06.067825"><ele>-1.6</ele><time>2022-09-06T11:56:03Z</time><name>PT3118</name></trkpt>
<trkpt lat="52.703479" lon="06.067841"><ele>-1.5</ele><time>2022-09-06T11:56:05Z</time><name>PT3119</name></trkpt>
<trkpt lat="52.703464" lon="06.067856"><ele>-1.7</ele><time>2022-09-06T11:56:06Z</time><name>PT3120</name></trkpt>
<trkpt lat="52.703450" lon="06.067871"><ele>-1.7</ele><time>2022-09-06T11:56:06Z</time><name>PT3121</name></trkpt>
<trkpt lat="52.703435" lon="06.067887"><ele>-1.5</ele><time>2022-09-06T11:56:07Z</time><name>PT3122</name></trkpt>
<trkpt lat="52.703421" lon="06.067904"><ele>-1.5</ele><time>2022-09-06T11:56:09Z</time><name>PT3123</name></trkpt>
<trkpt lat="52.703407" lon="06.067921"><ele>-1.6</ele><time>2022-09-06T11:56:10Z</time><name>PT3124</name></trkpt>
<trkpt lat="52.703393" lon="06.067939"><ele>-1.5</ele><time>2022-09-06T11:56:11Z</time><name>PT3125</name></trkpt>
<trkpt lat="52.703379" lon="06.067955"><ele>-1.5</ele><time>2022-09-06T11:56:12Z</time><name>PT3126</name></trkpt>
<trkpt lat="52.703365" lon="06.067973"><ele>-1.6</ele><time>2022-09-06T11:56:12Z</time><name>PT3127</name></trkpt>
<trkpt lat="52.703352" lon="06.067990"><ele>-1.6</ele><time>2022-09-06T11:56:13Z</time><name>PT3128</name></trkpt>
<trkpt lat="52.703339" lon="06.068006"><ele>-1.5</ele><time>2022-09-06T11:56:15Z</time><name>PT3129</name></trkpt>
<trkpt lat="52.703326" lon="06.068023"><ele>-1.5</ele><time>2022-09-06T11:56:15Z</time><name>PT3130</name></trkpt>
<trkpt lat="52.703313" lon="06.068039"><ele>-1.6</ele><time>2022-09-06T11:56:17Z</time><name>PT3131</name></trkpt>
<trkpt lat="52.703300" lon="06.068057"><ele>-1.5</ele><time>2022-09-06T11:56:18Z</time><name>PT3132</name></trkpt>
<trkpt lat="52.703288" lon="06.068075"><ele>-1.5</ele><time>2022-09-06T11:56:18Z</time><name>PT3133</name></trkpt>
<trkpt lat="52.703275" lon="06.068093"><ele>-1.4</ele><time>2022-09-06T11:56:20Z</time><name>PT3134</name></trkpt>
<trkpt lat="52.703262" lon="06.068112"><ele>-1.3</ele><time>2022-09-06T11:56:21Z</time><name>PT3135</name></trkpt>
<trkpt lat="52.703250" lon="06.068131"><ele>-1.2</ele><time>2022-09-06T11:56:21Z</time><name>PT3136</name></trkpt>
<trkpt lat="52.703237" lon="06.068151"><ele>-1.3</ele><time>2022-09-06T11:56:23Z</time><name>PT3137</name></trkpt>
<trkpt lat="52.703225" lon="06.068170"><ele>-1.5</ele><time>2022-09-06T11:56:24Z</time><name>PT3138</name></trkpt>
<trkpt lat="52.703213" lon="06.068190"><ele>-1.5</ele><time>2022-09-06T11:56:24Z</time><name>PT3139</name></trkpt>
<trkpt lat="52.703201" lon="06.068210"><ele>-1.4</ele><time>2022-09-06T11:56:26Z</time><name>PT3140</name></trkpt>
<trkpt lat="52.703190" lon="06.068231"><ele>-1.5</ele><time>2022-09-06T11:56:27Z</time><name>PT3141</name></trkpt>
<trkpt lat="52.703178" lon="06.068252"><ele>-1.5</ele><time>2022-09-06T11:56:27Z</time><name>PT3142</name></trkpt>
<trkpt lat="52.703166" lon="06.068272"><ele>-1.4</ele><time>2022-09-06T11:56:28Z</time><name>PT3143</name></trkpt>
<trkpt lat="52.703155" lon="06.068292"><ele>-1.5</ele><time>2022-09-06T11:56:30Z</time><name>PT3144</name></trkpt>
<trkpt lat="52.703144" lon="06.068314"><ele>-1.7</ele><time>2022-09-06T11:56:30Z</time><name>PT3145</name></trkpt>
<trkpt lat="52.703133" lon="06.068336"><ele>-1.7</ele><time>2022-09-06T11:56:31Z</time><name>PT3146</name></trkpt>
<trkpt lat="52.703123" lon="06.068360"><ele>-1.6</ele><time>2022-09-06T11:56:33Z</time><name>PT3147</name></trkpt>
<trkpt lat="52.703113" lon="06.068383"><ele>-1.5</ele><time>2022-09-06T11:56:33Z</time><name>PT3148</name></trkpt>
<trkpt lat="52.703103" lon="06.068406"><ele>-1.3</ele><time>2022-09-06T11:56:35Z</time><name>PT3149</name></trkpt>
<trkpt lat="52.703092" lon="06.068429"><ele>-1.2</ele><time>2022-09-06T11:56:36Z</time><name>PT3150</name></trkpt>
<trkpt lat="52.703082" lon="06.068453"><ele>-1.5</ele><time>2022-09-06T11:56:36Z</time><name>PT3151</name></trkpt>
<trkpt lat="52.703072" lon="06.068477"><ele>-1.5</ele><time>2022-09-06T11:56:38Z</time><name>PT3152</name></trkpt>
<trkpt lat="52.703062" lon="06.068501"><ele>-1.5</ele><time>2022-09-06T11:56:39Z</time><name>PT3153</name></trkpt>
<trkpt lat="52.703051" lon="06.068525"><ele>-1.5</ele><time>2022-09-06T11:56:40Z</time><name>PT3154</name></trkpt>
<trkpt lat="52.703041" lon="06.068548"><ele>-1.5</ele><time>2022-09-06T11:56:41Z</time><name>PT3155</name></trkpt>
<trkpt lat="52.703031" lon="06.068572"><ele>-1.4</ele><time>2022-09-06T11:56:42Z</time><name>PT3156</name></trkpt>
<trkpt lat="52.703021" lon="06.068596"><ele>-1.4</ele><time>2022-09-06T11:56:42Z</time><name>PT3157</name></trkpt>
<trkpt lat="52.703011" lon="06.068620"><ele>-1.5</ele><time>2022-09-06T11:56:44Z</time><name>PT3158</name></trkpt>
<trkpt lat="52.703001" lon="06.068644"><ele>-1.6</ele><time>2022-09-06T11:56:45Z</time><name>PT3159</name></trkpt>
<trkpt lat="52.702991" lon="06.068668"><ele>-1.6</ele><time>2022-09-06T11:56:46Z</time><name>PT3160</name></trkpt>
<trkpt lat="52.702982" lon="06.068691"><ele>-1.5</ele><time>2022-09-06T11:56:47Z</time><name>PT3161</name></trkpt>
<trkpt lat="52.702973" lon="06.068714"><ele>-1.5</ele><time>2022-09-06T11:56:48Z</time><name>PT3162</name></trkpt>
<trkpt lat="52.702963" lon="06.068738"><ele>-1.5</ele><time>2022-09-06T11:56:48Z</time><name>PT3163</name></trkpt>
<trkpt lat="52.702954" lon="06.068761"><ele>-1.4</ele><time>2022-09-06T11:56:50Z</time><name>PT3164</name></trkpt>
<trkpt lat="52.702944" lon="06.068784"><ele>-1.3</ele><time>2022-09-06T11:56:51Z</time><name>PT3165</name></trkpt>
<trkpt lat="52.702934" lon="06.068807"><ele>-1.4</ele><time>2022-09-06T11:56:51Z</time><name>PT3166</name></trkpt>
<trkpt lat="52.702925" lon="06.068830"><ele>-1.5</ele><time>2022-09-06T11:56:53Z</time><name>PT3167</name></trkpt>
<trkpt lat="52.702915" lon="06.068853"><ele>-1.5</ele><time>2022-09-06T11:56:54Z</time><name>PT3168</name></trkpt>
<trkpt lat="52.702905" lon="06.068875"><ele>-1.6</ele><time>2022-09-06T11:56:54Z</time><name>PT3169</name></trkpt>
<trkpt lat="52.702896" lon="06.068900"><ele>-1.6</ele><time>2022-09-06T11:56:56Z</time><name>PT3170</name></trkpt>
<trkpt lat="52.702886" lon="06.068923"><ele>-1.6</ele><time>2022-09-06T11:56:57Z</time><name>PT3171</name></trkpt>
<trkpt lat="52.702876" lon="06.068945"><ele>-1.5</ele><time>2022-09-06T11:56:57Z</time><name>PT3172</name></trkpt>
<trkpt lat="52.702866" lon="06.068968"><ele>-1.5</ele><time>2022-09-06T11:56:58Z</time><name>PT3173</name></trkpt>
<trkpt lat="52.702856" lon="06.068991"><ele>-1.5</ele><time>2022-09-06T11:57:00Z</time><name>PT3174</name></trkpt>
<trkpt lat="52.702846" lon="06.069015"><ele>-1.5</ele><time>2022-09-06T11:57:00Z</time><name>PT3175</name></trkpt>
<trkpt lat="52.702835" lon="06.069038"><ele>-1.8</ele><time>2022-09-06T11:57:02Z</time><name>PT3176</name></trkpt>
<trkpt lat="52.702824" lon="06.069062"><ele>-1.7</ele><time>2022-09-06T11:57:03Z</time><name>PT3177</name></trkpt>
<trkpt lat="52.702813" lon="06.069085"><ele>-1.8</ele><time>2022-09-06T11:57:03Z</time><name>PT3178</name></trkpt>
<trkpt lat="52.702802" lon="06.069108"><ele>-1.7</ele><time>2022-09-06T11:57:05Z</time><name>PT3179</name></trkpt>
<trkpt lat="52.702790" lon="06.069131"><ele>-1.7</ele><time>2022-09-06T11:57:06Z</time><name>PT3180</name></trkpt>
<trkpt lat="52.702779" lon="06.069153"><ele>-1.6</ele><time>2022-09-06T11:57:06Z</time><name>PT3181</name></trkpt>
<trkpt lat="52.702767" lon="06.069175"><ele>-1.5</ele><time>2022-09-06T11:57:08Z</time><name>PT3182</name></trkpt>
<trkpt lat="52.702755" lon="06.069198"><ele>-1.5</ele><time>2022-09-06T11:57:09Z</time><name>PT3183</name></trkpt>
<trkpt lat="52.702744" lon="06.069220"><ele>-1.6</ele><time>2022-09-06T11:57:09Z</time><name>PT3184</name></trkpt>
<trkpt lat="52.702733" lon="06.069241"><ele>-1.5</ele><time>2022-09-06T11:57:11Z</time><name>PT3185</name></trkpt>
<trkpt lat="52.702722" lon="06.069262"><ele>-1.5</ele><time>2022-09-06T11:57:12Z</time><name>PT3186</name></trkpt>
<trkpt lat="52.702711" lon="06.069284"><ele>-1.5</ele><time>2022-09-06T11:57:12Z</time><name>PT3187</name></trkpt>
<trkpt lat="52.702700" lon="06.069307"><ele>-1.4</ele><time>2022-09-06T11:57:13Z</time><name>PT3188</name></trkpt>
<trkpt lat="52.702689" lon="06.069328"><ele>-1.2</ele><time>2022-09-06T11:57:15Z</time><name>PT3189</name></trkpt>
<trkpt lat="52.702678" lon="06.069350"><ele>-1.2</ele><time>2022-09-06T11:57:15Z</time><name>PT3190</name></trkpt>
<trkpt lat="52.702667" lon="06.069373"><ele>-1.3</ele><time>2022-09-06T11:57:17Z</time><name>PT3191</name></trkpt>
<trkpt lat="52.702656" lon="06.069396"><ele>-1.3</ele><time>2022-09-06T11:57:18Z</time><name>PT3192</name></trkpt>
<trkpt lat="52.702645" lon="06.069419"><ele>-1.3</ele><time>2022-09-06T11:57:18Z</time><name>PT3193</name></trkpt>
<trkpt lat="52.702635" lon="06.069441"><ele>-1.5</ele><time>2022-09-06T11:57:20Z</time><name>PT3194</name></trkpt>
<trkpt lat="52.702624" lon="06.069464"><ele>-1.4</ele><time>2022-09-06T11:57:21Z</time><name>PT3195</name></trkpt>
<trkpt lat="52.702613" lon="06.069486"><ele>-1.4</ele><time>2022-09-06T11:57:21Z</time><name>PT3196</name></trkpt>
<trkpt lat="52.702602" lon="06.069508"><ele>-1.3</ele><time>2022-09-06T11:57:23Z</time><name>PT3197</name></trkpt>
<trkpt lat="52.702590" lon="06.069531"><ele>-1.3</ele><time>2022-09-06T11:57:24Z</time><name>PT3198</name></trkpt>
<trkpt lat="52.702579" lon="06.069553"><ele>-1.4</ele><time>2022-09-06T11:57:24Z</time><name>PT3199</name></trkpt>
<trkpt lat="52.702567" lon="06.069575"><ele>-1.3</ele><time>2022-09-06T11:57:26Z</time><name>PT3200</name></trkpt>
<trkpt lat="52.702556" lon="06.069597"><ele>-1.4</ele><time>2022-09-06T11:57:27Z</time><name>PT3201</name></trkpt>
<trkpt lat="52.702545" lon="06.069620"><ele>-1.2</ele><time>2022-09-06T11:57:27Z</time><name>PT3202</name></trkpt>
<trkpt lat="52.702534" lon="06.069642"><ele>-1.1</ele><time>2022-09-06T11:57:28Z</time><name>PT3203</name></trkpt>
<trkpt lat="52.702522" lon="06.069664"><ele>-1.3</ele><time>2022-09-06T11:57:30Z</time><name>PT3204</name></trkpt>
<trkpt lat="52.702511" lon="06.069686"><ele>-1.1</ele><time>2022-09-06T11:57:30Z</time><name>PT3205</name></trkpt>
<trkpt lat="52.702500" lon="06.069708"><ele>-1.2</ele><time>2022-09-06T11:57:32Z</time><name>PT3206</name></trkpt>
<trkpt lat="52.702489" lon="06.069730"><ele>-1.3</ele><time>2022-09-06T11:57:33Z</time><name>PT3207</name></trkpt>
<trkpt lat="52.702478" lon="06.069753"><ele>-1.4</ele><time>2022-09-06T11:57:33Z</time><name>PT3208</name></trkpt>
<trkpt lat="52.702467" lon="06.069775"><ele>-1.4</ele><time>2022-09-06T11:57:34Z</time><name>PT3209</name></trkpt>
<trkpt lat="52.702457" lon="06.069799"><ele>-1.4</ele><time>2022-09-06T11:57:36Z</time><name>PT3210</name></trkpt>
<trkpt lat="52.702448" lon="06.069823"><ele>-1.4</ele><time>2022-09-06T11:57:36Z</time><name>PT3211</name></trkpt>
<trkpt lat="52.702438" lon="06.069847"><ele>-1.5</ele><time>2022-09-06T11:57:37Z</time><name>PT3212</name></trkpt>
<trkpt lat="52.702430" lon="06.069871"><ele>-1.7</ele><time>2022-09-06T11:57:39Z</time><name>PT3213</name></trkpt>
<trkpt lat="52.702422" lon="06.069896"><ele>-1.7</ele><time>2022-09-06T11:57:39Z</time><name>PT3214</name></trkpt>
<trkpt lat="52.702416" lon="06.069922"><ele>-1.6</ele><time>2022-09-06T11:57:40Z</time><name>PT3215</name></trkpt>
<trkpt lat="52.702409" lon="06.069948"><ele>-1.5</ele><time>2022-09-06T11:57:42Z</time><name>PT3216</name></trkpt>
<trkpt lat="52.702403" lon="06.069973"><ele>-1.5</ele><time>2022-09-06T11:57:42Z</time><name>PT3217</name></trkpt>
<trkpt lat="52.702397" lon="06.069999"><ele>-1.5</ele><time>2022-09-06T11:57:43Z</time><name>PT3218</name></trkpt>
<trkpt lat="52.702392" lon="06.070026"><ele>-1.5</ele><time>2022-09-06T11:57:45Z</time><name>PT3219</name></trkpt>
<trkpt lat="52.702388" lon="06.070053"><ele>-1.6</ele><time>2022-09-06T11:57:45Z</time><name>PT3220</name></trkpt>
<trkpt lat="52.702383" lon="06.070080"><ele>-1.5</ele><time>2022-09-06T11:57:47Z</time><name>PT3221</name></trkpt>
<trkpt lat="52.702379" lon="06.070108"><ele>-1.4</ele><time>2022-09-06T11:57:48Z</time><name>PT3222</name></trkpt>
<trkpt lat="52.702375" lon="06.070136"><ele>-1.3</ele><time>2022-09-06T11:57:48Z</time><name>PT3223</name></trkpt>
<trkpt lat="52.702372" lon="06.070164"><ele>-1.4</ele><time>2022-09-06T11:57:49Z</time><name>PT3224</name></trkpt>
<trkpt lat="52.702370" lon="06.070192"><ele>-1.3</ele><time>2022-09-06T11:57:51Z</time><name>PT3225</name></trkpt>
<trkpt lat="52.702367" lon="06.070220"><ele>-1.4</ele><time>2022-09-06T11:57:51Z</time><name>PT3226</name></trkpt>
<trkpt lat="52.702364" lon="06.070249"><ele>-1.5</ele><time>2022-09-06T11:57:52Z</time><name>PT3227</name></trkpt>
<trkpt lat="52.702363" lon="06.070279"><ele>-1.5</ele><time>2022-09-06T11:57:54Z</time><name>PT3228</name></trkpt>
<trkpt lat="52.702362" lon="06.070308"><ele>-1.5</ele><time>2022-09-06T11:57:54Z</time><name>PT3229</name></trkpt>
<trkpt lat="52.702360" lon="06.070335"><ele>-1.5</ele><time>2022-09-06T11:57:56Z</time><name>PT3230</name></trkpt>
<trkpt lat="52.702359" lon="06.070364"><ele>-1.5</ele><time>2022-09-06T11:57:57Z</time><name>PT3231</name></trkpt>
<trkpt lat="52.702357" lon="06.070393"><ele>-1.3</ele><time>2022-09-06T11:57:57Z</time><name>PT3232</name></trkpt>
<trkpt lat="52.702356" lon="06.070422"><ele>-1.3</ele><time>2022-09-06T11:57:59Z</time><name>PT3233</name></trkpt>
<trkpt lat="52.702356" lon="06.070451"><ele>-1.1</ele><time>2022-09-06T11:58:00Z</time><name>PT3234</name></trkpt>
<trkpt lat="52.702356" lon="06.070480"><ele>-1.2</ele><time>2022-09-06T11:58:00Z</time><name>PT3235</name></trkpt>
<trkpt lat="52.702356" lon="06.070508"><ele>-1.3</ele><time>2022-09-06T11:58:02Z</time><name>PT3236</name></trkpt>
<trkpt lat="52.702359" lon="06.070537"><ele>-1.2</ele><time>2022-09-06T11:58:03Z</time><name>PT3237</name></trkpt>
<trkpt lat="52.702360" lon="06.070566"><ele>-1.3</ele><time>2022-09-06T11:58:03Z</time><name>PT3238</name></trkpt>
<trkpt lat="52.702361" lon="06.070594"><ele>-1.1</ele><time>2022-09-06T11:58:04Z</time><name>PT3239</name></trkpt>
<trkpt lat="52.702364" lon="06.070624"><ele>-1</ele><time>2022-09-06T11:58:06Z</time><name>PT3240</name></trkpt>
<trkpt lat="52.702369" lon="06.070651"><ele>0.8</ele><time>2022-09-06T11:58:06Z</time><name>PT3241</name></trkpt>
<trkpt lat="52.702374" lon="06.070676"><ele>0.8</ele><time>2022-09-06T11:58:08Z</time><name>PT3242</name></trkpt>
<trkpt lat="52.702380" lon="06.070701"><ele>0.6</ele><time>2022-09-06T11:58:09Z</time><name>PT3243</name></trkpt>
<trkpt lat="52.702387" lon="06.070724"><ele>0.6</ele><time>2022-09-06T11:58:09Z</time><name>PT3244</name></trkpt>
<trkpt lat="52.702395" lon="06.070744"><ele>0.7</ele><time>2022-09-06T11:58:10Z</time><name>PT3245</name></trkpt>
<trkpt lat="52.702405" lon="06.070758"><ele>0.8</ele><time>2022-09-06T11:58:12Z</time><name>PT3246</name></trkpt>
<trkpt lat="52.702415" lon="06.070773"><ele>0.9</ele><time>2022-09-06T11:58:12Z</time><name>PT3247</name></trkpt>
<trkpt lat="52.702425" lon="06.070790"><ele>-1</ele><time>2022-09-06T11:58:13Z</time><name>PT3248</name></trkpt>
<trkpt lat="52.702437" lon="06.070804"><ele>0.9</ele><time>2022-09-06T11:58:15Z</time><name>PT3249</name></trkpt>
<trkpt lat="52.702450" lon="06.070818"><ele>-1</ele><time>2022-09-06T11:58:15Z</time><name>PT3250</name></trkpt>
<trkpt lat="52.702462" lon="06.070829"><ele>-1</ele><time>2022-09-06T11:58:16Z</time><name>PT3251</name></trkpt>
<trkpt lat="52.702475" lon="06.070842"><ele>0.9</ele><time>2022-09-06T11:58:18Z</time><name>PT3252</name></trkpt>
<trkpt lat="52.702490" lon="06.070853"><ele>-1</ele><time>2022-09-06T11:58:18Z</time><name>PT3253</name></trkpt>
<trkpt lat="52.702504" lon="06.070863"><ele>-1.1</ele><time>2022-09-06T11:58:20Z</time><name>PT3254</name></trkpt>
<trkpt lat="52.702519" lon="06.070871"><ele>-1</ele><time>2022-09-06T11:58:21Z</time><name>PT3255</name></trkpt>
<trkpt lat="52.702533" lon="06.070879"><ele>-1.1</ele><time>2022-09-06T11:58:21Z</time><name>PT3256</name></trkpt>
<trkpt lat="52.702548" lon="06.070887"><ele>-1.1</ele><time>2022-09-06T11:58:22Z</time><name>PT3257</name></trkpt>
<trkpt lat="52.702563" lon="06.070895"><ele>-1</ele><time>2022-09-06T11:58:24Z</time><name>PT3258</name></trkpt>
<trkpt lat="52.702579" lon="06.070901"><ele>-1.1</ele><time>2022-09-06T11:58:24Z</time><name>PT3259</name></trkpt>
<trkpt lat="52.702595" lon="06.070909"><ele>-1.3</ele><time>2022-09-06T11:58:25Z</time><name>PT3260</name></trkpt>
<trkpt lat="52.702612" lon="06.070915"><ele>-1.3</ele><time>2022-09-06T11:58:27Z</time><name>PT3261</name></trkpt>
<trkpt lat="52.702630" lon="06.070920"><ele>-1.3</ele><time>2022-09-06T11:58:27Z</time><name>PT3262</name></trkpt>
<trkpt lat="52.702648" lon="06.070925"><ele>-1.4</ele><time>2022-09-06T11:58:28Z</time><name>PT3263</name></trkpt>
<trkpt lat="52.702666" lon="06.070932"><ele>-1.1</ele><time>2022-09-06T11:58:30Z</time><name>PT3264</name></trkpt>
<trkpt lat="52.702683" lon="06.070938"><ele>-1.3</ele><time>2022-09-06T11:58:30Z</time><name>PT3265</name></trkpt>
<trkpt lat="52.702702" lon="06.070945"><ele>-1.3</ele><time>2022-09-06T11:58:32Z</time><name>PT3266</name></trkpt>
<trkpt lat="52.702720" lon="06.070949"><ele>-1.2</ele><time>2022-09-06T11:58:33Z</time><name>PT3267</name></trkpt>
<trkpt lat="52.702738" lon="06.070954"><ele>-1.3</ele><time>2022-09-06T11:58:33Z</time><name>PT3268</name></trkpt>
<trkpt lat="52.702757" lon="06.070958"><ele>-1.5</ele><time>2022-09-06T11:58:34Z</time><name>PT3269</name></trkpt>
<trkpt lat="52.702776" lon="06.070962"><ele>-1.5</ele><time>2022-09-06T11:58:36Z</time><name>PT3270</name></trkpt>
<trkpt lat="52.702795" lon="06.070965"><ele>-1.5</ele><time>2022-09-06T11:58:36Z</time><name>PT3271</name></trkpt>
<trkpt lat="52.702813" lon="06.070969"><ele>-1.5</ele><time>2022-09-06T11:58:37Z</time><name>PT3272</name></trkpt>
<trkpt lat="52.702832" lon="06.070972"><ele>-1.3</ele><time>2022-09-06T11:58:39Z</time><name>PT3273</name></trkpt>
<trkpt lat="52.702851" lon="06.070975"><ele>-1.3</ele><time>2022-09-06T11:58:39Z</time><name>PT3274</name></trkpt>
<trkpt lat="52.702869" lon="06.070978"><ele>-1.1</ele><time>2022-09-06T11:58:40Z</time><name>PT3275</name></trkpt>
<trkpt lat="52.702888" lon="06.070982"><ele>-1</ele><time>2022-09-06T11:58:42Z</time><name>PT3276</name></trkpt>
<trkpt lat="52.702906" lon="06.070985"><ele>-1.2</ele><time>2022-09-06T11:58:42Z</time><name>PT3277</name></trkpt>
<trkpt lat="52.702925" lon="06.070989"><ele>-1.3</ele><time>2022-09-06T11:58:44Z</time><name>PT3278</name></trkpt>
<trkpt lat="52.702945" lon="06.070992"><ele>-1.4</ele><time>2022-09-06T11:58:45Z</time><name>PT3279</name></trkpt>
<trkpt lat="52.702963" lon="06.070995"><ele>-1.4</ele><time>2022-09-06T11:58:45Z</time><name>PT3280</name></trkpt>
<trkpt lat="52.702982" lon="06.070999"><ele>-1.5</ele><time>2022-09-06T11:58:46Z</time><name>PT3281</name></trkpt>
<trkpt lat="52.702998" lon="06.071001"><ele>-1.3</ele><time>2022-09-06T11:58:48Z</time><name>PT3282</name></trkpt>
<trkpt lat="52.703016" lon="06.071006"><ele>-1.2</ele><time>2022-09-06T11:58:48Z</time><name>PT3283</name></trkpt>
<trkpt lat="52.703033" lon="06.071011"><ele>-1.3</ele><time>2022-09-06T11:58:49Z</time><name>PT3284</name></trkpt>
<trkpt lat="52.703051" lon="06.071016"><ele>-1.3</ele><time>2022-09-06T11:58:51Z</time><name>PT3285</name></trkpt>
<trkpt lat="52.703068" lon="06.071020"><ele>-1.2</ele><time>2022-09-06T11:58:51Z</time><name>PT3286</name></trkpt>
<trkpt lat="52.703086" lon="06.071024"><ele>-1.3</ele><time>2022-09-06T11:58:52Z</time><name>PT3287</name></trkpt>
<trkpt lat="52.703104" lon="06.071028"><ele>-1.4</ele><time>2022-09-06T11:58:54Z</time><name>PT3288</name></trkpt>
<trkpt lat="52.703122" lon="06.071031"><ele>-1.3</ele><time>2022-09-06T11:58:54Z</time><name>PT3289</name></trkpt>
<trkpt lat="52.703138" lon="06.071036"><ele>-1.2</ele><time>2022-09-06T11:58:55Z</time><name>PT3290</name></trkpt>
<trkpt lat="52.703153" lon="06.071039"><ele>-1.5</ele><time>2022-09-06T11:58:57Z</time><name>PT3291</name></trkpt>
<trkpt lat="52.703167" lon="06.071042"><ele>-1.5</ele><time>2022-09-06T11:58:57Z</time><name>PT3292</name></trkpt>
<trkpt lat="52.703182" lon="06.071047"><ele>-1.4</ele><time>2022-09-06T11:58:59Z</time><name>PT3293</name></trkpt>
<trkpt lat="52.703198" lon="06.071050"><ele>-1.5</ele><time>2022-09-06T11:59:00Z</time><name>PT3294</name></trkpt>
<trkpt lat="52.703214" lon="06.071055"><ele>-1.4</ele><time>2022-09-06T11:59:00Z</time><name>PT3295</name></trkpt>
<trkpt lat="52.703230" lon="06.071060"><ele>-1.3</ele><time>2022-09-06T11:59:01Z</time><name>PT3296</name></trkpt>
<trkpt lat="52.703247" lon="06.071064"><ele>-1.4</ele><time>2022-09-06T11:59:03Z</time><name>PT3297</name></trkpt>
<trkpt lat="52.703264" lon="06.071067"><ele>-1.5</ele><time>2022-09-06T11:59:03Z</time><name>PT3298</name></trkpt>
<trkpt lat="52.703280" lon="06.071070"><ele>-1.3</ele><time>2022-09-06T11:59:04Z</time><name>PT3299</name></trkpt>
<trkpt lat="52.703299" lon="06.071073"><ele>-1.4</ele><time>2022-09-06T11:59:06Z</time><name>PT3300</name></trkpt>
<trkpt lat="52.703317" lon="06.071075"><ele>-1.3</ele><time>2022-09-06T11:59:06Z</time><name>PT3301</name></trkpt>
<trkpt lat="52.703335" lon="06.071079"><ele>-1.2</ele><time>2022-09-06T11:59:07Z</time><name>PT3302</name></trkpt>
<trkpt lat="52.703352" lon="06.071082"><ele>-1.2</ele><time>2022-09-06T11:59:09Z</time><name>PT3303</name></trkpt>
<trkpt lat="52.703371" lon="06.071085"><ele>-1.3</ele><time>2022-09-06T11:59:09Z</time><name>PT3304</name></trkpt>
<trkpt lat="52.703389" lon="06.071088"><ele>-1.5</ele><time>2022-09-06T11:59:11Z</time><name>PT3305</name></trkpt>
<trkpt lat="52.703407" lon="06.071091"><ele>-1.4</ele><time>2022-09-06T11:59:12Z</time><name>PT3306</name></trkpt>
<trkpt lat="52.703426" lon="06.071094"><ele>-1.4</ele><time>2022-09-06T11:59:12Z</time><name>PT3307</name></trkpt>
<trkpt lat="52.703444" lon="06.071098"><ele>-1.4</ele><time>2022-09-06T11:59:13Z</time><name>PT3308</name></trkpt>
<trkpt lat="52.703463" lon="06.071102"><ele>-1.3</ele><time>2022-09-06T11:59:15Z</time><name>PT3309</name></trkpt>
<trkpt lat="52.703481" lon="06.071105"><ele>-1.3</ele><time>2022-09-06T11:59:15Z</time><name>PT3310</name></trkpt>
<trkpt lat="52.703499" lon="06.071109"><ele>-1.3</ele><time>2022-09-06T11:59:16Z</time><name>PT3311</name></trkpt>
<trkpt lat="52.703517" lon="06.071112"><ele>-1.3</ele><time>2022-09-06T11:59:18Z</time><name>PT3312</name></trkpt>
<trkpt lat="52.703536" lon="06.071116"><ele>-1.2</ele><time>2022-09-06T11:59:18Z</time><name>PT3313</name></trkpt>
<trkpt lat="52.703554" lon="06.071120"><ele>-1.3</ele><time>2022-09-06T11:59:19Z</time><name>PT3314</name></trkpt>
<trkpt lat="52.703572" lon="06.071124"><ele>-1.3</ele><time>2022-09-06T11:59:21Z</time><name>PT3315</name></trkpt>
<trkpt lat="52.703590" lon="06.071128"><ele>-1.2</ele><time>2022-09-06T11:59:21Z</time><name>PT3316</name></trkpt>
<trkpt lat="52.703609" lon="06.071133"><ele>-1.3</ele><time>2022-09-06T11:59:22Z</time><name>PT3317</name></trkpt>
<trkpt lat="52.703627" lon="06.071136"><ele>-1.3</ele><time>2022-09-06T11:59:24Z</time><name>PT3318</name></trkpt>
<trkpt lat="52.703645" lon="06.071140"><ele>-1.3</ele><time>2022-09-06T11:59:24Z</time><name>PT3319</name></trkpt>
<trkpt lat="52.703664" lon="06.071144"><ele>-1.3</ele><time>2022-09-06T11:59:25Z</time><name>PT3320</name></trkpt>
<trkpt lat="52.703682" lon="06.071147"><ele>-1.3</ele><time>2022-09-06T11:59:27Z</time><name>PT3321</name></trkpt>
<trkpt lat="52.703700" lon="06.071150"><ele>-1.3</ele><time>2022-09-06T11:59:27Z</time><name>PT3322</name></trkpt>
<trkpt lat="52.703718" lon="06.071152"><ele>-1.2</ele><time>2022-09-06T11:59:28Z</time><name>PT3323</name></trkpt>
<trkpt lat="52.703736" lon="06.071154"><ele>-1.5</ele><time>2022-09-06T11:59:30Z</time><name>PT3324</name></trkpt>
<trkpt lat="52.703754" lon="06.071157"><ele>-1.3</ele><time>2022-09-06T11:59:30Z</time><name>PT3325</name></trkpt>
<trkpt lat="52.703772" lon="06.071160"><ele>-1.5</ele><time>2022-09-06T11:59:31Z</time><name>PT3326</name></trkpt>
<trkpt lat="52.703790" lon="06.071161"><ele>-1.5</ele><time>2022-09-06T11:59:33Z</time><name>PT3327</name></trkpt>
<trkpt lat="52.703808" lon="06.071164"><ele>-1.4</ele><time>2022-09-06T11:59:33Z</time><name>PT3328</name></trkpt>
<trkpt lat="52.703826" lon="06.071166"><ele>-1.3</ele><time>2022-09-06T11:59:34Z</time><name>PT3329</name></trkpt>
<trkpt lat="52.703844" lon="06.071168"><ele>-1.2</ele><time>2022-09-06T11:59:36Z</time><name>PT3330</name></trkpt>
<trkpt lat="52.703863" lon="06.071170"><ele>-1.2</ele><time>2022-09-06T11:59:36Z</time><name>PT3331</name></trkpt>
<trkpt lat="52.703881" lon="06.071172"><ele>-1.1</ele><time>2022-09-06T11:59:38Z</time><name>PT3332</name></trkpt>
<trkpt lat="52.703900" lon="06.071175"><ele>-1.3</ele><time>2022-09-06T11:59:39Z</time><name>PT3333</name></trkpt>
<trkpt lat="52.703918" lon="06.071177"><ele>-1.3</ele><time>2022-09-06T11:59:39Z</time><name>PT3334</name></trkpt>
<trkpt lat="52.703936" lon="06.071178"><ele>-1.5</ele><time>2022-09-06T11:59:41Z</time><name>PT3335</name></trkpt>
<trkpt lat="52.703954" lon="06.071179"><ele>-1.3</ele><time>2022-09-06T11:59:42Z</time><name>PT3336</name></trkpt>
<trkpt lat="52.703972" lon="06.071180"><ele>-1.3</ele><time>2022-09-06T11:59:42Z</time><name>PT3337</name></trkpt>
<trkpt lat="52.703989" lon="06.071180"><ele>-1.4</ele><time>2022-09-06T11:59:44Z</time><name>PT3338</name></trkpt>
<trkpt lat="52.704007" lon="06.071181"><ele>-1.2</ele><time>2022-09-06T11:59:45Z</time><name>PT3339</name></trkpt>
<trkpt lat="52.704026" lon="06.071183"><ele>-1.3</ele><time>2022-09-06T11:59:45Z</time><name>PT3340</name></trkpt>
<trkpt lat="52.704044" lon="06.071185"><ele>-1.2</ele><time>2022-09-06T11:59:47Z</time><name>PT3341</name></trkpt>
<trkpt lat="52.704062" lon="06.071186"><ele>-1.2</ele><time>2022-09-06T11:59:48Z</time><name>PT3342</name></trkpt>
<trkpt lat="52.704080" lon="06.071187"><ele>-1.3</ele><time>2022-09-06T11:59:48Z</time><name>PT3343</name></trkpt>
<trkpt lat="52.704098" lon="06.071188"><ele>-1.1</ele><time>2022-09-06T11:59:49Z</time><name>PT3344</name></trkpt>
<trkpt lat="52.704117" lon="06.071187"><ele>-1.1</ele><time>2022-09-06T11:59:51Z</time><name>PT3345</name></trkpt>
<trkpt lat="52.704133" lon="06.071188"><ele>-1</ele><time>2022-09-06T11:59:51Z</time><name>PT3346</name></trkpt>
<trkpt lat="52.704148" lon="06.071191"><ele>0.9</ele><time>2022-09-06T11:59:52Z</time><name>PT3347</name></trkpt>
<trkpt lat="52.704164" lon="06.071191"><ele>0.7</ele><time>2022-09-06T11:59:54Z</time><name>PT3348</name></trkpt>
<trkpt lat="52.704178" lon="06.071192"><ele>0.8</ele><time>2022-09-06T11:59:54Z</time><name>PT3349</name></trkpt>
<trkpt lat="52.704195" lon="06.071193"><ele>0.7</ele><time>2022-09-06T11:59:55Z</time><name>PT3350</name></trkpt>
<trkpt lat="52.704210" lon="06.071191"><ele>0.7</ele><time>2022-09-06T11:59:57Z</time><name>PT3351</name></trkpt>
<trkpt lat="52.704225" lon="06.071191"><ele>0.8</ele><time>2022-09-06T11:59:57Z</time><name>PT3352</name></trkpt>
<trkpt lat="52.704243" lon="06.071191"><ele>0.7</ele><time>2022-09-06T11:59:58Z</time><name>PT3353</name></trkpt>
<trkpt lat="52.704262" lon="06.071187"><ele>0.7</ele><time>2022-09-06T12:00:00Z</time><name>PT3354</name></trkpt>
<trkpt lat="52.704280" lon="06.071185"><ele>0.8</ele><time>2022-09-06T12:00:00Z</time><name>PT3355</name></trkpt>
<trkpt lat="52.704298" lon="06.071184"><ele>0.9</ele><time>2022-09-06T12:00:02Z</time><name>PT3356</name></trkpt>
<trkpt lat="52.704318" lon="06.071185"><ele>-1</ele><time>2022-09-06T12:00:03Z</time><name>PT3357</name></trkpt>
<trkpt lat="52.704337" lon="06.071188"><ele>-1</ele><time>2022-09-06T12:00:03Z</time><name>PT3358</name></trkpt>
<trkpt lat="52.704356" lon="06.071190"><ele>-1</ele><time>2022-09-06T12:00:04Z</time><name>PT3359</name></trkpt>
<trkpt lat="52.704375" lon="06.071192"><ele>0.8</ele><time>2022-09-06T12:00:06Z</time><name>PT3360</name></trkpt>
<trkpt lat="52.704394" lon="06.071195"><ele>0.9</ele><time>2022-09-06T12:00:06Z</time><name>PT3361</name></trkpt>
<trkpt lat="52.704414" lon="06.071197"><ele>-1</ele><time>2022-09-06T12:00:07Z</time><name>PT3362</name></trkpt>
<trkpt lat="52.704433" lon="06.071199"><ele>-1</ele><time>2022-09-06T12:00:09Z</time><name>PT3363</name></trkpt>
<trkpt lat="52.704452" lon="06.071200"><ele>-1</ele><time>2022-09-06T12:00:09Z</time><name>PT3364</name></trkpt>
<trkpt lat="52.704471" lon="06.071202"><ele>-1.1</ele><time>2022-09-06T12:00:10Z</time><name>PT3365</name></trkpt>
<trkpt lat="52.704491" lon="06.071204"><ele>-1.1</ele><time>2022-09-06T12:00:12Z</time><name>PT3366</name></trkpt>
<trkpt lat="52.704510" lon="06.071206"><ele>-1.2</ele><time>2022-09-06T12:00:12Z</time><name>PT3367</name></trkpt>
<trkpt lat="52.704530" lon="06.071207"><ele>-1.3</ele><time>2022-09-06T12:00:14Z</time><name>PT3368</name></trkpt>
<trkpt lat="52.704550" lon="06.071209"><ele>-1.3</ele><time>2022-09-06T12:00:15Z</time><name>PT3369</name></trkpt>
<trkpt lat="52.704569" lon="06.071210"><ele>-1.3</ele><time>2022-09-06T12:00:15Z</time><name>PT3370</name></trkpt>
<trkpt lat="52.704588" lon="06.071211"><ele>-1.2</ele><time>2022-09-06T12:00:16Z</time><name>PT3371</name></trkpt>
<trkpt lat="52.704608" lon="06.071213"><ele>-1.1</ele><time>2022-09-06T12:00:18Z</time><name>PT3372</name></trkpt>
<trkpt lat="52.704627" lon="06.071214"><ele>-1.1</ele><time>2022-09-06T12:00:18Z</time><name>PT3373</name></trkpt>
<trkpt lat="52.704646" lon="06.071217"><ele>-1.1</ele><time>2022-09-06T12:00:19Z</time><name>PT3374</name></trkpt>
<trkpt lat="52.704666" lon="06.071218"><ele>-1.2</ele><time>2022-09-06T12:00:21Z</time><name>PT3375</name></trkpt>
<trkpt lat="52.704685" lon="06.071220"><ele>-1.2</ele><time>2022-09-06T12:00:21Z</time><name>PT3376</name></trkpt>
<trkpt lat="52.704704" lon="06.071222"><ele>-1.1</ele><time>2022-09-06T12:00:22Z</time><name>PT3377</name></trkpt>
<trkpt lat="52.704724" lon="06.071223"><ele>-1.1</ele><time>2022-09-06T12:00:24Z</time><name>PT3378</name></trkpt>
<trkpt lat="52.704743" lon="06.071223"><ele>-1</ele><time>2022-09-06T12:00:24Z</time><name>PT3379</name></trkpt>
<trkpt lat="52.704762" lon="06.071223"><ele>-1.1</ele><time>2022-09-06T12:00:26Z</time><name>PT3380</name></trkpt>
<trkpt lat="52.704781" lon="06.071223"><ele>-1.2</ele><time>2022-09-06T12:00:27Z</time><name>PT3381</name></trkpt>
<trkpt lat="52.704800" lon="06.071224"><ele>-1.3</ele><time>2022-09-06T12:00:27Z</time><name>PT3382</name></trkpt>
<trkpt lat="52.704819" lon="06.071226"><ele>-1.3</ele><time>2022-09-06T12:00:28Z</time><name>PT3383</name></trkpt>
<trkpt lat="52.704838" lon="06.071227"><ele>-1</ele><time>2022-09-06T12:00:30Z</time><name>PT3384</name></trkpt>
<trkpt lat="52.704857" lon="06.071228"><ele>-1.2</ele><time>2022-09-06T12:00:30Z</time><name>PT3385</name></trkpt>
<trkpt lat="52.704876" lon="06.071231"><ele>-1.1</ele><time>2022-09-06T12:00:32Z</time><name>PT3386</name></trkpt>
<trkpt lat="52.704896" lon="06.071234"><ele>-1.1</ele><time>2022-09-06T12:00:33Z</time><name>PT3387</name></trkpt>
<trkpt lat="52.704916" lon="06.071237"><ele>-1</ele><time>2022-09-06T12:00:33Z</time><name>PT3388</name></trkpt>
<trkpt lat="52.704936" lon="06.071240"><ele>-1.1</ele><time>2022-09-06T12:00:34Z</time><name>PT3389</name></trkpt>
<trkpt lat="52.704955" lon="06.071242"><ele>-1.1</ele><time>2022-09-06T12:00:36Z</time><name>PT3390</name></trkpt>
<trkpt lat="52.704974" lon="06.071245"><ele>-1</ele><time>2022-09-06T12:00:36Z</time><name>PT3391</name></trkpt>
<trkpt lat="52.704994" lon="06.071247"><ele>-1.1</ele><time>2022-09-06T12:00:37Z</time><name>PT3392</name></trkpt>
<trkpt lat="52.705013" lon="06.071248"><ele>-1.2</ele><time>2022-09-06T12:00:39Z</time><name>PT3393</name></trkpt>
<trkpt lat="52.705032" lon="06.071250"><ele>-1.2</ele><time>2022-09-06T12:00:39Z</time><name>PT3394</name></trkpt>
<trkpt lat="52.705052" lon="06.071251"><ele>-1.1</ele><time>2022-09-06T12:00:40Z</time><name>PT3395</name></trkpt>
<trkpt lat="52.705071" lon="06.071252"><ele>-1.1</ele><time>2022-09-06T12:00:42Z</time><name>PT3396</name></trkpt>
<trkpt lat="52.705090" lon="06.071252"><ele>-1</ele><time>2022-09-06T12:00:42Z</time><name>PT3397</name></trkpt>
<trkpt lat="52.705109" lon="06.071254"><ele>-1</ele><time>2022-09-06T12:00:43Z</time><name>PT3398</name></trkpt>
<trkpt lat="52.705129" lon="06.071255"><ele>-1</ele><time>2022-09-06T12:00:45Z</time><name>PT3399</name></trkpt>
<trkpt lat="52.705148" lon="06.071257"><ele>-1</ele><time>2022-09-06T12:00:45Z</time><name>PT3400</name></trkpt>
<trkpt lat="52.705168" lon="06.071260"><ele>-1</ele><time>2022-09-06T12:00:46Z</time><name>PT3401</name></trkpt>
<trkpt lat="52.705187" lon="06.071264"><ele>-1.2</ele><time>2022-09-06T12:00:48Z</time><name>PT3402</name></trkpt>
<trkpt lat="52.705206" lon="06.071267"><ele>-1.1</ele><time>2022-09-06T12:00:48Z</time><name>PT3403</name></trkpt>
<trkpt lat="52.705225" lon="06.071272"><ele>-1.1</ele><time>2022-09-06T12:00:49Z</time><name>PT3404</name></trkpt>
<trkpt lat="52.705245" lon="06.071275"><ele>-1</ele><time>2022-09-06T12:00:51Z</time><name>PT3405</name></trkpt>
<trkpt lat="52.705264" lon="06.071278"><ele>-1</ele><time>2022-09-06T12:00:51Z</time><name>PT3406</name></trkpt>
<trkpt lat="52.705283" lon="06.071281"><ele>-1</ele><time>2022-09-06T12:00:52Z</time><name>PT3407</name></trkpt>
<trkpt lat="52.705303" lon="06.071283"><ele>-1</ele><time>2022-09-06T12:00:54Z</time><name>PT3408</name></trkpt>
<trkpt lat="52.705322" lon="06.071285"><ele>-1</ele><time>2022-09-06T12:00:54Z</time><name>PT3409</name></trkpt>
<trkpt lat="52.705341" lon="06.071288"><ele>-1</ele><time>2022-09-06T12:00:55Z</time><name>PT3410</name></trkpt>
<trkpt lat="52.705361" lon="06.071290"><ele>-1</ele><time>2022-09-06T12:00:57Z</time><name>PT3411</name></trkpt>
<trkpt lat="52.705380" lon="06.071292"><ele>-1.1</ele><time>2022-09-06T12:00:57Z</time><name>PT3412</name></trkpt>
<trkpt lat="52.705399" lon="06.071294"><ele>-1.2</ele><time>2022-09-06T12:00:58Z</time><name>PT3413</name></trkpt>
<trkpt lat="52.705419" lon="06.071296"><ele>-1.2</ele><time>2022-09-06T12:01:00Z</time><name>PT3414</name></trkpt>
<trkpt lat="52.705437" lon="06.071299"><ele>-1.1</ele><time>2022-09-06T12:01:00Z</time><name>PT3415</name></trkpt>
<trkpt lat="52.705456" lon="06.071302"><ele>-1.1</ele><time>2022-09-06T12:01:01Z</time><name>PT3416</name></trkpt>
<trkpt lat="52.705475" lon="06.071306"><ele>-1</ele><time>2022-09-06T12:01:03Z</time><name>PT3417</name></trkpt>
<trkpt lat="52.705494" lon="06.071309"><ele>-1</ele><time>2022-09-06T12:01:03Z</time><name>PT3418</name></trkpt>
<trkpt lat="52.705513" lon="06.071312"><ele>-1</ele><time>2022-09-06T12:01:05Z</time><name>PT3419</name></trkpt>
<trkpt lat="52.705531" lon="06.071315"><ele>-1</ele><time>2022-09-06T12:01:06Z</time><name>PT3420</name></trkpt>
<trkpt lat="52.705550" lon="06.071318"><ele>-1.1</ele><time>2022-09-06T12:01:06Z</time><name>PT3421</name></trkpt>
<trkpt lat="52.705570" lon="06.071321"><ele>-1.2</ele><time>2022-09-06T12:01:07Z</time><name>PT3422</name></trkpt>
<trkpt lat="52.705589" lon="06.071324"><ele>-1.1</ele><time>2022-09-06T12:01:09Z</time><name>PT3423</name></trkpt>
<trkpt lat="52.705608" lon="06.071328"><ele>-1.2</ele><time>2022-09-06T12:01:09Z</time><name>PT3424</name></trkpt>
<trkpt lat="52.705627" lon="06.071331"><ele>-1.3</ele><time>2022-09-06T12:01:10Z</time><name>PT3425</name></trkpt>
<trkpt lat="52.705646" lon="06.071335"><ele>-1.3</ele><time>2022-09-06T12:01:12Z</time><name>PT3426</name></trkpt>
<trkpt lat="52.705665" lon="06.071339"><ele>-1.3</ele><time>2022-09-06T12:01:12Z</time><name>PT3427</name></trkpt>
<trkpt lat="52.705684" lon="06.071342"><ele>-1.2</ele><time>2022-09-06T12:01:13Z</time><name>PT3428</name></trkpt>
<trkpt lat="52.705703" lon="06.071346"><ele>-1</ele><time>2022-09-06T12:01:15Z</time><name>PT3429</name></trkpt>
<trkpt lat="52.705722" lon="06.071350"><ele>-1</ele><time>2022-09-06T12:01:15Z</time><name>PT3430</name></trkpt>
<trkpt lat="52.705741" lon="06.071354"><ele>-1</ele><time>2022-09-06T12:01:17Z</time><name>PT3431</name></trkpt>
<trkpt lat="52.705760" lon="06.071357"><ele>-1</ele><time>2022-09-06T12:01:18Z</time><name>PT3432</name></trkpt>
<trkpt lat="52.705779" lon="06.071361"><ele>0.9</ele><time>2022-09-06T12:01:18Z</time><name>PT3433</name></trkpt>
<trkpt lat="52.705798" lon="06.071365"><ele>-1.1</ele><time>2022-09-06T12:01:19Z</time><name>PT3434</name></trkpt>
<trkpt lat="52.705817" lon="06.071368"><ele>-1</ele><time>2022-09-06T12:01:21Z</time><name>PT3435</name></trkpt>
<trkpt lat="52.705836" lon="06.071371"><ele>-1.2</ele><time>2022-09-06T12:01:21Z</time><name>PT3436</name></trkpt>
<trkpt lat="52.705854" lon="06.071375"><ele>-1.2</ele><time>2022-09-06T12:01:22Z</time><name>PT3437</name></trkpt>
<trkpt lat="52.705873" lon="06.071379"><ele>-1</ele><time>2022-09-06T12:01:24Z</time><name>PT3438</name></trkpt>
<trkpt lat="52.705892" lon="06.071381"><ele>-1</ele><time>2022-09-06T12:01:24Z</time><name>PT3439</name></trkpt>
<trkpt lat="52.705910" lon="06.071384"><ele>-1</ele><time>2022-09-06T12:01:25Z</time><name>PT3440</name></trkpt>
<trkpt lat="52.705929" lon="06.071388"><ele>0.9</ele><time>2022-09-06T12:01:27Z</time><name>PT3441</name></trkpt>
<trkpt lat="52.705948" lon="06.071391"><ele>0.9</ele><time>2022-09-06T12:01:27Z</time><name>PT3442</name></trkpt>
<trkpt lat="52.705967" lon="06.071394"><ele>-1</ele><time>2022-09-06T12:01:28Z</time><name>PT3443</name></trkpt>
<trkpt lat="52.705986" lon="06.071397"><ele>0.9</ele><time>2022-09-06T12:01:30Z</time><name>PT3444</name></trkpt>
<trkpt lat="52.706005" lon="06.071400"><ele>0.9</ele><time>2022-09-06T12:01:30Z</time><name>PT3445</name></trkpt>
<trkpt lat="52.706024" lon="06.071403"><ele>-1.1</ele><time>2022-09-06T12:01:31Z</time><name>PT3446</name></trkpt>
<trkpt lat="52.706043" lon="06.071406"><ele>-1.3</ele><time>2022-09-06T12:01:33Z</time><name>PT3447</name></trkpt>
<trkpt lat="52.706062" lon="06.071409"><ele>-1.3</ele><time>2022-09-06T12:01:33Z</time><name>PT3448</name></trkpt>
<trkpt lat="52.706081" lon="06.071412"><ele>-1.4</ele><time>2022-09-06T12:01:34Z</time><name>PT3449</name></trkpt>
<trkpt lat="52.706100" lon="06.071415"><ele>-1.3</ele><time>2022-09-06T12:01:36Z</time><name>PT3450</name></trkpt>
<trkpt lat="52.706119" lon="06.071418"><ele>-1.3</ele><time>2022-09-06T12:01:36Z</time><name>PT3451</name></trkpt>
<trkpt lat="52.706138" lon="06.071422"><ele>-1.2</ele><time>2022-09-06T12:01:37Z</time><name>PT3452</name></trkpt>
<trkpt lat="52.706157" lon="06.071425"><ele>-1.2</ele><time>2022-09-06T12:01:39Z</time><name>PT3453</name></trkpt>
<trkpt lat="52.706176" lon="06.071428"><ele>-1.3</ele><time>2022-09-06T12:01:39Z</time><name>PT3454</name></trkpt>
<trkpt lat="52.706196" lon="06.071432"><ele>-1.1</ele><time>2022-09-06T12:01:40Z</time><name>PT3455</name></trkpt>
<trkpt lat="52.706214" lon="06.071436"><ele>-1.1</ele><time>2022-09-06T12:01:42Z</time><name>PT3456</name></trkpt>
<trkpt lat="52.706233" lon="06.071440"><ele>-1.2</ele><time>2022-09-06T12:01:42Z</time><name>PT3457</name></trkpt>
<trkpt lat="52.706253" lon="06.071443"><ele>-1.1</ele><time>2022-09-06T12:01:43Z</time><name>PT3458</name></trkpt>
<trkpt lat="52.706271" lon="06.071448"><ele>-1.2</ele><time>2022-09-06T12:01:45Z</time><name>PT3459</name></trkpt>
<trkpt lat="52.706290" lon="06.071452"><ele>-1.4</ele><time>2022-09-06T12:01:45Z</time><name>PT3460</name></trkpt>
<trkpt lat="52.706309" lon="06.071456"><ele>-1.1</ele><time>2022-09-06T12:01:46Z</time><name>PT3461</name></trkpt>
<trkpt lat="52.706327" lon="06.071460"><ele>-1.2</ele><time>2022-09-06T12:01:48Z</time><name>PT3462</name></trkpt>
<trkpt lat="52.706346" lon="06.071464"><ele>-1.1</ele><time>2022-09-06T12:01:48Z</time><name>PT3463</name></trkpt>
<trkpt lat="52.706365" lon="06.071468"><ele>-1</ele><time>2022-09-06T12:01:49Z</time><name>PT3464</name></trkpt>
<trkpt lat="52.706384" lon="06.071471"><ele>-1</ele><time>2022-09-06T12:01:51Z</time><name>PT3465</name></trkpt>
<trkpt lat="52.706403" lon="06.071476"><ele>-1</ele><time>2022-09-06T12:01:51Z</time><name>PT3466</name></trkpt>
<trkpt lat="52.706421" lon="06.071479"><ele>0.7</ele><time>2022-09-06T12:01:52Z</time><name>PT3467</name></trkpt>
<trkpt lat="52.706441" lon="06.071483"><ele>0.9</ele><time>2022-09-06T12:01:54Z</time><name>PT3468</name></trkpt>
<trkpt lat="52.706460" lon="06.071486"><ele>0.8</ele><time>2022-09-06T12:01:54Z</time><name>PT3469</name></trkpt>
<trkpt lat="52.706478" lon="06.071490"><ele>-1</ele><time>2022-09-06T12:01:55Z</time><name>PT3470</name></trkpt>
<trkpt lat="52.706498" lon="06.071493"><ele>-1</ele><time>2022-09-06T12:01:57Z</time><name>PT3471</name></trkpt>
<trkpt lat="52.706517" lon="06.071497"><ele>-1.2</ele><time>2022-09-06T12:01:57Z</time><name>PT3472</name></trkpt>
<trkpt lat="52.706536" lon="06.071500"><ele>-1.2</ele><time>2022-09-06T12:01:58Z</time><name>PT3473</name></trkpt>
<trkpt lat="52.706555" lon="06.071503"><ele>-1.1</ele><time>2022-09-06T12:02:00Z</time><name>PT3474</name></trkpt>
<trkpt lat="52.706574" lon="06.071507"><ele>-1.2</ele><time>2022-09-06T12:02:00Z</time><name>PT3475</name></trkpt>
<trkpt lat="52.706593" lon="06.071511"><ele>-1</ele><time>2022-09-06T12:02:01Z</time><name>PT3476</name></trkpt>
<trkpt lat="52.706613" lon="06.071515"><ele>-1</ele><time>2022-09-06T12:02:03Z</time><name>PT3477</name></trkpt>
<trkpt lat="52.706631" lon="06.071519"><ele>-1</ele><time>2022-09-06T12:02:03Z</time><name>PT3478</name></trkpt>
<trkpt lat="52.706650" lon="06.071523"><ele>0.9</ele><time>2022-09-06T12:02:04Z</time><name>PT3479</name></trkpt>
<trkpt lat="52.706669" lon="06.071528"><ele>0.9</ele><time>2022-09-06T12:02:06Z</time><name>PT3480</name></trkpt>
<trkpt lat="52.706688" lon="06.071533"><ele>0.8</ele><time>2022-09-06T12:02:06Z</time><name>PT3481</name></trkpt>
<trkpt lat="52.706707" lon="06.071538"><ele>0.7</ele><time>2022-09-06T12:02:07Z</time><name>PT3482</name></trkpt>
<trkpt lat="52.706725" lon="06.071543"><ele>0.8</ele><time>2022-09-06T12:02:09Z</time><name>PT3483</name></trkpt>
<trkpt lat="52.706744" lon="06.071549"><ele>-1</ele><time>2022-09-06T12:02:09Z</time><name>PT3484</name></trkpt>
<trkpt lat="52.706762" lon="06.071554"><ele>-1</ele><time>2022-09-06T12:02:10Z</time><name>PT3485</name></trkpt>
<trkpt lat="52.706781" lon="06.071559"><ele>-1.2</ele><time>2022-09-06T12:02:12Z</time><name>PT3486</name></trkpt>
<trkpt lat="52.706800" lon="06.071565"><ele>-1.2</ele><time>2022-09-06T12:02:12Z</time><name>PT3487</name></trkpt>
<trkpt lat="52.706818" lon="06.071570"><ele>-1</ele><time>2022-09-06T12:02:13Z</time><name>PT3488</name></trkpt>
<trkpt lat="52.706837" lon="06.071575"><ele>-1.2</ele><time>2022-09-06T12:02:15Z</time><name>PT3489</name></trkpt>
<trkpt lat="52.706856" lon="06.071581"><ele>-1</ele><time>2022-09-06T12:02:15Z</time><name>PT3490</name></trkpt>
<trkpt lat="52.706874" lon="06.071586"><ele>-1</ele><time>2022-09-06T12:02:16Z</time><name>PT3491</name></trkpt>
<trkpt lat="52.706893" lon="06.071592"><ele>-1.1</ele><time>2022-09-06T12:02:18Z</time><name>PT3492</name></trkpt>
<trkpt lat="52.706911" lon="06.071598"><ele>-1.2</ele><time>2022-09-06T12:02:18Z</time><name>PT3493</name></trkpt>
<trkpt lat="52.706930" lon="06.071603"><ele>-1</ele><time>2022-09-06T12:02:20Z</time><name>PT3494</name></trkpt>
<trkpt lat="52.706949" lon="06.071609"><ele>-1.1</ele><time>2022-09-06T12:02:21Z</time><name>PT3495</name></trkpt>
<trkpt lat="52.706967" lon="06.071614"><ele>0.9</ele><time>2022-09-06T12:02:21Z</time><name>PT3496</name></trkpt>
<trkpt lat="52.706986" lon="06.071620"><ele>0.9</ele><time>2022-09-06T12:02:22Z</time><name>PT3497</name></trkpt>
<trkpt lat="52.707005" lon="06.071625"><ele>0.9</ele><time>2022-09-06T12:02:24Z</time><name>PT3498</name></trkpt>
<trkpt lat="52.707023" lon="06.071631"><ele>-1</ele><time>2022-09-06T12:02:24Z</time><name>PT3499</name></trkpt>
<trkpt lat="52.707042" lon="06.071637"><ele>-1</ele><time>2022-09-06T12:02:25Z</time><name>PT3500</name></trkpt>
<trkpt lat="52.707061" lon="06.071642"><ele>-1.1</ele><time>2022-09-06T12:02:27Z</time><name>PT3501</name></trkpt>
<trkpt lat="52.707080" lon="06.071649"><ele>-1.2</ele><time>2022-09-06T12:02:27Z</time><name>PT3502</name></trkpt>
<trkpt lat="52.707098" lon="06.071655"><ele>-1.1</ele><time>2022-09-06T12:02:28Z</time><name>PT3503</name></trkpt>
<trkpt lat="52.707117" lon="06.071662"><ele>-1.2</ele><time>2022-09-06T12:02:30Z</time><name>PT3504</name></trkpt>
<trkpt lat="52.707136" lon="06.071668"><ele>-1.1</ele><time>2022-09-06T12:02:30Z</time><name>PT3505</name></trkpt>
<trkpt lat="52.707154" lon="06.071674"><ele>-1</ele><time>2022-09-06T12:02:31Z</time><name>PT3506</name></trkpt>
<trkpt lat="52.707173" lon="06.071680"><ele>-1</ele><time>2022-09-06T12:02:33Z</time><name>PT3507</name></trkpt>
<trkpt lat="52.707191" lon="06.071686"><ele>0.9</ele><time>2022-09-06T12:02:33Z</time><name>PT3508</name></trkpt>
<trkpt lat="52.707210" lon="06.071693"><ele>-1</ele><time>2022-09-06T12:02:34Z</time><name>PT3509</name></trkpt>
<trkpt lat="52.707229" lon="06.071699"><ele>-1</ele><time>2022-09-06T12:02:36Z</time><name>PT3510</name></trkpt>
<trkpt lat="52.707247" lon="06.071705"><ele>-1</ele><time>2022-09-06T12:02:36Z</time><name>PT3511</name></trkpt>
<trkpt lat="52.707266" lon="06.071711"><ele>-1.1</ele><time>2022-09-06T12:02:37Z</time><name>PT3512</name></trkpt>
<trkpt lat="52.707285" lon="06.071717"><ele>-1</ele><time>2022-09-06T12:02:39Z</time><name>PT3513</name></trkpt>
<trkpt lat="52.707304" lon="06.071723"><ele>-1.1</ele><time>2022-09-06T12:02:39Z</time><name>PT3514</name></trkpt>
<trkpt lat="52.707323" lon="06.071728"><ele>-1</ele><time>2022-09-06T12:02:40Z</time><name>PT3515</name></trkpt>
<trkpt lat="52.707342" lon="06.071734"><ele>-1</ele><time>2022-09-06T12:02:42Z</time><name>PT3516</name></trkpt>
<trkpt lat="52.707360" lon="06.071739"><ele>-1</ele><time>2022-09-06T12:02:42Z</time><name>PT3517</name></trkpt>
<trkpt lat="52.707378" lon="06.071743"><ele>-1.1</ele><time>2022-09-06T12:02:43Z</time><name>PT3518</name></trkpt>
<trkpt lat="52.707397" lon="06.071749"><ele>-1</ele><time>2022-09-06T12:02:45Z</time><name>PT3519</name></trkpt>
<trkpt lat="52.707416" lon="06.071754"><ele>-1</ele><time>2022-09-06T12:02:45Z</time><name>PT3520</name></trkpt>
<trkpt lat="52.707435" lon="06.071759"><ele>-1.1</ele><time>2022-09-06T12:02:46Z</time><name>PT3521</name></trkpt>
<trkpt lat="52.707454" lon="06.071764"><ele>-1.2</ele><time>2022-09-06T12:02:48Z</time><name>PT3522</name></trkpt>
<trkpt lat="52.707473" lon="06.071768"><ele>-1</ele><time>2022-09-06T12:02:48Z</time><name>PT3523</name></trkpt>
<trkpt lat="52.707492" lon="06.071772"><ele>-1.1</ele><time>2022-09-06T12:02:49Z</time><name>PT3524</name></trkpt>
<trkpt lat="52.707511" lon="06.071776"><ele>-1</ele><time>2022-09-06T12:02:51Z</time><name>PT3525</name></trkpt>
<trkpt lat="52.707530" lon="06.071781"><ele>-1</ele><time>2022-09-06T12:02:51Z</time><name>PT3526</name></trkpt>
<trkpt lat="52.707549" lon="06.071785"><ele>-1</ele><time>2022-09-06T12:02:52Z</time><name>PT3527</name></trkpt>
<trkpt lat="52.707568" lon="06.071790"><ele>0.9</ele><time>2022-09-06T12:02:54Z</time><name>PT3528</name></trkpt>
<trkpt lat="52.707587" lon="06.071794"><ele>-1</ele><time>2022-09-06T12:02:54Z</time><name>PT3529</name></trkpt>
<trkpt lat="52.707606" lon="06.071798"><ele>-1</ele><time>2022-09-06T12:02:55Z</time><name>PT3530</name></trkpt>
<trkpt lat="52.707623" lon="06.071803"><ele>0.9</ele><time>2022-09-06T12:02:57Z</time><name>PT3531</name></trkpt>
<trkpt lat="52.707642" lon="06.071808"><ele>-1</ele><time>2022-09-06T12:02:57Z</time><name>PT3532</name></trkpt>
<trkpt lat="52.707661" lon="06.071814"><ele>-1</ele><time>2022-09-06T12:02:58Z</time><name>PT3533</name></trkpt>
<trkpt lat="52.707680" lon="06.071819"><ele>0.9</ele><time>2022-09-06T12:03:00Z</time><name>PT3534</name></trkpt>
<trkpt lat="52.707699" lon="06.071825"><ele>0.7</ele><time>2022-09-06T12:03:00Z</time><name>PT3535</name></trkpt>
<trkpt lat="52.707717" lon="06.071830"><ele>0.9</ele><time>2022-09-06T12:03:01Z</time><name>PT3536</name></trkpt>
<trkpt lat="52.707736" lon="06.071836"><ele>0.9</ele><time>2022-09-06T12:03:03Z</time><name>PT3537</name></trkpt>
<trkpt lat="52.707754" lon="06.071842"><ele>-1</ele><time>2022-09-06T12:03:03Z</time><name>PT3538</name></trkpt>
<trkpt lat="52.707773" lon="06.071849"><ele>-1.5</ele><time>2022-09-06T12:03:04Z</time><name>PT3539</name></trkpt>
<trkpt lat="52.707791" lon="06.071855"><ele>-1.4</ele><time>2022-09-06T12:03:06Z</time><name>PT3540</name></trkpt>
<trkpt lat="52.707810" lon="06.071861"><ele>-1.4</ele><time>2022-09-06T12:03:06Z</time><name>PT3541</name></trkpt>
<trkpt lat="52.707829" lon="06.071868"><ele>-1.3</ele><time>2022-09-06T12:03:07Z</time><name>PT3542</name></trkpt>
<trkpt lat="52.707848" lon="06.071874"><ele>-1.1</ele><time>2022-09-06T12:03:09Z</time><name>PT3543</name></trkpt>
<trkpt lat="52.707866" lon="06.071882"><ele>-1</ele><time>2022-09-06T12:03:09Z</time><name>PT3544</name></trkpt>
<trkpt lat="52.707885" lon="06.071889"><ele>0.9</ele><time>2022-09-06T12:03:11Z</time><name>PT3545</name></trkpt>
<trkpt lat="52.707903" lon="06.071897"><ele>0.8</ele><time>2022-09-06T12:03:12Z</time><name>PT3546</name></trkpt>
<trkpt lat="52.707921" lon="06.071904"><ele>0.9</ele><time>2022-09-06T12:03:12Z</time><name>PT3547</name></trkpt>
<trkpt lat="52.707940" lon="06.071911"><ele>0.9</ele><time>2022-09-06T12:03:13Z</time><name>PT3548</name></trkpt>
<trkpt lat="52.707958" lon="06.071919"><ele>0.9</ele><time>2022-09-06T12:03:15Z</time><name>PT3549</name></trkpt>
<trkpt lat="52.707976" lon="06.071926"><ele>-1</ele><time>2022-09-06T12:03:15Z</time><name>PT3550</name></trkpt>
<trkpt lat="52.707994" lon="06.071934"><ele>-1</ele><time>2022-09-06T12:03:16Z</time><name>PT3551</name></trkpt>
<trkpt lat="52.708013" lon="06.071942"><ele>-1</ele><time>2022-09-06T12:03:18Z</time><name>PT3552</name></trkpt>
<trkpt lat="52.708031" lon="06.071951"><ele>-1</ele><time>2022-09-06T12:03:18Z</time><name>PT3553</name></trkpt>
<trkpt lat="52.708050" lon="06.071958"><ele>-1</ele><time>2022-09-06T12:03:19Z</time><name>PT3554</name></trkpt>
<trkpt lat="52.708069" lon="06.071966"><ele>-1</ele><time>2022-09-06T12:03:21Z</time><name>PT3555</name></trkpt>
<trkpt lat="52.708086" lon="06.071974"><ele>-1</ele><time>2022-09-06T12:03:21Z</time><name>PT3556</name></trkpt>
<trkpt lat="52.708104" lon="06.071983"><ele>0.9</ele><time>2022-09-06T12:03:23Z</time><name>PT3557</name></trkpt>
<trkpt lat="52.708123" lon="06.071992"><ele>0.9</ele><time>2022-09-06T12:03:24Z</time><name>PT3558</name></trkpt>
<trkpt lat="52.708141" lon="06.072000"><ele>0.8</ele><time>2022-09-06T12:03:24Z</time><name>PT3559</name></trkpt>
<trkpt lat="52.708159" lon="06.072009"><ele>0.8</ele><time>2022-09-06T12:03:25Z</time><name>PT3560</name></trkpt>
<trkpt lat="52.708177" lon="06.072018"><ele>0.8</ele><time>2022-09-06T12:03:27Z</time><name>PT3561</name></trkpt>
<trkpt lat="52.708196" lon="06.072028"><ele>0.9</ele><time>2022-09-06T12:03:27Z</time><name>PT3562</name></trkpt>
<trkpt lat="52.708214" lon="06.072038"><ele>-1</ele><time>2022-09-06T12:03:28Z</time><name>PT3563</name></trkpt>
<trkpt lat="52.708232" lon="06.072048"><ele>-1</ele><time>2022-09-06T12:03:30Z</time><name>PT3564</name></trkpt>
<trkpt lat="52.708250" lon="06.072059"><ele>-1.2</ele><time>2022-09-06T12:03:30Z</time><name>PT3565</name></trkpt>
<trkpt lat="52.708268" lon="06.072070"><ele>-1.2</ele><time>2022-09-06T12:03:31Z</time><name>PT3566</name></trkpt>
<trkpt lat="52.708285" lon="06.072082"><ele>-1.3</ele><time>2022-09-06T12:03:33Z</time><name>PT3567</name></trkpt>
<trkpt lat="52.708302" lon="06.072094"><ele>-1.3</ele><time>2022-09-06T12:03:33Z</time><name>PT3568</name></trkpt>
<trkpt lat="52.708318" lon="06.072106"><ele>-1.1</ele><time>2022-09-06T12:03:34Z</time><name>PT3569</name></trkpt>
<trkpt lat="52.708336" lon="06.072119"><ele>-1</ele><time>2022-09-06T12:03:36Z</time><name>PT3570</name></trkpt>
<trkpt lat="52.708353" lon="06.072132"><ele>-1</ele><time>2022-09-06T12:03:36Z</time><name>PT3571</name></trkpt>
<trkpt lat="52.708370" lon="06.072146"><ele>-1.1</ele><time>2022-09-06T12:03:37Z</time><name>PT3572</name></trkpt>
<trkpt lat="52.708388" lon="06.072159"><ele>-1.1</ele><time>2022-09-06T12:03:39Z</time><name>PT3573</name></trkpt>
<trkpt lat="52.708405" lon="06.072172"><ele>-1.2</ele><time>2022-09-06T12:03:39Z</time><name>PT3574</name></trkpt>
<trkpt lat="52.708422" lon="06.072184"><ele>-1</ele><time>2022-09-06T12:03:40Z</time><name>PT3575</name></trkpt>
<trkpt lat="52.708439" lon="06.072197"><ele>-1.1</ele><time>2022-09-06T12:03:42Z</time><name>PT3576</name></trkpt>
<trkpt lat="52.708455" lon="06.072213"><ele>-1.2</ele><time>2022-09-06T12:03:42Z</time><name>PT3577</name></trkpt>
<trkpt lat="52.708472" lon="06.072228"><ele>-1.1</ele><time>2022-09-06T12:03:43Z</time><name>PT3578</name></trkpt>
<trkpt lat="52.708488" lon="06.072244"><ele>-1.2</ele><time>2022-09-06T12:03:45Z</time><name>PT3579</name></trkpt>
<trkpt lat="52.708504" lon="06.072261"><ele>-1.2</ele><time>2022-09-06T12:03:45Z</time><name>PT3580</name></trkpt>
<trkpt lat="52.708521" lon="06.072278"><ele>-1.1</ele><time>2022-09-06T12:03:46Z</time><name>PT3581</name></trkpt>
<trkpt lat="52.708538" lon="06.072294"><ele>-1.2</ele><time>2022-09-06T12:03:48Z</time><name>PT3582</name></trkpt>
<trkpt lat="52.708554" lon="06.072310"><ele>-1.1</ele><time>2022-09-06T12:03:48Z</time><name>PT3583</name></trkpt>
<trkpt lat="52.708571" lon="06.072324"><ele>-1.2</ele><time>2022-09-06T12:03:49Z</time><name>PT3584</name></trkpt>
<trkpt lat="52.708588" lon="06.072339"><ele>-1</ele><time>2022-09-06T12:03:51Z</time><name>PT3585</name></trkpt>
<trkpt lat="52.708606" lon="06.072353"><ele>-1</ele><time>2022-09-06T12:03:51Z</time><name>PT3586</name></trkpt>
<trkpt lat="52.708622" lon="06.072367"><ele>-1.2</ele><time>2022-09-06T12:03:52Z</time><name>PT3587</name></trkpt>
<trkpt lat="52.708639" lon="06.072382"><ele>-1.1</ele><time>2022-09-06T12:03:54Z</time><name>PT3588</name></trkpt>
<trkpt lat="52.708656" lon="06.072397"><ele>-1</ele><time>2022-09-06T12:03:54Z</time><name>PT3589</name></trkpt>
<trkpt lat="52.708673" lon="06.072412"><ele>0.9</ele><time>2022-09-06T12:03:55Z</time><name>PT3590</name></trkpt>
<trkpt lat="52.708690" lon="06.072426"><ele>0.8</ele><time>2022-09-06T12:03:57Z</time><name>PT3591</name></trkpt>
<trkpt lat="52.708706" lon="06.072441"><ele>0.7</ele><time>2022-09-06T12:03:57Z</time><name>PT3592</name></trkpt>
<trkpt lat="52.708723" lon="06.072457"><ele>0.9</ele><time>2022-09-06T12:03:58Z</time><name>PT3593</name></trkpt>
<trkpt lat="52.708739" lon="06.072473"><ele>-1</ele><time>2022-09-06T12:04:00Z</time><name>PT3594</name></trkpt>
<trkpt lat="52.708756" lon="06.072487"><ele>-1</ele><time>2022-09-06T12:04:00Z</time><name>PT3595</name></trkpt>
<trkpt lat="52.708771" lon="06.072503"><ele>-1</ele><time>2022-09-06T12:04:01Z</time><name>PT3596</name></trkpt>
<trkpt lat="52.708787" lon="06.072518"><ele>-1</ele><time>2022-09-06T12:04:03Z</time><name>PT3597</name></trkpt>
<trkpt lat="52.708803" lon="06.072537"><ele>0.9</ele><time>2022-09-06T12:04:03Z</time><name>PT3598</name></trkpt>
<trkpt lat="52.708818" lon="06.072556"><ele>0.9</ele><time>2022-09-06T12:04:04Z</time><name>PT3599</name></trkpt>
<trkpt lat="52.708834" lon="06.072573"><ele>-1</ele><time>2022-09-06T12:04:06Z</time><name>PT3600</name></trkpt>
<trkpt lat="52.708849" lon="06.072592"><ele>-1.1</ele><time>2022-09-06T12:04:06Z</time><name>PT3601</name></trkpt>
<trkpt lat="52.708863" lon="06.072610"><ele>-1.1</ele><time>2022-09-06T12:04:07Z</time><name>PT3602</name></trkpt>
<trkpt lat="52.708879" lon="06.072626"><ele>-1</ele><time>2022-09-06T12:04:09Z</time><name>PT3603</name></trkpt>
<trkpt lat="52.708895" lon="06.072644"><ele>-1</ele><time>2022-09-06T12:04:09Z</time><name>PT3604</name></trkpt>
<trkpt lat="52.708911" lon="06.072659"><ele>-1</ele><time>2022-09-06T12:04:11Z</time><name>PT3605</name></trkpt>
<trkpt lat="52.708927" lon="06.072674"><ele>-1</ele><time>2022-09-06T12:04:12Z</time><name>PT3606</name></trkpt>
<trkpt lat="52.708942" lon="06.072689"><ele>-1</ele><time>2022-09-06T12:04:12Z</time><name>PT3607</name></trkpt>
<trkpt lat="52.708957" lon="06.072704"><ele>-1</ele><time>2022-09-06T12:04:13Z</time><name>PT3608</name></trkpt>
<trkpt lat="52.708973" lon="06.072720"><ele>-1</ele><time>2022-09-06T12:04:15Z</time><name>PT3609</name></trkpt>
<trkpt lat="52.708988" lon="06.072737"><ele>-1.1</ele><time>2022-09-06T12:04:15Z</time><name>PT3610</name></trkpt>
<trkpt lat="52.709004" lon="06.072753"><ele>-1.1</ele><time>2022-09-06T12:04:17Z</time><name>PT3611</name></trkpt>
<trkpt lat="52.709019" lon="06.072769"><ele>-1</ele><time>2022-09-06T12:04:18Z</time><name>PT3612</name></trkpt>
<trkpt lat="52.709036" lon="06.072782"><ele>-1</ele><time>2022-09-06T12:04:18Z</time><name>PT3613</name></trkpt>
<trkpt lat="52.709052" lon="06.072794"><ele>-1</ele><time>2022-09-06T12:04:19Z</time><name>PT3614</name></trkpt>
<trkpt lat="52.709067" lon="06.072811"><ele>-1</ele><time>2022-09-06T12:04:21Z</time><name>PT3615</name></trkpt>
<trkpt lat="52.709082" lon="06.072826"><ele>0.9</ele><time>2022-09-06T12:04:21Z</time><name>PT3616</name></trkpt>
<trkpt lat="52.709097" lon="06.072843"><ele>-1</ele><time>2022-09-06T12:04:22Z</time><name>PT3617</name></trkpt>
<trkpt lat="52.709112" lon="06.072860"><ele>0.9</ele><time>2022-09-06T12:04:24Z</time><name>PT3618</name></trkpt>
<trkpt lat="52.709127" lon="06.072877"><ele>0.9</ele><time>2022-09-06T12:04:24Z</time><name>PT3619</name></trkpt>
<trkpt lat="52.709143" lon="06.072894"><ele>-1</ele><time>2022-09-06T12:04:25Z</time><name>PT3620</name></trkpt>
<trkpt lat="52.709158" lon="06.072911"><ele>-1.2</ele><time>2022-09-06T12:04:27Z</time><name>PT3621</name></trkpt>
<trkpt lat="52.709173" lon="06.072930"><ele>-1.2</ele><time>2022-09-06T12:04:27Z</time><name>PT3622</name></trkpt>
<trkpt lat="52.709188" lon="06.072945"><ele>-1.4</ele><time>2022-09-06T12:04:28Z</time><name>PT3623</name></trkpt>
<trkpt lat="52.709204" lon="06.072962"><ele>-1.2</ele><time>2022-09-06T12:04:30Z</time><name>PT3624</name></trkpt>
<trkpt lat="52.709220" lon="06.072979"><ele>-1.1</ele><time>2022-09-06T12:04:30Z</time><name>PT3625</name></trkpt>
<trkpt lat="52.709236" lon="06.072995"><ele>0.9</ele><time>2022-09-06T12:04:31Z</time><name>PT3626</name></trkpt>
<trkpt lat="52.709251" lon="06.073011"><ele>0.9</ele><time>2022-09-06T12:04:33Z</time><name>PT3627</name></trkpt>
<trkpt lat="52.709267" lon="06.073027"><ele>0.9</ele><time>2022-09-06T12:04:33Z</time><name>PT3628</name></trkpt>
<trkpt lat="52.709283" lon="06.073044"><ele>0.9</ele><time>2022-09-06T12:04:34Z</time><name>PT3629</name></trkpt>
<trkpt lat="52.709298" lon="06.073063"><ele>-1</ele><time>2022-09-06T12:04:36Z</time><name>PT3630</name></trkpt>
<trkpt lat="52.709314" lon="06.073081"><ele>-1</ele><time>2022-09-06T12:04:36Z</time><name>PT3631</name></trkpt>
<trkpt lat="52.709329" lon="06.073099"><ele>-1</ele><time>2022-09-06T12:04:37Z</time><name>PT3632</name></trkpt>
<trkpt lat="52.709345" lon="06.073118"><ele>-1.2</ele><time>2022-09-06T12:04:39Z</time><name>PT3633</name></trkpt>
<trkpt lat="52.709361" lon="06.073135"><ele>-1</ele><time>2022-09-06T12:04:39Z</time><name>PT3634</name></trkpt>
<trkpt lat="52.709377" lon="06.073150"><ele>-1.1</ele><time>2022-09-06T12:04:41Z</time><name>PT3635</name></trkpt>
<trkpt lat="52.709394" lon="06.073164"><ele>-1.1</ele><time>2022-09-06T12:04:42Z</time><name>PT3636</name></trkpt>
<trkpt lat="52.709410" lon="06.073179"><ele>-1</ele><time>2022-09-06T12:04:42Z</time><name>PT3637</name></trkpt>
<trkpt lat="52.709427" lon="06.073194"><ele>-1</ele><time>2022-09-06T12:04:43Z</time><name>PT3638</name></trkpt>
<trkpt lat="52.709444" lon="06.073211"><ele>-1</ele><time>2022-09-06T12:04:45Z</time><name>PT3639</name></trkpt>
<trkpt lat="52.709460" lon="06.073227"><ele>-1</ele><time>2022-09-06T12:04:45Z</time><name>PT3640</name></trkpt>
<trkpt lat="52.709478" lon="06.073243"><ele>-1.1</ele><time>2022-09-06T12:04:46Z</time><name>PT3641</name></trkpt>
<trkpt lat="52.709493" lon="06.073258"><ele>-1.2</ele><time>2022-09-06T12:04:48Z</time><name>PT3642</name></trkpt>
<trkpt lat="52.709509" lon="06.073274"><ele>-1.1</ele><time>2022-09-06T12:04:48Z</time><name>PT3643</name></trkpt>
<trkpt lat="52.709524" lon="06.073288"><ele>-1.2</ele><time>2022-09-06T12:04:49Z</time><name>PT3644</name></trkpt>
<trkpt lat="52.709540" lon="06.073303"><ele>-1.1</ele><time>2022-09-06T12:04:51Z</time><name>PT3645</name></trkpt>
<trkpt lat="52.709556" lon="06.073319"><ele>-1.1</ele><time>2022-09-06T12:04:51Z</time><name>PT3646</name></trkpt>
<trkpt lat="52.709572" lon="06.073335"><ele>-1.1</ele><time>2022-09-06T12:04:52Z</time><name>PT3647</name></trkpt>
<trkpt lat="52.709588" lon="06.073353"><ele>-1.2</ele><time>2022-09-06T12:04:54Z</time><name>PT3648</name></trkpt>
<trkpt lat="52.709603" lon="06.073370"><ele>-1.1</ele><time>2022-09-06T12:04:54Z</time><name>PT3649</name></trkpt>
<trkpt lat="52.709618" lon="06.073388"><ele>-1</ele><time>2022-09-06T12:04:55Z</time><name>PT3650</name></trkpt>
<trkpt lat="52.709633" lon="06.073404"><ele>0.8</ele><time>2022-09-06T12:04:57Z</time><name>PT3651</name></trkpt>
<trkpt lat="52.709648" lon="06.073421"><ele>0.8</ele><time>2022-09-06T12:04:57Z</time><name>PT3652</name></trkpt>
<trkpt lat="52.709664" lon="06.073435"><ele>0.8</ele><time>2022-09-06T12:04:58Z</time><name>PT3653</name></trkpt>
<trkpt lat="52.709680" lon="06.073451"><ele>-1.1</ele><time>2022-09-06T12:05:00Z</time><name>PT3654</name></trkpt>
<trkpt lat="52.709696" lon="06.073466"><ele>-1.2</ele><time>2022-09-06T12:05:00Z</time><name>PT3655</name></trkpt>
<trkpt lat="52.709712" lon="06.073481"><ele>-1.1</ele><time>2022-09-06T12:05:01Z</time><name>PT3656</name></trkpt>
<trkpt lat="52.709728" lon="06.073497"><ele>-1.2</ele><time>2022-09-06T12:05:03Z</time><name>PT3657</name></trkpt>
<trkpt lat="52.709744" lon="06.073512"><ele>-1.2</ele><time>2022-09-06T12:05:03Z</time><name>PT3658</name></trkpt>
<trkpt lat="52.709761" lon="06.073528"><ele>-1.2</ele><time>2022-09-06T12:05:04Z</time><name>PT3659</name></trkpt>
<trkpt lat="52.709777" lon="06.073545"><ele>-1.1</ele><time>2022-09-06T12:05:06Z</time><name>PT3660</name></trkpt>
<trkpt lat="52.709793" lon="06.073561"><ele>-1</ele><time>2022-09-06T12:05:06Z</time><name>PT3661</name></trkpt>
<trkpt lat="52.709808" lon="06.073578"><ele>0.9</ele><time>2022-09-06T12:05:07Z</time><name>PT3662</name></trkpt>
<trkpt lat="52.709824" lon="06.073594"><ele>0.7</ele><time>2022-09-06T12:05:09Z</time><name>PT3663</name></trkpt>
<trkpt lat="52.709840" lon="06.073610"><ele>0.6</ele><time>2022-09-06T12:05:09Z</time><name>PT3664</name></trkpt>
<trkpt lat="52.709855" lon="06.073626"><ele>0.8</ele><time>2022-09-06T12:05:10Z</time><name>PT3665</name></trkpt>
<trkpt lat="52.709871" lon="06.073641"><ele>0.7</ele><time>2022-09-06T12:05:12Z</time><name>PT3666</name></trkpt>
<trkpt lat="52.709887" lon="06.073656"><ele>0.9</ele><time>2022-09-06T12:05:12Z</time><name>PT3667</name></trkpt>
<trkpt lat="52.709903" lon="06.073671"><ele>0.8</ele><time>2022-09-06T12:05:13Z</time><name>PT3668</name></trkpt>
<trkpt lat="52.709919" lon="06.073689"><ele>-1</ele><time>2022-09-06T12:05:15Z</time><name>PT3669</name></trkpt>
<trkpt lat="52.709935" lon="06.073706"><ele>-1</ele><time>2022-09-06T12:05:15Z</time><name>PT3670</name></trkpt>
<trkpt lat="52.709952" lon="06.073723"><ele>-1.1</ele><time>2022-09-06T12:05:16Z</time><name>PT3671</name></trkpt>
<trkpt lat="52.709969" lon="06.073739"><ele>-1.2</ele><time>2022-09-06T12:05:18Z</time><name>PT3672</name></trkpt>
<trkpt lat="52.709985" lon="06.073755"><ele>-1.4</ele><time>2022-09-06T12:05:18Z</time><name>PT3673</name></trkpt>
<trkpt lat="52.710001" lon="06.073770"><ele>-1.2</ele><time>2022-09-06T12:05:19Z</time><name>PT3674</name></trkpt>
<trkpt lat="52.710016" lon="06.073784"><ele>-1</ele><time>2022-09-06T12:05:21Z</time><name>PT3675</name></trkpt>
<trkpt lat="52.710033" lon="06.073799"><ele>-1</ele><time>2022-09-06T12:05:21Z</time><name>PT3676</name></trkpt>
<trkpt lat="52.710049" lon="06.073815"><ele>-1</ele><time>2022-09-06T12:05:22Z</time><name>PT3677</name></trkpt>
<trkpt lat="52.710065" lon="06.073830"><ele>-1</ele><time>2022-09-06T12:05:24Z</time><name>PT3678</name></trkpt>
<trkpt lat="52.710081" lon="06.073846"><ele>-1.2</ele><time>2022-09-06T12:05:24Z</time><name>PT3679</name></trkpt>
<trkpt lat="52.710097" lon="06.073861"><ele>-1.3</ele><time>2022-09-06T12:05:25Z</time><name>PT3680</name></trkpt>
<trkpt lat="52.710113" lon="06.073876"><ele>-1.2</ele><time>2022-09-06T12:05:27Z</time><name>PT3681</name></trkpt>
<trkpt lat="52.710129" lon="06.073892"><ele>-1.1</ele><time>2022-09-06T12:05:27Z</time><name>PT3682</name></trkpt>
<trkpt lat="52.710145" lon="06.073907"><ele>-1.1</ele><time>2022-09-06T12:05:28Z</time><name>PT3683</name></trkpt>
<trkpt lat="52.710161" lon="06.073922"><ele>-1.2</ele><time>2022-09-06T12:05:30Z</time><name>PT3684</name></trkpt>
<trkpt lat="52.710178" lon="06.073937"><ele>-1</ele><time>2022-09-06T12:05:30Z</time><name>PT3685</name></trkpt>
<trkpt lat="52.710193" lon="06.073952"><ele>-1.2</ele><time>2022-09-06T12:05:31Z</time><name>PT3686</name></trkpt>
<trkpt lat="52.710209" lon="06.073967"><ele>-1.1</ele><time>2022-09-06T12:05:33Z</time><name>PT3687</name></trkpt>
<trkpt lat="52.710225" lon="06.073983"><ele>-1</ele><time>2022-09-06T12:05:33Z</time><name>PT3688</name></trkpt>
<trkpt lat="52.710241" lon="06.073998"><ele>-1.1</ele><time>2022-09-06T12:05:34Z</time><name>PT3689</name></trkpt>
<trkpt lat="52.710258" lon="06.074014"><ele>-1</ele><time>2022-09-06T12:05:36Z</time><name>PT3690</name></trkpt>
<trkpt lat="52.710273" lon="06.074029"><ele>-1</ele><time>2022-09-06T12:05:36Z</time><name>PT3691</name></trkpt>
<trkpt lat="52.710289" lon="06.074045"><ele>-1</ele><time>2022-09-06T12:05:37Z</time><name>PT3692</name></trkpt>
<trkpt lat="52.710304" lon="06.074062"><ele>0.9</ele><time>2022-09-06T12:05:39Z</time><name>PT3693</name></trkpt>
<trkpt lat="52.710319" lon="06.074080"><ele>0.9</ele><time>2022-09-06T12:05:39Z</time><name>PT3694</name></trkpt>
<trkpt lat="52.710335" lon="06.074096"><ele>0.8</ele><time>2022-09-06T12:05:40Z</time><name>PT3695</name></trkpt>
<trkpt lat="52.710350" lon="06.074113"><ele>-1</ele><time>2022-09-06T12:05:42Z</time><name>PT3696</name></trkpt>
<trkpt lat="52.710366" lon="06.074128"><ele>-1</ele><time>2022-09-06T12:05:42Z</time><name>PT3697</name></trkpt>
<trkpt lat="52.710381" lon="06.074144"><ele>-1</ele><time>2022-09-06T12:05:43Z</time><name>PT3698</name></trkpt>
<trkpt lat="52.710397" lon="06.074162"><ele>0.9</ele><time>2022-09-06T12:05:45Z</time><name>PT3699</name></trkpt>
<trkpt lat="52.710412" lon="06.074179"><ele>-1</ele><time>2022-09-06T12:05:45Z</time><name>PT3700</name></trkpt>
<trkpt lat="52.710428" lon="06.074195"><ele>-1</ele><time>2022-09-06T12:05:46Z</time><name>PT3701</name></trkpt>
<trkpt lat="52.710444" lon="06.074211"><ele>0.9</ele><time>2022-09-06T12:05:48Z</time><name>PT3702</name></trkpt>
<trkpt lat="52.710460" lon="06.074228"><ele>0.8</ele><time>2022-09-06T12:05:48Z</time><name>PT3703</name></trkpt>
<trkpt lat="52.710476" lon="06.074243"><ele>-1</ele><time>2022-09-06T12:05:49Z</time><name>PT3704</name></trkpt>
<trkpt lat="52.710492" lon="06.074258"><ele>-1</ele><time>2022-09-06T12:05:51Z</time><name>PT3705</name></trkpt>
<trkpt lat="52.710508" lon="06.074273"><ele>0.8</ele><time>2022-09-06T12:05:51Z</time><name>PT3706</name></trkpt>
<trkpt lat="52.710524" lon="06.074289"><ele>0.9</ele><time>2022-09-06T12:05:52Z</time><name>PT3707</name></trkpt>
<trkpt lat="52.710540" lon="06.074303"><ele>0.7</ele><time>2022-09-06T12:05:54Z</time><name>PT3708</name></trkpt>
<trkpt lat="52.710556" lon="06.074318"><ele>0.8</ele><time>2022-09-06T12:05:54Z</time><name>PT3709</name></trkpt>
<trkpt lat="52.710573" lon="06.074332"><ele>0.8</ele><time>2022-09-06T12:05:55Z</time><name>PT3710</name></trkpt>
<trkpt lat="52.710590" lon="06.074346"><ele>0.9</ele><time>2022-09-06T12:05:57Z</time><name>PT3711</name></trkpt>
<trkpt lat="52.710606" lon="06.074360"><ele>0.9</ele><time>2022-09-06T12:05:57Z</time><name>PT3712</name></trkpt>
<trkpt lat="52.710622" lon="06.074375"><ele>-1</ele><time>2022-09-06T12:05:58Z</time><name>PT3713</name></trkpt>
<trkpt lat="52.710639" lon="06.074390"><ele>0.9</ele><time>2022-09-06T12:06:00Z</time><name>PT3714</name></trkpt>
<trkpt lat="52.710655" lon="06.074406"><ele>-1</ele><time>2022-09-06T12:06:00Z</time><name>PT3715</name></trkpt>
<trkpt lat="52.710672" lon="06.074421"><ele>-1</ele><time>2022-09-06T12:06:01Z</time><name>PT3716</name></trkpt>
<trkpt lat="52.710689" lon="06.074436"><ele>-1</ele><time>2022-09-06T12:06:03Z</time><name>PT3717</name></trkpt>
<trkpt lat="52.710705" lon="06.074452"><ele>-1</ele><time>2022-09-06T12:06:03Z</time><name>PT3718</name></trkpt>
<trkpt lat="52.710722" lon="06.074466"><ele>-1</ele><time>2022-09-06T12:06:04Z</time><name>PT3719</name></trkpt>
<trkpt lat="52.710739" lon="06.074481"><ele>-1</ele><time>2022-09-06T12:06:06Z</time><name>PT3720</name></trkpt>
<trkpt lat="52.710756" lon="06.074496"><ele>-1</ele><time>2022-09-06T12:06:06Z</time><name>PT3721</name></trkpt>
<trkpt lat="52.710772" lon="06.074511"><ele>-1.1</ele><time>2022-09-06T12:06:07Z</time><name>PT3722</name></trkpt>
<trkpt lat="52.710789" lon="06.074526"><ele>-1</ele><time>2022-09-06T12:06:09Z</time><name>PT3723</name></trkpt>
<trkpt lat="52.710806" lon="06.074539"><ele>-1.2</ele><time>2022-09-06T12:06:09Z</time><name>PT3724</name></trkpt>
<trkpt lat="52.710823" lon="06.074554"><ele>-1.1</ele><time>2022-09-06T12:06:10Z</time><name>PT3725</name></trkpt>
<trkpt lat="52.710840" lon="06.074567"><ele>-1.1</ele><time>2022-09-06T12:06:12Z</time><name>PT3726</name></trkpt>
<trkpt lat="52.710857" lon="06.074582"><ele>-1.1</ele><time>2022-09-06T12:06:12Z</time><name>PT3727</name></trkpt>
<trkpt lat="52.710874" lon="06.074597"><ele>-1.2</ele><time>2022-09-06T12:06:13Z</time><name>PT3728</name></trkpt>
<trkpt lat="52.710890" lon="06.074612"><ele>-1.1</ele><time>2022-09-06T12:06:15Z</time><name>PT3729</name></trkpt>
<trkpt lat="52.710907" lon="06.074627"><ele>-1</ele><time>2022-09-06T12:06:15Z</time><name>PT3730</name></trkpt>
<trkpt lat="52.710924" lon="06.074641"><ele>-1.1</ele><time>2022-09-06T12:06:16Z</time><name>PT3731</name></trkpt>
<trkpt lat="52.710940" lon="06.074654"><ele>0.9</ele><time>2022-09-06T12:06:18Z</time><name>PT3732</name></trkpt>
<trkpt lat="52.710957" lon="06.074667"><ele>0.9</ele><time>2022-09-06T12:06:18Z</time><name>PT3733</name></trkpt>
<trkpt lat="52.710973" lon="06.074682"><ele>0.9</ele><time>2022-09-06T12:06:20Z</time><name>PT3734</name></trkpt>
<trkpt lat="52.710990" lon="06.074694"><ele>-1</ele><time>2022-09-06T12:06:21Z</time><name>PT3735</name></trkpt>
<trkpt lat="52.711007" lon="06.074706"><ele>-1</ele><time>2022-09-06T12:06:21Z</time><name>PT3736</name></trkpt>
<trkpt lat="52.711024" lon="06.074718"><ele>0.9</ele><time>2022-09-06T12:06:22Z</time><name>PT3737</name></trkpt>
<trkpt lat="52.711041" lon="06.074729"><ele>0.8</ele><time>2022-09-06T12:06:24Z</time><name>PT3738</name></trkpt>
<trkpt lat="52.711058" lon="06.074740"><ele>0.7</ele><time>2022-09-06T12:06:24Z</time><name>PT3739</name></trkpt>
<trkpt lat="52.711075" lon="06.074751"><ele>0.9</ele><time>2022-09-06T12:06:25Z</time><name>PT3740</name></trkpt>
<trkpt lat="52.711092" lon="06.074763"><ele>0.9</ele><time>2022-09-06T12:06:27Z</time><name>PT3741</name></trkpt>
<trkpt lat="52.711108" lon="06.074773"><ele>0.9</ele><time>2022-09-06T12:06:27Z</time><name>PT3742</name></trkpt>
<trkpt lat="52.711125" lon="06.074785"><ele>0.9</ele><time>2022-09-06T12:06:28Z</time><name>PT3743</name></trkpt>
<trkpt lat="52.711143" lon="06.074797"><ele>0.9</ele><time>2022-09-06T12:06:30Z</time><name>PT3744</name></trkpt>
<trkpt lat="52.711161" lon="06.074806"><ele>0.9</ele><time>2022-09-06T12:06:30Z</time><name>PT3745</name></trkpt>
<trkpt lat="52.711178" lon="06.074817"><ele>0.9</ele><time>2022-09-06T12:06:32Z</time><name>PT3746</name></trkpt>
<trkpt lat="52.711196" lon="06.074828"><ele>0.9</ele><time>2022-09-06T12:06:33Z</time><name>PT3747</name></trkpt>
<trkpt lat="52.711215" lon="06.074837"><ele>0.8</ele><time>2022-09-06T12:06:33Z</time><name>PT3748</name></trkpt>
<trkpt lat="52.711233" lon="06.074844"><ele>0.8</ele><time>2022-09-06T12:06:34Z</time><name>PT3749</name></trkpt>
<trkpt lat="52.711251" lon="06.074852"><ele>-1</ele><time>2022-09-06T12:06:36Z</time><name>PT3750</name></trkpt>
<trkpt lat="52.711269" lon="06.074861"><ele>-1</ele><time>2022-09-06T12:06:36Z</time><name>PT3751</name></trkpt>
<trkpt lat="52.711287" lon="06.074869"><ele>-1</ele><time>2022-09-06T12:06:37Z</time><name>PT3752</name></trkpt>
<trkpt lat="52.711305" lon="06.074879"><ele>-1</ele><time>2022-09-06T12:06:39Z</time><name>PT3753</name></trkpt>
<trkpt lat="52.711323" lon="06.074888"><ele>-1</ele><time>2022-09-06T12:06:39Z</time><name>PT3754</name></trkpt>
<trkpt lat="52.711341" lon="06.074898"><ele>-1.1</ele><time>2022-09-06T12:06:40Z</time><name>PT3755</name></trkpt>
<trkpt lat="52.711359" lon="06.074914"><ele>-1</ele><time>2022-09-06T12:06:42Z</time><name>PT3756</name></trkpt>
<trkpt lat="52.711378" lon="06.074924"><ele>-1</ele><time>2022-09-06T12:06:42Z</time><name>PT3757</name></trkpt>
<trkpt lat="52.711396" lon="06.074933"><ele>-1</ele><time>2022-09-06T12:06:43Z</time><name>PT3758</name></trkpt>
<trkpt lat="52.711415" lon="06.074945"><ele>0.9</ele><time>2022-09-06T12:06:45Z</time><name>PT3759</name></trkpt>
<trkpt lat="52.711433" lon="06.074957"><ele>0.9</ele><time>2022-09-06T12:06:45Z</time><name>PT3760</name></trkpt>
<trkpt lat="52.711451" lon="06.074968"><ele>-1</ele><time>2022-09-06T12:06:46Z</time><name>PT3761</name></trkpt>
<trkpt lat="52.711469" lon="06.074980"><ele>-1</ele><time>2022-09-06T12:06:48Z</time><name>PT3762</name></trkpt>
<trkpt lat="52.711486" lon="06.074991"><ele>-1</ele><time>2022-09-06T12:06:48Z</time><name>PT3763</name></trkpt>
<trkpt lat="52.711504" lon="06.075004"><ele>-1</ele><time>2022-09-06T12:06:49Z</time><name>PT3764</name></trkpt>
<trkpt lat="52.711520" lon="06.075014"><ele>0.9</ele><time>2022-09-06T12:06:51Z</time><name>PT3765</name></trkpt>
<trkpt lat="52.711537" lon="06.075025"><ele>0.8</ele><time>2022-09-06T12:06:51Z</time><name>PT3766</name></trkpt>
<trkpt lat="52.711555" lon="06.075036"><ele>0.6</ele><time>2022-09-06T12:06:52Z</time><name>PT3767</name></trkpt>
<trkpt lat="52.711572" lon="06.075045"><ele>0.7</ele><time>2022-09-06T12:06:54Z</time><name>PT3768</name></trkpt>
<trkpt lat="52.711590" lon="06.075054"><ele>0.6</ele><time>2022-09-06T12:06:54Z</time><name>PT3769</name></trkpt>
<trkpt lat="52.711608" lon="06.075064"><ele>0.6</ele><time>2022-09-06T12:06:55Z</time><name>PT3770</name></trkpt>
<trkpt lat="52.711626" lon="06.075073"><ele>0.6</ele><time>2022-09-06T12:06:57Z</time><name>PT3771</name></trkpt>
<trkpt lat="52.711643" lon="06.075081"><ele>0.6</ele><time>2022-09-06T12:06:57Z</time><name>PT3772</name></trkpt>
<trkpt lat="52.711661" lon="06.075091"><ele>0.6</ele><time>2022-09-06T12:06:58Z</time><name>PT3773</name></trkpt>
<trkpt lat="52.711679" lon="06.075101"><ele>0.6</ele><time>2022-09-06T12:07:00Z</time><name>PT3774</name></trkpt>
<trkpt lat="52.711698" lon="06.075110"><ele>0.6</ele><time>2022-09-06T12:07:00Z</time><name>PT3775</name></trkpt>
<trkpt lat="52.711717" lon="06.075119"><ele>0.7</ele><time>2022-09-06T12:07:01Z</time><name>PT3776</name></trkpt>
<trkpt lat="52.711735" lon="06.075128"><ele>0.7</ele><time>2022-09-06T12:07:03Z</time><name>PT3777</name></trkpt>
<trkpt lat="52.711754" lon="06.075136"><ele>0.8</ele><time>2022-09-06T12:07:03Z</time><name>PT3778</name></trkpt>
<trkpt lat="52.711772" lon="06.075145"><ele>0.8</ele><time>2022-09-06T12:07:04Z</time><name>PT3779</name></trkpt>
<trkpt lat="52.711790" lon="06.075154"><ele>0.9</ele><time>2022-09-06T12:07:06Z</time><name>PT3780</name></trkpt>
<trkpt lat="52.711809" lon="06.075164"><ele>0.8</ele><time>2022-09-06T12:07:06Z</time><name>PT3781</name></trkpt>
<trkpt lat="52.711827" lon="06.075172"><ele>0.8</ele><time>2022-09-06T12:07:07Z</time><name>PT3782</name></trkpt>
<trkpt lat="52.711846" lon="06.075180"><ele>0.7</ele><time>2022-09-06T12:07:09Z</time><name>PT3783</name></trkpt>
<trkpt lat="52.711864" lon="06.075190"><ele>0.8</ele><time>2022-09-06T12:07:09Z</time><name>PT3784</name></trkpt>
<trkpt lat="52.711883" lon="06.075198"><ele>0.9</ele><time>2022-09-06T12:07:10Z</time><name>PT3785</name></trkpt>
<trkpt lat="52.711901" lon="06.075207"><ele>0.8</ele><time>2022-09-06T12:07:12Z</time><name>PT3786</name></trkpt>
<trkpt lat="52.711920" lon="06.075214"><ele>0.8</ele><time>2022-09-06T12:07:12Z</time><name>PT3787</name></trkpt>
<trkpt lat="52.711938" lon="06.075222"><ele>0.9</ele><time>2022-09-06T12:07:13Z</time><name>PT3788</name></trkpt>
<trkpt lat="52.711956" lon="06.075230"><ele>0.9</ele><time>2022-09-06T12:07:15Z</time><name>PT3789</name></trkpt>
<trkpt lat="52.711974" lon="06.075239"><ele>0.8</ele><time>2022-09-06T12:07:15Z</time><name>PT3790</name></trkpt>
<trkpt lat="52.711992" lon="06.075249"><ele>0.8</ele><time>2022-09-06T12:07:16Z</time><name>PT3791</name></trkpt>
<trkpt lat="52.712010" lon="06.075258"><ele>0.9</ele><time>2022-09-06T12:07:18Z</time><name>PT3792</name></trkpt>
<trkpt lat="52.712028" lon="06.075267"><ele>0.9</ele><time>2022-09-06T12:07:18Z</time><name>PT3793</name></trkpt>
<trkpt lat="52.712046" lon="06.075276"><ele>-1</ele><time>2022-09-06T12:07:19Z</time><name>PT3794</name></trkpt>
<trkpt lat="52.712064" lon="06.075285"><ele>-1</ele><time>2022-09-06T12:07:21Z</time><name>PT3795</name></trkpt>
<trkpt lat="52.712082" lon="06.075294"><ele>0.9</ele><time>2022-09-06T12:07:21Z</time><name>PT3796</name></trkpt>
<trkpt lat="52.712100" lon="06.075303"><ele>0.9</ele><time>2022-09-06T12:07:23Z</time><name>PT3797</name></trkpt>
<trkpt lat="52.712118" lon="06.075312"><ele>0.8</ele><time>2022-09-06T12:07:24Z</time><name>PT3798</name></trkpt>
<trkpt lat="52.712136" lon="06.075321"><ele>0.6</ele><time>2022-09-06T12:07:24Z</time><name>PT3799</name></trkpt>
<trkpt lat="52.712153" lon="06.075330"><ele>0.6</ele><time>2022-09-06T12:07:25Z</time><name>PT3800</name></trkpt>
<trkpt lat="52.712171" lon="06.075339"><ele>0.6</ele><time>2022-09-06T12:07:27Z</time><name>PT3801</name></trkpt>
<trkpt lat="52.712189" lon="06.075349"><ele>0.6</ele><time>2022-09-06T12:07:27Z</time><name>PT3802</name></trkpt>
<trkpt lat="52.712207" lon="06.075358"><ele>0.7</ele><time>2022-09-06T12:07:28Z</time><name>PT3803</name></trkpt>
<trkpt lat="52.712225" lon="06.075367"><ele>0.8</ele><time>2022-09-06T12:07:30Z</time><name>PT3804</name></trkpt>
<trkpt lat="52.712243" lon="06.075376"><ele>0.7</ele><time>2022-09-06T12:07:30Z</time><name>PT3805</name></trkpt>
<trkpt lat="52.712261" lon="06.075385"><ele>0.6</ele><time>2022-09-06T12:07:31Z</time><name>PT3806</name></trkpt>
<trkpt lat="52.712279" lon="06.075394"><ele>0.5</ele><time>2022-09-06T12:07:33Z</time><name>PT3807</name></trkpt>
<trkpt lat="52.712297" lon="06.075403"><ele>0.5</ele><time>2022-09-06T12:07:33Z</time><name>PT3808</name></trkpt>
<trkpt lat="52.712315" lon="06.075410"><ele>0.6</ele><time>2022-09-06T12:07:34Z</time><name>PT3809</name></trkpt>
<trkpt lat="52.712334" lon="06.075417"><ele>0.6</ele><time>2022-09-06T12:07:36Z</time><name>PT3810</name></trkpt>
<trkpt lat="52.712352" lon="06.075424"><ele>0.6</ele><time>2022-09-06T12:07:36Z</time><name>PT3811</name></trkpt>
<trkpt lat="52.712371" lon="06.075431"><ele>0.6</ele><time>2022-09-06T12:07:37Z</time><name>PT3812</name></trkpt>
<trkpt lat="52.712389" lon="06.075438"><ele>0.4</ele><time>2022-09-06T12:07:39Z</time><name>PT3813</name></trkpt>
<trkpt lat="52.712408" lon="06.075445"><ele>0.4</ele><time>2022-09-06T12:07:39Z</time><name>PT3814</name></trkpt>
<trkpt lat="52.712426" lon="06.075451"><ele>0.6</ele><time>2022-09-06T12:07:40Z</time><name>PT3815</name></trkpt>
<trkpt lat="52.712444" lon="06.075458"><ele>0.6</ele><time>2022-09-06T12:07:42Z</time><name>PT3816</name></trkpt>
<trkpt lat="52.712462" lon="06.075465"><ele>0.6</ele><time>2022-09-06T12:07:42Z</time><name>PT3817</name></trkpt>
<trkpt lat="52.712481" lon="06.075470"><ele>0.6</ele><time>2022-09-06T12:07:43Z</time><name>PT3818</name></trkpt>
<trkpt lat="52.712500" lon="06.075475"><ele>0.4</ele><time>2022-09-06T12:07:45Z</time><name>PT3819</name></trkpt>
<trkpt lat="52.712518" lon="06.075480"><ele>0.4</ele><time>2022-09-06T12:07:45Z</time><name>PT3820</name></trkpt>
<trkpt lat="52.712537" lon="06.075484"><ele>0.4</ele><time>2022-09-06T12:07:46Z</time><name>PT3821</name></trkpt>
<trkpt lat="52.712556" lon="06.075489"><ele>0.6</ele><time>2022-09-06T12:07:48Z</time><name>PT3822</name></trkpt>
<trkpt lat="52.712574" lon="06.075494"><ele>0.6</ele><time>2022-09-06T12:07:48Z</time><name>PT3823</name></trkpt>
<trkpt lat="52.712592" lon="06.075499"><ele>0.7</ele><time>2022-09-06T12:07:49Z</time><name>PT3824</name></trkpt>
<trkpt lat="52.712610" lon="06.075505"><ele>0.6</ele><time>2022-09-06T12:07:51Z</time><name>PT3825</name></trkpt>
<trkpt lat="52.712628" lon="06.075510"><ele>0.6</ele><time>2022-09-06T12:07:51Z</time><name>PT3826</name></trkpt>
<trkpt lat="52.712647" lon="06.075516"><ele>0.5</ele><time>2022-09-06T12:07:52Z</time><name>PT3827</name></trkpt>
<trkpt lat="52.712665" lon="06.075521"><ele>0.6</ele><time>2022-09-06T12:07:54Z</time><name>PT3828</name></trkpt>
<trkpt lat="52.712683" lon="06.075526"><ele>0.6</ele><time>2022-09-06T12:07:54Z</time><name>PT3829</name></trkpt>
<trkpt lat="52.712702" lon="06.075532"><ele>0.9</ele><time>2022-09-06T12:07:55Z</time><name>PT3830</name></trkpt>
<trkpt lat="52.712720" lon="06.075538"><ele>-1</ele><time>2022-09-06T12:07:57Z</time><name>PT3831</name></trkpt>
<trkpt lat="52.712738" lon="06.075544"><ele>0.9</ele><time>2022-09-06T12:07:57Z</time><name>PT3832</name></trkpt>
<trkpt lat="52.712757" lon="06.075550"><ele>0.9</ele><time>2022-09-06T12:07:58Z</time><name>PT3833</name></trkpt>
<trkpt lat="52.712775" lon="06.075557"><ele>-1</ele><time>2022-09-06T12:08:00Z</time><name>PT3834</name></trkpt>
<trkpt lat="52.712793" lon="06.075564"><ele>-1</ele><time>2022-09-06T12:08:00Z</time><name>PT3835</name></trkpt>
<trkpt lat="52.712812" lon="06.075570"><ele>0.8</ele><time>2022-09-06T12:08:01Z</time><name>PT3836</name></trkpt>
<trkpt lat="52.712830" lon="06.075578"><ele>0.6</ele><time>2022-09-06T12:08:03Z</time><name>PT3837</name></trkpt>
<trkpt lat="52.712848" lon="06.075586"><ele>0.6</ele><time>2022-09-06T12:08:03Z</time><name>PT3838</name></trkpt>
<trkpt lat="52.712866" lon="06.075594"><ele>0.6</ele><time>2022-09-06T12:08:04Z</time><name>PT3839</name></trkpt>
<trkpt lat="52.712884" lon="06.075602"><ele>0.7</ele><time>2022-09-06T12:08:06Z</time><name>PT3840</name></trkpt>
<trkpt lat="52.712902" lon="06.075610"><ele>0.8</ele><time>2022-09-06T12:08:06Z</time><name>PT3841</name></trkpt>
<trkpt lat="52.712920" lon="06.075617"><ele>0.9</ele><time>2022-09-06T12:08:07Z</time><name>PT3842</name></trkpt>
<trkpt lat="52.712939" lon="06.075625"><ele>0.7</ele><time>2022-09-06T12:08:09Z</time><name>PT3843</name></trkpt>
<trkpt lat="52.712957" lon="06.075632"><ele>0.8</ele><time>2022-09-06T12:08:09Z</time><name>PT3844</name></trkpt>
<trkpt lat="52.712975" lon="06.075640"><ele>0.8</ele><time>2022-09-06T12:08:10Z</time><name>PT3845</name></trkpt>
<trkpt lat="52.712993" lon="06.075647"><ele>0.8</ele><time>2022-09-06T12:08:12Z</time><name>PT3846</name></trkpt>
<trkpt lat="52.713012" lon="06.075654"><ele>0.9</ele><time>2022-09-06T12:08:12Z</time><name>PT3847</name></trkpt>
<trkpt lat="52.713029" lon="06.075661"><ele>0.8</ele><time>2022-09-06T12:08:13Z</time><name>PT3848</name></trkpt>
<trkpt lat="52.713048" lon="06.075668"><ele>0.8</ele><time>2022-09-06T12:08:15Z</time><name>PT3849</name></trkpt>
<trkpt lat="52.713066" lon="06.075675"><ele>0.7</ele><time>2022-09-06T12:08:15Z</time><name>PT3850</name></trkpt>
<trkpt lat="52.713084" lon="06.075682"><ele>0.6</ele><time>2022-09-06T12:08:16Z</time><name>PT3851</name></trkpt>
<trkpt lat="52.713103" lon="06.075689"><ele>0.6</ele><time>2022-09-06T12:08:18Z</time><name>PT3852</name></trkpt>
<trkpt lat="52.713121" lon="06.075695"><ele>0.4</ele><time>2022-09-06T12:08:18Z</time><name>PT3853</name></trkpt>
<trkpt lat="52.713140" lon="06.075703"><ele>0.5</ele><time>2022-09-06T12:08:19Z</time><name>PT3854</name></trkpt>
<trkpt lat="52.713158" lon="06.075709"><ele>0.6</ele><time>2022-09-06T12:08:21Z</time><name>PT3855</name></trkpt>
<trkpt lat="52.713176" lon="06.075715"><ele>0.5</ele><time>2022-09-06T12:08:21Z</time><name>PT3856</name></trkpt>
<trkpt lat="52.713194" lon="06.075722"><ele>0.7</ele><time>2022-09-06T12:08:22Z</time><name>PT3857</name></trkpt>
<trkpt lat="52.713213" lon="06.075728"><ele>0.8</ele><time>2022-09-06T12:08:24Z</time><name>PT3858</name></trkpt>
<trkpt lat="52.713231" lon="06.075734"><ele>0.9</ele><time>2022-09-06T12:08:24Z</time><name>PT3859</name></trkpt>
<trkpt lat="52.713250" lon="06.075738"><ele>-1</ele><time>2022-09-06T12:08:26Z</time><name>PT3860</name></trkpt>
<trkpt lat="52.713268" lon="06.075743"><ele>-1.1</ele><time>2022-09-06T12:08:27Z</time><name>PT3861</name></trkpt>
<trkpt lat="52.713287" lon="06.075748"><ele>-1</ele><time>2022-09-06T12:08:27Z</time><name>PT3862</name></trkpt>
<trkpt lat="52.713305" lon="06.075752"><ele>0.8</ele><time>2022-09-06T12:08:28Z</time><name>PT3863</name></trkpt>
<trkpt lat="52.713323" lon="06.075757"><ele>0.6</ele><time>2022-09-06T12:08:30Z</time><name>PT3864</name></trkpt>
<trkpt lat="52.713342" lon="06.075761"><ele>0.6</ele><time>2022-09-06T12:08:30Z</time><name>PT3865</name></trkpt>
<trkpt lat="52.713360" lon="06.075765"><ele>0.8</ele><time>2022-09-06T12:08:31Z</time><name>PT3866</name></trkpt>
<trkpt lat="52.713378" lon="06.075770"><ele>0.9</ele><time>2022-09-06T12:08:33Z</time><name>PT3867</name></trkpt>
<trkpt lat="52.713396" lon="06.075773"><ele>0.8</ele><time>2022-09-06T12:08:33Z</time><name>PT3868</name></trkpt>
<trkpt lat="52.713414" lon="06.075779"><ele>0.7</ele><time>2022-09-06T12:08:34Z</time><name>PT3869</name></trkpt>
<trkpt lat="52.713432" lon="06.075784"><ele>0.6</ele><time>2022-09-06T12:08:36Z</time><name>PT3870</name></trkpt>
<trkpt lat="52.713451" lon="06.075790"><ele>0.6</ele><time>2022-09-06T12:08:36Z</time><name>PT3871</name></trkpt>
<trkpt lat="52.713469" lon="06.075795"><ele>0.7</ele><time>2022-09-06T12:08:37Z</time><name>PT3872</name></trkpt>
<trkpt lat="52.713487" lon="06.075802"><ele>0.7</ele><time>2022-09-06T12:08:39Z</time><name>PT3873</name></trkpt>
<trkpt lat="52.713505" lon="06.075808"><ele>0.7</ele><time>2022-09-06T12:08:39Z</time><name>PT3874</name></trkpt>
<trkpt lat="52.713523" lon="06.075814"><ele>0.7</ele><time>2022-09-06T12:08:40Z</time><name>PT3875</name></trkpt>
<trkpt lat="52.713542" lon="06.075822"><ele>0.6</ele><time>2022-09-06T12:08:42Z</time><name>PT3876</name></trkpt>
<trkpt lat="52.713560" lon="06.075828"><ele>0.6</ele><time>2022-09-06T12:08:42Z</time><name>PT3877</name></trkpt>
<trkpt lat="52.713578" lon="06.075834"><ele>0.6</ele><time>2022-09-06T12:08:43Z</time><name>PT3878</name></trkpt>
<trkpt lat="52.713596" lon="06.075839"><ele>0.6</ele><time>2022-09-06T12:08:45Z</time><name>PT3879</name></trkpt>
<trkpt lat="52.713615" lon="06.075846"><ele>0.5</ele><time>2022-09-06T12:08:45Z</time><name>PT3880</name></trkpt>
<trkpt lat="52.713633" lon="06.075852"><ele>0.5</ele><time>2022-09-06T12:08:46Z</time><name>PT3881</name></trkpt>
<trkpt lat="52.713652" lon="06.075859"><ele>0.3</ele><time>2022-09-06T12:08:48Z</time><name>PT3882</name></trkpt>
<trkpt lat="52.713670" lon="06.075866"><ele>0.4</ele><time>2022-09-06T12:08:48Z</time><name>PT3883</name></trkpt>
<trkpt lat="52.713688" lon="06.075873"><ele>0.3</ele><time>2022-09-06T12:08:49Z</time><name>PT3884</name></trkpt>
<trkpt lat="52.713706" lon="06.075881"><ele>0.3</ele><time>2022-09-06T12:08:51Z</time><name>PT3885</name></trkpt>
<trkpt lat="52.713724" lon="06.075888"><ele>0.2</ele><time>2022-09-06T12:08:51Z</time><name>PT3886</name></trkpt>
<trkpt lat="52.713741" lon="06.075896"><ele>0.3</ele><time>2022-09-06T12:08:52Z</time><name>PT3887</name></trkpt>
<trkpt lat="52.713760" lon="06.075902"><ele>0.4</ele><time>2022-09-06T12:08:54Z</time><name>PT3888</name></trkpt>
<trkpt lat="52.713778" lon="06.075908"><ele>0.4</ele><time>2022-09-06T12:08:54Z</time><name>PT3889</name></trkpt>
<trkpt lat="52.713796" lon="06.075914"><ele>0.5</ele><time>2022-09-06T12:08:55Z</time><name>PT3890</name></trkpt>
<trkpt lat="52.713814" lon="06.075920"><ele>0.6</ele><time>2022-09-06T12:08:57Z</time><name>PT3891</name></trkpt>
<trkpt lat="52.713832" lon="06.075926"><ele>0.6</ele><time>2022-09-06T12:08:57Z</time><name>PT3892</name></trkpt>
<trkpt lat="52.713850" lon="06.075933"><ele>0.6</ele><time>2022-09-06T12:08:58Z</time><name>PT3893</name></trkpt>
<trkpt lat="52.713868" lon="06.075940"><ele>0.6</ele><time>2022-09-06T12:09:00Z</time><name>PT3894</name></trkpt>
<trkpt lat="52.713886" lon="06.075948"><ele>0.5</ele><time>2022-09-06T12:09:00Z</time><name>PT3895</name></trkpt>
<trkpt lat="52.713904" lon="06.075954"><ele>0.6</ele><time>2022-09-06T12:09:01Z</time><name>PT3896</name></trkpt>
<trkpt lat="52.713922" lon="06.075962"><ele>0.6</ele><time>2022-09-06T12:09:03Z</time><name>PT3897</name></trkpt>
<trkpt lat="52.713940" lon="06.075970"><ele>0.6</ele><time>2022-09-06T12:09:03Z</time><name>PT3898</name></trkpt>
<trkpt lat="52.713958" lon="06.075979"><ele>0.9</ele><time>2022-09-06T12:09:04Z</time><name>PT3899</name></trkpt>
<trkpt lat="52.713977" lon="06.075985"><ele>0.7</ele><time>2022-09-06T12:09:06Z</time><name>PT3900</name></trkpt>
<trkpt lat="52.713995" lon="06.075993"><ele>0.6</ele><time>2022-09-06T12:09:06Z</time><name>PT3901</name></trkpt>
<trkpt lat="52.714013" lon="06.076000"><ele>0.6</ele><time>2022-09-06T12:09:07Z</time><name>PT3902</name></trkpt>
<trkpt lat="52.714031" lon="06.076008"><ele>0.6</ele><time>2022-09-06T12:09:09Z</time><name>PT3903</name></trkpt>
<trkpt lat="52.714049" lon="06.076016"><ele>0.6</ele><time>2022-09-06T12:09:09Z</time><name>PT3904</name></trkpt>
<trkpt lat="52.714066" lon="06.076023"><ele>0.6</ele><time>2022-09-06T12:09:10Z</time><name>PT3905</name></trkpt>
<trkpt lat="52.714084" lon="06.076031"><ele>0.6</ele><time>2022-09-06T12:09:12Z</time><name>PT3906</name></trkpt>
<trkpt lat="52.714102" lon="06.076038"><ele>0.6</ele><time>2022-09-06T12:09:12Z</time><name>PT3907</name></trkpt>
<trkpt lat="52.714120" lon="06.076045"><ele>0.6</ele><time>2022-09-06T12:09:13Z</time><name>PT3908</name></trkpt>
<trkpt lat="52.714138" lon="06.076053"><ele>0.5</ele><time>2022-09-06T12:09:15Z</time><name>PT3909</name></trkpt>
<trkpt lat="52.714156" lon="06.076060"><ele>0.5</ele><time>2022-09-06T12:09:15Z</time><name>PT3910</name></trkpt>
<trkpt lat="52.714174" lon="06.076067"><ele>0.6</ele><time>2022-09-06T12:09:16Z</time><name>PT3911</name></trkpt>
<trkpt lat="52.714193" lon="06.076074"><ele>0.5</ele><time>2022-09-06T12:09:18Z</time><name>PT3912</name></trkpt>
<trkpt lat="52.714211" lon="06.076082"><ele>0.6</ele><time>2022-09-06T12:09:18Z</time><name>PT3913</name></trkpt>
<trkpt lat="52.714229" lon="06.076089"><ele>0.6</ele><time>2022-09-06T12:09:19Z</time><name>PT3914</name></trkpt>
<trkpt lat="52.714247" lon="06.076098"><ele>0.6</ele><time>2022-09-06T12:09:21Z</time><name>PT3915</name></trkpt>
<trkpt lat="52.714265" lon="06.076107"><ele>0.7</ele><time>2022-09-06T12:09:21Z</time><name>PT3916</name></trkpt>
<trkpt lat="52.714283" lon="06.076116"><ele>0.7</ele><time>2022-09-06T12:09:22Z</time><name>PT3917</name></trkpt>
<trkpt lat="52.714301" lon="06.076125"><ele>0.6</ele><time>2022-09-06T12:09:24Z</time><name>PT3918</name></trkpt>
<trkpt lat="52.714320" lon="06.076134"><ele>0.6</ele><time>2022-09-06T12:09:24Z</time><name>PT3919</name></trkpt>
<trkpt lat="52.714338" lon="06.076143"><ele>0.6</ele><time>2022-09-06T12:09:25Z</time><name>PT3920</name></trkpt>
<trkpt lat="52.714356" lon="06.076151"><ele>0.6</ele><time>2022-09-06T12:09:27Z</time><name>PT3921</name></trkpt>
<trkpt lat="52.714374" lon="06.076160"><ele>0.6</ele><time>2022-09-06T12:09:27Z</time><name>PT3922</name></trkpt>
<trkpt lat="52.714392" lon="06.076169"><ele>0.5</ele><time>2022-09-06T12:09:28Z</time><name>PT3923</name></trkpt>
<trkpt lat="52.714410" lon="06.076177"><ele>0.4</ele><time>2022-09-06T12:09:30Z</time><name>PT3924</name></trkpt>
<trkpt lat="52.714429" lon="06.076185"><ele>0.3</ele><time>2022-09-06T12:09:30Z</time><name>PT3925</name></trkpt>
<trkpt lat="52.714447" lon="06.076193"><ele>0.5</ele><time>2022-09-06T12:09:31Z</time><name>PT3926</name></trkpt>
<trkpt lat="52.714466" lon="06.076201"><ele>0.4</ele><time>2022-09-06T12:09:33Z</time><name>PT3927</name></trkpt>
<trkpt lat="52.714484" lon="06.076209"><ele>0.2</ele><time>2022-09-06T12:09:33Z</time><name>PT3928</name></trkpt>
<trkpt lat="52.714502" lon="06.076217"><ele>0.1</ele><time>2022-09-06T12:09:34Z</time><name>PT3929</name></trkpt>
<trkpt lat="52.714520" lon="06.076225"><ele>0.1</ele><time>2022-09-06T12:09:36Z</time><name>PT3930</name></trkpt>
<trkpt lat="52.714538" lon="06.076233"><ele>0.1</ele><time>2022-09-06T12:09:36Z</time><name>PT3931</name></trkpt>
<trkpt lat="52.714556" lon="06.076242"><ele>0.1</ele><time>2022-09-06T12:09:37Z</time><name>PT3932</name></trkpt>
<trkpt lat="52.714574" lon="06.076250"><ele>0.2</ele><time>2022-09-06T12:09:39Z</time><name>PT3933</name></trkpt>
<trkpt lat="52.714593" lon="06.076258"><ele>0.1</ele><time>2022-09-06T12:09:39Z</time><name>PT3934</name></trkpt>
<trkpt lat="52.714611" lon="06.076266"><ele>0.2</ele><time>2022-09-06T12:09:40Z</time><name>PT3935</name></trkpt>
<trkpt lat="52.714629" lon="06.076274"><ele>0.1</ele><time>2022-09-06T12:09:42Z</time><name>PT3936</name></trkpt>
<trkpt lat="52.714647" lon="06.076282"><ele>0</ele><time>2022-09-06T12:09:42Z</time><name>PT3937</name></trkpt>
<trkpt lat="52.714665" lon="06.076291"><ele>0.1</ele><time>2022-09-06T12:09:44Z</time><name>PT3938</name></trkpt>
<trkpt lat="52.714683" lon="06.076299"><ele>0.1</ele><time>2022-09-06T12:09:45Z</time><name>PT3939</name></trkpt>
<trkpt lat="52.714702" lon="06.076308"><ele>0.2</ele><time>2022-09-06T12:09:45Z</time><name>PT3940</name></trkpt>
<trkpt lat="52.714720" lon="06.076316"><ele>0.4</ele><time>2022-09-06T12:09:46Z</time><name>PT3941</name></trkpt>
<trkpt lat="52.714738" lon="06.076324"><ele>0.5</ele><time>2022-09-06T12:09:48Z</time><name>PT3942</name></trkpt>
<trkpt lat="52.714756" lon="06.076332"><ele>0.6</ele><time>2022-09-06T12:09:48Z</time><name>PT3943</name></trkpt>
<trkpt lat="52.714774" lon="06.076340"><ele>0.6</ele><time>2022-09-06T12:09:50Z</time><name>PT3944</name></trkpt>
<trkpt lat="52.714792" lon="06.076348"><ele>0.6</ele><time>2022-09-06T12:09:51Z</time><name>PT3945</name></trkpt>
<trkpt lat="52.714810" lon="06.076356"><ele>0.6</ele><time>2022-09-06T12:09:51Z</time><name>PT3946</name></trkpt>
<trkpt lat="52.714828" lon="06.076364"><ele>0.4</ele><time>2022-09-06T12:09:52Z</time><name>PT3947</name></trkpt>
<trkpt lat="52.714846" lon="06.076371"><ele>0.3</ele><time>2022-09-06T12:09:54Z</time><name>PT3948</name></trkpt>
<trkpt lat="52.714864" lon="06.076378"><ele>0.1</ele><time>2022-09-06T12:09:54Z</time><name>PT3949</name></trkpt>
<trkpt lat="52.714883" lon="06.076384"><ele>0.1</ele><time>2022-09-06T12:09:55Z</time><name>PT3950</name></trkpt>
<trkpt lat="52.714900" lon="06.076391"><ele>0.1</ele><time>2022-09-06T12:09:57Z</time><name>PT3951</name></trkpt>
<trkpt lat="52.714919" lon="06.076400"><ele>0.1</ele><time>2022-09-06T12:09:57Z</time><name>PT3952</name></trkpt>
<trkpt lat="52.714936" lon="06.076407"><ele>0</ele><time>2022-09-06T12:09:58Z</time><name>PT3953</name></trkpt>
<trkpt lat="52.714954" lon="06.076414"><ele>0</ele><time>2022-09-06T12:10:00Z</time><name>PT3954</name></trkpt>
<trkpt lat="52.714972" lon="06.076420"><ele>0</ele><time>2022-09-06T12:10:00Z</time><name>PT3955</name></trkpt>
<trkpt lat="52.714990" lon="06.076428"><ele>0.1</ele><time>2022-09-06T12:10:01Z</time><name>PT3956</name></trkpt>
<trkpt lat="52.715008" lon="06.076435"><ele>0.3</ele><time>2022-09-06T12:10:03Z</time><name>PT3957</name></trkpt>
<trkpt lat="52.715026" lon="06.076442"><ele>0.4</ele><time>2022-09-06T12:10:03Z</time><name>PT3958</name></trkpt>
<trkpt lat="52.715044" lon="06.076448"><ele>0.4</ele><time>2022-09-06T12:10:04Z</time><name>PT3959</name></trkpt>
<trkpt lat="52.715063" lon="06.076456"><ele>0.2</ele><time>2022-09-06T12:10:06Z</time><name>PT3960</name></trkpt>
<trkpt lat="52.715082" lon="06.076464"><ele>0.2</ele><time>2022-09-06T12:10:06Z</time><name>PT3961</name></trkpt>
<trkpt lat="52.715101" lon="06.076472"><ele>0.1</ele><time>2022-09-06T12:10:07Z</time><name>PT3962</name></trkpt>
<trkpt lat="52.715120" lon="06.076482"><ele>0.1</ele><time>2022-09-06T12:10:09Z</time><name>PT3963</name></trkpt>
<trkpt lat="52.715138" lon="06.076487"><ele>0.2</ele><time>2022-09-06T12:10:09Z</time><name>PT3964</name></trkpt>
<trkpt lat="52.715156" lon="06.076494"><ele>0.3</ele><time>2022-09-06T12:10:10Z</time><name>PT3965</name></trkpt>
<trkpt lat="52.715173" lon="06.076506"><ele>0.6</ele><time>2022-09-06T12:10:12Z</time><name>PT3966</name></trkpt>
<trkpt lat="52.715192" lon="06.076514"><ele>0.7</ele><time>2022-09-06T12:10:12Z</time><name>PT3967</name></trkpt>
<trkpt lat="52.715211" lon="06.076522"><ele>0.7</ele><time>2022-09-06T12:10:13Z</time><name>PT3968</name></trkpt>
<trkpt lat="52.715229" lon="06.076527"><ele>0.8</ele><time>2022-09-06T12:10:15Z</time><name>PT3969</name></trkpt>
<trkpt lat="52.715246" lon="06.076531"><ele>0.8</ele><time>2022-09-06T12:10:15Z</time><name>PT3970</name></trkpt>
<trkpt lat="52.715264" lon="06.076536"><ele>0.4</ele><time>2022-09-06T12:10:16Z</time><name>PT3971</name></trkpt>
<trkpt lat="52.715282" lon="06.076542"><ele>0.3</ele><time>2022-09-06T12:10:18Z</time><name>PT3972</name></trkpt>
<trkpt lat="52.715300" lon="06.076549"><ele>0.1</ele><time>2022-09-06T12:10:18Z</time><name>PT3973</name></trkpt>
<trkpt lat="52.715317" lon="06.076554"><ele>0</ele><time>2022-09-06T12:10:19Z</time><name>PT3974</name></trkpt>
<trkpt lat="52.715336" lon="06.076560"><ele>0.1</ele><time>2022-09-06T12:10:21Z</time><name>PT3975</name></trkpt>
<trkpt lat="52.715352" lon="06.076563"><ele>0.1</ele><time>2022-09-06T12:10:21Z</time><name>PT3976</name></trkpt>
<trkpt lat="52.715371" lon="06.076570"><ele>0.1</ele><time>2022-09-06T12:10:22Z</time><name>PT3977</name></trkpt>
<trkpt lat="52.715388" lon="06.076575"><ele>0.2</ele><time>2022-09-06T12:10:24Z</time><name>PT3978</name></trkpt>
<trkpt lat="52.715406" lon="06.076581"><ele>0.2</ele><time>2022-09-06T12:10:24Z</time><name>PT3979</name></trkpt>
<trkpt lat="52.715423" lon="06.076586"><ele>0.4</ele><time>2022-09-06T12:10:25Z</time><name>PT3980</name></trkpt>
<trkpt lat="52.715440" lon="06.076591"><ele>0.6</ele><time>2022-09-06T12:10:27Z</time><name>PT3981</name></trkpt>
<trkpt lat="52.715458" lon="06.076597"><ele>0.4</ele><time>2022-09-06T12:10:27Z</time><name>PT3982</name></trkpt>
<trkpt lat="52.715476" lon="06.076603"><ele>0.5</ele><time>2022-09-06T12:10:28Z</time><name>PT3983</name></trkpt>
<trkpt lat="52.715494" lon="06.076609"><ele>0.2</ele><time>2022-09-06T12:10:30Z</time><name>PT3984</name></trkpt>
<trkpt lat="52.715512" lon="06.076615"><ele>0.1</ele><time>2022-09-06T12:10:30Z</time><name>PT3985</name></trkpt>
<trkpt lat="52.715530" lon="06.076620"><ele>0.2</ele><time>2022-09-06T12:10:31Z</time><name>PT3986</name></trkpt>
<trkpt lat="52.715549" lon="06.076627"><ele>0.2</ele><time>2022-09-06T12:10:33Z</time><name>PT3987</name></trkpt>
<trkpt lat="52.715567" lon="06.076632"><ele>0.3</ele><time>2022-09-06T12:10:33Z</time><name>PT3988</name></trkpt>
<trkpt lat="52.715585" lon="06.076638"><ele>0.6</ele><time>2022-09-06T12:10:34Z</time><name>PT3989</name></trkpt>
<trkpt lat="52.715604" lon="06.076643"><ele>0.6</ele><time>2022-09-06T12:10:36Z</time><name>PT3990</name></trkpt>
<trkpt lat="52.715622" lon="06.076648"><ele>0.5</ele><time>2022-09-06T12:10:36Z</time><name>PT3991</name></trkpt>
<trkpt lat="52.715641" lon="06.076652"><ele>0.5</ele><time>2022-09-06T12:10:37Z</time><name>PT3992</name></trkpt>
<trkpt lat="52.715659" lon="06.076657"><ele>0.1</ele><time>2022-09-06T12:10:39Z</time><name>PT3993</name></trkpt>
<trkpt lat="52.715678" lon="06.076662"><ele>0.1</ele><time>2022-09-06T12:10:39Z</time><name>PT3994</name></trkpt>
<trkpt lat="52.715696" lon="06.076667"><ele>0.1</ele><time>2022-09-06T12:10:40Z</time><name>PT3995</name></trkpt>
<trkpt lat="52.715715" lon="06.076671"><ele>0.1</ele><time>2022-09-06T12:10:42Z</time><name>PT3996</name></trkpt>
<trkpt lat="52.715733" lon="06.076676"><ele>0.3</ele><time>2022-09-06T12:10:42Z</time><name>PT3997</name></trkpt>
<trkpt lat="52.715752" lon="06.076681"><ele>0.5</ele><time>2022-09-06T12:10:43Z</time><name>PT3998</name></trkpt>
<trkpt lat="52.715770" lon="06.076687"><ele>0.6</ele><time>2022-09-06T12:10:45Z</time><name>PT3999</name></trkpt>
<trkpt lat="52.715789" lon="06.076691"><ele>0.7</ele><time>2022-09-06T12:10:45Z</time><name>PT4000</name></trkpt>
<trkpt lat="52.715807" lon="06.076695"><ele>0.5</ele><time>2022-09-06T12:10:46Z</time><name>PT4001</name></trkpt>
<trkpt lat="52.715825" lon="06.076698"><ele>0.5</ele><time>2022-09-06T12:10:48Z</time><name>PT4002</name></trkpt>
<trkpt lat="52.715843" lon="06.076703"><ele>0.6</ele><time>2022-09-06T12:10:48Z</time><name>PT4003</name></trkpt>
<trkpt lat="52.715861" lon="06.076709"><ele>0.6</ele><time>2022-09-06T12:10:49Z</time><name>PT4004</name></trkpt>
<trkpt lat="52.715880" lon="06.076713"><ele>0.7</ele><time>2022-09-06T12:10:51Z</time><name>PT4005</name></trkpt>
<trkpt lat="52.715898" lon="06.076718"><ele>0.6</ele><time>2022-09-06T12:10:51Z</time><name>PT4006</name></trkpt>
<trkpt lat="52.715916" lon="06.076722"><ele>0.5</ele><time>2022-09-06T12:10:52Z</time><name>PT4007</name></trkpt>
<trkpt lat="52.715935" lon="06.076726"><ele>0.1</ele><time>2022-09-06T12:10:54Z</time><name>PT4008</name></trkpt>
<trkpt lat="52.715953" lon="06.076731"><ele>0.1</ele><time>2022-09-06T12:10:54Z</time><name>PT4009</name></trkpt>
<trkpt lat="52.715971" lon="06.076735"><ele>0.2</ele><time>2022-09-06T12:10:55Z</time><name>PT4010</name></trkpt>
<trkpt lat="52.715990" lon="06.076740"><ele>0.1</ele><time>2022-09-06T12:10:57Z</time><name>PT4011</name></trkpt>
<trkpt lat="52.716009" lon="06.076744"><ele>0.3</ele><time>2022-09-06T12:10:57Z</time><name>PT4012</name></trkpt>
<trkpt lat="52.716027" lon="06.076748"><ele>0.4</ele><time>2022-09-06T12:10:58Z</time><name>PT4013</name></trkpt>
<trkpt lat="52.716046" lon="06.076753"><ele>0.2</ele><time>2022-09-06T12:11:00Z</time><name>PT4014</name></trkpt>
<trkpt lat="52.716064" lon="06.076757"><ele>0.3</ele><time>2022-09-06T12:11:00Z</time><name>PT4015</name></trkpt>
<trkpt lat="52.716083" lon="06.076762"><ele>0.3</ele><time>2022-09-06T12:11:01Z</time><name>PT4016</name></trkpt>
<trkpt lat="52.716102" lon="06.076768"><ele>0.3</ele><time>2022-09-06T12:11:03Z</time><name>PT4017</name></trkpt>
<trkpt lat="52.716121" lon="06.076774"><ele>0.4</ele><time>2022-09-06T12:11:03Z</time><name>PT4018</name></trkpt>
<trkpt lat="52.716141" lon="06.076780"><ele>0.5</ele><time>2022-09-06T12:11:04Z</time><name>PT4019</name></trkpt>
<trkpt lat="52.716160" lon="06.076786"><ele>0.3</ele><time>2022-09-06T12:11:06Z</time><name>PT4020</name></trkpt>
<trkpt lat="52.716179" lon="06.076794"><ele>0.3</ele><time>2022-09-06T12:11:06Z</time><name>PT4021</name></trkpt>
<trkpt lat="52.716199" lon="06.076801"><ele>0.2</ele><time>2022-09-06T12:11:07Z</time><name>PT4022</name></trkpt>
<trkpt lat="52.716218" lon="06.076808"><ele>0.2</ele><time>2022-09-06T12:11:09Z</time><name>PT4023</name></trkpt>
<trkpt lat="52.716237" lon="06.076815"><ele>0.1</ele><time>2022-09-06T12:11:09Z</time><name>PT4024</name></trkpt>
<trkpt lat="52.716256" lon="06.076823"><ele>0</ele><time>2022-09-06T12:11:10Z</time><name>PT4025</name></trkpt>
<trkpt lat="52.716275" lon="06.076830"><ele>0</ele><time>2022-09-06T12:11:12Z</time><name>PT4026</name></trkpt>
<trkpt lat="52.716294" lon="06.076837"><ele>0.1</ele><time>2022-09-06T12:11:12Z</time><name>PT4027</name></trkpt>
<trkpt lat="52.716312" lon="06.076845"><ele>0.3</ele><time>2022-09-06T12:11:13Z</time><name>PT4028</name></trkpt>
<trkpt lat="52.716331" lon="06.076853"><ele>0.4</ele><time>2022-09-06T12:11:15Z</time><name>PT4029</name></trkpt>
<trkpt lat="52.716350" lon="06.076860"><ele>0.4</ele><time>2022-09-06T12:11:15Z</time><name>PT4030</name></trkpt>
<trkpt lat="52.716368" lon="06.076868"><ele>0.2</ele><time>2022-09-06T12:11:16Z</time><name>PT4031</name></trkpt>
<trkpt lat="52.716387" lon="06.076876"><ele>0.1</ele><time>2022-09-06T12:11:18Z</time><name>PT4032</name></trkpt>
<trkpt lat="52.716406" lon="06.076884"><ele>0.1</ele><time>2022-09-06T12:11:18Z</time><name>PT4033</name></trkpt>
<trkpt lat="52.716424" lon="06.076892"><ele>0.3</ele><time>2022-09-06T12:11:19Z</time><name>PT4034</name></trkpt>
<trkpt lat="52.716442" lon="06.076900"><ele>0.3</ele><time>2022-09-06T12:11:21Z</time><name>PT4035</name></trkpt>
<trkpt lat="52.716460" lon="06.076907"><ele>0.3</ele><time>2022-09-06T12:11:21Z</time><name>PT4036</name></trkpt>
<trkpt lat="52.716479" lon="06.076915"><ele>0.3</ele><time>2022-09-06T12:11:22Z</time><name>PT4037</name></trkpt>
<trkpt lat="52.716497" lon="06.076922"><ele>0.3</ele><time>2022-09-06T12:11:24Z</time><name>PT4038</name></trkpt>
<trkpt lat="52.716515" lon="06.076929"><ele>0.4</ele><time>2022-09-06T12:11:24Z</time><name>PT4039</name></trkpt>
<trkpt lat="52.716534" lon="06.076937"><ele>0.3</ele><time>2022-09-06T12:11:25Z</time><name>PT4040</name></trkpt>
<trkpt lat="52.716552" lon="06.076947"><ele>0.1</ele><time>2022-09-06T12:11:27Z</time><name>PT4041</name></trkpt>
<trkpt lat="52.716570" lon="06.076957"><ele>0.1</ele><time>2022-09-06T12:11:27Z</time><name>PT4042</name></trkpt>
<trkpt lat="52.716588" lon="06.076965"><ele>0.1</ele><time>2022-09-06T12:11:28Z</time><name>PT4043</name></trkpt>
<trkpt lat="52.716606" lon="06.076973"><ele>0.2</ele><time>2022-09-06T12:11:30Z</time><name>PT4044</name></trkpt>
<trkpt lat="52.716624" lon="06.076981"><ele>0.2</ele><time>2022-09-06T12:11:30Z</time><name>PT4045</name></trkpt>
<trkpt lat="52.716642" lon="06.076990"><ele>0.4</ele><time>2022-09-06T12:11:31Z</time><name>PT4046</name></trkpt>
<trkpt lat="52.716660" lon="06.076998"><ele>0.4</ele><time>2022-09-06T12:11:33Z</time><name>PT4047</name></trkpt>
<trkpt lat="52.716678" lon="06.077003"><ele>0.3</ele><time>2022-09-06T12:11:33Z</time><name>PT4048</name></trkpt>
<trkpt lat="52.716695" lon="06.077010"><ele>0.4</ele><time>2022-09-06T12:11:34Z</time><name>PT4049</name></trkpt>
<trkpt lat="52.716714" lon="06.077016"><ele>0.1</ele><time>2022-09-06T12:11:36Z</time><name>PT4050</name></trkpt>
<trkpt lat="52.716732" lon="06.077023"><ele>0.1</ele><time>2022-09-06T12:11:36Z</time><name>PT4051</name></trkpt>
<trkpt lat="52.716751" lon="06.077030"><ele>0</ele><time>2022-09-06T12:11:37Z</time><name>PT4052</name></trkpt>
<trkpt lat="52.716769" lon="06.077037"><ele>0</ele><time>2022-09-06T12:11:39Z</time><name>PT4053</name></trkpt>
<trkpt lat="52.716788" lon="06.077043"><ele>0.1</ele><time>2022-09-06T12:11:39Z</time><name>PT4054</name></trkpt>
<trkpt lat="52.716807" lon="06.077049"><ele>0.1</ele><time>2022-09-06T12:11:40Z</time><name>PT4055</name></trkpt>
<trkpt lat="52.716826" lon="06.077056"><ele>0.2</ele><time>2022-09-06T12:11:42Z</time><name>PT4056</name></trkpt>
<trkpt lat="52.716844" lon="06.077063"><ele>0.2</ele><time>2022-09-06T12:11:42Z</time><name>PT4057</name></trkpt>
<trkpt lat="52.716863" lon="06.077070"><ele>0.4</ele><time>2022-09-06T12:11:43Z</time><name>PT4058</name></trkpt>
<trkpt lat="52.716881" lon="06.077076"><ele>0.4</ele><time>2022-09-06T12:11:45Z</time><name>PT4059</name></trkpt>
<trkpt lat="52.716898" lon="06.077086"><ele>0.5</ele><time>2022-09-06T12:11:45Z</time><name>PT4060</name></trkpt>
<trkpt lat="52.716917" lon="06.077092"><ele>0.2</ele><time>2022-09-06T12:11:46Z</time><name>PT4061</name></trkpt>
<trkpt lat="52.716937" lon="06.077099"><ele>0</ele><time>2022-09-06T12:11:48Z</time><name>PT4062</name></trkpt>
<trkpt lat="52.716956" lon="06.077107"><ele>0</ele><time>2022-09-06T12:11:48Z</time><name>PT4063</name></trkpt>
<trkpt lat="52.716973" lon="06.077113"><ele>0.3</ele><time>2022-09-06T12:11:49Z</time><name>PT4064</name></trkpt>
<trkpt lat="52.716998" lon="06.077117"><ele>0.4</ele><time>2022-09-06T12:11:51Z</time><name>PT4065</name></trkpt>
<trkpt lat="52.717017" lon="06.077120"><ele>0.4</ele><time>2022-09-06T12:11:51Z</time><name>PT4066</name></trkpt>
<trkpt lat="52.717037" lon="06.077120"><ele>0.3</ele><time>2022-09-06T12:11:52Z</time><name>PT4067</name></trkpt>
<trkpt lat="52.717059" lon="06.077125"><ele>0.3</ele><time>2022-09-06T12:11:54Z</time><name>PT4068</name></trkpt>
<trkpt lat="52.717077" lon="06.077127"><ele>0</ele><time>2022-09-06T12:11:54Z</time><name>PT4069</name></trkpt>
<trkpt lat="52.717096" lon="06.077129"><ele>0.1</ele><time>2022-09-06T12:11:55Z</time><name>PT4070</name></trkpt>
<trkpt lat="52.717115" lon="06.077133"><ele>0.1</ele><time>2022-09-06T12:11:57Z</time><name>PT4071</name></trkpt>
<trkpt lat="52.717133" lon="06.077137"><ele>0</ele><time>2022-09-06T12:11:57Z</time><name>PT4072</name></trkpt>
<trkpt lat="52.717149" lon="06.077143"><ele>0.1</ele><time>2022-09-06T12:11:58Z</time><name>PT4073</name></trkpt>
<trkpt lat="52.717167" lon="06.077148"><ele>0.1</ele><time>2022-09-06T12:12:00Z</time><name>PT4074</name></trkpt>
<trkpt lat="52.717187" lon="06.077152"><ele>0.2</ele><time>2022-09-06T12:12:00Z</time><name>PT4075</name></trkpt>
<trkpt lat="52.717206" lon="06.077157"><ele>0.3</ele><time>2022-09-06T12:12:01Z</time><name>PT4076</name></trkpt>
<trkpt lat="52.717224" lon="06.077163"><ele>0.3</ele><time>2022-09-06T12:12:03Z</time><name>PT4077</name></trkpt>
<trkpt lat="52.717243" lon="06.077168"><ele>0.3</ele><time>2022-09-06T12:12:03Z</time><name>PT4078</name></trkpt>
<trkpt lat="52.717263" lon="06.077174"><ele>0.3</ele><time>2022-09-06T12:12:04Z</time><name>PT4079</name></trkpt>
<trkpt lat="52.717282" lon="06.077180"><ele>0.1</ele><time>2022-09-06T12:12:06Z</time><name>PT4080</name></trkpt>
<trkpt lat="52.717302" lon="06.077186"><ele>0.1</ele><time>2022-09-06T12:12:06Z</time><name>PT4081</name></trkpt>
<trkpt lat="52.717321" lon="06.077192"><ele>0</ele><time>2022-09-06T12:12:07Z</time><name>PT4082</name></trkpt>
<trkpt lat="52.717340" lon="06.077198"><ele>0</ele><time>2022-09-06T12:12:09Z</time><name>PT4083</name></trkpt>
<trkpt lat="52.717358" lon="06.077203"><ele>0.1</ele><time>2022-09-06T12:12:09Z</time><name>PT4084</name></trkpt>
<trkpt lat="52.717378" lon="06.077209"><ele>0</ele><time>2022-09-06T12:12:10Z</time><name>PT4085</name></trkpt>
<trkpt lat="52.717397" lon="06.077214"><ele>0</ele><time>2022-09-06T12:12:12Z</time><name>PT4086</name></trkpt>
<trkpt lat="52.717416" lon="06.077219"><ele>0.2</ele><time>2022-09-06T12:12:12Z</time><name>PT4087</name></trkpt>
<trkpt lat="52.717435" lon="06.077223"><ele>0.1</ele><time>2022-09-06T12:12:13Z</time><name>PT4088</name></trkpt>
<trkpt lat="52.717454" lon="06.077229"><ele>0.1</ele><time>2022-09-06T12:12:15Z</time><name>PT4089</name></trkpt>
<trkpt lat="52.717473" lon="06.077233"><ele>0</ele><time>2022-09-06T12:12:15Z</time><name>PT4090</name></trkpt>
<trkpt lat="52.717492" lon="06.077238"><ele>0.1</ele><time>2022-09-06T12:12:16Z</time><name>PT4091</name></trkpt>
<trkpt lat="52.717510" lon="06.077243"><ele>0</ele><time>2022-09-06T12:12:18Z</time><name>PT4092</name></trkpt>
<trkpt lat="52.717529" lon="06.077248"><ele>0.1</ele><time>2022-09-06T12:12:18Z</time><name>PT4093</name></trkpt>
<trkpt lat="52.717548" lon="06.077252"><ele>0.3</ele><time>2022-09-06T12:12:19Z</time><name>PT4094</name></trkpt>
<trkpt lat="52.717566" lon="06.077257"><ele>0.2</ele><time>2022-09-06T12:12:21Z</time><name>PT4095</name></trkpt>
<trkpt lat="52.717585" lon="06.077259"><ele>0.1</ele><time>2022-09-06T12:12:21Z</time><name>PT4096</name></trkpt>
<trkpt lat="52.717603" lon="06.077261"><ele>0.1</ele><time>2022-09-06T12:12:22Z</time><name>PT4097</name></trkpt>
<trkpt lat="52.717622" lon="06.077263"><ele>0.1</ele><time>2022-09-06T12:12:24Z</time><name>PT4098</name></trkpt>
<trkpt lat="52.717641" lon="06.077266"><ele>0.1</ele><time>2022-09-06T12:12:24Z</time><name>PT4099</name></trkpt>
<trkpt lat="52.717662" lon="06.077271"><ele>0.1</ele><time>2022-09-06T12:12:25Z</time><name>PT4100</name></trkpt>
<trkpt lat="52.717681" lon="06.077273"><ele>0</ele><time>2022-09-06T12:12:27Z</time><name>PT4101</name></trkpt>
<trkpt lat="52.717700" lon="06.077277"><ele>0</ele><time>2022-09-06T12:12:27Z</time><name>PT4102</name></trkpt>
<trkpt lat="52.717718" lon="06.077282"><ele>0.1</ele><time>2022-09-06T12:12:28Z</time><name>PT4103</name></trkpt>
<trkpt lat="52.717738" lon="06.077287"><ele>0.1</ele><time>2022-09-06T12:12:30Z</time><name>PT4104</name></trkpt>
<trkpt lat="52.717757" lon="06.077291"><ele>0</ele><time>2022-09-06T12:12:30Z</time><name>PT4105</name></trkpt>
<trkpt lat="52.717776" lon="06.077293"><ele>0</ele><time>2022-09-06T12:12:31Z</time><name>PT4106</name></trkpt>
<trkpt lat="52.717795" lon="06.077297"><ele>0</ele><time>2022-09-06T12:12:33Z</time><name>PT4107</name></trkpt>
<trkpt lat="52.717814" lon="06.077300"><ele>0</ele><time>2022-09-06T12:12:33Z</time><name>PT4108</name></trkpt>
<trkpt lat="52.717833" lon="06.077303"><ele>0</ele><time>2022-09-06T12:12:34Z</time><name>PT4109</name></trkpt>
<trkpt lat="52.717852" lon="06.077305"><ele>0</ele><time>2022-09-06T12:12:36Z</time><name>PT4110</name></trkpt>
<trkpt lat="52.717870" lon="06.077306"><ele>0.1</ele><time>2022-09-06T12:12:36Z</time><name>PT4111</name></trkpt>
<trkpt lat="52.717889" lon="06.077308"><ele>0</ele><time>2022-09-06T12:12:37Z</time><name>PT4112</name></trkpt>
<trkpt lat="52.717908" lon="06.077309"><ele>0.1</ele><time>2022-09-06T12:12:39Z</time><name>PT4113</name></trkpt>
<trkpt lat="52.717926" lon="06.077307"><ele>0.1</ele><time>2022-09-06T12:12:39Z</time><name>PT4114</name></trkpt>
<trkpt lat="52.717944" lon="06.077308"><ele>0.1</ele><time>2022-09-06T12:12:40Z</time><name>PT4115</name></trkpt>
<trkpt lat="52.717963" lon="06.077309"><ele>0.1</ele><time>2022-09-06T12:12:42Z</time><name>PT4116</name></trkpt>
<trkpt lat="52.717982" lon="06.077310"><ele>0.1</ele><time>2022-09-06T12:12:42Z</time><name>PT4117</name></trkpt>
<trkpt lat="52.718001" lon="06.077310"><ele>0</ele><time>2022-09-06T12:12:43Z</time><name>PT4118</name></trkpt>
<trkpt lat="52.718020" lon="06.077311"><ele>0</ele><time>2022-09-06T12:12:45Z</time><name>PT4119</name></trkpt>
<trkpt lat="52.718039" lon="06.077312"><ele>0</ele><time>2022-09-06T12:12:45Z</time><name>PT4120</name></trkpt>
<trkpt lat="52.718059" lon="06.077314"><ele>0</ele><time>2022-09-06T12:12:46Z</time><name>PT4121</name></trkpt>
<trkpt lat="52.718078" lon="06.077316"><ele>0</ele><time>2022-09-06T12:12:48Z</time><name>PT4122</name></trkpt>
<trkpt lat="52.718097" lon="06.077317"><ele>0.1</ele><time>2022-09-06T12:12:48Z</time><name>PT4123</name></trkpt>
<trkpt lat="52.718117" lon="06.077319"><ele>0.1</ele><time>2022-09-06T12:12:49Z</time><name>PT4124</name></trkpt>
<trkpt lat="52.718136" lon="06.077320"><ele>0</ele><time>2022-09-06T12:12:51Z</time><name>PT4125</name></trkpt>
<trkpt lat="52.718155" lon="06.077322"><ele>0</ele><time>2022-09-06T12:12:51Z</time><name>PT4126</name></trkpt>
<trkpt lat="52.718175" lon="06.077324"><ele>0.1</ele><time>2022-09-06T12:12:52Z</time><name>PT4127</name></trkpt>
<trkpt lat="52.718195" lon="06.077326"><ele>0.3</ele><time>2022-09-06T12:12:54Z</time><name>PT4128</name></trkpt>
<trkpt lat="52.718215" lon="06.077328"><ele>0.4</ele><time>2022-09-06T12:12:54Z</time><name>PT4129</name></trkpt>
<trkpt lat="52.718234" lon="06.077330"><ele>0.3</ele><time>2022-09-06T12:12:55Z</time><name>PT4130</name></trkpt>
<trkpt lat="52.718254" lon="06.077332"><ele>0.3</ele><time>2022-09-06T12:12:57Z</time><name>PT4131</name></trkpt>
<trkpt lat="52.718274" lon="06.077333"><ele>0.3</ele><time>2022-09-06T12:12:57Z</time><name>PT4132</name></trkpt>
<trkpt lat="52.718293" lon="06.077335"><ele>0.1</ele><time>2022-09-06T12:12:58Z</time><name>PT4133</name></trkpt>
<trkpt lat="52.718313" lon="06.077337"><ele>0.2</ele><time>2022-09-06T12:13:00Z</time><name>PT4134</name></trkpt>
<trkpt lat="52.718332" lon="06.077339"><ele>0.3</ele><time>2022-09-06T12:13:00Z</time><name>PT4135</name></trkpt>
<trkpt lat="52.718352" lon="06.077340"><ele>0.3</ele><time>2022-09-06T12:13:01Z</time><name>PT4136</name></trkpt>
<trkpt lat="52.718372" lon="06.077342"><ele>0.3</ele><time>2022-09-06T12:13:03Z</time><name>PT4137</name></trkpt>
<trkpt lat="52.718392" lon="06.077344"><ele>0.3</ele><time>2022-09-06T12:13:03Z</time><name>PT4138</name></trkpt>
<trkpt lat="52.718412" lon="06.077346"><ele>0.1</ele><time>2022-09-06T12:13:04Z</time><name>PT4139</name></trkpt>
<trkpt lat="52.718431" lon="06.077348"><ele>0</ele><time>2022-09-06T12:13:06Z</time><name>PT4140</name></trkpt>
<trkpt lat="52.718450" lon="06.077349"><ele>0</ele><time>2022-09-06T12:13:06Z</time><name>PT4141</name></trkpt>
<trkpt lat="52.718470" lon="06.077352"><ele>0</ele><time>2022-09-06T12:13:07Z</time><name>PT4142</name></trkpt>
<trkpt lat="52.718488" lon="06.077353"><ele>0.2</ele><time>2022-09-06T12:13:09Z</time><name>PT4143</name></trkpt>
<trkpt lat="52.718508" lon="06.077355"><ele>0.3</ele><time>2022-09-06T12:13:09Z</time><name>PT4144</name></trkpt>
<trkpt lat="52.718528" lon="06.077357"><ele>0.3</ele><time>2022-09-06T12:13:10Z</time><name>PT4145</name></trkpt>
<trkpt lat="52.718546" lon="06.077358"><ele>0.2</ele><time>2022-09-06T12:13:12Z</time><name>PT4146</name></trkpt>
<trkpt lat="52.718565" lon="06.077360"><ele>0.2</ele><time>2022-09-06T12:13:12Z</time><name>PT4147</name></trkpt>
<trkpt lat="52.718585" lon="06.077360"><ele>0.1</ele><time>2022-09-06T12:13:13Z</time><name>PT4148</name></trkpt>
<trkpt lat="52.718604" lon="06.077361"><ele>0.2</ele><time>2022-09-06T12:13:15Z</time><name>PT4149</name></trkpt>
<trkpt lat="52.718623" lon="06.077362"><ele>0.3</ele><time>2022-09-06T12:13:15Z</time><name>PT4150</name></trkpt>
<trkpt lat="52.718643" lon="06.077362"><ele>0.3</ele><time>2022-09-06T12:13:16Z</time><name>PT4151</name></trkpt>
<trkpt lat="52.718662" lon="06.077362"><ele>0.1</ele><time>2022-09-06T12:13:18Z</time><name>PT4152</name></trkpt>
<trkpt lat="52.718681" lon="06.077362"><ele>0</ele><time>2022-09-06T12:13:18Z</time><name>PT4153</name></trkpt>
<trkpt lat="52.718700" lon="06.077362"><ele>0</ele><time>2022-09-06T12:13:19Z</time><name>PT4154</name></trkpt>
<trkpt lat="52.718719" lon="06.077363"><ele>0.1</ele><time>2022-09-06T12:13:21Z</time><name>PT4155</name></trkpt>
<trkpt lat="52.718738" lon="06.077364"><ele>0</ele><time>2022-09-06T12:13:21Z</time><name>PT4156</name></trkpt>
<trkpt lat="52.718757" lon="06.077365"><ele>0.2</ele><time>2022-09-06T12:13:22Z</time><name>PT4157</name></trkpt>
<trkpt lat="52.718775" lon="06.077365"><ele>0.3</ele><time>2022-09-06T12:13:24Z</time><name>PT4158</name></trkpt>
<trkpt lat="52.718794" lon="06.077366"><ele>0.3</ele><time>2022-09-06T12:13:24Z</time><name>PT4159</name></trkpt>
<trkpt lat="52.718812" lon="06.077369"><ele>0.2</ele><time>2022-09-06T12:13:25Z</time><name>PT4160</name></trkpt>
<trkpt lat="52.718829" lon="06.077374"><ele>0.3</ele><time>2022-09-06T12:13:27Z</time><name>PT4161</name></trkpt>
<trkpt lat="52.718845" lon="06.077378"><ele>0.3</ele><time>2022-09-06T12:13:27Z</time><name>PT4162</name></trkpt>
<trkpt lat="52.718864" lon="06.077384"><ele>0.2</ele><time>2022-09-06T12:13:28Z</time><name>PT4163</name></trkpt>
<trkpt lat="52.718882" lon="06.077390"><ele>0.3</ele><time>2022-09-06T12:13:30Z</time><name>PT4164</name></trkpt>
<trkpt lat="52.718901" lon="06.077393"><ele>0.3</ele><time>2022-09-06T12:13:30Z</time><name>PT4165</name></trkpt>
<trkpt lat="52.718920" lon="06.077395"><ele>0</ele><time>2022-09-06T12:13:31Z</time><name>PT4166</name></trkpt>
<trkpt lat="52.718938" lon="06.077392"><ele>0.3</ele><time>2022-09-06T12:13:33Z</time><name>PT4167</name></trkpt>
<trkpt lat="52.718955" lon="06.077388"><ele>0.2</ele><time>2022-09-06T12:13:33Z</time><name>PT4168</name></trkpt>
<trkpt lat="52.718973" lon="06.077389"><ele>0.1</ele><time>2022-09-06T12:13:34Z</time><name>PT4169</name></trkpt>
<trkpt lat="52.718992" lon="06.077388"><ele>0.2</ele><time>2022-09-06T12:13:36Z</time><name>PT4170</name></trkpt>
<trkpt lat="52.719010" lon="06.077389"><ele>0.2</ele><time>2022-09-06T12:13:36Z</time><name>PT4171</name></trkpt>
<trkpt lat="52.719030" lon="06.077390"><ele>0.1</ele><time>2022-09-06T12:13:37Z</time><name>PT4172</name></trkpt>
<trkpt lat="52.719048" lon="06.077390"><ele>0.1</ele><time>2022-09-06T12:13:39Z</time><name>PT4173</name></trkpt>
<trkpt lat="52.719067" lon="06.077389"><ele>0.2</ele><time>2022-09-06T12:13:39Z</time><name>PT4174</name></trkpt>
<trkpt lat="52.719082" lon="06.077387"><ele>0.2</ele><time>2022-09-06T12:13:40Z</time><name>PT4175</name></trkpt>
<trkpt lat="52.719097" lon="06.077387"><ele>0.3</ele><time>2022-09-06T12:13:42Z</time><name>PT4176</name></trkpt>
<trkpt lat="52.719113" lon="06.077384"><ele>0.3</ele><time>2022-09-06T12:13:42Z</time><name>PT4177</name></trkpt>
<trkpt lat="52.719130" lon="06.077383"><ele>0.2</ele><time>2022-09-06T12:13:43Z</time><name>PT4178</name></trkpt>
<trkpt lat="52.719146" lon="06.077383"><ele>0.3</ele><time>2022-09-06T12:13:45Z</time><name>PT4179</name></trkpt>
<trkpt lat="52.719165" lon="06.077379"><ele>0.3</ele><time>2022-09-06T12:13:45Z</time><name>PT4180</name></trkpt>
<trkpt lat="52.719185" lon="06.077381"><ele>0.3</ele><time>2022-09-06T12:13:46Z</time><name>PT4181</name></trkpt>
<trkpt lat="52.719204" lon="06.077381"><ele>0.3</ele><time>2022-09-06T12:13:48Z</time><name>PT4182</name></trkpt>
<trkpt lat="52.719223" lon="06.077381"><ele>0.3</ele><time>2022-09-06T12:13:48Z</time><name>PT4183</name></trkpt>
<trkpt lat="52.719241" lon="06.077380"><ele>0.2</ele><time>2022-09-06T12:13:49Z</time><name>PT4184</name></trkpt>
<trkpt lat="52.719258" lon="06.077376"><ele>0.3</ele><time>2022-09-06T12:13:51Z</time><name>PT4185</name></trkpt>
<trkpt lat="52.719276" lon="06.077374"><ele>0.2</ele><time>2022-09-06T12:13:51Z</time><name>PT4186</name></trkpt>
<trkpt lat="52.719294" lon="06.077372"><ele>0</ele><time>2022-09-06T12:13:52Z</time><name>PT4187</name></trkpt>
<trkpt lat="52.719313" lon="06.077371"><ele>0.2</ele><time>2022-09-06T12:13:54Z</time><name>PT4188</name></trkpt>
<trkpt lat="52.719333" lon="06.077370"><ele>0.2</ele><time>2022-09-06T12:13:54Z</time><name>PT4189</name></trkpt>
<trkpt lat="52.719353" lon="06.077370"><ele>0.1</ele><time>2022-09-06T12:13:55Z</time><name>PT4190</name></trkpt>
<trkpt lat="52.719372" lon="06.077370"><ele>0</ele><time>2022-09-06T12:13:57Z</time><name>PT4191</name></trkpt>
<trkpt lat="52.719391" lon="06.077368"><ele>0</ele><time>2022-09-06T12:13:57Z</time><name>PT4192</name></trkpt>
<trkpt lat="52.719410" lon="06.077367"><ele>0.1</ele><time>2022-09-06T12:13:58Z</time><name>PT4193</name></trkpt>
<trkpt lat="52.719427" lon="06.077372"><ele>0.3</ele><time>2022-09-06T12:14:00Z</time><name>PT4194</name></trkpt>
<trkpt lat="52.719442" lon="06.077373"><ele>0.3</ele><time>2022-09-06T12:14:00Z</time><name>PT4195</name></trkpt>
<trkpt lat="52.719458" lon="06.077374"><ele>0.3</ele><time>2022-09-06T12:14:01Z</time><name>PT4196</name></trkpt>
<trkpt lat="52.719474" lon="06.077374"><ele>0.2</ele><time>2022-09-06T12:14:03Z</time><name>PT4197</name></trkpt>
<trkpt lat="52.719492" lon="06.077376"><ele>0.2</ele><time>2022-09-06T12:14:03Z</time><name>PT4198</name></trkpt>
<trkpt lat="52.719510" lon="06.077376"><ele>0.2</ele><time>2022-09-06T12:14:04Z</time><name>PT4199</name></trkpt>
<trkpt lat="52.719529" lon="06.077377"><ele>0.3</ele><time>2022-09-06T12:14:06Z</time><name>PT4200</name></trkpt>
<trkpt lat="52.719548" lon="06.077377"><ele>0.3</ele><time>2022-09-06T12:14:06Z</time><name>PT4201</name></trkpt>
<trkpt lat="52.719565" lon="06.077377"><ele>0.4</ele><time>2022-09-06T12:14:07Z</time><name>PT4202</name></trkpt>
<trkpt lat="52.719585" lon="06.077377"><ele>0.4</ele><time>2022-09-06T12:14:09Z</time><name>PT4203</name></trkpt>
<trkpt lat="52.719603" lon="06.077375"><ele>0.3</ele><time>2022-09-06T12:14:09Z</time><name>PT4204</name></trkpt>
<trkpt lat="52.719621" lon="06.077374"><ele>0.2</ele><time>2022-09-06T12:14:10Z</time><name>PT4205</name></trkpt>
<trkpt lat="52.719641" lon="06.077373"><ele>0.1</ele><time>2022-09-06T12:14:12Z</time><name>PT4206</name></trkpt>
<trkpt lat="52.719659" lon="06.077372"><ele>0</ele><time>2022-09-06T12:14:12Z</time><name>PT4207</name></trkpt>
<trkpt lat="52.719678" lon="06.077368"><ele>0</ele><time>2022-09-06T12:14:14Z</time><name>PT4208</name></trkpt>
<trkpt lat="52.719696" lon="06.077365"><ele>0.1</ele><time>2022-09-06T12:14:15Z</time><name>PT4209</name></trkpt>
<trkpt lat="52.719715" lon="06.077364"><ele>0.2</ele><time>2022-09-06T12:14:15Z</time><name>PT4210</name></trkpt>
<trkpt lat="52.719734" lon="06.077366"><ele>0.3</ele><time>2022-09-06T12:14:16Z</time><name>PT4211</name></trkpt>
<trkpt lat="52.719752" lon="06.077369"><ele>0.3</ele><time>2022-09-06T12:14:18Z</time><name>PT4212</name></trkpt>
<trkpt lat="52.719773" lon="06.077368"><ele>0.3</ele><time>2022-09-06T12:14:18Z</time><name>PT4213</name></trkpt>
<trkpt lat="52.719793" lon="06.077366"><ele>0.3</ele><time>2022-09-06T12:14:20Z</time><name>PT4214</name></trkpt>
<trkpt lat="52.719811" lon="06.077366"><ele>0.2</ele><time>2022-09-06T12:14:21Z</time><name>PT4215</name></trkpt>
<trkpt lat="52.719828" lon="06.077365"><ele>0.2</ele><time>2022-09-06T12:14:21Z</time><name>PT4216</name></trkpt>
<trkpt lat="52.719848" lon="06.077365"><ele>0.1</ele><time>2022-09-06T12:14:22Z</time><name>PT4217</name></trkpt>
<trkpt lat="52.719867" lon="06.077366"><ele>0</ele><time>2022-09-06T12:14:24Z</time><name>PT4218</name></trkpt>
<trkpt lat="52.719886" lon="06.077363"><ele>0</ele><time>2022-09-06T12:14:24Z</time><name>PT4219</name></trkpt>
<trkpt lat="52.719904" lon="06.077361"><ele>0.1</ele><time>2022-09-06T12:14:25Z</time><name>PT4220</name></trkpt>
<trkpt lat="52.719924" lon="06.077359"><ele>0.1</ele><time>2022-09-06T12:14:27Z</time><name>PT4221</name></trkpt>
<trkpt lat="52.719944" lon="06.077357"><ele>0.1</ele><time>2022-09-06T12:14:27Z</time><name>PT4222</name></trkpt>
<trkpt lat="52.719964" lon="06.077356"><ele>0.1</ele><time>2022-09-06T12:14:28Z</time><name>PT4223</name></trkpt>
<trkpt lat="52.719984" lon="06.077355"><ele>0</ele><time>2022-09-06T12:14:30Z</time><name>PT4224</name></trkpt>
<trkpt lat="52.720002" lon="06.077353"><ele>0.1</ele><time>2022-09-06T12:14:30Z</time><name>PT4225</name></trkpt>
<trkpt lat="52.720020" lon="06.077350"><ele>0</ele><time>2022-09-06T12:14:31Z</time><name>PT4226</name></trkpt>
<trkpt lat="52.720040" lon="06.077348"><ele>0.3</ele><time>2022-09-06T12:14:33Z</time><name>PT4227</name></trkpt>
<trkpt lat="52.720060" lon="06.077343"><ele>0.1</ele><time>2022-09-06T12:14:33Z</time><name>PT4228</name></trkpt>
<trkpt lat="52.720079" lon="06.077338"><ele>0.3</ele><time>2022-09-06T12:14:34Z</time><name>PT4229</name></trkpt>
<trkpt lat="52.720097" lon="06.077333"><ele>0.1</ele><time>2022-09-06T12:14:36Z</time><name>PT4230</name></trkpt>
<trkpt lat="52.720118" lon="06.077326"><ele>0</ele><time>2022-09-06T12:14:36Z</time><name>PT4231</name></trkpt>
<trkpt lat="52.720138" lon="06.077322"><ele>0.1</ele><time>2022-09-06T12:14:37Z</time><name>PT4232</name></trkpt>
<trkpt lat="52.720156" lon="06.077318"><ele>0.1</ele><time>2022-09-06T12:14:39Z</time><name>PT4233</name></trkpt>
<trkpt lat="52.720174" lon="06.077316"><ele>0.1</ele><time>2022-09-06T12:14:39Z</time><name>PT4234</name></trkpt>
<trkpt lat="52.720191" lon="06.077314"><ele>0.1</ele><time>2022-09-06T12:14:40Z</time><name>PT4235</name></trkpt>
<trkpt lat="52.720208" lon="06.077314"><ele>0.3</ele><time>2022-09-06T12:14:42Z</time><name>PT4236</name></trkpt>
<trkpt lat="52.720225" lon="06.077315"><ele>0.1</ele><time>2022-09-06T12:14:42Z</time><name>PT4237</name></trkpt>
<trkpt lat="52.720241" lon="06.077316"><ele>0.1</ele><time>2022-09-06T12:14:43Z</time><name>PT4238</name></trkpt>
<trkpt lat="52.720258" lon="06.077320"><ele>0.5</ele><time>2022-09-06T12:14:45Z</time><name>PT4239</name></trkpt>
<trkpt lat="52.720273" lon="06.077325"><ele>0.3</ele><time>2022-09-06T12:14:45Z</time><name>PT4240</name></trkpt>
<trkpt lat="52.720281" lon="06.077325"><ele>0.5</ele><time>2022-09-06T12:14:46Z</time><name>PT4241</name></trkpt>
<trkpt lat="52.720294" lon="06.077327"><ele>0.7</ele><time>2022-09-06T12:14:48Z</time><name>PT4242</name></trkpt>
<trkpt lat="52.720306" lon="06.077328"><ele>0.6</ele><time>2022-09-06T12:14:48Z</time><name>PT4243</name></trkpt>
<trkpt lat="52.720317" lon="06.077328"><ele>0.8</ele><time>2022-09-06T12:14:49Z</time><name>PT4244</name></trkpt>
<trkpt lat="52.720333" lon="06.077331"><ele>0.7</ele><time>2022-09-06T12:14:51Z</time><name>PT4245</name></trkpt>
<trkpt lat="52.720346" lon="06.077334"><ele>0.5</ele><time>2022-09-06T12:14:51Z</time><name>PT4246</name></trkpt>
<trkpt lat="52.720358" lon="06.077340"><ele>0.4</ele><time>2022-09-06T12:14:52Z</time><name>PT4247</name></trkpt>
<trkpt lat="52.720368" lon="06.077345"><ele>0.3</ele><time>2022-09-06T12:14:54Z</time><name>PT4248</name></trkpt>
<trkpt lat="52.720379" lon="06.077351"><ele>0.2</ele><time>2022-09-06T12:14:54Z</time><name>PT4249</name></trkpt>
<trkpt lat="52.720390" lon="06.077358"><ele>0.3</ele><time>2022-09-06T12:14:55Z</time><name>PT4250</name></trkpt>
<trkpt lat="52.720400" lon="06.077364"><ele>0</ele><time>2022-09-06T12:14:57Z</time><name>PT4251</name></trkpt>
<trkpt lat="52.720412" lon="06.077372"><ele>0</ele><time>2022-09-06T12:14:57Z</time><name>PT4252</name></trkpt>
<trkpt lat="52.720421" lon="06.077376"><ele>0</ele><time>2022-09-06T12:14:58Z</time><name>PT4253</name></trkpt>
<trkpt lat="52.720430" lon="06.077382"><ele>0.3</ele><time>2022-09-06T12:15:00Z</time><name>PT4254</name></trkpt>
<trkpt lat="52.720438" lon="06.077389"><ele>0.4</ele><time>2022-09-06T12:15:00Z</time><name>PT4255</name></trkpt>
<trkpt lat="52.720445" lon="06.077393"><ele>0.5</ele><time>2022-09-06T12:15:01Z</time><name>PT4256</name></trkpt>
<trkpt lat="52.720451" lon="06.077396"><ele>0.5</ele><time>2022-09-06T12:15:03Z</time><name>PT4257</name></trkpt>
<trkpt lat="52.720456" lon="06.077398"><ele>0.4</ele><time>2022-09-06T12:15:03Z</time><name>PT4258</name></trkpt>
<trkpt lat="52.720460" lon="06.077398"><ele>0.3</ele><time>2022-09-06T12:15:04Z</time><name>PT4259</name></trkpt>
<trkpt lat="52.720464" lon="06.077399"><ele>0.1</ele><time>2022-09-06T12:15:06Z</time><name>PT4260</name></trkpt>
<trkpt lat="52.720465" lon="06.077397"><ele>0.3</ele><time>2022-09-06T12:15:07Z</time><name>PT4261</name></trkpt>
<trkpt lat="52.720466" lon="06.077397"><ele>0.3</ele><time>2022-09-06T12:15:09Z</time><name>PT4262</name></trkpt>
<trkpt lat="52.720467" lon="06.077394"><ele>0.3</ele><time>2022-09-06T12:15:09Z</time><name>PT4263</name></trkpt>
<trkpt lat="52.720468" lon="06.077393"><ele>0.3</ele><time>2022-09-06T12:15:10Z</time><name>PT4264</name></trkpt>
<trkpt lat="52.720466" lon="06.077392"><ele>0.7</ele><time>2022-09-06T12:15:18Z</time><name>PT4265</name></trkpt>
<trkpt lat="52.720466" lon="06.077399"><ele>0.9</ele><time>2022-09-06T12:15:19Z</time><name>PT4266</name></trkpt>
<trkpt lat="52.720467" lon="06.077399"><ele>1.1</ele><time>2022-09-06T12:15:21Z</time><name>PT4267</name></trkpt>
<trkpt lat="52.720467" lon="06.077404"><ele>0.6</ele><time>2022-09-06T12:15:24Z</time><name>PT4268</name></trkpt>
<trkpt lat="52.720466" lon="06.077405"><ele>0.5</ele><time>2022-09-06T12:15:25Z</time><name>PT4269</name></trkpt>
<trkpt lat="52.720466" lon="06.077410"><ele>0.6</ele><time>2022-09-06T12:15:27Z</time><name>PT4270</name></trkpt>
<trkpt lat="52.720467" lon="06.077415"><ele>1</ele><time>2022-09-06T12:16:00Z</time><name>PT4271</name></trkpt>
<trkpt lat="52.720467" lon="06.077417"><ele>0.8</ele><time>2022-09-06T12:16:01Z</time><name>PT4272</name></trkpt>
<trkpt lat="52.720468" lon="06.077418"><ele>0.5</ele><time>2022-09-06T12:16:03Z</time><name>PT4273</name></trkpt>
<trkpt lat="52.720467" lon="06.077418"><ele>0.5</ele><time>2022-09-06T12:16:03Z</time><name>PT4274</name></trkpt>
<trkpt lat="52.720464" lon="06.077426"><ele>0.3</ele><time>2022-09-06T12:17:19Z</time><name>PT4275</name></trkpt>
<trkpt lat="52.720458" lon="06.077439"><ele>0.4</ele><time>2022-09-06T12:17:21Z</time><name>PT4276</name></trkpt>
<trkpt lat="52.720453" lon="06.077446"><ele>0.4</ele><time>2022-09-06T12:17:21Z</time><name>PT4277</name></trkpt>
<trkpt lat="52.720452" lon="06.077448"><ele>0.3</ele><time>2022-09-06T12:17:22Z</time><name>PT4278</name></trkpt>
<trkpt lat="52.720449" lon="06.077453"><ele>0.2</ele><time>2022-09-06T12:17:24Z</time><name>PT4279</name></trkpt>
<trkpt lat="52.720446" lon="06.077454"><ele>0.3</ele><time>2022-09-06T12:17:24Z</time><name>PT4280</name></trkpt>
<trkpt lat="52.720449" lon="06.077467"><ele>0</ele><time>2022-09-06T12:17:25Z</time><name>PT4281</name></trkpt>
<trkpt lat="52.720456" lon="06.077475"><ele>0.1</ele><time>2022-09-06T12:17:27Z</time><name>PT4282</name></trkpt>
<trkpt lat="52.720459" lon="06.077483"><ele>0.2</ele><time>2022-09-06T12:17:27Z</time><name>PT4283</name></trkpt>
<trkpt lat="52.720461" lon="06.077486"><ele>0.1</ele><time>2022-09-06T12:17:28Z</time><name>PT4284</name></trkpt>
<trkpt lat="52.720459" lon="06.077492"><ele>0.3</ele><time>2022-09-06T12:17:30Z</time><name>PT4285</name></trkpt>
<trkpt lat="52.720455" lon="06.077496"><ele>0.4</ele><time>2022-09-06T12:17:30Z</time><name>PT4286</name></trkpt>
<trkpt lat="52.720456" lon="06.077498"><ele>0.3</ele><time>2022-09-06T12:17:31Z</time><name>PT4287</name></trkpt>
<trkpt lat="52.720456" lon="06.077501"><ele>0.5</ele><time>2022-09-06T12:17:33Z</time><name>PT4288</name></trkpt>
<trkpt lat="52.720454" lon="06.077506"><ele>0.4</ele><time>2022-09-06T12:17:33Z</time><name>PT4289</name></trkpt>
<trkpt lat="52.720451" lon="06.077513"><ele>0.4</ele><time>2022-09-06T12:17:34Z</time><name>PT4290</name></trkpt>
<trkpt lat="52.720451" lon="06.077522"><ele>0.6</ele><time>2022-09-06T12:17:36Z</time><name>PT4291</name></trkpt>
<trkpt lat="52.720450" lon="06.077527"><ele>0.6</ele><time>2022-09-06T12:17:36Z</time><name>PT4292</name></trkpt>
<trkpt lat="52.720450" lon="06.077534"><ele>0.5</ele><time>2022-09-06T12:17:37Z</time><name>PT4293</name></trkpt>
<trkpt lat="52.720449" lon="06.077534"><ele>0.6</ele><time>2022-09-06T12:17:39Z</time><name>PT4294</name></trkpt>
<trkpt lat="52.720450" lon="06.077541"><ele>0.7</ele><time>2022-09-06T12:17:39Z</time><name>PT4295</name></trkpt>
<trkpt lat="52.720456" lon="06.077540"><ele>0.4</ele><time>2022-09-06T12:17:40Z</time><name>PT4296</name></trkpt>
<trkpt lat="52.720463" lon="06.077541"><ele>0.4</ele><time>2022-09-06T12:17:42Z</time><name>PT4297</name></trkpt>
<trkpt lat="52.720473" lon="06.077542"><ele>0.6</ele><time>2022-09-06T12:17:42Z</time><name>PT4298</name></trkpt>
<trkpt lat="52.720479" lon="06.077542"><ele>0.8</ele><time>2022-09-06T12:17:43Z</time><name>PT4299</name></trkpt>
<trkpt lat="52.720485" lon="06.077539"><ele>0.8</ele><time>2022-09-06T12:17:45Z</time><name>PT4300</name></trkpt>
<trkpt lat="52.720491" lon="06.077538"><ele>1</ele><time>2022-09-06T12:17:45Z</time><name>PT4301</name></trkpt>
<trkpt lat="52.720496" lon="06.077540"><ele>1.2</ele><time>2022-09-06T12:17:46Z</time><name>PT4302</name></trkpt>
<trkpt lat="52.720503" lon="06.077541"><ele>1.2</ele><time>2022-09-06T12:17:48Z</time><name>PT4303</name></trkpt>
<trkpt lat="52.720510" lon="06.077541"><ele>1.2</ele><time>2022-09-06T12:17:48Z</time><name>PT4304</name></trkpt>
<trkpt lat="52.720517" lon="06.077541"><ele>1.1</ele><time>2022-09-06T12:17:49Z</time><name>PT4305</name></trkpt>
<trkpt lat="52.720525" lon="06.077542"><ele>1.2</ele><time>2022-09-06T12:17:51Z</time><name>PT4306</name></trkpt>
<trkpt lat="52.720533" lon="06.077543"><ele>1.2</ele><time>2022-09-06T12:17:51Z</time><name>PT4307</name></trkpt>
<trkpt lat="52.720541" lon="06.077544"><ele>1</ele><time>2022-09-06T12:17:52Z</time><name>PT4308</name></trkpt>
<trkpt lat="52.720550" lon="06.077544"><ele>1</ele><time>2022-09-06T12:17:54Z</time><name>PT4309</name></trkpt>
<trkpt lat="52.720559" lon="06.077543"><ele>0.9</ele><time>2022-09-06T12:17:54Z</time><name>PT4310</name></trkpt>
<trkpt lat="52.720568" lon="06.077540"><ele>0.8</ele><time>2022-09-06T12:17:55Z</time><name>PT4311</name></trkpt>
<trkpt lat="52.720576" lon="06.077537"><ele>1.1</ele><time>2022-09-06T12:17:57Z</time><name>PT4312</name></trkpt>
<trkpt lat="52.720584" lon="06.077537"><ele>0.9</ele><time>2022-09-06T12:17:57Z</time><name>PT4313</name></trkpt>
<trkpt lat="52.720598" lon="06.077538"><ele>0.9</ele><time>2022-09-06T12:17:58Z</time><name>PT4314</name></trkpt>
<trkpt lat="52.720615" lon="06.077537"><ele>0.8</ele><time>2022-09-06T12:18:00Z</time><name>PT4315</name></trkpt>
<trkpt lat="52.720630" lon="06.077538"><ele>0.7</ele><time>2022-09-06T12:18:00Z</time><name>PT4316</name></trkpt>
<trkpt lat="52.720640" lon="06.077538"><ele>0.4</ele><time>2022-09-06T12:18:01Z</time><name>PT4317</name></trkpt>
<trkpt lat="52.720643" lon="06.077538"><ele>0.5</ele><time>2022-09-06T12:18:03Z</time><name>PT4318</name></trkpt>
<trkpt lat="52.720647" lon="06.077539"><ele>0.3</ele><time>2022-09-06T12:18:03Z</time><name>PT4319</name></trkpt>
<trkpt lat="52.720654" lon="06.077539"><ele>0.4</ele><time>2022-09-06T12:18:04Z</time><name>PT4320</name></trkpt>
<trkpt lat="52.720665" lon="06.077541"><ele>0.3</ele><time>2022-09-06T12:18:06Z</time><name>PT4321</name></trkpt>
<trkpt lat="52.720681" lon="06.077542"><ele>0.1</ele><time>2022-09-06T12:18:06Z</time><name>PT4322</name></trkpt>
<trkpt lat="52.720699" lon="06.077540"><ele>0.1</ele><time>2022-09-06T12:18:07Z</time><name>PT4323</name></trkpt>
<trkpt lat="52.720714" lon="06.077539"><ele>0.1</ele><time>2022-09-06T12:18:09Z</time><name>PT4324</name></trkpt>
<trkpt lat="52.720722" lon="06.077542"><ele>0.1</ele><time>2022-09-06T12:18:09Z</time><name>PT4325</name></trkpt>
<trkpt lat="52.720725" lon="06.077543"><ele>0</ele><time>2022-09-06T12:18:10Z</time><name>PT4326</name></trkpt>
<trkpt lat="52.720730" lon="06.077542"><ele>0.1</ele><time>2022-09-06T12:18:12Z</time><name>PT4327</name></trkpt>
<trkpt lat="52.720734" lon="06.077541"><ele>0.1</ele><time>2022-09-06T12:18:12Z</time><name>PT4328</name></trkpt>
<trkpt lat="52.720746" lon="06.077545"><ele>0.3</ele><time>2022-09-06T12:18:13Z</time><name>PT4329</name></trkpt>
<trkpt lat="52.720757" lon="06.077547"><ele>0.3</ele><time>2022-09-06T12:18:15Z</time><name>PT4330</name></trkpt>
<trkpt lat="52.720762" lon="06.077547"><ele>0.3</ele><time>2022-09-06T12:18:15Z</time><name>PT4331</name></trkpt>
<trkpt lat="52.720774" lon="06.077545"><ele>0.3</ele><time>2022-09-06T12:18:16Z</time><name>PT4332</name></trkpt>
<trkpt lat="52.720783" lon="06.077543"><ele>0.3</ele><time>2022-09-06T12:18:18Z</time><name>PT4333</name></trkpt>
<trkpt lat="52.720790" lon="06.077539"><ele>0.4</ele><time>2022-09-06T12:18:18Z</time><name>PT4334</name></trkpt>
<trkpt lat="52.720795" lon="06.077537"><ele>0.5</ele><time>2022-09-06T12:18:19Z</time><name>PT4335</name></trkpt>
<trkpt lat="52.720802" lon="06.077538"><ele>0.6</ele><time>2022-09-06T12:18:21Z</time><name>PT4336</name></trkpt>
<trkpt lat="52.720813" lon="06.077542"><ele>0.5</ele><time>2022-09-06T12:18:21Z</time><name>PT4337</name></trkpt>
<trkpt lat="52.720829" lon="06.077545"><ele>0.3</ele><time>2022-09-06T12:18:22Z</time><name>PT4338</name></trkpt>
<trkpt lat="52.720848" lon="06.077543"><ele>0.3</ele><time>2022-09-06T12:18:24Z</time><name>PT4339</name></trkpt>
<trkpt lat="52.720861" lon="06.077542"><ele>0.3</ele><time>2022-09-06T12:18:24Z</time><name>PT4340</name></trkpt>
<trkpt lat="52.720871" lon="06.077542"><ele>0.3</ele><time>2022-09-06T12:18:25Z</time><name>PT4341</name></trkpt>
<trkpt lat="52.720874" lon="06.077544"><ele>0.1</ele><time>2022-09-06T12:18:27Z</time><name>PT4342</name></trkpt>
<trkpt lat="52.720877" lon="06.077546"><ele>0.2</ele><time>2022-09-06T12:18:27Z</time><name>PT4343</name></trkpt>
<trkpt lat="52.720882" lon="06.077549"><ele>0</ele><time>2022-09-06T12:18:28Z</time><name>PT4344</name></trkpt>
<trkpt lat="52.720891" lon="06.077552"><ele>0.1</ele><time>2022-09-06T12:18:30Z</time><name>PT4345</name></trkpt>
<trkpt lat="52.720908" lon="06.077557"><ele>0.1</ele><time>2022-09-06T12:18:30Z</time><name>PT4346</name></trkpt>
<trkpt lat="52.720926" lon="06.077559"><ele>0.3</ele><time>2022-09-06T12:18:31Z</time><name>PT4347</name></trkpt>
<trkpt lat="52.720942" lon="06.077562"><ele>0.4</ele><time>2022-09-06T12:18:33Z</time><name>PT4348</name></trkpt>
<trkpt lat="52.720954" lon="06.077562"><ele>0.4</ele><time>2022-09-06T12:18:33Z</time><name>PT4349</name></trkpt>
<trkpt lat="52.720958" lon="06.077563"><ele>0.3</ele><time>2022-09-06T12:18:34Z</time><name>PT4350</name></trkpt>
<trkpt lat="52.720957" lon="06.077564"><ele>0.3</ele><time>2022-09-06T12:18:36Z</time><name>PT4351</name></trkpt>
<trkpt lat="52.720960" lon="06.077563"><ele>0.3</ele><time>2022-09-06T12:18:36Z</time><name>PT4352</name></trkpt>
<trkpt lat="52.720964" lon="06.077564"><ele>0.1</ele><time>2022-09-06T12:18:37Z</time><name>PT4353</name></trkpt>
<trkpt lat="52.720974" lon="06.077562"><ele>0.3</ele><time>2022-09-06T12:18:39Z</time><name>PT4354</name></trkpt>
<trkpt lat="52.720983" lon="06.077563"><ele>0.2</ele><time>2022-09-06T12:18:39Z</time><name>PT4355</name></trkpt>
<trkpt lat="52.720989" lon="06.077564"><ele>0</ele><time>2022-09-06T12:18:40Z</time><name>PT4356</name></trkpt>
<trkpt lat="52.720994" lon="06.077564"><ele>0.2</ele><time>2022-09-06T12:18:42Z</time><name>PT4357</name></trkpt>
<trkpt lat="52.720999" lon="06.077564"><ele>0.2</ele><time>2022-09-06T12:18:42Z</time><name>PT4358</name></trkpt>
<trkpt lat="52.721007" lon="06.077565"><ele>0.2</ele><time>2022-09-06T12:18:44Z</time><name>PT4359</name></trkpt>
<trkpt lat="52.721019" lon="06.077566"><ele>0.3</ele><time>2022-09-06T12:18:45Z</time><name>PT4360</name></trkpt>
<trkpt lat="52.721034" lon="06.077569"><ele>0.3</ele><time>2022-09-06T12:18:45Z</time><name>PT4361</name></trkpt>
<trkpt lat="52.721046" lon="06.077569"><ele>0.4</ele><time>2022-09-06T12:18:47Z</time><name>PT4362</name></trkpt>
<trkpt lat="52.721055" lon="06.077564"><ele>0.3</ele><time>2022-09-06T12:18:48Z</time><name>PT4363</name></trkpt>
<trkpt lat="52.721059" lon="06.077563"><ele>0.3</ele><time>2022-09-06T12:18:48Z</time><name>PT4364</name></trkpt>
<trkpt lat="52.721053" lon="06.077569"><ele>0.2</ele><time>2022-09-06T12:18:49Z</time><name>PT4365</name></trkpt>
<trkpt lat="52.721050" lon="06.077573"><ele>0</ele><time>2022-09-06T12:18:51Z</time><name>PT4366</name></trkpt>
<trkpt lat="52.721047" lon="06.077575"><ele>0</ele><time>2022-09-06T12:18:51Z</time><name>PT4367</name></trkpt>
<trkpt lat="52.721048" lon="06.077571"><ele>0</ele><time>2022-09-06T12:18:52Z</time><name>PT4368</name></trkpt>
<trkpt lat="52.721058" lon="06.077571"><ele>0.2</ele><time>2022-09-06T12:18:54Z</time><name>PT4369</name></trkpt>
<trkpt lat="52.721070" lon="06.077571"><ele>0.1</ele><time>2022-09-06T12:18:54Z</time><name>PT4370</name></trkpt>
<trkpt lat="52.721079" lon="06.077564"><ele>0.3</ele><time>2022-09-06T12:18:55Z</time><name>PT4371</name></trkpt>
<trkpt lat="52.721085" lon="06.077562"><ele>0.2</ele><time>2022-09-06T12:18:57Z</time><name>PT4372</name></trkpt>
<trkpt lat="52.721088" lon="06.077562"><ele>0.3</ele><time>2022-09-06T12:18:57Z</time><name>PT4373</name></trkpt>
<trkpt lat="52.721097" lon="06.077564"><ele>0.2</ele><time>2022-09-06T12:18:58Z</time><name>PT4374</name></trkpt>
<trkpt lat="52.721103" lon="06.077565"><ele>0.3</ele><time>2022-09-06T12:19:00Z</time><name>PT4375</name></trkpt>
<trkpt lat="52.721106" lon="06.077566"><ele>0.3</ele><time>2022-09-06T12:19:00Z</time><name>PT4376</name></trkpt>
<trkpt lat="52.721115" lon="06.077563"><ele>0.3</ele><time>2022-09-06T12:19:01Z</time><name>PT4377</name></trkpt>
<trkpt lat="52.721127" lon="06.077562"><ele>0.3</ele><time>2022-09-06T12:19:03Z</time><name>PT4378</name></trkpt>
<trkpt lat="52.721134" lon="06.077560"><ele>0.3</ele><time>2022-09-06T12:19:03Z</time><name>PT4379</name></trkpt>
<trkpt lat="52.721139" lon="06.077557"><ele>0.3</ele><time>2022-09-06T12:19:04Z</time><name>PT4380</name></trkpt>
<trkpt lat="52.721146" lon="06.077558"><ele>0.2</ele><time>2022-09-06T12:19:06Z</time><name>PT4381</name></trkpt>
<trkpt lat="52.721154" lon="06.077560"><ele>0.2</ele><time>2022-09-06T12:19:06Z</time><name>PT4382</name></trkpt>
<trkpt lat="52.721167" lon="06.077557"><ele>0.2</ele><time>2022-09-06T12:19:07Z</time><name>PT4383</name></trkpt>
<trkpt lat="52.721176" lon="06.077553"><ele>0.1</ele><time>2022-09-06T12:19:09Z</time><name>PT4384</name></trkpt>
<trkpt lat="52.721179" lon="06.077552"><ele>0.1</ele><time>2022-09-06T12:19:09Z</time><name>PT4385</name></trkpt>
<trkpt lat="52.721181" lon="06.077552"><ele>0</ele><time>2022-09-06T12:19:10Z</time><name>PT4386</name></trkpt>
<trkpt lat="52.721181" lon="06.077549"><ele>0</ele><time>2022-09-06T12:19:12Z</time><name>PT4387</name></trkpt>
<trkpt lat="52.721181" lon="06.077550"><ele>0</ele><time>2022-09-06T12:19:12Z</time><name>PT4388</name></trkpt>
<trkpt lat="52.721179" lon="06.077547"><ele>0.2</ele><time>2022-09-06T12:19:19Z</time><name>PT4389</name></trkpt>
<trkpt lat="52.721179" lon="06.077549"><ele>0.3</ele><time>2022-09-06T12:19:21Z</time><name>PT4390</name></trkpt>
<trkpt lat="52.721182" lon="06.077547"><ele>0.3</ele><time>2022-09-06T12:19:21Z</time><name>PT4391</name></trkpt>
<trkpt lat="52.721185" lon="06.077546"><ele>0.3</ele><time>2022-09-06T12:19:22Z</time><name>PT4392</name></trkpt>
<trkpt lat="52.721180" lon="06.077548"><ele>0.3</ele><time>2022-09-06T12:19:51Z</time><name>PT4393</name></trkpt>
<trkpt lat="52.721181" lon="06.077543"><ele>0.3</ele><time>2022-09-06T12:19:52Z</time><name>PT4394</name></trkpt>
<trkpt lat="52.721180" lon="06.077546"><ele>0.2</ele><time>2022-09-06T12:19:54Z</time><name>PT4395</name></trkpt>
<trkpt lat="52.721178" lon="06.077551"><ele>0.2</ele><time>2022-09-06T12:19:54Z</time><name>PT4396</name></trkpt>
<trkpt lat="52.721177" lon="06.077549"><ele>0.2</ele><time>2022-09-06T12:19:56Z</time><name>PT4397</name></trkpt>
<trkpt lat="52.721178" lon="06.077549"><ele>0.1</ele><time>2022-09-06T12:19:57Z</time><name>PT4398</name></trkpt>
<trkpt lat="52.721180" lon="06.077551"><ele>0</ele><time>2022-09-06T12:19:57Z</time><name>PT4399</name></trkpt>
<trkpt lat="52.721179" lon="06.077547"><ele>0</ele><time>2022-09-06T12:19:58Z</time><name>PT4400</name></trkpt>
<trkpt lat="52.721180" lon="06.077548"><ele>0</ele><time>2022-09-06T12:20:00Z</time><name>PT4401</name></trkpt>
<trkpt lat="52.721180" lon="06.077549"><ele>0</ele><time>2022-09-06T12:20:00Z</time><name>PT4402</name></trkpt>
<trkpt lat="52.721181" lon="06.077550"><ele>0</ele><time>2022-09-06T12:20:02Z</time><name>PT4403</name></trkpt>
<trkpt lat="52.721182" lon="06.077551"><ele>0</ele><time>2022-09-06T12:20:03Z</time><name>PT4404</name></trkpt>
<trkpt lat="52.721182" lon="06.077554"><ele>0.2</ele><time>2022-09-06T12:20:13Z</time><name>PT4405</name></trkpt>
<trkpt lat="52.721183" lon="06.077553"><ele>0.2</ele><time>2022-09-06T12:20:14Z</time><name>PT4406</name></trkpt>
<trkpt lat="52.721183" lon="06.077552"><ele>0.2</ele><time>2022-09-06T12:20:15Z</time><name>PT4407</name></trkpt>
<trkpt lat="52.721190" lon="06.077555"><ele>0.1</ele><time>2022-09-06T12:20:36Z</time><name>PT4408</name></trkpt>
<trkpt lat="52.721205" lon="06.077553"><ele>0.1</ele><time>2022-09-06T12:20:36Z</time><name>PT4409</name></trkpt>
<trkpt lat="52.721220" lon="06.077554"><ele>0</ele><time>2022-09-06T12:20:37Z</time><name>PT4410</name></trkpt>
<trkpt lat="52.721233" lon="06.077552"><ele>0</ele><time>2022-09-06T12:20:39Z</time><name>PT4411</name></trkpt>
<trkpt lat="52.721243" lon="06.077548"><ele>0.1</ele><time>2022-09-06T12:20:39Z</time><name>PT4412</name></trkpt>
<trkpt lat="52.721250" lon="06.077544"><ele>0.1</ele><time>2022-09-06T12:20:40Z</time><name>PT4413</name></trkpt>
<trkpt lat="52.721257" lon="06.077537"><ele>0.3</ele><time>2022-09-06T12:20:42Z</time><name>PT4414</name></trkpt>
<trkpt lat="52.721264" lon="06.077534"><ele>0.2</ele><time>2022-09-06T12:20:42Z</time><name>PT4415</name></trkpt>
<trkpt lat="52.721272" lon="06.077533"><ele>0.2</ele><time>2022-09-06T12:20:43Z</time><name>PT4416</name></trkpt>
<trkpt lat="52.721283" lon="06.077534"><ele>0.2</ele><time>2022-09-06T12:20:45Z</time><name>PT4417</name></trkpt>
<trkpt lat="52.721296" lon="06.077534"><ele>0.4</ele><time>2022-09-06T12:20:45Z</time><name>PT4418</name></trkpt>
<trkpt lat="52.721312" lon="06.077537"><ele>0.3</ele><time>2022-09-06T12:20:46Z</time><name>PT4419</name></trkpt>
<trkpt lat="52.721329" lon="06.077535"><ele>0.3</ele><time>2022-09-06T12:20:48Z</time><name>PT4420</name></trkpt>
<trkpt lat="52.721346" lon="06.077534"><ele>0.3</ele><time>2022-09-06T12:20:48Z</time><name>PT4421</name></trkpt>
<trkpt lat="52.721362" lon="06.077533"><ele>0.3</ele><time>2022-09-06T12:20:49Z</time><name>PT4422</name></trkpt>
<trkpt lat="52.721375" lon="06.077532"><ele>0.1</ele><time>2022-09-06T12:20:51Z</time><name>PT4423</name></trkpt>
<trkpt lat="52.721385" lon="06.077529"><ele>0.2</ele><time>2022-09-06T12:20:51Z</time><name>PT4424</name></trkpt>
<trkpt lat="52.721393" lon="06.077527"><ele>0.4</ele><time>2022-09-06T12:20:52Z</time><name>PT4425</name></trkpt>
<trkpt lat="52.721401" lon="06.077525"><ele>0.4</ele><time>2022-09-06T12:20:54Z</time><name>PT4426</name></trkpt>
<trkpt lat="52.721409" lon="06.077525"><ele>0.3</ele><time>2022-09-06T12:20:54Z</time><name>PT4427</name></trkpt>
<trkpt lat="52.721419" lon="06.077526"><ele>0.6</ele><time>2022-09-06T12:20:55Z</time><name>PT4428</name></trkpt>
<trkpt lat="52.721429" lon="06.077526"><ele>0.5</ele><time>2022-09-06T12:20:57Z</time><name>PT4429</name></trkpt>
<trkpt lat="52.721442" lon="06.077527"><ele>0.5</ele><time>2022-09-06T12:20:57Z</time><name>PT4430</name></trkpt>
<trkpt lat="52.721454" lon="06.077520"><ele>0.6</ele><time>2022-09-06T12:20:58Z</time><name>PT4431</name></trkpt>
<trkpt lat="52.721465" lon="06.077511"><ele>0.6</ele><time>2022-09-06T12:21:00Z</time><name>PT4432</name></trkpt>
<trkpt lat="52.721476" lon="06.077507"><ele>0.5</ele><time>2022-09-06T12:21:00Z</time><name>PT4433</name></trkpt>
<trkpt lat="52.721485" lon="06.077509"><ele>0.5</ele><time>2022-09-06T12:21:01Z</time><name>PT4434</name></trkpt>
<trkpt lat="52.721495" lon="06.077511"><ele>0.4</ele><time>2022-09-06T12:21:03Z</time><name>PT4435</name></trkpt>
<trkpt lat="52.721504" lon="06.077511"><ele>0.2</ele><time>2022-09-06T12:21:03Z</time><name>PT4436</name></trkpt>
<trkpt lat="52.721511" lon="06.077509"><ele>0.4</ele><time>2022-09-06T12:21:04Z</time><name>PT4437</name></trkpt>
<trkpt lat="52.721520" lon="06.077510"><ele>0.4</ele><time>2022-09-06T12:21:06Z</time><name>PT4438</name></trkpt>
<trkpt lat="52.721535" lon="06.077508"><ele>0.4</ele><time>2022-09-06T12:21:06Z</time><name>PT4439</name></trkpt>
<trkpt lat="52.721552" lon="06.077511"><ele>0.6</ele><time>2022-09-06T12:21:07Z</time><name>PT4440</name></trkpt>
<trkpt lat="52.721568" lon="06.077506"><ele>0.6</ele><time>2022-09-06T12:21:09Z</time><name>PT4441</name></trkpt>
<trkpt lat="52.721583" lon="06.077503"><ele>0.6</ele><time>2022-09-06T12:21:09Z</time><name>PT4442</name></trkpt>
<trkpt lat="52.721595" lon="06.077504"><ele>0.7</ele><time>2022-09-06T12:21:10Z</time><name>PT4443</name></trkpt>
<trkpt lat="52.721602" lon="06.077503"><ele>0.8</ele><time>2022-09-06T12:21:12Z</time><name>PT4444</name></trkpt>
<trkpt lat="52.721607" lon="06.077499"><ele>0.7</ele><time>2022-09-06T12:21:12Z</time><name>PT4445</name></trkpt>
<trkpt lat="52.721613" lon="06.077495"><ele>0.9</ele><time>2022-09-06T12:21:13Z</time><name>PT4446</name></trkpt>
<trkpt lat="52.721623" lon="06.077497"><ele>0.8</ele><time>2022-09-06T12:21:15Z</time><name>PT4447</name></trkpt>
<trkpt lat="52.721630" lon="06.077500"><ele>0.8</ele><time>2022-09-06T12:21:15Z</time><name>PT4448</name></trkpt>
<trkpt lat="52.721643" lon="06.077500"><ele>-1</ele><time>2022-09-06T12:21:17Z</time><name>PT4449</name></trkpt>
<trkpt lat="52.721663" lon="06.077505"><ele>0.9</ele><time>2022-09-06T12:21:18Z</time><name>PT4450</name></trkpt>
<trkpt lat="52.721680" lon="06.077503"><ele>0.8</ele><time>2022-09-06T12:21:18Z</time><name>PT4451</name></trkpt>
<trkpt lat="52.721694" lon="06.077507"><ele>0.8</ele><time>2022-09-06T12:21:19Z</time><name>PT4452</name></trkpt>
<trkpt lat="52.721707" lon="06.077507"><ele>0.8</ele><time>2022-09-06T12:21:21Z</time><name>PT4453</name></trkpt>
<trkpt lat="52.721721" lon="06.077506"><ele>0.8</ele><time>2022-09-06T12:21:21Z</time><name>PT4454</name></trkpt>
<trkpt lat="52.721727" lon="06.077505"><ele>0.6</ele><time>2022-09-06T12:21:23Z</time><name>PT4455</name></trkpt>
<trkpt lat="52.721732" lon="06.077502"><ele>0.7</ele><time>2022-09-06T12:21:24Z</time><name>PT4456</name></trkpt>
<trkpt lat="52.721736" lon="06.077499"><ele>0.8</ele><time>2022-09-06T12:21:24Z</time><name>PT4457</name></trkpt>
<trkpt lat="52.721743" lon="06.077496"><ele>0.7</ele><time>2022-09-06T12:21:25Z</time><name>PT4458</name></trkpt>
<trkpt lat="52.721754" lon="06.077494"><ele>0.8</ele><time>2022-09-06T12:21:27Z</time><name>PT4459</name></trkpt>
<trkpt lat="52.721771" lon="06.077494"><ele>0.9</ele><time>2022-09-06T12:21:27Z</time><name>PT4460</name></trkpt>
<trkpt lat="52.721787" lon="06.077482"><ele>0.9</ele><time>2022-09-06T12:21:28Z</time><name>PT4461</name></trkpt>
<trkpt lat="52.721804" lon="06.077480"><ele>0.9</ele><time>2022-09-06T12:21:30Z</time><name>PT4462</name></trkpt>
<trkpt lat="52.721820" lon="06.077483"><ele>0.8</ele><time>2022-09-06T12:21:30Z</time><name>PT4463</name></trkpt>
<trkpt lat="52.721832" lon="06.077478"><ele>0.8</ele><time>2022-09-06T12:21:31Z</time><name>PT4464</name></trkpt>
<trkpt lat="52.721842" lon="06.077477"><ele>0.6</ele><time>2022-09-06T12:21:33Z</time><name>PT4465</name></trkpt>
<trkpt lat="52.721850" lon="06.077473"><ele>0.7</ele><time>2022-09-06T12:21:33Z</time><name>PT4466</name></trkpt>
<trkpt lat="52.721855" lon="06.077474"><ele>0.6</ele><time>2022-09-06T12:21:35Z</time><name>PT4467</name></trkpt>
<trkpt lat="52.721861" lon="06.077474"><ele>0.6</ele><time>2022-09-06T12:21:36Z</time><name>PT4468</name></trkpt>
<trkpt lat="52.721868" lon="06.077477"><ele>0.6</ele><time>2022-09-06T12:21:36Z</time><name>PT4469</name></trkpt>
<trkpt lat="52.721877" lon="06.077485"><ele>0.7</ele><time>2022-09-06T12:21:38Z</time><name>PT4470</name></trkpt>
<trkpt lat="52.721888" lon="06.077484"><ele>0.6</ele><time>2022-09-06T12:21:39Z</time><name>PT4471</name></trkpt>
<trkpt lat="52.721894" lon="06.077485"><ele>0.6</ele><time>2022-09-06T12:21:39Z</time><name>PT4472</name></trkpt>
<trkpt lat="52.721901" lon="06.077492"><ele>0.5</ele><time>2022-09-06T12:21:40Z</time><name>PT4473</name></trkpt>
<trkpt lat="52.721910" lon="06.077494"><ele>0.3</ele><time>2022-09-06T12:21:42Z</time><name>PT4474</name></trkpt>
<trkpt lat="52.721919" lon="06.077493"><ele>0.3</ele><time>2022-09-06T12:21:42Z</time><name>PT4475</name></trkpt>
<trkpt lat="52.721925" lon="06.077492"><ele>0.1</ele><time>2022-09-06T12:21:43Z</time><name>PT4476</name></trkpt>
<trkpt lat="52.721933" lon="06.077492"><ele>0.3</ele><time>2022-09-06T12:21:45Z</time><name>PT4477</name></trkpt>
<trkpt lat="52.721943" lon="06.077493"><ele>0.5</ele><time>2022-09-06T12:21:45Z</time><name>PT4478</name></trkpt>
<trkpt lat="52.721954" lon="06.077494"><ele>0.7</ele><time>2022-09-06T12:21:46Z</time><name>PT4479</name></trkpt>
<trkpt lat="52.721960" lon="06.077492"><ele>0.8</ele><time>2022-09-06T12:21:48Z</time><name>PT4480</name></trkpt>
<trkpt lat="52.721965" lon="06.077493"><ele>-1</ele><time>2022-09-06T12:21:48Z</time><name>PT4481</name></trkpt>
<trkpt lat="52.721975" lon="06.077496"><ele>-1.2</ele><time>2022-09-06T12:21:49Z</time><name>PT4482</name></trkpt>
<trkpt lat="52.721983" lon="06.077497"><ele>0.8</ele><time>2022-09-06T12:21:51Z</time><name>PT4483</name></trkpt>
<trkpt lat="52.721989" lon="06.077499"><ele>0.7</ele><time>2022-09-06T12:21:51Z</time><name>PT4484</name></trkpt>
<trkpt lat="52.721998" lon="06.077501"><ele>0.7</ele><time>2022-09-06T12:21:52Z</time><name>PT4485</name></trkpt>
<trkpt lat="52.722009" lon="06.077500"><ele>0.7</ele><time>2022-09-06T12:21:54Z</time><name>PT4486</name></trkpt>
<trkpt lat="52.722015" lon="06.077501"><ele>0.7</ele><time>2022-09-06T12:21:54Z</time><name>PT4487</name></trkpt>
<trkpt lat="52.722019" lon="06.077503"><ele>0.6</ele><time>2022-09-06T12:21:55Z</time><name>PT4488</name></trkpt>
<trkpt lat="52.722026" lon="06.077505"><ele>0.6</ele><time>2022-09-06T12:21:57Z</time><name>PT4489</name></trkpt>
<trkpt lat="52.722038" lon="06.077506"><ele>0.6</ele><time>2022-09-06T12:21:57Z</time><name>PT4490</name></trkpt>
<trkpt lat="52.722050" lon="06.077506"><ele>0.5</ele><time>2022-09-06T12:21:58Z</time><name>PT4491</name></trkpt>
<trkpt lat="52.722058" lon="06.077506"><ele>0.4</ele><time>2022-09-06T12:22:00Z</time><name>PT4492</name></trkpt>
<trkpt lat="52.722066" lon="06.077508"><ele>0.5</ele><time>2022-09-06T12:22:00Z</time><name>PT4493</name></trkpt>
<trkpt lat="52.722074" lon="06.077512"><ele>0.4</ele><time>2022-09-06T12:22:01Z</time><name>PT4494</name></trkpt>
<trkpt lat="52.722081" lon="06.077514"><ele>0.4</ele><time>2022-09-06T12:22:03Z</time><name>PT4495</name></trkpt>
<trkpt lat="52.722089" lon="06.077513"><ele>0.3</ele><time>2022-09-06T12:22:03Z</time><name>PT4496</name></trkpt>
<trkpt lat="52.722098" lon="06.077512"><ele>0.4</ele><time>2022-09-06T12:22:04Z</time><name>PT4497</name></trkpt>
<trkpt lat="52.722105" lon="06.077512"><ele>0.3</ele><time>2022-09-06T12:22:06Z</time><name>PT4498</name></trkpt>
<trkpt lat="52.722111" lon="06.077514"><ele>0.4</ele><time>2022-09-06T12:22:06Z</time><name>PT4499</name></trkpt>
<trkpt lat="52.722119" lon="06.077515"><ele>0.5</ele><time>2022-09-06T12:22:07Z</time><name>PT4500</name></trkpt>
<trkpt lat="52.722125" lon="06.077515"><ele>0.6</ele><time>2022-09-06T12:22:09Z</time><name>PT4501</name></trkpt>
<trkpt lat="52.722130" lon="06.077517"><ele>0.6</ele><time>2022-09-06T12:22:09Z</time><name>PT4502</name></trkpt>
<trkpt lat="52.722136" lon="06.077521"><ele>0.7</ele><time>2022-09-06T12:22:10Z</time><name>PT4503</name></trkpt>
<trkpt lat="52.722142" lon="06.077530"><ele>0.7</ele><time>2022-09-06T12:22:12Z</time><name>PT4504</name></trkpt>
<trkpt lat="52.722143" lon="06.077536"><ele>0.8</ele><time>2022-09-06T12:22:12Z</time><name>PT4505</name></trkpt>
<trkpt lat="52.722142" lon="06.077544"><ele>0.9</ele><time>2022-09-06T12:22:13Z</time><name>PT4506</name></trkpt>
<trkpt lat="52.722143" lon="06.077550"><ele>0.8</ele><time>2022-09-06T12:22:15Z</time><name>PT4507</name></trkpt>
<trkpt lat="52.722141" lon="06.077556"><ele>0.6</ele><time>2022-09-06T12:22:15Z</time><name>PT4508</name></trkpt>
<trkpt lat="52.722142" lon="06.077561"><ele>0.6</ele><time>2022-09-06T12:22:16Z</time><name>PT4509</name></trkpt>
<trkpt lat="52.722146" lon="06.077567"><ele>1.1</ele><time>2022-09-06T12:22:24Z</time><name>PT4510</name></trkpt>
<trkpt lat="52.722154" lon="06.077573"><ele>1.3</ele><time>2022-09-06T12:22:25Z</time><name>PT4511</name></trkpt>
<trkpt lat="52.722163" lon="06.077574"><ele>1.5</ele><time>2022-09-06T12:22:27Z</time><name>PT4512</name></trkpt>
<trkpt lat="52.722175" lon="06.077577"><ele>1.6</ele><time>2022-09-06T12:22:27Z</time><name>PT4513</name></trkpt>
<trkpt lat="52.722188" lon="06.077579"><ele>1.7</ele><time>2022-09-06T12:22:28Z</time><name>PT4514</name></trkpt>
<trkpt lat="52.722199" lon="06.077581"><ele>1.6</ele><time>2022-09-06T12:22:30Z</time><name>PT4515</name></trkpt>
<trkpt lat="52.722210" lon="06.077583"><ele>1.4</ele><time>2022-09-06T12:22:30Z</time><name>PT4516</name></trkpt>
<trkpt lat="52.722220" lon="06.077586"><ele>1.4</ele><time>2022-09-06T12:22:31Z</time><name>PT4517</name></trkpt>
<trkpt lat="52.722230" lon="06.077585"><ele>1.5</ele><time>2022-09-06T12:22:33Z</time><name>PT4518</name></trkpt>
<trkpt lat="52.722241" lon="06.077584"><ele>1.4</ele><time>2022-09-06T12:22:33Z</time><name>PT4519</name></trkpt>
<trkpt lat="52.722252" lon="06.077585"><ele>1.4</ele><time>2022-09-06T12:22:34Z</time><name>PT4520</name></trkpt>
<trkpt lat="52.722263" lon="06.077583"><ele>1.7</ele><time>2022-09-06T12:22:36Z</time><name>PT4521</name></trkpt>
<trkpt lat="52.722273" lon="06.077583"><ele>1.8</ele><time>2022-09-06T12:22:36Z</time><name>PT4522</name></trkpt>
<trkpt lat="52.722282" lon="06.077583"><ele>1.8</ele><time>2022-09-06T12:22:37Z</time><name>PT4523</name></trkpt>
<trkpt lat="52.722291" lon="06.077585"><ele>1.9</ele><time>2022-09-06T12:22:39Z</time><name>PT4524</name></trkpt>
<trkpt lat="52.722294" lon="06.077584"><ele>2</ele><time>2022-09-06T12:22:39Z</time><name>PT4525</name></trkpt>
<trkpt lat="52.722294" lon="06.077584"><ele>1.8</ele><time>2022-09-06T12:22:40Z</time><name>PT4526</name></trkpt>
<trkpt lat="52.722295" lon="06.077584"><ele>1.8</ele><time>2022-09-06T12:22:42Z</time><name>PT4527</name></trkpt>
<trkpt lat="52.722299" lon="06.077583"><ele>1.8</ele><time>2022-09-06T12:22:42Z</time><name>PT4528</name></trkpt>
<trkpt lat="52.722307" lon="06.077583"><ele>1.9</ele><time>2022-09-06T12:22:43Z</time><name>PT4529</name></trkpt>
<trkpt lat="52.722317" lon="06.077582"><ele>1.9</ele><time>2022-09-06T12:22:45Z</time><name>PT4530</name></trkpt>
<trkpt lat="52.722326" lon="06.077581"><ele>2</ele><time>2022-09-06T12:22:45Z</time><name>PT4531</name></trkpt>
<trkpt lat="52.722337" lon="06.077580"><ele>1.9</ele><time>2022-09-06T12:22:46Z</time><name>PT4532</name></trkpt>
<trkpt lat="52.722347" lon="06.077580"><ele>1.7</ele><time>2022-09-06T12:22:48Z</time><name>PT4533</name></trkpt>
<trkpt lat="52.722356" lon="06.077581"><ele>1.7</ele><time>2022-09-06T12:22:48Z</time><name>PT4534</name></trkpt>
<trkpt lat="52.722366" lon="06.077583"><ele>1.6</ele><time>2022-09-06T12:22:49Z</time><name>PT4535</name></trkpt>
<trkpt lat="52.722376" lon="06.077583"><ele>1.5</ele><time>2022-09-06T12:22:51Z</time><name>PT4536</name></trkpt>
<trkpt lat="52.722385" lon="06.077582"><ele>1.5</ele><time>2022-09-06T12:22:51Z</time><name>PT4537</name></trkpt>
<trkpt lat="52.722392" lon="06.077580"><ele>1.5</ele><time>2022-09-06T12:22:52Z</time><name>PT4538</name></trkpt>
<trkpt lat="52.722398" lon="06.077575"><ele>1.5</ele><time>2022-09-06T12:22:54Z</time><name>PT4539</name></trkpt>
<trkpt lat="52.722399" lon="06.077569"><ele>1.4</ele><time>2022-09-06T12:22:54Z</time><name>PT4540</name></trkpt>
<trkpt lat="52.722398" lon="06.077567"><ele>1.3</ele><time>2022-09-06T12:22:55Z</time><name>PT4541</name></trkpt>
<trkpt lat="52.722398" lon="06.077564"><ele>1.5</ele><time>2022-09-06T12:22:57Z</time><name>PT4542</name></trkpt>
<trkpt lat="52.722399" lon="06.077560"><ele>1.5</ele><time>2022-09-06T12:22:57Z</time><name>PT4543</name></trkpt>
<trkpt lat="52.722400" lon="06.077556"><ele>1.4</ele><time>2022-09-06T12:22:58Z</time><name>PT4544</name></trkpt>
<trkpt lat="52.722400" lon="06.077554"><ele>1.3</ele><time>2022-09-06T12:23:00Z</time><name>PT4545</name></trkpt>
<trkpt lat="52.722401" lon="06.077551"><ele>1.2</ele><time>2022-09-06T12:23:00Z</time><name>PT4546</name></trkpt>
<trkpt lat="52.722402" lon="06.077546"><ele>0.8</ele><time>2022-09-06T12:23:01Z</time><name>PT4547</name></trkpt>
<trkpt lat="52.722405" lon="06.077543"><ele>0.6</ele><time>2022-09-06T12:23:10Z</time><name>PT4548</name></trkpt>
<trkpt lat="52.722415" lon="06.077537"><ele>0.6</ele><time>2022-09-06T12:23:12Z</time><name>PT4549</name></trkpt>
<trkpt lat="52.722424" lon="06.077531"><ele>0.4</ele><time>2022-09-06T12:23:12Z</time><name>PT4550</name></trkpt>
<trkpt lat="52.722435" lon="06.077524"><ele>0.5</ele><time>2022-09-06T12:23:13Z</time><name>PT4551</name></trkpt>
<trkpt lat="52.722444" lon="06.077521"><ele>0.5</ele><time>2022-09-06T12:23:15Z</time><name>PT4552</name></trkpt>
<trkpt lat="52.722449" lon="06.077517"><ele>0.5</ele><time>2022-09-06T12:23:15Z</time><name>PT4553</name></trkpt>
<trkpt lat="52.722447" lon="06.077515"><ele>0.5</ele><time>2022-09-06T12:23:16Z</time><name>PT4554</name></trkpt>
<trkpt lat="52.722452" lon="06.077515"><ele>0.4</ele><time>2022-09-06T12:23:18Z</time><name>PT4555</name></trkpt>
<trkpt lat="52.722459" lon="06.077512"><ele>0.4</ele><time>2022-09-06T12:23:18Z</time><name>PT4556</name></trkpt>
<trkpt lat="52.722470" lon="06.077508"><ele>0.4</ele><time>2022-09-06T12:23:19Z</time><name>PT4557</name></trkpt>
<trkpt lat="52.722481" lon="06.077505"><ele>0.5</ele><time>2022-09-06T12:23:21Z</time><name>PT4558</name></trkpt>
<trkpt lat="52.722492" lon="06.077503"><ele>0.5</ele><time>2022-09-06T12:23:21Z</time><name>PT4559</name></trkpt>
<trkpt lat="52.722502" lon="06.077499"><ele>0.6</ele><time>2022-09-06T12:23:22Z</time><name>PT4560</name></trkpt>
<trkpt lat="52.722513" lon="06.077495"><ele>0.4</ele><time>2022-09-06T12:23:24Z</time><name>PT4561</name></trkpt>
<trkpt lat="52.722524" lon="06.077490"><ele>0.4</ele><time>2022-09-06T12:23:24Z</time><name>PT4562</name></trkpt>
<trkpt lat="52.722534" lon="06.077487"><ele>0.4</ele><time>2022-09-06T12:23:25Z</time><name>PT4563</name></trkpt>
<trkpt lat="52.722544" lon="06.077483"><ele>0.4</ele><time>2022-09-06T12:23:27Z</time><name>PT4564</name></trkpt>
<trkpt lat="52.722555" lon="06.077480"><ele>0.3</ele><time>2022-09-06T12:23:27Z</time><name>PT4565</name></trkpt>
<trkpt lat="52.722567" lon="06.077478"><ele>0.5</ele><time>2022-09-06T12:23:28Z</time><name>PT4566</name></trkpt>
<trkpt lat="52.722577" lon="06.077477"><ele>0.5</ele><time>2022-09-06T12:23:30Z</time><name>PT4567</name></trkpt>
<trkpt lat="52.722589" lon="06.077475"><ele>0.5</ele><time>2022-09-06T12:23:30Z</time><name>PT4568</name></trkpt>
<trkpt lat="52.722599" lon="06.077475"><ele>0.6</ele><time>2022-09-06T12:23:31Z</time><name>PT4569</name></trkpt>
<trkpt lat="52.722611" lon="06.077473"><ele>0.5</ele><time>2022-09-06T12:23:33Z</time><name>PT4570</name></trkpt>
<trkpt lat="52.722621" lon="06.077470"><ele>0.5</ele><time>2022-09-06T12:23:33Z</time><name>PT4571</name></trkpt>
<trkpt lat="52.722632" lon="06.077466"><ele>0.4</ele><time>2022-09-06T12:23:34Z</time><name>PT4572</name></trkpt>
<trkpt lat="52.722643" lon="06.077464"><ele>0.4</ele><time>2022-09-06T12:23:36Z</time><name>PT4573</name></trkpt>
<trkpt lat="52.722654" lon="06.077462"><ele>0.4</ele><time>2022-09-06T12:23:36Z</time><name>PT4574</name></trkpt>
<trkpt lat="52.722665" lon="06.077460"><ele>0.6</ele><time>2022-09-06T12:23:37Z</time><name>PT4575</name></trkpt>
<trkpt lat="52.722675" lon="06.077459"><ele>0.5</ele><time>2022-09-06T12:23:39Z</time><name>PT4576</name></trkpt>
<trkpt lat="52.722687" lon="06.077460"><ele>0.6</ele><time>2022-09-06T12:23:39Z</time><name>PT4577</name></trkpt>
<trkpt lat="52.722700" lon="06.077460"><ele>0.6</ele><time>2022-09-06T12:23:40Z</time><name>PT4578</name></trkpt>
<trkpt lat="52.722712" lon="06.077461"><ele>0.6</ele><time>2022-09-06T12:23:42Z</time><name>PT4579</name></trkpt>
<trkpt lat="52.722724" lon="06.077460"><ele>0.4</ele><time>2022-09-06T12:23:42Z</time><name>PT4580</name></trkpt>
<trkpt lat="52.722736" lon="06.077457"><ele>0.2</ele><time>2022-09-06T12:23:43Z</time><name>PT4581</name></trkpt>
<trkpt lat="52.722748" lon="06.077454"><ele>0.3</ele><time>2022-09-06T12:23:45Z</time><name>PT4582</name></trkpt>
<trkpt lat="52.722761" lon="06.077453"><ele>0.2</ele><time>2022-09-06T12:23:45Z</time><name>PT4583</name></trkpt>
<trkpt lat="52.722771" lon="06.077451"><ele>0.2</ele><time>2022-09-06T12:23:46Z</time><name>PT4584</name></trkpt>
<trkpt lat="52.722781" lon="06.077449"><ele>0.3</ele><time>2022-09-06T12:23:48Z</time><name>PT4585</name></trkpt>
<trkpt lat="52.722794" lon="06.077449"><ele>0.4</ele><time>2022-09-06T12:23:48Z</time><name>PT4586</name></trkpt>
<trkpt lat="52.722807" lon="06.077451"><ele>0.4</ele><time>2022-09-06T12:23:49Z</time><name>PT4587</name></trkpt>
<trkpt lat="52.722820" lon="06.077453"><ele>0.3</ele><time>2022-09-06T12:23:51Z</time><name>PT4588</name></trkpt>
<trkpt lat="52.722831" lon="06.077453"><ele>0.3</ele><time>2022-09-06T12:23:51Z</time><name>PT4589</name></trkpt>
<trkpt lat="52.722841" lon="06.077452"><ele>0.2</ele><time>2022-09-06T12:23:52Z</time><name>PT4590</name></trkpt>
<trkpt lat="52.722852" lon="06.077450"><ele>0.1</ele><time>2022-09-06T12:23:54Z</time><name>PT4591</name></trkpt>
<trkpt lat="52.722864" lon="06.077449"><ele>0.1</ele><time>2022-09-06T12:23:54Z</time><name>PT4592</name></trkpt>
<trkpt lat="52.722878" lon="06.077447"><ele>0.2</ele><time>2022-09-06T12:23:55Z</time><name>PT4593</name></trkpt>
<trkpt lat="52.722889" lon="06.077445"><ele>0.1</ele><time>2022-09-06T12:23:57Z</time><name>PT4594</name></trkpt>
<trkpt lat="52.722901" lon="06.077442"><ele>0.2</ele><time>2022-09-06T12:23:57Z</time><name>PT4595</name></trkpt>
<trkpt lat="52.722914" lon="06.077439"><ele>0.3</ele><time>2022-09-06T12:23:58Z</time><name>PT4596</name></trkpt>
<trkpt lat="52.722924" lon="06.077438"><ele>0.3</ele><time>2022-09-06T12:24:00Z</time><name>PT4597</name></trkpt>
<trkpt lat="52.722935" lon="06.077438"><ele>0.3</ele><time>2022-09-06T12:24:00Z</time><name>PT4598</name></trkpt>
<trkpt lat="52.722945" lon="06.077438"><ele>0.2</ele><time>2022-09-06T12:24:01Z</time><name>PT4599</name></trkpt>
<trkpt lat="52.722959" lon="06.077438"><ele>0.1</ele><time>2022-09-06T12:24:03Z</time><name>PT4600</name></trkpt>
<trkpt lat="52.722972" lon="06.077438"><ele>0.1</ele><time>2022-09-06T12:24:03Z</time><name>PT4601</name></trkpt>
<trkpt lat="52.722980" lon="06.077438"><ele>0.1</ele><time>2022-09-06T12:24:04Z</time><name>PT4602</name></trkpt>
<trkpt lat="52.722989" lon="06.077438"><ele>0.3</ele><time>2022-09-06T12:24:06Z</time><name>PT4603</name></trkpt>
<trkpt lat="52.722999" lon="06.077435"><ele>0.4</ele><time>2022-09-06T12:24:06Z</time><name>PT4604</name></trkpt>
<trkpt lat="52.723008" lon="06.077433"><ele>0.3</ele><time>2022-09-06T12:24:08Z</time><name>PT4605</name></trkpt>
<trkpt lat="52.723018" lon="06.077432"><ele>0.4</ele><time>2022-09-06T12:24:09Z</time><name>PT4606</name></trkpt>
<trkpt lat="52.723028" lon="06.077433"><ele>0.4</ele><time>2022-09-06T12:24:09Z</time><name>PT4607</name></trkpt>
<trkpt lat="52.723039" lon="06.077432"><ele>0.2</ele><time>2022-09-06T12:24:10Z</time><name>PT4608</name></trkpt>
<trkpt lat="52.723051" lon="06.077431"><ele>0.1</ele><time>2022-09-06T12:24:12Z</time><name>PT4609</name></trkpt>
<trkpt lat="52.723063" lon="06.077430"><ele>0.1</ele><time>2022-09-06T12:24:12Z</time><name>PT4610</name></trkpt>
<trkpt lat="52.723074" lon="06.077430"><ele>0.1</ele><time>2022-09-06T12:24:13Z</time><name>PT4611</name></trkpt>
<trkpt lat="52.723085" lon="06.077430"><ele>0.1</ele><time>2022-09-06T12:24:15Z</time><name>PT4612</name></trkpt>
<trkpt lat="52.723095" lon="06.077430"><ele>0.1</ele><time>2022-09-06T12:24:15Z</time><name>PT4613</name></trkpt>
<trkpt lat="52.723107" lon="06.077430"><ele>0.3</ele><time>2022-09-06T12:24:17Z</time><name>PT4614</name></trkpt>
<trkpt lat="52.723118" lon="06.077428"><ele>0.1</ele><time>2022-09-06T12:24:18Z</time><name>PT4615</name></trkpt>
<trkpt lat="52.723130" lon="06.077426"><ele>0.1</ele><time>2022-09-06T12:24:18Z</time><name>PT4616</name></trkpt>
<trkpt lat="52.723142" lon="06.077424"><ele>0.2</ele><time>2022-09-06T12:24:19Z</time><name>PT4617</name></trkpt>
<trkpt lat="52.723154" lon="06.077421"><ele>0.2</ele><time>2022-09-06T12:24:21Z</time><name>PT4618</name></trkpt>
<trkpt lat="52.723163" lon="06.077420"><ele>0.1</ele><time>2022-09-06T12:24:21Z</time><name>PT4619</name></trkpt>
<trkpt lat="52.723174" lon="06.077418"><ele>0.3</ele><time>2022-09-06T12:24:22Z</time><name>PT4620</name></trkpt>
<trkpt lat="52.723184" lon="06.077419"><ele>0.1</ele><time>2022-09-06T12:24:24Z</time><name>PT4621</name></trkpt>
<trkpt lat="52.723194" lon="06.077420"><ele>0</ele><time>2022-09-06T12:24:24Z</time><name>PT4622</name></trkpt>
<trkpt lat="52.723204" lon="06.077420"><ele>0.1</ele><time>2022-09-06T12:24:25Z</time><name>PT4623</name></trkpt>
<trkpt lat="52.723215" lon="06.077421"><ele>0.1</ele><time>2022-09-06T12:24:27Z</time><name>PT4624</name></trkpt>
<trkpt lat="52.723225" lon="06.077422"><ele>0</ele><time>2022-09-06T12:24:27Z</time><name>PT4625</name></trkpt>
<trkpt lat="52.723230" lon="06.077419"><ele>0</ele><time>2022-09-06T12:24:28Z</time><name>PT4626</name></trkpt>
<trkpt lat="52.723240" lon="06.077416"><ele>0</ele><time>2022-09-06T12:24:30Z</time><name>PT4627</name></trkpt>
<trkpt lat="52.723253" lon="06.077413"><ele>0</ele><time>2022-09-06T12:24:30Z</time><name>PT4628</name></trkpt>
<trkpt lat="52.723265" lon="06.077410"><ele>0.1</ele><time>2022-09-06T12:24:31Z</time><name>PT4629</name></trkpt>
<trkpt lat="52.723276" lon="06.077411"><ele>0.1</ele><time>2022-09-06T12:24:33Z</time><name>PT4630</name></trkpt>
<trkpt lat="52.723287" lon="06.077411"><ele>0</ele><time>2022-09-06T12:24:33Z</time><name>PT4631</name></trkpt>
<trkpt lat="52.723297" lon="06.077411"><ele>0</ele><time>2022-09-06T12:24:34Z</time><name>PT4632</name></trkpt>
<trkpt lat="52.723309" lon="06.077411"><ele>0</ele><time>2022-09-06T12:24:36Z</time><name>PT4633</name></trkpt>
<trkpt lat="52.723321" lon="06.077410"><ele>0</ele><time>2022-09-06T12:24:36Z</time><name>PT4634</name></trkpt>
<trkpt lat="52.723332" lon="06.077410"><ele>0.1</ele><time>2022-09-06T12:24:37Z</time><name>PT4635</name></trkpt>
<trkpt lat="52.723343" lon="06.077409"><ele>0.1</ele><time>2022-09-06T12:24:39Z</time><name>PT4636</name></trkpt>
<trkpt lat="52.723354" lon="06.077407"><ele>0.3</ele><time>2022-09-06T12:24:39Z</time><name>PT4637</name></trkpt>
<trkpt lat="52.723365" lon="06.077404"><ele>0.3</ele><time>2022-09-06T12:24:40Z</time><name>PT4638</name></trkpt>
<trkpt lat="52.723376" lon="06.077402"><ele>0.3</ele><time>2022-09-06T12:24:42Z</time><name>PT4639</name></trkpt>
<trkpt lat="52.723384" lon="06.077402"><ele>0.3</ele><time>2022-09-06T12:24:42Z</time><name>PT4640</name></trkpt>
<trkpt lat="52.723393" lon="06.077402"><ele>0.3</ele><time>2022-09-06T12:24:43Z</time><name>PT4641</name></trkpt>
<trkpt lat="52.723401" lon="06.077402"><ele>0.3</ele><time>2022-09-06T12:24:45Z</time><name>PT4642</name></trkpt>
<trkpt lat="52.723410" lon="06.077399"><ele>0.3</ele><time>2022-09-06T12:24:45Z</time><name>PT4643</name></trkpt>
<trkpt lat="52.723415" lon="06.077399"><ele>0.3</ele><time>2022-09-06T12:24:46Z</time><name>PT4644</name></trkpt>
<trkpt lat="52.723421" lon="06.077398"><ele>0.4</ele><time>2022-09-06T12:24:48Z</time><name>PT4645</name></trkpt>
<trkpt lat="52.723429" lon="06.077397"><ele>0.3</ele><time>2022-09-06T12:24:48Z</time><name>PT4646</name></trkpt>
<trkpt lat="52.723437" lon="06.077396"><ele>0.1</ele><time>2022-09-06T12:24:49Z</time><name>PT4647</name></trkpt>
<trkpt lat="52.723445" lon="06.077396"><ele>0</ele><time>2022-09-06T12:24:51Z</time><name>PT4648</name></trkpt>
<trkpt lat="52.723453" lon="06.077394"><ele>0.2</ele><time>2022-09-06T12:24:51Z</time><name>PT4649</name></trkpt>
<trkpt lat="52.723458" lon="06.077393"><ele>0</ele><time>2022-09-06T12:24:52Z</time><name>PT4650</name></trkpt>
<trkpt lat="52.723467" lon="06.077391"><ele>0</ele><time>2022-09-06T12:24:54Z</time><name>PT4651</name></trkpt>
<trkpt lat="52.723475" lon="06.077389"><ele>0.1</ele><time>2022-09-06T12:24:54Z</time><name>PT4652</name></trkpt>
<trkpt lat="52.723481" lon="06.077387"><ele>0.1</ele><time>2022-09-06T12:24:55Z</time><name>PT4653</name></trkpt>
<trkpt lat="52.723487" lon="06.077388"><ele>0</ele><time>2022-09-06T12:24:57Z</time><name>PT4654</name></trkpt>
<trkpt lat="52.723491" lon="06.077386"><ele>0</ele><time>2022-09-06T12:24:57Z</time><name>PT4655</name></trkpt>
<trkpt lat="52.723487" lon="06.077383"><ele>0.2</ele><time>2022-09-06T12:24:58Z</time><name>PT4656</name></trkpt>
<trkpt lat="52.723487" lon="06.077384"><ele>0.3</ele><time>2022-09-06T12:25:00Z</time><name>PT4657</name></trkpt>
<trkpt lat="52.723492" lon="06.077381"><ele>0.3</ele><time>2022-09-06T12:25:00Z</time><name>PT4658</name></trkpt>
<trkpt lat="52.723497" lon="06.077379"><ele>0.3</ele><time>2022-09-06T12:25:01Z</time><name>PT4659</name></trkpt>
<trkpt lat="52.723503" lon="06.077376"><ele>0.3</ele><time>2022-09-06T12:25:03Z</time><name>PT4660</name></trkpt>
<trkpt lat="52.723509" lon="06.077371"><ele>0.3</ele><time>2022-09-06T12:25:03Z</time><name>PT4661</name></trkpt>
<trkpt lat="52.723517" lon="06.077368"><ele>0.2</ele><time>2022-09-06T12:25:04Z</time><name>PT4662</name></trkpt>
<trkpt lat="52.723522" lon="06.077366"><ele>0.3</ele><time>2022-09-06T12:25:06Z</time><name>PT4663</name></trkpt>
<trkpt lat="52.723529" lon="06.077362"><ele>0.4</ele><time>2022-09-06T12:25:06Z</time><name>PT4664</name></trkpt>
<trkpt lat="52.723536" lon="06.077358"><ele>0.3</ele><time>2022-09-06T12:25:07Z</time><name>PT4665</name></trkpt>
<trkpt lat="52.723541" lon="06.077355"><ele>0.3</ele><time>2022-09-06T12:25:09Z</time><name>PT4666</name></trkpt>
<trkpt lat="52.723547" lon="06.077352"><ele>0.4</ele><time>2022-09-06T12:25:09Z</time><name>PT4667</name></trkpt>
<trkpt lat="52.723552" lon="06.077349"><ele>0.3</ele><time>2022-09-06T12:25:10Z</time><name>PT4668</name></trkpt>
<trkpt lat="52.723556" lon="06.077346"><ele>0.3</ele><time>2022-09-06T12:25:12Z</time><name>PT4669</name></trkpt>
<trkpt lat="52.723561" lon="06.077342"><ele>0.3</ele><time>2022-09-06T12:25:12Z</time><name>PT4670</name></trkpt>
<trkpt lat="52.723560" lon="06.077340"><ele>0.3</ele><time>2022-09-06T12:25:15Z</time><name>PT4671</name></trkpt>
<trkpt lat="52.723561" lon="06.077339"><ele>0.3</ele><time>2022-09-06T12:25:15Z</time><name>PT4672</name></trkpt>
<trkpt lat="52.723562" lon="06.077335"><ele>0.9</ele><time>2022-09-06T12:25:24Z</time><name>PT4673</name></trkpt>
<trkpt lat="52.723567" lon="06.077322"><ele>0.9</ele><time>2022-09-06T12:25:25Z</time><name>PT4674</name></trkpt>
<trkpt lat="52.723573" lon="06.077310"><ele>1</ele><time>2022-09-06T12:25:27Z</time><name>PT4675</name></trkpt>
<trkpt lat="52.723578" lon="06.077302"><ele>1</ele><time>2022-09-06T12:25:27Z</time><name>PT4676</name></trkpt>
<trkpt lat="52.723582" lon="06.077293"><ele>1</ele><time>2022-09-06T12:25:28Z</time><name>PT4677</name></trkpt>
<trkpt lat="52.723584" lon="06.077281"><ele>0.9</ele><time>2022-09-06T12:25:30Z</time><name>PT4678</name></trkpt>
<trkpt lat="52.723587" lon="06.077273"><ele>0.9</ele><time>2022-09-06T12:25:30Z</time><name>PT4679</name></trkpt>
<trkpt lat="52.723591" lon="06.077263"><ele>0.9</ele><time>2022-09-06T12:25:31Z</time><name>PT4680</name></trkpt>
<trkpt lat="52.723595" lon="06.077254"><ele>0.9</ele><time>2022-09-06T12:25:33Z</time><name>PT4681</name></trkpt>
<trkpt lat="52.723597" lon="06.077244"><ele>0.9</ele><time>2022-09-06T12:25:33Z</time><name>PT4682</name></trkpt>
<trkpt lat="52.723598" lon="06.077230"><ele>0.8</ele><time>2022-09-06T12:25:34Z</time><name>PT4683</name></trkpt>
<trkpt lat="52.723596" lon="06.077216"><ele>0.9</ele><time>2022-09-06T12:25:36Z</time><name>PT4684</name></trkpt>
<trkpt lat="52.723596" lon="06.077201"><ele>0.7</ele><time>2022-09-06T12:25:36Z</time><name>PT4685</name></trkpt>
<trkpt lat="52.723596" lon="06.077182"><ele>0.8</ele><time>2022-09-06T12:25:37Z</time><name>PT4686</name></trkpt>
<trkpt lat="52.723597" lon="06.077167"><ele>0.8</ele><time>2022-09-06T12:25:39Z</time><name>PT4687</name></trkpt>
<trkpt lat="52.723597" lon="06.077151"><ele>0.8</ele><time>2022-09-06T12:25:39Z</time><name>PT4688</name></trkpt>
<trkpt lat="52.723598" lon="06.077137"><ele>0.6</ele><time>2022-09-06T12:25:40Z</time><name>PT4689</name></trkpt>
<trkpt lat="52.723597" lon="06.077123"><ele>0.8</ele><time>2022-09-06T12:25:42Z</time><name>PT4690</name></trkpt>
<trkpt lat="52.723596" lon="06.077104"><ele>0.8</ele><time>2022-09-06T12:25:42Z</time><name>PT4691</name></trkpt>
<trkpt lat="52.723594" lon="06.077086"><ele>0.8</ele><time>2022-09-06T12:25:43Z</time><name>PT4692</name></trkpt>
<trkpt lat="52.723594" lon="06.077075"><ele>0.8</ele><time>2022-09-06T12:25:45Z</time><name>PT4693</name></trkpt>
<trkpt lat="52.723595" lon="06.077060"><ele>0.8</ele><time>2022-09-06T12:25:45Z</time><name>PT4694</name></trkpt>
<trkpt lat="52.723599" lon="06.077051"><ele>0.5</ele><time>2022-09-06T12:25:46Z</time><name>PT4695</name></trkpt>
<trkpt lat="52.723600" lon="06.077040"><ele>0.3</ele><time>2022-09-06T12:25:48Z</time><name>PT4696</name></trkpt>
<trkpt lat="52.723601" lon="06.077029"><ele>0.2</ele><time>2022-09-06T12:25:48Z</time><name>PT4697</name></trkpt>
<trkpt lat="52.723601" lon="06.077015"><ele>0.3</ele><time>2022-09-06T12:25:49Z</time><name>PT4698</name></trkpt>
<trkpt lat="52.723600" lon="06.077003"><ele>0.3</ele><time>2022-09-06T12:25:51Z</time><name>PT4699</name></trkpt>
<trkpt lat="52.723596" lon="06.076985"><ele>0.2</ele><time>2022-09-06T12:25:51Z</time><name>PT4700</name></trkpt>
<trkpt lat="52.723594" lon="06.076970"><ele>0.3</ele><time>2022-09-06T12:25:52Z</time><name>PT4701</name></trkpt>
<trkpt lat="52.723592" lon="06.076956"><ele>0.3</ele><time>2022-09-06T12:25:54Z</time><name>PT4702</name></trkpt>
<trkpt lat="52.723591" lon="06.076944"><ele>0.3</ele><time>2022-09-06T12:25:54Z</time><name>PT4703</name></trkpt>
<trkpt lat="52.723588" lon="06.076931"><ele>0.3</ele><time>2022-09-06T12:25:55Z</time><name>PT4704</name></trkpt>
<trkpt lat="52.723586" lon="06.076920"><ele>0.4</ele><time>2022-09-06T12:25:57Z</time><name>PT4705</name></trkpt>
<trkpt lat="52.723585" lon="06.076916"><ele>0.4</ele><time>2022-09-06T12:25:57Z</time><name>PT4706</name></trkpt>
<trkpt lat="52.723582" lon="06.076909"><ele>0.5</ele><time>2022-09-06T12:25:58Z</time><name>PT4707</name></trkpt>
<trkpt lat="52.723580" lon="06.076901"><ele>0.5</ele><time>2022-09-06T12:26:00Z</time><name>PT4708</name></trkpt>
<trkpt lat="52.723576" lon="06.076891"><ele>0.6</ele><time>2022-09-06T12:26:00Z</time><name>PT4709</name></trkpt>
<trkpt lat="52.723575" lon="06.076880"><ele>0.5</ele><time>2022-09-06T12:26:01Z</time><name>PT4710</name></trkpt>
<trkpt lat="52.723574" lon="06.076867"><ele>0.3</ele><time>2022-09-06T12:26:03Z</time><name>PT4711</name></trkpt>
<trkpt lat="52.723571" lon="06.076853"><ele>0.4</ele><time>2022-09-06T12:26:03Z</time><name>PT4712</name></trkpt>
<trkpt lat="52.723568" lon="06.076839"><ele>0.5</ele><time>2022-09-06T12:26:04Z</time><name>PT4713</name></trkpt>
<trkpt lat="52.723565" lon="06.076826"><ele>0.6</ele><time>2022-09-06T12:26:06Z</time><name>PT4714</name></trkpt>
<trkpt lat="52.723561" lon="06.076813"><ele>0.7</ele><time>2022-09-06T12:26:06Z</time><name>PT4715</name></trkpt>
<trkpt lat="52.723554" lon="06.076801"><ele>0.6</ele><time>2022-09-06T12:26:07Z</time><name>PT4716</name></trkpt>
<trkpt lat="52.723544" lon="06.076790"><ele>0.4</ele><time>2022-09-06T12:26:09Z</time><name>PT4717</name></trkpt>
<trkpt lat="52.723536" lon="06.076779"><ele>0.6</ele><time>2022-09-06T12:26:09Z</time><name>PT4718</name></trkpt>
<trkpt lat="52.723528" lon="06.076768"><ele>0.4</ele><time>2022-09-06T12:26:10Z</time><name>PT4719</name></trkpt>
<trkpt lat="52.723520" lon="06.076753"><ele>0.4</ele><time>2022-09-06T12:26:12Z</time><name>PT4720</name></trkpt>
<trkpt lat="52.723516" lon="06.076737"><ele>0.5</ele><time>2022-09-06T12:26:12Z</time><name>PT4721</name></trkpt>
<trkpt lat="52.723514" lon="06.076724"><ele>0.5</ele><time>2022-09-06T12:26:13Z</time><name>PT4722</name></trkpt>
<trkpt lat="52.723510" lon="06.076709"><ele>0.3</ele><time>2022-09-06T12:26:15Z</time><name>PT4723</name></trkpt>
<trkpt lat="52.723505" lon="06.076694"><ele>0.3</ele><time>2022-09-06T12:26:15Z</time><name>PT4724</name></trkpt>
<trkpt lat="52.723502" lon="06.076682"><ele>0.3</ele><time>2022-09-06T12:26:16Z</time><name>PT4725</name></trkpt>
<trkpt lat="52.723499" lon="06.076669"><ele>0.3</ele><time>2022-09-06T12:26:18Z</time><name>PT4726</name></trkpt>
<trkpt lat="52.723496" lon="06.076655"><ele>0.3</ele><time>2022-09-06T12:26:18Z</time><name>PT4727</name></trkpt>
<trkpt lat="52.723494" lon="06.076641"><ele>0.2</ele><time>2022-09-06T12:26:19Z</time><name>PT4728</name></trkpt>
<trkpt lat="52.723491" lon="06.076627"><ele>0.3</ele><time>2022-09-06T12:26:21Z</time><name>PT4729</name></trkpt>
<trkpt lat="52.723487" lon="06.076622"><ele>0.2</ele><time>2022-09-06T12:26:21Z</time><name>PT4730</name></trkpt>
<trkpt lat="52.723485" lon="06.076622"><ele>0.1</ele><time>2022-09-06T12:26:22Z</time><name>PT4731</name></trkpt>
<trkpt lat="52.723483" lon="06.076618"><ele>0.2</ele><time>2022-09-06T12:26:24Z</time><name>PT4732</name></trkpt>
<trkpt lat="52.723481" lon="06.076615"><ele>0.2</ele><time>2022-09-06T12:26:24Z</time><name>PT4733</name></trkpt>
<trkpt lat="52.723480" lon="06.076611"><ele>0.2</ele><time>2022-09-06T12:26:34Z</time><name>PT4734</name></trkpt>
<trkpt lat="52.723481" lon="06.076598"><ele>0.2</ele><time>2022-09-06T12:26:36Z</time><name>PT4735</name></trkpt>
<trkpt lat="52.723481" lon="06.076585"><ele>0.3</ele><time>2022-09-06T12:26:36Z</time><name>PT4736</name></trkpt>
<trkpt lat="52.723480" lon="06.076570"><ele>0.3</ele><time>2022-09-06T12:26:37Z</time><name>PT4737</name></trkpt>
<trkpt lat="52.723480" lon="06.076551"><ele>0.4</ele><time>2022-09-06T12:26:39Z</time><name>PT4738</name></trkpt>
<trkpt lat="52.723481" lon="06.076535"><ele>0.3</ele><time>2022-09-06T12:26:39Z</time><name>PT4739</name></trkpt>
<trkpt lat="52.723478" lon="06.076520"><ele>0.3</ele><time>2022-09-06T12:26:40Z</time><name>PT4740</name></trkpt>
<trkpt lat="52.723473" lon="06.076506"><ele>0.3</ele><time>2022-09-06T12:26:42Z</time><name>PT4741</name></trkpt>
<trkpt lat="52.723469" lon="06.076493"><ele>0.3</ele><time>2022-09-06T12:26:42Z</time><name>PT4742</name></trkpt>
<trkpt lat="52.723469" lon="06.076478"><ele>0.3</ele><time>2022-09-06T12:26:43Z</time><name>PT4743</name></trkpt>
<trkpt lat="52.723467" lon="06.076460"><ele>0.2</ele><time>2022-09-06T12:26:45Z</time><name>PT4744</name></trkpt>
<trkpt lat="52.723466" lon="06.076442"><ele>0.3</ele><time>2022-09-06T12:26:45Z</time><name>PT4745</name></trkpt>
<trkpt lat="52.723466" lon="06.076429"><ele>0.1</ele><time>2022-09-06T12:26:46Z</time><name>PT4746</name></trkpt>
<trkpt lat="52.723463" lon="06.076413"><ele>0.1</ele><time>2022-09-06T12:26:48Z</time><name>PT4747</name></trkpt>
<trkpt lat="52.723463" lon="06.076400"><ele>0.2</ele><time>2022-09-06T12:26:48Z</time><name>PT4748</name></trkpt>
<trkpt lat="52.723462" lon="06.076382"><ele>0.3</ele><time>2022-09-06T12:26:49Z</time><name>PT4749</name></trkpt>
<trkpt lat="52.723461" lon="06.076367"><ele>0.5</ele><time>2022-09-06T12:26:51Z</time><name>PT4750</name></trkpt>
<trkpt lat="52.723461" lon="06.076353"><ele>0.5</ele><time>2022-09-06T12:26:51Z</time><name>PT4751</name></trkpt>
<trkpt lat="52.723459" lon="06.076342"><ele>0.5</ele><time>2022-09-06T12:26:52Z</time><name>PT4752</name></trkpt>
<trkpt lat="52.723458" lon="06.076327"><ele>0.3</ele><time>2022-09-06T12:26:54Z</time><name>PT4753</name></trkpt>
<trkpt lat="52.723457" lon="06.076311"><ele>0.4</ele><time>2022-09-06T12:26:54Z</time><name>PT4754</name></trkpt>
<trkpt lat="52.723455" lon="06.076296"><ele>0.3</ele><time>2022-09-06T12:26:55Z</time><name>PT4755</name></trkpt>
<trkpt lat="52.723453" lon="06.076278"><ele>0.3</ele><time>2022-09-06T12:26:57Z</time><name>PT4756</name></trkpt>
<trkpt lat="52.723452" lon="06.076261"><ele>0.3</ele><time>2022-09-06T12:26:57Z</time><name>PT4757</name></trkpt>
<trkpt lat="52.723452" lon="06.076247"><ele>0.3</ele><time>2022-09-06T12:26:58Z</time><name>PT4758</name></trkpt>
<trkpt lat="52.723448" lon="06.076233"><ele>0.1</ele><time>2022-09-06T12:27:00Z</time><name>PT4759</name></trkpt>
<trkpt lat="52.723446" lon="06.076215"><ele>0.1</ele><time>2022-09-06T12:27:00Z</time><name>PT4760</name></trkpt>
<trkpt lat="52.723445" lon="06.076193"><ele>0.1</ele><time>2022-09-06T12:27:01Z</time><name>PT4761</name></trkpt>
<trkpt lat="52.723442" lon="06.076173"><ele>0.1</ele><time>2022-09-06T12:27:03Z</time><name>PT4762</name></trkpt>
<trkpt lat="52.723440" lon="06.076152"><ele>0.1</ele><time>2022-09-06T12:27:03Z</time><name>PT4763</name></trkpt>
<trkpt lat="52.723437" lon="06.076135"><ele>0.1</ele><time>2022-09-06T12:27:04Z</time><name>PT4764</name></trkpt>
<trkpt lat="52.723435" lon="06.076118"><ele>0.1</ele><time>2022-09-06T12:27:06Z</time><name>PT4765</name></trkpt>
<trkpt lat="52.723432" lon="06.076101"><ele>0.1</ele><time>2022-09-06T12:27:06Z</time><name>PT4766</name></trkpt>
<trkpt lat="52.723428" lon="06.076081"><ele>0.1</ele><time>2022-09-06T12:27:07Z</time><name>PT4767</name></trkpt>
<trkpt lat="52.723427" lon="06.076062"><ele>0.3</ele><time>2022-09-06T12:27:09Z</time><name>PT4768</name></trkpt>
<trkpt lat="52.723425" lon="06.076044"><ele>0.3</ele><time>2022-09-06T12:27:09Z</time><name>PT4769</name></trkpt>
<trkpt lat="52.723422" lon="06.076027"><ele>0.2</ele><time>2022-09-06T12:27:10Z</time><name>PT4770</name></trkpt>
<trkpt lat="52.723417" lon="06.076007"><ele>0.1</ele><time>2022-09-06T12:27:12Z</time><name>PT4771</name></trkpt>
<trkpt lat="52.723412" lon="06.075987"><ele>0.1</ele><time>2022-09-06T12:27:12Z</time><name>PT4772</name></trkpt>
<trkpt lat="52.723407" lon="06.075967"><ele>0</ele><time>2022-09-06T12:27:13Z</time><name>PT4773</name></trkpt>
<trkpt lat="52.723404" lon="06.075949"><ele>0.2</ele><time>2022-09-06T12:27:15Z</time><name>PT4774</name></trkpt>
<trkpt lat="52.723400" lon="06.075929"><ele>0.2</ele><time>2022-09-06T12:27:15Z</time><name>PT4775</name></trkpt>
<trkpt lat="52.723397" lon="06.075914"><ele>0.2</ele><time>2022-09-06T12:27:16Z</time><name>PT4776</name></trkpt>
<trkpt lat="52.723394" lon="06.075897"><ele>0</ele><time>2022-09-06T12:27:18Z</time><name>PT4777</name></trkpt>
<trkpt lat="52.723390" lon="06.075881"><ele>0.1</ele><time>2022-09-06T12:27:18Z</time><name>PT4778</name></trkpt>
<trkpt lat="52.723388" lon="06.075865"><ele>0.2</ele><time>2022-09-06T12:27:19Z</time><name>PT4779</name></trkpt>
<trkpt lat="52.723385" lon="06.075850"><ele>0.2</ele><time>2022-09-06T12:27:21Z</time><name>PT4780</name></trkpt>
<trkpt lat="52.723380" lon="06.075835"><ele>0.2</ele><time>2022-09-06T12:27:21Z</time><name>PT4781</name></trkpt>
<trkpt lat="52.723366" lon="06.075806"><ele>0.1</ele><time>2022-09-06T12:27:22Z</time><name>PT4782</name></trkpt>
<trkpt lat="52.723357" lon="06.075784"><ele>0.1</ele><time>2022-09-06T12:27:24Z</time><name>PT4783</name></trkpt>
<trkpt lat="52.723353" lon="06.075765"><ele>0.1</ele><time>2022-09-06T12:27:24Z</time><name>PT4784</name></trkpt>
<trkpt lat="52.723349" lon="06.075749"><ele>0.2</ele><time>2022-09-06T12:27:25Z</time><name>PT4785</name></trkpt>
<trkpt lat="52.723346" lon="06.075735"><ele>0.2</ele><time>2022-09-06T12:27:27Z</time><name>PT4786</name></trkpt>
<trkpt lat="52.723341" lon="06.075722"><ele>0.2</ele><time>2022-09-06T12:27:27Z</time><name>PT4787</name></trkpt>
<trkpt lat="52.723339" lon="06.075710"><ele>0.1</ele><time>2022-09-06T12:27:28Z</time><name>PT4788</name></trkpt>
<trkpt lat="52.723336" lon="06.075694"><ele>0.1</ele><time>2022-09-06T12:27:30Z</time><name>PT4789</name></trkpt>
<trkpt lat="52.723333" lon="06.075680"><ele>0</ele><time>2022-09-06T12:27:30Z</time><name>PT4790</name></trkpt>
<trkpt lat="52.723329" lon="06.075667"><ele>0.1</ele><time>2022-09-06T12:27:31Z</time><name>PT4791</name></trkpt>
<trkpt lat="52.723325" lon="06.075654"><ele>0.2</ele><time>2022-09-06T12:27:33Z</time><name>PT4792</name></trkpt>
<trkpt lat="52.723320" lon="06.075641"><ele>0.3</ele><time>2022-09-06T12:27:33Z</time><name>PT4793</name></trkpt>
<trkpt lat="52.723315" lon="06.075626"><ele>0.2</ele><time>2022-09-06T12:27:34Z</time><name>PT4794</name></trkpt>
<trkpt lat="52.723310" lon="06.075611"><ele>0.2</ele><time>2022-09-06T12:27:36Z</time><name>PT4795</name></trkpt>
<trkpt lat="52.723305" lon="06.075595"><ele>0.3</ele><time>2022-09-06T12:27:36Z</time><name>PT4796</name></trkpt>
<trkpt lat="52.723300" lon="06.075580"><ele>0.3</ele><time>2022-09-06T12:27:37Z</time><name>PT4797</name></trkpt>
<trkpt lat="52.723295" lon="06.075565"><ele>0.3</ele><time>2022-09-06T12:27:39Z</time><name>PT4798</name></trkpt>
<trkpt lat="52.723290" lon="06.075552"><ele>0.3</ele><time>2022-09-06T12:27:39Z</time><name>PT4799</name></trkpt>
<trkpt lat="52.723290" lon="06.075545"><ele>0.2</ele><time>2022-09-06T12:27:40Z</time><name>PT4800</name></trkpt>
<trkpt lat="52.723292" lon="06.075545"><ele>0.1</ele><time>2022-09-06T12:27:42Z</time><name>PT4801</name></trkpt>
<trkpt lat="52.723291" lon="06.075542"><ele>0</ele><time>2022-09-06T12:27:42Z</time><name>PT4802</name></trkpt>
<trkpt lat="52.723287" lon="06.075536"><ele>0</ele><time>2022-09-06T12:27:43Z</time><name>PT4803</name></trkpt>
<trkpt lat="52.723288" lon="06.075532"><ele>0.2</ele><time>2022-09-06T12:27:45Z</time><name>PT4804</name></trkpt>
<trkpt lat="52.723289" lon="06.075528"><ele>0.1</ele><time>2022-09-06T12:27:46Z</time><name>PT4805</name></trkpt>
<trkpt lat="52.723290" lon="06.075528"><ele>0.3</ele><time>2022-09-06T12:27:48Z</time><name>PT4806</name></trkpt>
<trkpt lat="52.723289" lon="06.075524"><ele>0.4</ele><time>2022-09-06T12:27:48Z</time><name>PT4807</name></trkpt>
<trkpt lat="52.723284" lon="06.075522"><ele>0.6</ele><time>2022-09-06T12:27:49Z</time><name>PT4808</name></trkpt>
<trkpt lat="52.723282" lon="06.075519"><ele>0.4</ele><time>2022-09-06T12:27:51Z</time><name>PT4809</name></trkpt>
<trkpt lat="52.723279" lon="06.075515"><ele>0.5</ele><time>2022-09-06T12:27:51Z</time><name>PT4810</name></trkpt>
<trkpt lat="52.723278" lon="06.075514"><ele>0.4</ele><time>2022-09-06T12:27:52Z</time><name>PT4811</name></trkpt>
<trkpt lat="52.723278" lon="06.075511"><ele>0</ele><time>2022-09-06T12:28:06Z</time><name>PT4812</name></trkpt>
<trkpt lat="52.723275" lon="06.075502"><ele>0</ele><time>2022-09-06T12:28:06Z</time><name>PT4813</name></trkpt>
<trkpt lat="52.723271" lon="06.075491"><ele>0.1</ele><time>2022-09-06T12:28:07Z</time><name>PT4814</name></trkpt>
<trkpt lat="52.723266" lon="06.075481"><ele>0</ele><time>2022-09-06T12:28:09Z</time><name>PT4815</name></trkpt>
<trkpt lat="52.723260" lon="06.075469"><ele>0.1</ele><time>2022-09-06T12:28:09Z</time><name>PT4816</name></trkpt>
<trkpt lat="52.723253" lon="06.075459"><ele>0.1</ele><time>2022-09-06T12:28:10Z</time><name>PT4817</name></trkpt>
<trkpt lat="52.723246" lon="06.075448"><ele>0</ele><time>2022-09-06T12:28:12Z</time><name>PT4818</name></trkpt>
<trkpt lat="52.723238" lon="06.075439"><ele>0.1</ele><time>2022-09-06T12:28:12Z</time><name>PT4819</name></trkpt>
<trkpt lat="52.723230" lon="06.075434"><ele>0</ele><time>2022-09-06T12:28:13Z</time><name>PT4820</name></trkpt>
<trkpt lat="52.723221" lon="06.075433"><ele>0</ele><time>2022-09-06T12:28:15Z</time><name>PT4821</name></trkpt>
<trkpt lat="52.723213" lon="06.075433"><ele>0.1</ele><time>2022-09-06T12:28:15Z</time><name>PT4822</name></trkpt>
<trkpt lat="52.723203" lon="06.075430"><ele>0</ele><time>2022-09-06T12:28:16Z</time><name>PT4823</name></trkpt>
<trkpt lat="52.723194" lon="06.075430"><ele>0</ele><time>2022-09-06T12:28:18Z</time><name>PT4824</name></trkpt>
<trkpt lat="52.723186" lon="06.075437"><ele>0</ele><time>2022-09-06T12:28:18Z</time><name>PT4825</name></trkpt>
<trkpt lat="52.723176" lon="06.075441"><ele>0</ele><time>2022-09-06T12:28:19Z</time><name>PT4826</name></trkpt>
<trkpt lat="52.723167" lon="06.075445"><ele>0.2</ele><time>2022-09-06T12:28:21Z</time><name>PT4827</name></trkpt>
<trkpt lat="52.723157" lon="06.075449"><ele>0.2</ele><time>2022-09-06T12:28:21Z</time><name>PT4828</name></trkpt>
<trkpt lat="52.723149" lon="06.075455"><ele>0</ele><time>2022-09-06T12:28:22Z</time><name>PT4829</name></trkpt>
<trkpt lat="52.723142" lon="06.075463"><ele>0.2</ele><time>2022-09-06T12:28:24Z</time><name>PT4830</name></trkpt>
<trkpt lat="52.723135" lon="06.075470"><ele>0.2</ele><time>2022-09-06T12:28:24Z</time><name>PT4831</name></trkpt>
<trkpt lat="52.723128" lon="06.075474"><ele>0.2</ele><time>2022-09-06T12:28:25Z</time><name>PT4832</name></trkpt>
<trkpt lat="52.723121" lon="06.075478"><ele>0</ele><time>2022-09-06T12:28:27Z</time><name>PT4833</name></trkpt>
<trkpt lat="52.723115" lon="06.075485"><ele>0</ele><time>2022-09-06T12:28:27Z</time><name>PT4834</name></trkpt>
<trkpt lat="52.723108" lon="06.075490"><ele>0</ele><time>2022-09-06T12:28:28Z</time><name>PT4835</name></trkpt>
<trkpt lat="52.723101" lon="06.075493"><ele>0</ele><time>2022-09-06T12:28:30Z</time><name>PT4836</name></trkpt>
<trkpt lat="52.723094" lon="06.075497"><ele>0.1</ele><time>2022-09-06T12:28:30Z</time><name>PT4837</name></trkpt>
<trkpt lat="52.723087" lon="06.075501"><ele>0.2</ele><time>2022-09-06T12:28:31Z</time><name>PT4838</name></trkpt>
<trkpt lat="52.723080" lon="06.075503"><ele>0.1</ele><time>2022-09-06T12:28:33Z</time><name>PT4839</name></trkpt>
<trkpt lat="52.723073" lon="06.075506"><ele>0.2</ele><time>2022-09-06T12:28:33Z</time><name>PT4840</name></trkpt>
<trkpt lat="52.723066" lon="06.075508"><ele>0.1</ele><time>2022-09-06T12:28:34Z</time><name>PT4841</name></trkpt>
<trkpt lat="52.723058" lon="06.075513"><ele>0</ele><time>2022-09-06T12:28:36Z</time><name>PT4842</name></trkpt>
<trkpt lat="52.723050" lon="06.075518"><ele>0.1</ele><time>2022-09-06T12:28:36Z</time><name>PT4843</name></trkpt>
<trkpt lat="52.723042" lon="06.075520"><ele>0.1</ele><time>2022-09-06T12:28:37Z</time><name>PT4844</name></trkpt>
<trkpt lat="52.723033" lon="06.075521"><ele>0.1</ele><time>2022-09-06T12:28:39Z</time><name>PT4845</name></trkpt>
<trkpt lat="52.723023" lon="06.075519"><ele>0.1</ele><time>2022-09-06T12:28:39Z</time><name>PT4846</name></trkpt>
<trkpt lat="52.723014" lon="06.075522"><ele>0.1</ele><time>2022-09-06T12:28:40Z</time><name>PT4847</name></trkpt>
<trkpt lat="52.723006" lon="06.075530"><ele>0.1</ele><time>2022-09-06T12:28:42Z</time><name>PT4848</name></trkpt>
<trkpt lat="52.723000" lon="06.075539"><ele>0.1</ele><time>2022-09-06T12:28:42Z</time><name>PT4849</name></trkpt>
<trkpt lat="52.722993" lon="06.075542"><ele>0.2</ele><time>2022-09-06T12:28:43Z</time><name>PT4850</name></trkpt>
<trkpt lat="52.722993" lon="06.075541"><ele>0.1</ele><time>2022-09-06T12:28:45Z</time><name>PT4851</name></trkpt>
<trkpt lat="52.722992" lon="06.075541"><ele>0.1</ele><time>2022-09-06T12:28:45Z</time><name>PT4852</name></trkpt>
<trkpt lat="52.722989" lon="06.075539"><ele>0.2</ele><time>2022-09-06T12:28:46Z</time><name>PT4853</name></trkpt>
<trkpt lat="52.722987" lon="06.075534"><ele>0.1</ele><time>2022-09-06T12:28:48Z</time><name>PT4854</name></trkpt>
<trkpt lat="52.722982" lon="06.075524"><ele>0</ele><time>2022-09-06T12:28:48Z</time><name>PT4855</name></trkpt>
<trkpt lat="52.722974" lon="06.075515"><ele>0</ele><time>2022-09-06T12:28:50Z</time><name>PT4856</name></trkpt>
<trkpt lat="52.722965" lon="06.075507"><ele>0.1</ele><time>2022-09-06T12:28:51Z</time><name>PT4857</name></trkpt>
<trkpt lat="52.722956" lon="06.075501"><ele>0.1</ele><time>2022-09-06T12:28:51Z</time><name>PT4858</name></trkpt>
<trkpt lat="52.722947" lon="06.075496"><ele>0.1</ele><time>2022-09-06T12:28:52Z</time><name>PT4859</name></trkpt>
<trkpt lat="52.722941" lon="06.075491"><ele>0.2</ele><time>2022-09-06T12:28:54Z</time><name>PT4860</name></trkpt>
<trkpt lat="52.722935" lon="06.075487"><ele>0.2</ele><time>2022-09-06T12:28:54Z</time><name>PT4861</name></trkpt>
<trkpt lat="52.722928" lon="06.075484"><ele>0.1</ele><time>2022-09-06T12:28:56Z</time><name>PT4862</name></trkpt>
<trkpt lat="52.722920" lon="06.075482"><ele>0.1</ele><time>2022-09-06T12:28:57Z</time><name>PT4863</name></trkpt>
<trkpt lat="52.722912" lon="06.075484"><ele>0</ele><time>2022-09-06T12:28:57Z</time><name>PT4864</name></trkpt>
<trkpt lat="52.722904" lon="06.075487"><ele>0</ele><time>2022-09-06T12:28:58Z</time><name>PT4865</name></trkpt>
<trkpt lat="52.722896" lon="06.075489"><ele>0</ele><time>2022-09-06T12:29:00Z</time><name>PT4866</name></trkpt>
<trkpt lat="52.722886" lon="06.075489"><ele>0</ele><time>2022-09-06T12:29:00Z</time><name>PT4867</name></trkpt>
<trkpt lat="52.722877" lon="06.075488"><ele>0.1</ele><time>2022-09-06T12:29:01Z</time><name>PT4868</name></trkpt>
<trkpt lat="52.722868" lon="06.075487"><ele>0</ele><time>2022-09-06T12:29:03Z</time><name>PT4869</name></trkpt>
<trkpt lat="52.722861" lon="06.075490"><ele>0.1</ele><time>2022-09-06T12:29:03Z</time><name>PT4870</name></trkpt>
<trkpt lat="52.722855" lon="06.075492"><ele>0.1</ele><time>2022-09-06T12:29:04Z</time><name>PT4871</name></trkpt>
<trkpt lat="52.722848" lon="06.075491"><ele>0</ele><time>2022-09-06T12:29:06Z</time><name>PT4872</name></trkpt>
<trkpt lat="52.722841" lon="06.075492"><ele>0.2</ele><time>2022-09-06T12:29:06Z</time><name>PT4873</name></trkpt>
<trkpt lat="52.722834" lon="06.075493"><ele>0.3</ele><time>2022-09-06T12:29:07Z</time><name>PT4874</name></trkpt>
<trkpt lat="52.722827" lon="06.075492"><ele>0.4</ele><time>2022-09-06T12:29:09Z</time><name>PT4875</name></trkpt>
<trkpt lat="52.722821" lon="06.075490"><ele>0.3</ele><time>2022-09-06T12:29:09Z</time><name>PT4876</name></trkpt>
<trkpt lat="52.722816" lon="06.075489"><ele>0.4</ele><time>2022-09-06T12:29:10Z</time><name>PT4877</name></trkpt>
<trkpt lat="52.722814" lon="06.075488"><ele>0.3</ele><time>2022-09-06T12:29:12Z</time><name>PT4878</name></trkpt>
<trkpt lat="52.722814" lon="06.075489"><ele>0.2</ele><time>2022-09-06T12:29:12Z</time><name>PT4879</name></trkpt>
<trkpt lat="52.722814" lon="06.075489"><ele>0</ele><time>2022-09-06T12:29:13Z</time><name>PT4880</name></trkpt>
<trkpt lat="52.722813" lon="06.075491"><ele>0.1</ele><time>2022-09-06T12:29:15Z</time><name>PT4881</name></trkpt>
<trkpt lat="52.722809" lon="06.075493"><ele>0</ele><time>2022-09-06T12:29:37Z</time><name>PT4882</name></trkpt>
<trkpt lat="52.722797" lon="06.075492"><ele>0</ele><time>2022-09-06T12:29:39Z</time><name>PT4883</name></trkpt>
<trkpt lat="52.722788" lon="06.075493"><ele>0</ele><time>2022-09-06T12:29:39Z</time><name>PT4884</name></trkpt>
<trkpt lat="52.722783" lon="06.075499"><ele>0</ele><time>2022-09-06T12:29:40Z</time><name>PT4885</name></trkpt>
<trkpt lat="52.722777" lon="06.075505"><ele>0.1</ele><time>2022-09-06T12:29:42Z</time><name>PT4886</name></trkpt>
<trkpt lat="52.722765" lon="06.075508"><ele>0</ele><time>2022-09-06T12:29:42Z</time><name>PT4887</name></trkpt>
<trkpt lat="52.722749" lon="06.075506"><ele>0.1</ele><time>2022-09-06T12:29:43Z</time><name>PT4888</name></trkpt>
<trkpt lat="52.722737" lon="06.075510"><ele>0</ele><time>2022-09-06T12:29:45Z</time><name>PT4889</name></trkpt>
<trkpt lat="52.722726" lon="06.075510"><ele>0.1</ele><time>2022-09-06T12:29:45Z</time><name>PT4890</name></trkpt>
<trkpt lat="52.722711" lon="06.075508"><ele>0.1</ele><time>2022-09-06T12:29:46Z</time><name>PT4891</name></trkpt>
<trkpt lat="52.722694" lon="06.075508"><ele>0.1</ele><time>2022-09-06T12:29:48Z</time><name>PT4892</name></trkpt>
<trkpt lat="52.722679" lon="06.075510"><ele>0.1</ele><time>2022-09-06T12:29:48Z</time><name>PT4893</name></trkpt>
<trkpt lat="52.722667" lon="06.075510"><ele>0</ele><time>2022-09-06T12:29:49Z</time><name>PT4894</name></trkpt>
<trkpt lat="52.722661" lon="06.075510"><ele>0</ele><time>2022-09-06T12:29:51Z</time><name>PT4895</name></trkpt>
<trkpt lat="52.722657" lon="06.075509"><ele>0</ele><time>2022-09-06T12:29:51Z</time><name>PT4896</name></trkpt>
<trkpt lat="52.722651" lon="06.075509"><ele>0.1</ele><time>2022-09-06T12:29:52Z</time><name>PT4897</name></trkpt>
<trkpt lat="52.722642" lon="06.075511"><ele>0.1</ele><time>2022-09-06T12:29:54Z</time><name>PT4898</name></trkpt>
<trkpt lat="52.722631" lon="06.075506"><ele>0</ele><time>2022-09-06T12:29:54Z</time><name>PT4899</name></trkpt>
<trkpt lat="52.722618" lon="06.075509"><ele>0</ele><time>2022-09-06T12:29:55Z</time><name>PT4900</name></trkpt>
<trkpt lat="52.722600" lon="06.075513"><ele>0</ele><time>2022-09-06T12:29:57Z</time><name>PT4901</name></trkpt>
<trkpt lat="52.722580" lon="06.075517"><ele>0</ele><time>2022-09-06T12:29:57Z</time><name>PT4902</name></trkpt>
<trkpt lat="52.722566" lon="06.075517"><ele>0</ele><time>2022-09-06T12:29:58Z</time><name>PT4903</name></trkpt>
<trkpt lat="52.722557" lon="06.075517"><ele>0.2</ele><time>2022-09-06T12:30:00Z</time><name>PT4904</name></trkpt>
<trkpt lat="52.722550" lon="06.075524"><ele>0.3</ele><time>2022-09-06T12:30:00Z</time><name>PT4905</name></trkpt>
<trkpt lat="52.722544" lon="06.075526"><ele>0.3</ele><time>2022-09-06T12:30:01Z</time><name>PT4906</name></trkpt>
<trkpt lat="52.722536" lon="06.075527"><ele>0.3</ele><time>2022-09-06T12:30:03Z</time><name>PT4907</name></trkpt>
<trkpt lat="52.722526" lon="06.075528"><ele>0.3</ele><time>2022-09-06T12:30:03Z</time><name>PT4908</name></trkpt>
<trkpt lat="52.722517" lon="06.075527"><ele>0.2</ele><time>2022-09-06T12:30:04Z</time><name>PT4909</name></trkpt>
<trkpt lat="52.722509" lon="06.075527"><ele>0.2</ele><time>2022-09-06T12:30:06Z</time><name>PT4910</name></trkpt>
<trkpt lat="52.722495" lon="06.075527"><ele>0.2</ele><time>2022-09-06T12:30:06Z</time><name>PT4911</name></trkpt>
<trkpt lat="52.722481" lon="06.075526"><ele>0.2</ele><time>2022-09-06T12:30:07Z</time><name>PT4912</name></trkpt>
<trkpt lat="52.722462" lon="06.075528"><ele>0.2</ele><time>2022-09-06T12:30:09Z</time><name>PT4913</name></trkpt>
<trkpt lat="52.722443" lon="06.075529"><ele>0.2</ele><time>2022-09-06T12:30:09Z</time><name>PT4914</name></trkpt>
<trkpt lat="52.722428" lon="06.075528"><ele>0.2</ele><time>2022-09-06T12:30:10Z</time><name>PT4915</name></trkpt>
<trkpt lat="52.722418" lon="06.075529"><ele>0.2</ele><time>2022-09-06T12:30:12Z</time><name>PT4916</name></trkpt>
<trkpt lat="52.722408" lon="06.075533"><ele>0.2</ele><time>2022-09-06T12:30:12Z</time><name>PT4917</name></trkpt>
<trkpt lat="52.722400" lon="06.075536"><ele>0.3</ele><time>2022-09-06T12:30:13Z</time><name>PT4918</name></trkpt>
<trkpt lat="52.722397" lon="06.075540"><ele>0.4</ele><time>2022-09-06T12:30:15Z</time><name>PT4919</name></trkpt>
<trkpt lat="52.722392" lon="06.075541"><ele>0.4</ele><time>2022-09-06T12:30:15Z</time><name>PT4920</name></trkpt>
<trkpt lat="52.722385" lon="06.075541"><ele>0.6</ele><time>2022-09-06T12:30:16Z</time><name>PT4921</name></trkpt>
<trkpt lat="52.722377" lon="06.075541"><ele>0.8</ele><time>2022-09-06T12:30:18Z</time><name>PT4922</name></trkpt>
<trkpt lat="52.722368" lon="06.075544"><ele>0.7</ele><time>2022-09-06T12:30:18Z</time><name>PT4923</name></trkpt>
<trkpt lat="52.722359" lon="06.075543"><ele>0.8</ele><time>2022-09-06T12:30:19Z</time><name>PT4924</name></trkpt>
<trkpt lat="52.722347" lon="06.075545"><ele>0.8</ele><time>2022-09-06T12:30:21Z</time><name>PT4925</name></trkpt>
<trkpt lat="52.722332" lon="06.075544"><ele>0.7</ele><time>2022-09-06T12:30:21Z</time><name>PT4926</name></trkpt>
<trkpt lat="52.722317" lon="06.075548"><ele>0.6</ele><time>2022-09-06T12:30:22Z</time><name>PT4927</name></trkpt>
<trkpt lat="52.722306" lon="06.075550"><ele>0.8</ele><time>2022-09-06T12:30:24Z</time><name>PT4928</name></trkpt>
<trkpt lat="52.722296" lon="06.075551"><ele>0.8</ele><time>2022-09-06T12:30:24Z</time><name>PT4929</name></trkpt>
<trkpt lat="52.722285" lon="06.075555"><ele>0.8</ele><time>2022-09-06T12:30:25Z</time><name>PT4930</name></trkpt>
<trkpt lat="52.722274" lon="06.075559"><ele>0.8</ele><time>2022-09-06T12:30:27Z</time><name>PT4931</name></trkpt>
<trkpt lat="52.722266" lon="06.075561"><ele>0.8</ele><time>2022-09-06T12:30:27Z</time><name>PT4932</name></trkpt>
<trkpt lat="52.722261" lon="06.075564"><ele>0.8</ele><time>2022-09-06T12:30:29Z</time><name>PT4933</name></trkpt>
<trkpt lat="52.722255" lon="06.075570"><ele>0.9</ele><time>2022-09-06T12:30:30Z</time><name>PT4934</name></trkpt>
<trkpt lat="52.722250" lon="06.075575"><ele>1.1</ele><time>2022-09-06T12:30:30Z</time><name>PT4935</name></trkpt>
<trkpt lat="52.722246" lon="06.075578"><ele>1.2</ele><time>2022-09-06T12:30:31Z</time><name>PT4936</name></trkpt>
<trkpt lat="52.722239" lon="06.075577"><ele>1.2</ele><time>2022-09-06T12:30:33Z</time><name>PT4937</name></trkpt>
<trkpt lat="52.722233" lon="06.075579"><ele>1.2</ele><time>2022-09-06T12:30:33Z</time><name>PT4938</name></trkpt>
<trkpt lat="52.722221" lon="06.075576"><ele>1</ele><time>2022-09-06T12:30:34Z</time><name>PT4939</name></trkpt>
<trkpt lat="52.722203" lon="06.075577"><ele>0.9</ele><time>2022-09-06T12:30:36Z</time><name>PT4940</name></trkpt>
<trkpt lat="52.722186" lon="06.075579"><ele>0.9</ele><time>2022-09-06T12:30:36Z</time><name>PT4941</name></trkpt>
<trkpt lat="52.722172" lon="06.075580"><ele>1.1</ele><time>2022-09-06T12:30:38Z</time><name>PT4942</name></trkpt>
<trkpt lat="52.722165" lon="06.075581"><ele>1.1</ele><time>2022-09-06T12:30:39Z</time><name>PT4943</name></trkpt>
<trkpt lat="52.722160" lon="06.075583"><ele>1</ele><time>2022-09-06T12:30:39Z</time><name>PT4944</name></trkpt>
<trkpt lat="52.722153" lon="06.075583"><ele>1.1</ele><time>2022-09-06T12:30:40Z</time><name>PT4945</name></trkpt>
<trkpt lat="52.722149" lon="06.075582"><ele>1.1</ele><time>2022-09-06T12:30:42Z</time><name>PT4946</name></trkpt>
<trkpt lat="52.722131" lon="06.075586"><ele>1.2</ele><time>2022-09-06T12:30:44Z</time><name>PT4947</name></trkpt>
<trkpt lat="52.722115" lon="06.075587"><ele>1.2</ele><time>2022-09-06T12:30:45Z</time><name>PT4948</name></trkpt>
<trkpt lat="52.722103" lon="06.075585"><ele>1</ele><time>2022-09-06T12:30:45Z</time><name>PT4949</name></trkpt>
<trkpt lat="52.722094" lon="06.075584"><ele>1</ele><time>2022-09-06T12:30:46Z</time><name>PT4950</name></trkpt>
<trkpt lat="52.722083" lon="06.075586"><ele>0.9</ele><time>2022-09-06T12:30:48Z</time><name>PT4951</name></trkpt>
<trkpt lat="52.722072" lon="06.075587"><ele>0.9</ele><time>2022-09-06T12:30:48Z</time><name>PT4952</name></trkpt>
<trkpt lat="52.722061" lon="06.075585"><ele>0.8</ele><time>2022-09-06T12:30:49Z</time><name>PT4953</name></trkpt>
<trkpt lat="52.722049" lon="06.075583"><ele>0.8</ele><time>2022-09-06T12:30:51Z</time><name>PT4954</name></trkpt>
<trkpt lat="52.722038" lon="06.075581"><ele>0.7</ele><time>2022-09-06T12:30:51Z</time><name>PT4955</name></trkpt>
<trkpt lat="52.722029" lon="06.075577"><ele>0.5</ele><time>2022-09-06T12:30:53Z</time><name>PT4956</name></trkpt>
<trkpt lat="52.722020" lon="06.075576"><ele>0.3</ele><time>2022-09-06T12:30:54Z</time><name>PT4957</name></trkpt>
<trkpt lat="52.722008" lon="06.075576"><ele>0.3</ele><time>2022-09-06T12:30:54Z</time><name>PT4958</name></trkpt>
<trkpt lat="52.721999" lon="06.075574"><ele>0.3</ele><time>2022-09-06T12:30:55Z</time><name>PT4959</name></trkpt>
<trkpt lat="52.721990" lon="06.075572"><ele>0.2</ele><time>2022-09-06T12:30:57Z</time><name>PT4960</name></trkpt>
<trkpt lat="52.721980" lon="06.075577"><ele>0.1</ele><time>2022-09-06T12:30:57Z</time><name>PT4961</name></trkpt>
<trkpt lat="52.721970" lon="06.075577"><ele>0.3</ele><time>2022-09-06T12:30:58Z</time><name>PT4962</name></trkpt>
<trkpt lat="52.721958" lon="06.075574"><ele>0.3</ele><time>2022-09-06T12:31:00Z</time><name>PT4963</name></trkpt>
<trkpt lat="52.721948" lon="06.075572"><ele>0.1</ele><time>2022-09-06T12:31:00Z</time><name>PT4964</name></trkpt>
<trkpt lat="52.721940" lon="06.075570"><ele>0.1</ele><time>2022-09-06T12:31:01Z</time><name>PT4965</name></trkpt>
<trkpt lat="52.721930" lon="06.075565"><ele>0</ele><time>2022-09-06T12:31:03Z</time><name>PT4966</name></trkpt>
<trkpt lat="52.721920" lon="06.075559"><ele>0</ele><time>2022-09-06T12:31:03Z</time><name>PT4967</name></trkpt>
<trkpt lat="52.721912" lon="06.075556"><ele>0.1</ele><time>2022-09-06T12:31:04Z</time><name>PT4968</name></trkpt>
<trkpt lat="52.721903" lon="06.075550"><ele>0.1</ele><time>2022-09-06T12:31:06Z</time><name>PT4969</name></trkpt>
<trkpt lat="52.721896" lon="06.075544"><ele>0</ele><time>2022-09-06T12:31:06Z</time><name>PT4970</name></trkpt>
<trkpt lat="52.721888" lon="06.075536"><ele>0</ele><time>2022-09-06T12:31:07Z</time><name>PT4971</name></trkpt>
<trkpt lat="52.721881" lon="06.075531"><ele>0.1</ele><time>2022-09-06T12:31:09Z</time><name>PT4972</name></trkpt>
<trkpt lat="52.721874" lon="06.075526"><ele>0.1</ele><time>2022-09-06T12:31:09Z</time><name>PT4973</name></trkpt>
<trkpt lat="52.721866" lon="06.075521"><ele>0.1</ele><time>2022-09-06T12:31:10Z</time><name>PT4974</name></trkpt>
<trkpt lat="52.721859" lon="06.075514"><ele>0.1</ele><time>2022-09-06T12:31:12Z</time><name>PT4975</name></trkpt>
<trkpt lat="52.721854" lon="06.075506"><ele>0.2</ele><time>2022-09-06T12:31:12Z</time><name>PT4976</name></trkpt>
<trkpt lat="52.721850" lon="06.075494"><ele>0.2</ele><time>2022-09-06T12:31:13Z</time><name>PT4977</name></trkpt>
<trkpt lat="52.721843" lon="06.075480"><ele>0.3</ele><time>2022-09-06T12:31:15Z</time><name>PT4978</name></trkpt>
<trkpt lat="52.721839" lon="06.075467"><ele>0.4</ele><time>2022-09-06T12:31:15Z</time><name>PT4979</name></trkpt>
<trkpt lat="52.721834" lon="06.075455"><ele>0.3</ele><time>2022-09-06T12:31:16Z</time><name>PT4980</name></trkpt>
<trkpt lat="52.721829" lon="06.075441"><ele>0.3</ele><time>2022-09-06T12:31:18Z</time><name>PT4981</name></trkpt>
<trkpt lat="52.721825" lon="06.075427"><ele>0.4</ele><time>2022-09-06T12:31:18Z</time><name>PT4982</name></trkpt>
<trkpt lat="52.721821" lon="06.075413"><ele>0.4</ele><time>2022-09-06T12:31:19Z</time><name>PT4983</name></trkpt>
<trkpt lat="52.721817" lon="06.075401"><ele>0.3</ele><time>2022-09-06T12:31:21Z</time><name>PT4984</name></trkpt>
<trkpt lat="52.721815" lon="06.075384"><ele>0.2</ele><time>2022-09-06T12:31:21Z</time><name>PT4985</name></trkpt>
<trkpt lat="52.721814" lon="06.075369"><ele>0.3</ele><time>2022-09-06T12:31:22Z</time><name>PT4986</name></trkpt>
<trkpt lat="52.721811" lon="06.075355"><ele>0.2</ele><time>2022-09-06T12:31:24Z</time><name>PT4987</name></trkpt>
<trkpt lat="52.721809" lon="06.075340"><ele>0.1</ele><time>2022-09-06T12:31:24Z</time><name>PT4988</name></trkpt>
<trkpt lat="52.721803" lon="06.075330"><ele>0.1</ele><time>2022-09-06T12:31:25Z</time><name>PT4989</name></trkpt>
<trkpt lat="52.721798" lon="06.075324"><ele>0.2</ele><time>2022-09-06T12:31:27Z</time><name>PT4990</name></trkpt>
<trkpt lat="52.721792" lon="06.075319"><ele>0.1</ele><time>2022-09-06T12:31:27Z</time><name>PT4991</name></trkpt>
<trkpt lat="52.721787" lon="06.075310"><ele>0.1</ele><time>2022-09-06T12:31:28Z</time><name>PT4992</name></trkpt>
<trkpt lat="52.721784" lon="06.075298"><ele>0.2</ele><time>2022-09-06T12:31:30Z</time><name>PT4993</name></trkpt>
<trkpt lat="52.721782" lon="06.075289"><ele>0.3</ele><time>2022-09-06T12:31:30Z</time><name>PT4994</name></trkpt>
<trkpt lat="52.721778" lon="06.075276"><ele>0.3</ele><time>2022-09-06T12:31:31Z</time><name>PT4995</name></trkpt>
<trkpt lat="52.721774" lon="06.075260"><ele>0.3</ele><time>2022-09-06T12:31:33Z</time><name>PT4996</name></trkpt>
<trkpt lat="52.721771" lon="06.075247"><ele>0.4</ele><time>2022-09-06T12:31:33Z</time><name>PT4997</name></trkpt>
<trkpt lat="52.721768" lon="06.075235"><ele>0.1</ele><time>2022-09-06T12:31:34Z</time><name>PT4998</name></trkpt>
<trkpt lat="52.721767" lon="06.075220"><ele>0.1</ele><time>2022-09-06T12:31:36Z</time><name>PT4999</name></trkpt>
<trkpt lat="52.721763" lon="06.075201"><ele>0.1</ele><time>2022-09-06T12:31:36Z</time><name>PT5000</name></trkpt>
<trkpt lat="52.721762" lon="06.075183"><ele>0</ele><time>2022-09-06T12:31:37Z</time><name>PT5001</name></trkpt>
<trkpt lat="52.721760" lon="06.075164"><ele>0.1</ele><time>2022-09-06T12:31:39Z</time><name>PT5002</name></trkpt>
<trkpt lat="52.721760" lon="06.075144"><ele>0.1</ele><time>2022-09-06T12:31:39Z</time><name>PT5003</name></trkpt>
<trkpt lat="52.721760" lon="06.075124"><ele>0.1</ele><time>2022-09-06T12:31:40Z</time><name>PT5004</name></trkpt>
<trkpt lat="52.721760" lon="06.075105"><ele>0.2</ele><time>2022-09-06T12:31:42Z</time><name>PT5005</name></trkpt>
<trkpt lat="52.721761" lon="06.075088"><ele>0.2</ele><time>2022-09-06T12:31:42Z</time><name>PT5006</name></trkpt>
<trkpt lat="52.721759" lon="06.075071"><ele>0.3</ele><time>2022-09-06T12:31:43Z</time><name>PT5007</name></trkpt>
<trkpt lat="52.721757" lon="06.075053"><ele>0.4</ele><time>2022-09-06T12:31:45Z</time><name>PT5008</name></trkpt>
<trkpt lat="52.721754" lon="06.075035"><ele>0.6</ele><time>2022-09-06T12:31:45Z</time><name>PT5009</name></trkpt>
<trkpt lat="52.721752" lon="06.075017"><ele>0.5</ele><time>2022-09-06T12:31:46Z</time><name>PT5010</name></trkpt>
<trkpt lat="52.721749" lon="06.075001"><ele>0.6</ele><time>2022-09-06T12:31:48Z</time><name>PT5011</name></trkpt>
<trkpt lat="52.721747" lon="06.074984"><ele>0.3</ele><time>2022-09-06T12:31:48Z</time><name>PT5012</name></trkpt>
<trkpt lat="52.721746" lon="06.074965"><ele>0.1</ele><time>2022-09-06T12:31:49Z</time><name>PT5013</name></trkpt>
<trkpt lat="52.721747" lon="06.074946"><ele>0.1</ele><time>2022-09-06T12:31:51Z</time><name>PT5014</name></trkpt>
<trkpt lat="52.721748" lon="06.074929"><ele>0.2</ele><time>2022-09-06T12:31:51Z</time><name>PT5015</name></trkpt>
<trkpt lat="52.721748" lon="06.074911"><ele>0.3</ele><time>2022-09-06T12:31:52Z</time><name>PT5016</name></trkpt>
<trkpt lat="52.721745" lon="06.074893"><ele>0</ele><time>2022-09-06T12:31:54Z</time><name>PT5017</name></trkpt>
<trkpt lat="52.721742" lon="06.074876"><ele>0</ele><time>2022-09-06T12:31:54Z</time><name>PT5018</name></trkpt>
<trkpt lat="52.721738" lon="06.074855"><ele>0.1</ele><time>2022-09-06T12:31:55Z</time><name>PT5019</name></trkpt>
<trkpt lat="52.721733" lon="06.074833"><ele>0.1</ele><time>2022-09-06T12:31:57Z</time><name>PT5020</name></trkpt>
<trkpt lat="52.721731" lon="06.074814"><ele>0.2</ele><time>2022-09-06T12:31:57Z</time><name>PT5021</name></trkpt>
<trkpt lat="52.721728" lon="06.074799"><ele>0.1</ele><time>2022-09-06T12:31:58Z</time><name>PT5022</name></trkpt>
<trkpt lat="52.721727" lon="06.074785"><ele>0.2</ele><time>2022-09-06T12:32:00Z</time><name>PT5023</name></trkpt>
<trkpt lat="52.721726" lon="06.074770"><ele>0.2</ele><time>2022-09-06T12:32:00Z</time><name>PT5024</name></trkpt>
<trkpt lat="52.721723" lon="06.074754"><ele>0.1</ele><time>2022-09-06T12:32:01Z</time><name>PT5025</name></trkpt>
<trkpt lat="52.721721" lon="06.074736"><ele>0</ele><time>2022-09-06T12:32:03Z</time><name>PT5026</name></trkpt>
<trkpt lat="52.721720" lon="06.074713"><ele>0</ele><time>2022-09-06T12:32:03Z</time><name>PT5027</name></trkpt>
<trkpt lat="52.721719" lon="06.074695"><ele>0.1</ele><time>2022-09-06T12:32:04Z</time><name>PT5028</name></trkpt>
<trkpt lat="52.721716" lon="06.074676"><ele>0.1</ele><time>2022-09-06T12:32:06Z</time><name>PT5029</name></trkpt>
<trkpt lat="52.721713" lon="06.074658"><ele>0.1</ele><time>2022-09-06T12:32:06Z</time><name>PT5030</name></trkpt>
<trkpt lat="52.721709" lon="06.074642"><ele>0</ele><time>2022-09-06T12:32:07Z</time><name>PT5031</name></trkpt>
<trkpt lat="52.721707" lon="06.074624"><ele>0</ele><time>2022-09-06T12:32:09Z</time><name>PT5032</name></trkpt>
<trkpt lat="52.721705" lon="06.074603"><ele>0</ele><time>2022-09-06T12:32:09Z</time><name>PT5033</name></trkpt>
<trkpt lat="52.721706" lon="06.074586"><ele>0.1</ele><time>2022-09-06T12:32:10Z</time><name>PT5034</name></trkpt>
<trkpt lat="52.721708" lon="06.074570"><ele>0.2</ele><time>2022-09-06T12:32:12Z</time><name>PT5035</name></trkpt>
<trkpt lat="52.721710" lon="06.074556"><ele>0.2</ele><time>2022-09-06T12:32:12Z</time><name>PT5036</name></trkpt>
<trkpt lat="52.721711" lon="06.074543"><ele>0</ele><time>2022-09-06T12:32:13Z</time><name>PT5037</name></trkpt>
<trkpt lat="52.721713" lon="06.074527"><ele>0.2</ele><time>2022-09-06T12:32:15Z</time><name>PT5038</name></trkpt>
<trkpt lat="52.721713" lon="06.074511"><ele>0.1</ele><time>2022-09-06T12:32:15Z</time><name>PT5039</name></trkpt>
<trkpt lat="52.721713" lon="06.074497"><ele>0.3</ele><time>2022-09-06T12:32:16Z</time><name>PT5040</name></trkpt>
<trkpt lat="52.721714" lon="06.074484"><ele>0.1</ele><time>2022-09-06T12:32:18Z</time><name>PT5041</name></trkpt>
<trkpt lat="52.721715" lon="06.074467"><ele>0</ele><time>2022-09-06T12:32:18Z</time><name>PT5042</name></trkpt>
<trkpt lat="52.721720" lon="06.074454"><ele>0.1</ele><time>2022-09-06T12:32:19Z</time><name>PT5043</name></trkpt>
<trkpt lat="52.721721" lon="06.074437"><ele>0.1</ele><time>2022-09-06T12:32:21Z</time><name>PT5044</name></trkpt>
<trkpt lat="52.721721" lon="06.074420"><ele>0</ele><time>2022-09-06T12:32:21Z</time><name>PT5045</name></trkpt>
<trkpt lat="52.721723" lon="06.074403"><ele>0</ele><time>2022-09-06T12:32:22Z</time><name>PT5046</name></trkpt>
<trkpt lat="52.721723" lon="06.074386"><ele>0.1</ele><time>2022-09-06T12:32:24Z</time><name>PT5047</name></trkpt>
<trkpt lat="52.721723" lon="06.074370"><ele>0</ele><time>2022-09-06T12:32:24Z</time><name>PT5048</name></trkpt>
<trkpt lat="52.721725" lon="06.074353"><ele>0.1</ele><time>2022-09-06T12:32:25Z</time><name>PT5049</name></trkpt>
<trkpt lat="52.721728" lon="06.074334"><ele>0.1</ele><time>2022-09-06T12:32:27Z</time><name>PT5050</name></trkpt>
<trkpt lat="52.721732" lon="06.074316"><ele>0</ele><time>2022-09-06T12:32:27Z</time><name>PT5051</name></trkpt>
<trkpt lat="52.721737" lon="06.074302"><ele>0</ele><time>2022-09-06T12:32:28Z</time><name>PT5052</name></trkpt>
<trkpt lat="52.721741" lon="06.074289"><ele>0.1</ele><time>2022-09-06T12:32:30Z</time><name>PT5053</name></trkpt>
<trkpt lat="52.721742" lon="06.074274"><ele>0.2</ele><time>2022-09-06T12:32:30Z</time><name>PT5054</name></trkpt>
<trkpt lat="52.721745" lon="06.074256"><ele>0.2</ele><time>2022-09-06T12:32:31Z</time><name>PT5055</name></trkpt>
<trkpt lat="52.721748" lon="06.074240"><ele>0</ele><time>2022-09-06T12:32:33Z</time><name>PT5056</name></trkpt>
<trkpt lat="52.721751" lon="06.074220"><ele>0.1</ele><time>2022-09-06T12:32:33Z</time><name>PT5057</name></trkpt>
<trkpt lat="52.721754" lon="06.074198"><ele>0.1</ele><time>2022-09-06T12:32:34Z</time><name>PT5058</name></trkpt>
<trkpt lat="52.721756" lon="06.074178"><ele>0.2</ele><time>2022-09-06T12:32:36Z</time><name>PT5059</name></trkpt>
<trkpt lat="52.721758" lon="06.074165"><ele>0.1</ele><time>2022-09-06T12:32:36Z</time><name>PT5060</name></trkpt>
<trkpt lat="52.721761" lon="06.074150"><ele>0.1</ele><time>2022-09-06T12:32:37Z</time><name>PT5061</name></trkpt>
<trkpt lat="52.721765" lon="06.074133"><ele>0.1</ele><time>2022-09-06T12:32:39Z</time><name>PT5062</name></trkpt>
<trkpt lat="52.721768" lon="06.074113"><ele>0.1</ele><time>2022-09-06T12:32:39Z</time><name>PT5063</name></trkpt>
<trkpt lat="52.721770" lon="06.074094"><ele>0.1</ele><time>2022-09-06T12:32:40Z</time><name>PT5064</name></trkpt>
<trkpt lat="52.721775" lon="06.074077"><ele>0</ele><time>2022-09-06T12:32:42Z</time><name>PT5065</name></trkpt>
<trkpt lat="52.721779" lon="06.074060"><ele>0.1</ele><time>2022-09-06T12:32:42Z</time><name>PT5066</name></trkpt>
<trkpt lat="52.721783" lon="06.074041"><ele>0</ele><time>2022-09-06T12:32:43Z</time><name>PT5067</name></trkpt>
<trkpt lat="52.721786" lon="06.074023"><ele>0.1</ele><time>2022-09-06T12:32:45Z</time><name>PT5068</name></trkpt>
<trkpt lat="52.721791" lon="06.074007"><ele>0.2</ele><time>2022-09-06T12:32:45Z</time><name>PT5069</name></trkpt>
<trkpt lat="52.721796" lon="06.073991"><ele>0</ele><time>2022-09-06T12:32:46Z</time><name>PT5070</name></trkpt>
<trkpt lat="52.721800" lon="06.073973"><ele>0.1</ele><time>2022-09-06T12:32:48Z</time><name>PT5071</name></trkpt>
<trkpt lat="52.721803" lon="06.073952"><ele>0.1</ele><time>2022-09-06T12:32:48Z</time><name>PT5072</name></trkpt>
<trkpt lat="52.721806" lon="06.073933"><ele>0.2</ele><time>2022-09-06T12:32:50Z</time><name>PT5073</name></trkpt>
<trkpt lat="52.721809" lon="06.073912"><ele>0.1</ele><time>2022-09-06T12:32:51Z</time><name>PT5074</name></trkpt>
<trkpt lat="52.721813" lon="06.073893"><ele>0.1</ele><time>2022-09-06T12:32:51Z</time><name>PT5075</name></trkpt>
<trkpt lat="52.721817" lon="06.073878"><ele>0</ele><time>2022-09-06T12:32:52Z</time><name>PT5076</name></trkpt>
<trkpt lat="52.721820" lon="06.073860"><ele>0</ele><time>2022-09-06T12:32:54Z</time><name>PT5077</name></trkpt>
<trkpt lat="52.721822" lon="06.073844"><ele>0.1</ele><time>2022-09-06T12:32:54Z</time><name>PT5078</name></trkpt>
<trkpt lat="52.721824" lon="06.073828"><ele>0</ele><time>2022-09-06T12:32:55Z</time><name>PT5079</name></trkpt>
<trkpt lat="52.721828" lon="06.073811"><ele>0.2</ele><time>2022-09-06T12:32:57Z</time><name>PT5080</name></trkpt>
<trkpt lat="52.721832" lon="06.073795"><ele>0.3</ele><time>2022-09-06T12:32:57Z</time><name>PT5081</name></trkpt>
<trkpt lat="52.721834" lon="06.073780"><ele>0.3</ele><time>2022-09-06T12:32:58Z</time><name>PT5082</name></trkpt>
<trkpt lat="52.721837" lon="06.073765"><ele>0.4</ele><time>2022-09-06T12:33:00Z</time><name>PT5083</name></trkpt>
<trkpt lat="52.721842" lon="06.073748"><ele>0.5</ele><time>2022-09-06T12:33:00Z</time><name>PT5084</name></trkpt>
<trkpt lat="52.721845" lon="06.073730"><ele>0.2</ele><time>2022-09-06T12:33:01Z</time><name>PT5085</name></trkpt>
<trkpt lat="52.721849" lon="06.073714"><ele>0.2</ele><time>2022-09-06T12:33:03Z</time><name>PT5086</name></trkpt>
<trkpt lat="52.721852" lon="06.073698"><ele>0.1</ele><time>2022-09-06T12:33:03Z</time><name>PT5087</name></trkpt>
<trkpt lat="52.721854" lon="06.073678"><ele>0</ele><time>2022-09-06T12:33:04Z</time><name>PT5088</name></trkpt>
<trkpt lat="52.721857" lon="06.073655"><ele>0.1</ele><time>2022-09-06T12:33:06Z</time><name>PT5089</name></trkpt>
<trkpt lat="52.721856" lon="06.073641"><ele>0.2</ele><time>2022-09-06T12:33:06Z</time><name>PT5090</name></trkpt>
<trkpt lat="52.721855" lon="06.073620"><ele>0.3</ele><time>2022-09-06T12:33:07Z</time><name>PT5091</name></trkpt>
<trkpt lat="52.721854" lon="06.073608"><ele>0.5</ele><time>2022-09-06T12:33:09Z</time><name>PT5092</name></trkpt>
<trkpt lat="52.721855" lon="06.073602"><ele>0.8</ele><time>2022-09-06T12:33:09Z</time><name>PT5093</name></trkpt>
<trkpt lat="52.721856" lon="06.073603"><ele>0.9</ele><time>2022-09-06T12:33:10Z</time><name>PT5094</name></trkpt>
<trkpt lat="52.721860" lon="06.073596"><ele>1</ele><time>2022-09-06T12:33:12Z</time><name>PT5095</name></trkpt>
<trkpt lat="52.721859" lon="06.073583"><ele>0.8</ele><time>2022-09-06T12:33:12Z</time><name>PT5096</name></trkpt>
<trkpt lat="52.721863" lon="06.073579"><ele>0.6</ele><time>2022-09-06T12:33:13Z</time><name>PT5097</name></trkpt>
<trkpt lat="52.721868" lon="06.073572"><ele>0.9</ele><time>2022-09-06T12:33:33Z</time><name>PT5098</name></trkpt>
<trkpt lat="52.721871" lon="06.073564"><ele>0.8</ele><time>2022-09-06T12:33:33Z</time><name>PT5099</name></trkpt>
<trkpt lat="52.721873" lon="06.073556"><ele>0.8</ele><time>2022-09-06T12:33:34Z</time><name>PT5100</name></trkpt>
<trkpt lat="52.721878" lon="06.073544"><ele>0.8</ele><time>2022-09-06T12:33:36Z</time><name>PT5101</name></trkpt>
<trkpt lat="52.721880" lon="06.073532"><ele>0.8</ele><time>2022-09-06T12:33:36Z</time><name>PT5102</name></trkpt>
<trkpt lat="52.721881" lon="06.073517"><ele>0.7</ele><time>2022-09-06T12:33:37Z</time><name>PT5103</name></trkpt>
<trkpt lat="52.721882" lon="06.073499"><ele>0.8</ele><time>2022-09-06T12:33:39Z</time><name>PT5104</name></trkpt>
<trkpt lat="52.721883" lon="06.073482"><ele>0.7</ele><time>2022-09-06T12:33:39Z</time><name>PT5105</name></trkpt>
<trkpt lat="52.721886" lon="06.073465"><ele>0.8</ele><time>2022-09-06T12:33:40Z</time><name>PT5106</name></trkpt>
<trkpt lat="52.721889" lon="06.073449"><ele>0.9</ele><time>2022-09-06T12:33:42Z</time><name>PT5107</name></trkpt>
<trkpt lat="52.721892" lon="06.073432"><ele>0.9</ele><time>2022-09-06T12:33:42Z</time><name>PT5108</name></trkpt>
<trkpt lat="52.721895" lon="06.073415"><ele>0.9</ele><time>2022-09-06T12:33:43Z</time><name>PT5109</name></trkpt>
<trkpt lat="52.721900" lon="06.073399"><ele>0.8</ele><time>2022-09-06T12:33:45Z</time><name>PT5110</name></trkpt>
<trkpt lat="52.721905" lon="06.073381"><ele>0.8</ele><time>2022-09-06T12:33:45Z</time><name>PT5111</name></trkpt>
<trkpt lat="52.721908" lon="06.073360"><ele>0.6</ele><time>2022-09-06T12:33:46Z</time><name>PT5112</name></trkpt>
<trkpt lat="52.721913" lon="06.073339"><ele>0.5</ele><time>2022-09-06T12:33:48Z</time><name>PT5113</name></trkpt>
<trkpt lat="52.721915" lon="06.073318"><ele>0.6</ele><time>2022-09-06T12:33:48Z</time><name>PT5114</name></trkpt>
<trkpt lat="52.721919" lon="06.073301"><ele>0.5</ele><time>2022-09-06T12:33:49Z</time><name>PT5115</name></trkpt>
<trkpt lat="52.721922" lon="06.073285"><ele>0.3</ele><time>2022-09-06T12:33:51Z</time><name>PT5116</name></trkpt>
<trkpt lat="52.721924" lon="06.073270"><ele>0.3</ele><time>2022-09-06T12:33:51Z</time><name>PT5117</name></trkpt>
<trkpt lat="52.721926" lon="06.073253"><ele>0.3</ele><time>2022-09-06T12:33:52Z</time><name>PT5118</name></trkpt>
<trkpt lat="52.721927" lon="06.073237"><ele>0.3</ele><time>2022-09-06T12:33:54Z</time><name>PT5119</name></trkpt>
<trkpt lat="52.721927" lon="06.073217"><ele>0.3</ele><time>2022-09-06T12:33:54Z</time><name>PT5120</name></trkpt>
<trkpt lat="52.721928" lon="06.073198"><ele>0.3</ele><time>2022-09-06T12:33:55Z</time><name>PT5121</name></trkpt>
<trkpt lat="52.721926" lon="06.073180"><ele>0.3</ele><time>2022-09-06T12:33:57Z</time><name>PT5122</name></trkpt>
<trkpt lat="52.721925" lon="06.073162"><ele>0.3</ele><time>2022-09-06T12:33:57Z</time><name>PT5123</name></trkpt>
<trkpt lat="52.721926" lon="06.073145"><ele>0.3</ele><time>2022-09-06T12:33:58Z</time><name>PT5124</name></trkpt>
<trkpt lat="52.721927" lon="06.073129"><ele>0.3</ele><time>2022-09-06T12:34:00Z</time><name>PT5125</name></trkpt>
<trkpt lat="52.721927" lon="06.073113"><ele>0.2</ele><time>2022-09-06T12:34:00Z</time><name>PT5126</name></trkpt>
<trkpt lat="52.721927" lon="06.073097"><ele>0.3</ele><time>2022-09-06T12:34:01Z</time><name>PT5127</name></trkpt>
<trkpt lat="52.721926" lon="06.073080"><ele>0.5</ele><time>2022-09-06T12:34:03Z</time><name>PT5128</name></trkpt>
<trkpt lat="52.721925" lon="06.073060"><ele>0.5</ele><time>2022-09-06T12:34:03Z</time><name>PT5129</name></trkpt>
<trkpt lat="52.721925" lon="06.073044"><ele>0.3</ele><time>2022-09-06T12:34:05Z</time><name>PT5130</name></trkpt>
<trkpt lat="52.721924" lon="06.073034"><ele>0.3</ele><time>2022-09-06T12:34:06Z</time><name>PT5131</name></trkpt>
<trkpt lat="52.721923" lon="06.073026"><ele>0.1</ele><time>2022-09-06T12:34:06Z</time><name>PT5132</name></trkpt>
<trkpt lat="52.721925" lon="06.073017"><ele>0</ele><time>2022-09-06T12:34:07Z</time><name>PT5133</name></trkpt>
<trkpt lat="52.721926" lon="06.073005"><ele>0.2</ele><time>2022-09-06T12:34:09Z</time><name>PT5134</name></trkpt>
<trkpt lat="52.721928" lon="06.072989"><ele>0.2</ele><time>2022-09-06T12:34:09Z</time><name>PT5135</name></trkpt>
<trkpt lat="52.721930" lon="06.072969"><ele>0.1</ele><time>2022-09-06T12:34:10Z</time><name>PT5136</name></trkpt>
<trkpt lat="52.721929" lon="06.072943"><ele>0</ele><time>2022-09-06T12:34:12Z</time><name>PT5137</name></trkpt>
<trkpt lat="52.721927" lon="06.072911"><ele>0</ele><time>2022-09-06T12:34:12Z</time><name>PT5138</name></trkpt>
<trkpt lat="52.721925" lon="06.072876"><ele>0</ele><time>2022-09-06T12:34:13Z</time><name>PT5139</name></trkpt>
<trkpt lat="52.721922" lon="06.072841"><ele>0.1</ele><time>2022-09-06T12:34:15Z</time><name>PT5140</name></trkpt>
<trkpt lat="52.721920" lon="06.072816"><ele>0.1</ele><time>2022-09-06T12:34:15Z</time><name>PT5141</name></trkpt>
<trkpt lat="52.721918" lon="06.072796"><ele>0</ele><time>2022-09-06T12:34:16Z</time><name>PT5142</name></trkpt>
<trkpt lat="52.721916" lon="06.072782"><ele>0</ele><time>2022-09-06T12:34:18Z</time><name>PT5143</name></trkpt>
<trkpt lat="52.721916" lon="06.072769"><ele>0</ele><time>2022-09-06T12:34:18Z</time><name>PT5144</name></trkpt>
<trkpt lat="52.721916" lon="06.072751"><ele>0.1</ele><time>2022-09-06T12:34:20Z</time><name>PT5145</name></trkpt>
<trkpt lat="52.721916" lon="06.072731"><ele>0</ele><time>2022-09-06T12:34:21Z</time><name>PT5146</name></trkpt>
<trkpt lat="52.721918" lon="06.072713"><ele>0.1</ele><time>2022-09-06T12:34:21Z</time><name>PT5147</name></trkpt>
<trkpt lat="52.721918" lon="06.072691"><ele>0</ele><time>2022-09-06T12:34:22Z</time><name>PT5148</name></trkpt>
<trkpt lat="52.721919" lon="06.072663"><ele>0.1</ele><time>2022-09-06T12:34:24Z</time><name>PT5149</name></trkpt>
<trkpt lat="52.721919" lon="06.072638"><ele>0.2</ele><time>2022-09-06T12:34:24Z</time><name>PT5150</name></trkpt>
<trkpt lat="52.721919" lon="06.072621"><ele>0.1</ele><time>2022-09-06T12:34:25Z</time><name>PT5151</name></trkpt>
<trkpt lat="52.721918" lon="06.072610"><ele>0.1</ele><time>2022-09-06T12:34:27Z</time><name>PT5152</name></trkpt>
<trkpt lat="52.721917" lon="06.072601"><ele>0.1</ele><time>2022-09-06T12:34:27Z</time><name>PT5153</name></trkpt>
<trkpt lat="52.721918" lon="06.072589"><ele>0.1</ele><time>2022-09-06T12:34:28Z</time><name>PT5154</name></trkpt>
<trkpt lat="52.721920" lon="06.072574"><ele>0</ele><time>2022-09-06T12:34:30Z</time><name>PT5155</name></trkpt>
<trkpt lat="52.721918" lon="06.072552"><ele>0</ele><time>2022-09-06T12:34:30Z</time><name>PT5156</name></trkpt>
<trkpt lat="52.721918" lon="06.072525"><ele>0</ele><time>2022-09-06T12:34:31Z</time><name>PT5157</name></trkpt>
<trkpt lat="52.721916" lon="06.072495"><ele>0</ele><time>2022-09-06T12:34:33Z</time><name>PT5158</name></trkpt>
<trkpt lat="52.721915" lon="06.072466"><ele>0</ele><time>2022-09-06T12:34:33Z</time><name>PT5159</name></trkpt>
<trkpt lat="52.721914" lon="06.072440"><ele>0</ele><time>2022-09-06T12:34:34Z</time><name>PT5160</name></trkpt>
<trkpt lat="52.721913" lon="06.072421"><ele>0.1</ele><time>2022-09-06T12:34:36Z</time><name>PT5161</name></trkpt>
<trkpt lat="52.721913" lon="06.072408"><ele>0.1</ele><time>2022-09-06T12:34:36Z</time><name>PT5162</name></trkpt>
<trkpt lat="52.721914" lon="06.072398"><ele>0.2</ele><time>2022-09-06T12:34:37Z</time><name>PT5163</name></trkpt>
<trkpt lat="52.721915" lon="06.072385"><ele>0.1</ele><time>2022-09-06T12:34:39Z</time><name>PT5164</name></trkpt>
<trkpt lat="52.721915" lon="06.072372"><ele>0.1</ele><time>2022-09-06T12:34:39Z</time><name>PT5165</name></trkpt>
<trkpt lat="52.721916" lon="06.072359"><ele>0.1</ele><time>2022-09-06T12:34:40Z</time><name>PT5166</name></trkpt>
<trkpt lat="52.721919" lon="06.072345"><ele>0.1</ele><time>2022-09-06T12:34:42Z</time><name>PT5167</name></trkpt>
<trkpt lat="52.721920" lon="06.072329"><ele>0.1</ele><time>2022-09-06T12:34:42Z</time><name>PT5168</name></trkpt>
<trkpt lat="52.721921" lon="06.072307"><ele>0.2</ele><time>2022-09-06T12:34:43Z</time><name>PT5169</name></trkpt>
<trkpt lat="52.721922" lon="06.072282"><ele>0.3</ele><time>2022-09-06T12:34:45Z</time><name>PT5170</name></trkpt>
<trkpt lat="52.721920" lon="06.072256"><ele>0.3</ele><time>2022-09-06T12:34:45Z</time><name>PT5171</name></trkpt>
<trkpt lat="52.721917" lon="06.072230"><ele>0.2</ele><time>2022-09-06T12:34:46Z</time><name>PT5172</name></trkpt>
<trkpt lat="52.721913" lon="06.072205"><ele>0.1</ele><time>2022-09-06T12:34:48Z</time><name>PT5173</name></trkpt>
<trkpt lat="52.721908" lon="06.072182"><ele>0.1</ele><time>2022-09-06T12:34:48Z</time><name>PT5174</name></trkpt>
<trkpt lat="52.721904" lon="06.072165"><ele>0</ele><time>2022-09-06T12:34:49Z</time><name>PT5175</name></trkpt>
<trkpt lat="52.721902" lon="06.072155"><ele>0</ele><time>2022-09-06T12:34:51Z</time><name>PT5176</name></trkpt>
<trkpt lat="52.721902" lon="06.072147"><ele>0.1</ele><time>2022-09-06T12:34:51Z</time><name>PT5177</name></trkpt>
<trkpt lat="52.721900" lon="06.072139"><ele>0</ele><time>2022-09-06T12:34:52Z</time><name>PT5178</name></trkpt>
<trkpt lat="52.721899" lon="06.072126"><ele>0</ele><time>2022-09-06T12:34:54Z</time><name>PT5179</name></trkpt>
<trkpt lat="52.721898" lon="06.072104"><ele>0.1</ele><time>2022-09-06T12:34:54Z</time><name>PT5180</name></trkpt>
<trkpt lat="52.721889" lon="06.072085"><ele>0.1</ele><time>2022-09-06T12:34:55Z</time><name>PT5181</name></trkpt>
<trkpt lat="52.721884" lon="06.072070"><ele>0.2</ele><time>2022-09-06T12:34:57Z</time><name>PT5182</name></trkpt>
<trkpt lat="52.721879" lon="06.072054"><ele>0.3</ele><time>2022-09-06T12:34:57Z</time><name>PT5183</name></trkpt>
<trkpt lat="52.721875" lon="06.072031"><ele>0.3</ele><time>2022-09-06T12:34:59Z</time><name>PT5184</name></trkpt>
<trkpt lat="52.721868" lon="06.072016"><ele>0.5</ele><time>2022-09-06T12:35:00Z</time><name>PT5185</name></trkpt>
<trkpt lat="52.721864" lon="06.072002"><ele>0.5</ele><time>2022-09-06T12:35:00Z</time><name>PT5186</name></trkpt>
<trkpt lat="52.721863" lon="06.071992"><ele>0.5</ele><time>2022-09-06T12:35:01Z</time><name>PT5187</name></trkpt>
<trkpt lat="52.721863" lon="06.071984"><ele>0.3</ele><time>2022-09-06T12:35:03Z</time><name>PT5188</name></trkpt>
<trkpt lat="52.721864" lon="06.071976"><ele>0.3</ele><time>2022-09-06T12:35:03Z</time><name>PT5189</name></trkpt>
<trkpt lat="52.721866" lon="06.071968"><ele>0.3</ele><time>2022-09-06T12:35:04Z</time><name>PT5190</name></trkpt>
<trkpt lat="52.721867" lon="06.071953"><ele>0.3</ele><time>2022-09-06T12:35:06Z</time><name>PT5191</name></trkpt>
<trkpt lat="52.721867" lon="06.071934"><ele>0.3</ele><time>2022-09-06T12:35:06Z</time><name>PT5192</name></trkpt>
<trkpt lat="52.721870" lon="06.071913"><ele>0.3</ele><time>2022-09-06T12:35:07Z</time><name>PT5193</name></trkpt>
<trkpt lat="52.721872" lon="06.071889"><ele>0.5</ele><time>2022-09-06T12:35:09Z</time><name>PT5194</name></trkpt>
<trkpt lat="52.721872" lon="06.071861"><ele>0.5</ele><time>2022-09-06T12:35:09Z</time><name>PT5195</name></trkpt>
<trkpt lat="52.721872" lon="06.071831"><ele>0.6</ele><time>2022-09-06T12:35:10Z</time><name>PT5196</name></trkpt>
<trkpt lat="52.721871" lon="06.071805"><ele>0.8</ele><time>2022-09-06T12:35:12Z</time><name>PT5197</name></trkpt>
<trkpt lat="52.721873" lon="06.071783"><ele>0.8</ele><time>2022-09-06T12:35:12Z</time><name>PT5198</name></trkpt>
<trkpt lat="52.721872" lon="06.071766"><ele>0.6</ele><time>2022-09-06T12:35:14Z</time><name>PT5199</name></trkpt>
<trkpt lat="52.721871" lon="06.071755"><ele>0.8</ele><time>2022-09-06T12:35:15Z</time><name>PT5200</name></trkpt>
<trkpt lat="52.721872" lon="06.071748"><ele>0.9</ele><time>2022-09-06T12:35:15Z</time><name>PT5201</name></trkpt>
<trkpt lat="52.721875" lon="06.071742"><ele>0.8</ele><time>2022-09-06T12:35:16Z</time><name>PT5202</name></trkpt>
<trkpt lat="52.721878" lon="06.071731"><ele>0.9</ele><time>2022-09-06T12:35:18Z</time><name>PT5203</name></trkpt>
<trkpt lat="52.721880" lon="06.071722"><ele>0.9</ele><time>2022-09-06T12:35:18Z</time><name>PT5204</name></trkpt>
<trkpt lat="52.721882" lon="06.071702"><ele>0.8</ele><time>2022-09-06T12:35:19Z</time><name>PT5205</name></trkpt>
<trkpt lat="52.721885" lon="06.071672"><ele>0.7</ele><time>2022-09-06T12:35:21Z</time><name>PT5206</name></trkpt>
<trkpt lat="52.721886" lon="06.071639"><ele>0.8</ele><time>2022-09-06T12:35:21Z</time><name>PT5207</name></trkpt>
<trkpt lat="52.721888" lon="06.071608"><ele>0.8</ele><time>2022-09-06T12:35:22Z</time><name>PT5208</name></trkpt>
<trkpt lat="52.721888" lon="06.071590"><ele>0.8</ele><time>2022-09-06T12:35:24Z</time><name>PT5209</name></trkpt>
<trkpt lat="52.721889" lon="06.071580"><ele>0.9</ele><time>2022-09-06T12:35:24Z</time><name>PT5210</name></trkpt>
<trkpt lat="52.721890" lon="06.071573"><ele>0.9</ele><time>2022-09-06T12:35:25Z</time><name>PT5211</name></trkpt>
<trkpt lat="52.721893" lon="06.071562"><ele>0.6</ele><time>2022-09-06T12:35:27Z</time><name>PT5212</name></trkpt>
<trkpt lat="52.721898" lon="06.071547"><ele>0.5</ele><time>2022-09-06T12:35:27Z</time><name>PT5213</name></trkpt>
<trkpt lat="52.721903" lon="06.071525"><ele>0.4</ele><time>2022-09-06T12:35:28Z</time><name>PT5214</name></trkpt>
<trkpt lat="52.721906" lon="06.071499"><ele>0.4</ele><time>2022-09-06T12:35:30Z</time><name>PT5215</name></trkpt>
<trkpt lat="52.721910" lon="06.071475"><ele>0.3</ele><time>2022-09-06T12:35:30Z</time><name>PT5216</name></trkpt>
<trkpt lat="52.721914" lon="06.071453"><ele>0.6</ele><time>2022-09-06T12:35:31Z</time><name>PT5217</name></trkpt>
<trkpt lat="52.721911" lon="06.071429"><ele>0.8</ele><time>2022-09-06T12:35:33Z</time><name>PT5218</name></trkpt>
<trkpt lat="52.721913" lon="06.071413"><ele>0.8</ele><time>2022-09-06T12:35:33Z</time><name>PT5219</name></trkpt>
<trkpt lat="52.721913" lon="06.071400"><ele>0.9</ele><time>2022-09-06T12:35:34Z</time><name>PT5220</name></trkpt>
<trkpt lat="52.721914" lon="06.071382"><ele>1</ele><time>2022-09-06T12:35:36Z</time><name>PT5221</name></trkpt>
<trkpt lat="52.721913" lon="06.071365"><ele>1</ele><time>2022-09-06T12:35:36Z</time><name>PT5222</name></trkpt>
<trkpt lat="52.721912" lon="06.071352"><ele>1</ele><time>2022-09-06T12:35:37Z</time><name>PT5223</name></trkpt>
<trkpt lat="52.721915" lon="06.071346"><ele>0.8</ele><time>2022-09-06T12:35:39Z</time><name>PT5224</name></trkpt>
<trkpt lat="52.721917" lon="06.071331"><ele>0.8</ele><time>2022-09-06T12:35:39Z</time><name>PT5225</name></trkpt>
<trkpt lat="52.721919" lon="06.071304"><ele>0.6</ele><time>2022-09-06T12:35:40Z</time><name>PT5226</name></trkpt>
<trkpt lat="52.721918" lon="06.071286"><ele>0.4</ele><time>2022-09-06T12:35:42Z</time><name>PT5227</name></trkpt>
<trkpt lat="52.721917" lon="06.071260"><ele>0.3</ele><time>2022-09-06T12:35:42Z</time><name>PT5228</name></trkpt>
<trkpt lat="52.721919" lon="06.071236"><ele>0.2</ele><time>2022-09-06T12:35:43Z</time><name>PT5229</name></trkpt>
<trkpt lat="52.721919" lon="06.071216"><ele>0.3</ele><time>2022-09-06T12:35:45Z</time><name>PT5230</name></trkpt>
<trkpt lat="52.721917" lon="06.071196"><ele>0.4</ele><time>2022-09-06T12:35:45Z</time><name>PT5231</name></trkpt>
<trkpt lat="52.721911" lon="06.071177"><ele>0.4</ele><time>2022-09-06T12:35:46Z</time><name>PT5232</name></trkpt>
<trkpt lat="52.721908" lon="06.071160"><ele>0.3</ele><time>2022-09-06T12:35:48Z</time><name>PT5233</name></trkpt>
<trkpt lat="52.721907" lon="06.071145"><ele>0.3</ele><time>2022-09-06T12:35:48Z</time><name>PT5234</name></trkpt>
<trkpt lat="52.721907" lon="06.071127"><ele>0.3</ele><time>2022-09-06T12:35:49Z</time><name>PT5235</name></trkpt>
<trkpt lat="52.721909" lon="06.071110"><ele>0.2</ele><time>2022-09-06T12:35:51Z</time><name>PT5236</name></trkpt>
<trkpt lat="52.721908" lon="06.071092"><ele>0</ele><time>2022-09-06T12:35:51Z</time><name>PT5237</name></trkpt>
<trkpt lat="52.721908" lon="06.071073"><ele>0</ele><time>2022-09-06T12:35:52Z</time><name>PT5238</name></trkpt>
<trkpt lat="52.721906" lon="06.071047"><ele>0</ele><time>2022-09-06T12:35:54Z</time><name>PT5239</name></trkpt>
<trkpt lat="52.721901" lon="06.071018"><ele>0.1</ele><time>2022-09-06T12:35:54Z</time><name>PT5240</name></trkpt>
<trkpt lat="52.721900" lon="06.070994"><ele>0.2</ele><time>2022-09-06T12:35:55Z</time><name>PT5241</name></trkpt>
<trkpt lat="52.721899" lon="06.070976"><ele>0.2</ele><time>2022-09-06T12:35:57Z</time><name>PT5242</name></trkpt>
<trkpt lat="52.721897" lon="06.070966"><ele>0.3</ele><time>2022-09-06T12:35:57Z</time><name>PT5243</name></trkpt>
<trkpt lat="52.721896" lon="06.070959"><ele>0.1</ele><time>2022-09-06T12:35:58Z</time><name>PT5244</name></trkpt>
<trkpt lat="52.721895" lon="06.070951"><ele>0.1</ele><time>2022-09-06T12:36:00Z</time><name>PT5245</name></trkpt>
<trkpt lat="52.721895" lon="06.070939"><ele>0</ele><time>2022-09-06T12:36:00Z</time><name>PT5246</name></trkpt>
<trkpt lat="52.721894" lon="06.070925"><ele>0.1</ele><time>2022-09-06T12:36:01Z</time><name>PT5247</name></trkpt>
<trkpt lat="52.721896" lon="06.070908"><ele>0</ele><time>2022-09-06T12:36:03Z</time><name>PT5248</name></trkpt>
<trkpt lat="52.721898" lon="06.070883"><ele>0.1</ele><time>2022-09-06T12:36:03Z</time><name>PT5249</name></trkpt>
<trkpt lat="52.721897" lon="06.070857"><ele>0</ele><time>2022-09-06T12:36:04Z</time><name>PT5250</name></trkpt>
<trkpt lat="52.721897" lon="06.070833"><ele>0.1</ele><time>2022-09-06T12:36:06Z</time><name>PT5251</name></trkpt>
<trkpt lat="52.721897" lon="06.070814"><ele>0.1</ele><time>2022-09-06T12:36:06Z</time><name>PT5252</name></trkpt>
<trkpt lat="52.721896" lon="06.070799"><ele>0.3</ele><time>2022-09-06T12:36:07Z</time><name>PT5253</name></trkpt>
<trkpt lat="52.721896" lon="06.070786"><ele>0.2</ele><time>2022-09-06T12:36:09Z</time><name>PT5254</name></trkpt>
<trkpt lat="52.721893" lon="06.070775"><ele>0.3</ele><time>2022-09-06T12:36:09Z</time><name>PT5255</name></trkpt>
<trkpt lat="52.721892" lon="06.070764"><ele>0.1</ele><time>2022-09-06T12:36:10Z</time><name>PT5256</name></trkpt>
<trkpt lat="52.721892" lon="06.070751"><ele>0</ele><time>2022-09-06T12:36:12Z</time><name>PT5257</name></trkpt>
<trkpt lat="52.721891" lon="06.070735"><ele>0.1</ele><time>2022-09-06T12:36:12Z</time><name>PT5258</name></trkpt>
<trkpt lat="52.721891" lon="06.070715"><ele>0.1</ele><time>2022-09-06T12:36:13Z</time><name>PT5259</name></trkpt>
<trkpt lat="52.721892" lon="06.070696"><ele>0.2</ele><time>2022-09-06T12:36:15Z</time><name>PT5260</name></trkpt>
<trkpt lat="52.721893" lon="06.070676"><ele>0.2</ele><time>2022-09-06T12:36:15Z</time><name>PT5261</name></trkpt>
<trkpt lat="52.721892" lon="06.070656"><ele>0</ele><time>2022-09-06T12:36:16Z</time><name>PT5262</name></trkpt>
<trkpt lat="52.721893" lon="06.070630"><ele>0</ele><time>2022-09-06T12:36:18Z</time><name>PT5263</name></trkpt>
<trkpt lat="52.721892" lon="06.070605"><ele>0.1</ele><time>2022-09-06T12:36:18Z</time><name>PT5264</name></trkpt>
<trkpt lat="52.721889" lon="06.070588"><ele>0.1</ele><time>2022-09-06T12:36:19Z</time><name>PT5265</name></trkpt>
<trkpt lat="52.721889" lon="06.070578"><ele>0.1</ele><time>2022-09-06T12:36:21Z</time><name>PT5266</name></trkpt>
<trkpt lat="52.721888" lon="06.070572"><ele>0.2</ele><time>2022-09-06T12:36:21Z</time><name>PT5267</name></trkpt>
<trkpt lat="52.721886" lon="06.070564"><ele>0.1</ele><time>2022-09-06T12:36:22Z</time><name>PT5268</name></trkpt>
<trkpt lat="52.721881" lon="06.070549"><ele>0.1</ele><time>2022-09-06T12:36:24Z</time><name>PT5269</name></trkpt>
<trkpt lat="52.721876" lon="06.070534"><ele>0.1</ele><time>2022-09-06T12:36:24Z</time><name>PT5270</name></trkpt>
<trkpt lat="52.721873" lon="06.070522"><ele>0.2</ele><time>2022-09-06T12:36:25Z</time><name>PT5271</name></trkpt>
<trkpt lat="52.721872" lon="06.070514"><ele>0.1</ele><time>2022-09-06T12:36:27Z</time><name>PT5272</name></trkpt>
<trkpt lat="52.721871" lon="06.070503"><ele>0.1</ele><time>2022-09-06T12:36:27Z</time><name>PT5273</name></trkpt>
<trkpt lat="52.721870" lon="06.070486"><ele>0.1</ele><time>2022-09-06T12:36:28Z</time><name>PT5274</name></trkpt>
<trkpt lat="52.721869" lon="06.070463"><ele>0</ele><time>2022-09-06T12:36:30Z</time><name>PT5275</name></trkpt>
<trkpt lat="52.721867" lon="06.070441"><ele>0</ele><time>2022-09-06T12:36:30Z</time><name>PT5276</name></trkpt>
<trkpt lat="52.721864" lon="06.070419"><ele>0.1</ele><time>2022-09-06T12:36:31Z</time><name>PT5277</name></trkpt>
<trkpt lat="52.721860" lon="06.070407"><ele>0.2</ele><time>2022-09-06T12:36:33Z</time><name>PT5278</name></trkpt>
<trkpt lat="52.721862" lon="06.070405"><ele>0</ele><time>2022-09-06T12:36:33Z</time><name>PT5279</name></trkpt>
<trkpt lat="52.721861" lon="06.070403"><ele>0.1</ele><time>2022-09-06T12:36:34Z</time><name>PT5280</name></trkpt>
<trkpt lat="52.721859" lon="06.070404"><ele>0.2</ele><time>2022-09-06T12:36:36Z</time><name>PT5281</name></trkpt>
<trkpt lat="52.721859" lon="06.070403"><ele>0.1</ele><time>2022-09-06T12:36:36Z</time><name>PT5282</name></trkpt>
<trkpt lat="52.721857" lon="06.070394"><ele>0</ele><time>2022-09-06T12:36:43Z</time><name>PT5283</name></trkpt>
<trkpt lat="52.721854" lon="06.070370"><ele>0.3</ele><time>2022-09-06T12:36:45Z</time><name>PT5284</name></trkpt>
<trkpt lat="52.721852" lon="06.070351"><ele>0.3</ele><time>2022-09-06T12:36:45Z</time><name>PT5285</name></trkpt>
<trkpt lat="52.721854" lon="06.070341"><ele>0.4</ele><time>2022-09-06T12:36:46Z</time><name>PT5286</name></trkpt>
<trkpt lat="52.721852" lon="06.070332"><ele>0.4</ele><time>2022-09-06T12:36:48Z</time><name>PT5287</name></trkpt>
<trkpt lat="52.721854" lon="06.070327"><ele>0.4</ele><time>2022-09-06T12:36:48Z</time><name>PT5288</name></trkpt>
<trkpt lat="52.721856" lon="06.070308"><ele>0.3</ele><time>2022-09-06T12:36:49Z</time><name>PT5289</name></trkpt>
<trkpt lat="52.721851" lon="06.070281"><ele>0</ele><time>2022-09-06T12:36:51Z</time><name>PT5290</name></trkpt>
<trkpt lat="52.721852" lon="06.070254"><ele>0</ele><time>2022-09-06T12:36:51Z</time><name>PT5291</name></trkpt>
<trkpt lat="52.721854" lon="06.070226"><ele>0.1</ele><time>2022-09-06T12:36:52Z</time><name>PT5292</name></trkpt>
<trkpt lat="52.721855" lon="06.070196"><ele>0.1</ele><time>2022-09-06T12:36:54Z</time><name>PT5293</name></trkpt>
<trkpt lat="52.721855" lon="06.070174"><ele>0.1</ele><time>2022-09-06T12:36:54Z</time><name>PT5294</name></trkpt>
<trkpt lat="52.721855" lon="06.070158"><ele>0.1</ele><time>2022-09-06T12:36:55Z</time><name>PT5295</name></trkpt>
<trkpt lat="52.721855" lon="06.070144"><ele>0.1</ele><time>2022-09-06T12:36:57Z</time><name>PT5296</name></trkpt>
<trkpt lat="52.721853" lon="06.070133"><ele>0.1</ele><time>2022-09-06T12:36:57Z</time><name>PT5297</name></trkpt>
<trkpt lat="52.721853" lon="06.070121"><ele>0</ele><time>2022-09-06T12:36:58Z</time><name>PT5298</name></trkpt>
<trkpt lat="52.721855" lon="06.070108"><ele>0.1</ele><time>2022-09-06T12:37:00Z</time><name>PT5299</name></trkpt>
<trkpt lat="52.721857" lon="06.070093"><ele>0.2</ele><time>2022-09-06T12:37:00Z</time><name>PT5300</name></trkpt>
<trkpt lat="52.721858" lon="06.070075"><ele>0.1</ele><time>2022-09-06T12:37:01Z</time><name>PT5301</name></trkpt>
<trkpt lat="52.721859" lon="06.070055"><ele>0.1</ele><time>2022-09-06T12:37:03Z</time><name>PT5302</name></trkpt>
<trkpt lat="52.721859" lon="06.070034"><ele>0.2</ele><time>2022-09-06T12:37:03Z</time><name>PT5303</name></trkpt>
<trkpt lat="52.721859" lon="06.070011"><ele>0.1</ele><time>2022-09-06T12:37:04Z</time><name>PT5304</name></trkpt>
<trkpt lat="52.721853" lon="06.069985"><ele>0.1</ele><time>2022-09-06T12:37:06Z</time><name>PT5305</name></trkpt>
<trkpt lat="52.721853" lon="06.069960"><ele>0.2</ele><time>2022-09-06T12:37:06Z</time><name>PT5306</name></trkpt>
<trkpt lat="52.721850" lon="06.069930"><ele>0.3</ele><time>2022-09-06T12:37:07Z</time><name>PT5307</name></trkpt>
<trkpt lat="52.721846" lon="06.069900"><ele>0.3</ele><time>2022-09-06T12:37:09Z</time><name>PT5308</name></trkpt>
<trkpt lat="52.721843" lon="06.069877"><ele>0.2</ele><time>2022-09-06T12:37:09Z</time><name>PT5309</name></trkpt>
<trkpt lat="52.721843" lon="06.069863"><ele>0.2</ele><time>2022-09-06T12:37:10Z</time><name>PT5310</name></trkpt>
<trkpt lat="52.721844" lon="06.069854"><ele>0.3</ele><time>2022-09-06T12:37:12Z</time><name>PT5311</name></trkpt>
<trkpt lat="52.721844" lon="06.069846"><ele>0.1</ele><time>2022-09-06T12:37:12Z</time><name>PT5312</name></trkpt>
<trkpt lat="52.721842" lon="06.069835"><ele>0.2</ele><time>2022-09-06T12:37:13Z</time><name>PT5313</name></trkpt>
<trkpt lat="52.721841" lon="06.069821"><ele>0.3</ele><time>2022-09-06T12:37:15Z</time><name>PT5314</name></trkpt>
<trkpt lat="52.721844" lon="06.069804"><ele>0.3</ele><time>2022-09-06T12:37:15Z</time><name>PT5315</name></trkpt>
<trkpt lat="52.721841" lon="06.069776"><ele>0.3</ele><time>2022-09-06T12:37:16Z</time><name>PT5316</name></trkpt>
<trkpt lat="52.721835" lon="06.069754"><ele>0.5</ele><time>2022-09-06T12:37:18Z</time><name>PT5317</name></trkpt>
<trkpt lat="52.721835" lon="06.069728"><ele>0.5</ele><time>2022-09-06T12:37:18Z</time><name>PT5318</name></trkpt>
<trkpt lat="52.721836" lon="06.069698"><ele>0.3</ele><time>2022-09-06T12:37:19Z</time><name>PT5319</name></trkpt>
<trkpt lat="52.721834" lon="06.069671"><ele>0.3</ele><time>2022-09-06T12:37:21Z</time><name>PT5320</name></trkpt>
<trkpt lat="52.721836" lon="06.069647"><ele>0.2</ele><time>2022-09-06T12:37:21Z</time><name>PT5321</name></trkpt>
<trkpt lat="52.721835" lon="06.069625"><ele>0</ele><time>2022-09-06T12:37:22Z</time><name>PT5322</name></trkpt>
<trkpt lat="52.721833" lon="06.069611"><ele>0.1</ele><time>2022-09-06T12:37:24Z</time><name>PT5323</name></trkpt>
<trkpt lat="52.721830" lon="06.069599"><ele>0.2</ele><time>2022-09-06T12:37:24Z</time><name>PT5324</name></trkpt>
<trkpt lat="52.721830" lon="06.069585"><ele>0.3</ele><time>2022-09-06T12:37:25Z</time><name>PT5325</name></trkpt>
<trkpt lat="52.721831" lon="06.069573"><ele>0.3</ele><time>2022-09-06T12:37:27Z</time><name>PT5326</name></trkpt>
<trkpt lat="52.721826" lon="06.069562"><ele>0.4</ele><time>2022-09-06T12:37:27Z</time><name>PT5327</name></trkpt>
<trkpt lat="52.721825" lon="06.069545"><ele>0.5</ele><time>2022-09-06T12:37:28Z</time><name>PT5328</name></trkpt>
<trkpt lat="52.721826" lon="06.069524"><ele>0.5</ele><time>2022-09-06T12:37:30Z</time><name>PT5329</name></trkpt>
<trkpt lat="52.721828" lon="06.069500"><ele>0.5</ele><time>2022-09-06T12:37:30Z</time><name>PT5330</name></trkpt>
<trkpt lat="52.721831" lon="06.069480"><ele>0.6</ele><time>2022-09-06T12:37:31Z</time><name>PT5331</name></trkpt>
<trkpt lat="52.721833" lon="06.069459"><ele>0.6</ele><time>2022-09-06T12:37:33Z</time><name>PT5332</name></trkpt>
<trkpt lat="52.721831" lon="06.069429"><ele>0.6</ele><time>2022-09-06T12:37:33Z</time><name>PT5333</name></trkpt>
<trkpt lat="52.721829" lon="06.069403"><ele>0.5</ele><time>2022-09-06T12:37:34Z</time><name>PT5334</name></trkpt>
<trkpt lat="52.721833" lon="06.069386"><ele>0.6</ele><time>2022-09-06T12:37:36Z</time><name>PT5335</name></trkpt>
<trkpt lat="52.721836" lon="06.069374"><ele>0.6</ele><time>2022-09-06T12:37:36Z</time><name>PT5336</name></trkpt>
<trkpt lat="52.721835" lon="06.069364"><ele>0.6</ele><time>2022-09-06T12:37:37Z</time><name>PT5337</name></trkpt>
<trkpt lat="52.721836" lon="06.069355"><ele>0.6</ele><time>2022-09-06T12:37:39Z</time><name>PT5338</name></trkpt>
<trkpt lat="52.721836" lon="06.069344"><ele>0.5</ele><time>2022-09-06T12:37:39Z</time><name>PT5339</name></trkpt>
<trkpt lat="52.721838" lon="06.069332"><ele>0.3</ele><time>2022-09-06T12:37:40Z</time><name>PT5340</name></trkpt>
<trkpt lat="52.721839" lon="06.069318"><ele>0.3</ele><time>2022-09-06T12:37:42Z</time><name>PT5341</name></trkpt>
<trkpt lat="52.721839" lon="06.069301"><ele>0.3</ele><time>2022-09-06T12:37:42Z</time><name>PT5342</name></trkpt>
<trkpt lat="52.721840" lon="06.069282"><ele>0.4</ele><time>2022-09-06T12:37:43Z</time><name>PT5343</name></trkpt>
<trkpt lat="52.721842" lon="06.069258"><ele>0.7</ele><time>2022-09-06T12:37:45Z</time><name>PT5344</name></trkpt>
<trkpt lat="52.721841" lon="06.069235"><ele>0.7</ele><time>2022-09-06T12:37:45Z</time><name>PT5345</name></trkpt>
<trkpt lat="52.721841" lon="06.069210"><ele>0.6</ele><time>2022-09-06T12:37:46Z</time><name>PT5346</name></trkpt>
<trkpt lat="52.721839" lon="06.069191"><ele>0.7</ele><time>2022-09-06T12:37:48Z</time><name>PT5347</name></trkpt>
<trkpt lat="52.721837" lon="06.069172"><ele>0.7</ele><time>2022-09-06T12:37:48Z</time><name>PT5348</name></trkpt>
<trkpt lat="52.721836" lon="06.069153"><ele>0.7</ele><time>2022-09-06T12:37:49Z</time><name>PT5349</name></trkpt>
<trkpt lat="52.721832" lon="06.069139"><ele>0.8</ele><time>2022-09-06T12:37:51Z</time><name>PT5350</name></trkpt>
<trkpt lat="52.721831" lon="06.069125"><ele>0.8</ele><time>2022-09-06T12:37:51Z</time><name>PT5351</name></trkpt>
<trkpt lat="52.721830" lon="06.069112"><ele>0.7</ele><time>2022-09-06T12:37:52Z</time><name>PT5352</name></trkpt>
<trkpt lat="52.721829" lon="06.069097"><ele>0.7</ele><time>2022-09-06T12:37:54Z</time><name>PT5353</name></trkpt>
<trkpt lat="52.721828" lon="06.069080"><ele>0.8</ele><time>2022-09-06T12:37:54Z</time><name>PT5354</name></trkpt>
<trkpt lat="52.721828" lon="06.069061"><ele>0.8</ele><time>2022-09-06T12:37:55Z</time><name>PT5355</name></trkpt>
<trkpt lat="52.721828" lon="06.069039"><ele>0.8</ele><time>2022-09-06T12:37:57Z</time><name>PT5356</name></trkpt>
<trkpt lat="52.721830" lon="06.069012"><ele>0.9</ele><time>2022-09-06T12:37:57Z</time><name>PT5357</name></trkpt>
<trkpt lat="52.721826" lon="06.068983"><ele>0.9</ele><time>2022-09-06T12:37:58Z</time><name>PT5358</name></trkpt>
<trkpt lat="52.721824" lon="06.068956"><ele>0.9</ele><time>2022-09-06T12:38:00Z</time><name>PT5359</name></trkpt>
<trkpt lat="52.721824" lon="06.068935"><ele>0.8</ele><time>2022-09-06T12:38:00Z</time><name>PT5360</name></trkpt>
<trkpt lat="52.721824" lon="06.068920"><ele>0.8</ele><time>2022-09-06T12:38:01Z</time><name>PT5361</name></trkpt>
<trkpt lat="52.721823" lon="06.068908"><ele>0.8</ele><time>2022-09-06T12:38:03Z</time><name>PT5362</name></trkpt>
<trkpt lat="52.721822" lon="06.068902"><ele>0.7</ele><time>2022-09-06T12:38:03Z</time><name>PT5363</name></trkpt>
<trkpt lat="52.721823" lon="06.068891"><ele>0.6</ele><time>2022-09-06T12:38:04Z</time><name>PT5364</name></trkpt>
<trkpt lat="52.721823" lon="06.068875"><ele>0.8</ele><time>2022-09-06T12:38:06Z</time><name>PT5365</name></trkpt>
<trkpt lat="52.721824" lon="06.068861"><ele>0.8</ele><time>2022-09-06T12:38:06Z</time><name>PT5366</name></trkpt>
<trkpt lat="52.721825" lon="06.068840"><ele>0.6</ele><time>2022-09-06T12:38:07Z</time><name>PT5367</name></trkpt>
<trkpt lat="52.721824" lon="06.068818"><ele>0.4</ele><time>2022-09-06T12:38:09Z</time><name>PT5368</name></trkpt>
<trkpt lat="52.721826" lon="06.068797"><ele>0.4</ele><time>2022-09-06T12:38:09Z</time><name>PT5369</name></trkpt>
<trkpt lat="52.721826" lon="06.068772"><ele>0.3</ele><time>2022-09-06T12:38:10Z</time><name>PT5370</name></trkpt>
<trkpt lat="52.721825" lon="06.068751"><ele>0.5</ele><time>2022-09-06T12:38:12Z</time><name>PT5371</name></trkpt>
<trkpt lat="52.721825" lon="06.068734"><ele>0.6</ele><time>2022-09-06T12:38:12Z</time><name>PT5372</name></trkpt>
<trkpt lat="52.721824" lon="06.068709"><ele>0.7</ele><time>2022-09-06T12:38:13Z</time><name>PT5373</name></trkpt>
<trkpt lat="52.721823" lon="06.068693"><ele>0.7</ele><time>2022-09-06T12:38:15Z</time><name>PT5374</name></trkpt>
<trkpt lat="52.721824" lon="06.068680"><ele>0.6</ele><time>2022-09-06T12:38:15Z</time><name>PT5375</name></trkpt>
<trkpt lat="52.721822" lon="06.068660"><ele>0.4</ele><time>2022-09-06T12:38:16Z</time><name>PT5376</name></trkpt>
<trkpt lat="52.721820" lon="06.068644"><ele>0.5</ele><time>2022-09-06T12:38:18Z</time><name>PT5377</name></trkpt>
<trkpt lat="52.721820" lon="06.068631"><ele>0.5</ele><time>2022-09-06T12:38:18Z</time><name>PT5378</name></trkpt>
<trkpt lat="52.721820" lon="06.068615"><ele>0.4</ele><time>2022-09-06T12:38:19Z</time><name>PT5379</name></trkpt>
<trkpt lat="52.721820" lon="06.068600"><ele>0.5</ele><time>2022-09-06T12:38:21Z</time><name>PT5380</name></trkpt>
<trkpt lat="52.721815" lon="06.068583"><ele>0.6</ele><time>2022-09-06T12:38:21Z</time><name>PT5381</name></trkpt>
<trkpt lat="52.721815" lon="06.068561"><ele>0.7</ele><time>2022-09-06T12:38:22Z</time><name>PT5382</name></trkpt>
<trkpt lat="52.721810" lon="06.068540"><ele>0.8</ele><time>2022-09-06T12:38:24Z</time><name>PT5383</name></trkpt>
<trkpt lat="52.721808" lon="06.068517"><ele>0.9</ele><time>2022-09-06T12:38:24Z</time><name>PT5384</name></trkpt>
<trkpt lat="52.721805" lon="06.068493"><ele>1</ele><time>2022-09-06T12:38:25Z</time><name>PT5385</name></trkpt>
<trkpt lat="52.721804" lon="06.068473"><ele>0.9</ele><time>2022-09-06T12:38:27Z</time><name>PT5386</name></trkpt>
<trkpt lat="52.721803" lon="06.068463"><ele>1</ele><time>2022-09-06T12:38:27Z</time><name>PT5387</name></trkpt>
<trkpt lat="52.721802" lon="06.068457"><ele>0.9</ele><time>2022-09-06T12:38:28Z</time><name>PT5388</name></trkpt>
<trkpt lat="52.721806" lon="06.068449"><ele>0.9</ele><time>2022-09-06T12:38:30Z</time><name>PT5389</name></trkpt>
<trkpt lat="52.721807" lon="06.068429"><ele>1</ele><time>2022-09-06T12:38:30Z</time><name>PT5390</name></trkpt>
<trkpt lat="52.721799" lon="06.068412"><ele>1.1</ele><time>2022-09-06T12:38:31Z</time><name>PT5391</name></trkpt>
<trkpt lat="52.721798" lon="06.068386"><ele>1</ele><time>2022-09-06T12:38:33Z</time><name>PT5392</name></trkpt>
<trkpt lat="52.721797" lon="06.068357"><ele>1</ele><time>2022-09-06T12:38:33Z</time><name>PT5393</name></trkpt>
<trkpt lat="52.721797" lon="06.068329"><ele>1.1</ele><time>2022-09-06T12:38:34Z</time><name>PT5394</name></trkpt>
<trkpt lat="52.721796" lon="06.068305"><ele>0.9</ele><time>2022-09-06T12:38:36Z</time><name>PT5395</name></trkpt>
<trkpt lat="52.721798" lon="06.068290"><ele>0.8</ele><time>2022-09-06T12:38:36Z</time><name>PT5396</name></trkpt>
<trkpt lat="52.721798" lon="06.068272"><ele>0.9</ele><time>2022-09-06T12:38:37Z</time><name>PT5397</name></trkpt>
<trkpt lat="52.721796" lon="06.068261"><ele>0.8</ele><time>2022-09-06T12:38:39Z</time><name>PT5398</name></trkpt>
<trkpt lat="52.721794" lon="06.068249"><ele>0.7</ele><time>2022-09-06T12:38:39Z</time><name>PT5399</name></trkpt>
<trkpt lat="52.721797" lon="06.068235"><ele>0.8</ele><time>2022-09-06T12:38:40Z</time><name>PT5400</name></trkpt>
<trkpt lat="52.721797" lon="06.068217"><ele>0.9</ele><time>2022-09-06T12:38:42Z</time><name>PT5401</name></trkpt>
<trkpt lat="52.721793" lon="06.068192"><ele>0.8</ele><time>2022-09-06T12:38:42Z</time><name>PT5402</name></trkpt>
<trkpt lat="52.721793" lon="06.068162"><ele>0.8</ele><time>2022-09-06T12:38:43Z</time><name>PT5403</name></trkpt>
<trkpt lat="52.721793" lon="06.068132"><ele>0.9</ele><time>2022-09-06T12:38:45Z</time><name>PT5404</name></trkpt>
<trkpt lat="52.721792" lon="06.068108"><ele>0.9</ele><time>2022-09-06T12:38:45Z</time><name>PT5405</name></trkpt>
<trkpt lat="52.721793" lon="06.068093"><ele>0.8</ele><time>2022-09-06T12:38:46Z</time><name>PT5406</name></trkpt>
<trkpt lat="52.721790" lon="06.068078"><ele>1.1</ele><time>2022-09-06T12:38:48Z</time><name>PT5407</name></trkpt>
<trkpt lat="52.721790" lon="06.068066"><ele>1</ele><time>2022-09-06T12:38:48Z</time><name>PT5408</name></trkpt>
<trkpt lat="52.721792" lon="06.068055"><ele>1.1</ele><time>2022-09-06T12:38:49Z</time><name>PT5409</name></trkpt>
<trkpt lat="52.721793" lon="06.068043"><ele>1</ele><time>2022-09-06T12:38:51Z</time><name>PT5410</name></trkpt>
<trkpt lat="52.721794" lon="06.068029"><ele>1</ele><time>2022-09-06T12:38:51Z</time><name>PT5411</name></trkpt>
<trkpt lat="52.721793" lon="06.068009"><ele>0.9</ele><time>2022-09-06T12:38:52Z</time><name>PT5412</name></trkpt>
<trkpt lat="52.721794" lon="06.067988"><ele>0.8</ele><time>2022-09-06T12:38:54Z</time><name>PT5413</name></trkpt>
<trkpt lat="52.721803" lon="06.067971"><ele>0.8</ele><time>2022-09-06T12:38:54Z</time><name>PT5414</name></trkpt>
<trkpt lat="52.721803" lon="06.067942"><ele>0.8</ele><time>2022-09-06T12:38:55Z</time><name>PT5415</name></trkpt>
<trkpt lat="52.721806" lon="06.067915"><ele>0.8</ele><time>2022-09-06T12:38:57Z</time><name>PT5416</name></trkpt>
<trkpt lat="52.721808" lon="06.067893"><ele>0.8</ele><time>2022-09-06T12:38:57Z</time><name>PT5417</name></trkpt>
<trkpt lat="52.721812" lon="06.067874"><ele>0.8</ele><time>2022-09-06T12:38:58Z</time><name>PT5418</name></trkpt>
<trkpt lat="52.721811" lon="06.067861"><ele>0.8</ele><time>2022-09-06T12:39:00Z</time><name>PT5419</name></trkpt>
<trkpt lat="52.721808" lon="06.067848"><ele>0.9</ele><time>2022-09-06T12:39:00Z</time><name>PT5420</name></trkpt>
<trkpt lat="52.721804" lon="06.067838"><ele>0.8</ele><time>2022-09-06T12:39:01Z</time><name>PT5421</name></trkpt>
<trkpt lat="52.721804" lon="06.067827"><ele>0.8</ele><time>2022-09-06T12:39:03Z</time><name>PT5422</name></trkpt>
<trkpt lat="52.721805" lon="06.067816"><ele>0.9</ele><time>2022-09-06T12:39:03Z</time><name>PT5423</name></trkpt>
<trkpt lat="52.721805" lon="06.067799"><ele>1.1</ele><time>2022-09-06T12:39:04Z</time><name>PT5424</name></trkpt>
<trkpt lat="52.721807" lon="06.067782"><ele>1.1</ele><time>2022-09-06T12:39:06Z</time><name>PT5425</name></trkpt>
<trkpt lat="52.721808" lon="06.067761"><ele>1.2</ele><time>2022-09-06T12:39:06Z</time><name>PT5426</name></trkpt>
<trkpt lat="52.721802" lon="06.067730"><ele>1.2</ele><time>2022-09-06T12:39:07Z</time><name>PT5427</name></trkpt>
<trkpt lat="52.721801" lon="06.067699"><ele>1.2</ele><time>2022-09-06T12:39:09Z</time><name>PT5428</name></trkpt>
<trkpt lat="52.721797" lon="06.067681"><ele>1.2</ele><time>2022-09-06T12:39:09Z</time><name>PT5429</name></trkpt>
<trkpt lat="52.721795" lon="06.067657"><ele>1.3</ele><time>2022-09-06T12:39:10Z</time><name>PT5430</name></trkpt>
<trkpt lat="52.721797" lon="06.067635"><ele>1.6</ele><time>2022-09-06T12:39:12Z</time><name>PT5431</name></trkpt>
<trkpt lat="52.721799" lon="06.067622"><ele>1.5</ele><time>2022-09-06T12:39:12Z</time><name>PT5432</name></trkpt>
<trkpt lat="52.721797" lon="06.067609"><ele>1.6</ele><time>2022-09-06T12:39:13Z</time><name>PT5433</name></trkpt>
<trkpt lat="52.721792" lon="06.067596"><ele>1.6</ele><time>2022-09-06T12:39:15Z</time><name>PT5434</name></trkpt>
<trkpt lat="52.721791" lon="06.067583"><ele>1.5</ele><time>2022-09-06T12:39:15Z</time><name>PT5435</name></trkpt>
<trkpt lat="52.721790" lon="06.067573"><ele>1.2</ele><time>2022-09-06T12:39:16Z</time><name>PT5436</name></trkpt>
<trkpt lat="52.721791" lon="06.067560"><ele>1.2</ele><time>2022-09-06T12:39:18Z</time><name>PT5437</name></trkpt>
<trkpt lat="52.721790" lon="06.067541"><ele>1.2</ele><time>2022-09-06T12:39:18Z</time><name>PT5438</name></trkpt>
<trkpt lat="52.721792" lon="06.067522"><ele>1.1</ele><time>2022-09-06T12:39:19Z</time><name>PT5439</name></trkpt>
<trkpt lat="52.721794" lon="06.067496"><ele>1.2</ele><time>2022-09-06T12:39:21Z</time><name>PT5440</name></trkpt>
<trkpt lat="52.721792" lon="06.067469"><ele>1.2</ele><time>2022-09-06T12:39:21Z</time><name>PT5441</name></trkpt>
<trkpt lat="52.721792" lon="06.067443"><ele>1.2</ele><time>2022-09-06T12:39:22Z</time><name>PT5442</name></trkpt>
<trkpt lat="52.721791" lon="06.067420"><ele>1.1</ele><time>2022-09-06T12:39:24Z</time><name>PT5443</name></trkpt>
<trkpt lat="52.721787" lon="06.067399"><ele>1.2</ele><time>2022-09-06T12:39:24Z</time><name>PT5444</name></trkpt>
<trkpt lat="52.721787" lon="06.067388"><ele>1.2</ele><time>2022-09-06T12:39:25Z</time><name>PT5445</name></trkpt>
<trkpt lat="52.721788" lon="06.067379"><ele>1.4</ele><time>2022-09-06T12:39:27Z</time><name>PT5446</name></trkpt>
<trkpt lat="52.721783" lon="06.067369"><ele>1.4</ele><time>2022-09-06T12:39:27Z</time><name>PT5447</name></trkpt>
<trkpt lat="52.721782" lon="06.067358"><ele>1.6</ele><time>2022-09-06T12:39:28Z</time><name>PT5448</name></trkpt>
<trkpt lat="52.721780" lon="06.067339"><ele>1.7</ele><time>2022-09-06T12:39:30Z</time><name>PT5449</name></trkpt>
<trkpt lat="52.721781" lon="06.067316"><ele>1.4</ele><time>2022-09-06T12:39:30Z</time><name>PT5450</name></trkpt>
<trkpt lat="52.721785" lon="06.067291"><ele>1.4</ele><time>2022-09-06T12:39:31Z</time><name>PT5451</name></trkpt>
<trkpt lat="52.721786" lon="06.067266"><ele>1.4</ele><time>2022-09-06T12:39:33Z</time><name>PT5452</name></trkpt>
<trkpt lat="52.721789" lon="06.067241"><ele>1.3</ele><time>2022-09-06T12:39:33Z</time><name>PT5453</name></trkpt>
<trkpt lat="52.721786" lon="06.067221"><ele>1.2</ele><time>2022-09-06T12:39:34Z</time><name>PT5454</name></trkpt>
<trkpt lat="52.721782" lon="06.067205"><ele>1.4</ele><time>2022-09-06T12:39:36Z</time><name>PT5455</name></trkpt>
<trkpt lat="52.721781" lon="06.067194"><ele>1.4</ele><time>2022-09-06T12:39:36Z</time><name>PT5456</name></trkpt>
<trkpt lat="52.721779" lon="06.067183"><ele>1.4</ele><time>2022-09-06T12:39:37Z</time><name>PT5457</name></trkpt>
<trkpt lat="52.721780" lon="06.067168"><ele>1.3</ele><time>2022-09-06T12:39:39Z</time><name>PT5458</name></trkpt>
<trkpt lat="52.721782" lon="06.067151"><ele>1.4</ele><time>2022-09-06T12:39:39Z</time><name>PT5459</name></trkpt>
<trkpt lat="52.721784" lon="06.067132"><ele>1.3</ele><time>2022-09-06T12:39:40Z</time><name>PT5460</name></trkpt>
<trkpt lat="52.721784" lon="06.067107"><ele>1.3</ele><time>2022-09-06T12:39:42Z</time><name>PT5461</name></trkpt>
<trkpt lat="52.721782" lon="06.067079"><ele>1.4</ele><time>2022-09-06T12:39:42Z</time><name>PT5462</name></trkpt>
<trkpt lat="52.721781" lon="06.067053"><ele>1.2</ele><time>2022-09-06T12:39:43Z</time><name>PT5463</name></trkpt>
<trkpt lat="52.721779" lon="06.067034"><ele>1.3</ele><time>2022-09-06T12:39:45Z</time><name>PT5464</name></trkpt>
<trkpt lat="52.721774" lon="06.067018"><ele>1.3</ele><time>2022-09-06T12:39:45Z</time><name>PT5465</name></trkpt>
<trkpt lat="52.721771" lon="06.067001"><ele>1.4</ele><time>2022-09-06T12:39:46Z</time><name>PT5466</name></trkpt>
<trkpt lat="52.721770" lon="06.066990"><ele>1.5</ele><time>2022-09-06T12:39:48Z</time><name>PT5467</name></trkpt>
<trkpt lat="52.721769" lon="06.066979"><ele>1.6</ele><time>2022-09-06T12:39:48Z</time><name>PT5468</name></trkpt>
<trkpt lat="52.721772" lon="06.066966"><ele>1.6</ele><time>2022-09-06T12:39:49Z</time><name>PT5469</name></trkpt>
<trkpt lat="52.721775" lon="06.066949"><ele>1.4</ele><time>2022-09-06T12:39:51Z</time><name>PT5470</name></trkpt>
<trkpt lat="52.721775" lon="06.066925"><ele>1.2</ele><time>2022-09-06T12:39:51Z</time><name>PT5471</name></trkpt>
<trkpt lat="52.721775" lon="06.066892"><ele>1.2</ele><time>2022-09-06T12:39:52Z</time><name>PT5472</name></trkpt>
<trkpt lat="52.721771" lon="06.066864"><ele>1.4</ele><time>2022-09-06T12:39:54Z</time><name>PT5473</name></trkpt>
<trkpt lat="52.721767" lon="06.066845"><ele>1.4</ele><time>2022-09-06T12:39:54Z</time><name>PT5474</name></trkpt>
<trkpt lat="52.721765" lon="06.066826"><ele>1.5</ele><time>2022-09-06T12:39:55Z</time><name>PT5475</name></trkpt>
<trkpt lat="52.721762" lon="06.066809"><ele>1.8</ele><time>2022-09-06T12:39:57Z</time><name>PT5476</name></trkpt>
<trkpt lat="52.721757" lon="06.066792"><ele>1.9</ele><time>2022-09-06T12:39:57Z</time><name>PT5477</name></trkpt>
<trkpt lat="52.721752" lon="06.066773"><ele>1.7</ele><time>2022-09-06T12:39:58Z</time><name>PT5478</name></trkpt>
<trkpt lat="52.721749" lon="06.066755"><ele>1.6</ele><time>2022-09-06T12:40:00Z</time><name>PT5479</name></trkpt>
<trkpt lat="52.721748" lon="06.066737"><ele>1.6</ele><time>2022-09-06T12:40:00Z</time><name>PT5480</name></trkpt>
<trkpt lat="52.721748" lon="06.066720"><ele>1.2</ele><time>2022-09-06T12:40:01Z</time><name>PT5481</name></trkpt>
<trkpt lat="52.721747" lon="06.066700"><ele>1.2</ele><time>2022-09-06T12:40:03Z</time><name>PT5482</name></trkpt>
<trkpt lat="52.721744" lon="06.066680"><ele>1.2</ele><time>2022-09-06T12:40:03Z</time><name>PT5483</name></trkpt>
<trkpt lat="52.721743" lon="06.066662"><ele>1.2</ele><time>2022-09-06T12:40:04Z</time><name>PT5484</name></trkpt>
<trkpt lat="52.721741" lon="06.066644"><ele>1.4</ele><time>2022-09-06T12:40:06Z</time><name>PT5485</name></trkpt>
<trkpt lat="52.721740" lon="06.066627"><ele>1.6</ele><time>2022-09-06T12:40:06Z</time><name>PT5486</name></trkpt>
<trkpt lat="52.721737" lon="06.066608"><ele>1.6</ele><time>2022-09-06T12:40:07Z</time><name>PT5487</name></trkpt>
<trkpt lat="52.721735" lon="06.066592"><ele>1.7</ele><time>2022-09-06T12:40:09Z</time><name>PT5488</name></trkpt>
<trkpt lat="52.721731" lon="06.066576"><ele>1.7</ele><time>2022-09-06T12:40:09Z</time><name>PT5489</name></trkpt>
<trkpt lat="52.721730" lon="06.066559"><ele>1.7</ele><time>2022-09-06T12:40:10Z</time><name>PT5490</name></trkpt>
<trkpt lat="52.721730" lon="06.066541"><ele>1.6</ele><time>2022-09-06T12:40:12Z</time><name>PT5491</name></trkpt>
<trkpt lat="52.721728" lon="06.066524"><ele>1.6</ele><time>2022-09-06T12:40:12Z</time><name>PT5492</name></trkpt>
<trkpt lat="52.721728" lon="06.066506"><ele>1.6</ele><time>2022-09-06T12:40:13Z</time><name>PT5493</name></trkpt>
<trkpt lat="52.721728" lon="06.066487"><ele>1.6</ele><time>2022-09-06T12:40:15Z</time><name>PT5494</name></trkpt>
<trkpt lat="52.721729" lon="06.066465"><ele>1.6</ele><time>2022-09-06T12:40:15Z</time><name>PT5495</name></trkpt>
<trkpt lat="52.721729" lon="06.066444"><ele>1.8</ele><time>2022-09-06T12:40:16Z</time><name>PT5496</name></trkpt>
<trkpt lat="52.721729" lon="06.066421"><ele>1.8</ele><time>2022-09-06T12:40:18Z</time><name>PT5497</name></trkpt>
<trkpt lat="52.721729" lon="06.066399"><ele>1.7</ele><time>2022-09-06T12:40:18Z</time><name>PT5498</name></trkpt>
<trkpt lat="52.721728" lon="06.066378"><ele>1.7</ele><time>2022-09-06T12:40:19Z</time><name>PT5499</name></trkpt>
<trkpt lat="52.721727" lon="06.066358"><ele>1.7</ele><time>2022-09-06T12:40:21Z</time><name>PT5500</name></trkpt>
<trkpt lat="52.721724" lon="06.066337"><ele>1.6</ele><time>2022-09-06T12:40:21Z</time><name>PT5501</name></trkpt>
<trkpt lat="52.721721" lon="06.066319"><ele>1.7</ele><time>2022-09-06T12:40:22Z</time><name>PT5502</name></trkpt>
<trkpt lat="52.721720" lon="06.066303"><ele>1.9</ele><time>2022-09-06T12:40:24Z</time><name>PT5503</name></trkpt>
<trkpt lat="52.721717" lon="06.066287"><ele>1.7</ele><time>2022-09-06T12:40:24Z</time><name>PT5504</name></trkpt>
<trkpt lat="52.721718" lon="06.066272"><ele>1.7</ele><time>2022-09-06T12:40:25Z</time><name>PT5505</name></trkpt>
<trkpt lat="52.721718" lon="06.066256"><ele>1.6</ele><time>2022-09-06T12:40:27Z</time><name>PT5506</name></trkpt>
<trkpt lat="52.721719" lon="06.066238"><ele>1.5</ele><time>2022-09-06T12:40:27Z</time><name>PT5507</name></trkpt>
<trkpt lat="52.721722" lon="06.066217"><ele>1.5</ele><time>2022-09-06T12:40:28Z</time><name>PT5508</name></trkpt>
<trkpt lat="52.721721" lon="06.066197"><ele>1.4</ele><time>2022-09-06T12:40:30Z</time><name>PT5509</name></trkpt>
<trkpt lat="52.721718" lon="06.066179"><ele>1.7</ele><time>2022-09-06T12:40:30Z</time><name>PT5510</name></trkpt>
<trkpt lat="52.721715" lon="06.066161"><ele>1.7</ele><time>2022-09-06T12:40:31Z</time><name>PT5511</name></trkpt>
<trkpt lat="52.721714" lon="06.066143"><ele>2</ele><time>2022-09-06T12:40:33Z</time><name>PT5512</name></trkpt>
<trkpt lat="52.721714" lon="06.066126"><ele>2</ele><time>2022-09-06T12:40:33Z</time><name>PT5513</name></trkpt>
<trkpt lat="52.721714" lon="06.066109"><ele>2</ele><time>2022-09-06T12:40:34Z</time><name>PT5514</name></trkpt>
<trkpt lat="52.721715" lon="06.066091"><ele>2</ele><time>2022-09-06T12:40:36Z</time><name>PT5515</name></trkpt>
<trkpt lat="52.721716" lon="06.066071"><ele>1.9</ele><time>2022-09-06T12:40:36Z</time><name>PT5516</name></trkpt>
<trkpt lat="52.721716" lon="06.066050"><ele>1.7</ele><time>2022-09-06T12:40:37Z</time><name>PT5517</name></trkpt>
<trkpt lat="52.721716" lon="06.066032"><ele>1.6</ele><time>2022-09-06T12:40:39Z</time><name>PT5518</name></trkpt>
<trkpt lat="52.721716" lon="06.066015"><ele>1.7</ele><time>2022-09-06T12:40:39Z</time><name>PT5519</name></trkpt>
<trkpt lat="52.721716" lon="06.065998"><ele>1.6</ele><time>2022-09-06T12:40:40Z</time><name>PT5520</name></trkpt>
<trkpt lat="52.721714" lon="06.065981"><ele>1.5</ele><time>2022-09-06T12:40:42Z</time><name>PT5521</name></trkpt>
<trkpt lat="52.721712" lon="06.065969"><ele>1.5</ele><time>2022-09-06T12:40:42Z</time><name>PT5522</name></trkpt>
<trkpt lat="52.721711" lon="06.065966"><ele>1.7</ele><time>2022-09-06T12:40:43Z</time><name>PT5523</name></trkpt>
<trkpt lat="52.721711" lon="06.065966"><ele>1.7</ele><time>2022-09-06T12:40:45Z</time><name>PT5524</name></trkpt>
<trkpt lat="52.721710" lon="06.065963"><ele>1.7</ele><time>2022-09-06T12:40:45Z</time><name>PT5525</name></trkpt>
<trkpt lat="52.721708" lon="06.065953"><ele>1.8</ele><time>2022-09-06T12:40:46Z</time><name>PT5526</name></trkpt>
<trkpt lat="52.721707" lon="06.065941"><ele>1.7</ele><time>2022-09-06T12:40:48Z</time><name>PT5527</name></trkpt>
<trkpt lat="52.721708" lon="06.065927"><ele>1.6</ele><time>2022-09-06T12:40:48Z</time><name>PT5528</name></trkpt>
<trkpt lat="52.721709" lon="06.065912"><ele>1.6</ele><time>2022-09-06T12:40:49Z</time><name>PT5529</name></trkpt>
<trkpt lat="52.721710" lon="06.065895"><ele>1.6</ele><time>2022-09-06T12:40:51Z</time><name>PT5530</name></trkpt>
<trkpt lat="52.721709" lon="06.065877"><ele>1.5</ele><time>2022-09-06T12:40:51Z</time><name>PT5531</name></trkpt>
<trkpt lat="52.721707" lon="06.065858"><ele>1.5</ele><time>2022-09-06T12:40:52Z</time><name>PT5532</name></trkpt>
<trkpt lat="52.721706" lon="06.065839"><ele>1.4</ele><time>2022-09-06T12:40:54Z</time><name>PT5533</name></trkpt>
<trkpt lat="52.721705" lon="06.065829"><ele>1.4</ele><time>2022-09-06T12:40:54Z</time><name>PT5534</name></trkpt>
<trkpt lat="52.721703" lon="06.065820"><ele>1.2</ele><time>2022-09-06T12:40:55Z</time><name>PT5535</name></trkpt>
<trkpt lat="52.721701" lon="06.065807"><ele>1.1</ele><time>2022-09-06T12:40:57Z</time><name>PT5536</name></trkpt>
<trkpt lat="52.721702" lon="06.065787"><ele>1</ele><time>2022-09-06T12:40:57Z</time><name>PT5537</name></trkpt>
<trkpt lat="52.721704" lon="06.065760"><ele>0.9</ele><time>2022-09-06T12:40:58Z</time><name>PT5538</name></trkpt>
<trkpt lat="52.721703" lon="06.065731"><ele>1</ele><time>2022-09-06T12:41:00Z</time><name>PT5539</name></trkpt>
<trkpt lat="52.721702" lon="06.065702"><ele>1.2</ele><time>2022-09-06T12:41:00Z</time><name>PT5540</name></trkpt>
<trkpt lat="52.721701" lon="06.065682"><ele>1.3</ele><time>2022-09-06T12:41:01Z</time><name>PT5541</name></trkpt>
<trkpt lat="52.721700" lon="06.065670"><ele>1.4</ele><time>2022-09-06T12:41:03Z</time><name>PT5542</name></trkpt>
<trkpt lat="52.721699" lon="06.065658"><ele>1.4</ele><time>2022-09-06T12:41:03Z</time><name>PT5543</name></trkpt>
<trkpt lat="52.721697" lon="06.065643"><ele>1.3</ele><time>2022-09-06T12:41:04Z</time><name>PT5544</name></trkpt>
<trkpt lat="52.721697" lon="06.065625"><ele>1.4</ele><time>2022-09-06T12:41:06Z</time><name>PT5545</name></trkpt>
<trkpt lat="52.721699" lon="06.065604"><ele>1.4</ele><time>2022-09-06T12:41:06Z</time><name>PT5546</name></trkpt>
<trkpt lat="52.721700" lon="06.065581"><ele>1.5</ele><time>2022-09-06T12:41:07Z</time><name>PT5547</name></trkpt>
<trkpt lat="52.721701" lon="06.065555"><ele>1.4</ele><time>2022-09-06T12:41:09Z</time><name>PT5548</name></trkpt>
<trkpt lat="52.721701" lon="06.065531"><ele>1.4</ele><time>2022-09-06T12:41:09Z</time><name>PT5549</name></trkpt>
<trkpt lat="52.721700" lon="06.065510"><ele>1.4</ele><time>2022-09-06T12:41:10Z</time><name>PT5550</name></trkpt>
<trkpt lat="52.721698" lon="06.065490"><ele>1.2</ele><time>2022-09-06T12:41:12Z</time><name>PT5551</name></trkpt>
<trkpt lat="52.721698" lon="06.065474"><ele>1.3</ele><time>2022-09-06T12:41:12Z</time><name>PT5552</name></trkpt>
<trkpt lat="52.721697" lon="06.065463"><ele>1.4</ele><time>2022-09-06T12:41:13Z</time><name>PT5553</name></trkpt>
<trkpt lat="52.721695" lon="06.065452"><ele>1.5</ele><time>2022-09-06T12:41:15Z</time><name>PT5554</name></trkpt>
<trkpt lat="52.721696" lon="06.065442"><ele>1.4</ele><time>2022-09-06T12:41:15Z</time><name>PT5555</name></trkpt>
<trkpt lat="52.721697" lon="06.065427"><ele>1.2</ele><time>2022-09-06T12:41:16Z</time><name>PT5556</name></trkpt>
<trkpt lat="52.721696" lon="06.065407"><ele>1.2</ele><time>2022-09-06T12:41:18Z</time><name>PT5557</name></trkpt>
<trkpt lat="52.721697" lon="06.065383"><ele>1.1</ele><time>2022-09-06T12:41:18Z</time><name>PT5558</name></trkpt>
<trkpt lat="52.721698" lon="06.065358"><ele>1.2</ele><time>2022-09-06T12:41:19Z</time><name>PT5559</name></trkpt>
<trkpt lat="52.721698" lon="06.065333"><ele>1.3</ele><time>2022-09-06T12:41:21Z</time><name>PT5560</name></trkpt>
<trkpt lat="52.721697" lon="06.065314"><ele>1.4</ele><time>2022-09-06T12:41:21Z</time><name>PT5561</name></trkpt>
<trkpt lat="52.721697" lon="06.065300"><ele>1.4</ele><time>2022-09-06T12:41:22Z</time><name>PT5562</name></trkpt>
<trkpt lat="52.721696" lon="06.065286"><ele>1.6</ele><time>2022-09-06T12:41:24Z</time><name>PT5563</name></trkpt>
<trkpt lat="52.721698" lon="06.065271"><ele>1.6</ele><time>2022-09-06T12:41:24Z</time><name>PT5564</name></trkpt>
<trkpt lat="52.721698" lon="06.065253"><ele>1.4</ele><time>2022-09-06T12:41:26Z</time><name>PT5565</name></trkpt>
<trkpt lat="52.721699" lon="06.065234"><ele>1.6</ele><time>2022-09-06T12:41:27Z</time><name>PT5566</name></trkpt>
<trkpt lat="52.721700" lon="06.065208"><ele>1.5</ele><time>2022-09-06T12:41:27Z</time><name>PT5567</name></trkpt>
<trkpt lat="52.721699" lon="06.065186"><ele>1.4</ele><time>2022-09-06T12:41:28Z</time><name>PT5568</name></trkpt>
<trkpt lat="52.721698" lon="06.065164"><ele>1.5</ele><time>2022-09-06T12:41:30Z</time><name>PT5569</name></trkpt>
<trkpt lat="52.721699" lon="06.065138"><ele>1.2</ele><time>2022-09-06T12:41:30Z</time><name>PT5570</name></trkpt>
<trkpt lat="52.721700" lon="06.065109"><ele>1.1</ele><time>2022-09-06T12:41:32Z</time><name>PT5571</name></trkpt>
<trkpt lat="52.721700" lon="06.065084"><ele>1</ele><time>2022-09-06T12:41:33Z</time><name>PT5572</name></trkpt>
<trkpt lat="52.721699" lon="06.065061"><ele>1</ele><time>2022-09-06T12:41:33Z</time><name>PT5573</name></trkpt>
<trkpt lat="52.721697" lon="06.065045"><ele>1</ele><time>2022-09-06T12:41:34Z</time><name>PT5574</name></trkpt>
<trkpt lat="52.721696" lon="06.065033"><ele>1</ele><time>2022-09-06T12:41:36Z</time><name>PT5575</name></trkpt>
<trkpt lat="52.721696" lon="06.065020"><ele>0.9</ele><time>2022-09-06T12:41:36Z</time><name>PT5576</name></trkpt>
<trkpt lat="52.721696" lon="06.065008"><ele>0.9</ele><time>2022-09-06T12:41:37Z</time><name>PT5577</name></trkpt>
<trkpt lat="52.721696" lon="06.064992"><ele>0.9</ele><time>2022-09-06T12:41:39Z</time><name>PT5578</name></trkpt>
<trkpt lat="52.721696" lon="06.064971"><ele>1.1</ele><time>2022-09-06T12:41:39Z</time><name>PT5579</name></trkpt>
<trkpt lat="52.721697" lon="06.064949"><ele>1.2</ele><time>2022-09-06T12:41:40Z</time><name>PT5580</name></trkpt>
<trkpt lat="52.721696" lon="06.064922"><ele>1.2</ele><time>2022-09-06T12:41:42Z</time><name>PT5581</name></trkpt>
<trkpt lat="52.721692" lon="06.064893"><ele>1.4</ele><time>2022-09-06T12:41:42Z</time><name>PT5582</name></trkpt>
<trkpt lat="52.721689" lon="06.064864"><ele>1.5</ele><time>2022-09-06T12:41:43Z</time><name>PT5583</name></trkpt>
<trkpt lat="52.721688" lon="06.064838"><ele>1.4</ele><time>2022-09-06T12:41:45Z</time><name>PT5584</name></trkpt>
<trkpt lat="52.721686" lon="06.064821"><ele>1.5</ele><time>2022-09-06T12:41:45Z</time><name>PT5585</name></trkpt>
<trkpt lat="52.721685" lon="06.064809"><ele>1.2</ele><time>2022-09-06T12:41:46Z</time><name>PT5586</name></trkpt>
<trkpt lat="52.721685" lon="06.064801"><ele>1.2</ele><time>2022-09-06T12:41:48Z</time><name>PT5587</name></trkpt>
<trkpt lat="52.721687" lon="06.064790"><ele>1.1</ele><time>2022-09-06T12:41:48Z</time><name>PT5588</name></trkpt>
<trkpt lat="52.721687" lon="06.064778"><ele>1</ele><time>2022-09-06T12:41:49Z</time><name>PT5589</name></trkpt>
<trkpt lat="52.721684" lon="06.064758"><ele>1</ele><time>2022-09-06T12:41:51Z</time><name>PT5590</name></trkpt>
<trkpt lat="52.721684" lon="06.064733"><ele>1.1</ele><time>2022-09-06T12:41:51Z</time><name>PT5591</name></trkpt>
<trkpt lat="52.721683" lon="06.064709"><ele>1.2</ele><time>2022-09-06T12:41:52Z</time><name>PT5592</name></trkpt>
<trkpt lat="52.721683" lon="06.064683"><ele>1.3</ele><time>2022-09-06T12:41:54Z</time><name>PT5593</name></trkpt>
<trkpt lat="52.721682" lon="06.064662"><ele>1.3</ele><time>2022-09-06T12:41:54Z</time><name>PT5594</name></trkpt>
<trkpt lat="52.721680" lon="06.064647"><ele>1.2</ele><time>2022-09-06T12:41:55Z</time><name>PT5595</name></trkpt>
<trkpt lat="52.721678" lon="06.064633"><ele>1.3</ele><time>2022-09-06T12:41:57Z</time><name>PT5596</name></trkpt>
<trkpt lat="52.721677" lon="06.064621"><ele>1.3</ele><time>2022-09-06T12:41:57Z</time><name>PT5597</name></trkpt>
<trkpt lat="52.721676" lon="06.064607"><ele>1.2</ele><time>2022-09-06T12:41:58Z</time><name>PT5598</name></trkpt>
<trkpt lat="52.721677" lon="06.064592"><ele>1.4</ele><time>2022-09-06T12:42:00Z</time><name>PT5599</name></trkpt>
<trkpt lat="52.721676" lon="06.064579"><ele>1.5</ele><time>2022-09-06T12:42:00Z</time><name>PT5600</name></trkpt>
<trkpt lat="52.721676" lon="06.064566"><ele>1.6</ele><time>2022-09-06T12:42:01Z</time><name>PT5601</name></trkpt>
<trkpt lat="52.721673" lon="06.064549"><ele>1.7</ele><time>2022-09-06T12:42:03Z</time><name>PT5602</name></trkpt>
<trkpt lat="52.721671" lon="06.064525"><ele>1.8</ele><time>2022-09-06T12:42:03Z</time><name>PT5603</name></trkpt>
<trkpt lat="52.721665" lon="06.064502"><ele>1.9</ele><time>2022-09-06T12:42:04Z</time><name>PT5604</name></trkpt>
<trkpt lat="52.721658" lon="06.064492"><ele>2</ele><time>2022-09-06T12:42:06Z</time><name>PT5605</name></trkpt>
<trkpt lat="52.721655" lon="06.064488"><ele>2.1</ele><time>2022-09-06T12:42:06Z</time><name>PT5606</name></trkpt>
<trkpt lat="52.721654" lon="06.064487"><ele>2.2</ele><time>2022-09-06T12:42:07Z</time><name>PT5607</name></trkpt>
<trkpt lat="52.721653" lon="06.064489"><ele>2</ele><time>2022-09-06T12:42:09Z</time><name>PT5608</name></trkpt>
<trkpt lat="52.721653" lon="06.064489"><ele>2</ele><time>2022-09-06T12:42:09Z</time><name>PT5609</name></trkpt>
<trkpt lat="52.721653" lon="06.064494"><ele>1.8</ele><time>2022-09-06T12:42:18Z</time><name>PT5610</name></trkpt>
<trkpt lat="52.721650" lon="06.064490"><ele>1.9</ele><time>2022-09-06T12:42:18Z</time><name>PT5611</name></trkpt>
<trkpt lat="52.721646" lon="06.064486"><ele>2.3</ele><time>2022-09-06T12:42:19Z</time><name>PT5612</name></trkpt>
<trkpt lat="52.721643" lon="06.064481"><ele>2.5</ele><time>2022-09-06T12:42:21Z</time><name>PT5613</name></trkpt>
<trkpt lat="52.721641" lon="06.064476"><ele>2.6</ele><time>2022-09-06T12:42:21Z</time><name>PT5614</name></trkpt>
<trkpt lat="52.721640" lon="06.064477"><ele>2.5</ele><time>2022-09-06T12:42:24Z</time><name>PT5615</name></trkpt>
<trkpt lat="52.721639" lon="06.064477"><ele>2.4</ele><time>2022-09-06T12:42:24Z</time><name>PT5616</name></trkpt>
<trkpt lat="52.721637" lon="06.064472"><ele>2.2</ele><time>2022-09-06T12:42:25Z</time><name>PT5617</name></trkpt>
<trkpt lat="52.721635" lon="06.064465"><ele>2.1</ele><time>2022-09-06T12:42:27Z</time><name>PT5618</name></trkpt>
<trkpt lat="52.721634" lon="06.064457"><ele>2</ele><time>2022-09-06T12:42:27Z</time><name>PT5619</name></trkpt>
<trkpt lat="52.721633" lon="06.064447"><ele>1.8</ele><time>2022-09-06T12:42:28Z</time><name>PT5620</name></trkpt>
<trkpt lat="52.721630" lon="06.064435"><ele>2.1</ele><time>2022-09-06T12:42:30Z</time><name>PT5621</name></trkpt>
<trkpt lat="52.721627" lon="06.064423"><ele>2.3</ele><time>2022-09-06T12:42:30Z</time><name>PT5622</name></trkpt>
<trkpt lat="52.721624" lon="06.064409"><ele>2.5</ele><time>2022-09-06T12:42:31Z</time><name>PT5623</name></trkpt>
<trkpt lat="52.721620" lon="06.064394"><ele>2.7</ele><time>2022-09-06T12:42:33Z</time><name>PT5624</name></trkpt>
<trkpt lat="52.721617" lon="06.064378"><ele>2.7</ele><time>2022-09-06T12:42:33Z</time><name>PT5625</name></trkpt>
<trkpt lat="52.721613" lon="06.064362"><ele>2.6</ele><time>2022-09-06T12:42:34Z</time><name>PT5626</name></trkpt>
<trkpt lat="52.721610" lon="06.064347"><ele>2.6</ele><time>2022-09-06T12:42:36Z</time><name>PT5627</name></trkpt>
<trkpt lat="52.721607" lon="06.064328"><ele>2.7</ele><time>2022-09-06T12:42:36Z</time><name>PT5628</name></trkpt>
<trkpt lat="52.721604" lon="06.064308"><ele>2.7</ele><time>2022-09-06T12:42:37Z</time><name>PT5629</name></trkpt>
<trkpt lat="52.721600" lon="06.064290"><ele>2.9</ele><time>2022-09-06T12:42:39Z</time><name>PT5630</name></trkpt>
<trkpt lat="52.721597" lon="06.064271"><ele>3</ele><time>2022-09-06T12:42:39Z</time><name>PT5631</name></trkpt>
<trkpt lat="52.721594" lon="06.064255"><ele>3.2</ele><time>2022-09-06T12:42:40Z</time><name>PT5632</name></trkpt>
<trkpt lat="52.721592" lon="06.064239"><ele>3.3</ele><time>2022-09-06T12:42:42Z</time><name>PT5633</name></trkpt>
<trkpt lat="52.721591" lon="06.064223"><ele>3.2</ele><time>2022-09-06T12:42:42Z</time><name>PT5634</name></trkpt>
<trkpt lat="52.721590" lon="06.064208"><ele>3.2</ele><time>2022-09-06T12:42:43Z</time><name>PT5635</name></trkpt>
<trkpt lat="52.721590" lon="06.064194"><ele>3</ele><time>2022-09-06T12:42:45Z</time><name>PT5636</name></trkpt>
<trkpt lat="52.721592" lon="06.064177"><ele>3.1</ele><time>2022-09-06T12:42:45Z</time><name>PT5637</name></trkpt>
<trkpt lat="52.721590" lon="06.064160"><ele>3.1</ele><time>2022-09-06T12:42:46Z</time><name>PT5638</name></trkpt>
<trkpt lat="52.721586" lon="06.064144"><ele>3.2</ele><time>2022-09-06T12:42:48Z</time><name>PT5639</name></trkpt>
<trkpt lat="52.721583" lon="06.064129"><ele>3.2</ele><time>2022-09-06T12:42:48Z</time><name>PT5640</name></trkpt>
<trkpt lat="52.721581" lon="06.064115"><ele>3.3</ele><time>2022-09-06T12:42:49Z</time><name>PT5641</name></trkpt>
<trkpt lat="52.721580" lon="06.064099"><ele>3.4</ele><time>2022-09-06T12:42:51Z</time><name>PT5642</name></trkpt>
<trkpt lat="52.721580" lon="06.064081"><ele>3.4</ele><time>2022-09-06T12:42:51Z</time><name>PT5643</name></trkpt>
<trkpt lat="52.721579" lon="06.064063"><ele>3.4</ele><time>2022-09-06T12:42:52Z</time><name>PT5644</name></trkpt>
<trkpt lat="52.721577" lon="06.064050"><ele>3.4</ele><time>2022-09-06T12:42:54Z</time><name>PT5645</name></trkpt>
<trkpt lat="52.721575" lon="06.064041"><ele>3.3</ele><time>2022-09-06T12:42:54Z</time><name>PT5646</name></trkpt>
<trkpt lat="52.721574" lon="06.064031"><ele>3.3</ele><time>2022-09-06T12:42:55Z</time><name>PT5647</name></trkpt>
<trkpt lat="52.721573" lon="06.064024"><ele>3.2</ele><time>2022-09-06T12:42:57Z</time><name>PT5648</name></trkpt>
<trkpt lat="52.721572" lon="06.064023"><ele>3.2</ele><time>2022-09-06T12:42:57Z</time><name>PT5649</name></trkpt>
<trkpt lat="52.721572" lon="06.064021"><ele>3.1</ele><time>2022-09-06T12:42:59Z</time><name>PT5650</name></trkpt>
<trkpt lat="52.721573" lon="06.064018"><ele>3.1</ele><time>2022-09-06T12:43:00Z</time><name>PT5651</name></trkpt>
<trkpt lat="52.721572" lon="06.064016"><ele>3.1</ele><time>2022-09-06T12:43:00Z</time><name>PT5652</name></trkpt>
<trkpt lat="52.721570" lon="06.064014"><ele>3</ele><time>2022-09-06T12:43:01Z</time><name>PT5653</name></trkpt>
<trkpt lat="52.721567" lon="06.064013"><ele>3</ele><time>2022-09-06T12:43:04Z</time><name>PT5654</name></trkpt>
<trkpt lat="52.721567" lon="06.064015"><ele>3.2</ele><time>2022-09-06T12:43:06Z</time><name>PT5655</name></trkpt>
<trkpt lat="52.721569" lon="06.064007"><ele>3.2</ele><time>2022-09-06T12:43:06Z</time><name>PT5656</name></trkpt>
<trkpt lat="52.721567" lon="06.064008"><ele>3.1</ele><time>2022-09-06T12:43:07Z</time><name>PT5657</name></trkpt>
<trkpt lat="52.721567" lon="06.064007"><ele>3</ele><time>2022-09-06T12:43:09Z</time><name>PT5658</name></trkpt>
<trkpt lat="52.721568" lon="06.064007"><ele>3.1</ele><time>2022-09-06T12:43:09Z</time><name>PT5659</name></trkpt>
<trkpt lat="52.721569" lon="06.064005"><ele>3</ele><time>2022-09-06T12:43:36Z</time><name>PT5660</name></trkpt>
<trkpt lat="52.721572" lon="06.064001"><ele>2.9</ele><time>2022-09-06T12:43:36Z</time><name>PT5661</name></trkpt>
<trkpt lat="52.721573" lon="06.063989"><ele>2.8</ele><time>2022-09-06T12:43:37Z</time><name>PT5662</name></trkpt>
<trkpt lat="52.721574" lon="06.063974"><ele>2.7</ele><time>2022-09-06T12:43:39Z</time><name>PT5663</name></trkpt>
<trkpt lat="52.721572" lon="06.063957"><ele>2.7</ele><time>2022-09-06T12:43:39Z</time><name>PT5664</name></trkpt>
<trkpt lat="52.721571" lon="06.063944"><ele>2.5</ele><time>2022-09-06T12:43:40Z</time><name>PT5665</name></trkpt>
<trkpt lat="52.721572" lon="06.063932"><ele>2.4</ele><time>2022-09-06T12:43:42Z</time><name>PT5666</name></trkpt>
<trkpt lat="52.721572" lon="06.063915"><ele>2.3</ele><time>2022-09-06T12:43:42Z</time><name>PT5667</name></trkpt>
<trkpt lat="52.721571" lon="06.063894"><ele>2.2</ele><time>2022-09-06T12:43:43Z</time><name>PT5668</name></trkpt>
<trkpt lat="52.721569" lon="06.063870"><ele>2.3</ele><time>2022-09-06T12:43:45Z</time><name>PT5669</name></trkpt>
<trkpt lat="52.721565" lon="06.063851"><ele>2.5</ele><time>2022-09-06T12:43:45Z</time><name>PT5670</name></trkpt>
<trkpt lat="52.721565" lon="06.063839"><ele>2.4</ele><time>2022-09-06T12:43:46Z</time><name>PT5671</name></trkpt>
<trkpt lat="52.721567" lon="06.063831"><ele>2.2</ele><time>2022-09-06T12:43:48Z</time><name>PT5672</name></trkpt>
<trkpt lat="52.721567" lon="06.063818"><ele>2.2</ele><time>2022-09-06T12:43:48Z</time><name>PT5673</name></trkpt>
<trkpt lat="52.721565" lon="06.063806"><ele>2.2</ele><time>2022-09-06T12:43:49Z</time><name>PT5674</name></trkpt>
<trkpt lat="52.721565" lon="06.063800"><ele>1.8</ele><time>2022-09-06T12:43:51Z</time><name>PT5675</name></trkpt>
<trkpt lat="52.721566" lon="06.063792"><ele>1.8</ele><time>2022-09-06T12:43:51Z</time><name>PT5676</name></trkpt>
<trkpt lat="52.721568" lon="06.063784"><ele>1.9</ele><time>2022-09-06T12:43:52Z</time><name>PT5677</name></trkpt>
<trkpt lat="52.721569" lon="06.063770"><ele>1.9</ele><time>2022-09-06T12:43:54Z</time><name>PT5678</name></trkpt>
<trkpt lat="52.721567" lon="06.063748"><ele>1.7</ele><time>2022-09-06T12:43:54Z</time><name>PT5679</name></trkpt>
<trkpt lat="52.721565" lon="06.063724"><ele>1.6</ele><time>2022-09-06T12:43:55Z</time><name>PT5680</name></trkpt>
<trkpt lat="52.721563" lon="06.063703"><ele>1.6</ele><time>2022-09-06T12:43:57Z</time><name>PT5681</name></trkpt>
<trkpt lat="52.721563" lon="06.063692"><ele>1.5</ele><time>2022-09-06T12:43:57Z</time><name>PT5682</name></trkpt>
<trkpt lat="52.721564" lon="06.063689"><ele>1.4</ele><time>2022-09-06T12:43:58Z</time><name>PT5683</name></trkpt>
<trkpt lat="52.721565" lon="06.063682"><ele>1.3</ele><time>2022-09-06T12:44:00Z</time><name>PT5684</name></trkpt>
<trkpt lat="52.721566" lon="06.063664"><ele>1.3</ele><time>2022-09-06T12:44:00Z</time><name>PT5685</name></trkpt>
<trkpt lat="52.721564" lon="06.063638"><ele>1.3</ele><time>2022-09-06T12:44:01Z</time><name>PT5686</name></trkpt>
<trkpt lat="52.721562" lon="06.063609"><ele>1.2</ele><time>2022-09-06T12:44:03Z</time><name>PT5687</name></trkpt>
<trkpt lat="52.721559" lon="06.063583"><ele>1.2</ele><time>2022-09-06T12:44:03Z</time><name>PT5688</name></trkpt>
<trkpt lat="52.721557" lon="06.063568"><ele>1.2</ele><time>2022-09-06T12:44:04Z</time><name>PT5689</name></trkpt>
<trkpt lat="52.721558" lon="06.063561"><ele>1</ele><time>2022-09-06T12:44:06Z</time><name>PT5690</name></trkpt>
<trkpt lat="52.721559" lon="06.063562"><ele>1</ele><time>2022-09-06T12:44:06Z</time><name>PT5691</name></trkpt>
<trkpt lat="52.721560" lon="06.063564"><ele>1</ele><time>2022-09-06T12:44:07Z</time><name>PT5692</name></trkpt>
<trkpt lat="52.721563" lon="06.063567"><ele>1.1</ele><time>2022-09-06T12:44:09Z</time><name>PT5693</name></trkpt>
<trkpt lat="52.721571" lon="06.063554"><ele>1.2</ele><time>2022-09-06T12:44:12Z</time><name>PT5694</name></trkpt>
<trkpt lat="52.721572" lon="06.063537"><ele>1.3</ele><time>2022-09-06T12:44:12Z</time><name>PT5695</name></trkpt>
<trkpt lat="52.721569" lon="06.063510"><ele>1.3</ele><time>2022-09-06T12:44:13Z</time><name>PT5696</name></trkpt>
<trkpt lat="52.721567" lon="06.063495"><ele>1.4</ele><time>2022-09-06T12:44:15Z</time><name>PT5697</name></trkpt>
<trkpt lat="52.721566" lon="06.063473"><ele>1.3</ele><time>2022-09-06T12:44:15Z</time><name>PT5698</name></trkpt>
<trkpt lat="52.721566" lon="06.063452"><ele>1.2</ele><time>2022-09-06T12:44:16Z</time><name>PT5699</name></trkpt>
<trkpt lat="52.721565" lon="06.063435"><ele>1.1</ele><time>2022-09-06T12:44:18Z</time><name>PT5700</name></trkpt>
<trkpt lat="52.721565" lon="06.063424"><ele>1.1</ele><time>2022-09-06T12:44:18Z</time><name>PT5701</name></trkpt>
<trkpt lat="52.721567" lon="06.063408"><ele>1.1</ele><time>2022-09-06T12:44:19Z</time><name>PT5702</name></trkpt>
<trkpt lat="52.721568" lon="06.063386"><ele>1.1</ele><time>2022-09-06T12:44:21Z</time><name>PT5703</name></trkpt>
<trkpt lat="52.721571" lon="06.063366"><ele>1.1</ele><time>2022-09-06T12:44:21Z</time><name>PT5704</name></trkpt>
<trkpt lat="52.721577" lon="06.063347"><ele>1.2</ele><time>2022-09-06T12:44:22Z</time><name>PT5705</name></trkpt>
<trkpt lat="52.721580" lon="06.063327"><ele>1.2</ele><time>2022-09-06T12:44:24Z</time><name>PT5706</name></trkpt>
<trkpt lat="52.721576" lon="06.063312"><ele>1.2</ele><time>2022-09-06T12:44:24Z</time><name>PT5707</name></trkpt>
<trkpt lat="52.721572" lon="06.063304"><ele>1.2</ele><time>2022-09-06T12:44:25Z</time><name>PT5708</name></trkpt>
<trkpt lat="52.721568" lon="06.063308"><ele>1.1</ele><time>2022-09-06T12:44:27Z</time><name>PT5709</name></trkpt>
<trkpt lat="52.721566" lon="06.063303"><ele>1.1</ele><time>2022-09-06T12:44:27Z</time><name>PT5710</name></trkpt>
<trkpt lat="52.721567" lon="06.063287"><ele>0.9</ele><time>2022-09-06T12:44:28Z</time><name>PT5711</name></trkpt>
<trkpt lat="52.721567" lon="06.063263"><ele>1.1</ele><time>2022-09-06T12:44:30Z</time><name>PT5712</name></trkpt>
<trkpt lat="52.721565" lon="06.063239"><ele>1.1</ele><time>2022-09-06T12:44:30Z</time><name>PT5713</name></trkpt>
<trkpt lat="52.721563" lon="06.063224"><ele>1.3</ele><time>2022-09-06T12:44:31Z</time><name>PT5714</name></trkpt>
<trkpt lat="52.721562" lon="06.063212"><ele>1.3</ele><time>2022-09-06T12:44:33Z</time><name>PT5715</name></trkpt>
<trkpt lat="52.721562" lon="06.063204"><ele>1.4</ele><time>2022-09-06T12:44:33Z</time><name>PT5716</name></trkpt>
<trkpt lat="52.721562" lon="06.063196"><ele>1.3</ele><time>2022-09-06T12:44:34Z</time><name>PT5717</name></trkpt>
<trkpt lat="52.721563" lon="06.063188"><ele>1.2</ele><time>2022-09-06T12:44:36Z</time><name>PT5718</name></trkpt>
<trkpt lat="52.721565" lon="06.063171"><ele>1.2</ele><time>2022-09-06T12:44:36Z</time><name>PT5719</name></trkpt>
<trkpt lat="52.721567" lon="06.063151"><ele>1.2</ele><time>2022-09-06T12:44:37Z</time><name>PT5720</name></trkpt>
<trkpt lat="52.721568" lon="06.063128"><ele>1.2</ele><time>2022-09-06T12:44:39Z</time><name>PT5721</name></trkpt>
<trkpt lat="52.721566" lon="06.063099"><ele>1.2</ele><time>2022-09-06T12:44:39Z</time><name>PT5722</name></trkpt>
<trkpt lat="52.721566" lon="06.063068"><ele>1.2</ele><time>2022-09-06T12:44:40Z</time><name>PT5723</name></trkpt>
<trkpt lat="52.721567" lon="06.063040"><ele>1.2</ele><time>2022-09-06T12:44:42Z</time><name>PT5724</name></trkpt>
<trkpt lat="52.721566" lon="06.063016"><ele>1.2</ele><time>2022-09-06T12:44:42Z</time><name>PT5725</name></trkpt>
<trkpt lat="52.721563" lon="06.062992"><ele>1.4</ele><time>2022-09-06T12:44:43Z</time><name>PT5726</name></trkpt>
<trkpt lat="52.721560" lon="06.062975"><ele>1.5</ele><time>2022-09-06T12:44:45Z</time><name>PT5727</name></trkpt>
<trkpt lat="52.721560" lon="06.062960"><ele>1.6</ele><time>2022-09-06T12:44:45Z</time><name>PT5728</name></trkpt>
<trkpt lat="52.721558" lon="06.062948"><ele>1.6</ele><time>2022-09-06T12:44:46Z</time><name>PT5729</name></trkpt>
<trkpt lat="52.721557" lon="06.062937"><ele>1.5</ele><time>2022-09-06T12:44:48Z</time><name>PT5730</name></trkpt>
<trkpt lat="52.721557" lon="06.062924"><ele>1.5</ele><time>2022-09-06T12:44:48Z</time><name>PT5731</name></trkpt>
<trkpt lat="52.721558" lon="06.062911"><ele>1.4</ele><time>2022-09-06T12:44:49Z</time><name>PT5732</name></trkpt>
<trkpt lat="52.721562" lon="06.062898"><ele>1.3</ele><time>2022-09-06T12:44:51Z</time><name>PT5733</name></trkpt>
<trkpt lat="52.721567" lon="06.062880"><ele>1.3</ele><time>2022-09-06T12:44:51Z</time><name>PT5734</name></trkpt>
<trkpt lat="52.721567" lon="06.062858"><ele>1.6</ele><time>2022-09-06T12:44:52Z</time><name>PT5735</name></trkpt>
<trkpt lat="52.721567" lon="06.062834"><ele>1.6</ele><time>2022-09-06T12:44:54Z</time><name>PT5736</name></trkpt>
<trkpt lat="52.721570" lon="06.062807"><ele>1.6</ele><time>2022-09-06T12:44:54Z</time><name>PT5737</name></trkpt>
<trkpt lat="52.721570" lon="06.062778"><ele>1.4</ele><time>2022-09-06T12:44:55Z</time><name>PT5738</name></trkpt>
<trkpt lat="52.721570" lon="06.062750"><ele>1.2</ele><time>2022-09-06T12:44:57Z</time><name>PT5739</name></trkpt>
<trkpt lat="52.721568" lon="06.062726"><ele>1.2</ele><time>2022-09-06T12:44:57Z</time><name>PT5740</name></trkpt>
<trkpt lat="52.721564" lon="06.062702"><ele>1</ele><time>2022-09-06T12:44:58Z</time><name>PT5741</name></trkpt>
<trkpt lat="52.721561" lon="06.062682"><ele>0.9</ele><time>2022-09-06T12:45:00Z</time><name>PT5742</name></trkpt>
<trkpt lat="52.721559" lon="06.062670"><ele>1.1</ele><time>2022-09-06T12:45:00Z</time><name>PT5743</name></trkpt>
<trkpt lat="52.721559" lon="06.062660"><ele>1.2</ele><time>2022-09-06T12:45:01Z</time><name>PT5744</name></trkpt>
<trkpt lat="52.721561" lon="06.062655"><ele>1.2</ele><time>2022-09-06T12:45:03Z</time><name>PT5745</name></trkpt>
<trkpt lat="52.721561" lon="06.062648"><ele>1.3</ele><time>2022-09-06T12:45:03Z</time><name>PT5746</name></trkpt>
<trkpt lat="52.721560" lon="06.062638"><ele>1.4</ele><time>2022-09-06T12:45:04Z</time><name>PT5747</name></trkpt>
<trkpt lat="52.721560" lon="06.062623"><ele>1.2</ele><time>2022-09-06T12:45:06Z</time><name>PT5748</name></trkpt>
<trkpt lat="52.721558" lon="06.062606"><ele>1.2</ele><time>2022-09-06T12:45:06Z</time><name>PT5749</name></trkpt>
<trkpt lat="52.721556" lon="06.062585"><ele>1.2</ele><time>2022-09-06T12:45:07Z</time><name>PT5750</name></trkpt>
<trkpt lat="52.721556" lon="06.062574"><ele>1</ele><time>2022-09-06T12:45:09Z</time><name>PT5751</name></trkpt>
<trkpt lat="52.721555" lon="06.062549"><ele>1.1</ele><time>2022-09-06T12:45:09Z</time><name>PT5752</name></trkpt>
<trkpt lat="52.721555" lon="06.062521"><ele>1.2</ele><time>2022-09-06T12:45:10Z</time><name>PT5753</name></trkpt>
<trkpt lat="52.721552" lon="06.062499"><ele>1.2</ele><time>2022-09-06T12:45:12Z</time><name>PT5754</name></trkpt>
<trkpt lat="52.721548" lon="06.062481"><ele>1.1</ele><time>2022-09-06T12:45:12Z</time><name>PT5755</name></trkpt>
<trkpt lat="52.721546" lon="06.062464"><ele>1.2</ele><time>2022-09-06T12:45:13Z</time><name>PT5756</name></trkpt>
<trkpt lat="52.721543" lon="06.062447"><ele>1.2</ele><time>2022-09-06T12:45:15Z</time><name>PT5757</name></trkpt>
<trkpt lat="52.721541" lon="06.062436"><ele>1.1</ele><time>2022-09-06T12:45:15Z</time><name>PT5758</name></trkpt>
<trkpt lat="52.721535" lon="06.062428"><ele>1.1</ele><time>2022-09-06T12:45:17Z</time><name>PT5759</name></trkpt>
<trkpt lat="52.721533" lon="06.062414"><ele>1.1</ele><time>2022-09-06T12:45:18Z</time><name>PT5760</name></trkpt>
<trkpt lat="52.721531" lon="06.062400"><ele>1.1</ele><time>2022-09-06T12:45:18Z</time><name>PT5761</name></trkpt>
<trkpt lat="52.721527" lon="06.062379"><ele>1.2</ele><time>2022-09-06T12:45:19Z</time><name>PT5762</name></trkpt>
<trkpt lat="52.721529" lon="06.062359"><ele>1.2</ele><time>2022-09-06T12:45:21Z</time><name>PT5763</name></trkpt>
<trkpt lat="52.721532" lon="06.062337"><ele>1.2</ele><time>2022-09-06T12:45:21Z</time><name>PT5764</name></trkpt>
<trkpt lat="52.721532" lon="06.062313"><ele>1.2</ele><time>2022-09-06T12:45:23Z</time><name>PT5765</name></trkpt>
<trkpt lat="52.721533" lon="06.062289"><ele>1.2</ele><time>2022-09-06T12:45:24Z</time><name>PT5766</name></trkpt>
<trkpt lat="52.721531" lon="06.062266"><ele>1.2</ele><time>2022-09-06T12:45:24Z</time><name>PT5767</name></trkpt>
<trkpt lat="52.721531" lon="06.062246"><ele>1.2</ele><time>2022-09-06T12:45:25Z</time><name>PT5768</name></trkpt>
<trkpt lat="52.721529" lon="06.062229"><ele>1.1</ele><time>2022-09-06T12:45:27Z</time><name>PT5769</name></trkpt>
<trkpt lat="52.721529" lon="06.062216"><ele>1.2</ele><time>2022-09-06T12:45:27Z</time><name>PT5770</name></trkpt>
<trkpt lat="52.721528" lon="06.062202"><ele>1.2</ele><time>2022-09-06T12:45:28Z</time><name>PT5771</name></trkpt>
<trkpt lat="52.721528" lon="06.062184"><ele>1.2</ele><time>2022-09-06T12:45:30Z</time><name>PT5772</name></trkpt>
<trkpt lat="52.721528" lon="06.062167"><ele>1.2</ele><time>2022-09-06T12:45:30Z</time><name>PT5773</name></trkpt>
<trkpt lat="52.721511" lon="06.062136"><ele>1.3</ele><time>2022-09-06T12:45:32Z</time><name>PT5774</name></trkpt>
<trkpt lat="52.721507" lon="06.062110"><ele>1.5</ele><time>2022-09-06T12:45:33Z</time><name>PT5775</name></trkpt>
<trkpt lat="52.721508" lon="06.062084"><ele>1.3</ele><time>2022-09-06T12:45:33Z</time><name>PT5776</name></trkpt>
<trkpt lat="52.721508" lon="06.062058"><ele>1.4</ele><time>2022-09-06T12:45:34Z</time><name>PT5777</name></trkpt>
<trkpt lat="52.721507" lon="06.062035"><ele>1.4</ele><time>2022-09-06T12:45:36Z</time><name>PT5778</name></trkpt>
<trkpt lat="52.721507" lon="06.062010"><ele>1.4</ele><time>2022-09-06T12:45:36Z</time><name>PT5779</name></trkpt>
<trkpt lat="52.721505" lon="06.061987"><ele>1.2</ele><time>2022-09-06T12:45:37Z</time><name>PT5780</name></trkpt>
<trkpt lat="52.721505" lon="06.061967"><ele>1.4</ele><time>2022-09-06T12:45:39Z</time><name>PT5781</name></trkpt>
<trkpt lat="52.721505" lon="06.061955"><ele>1.4</ele><time>2022-09-06T12:45:39Z</time><name>PT5782</name></trkpt>
<trkpt lat="52.721505" lon="06.061946"><ele>1.7</ele><time>2022-09-06T12:45:40Z</time><name>PT5783</name></trkpt>
<trkpt lat="52.721504" lon="06.061935"><ele>1.5</ele><time>2022-09-06T12:45:42Z</time><name>PT5784</name></trkpt>
<trkpt lat="52.721503" lon="06.061924"><ele>1.5</ele><time>2022-09-06T12:45:42Z</time><name>PT5785</name></trkpt>
<trkpt lat="52.721505" lon="06.061912"><ele>1.4</ele><time>2022-09-06T12:45:43Z</time><name>PT5786</name></trkpt>
<trkpt lat="52.721503" lon="06.061890"><ele>1.4</ele><time>2022-09-06T12:45:45Z</time><name>PT5787</name></trkpt>
<trkpt lat="52.721503" lon="06.061872"><ele>1.3</ele><time>2022-09-06T12:45:45Z</time><name>PT5788</name></trkpt>
<trkpt lat="52.721499" lon="06.061848"><ele>1.3</ele><time>2022-09-06T12:45:47Z</time><name>PT5789</name></trkpt>
<trkpt lat="52.721501" lon="06.061826"><ele>1.2</ele><time>2022-09-06T12:45:48Z</time><name>PT5790</name></trkpt>
<trkpt lat="52.721504" lon="06.061802"><ele>1.2</ele><time>2022-09-06T12:45:48Z</time><name>PT5791</name></trkpt>
<trkpt lat="52.721504" lon="06.061780"><ele>1.2</ele><time>2022-09-06T12:45:49Z</time><name>PT5792</name></trkpt>
<trkpt lat="52.721507" lon="06.061767"><ele>1.2</ele><time>2022-09-06T12:45:51Z</time><name>PT5793</name></trkpt>
<trkpt lat="52.721506" lon="06.061753"><ele>1.1</ele><time>2022-09-06T12:45:51Z</time><name>PT5794</name></trkpt>
<trkpt lat="52.721505" lon="06.061744"><ele>1.1</ele><time>2022-09-06T12:45:52Z</time><name>PT5795</name></trkpt>
<trkpt lat="52.721506" lon="06.061734"><ele>1.3</ele><time>2022-09-06T12:45:54Z</time><name>PT5796</name></trkpt>
<trkpt lat="52.721507" lon="06.061720"><ele>1.3</ele><time>2022-09-06T12:45:54Z</time><name>PT5797</name></trkpt>
<trkpt lat="52.721511" lon="06.061705"><ele>1.5</ele><time>2022-09-06T12:45:55Z</time><name>PT5798</name></trkpt>
<trkpt lat="52.721509" lon="06.061684"><ele>1.6</ele><time>2022-09-06T12:45:57Z</time><name>PT5799</name></trkpt>
<trkpt lat="52.721507" lon="06.061662"><ele>1.7</ele><time>2022-09-06T12:45:57Z</time><name>PT5800</name></trkpt>
<trkpt lat="52.721503" lon="06.061638"><ele>1.6</ele><time>2022-09-06T12:45:58Z</time><name>PT5801</name></trkpt>
<trkpt lat="52.721498" lon="06.061614"><ele>1.3</ele><time>2022-09-06T12:46:00Z</time><name>PT5802</name></trkpt>
<trkpt lat="52.721495" lon="06.061588"><ele>1.2</ele><time>2022-09-06T12:46:00Z</time><name>PT5803</name></trkpt>
<trkpt lat="52.721493" lon="06.061568"><ele>1.3</ele><time>2022-09-06T12:46:02Z</time><name>PT5804</name></trkpt>
<trkpt lat="52.721493" lon="06.061549"><ele>1.2</ele><time>2022-09-06T12:46:03Z</time><name>PT5805</name></trkpt>
<trkpt lat="52.721493" lon="06.061526"><ele>1.2</ele><time>2022-09-06T12:46:03Z</time><name>PT5806</name></trkpt>
<trkpt lat="52.721492" lon="06.061512"><ele>1.3</ele><time>2022-09-06T12:46:04Z</time><name>PT5807</name></trkpt>
<trkpt lat="52.721491" lon="06.061500"><ele>1.5</ele><time>2022-09-06T12:46:06Z</time><name>PT5808</name></trkpt>
<trkpt lat="52.721492" lon="06.061489"><ele>1.4</ele><time>2022-09-06T12:46:06Z</time><name>PT5809</name></trkpt>
<trkpt lat="52.721490" lon="06.061474"><ele>1.6</ele><time>2022-09-06T12:46:07Z</time><name>PT5810</name></trkpt>
<trkpt lat="52.721490" lon="06.061449"><ele>1.5</ele><time>2022-09-06T12:46:09Z</time><name>PT5811</name></trkpt>
<trkpt lat="52.721489" lon="06.061424"><ele>1.5</ele><time>2022-09-06T12:46:09Z</time><name>PT5812</name></trkpt>
<trkpt lat="52.721490" lon="06.061400"><ele>1.3</ele><time>2022-09-06T12:46:10Z</time><name>PT5813</name></trkpt>
<trkpt lat="52.721490" lon="06.061378"><ele>1.4</ele><time>2022-09-06T12:46:12Z</time><name>PT5814</name></trkpt>
<trkpt lat="52.721490" lon="06.061358"><ele>1.3</ele><time>2022-09-06T12:46:12Z</time><name>PT5815</name></trkpt>
<trkpt lat="52.721489" lon="06.061339"><ele>1.4</ele><time>2022-09-06T12:46:13Z</time><name>PT5816</name></trkpt>
<trkpt lat="52.721489" lon="06.061324"><ele>1.4</ele><time>2022-09-06T12:46:15Z</time><name>PT5817</name></trkpt>
<trkpt lat="52.721488" lon="06.061308"><ele>1.6</ele><time>2022-09-06T12:46:15Z</time><name>PT5818</name></trkpt>
<trkpt lat="52.721487" lon="06.061298"><ele>1.4</ele><time>2022-09-06T12:46:17Z</time><name>PT5819</name></trkpt>
<trkpt lat="52.721488" lon="06.061288"><ele>1.4</ele><time>2022-09-06T12:46:18Z</time><name>PT5820</name></trkpt>
<trkpt lat="52.721491" lon="06.061278"><ele>1.3</ele><time>2022-09-06T12:46:18Z</time><name>PT5821</name></trkpt>
<trkpt lat="52.721491" lon="06.061266"><ele>1.2</ele><time>2022-09-06T12:46:19Z</time><name>PT5822</name></trkpt>
<trkpt lat="52.721491" lon="06.061250"><ele>1.2</ele><time>2022-09-06T12:46:21Z</time><name>PT5823</name></trkpt>
<trkpt lat="52.721492" lon="06.061228"><ele>1.2</ele><time>2022-09-06T12:46:21Z</time><name>PT5824</name></trkpt>
<trkpt lat="52.721488" lon="06.061204"><ele>1.2</ele><time>2022-09-06T12:46:22Z</time><name>PT5825</name></trkpt>
<trkpt lat="52.721486" lon="06.061177"><ele>1.2</ele><time>2022-09-06T12:46:24Z</time><name>PT5826</name></trkpt>
<trkpt lat="52.721484" lon="06.061149"><ele>1.5</ele><time>2022-09-06T12:46:24Z</time><name>PT5827</name></trkpt>
<trkpt lat="52.721483" lon="06.061125"><ele>1.4</ele><time>2022-09-06T12:46:25Z</time><name>PT5828</name></trkpt>
<trkpt lat="52.721478" lon="06.061097"><ele>1.4</ele><time>2022-09-06T12:46:27Z</time><name>PT5829</name></trkpt>
<trkpt lat="52.721475" lon="06.061075"><ele>1.4</ele><time>2022-09-06T12:46:27Z</time><name>PT5830</name></trkpt>
<trkpt lat="52.721473" lon="06.061060"><ele>1.6</ele><time>2022-09-06T12:46:28Z</time><name>PT5831</name></trkpt>
<trkpt lat="52.721473" lon="06.061050"><ele>1.5</ele><time>2022-09-06T12:46:30Z</time><name>PT5832</name></trkpt>
<trkpt lat="52.721471" lon="06.061042"><ele>1.5</ele><time>2022-09-06T12:46:30Z</time><name>PT5833</name></trkpt>
<trkpt lat="52.721471" lon="06.061035"><ele>1.4</ele><time>2022-09-06T12:46:31Z</time><name>PT5834</name></trkpt>
<trkpt lat="52.721471" lon="06.061027"><ele>1.4</ele><time>2022-09-06T12:46:33Z</time><name>PT5835</name></trkpt>
<trkpt lat="52.721471" lon="06.061019"><ele>1.4</ele><time>2022-09-06T12:46:33Z</time><name>PT5836</name></trkpt>
<trkpt lat="52.721473" lon="06.061009"><ele>1.5</ele><time>2022-09-06T12:46:34Z</time><name>PT5837</name></trkpt>
<trkpt lat="52.721474" lon="06.060988"><ele>1.3</ele><time>2022-09-06T12:46:36Z</time><name>PT5838</name></trkpt>
<trkpt lat="52.721475" lon="06.060960"><ele>1.5</ele><time>2022-09-06T12:46:36Z</time><name>PT5839</name></trkpt>
<trkpt lat="52.721475" lon="06.060934"><ele>1.4</ele><time>2022-09-06T12:46:37Z</time><name>PT5840</name></trkpt>
<trkpt lat="52.721474" lon="06.060908"><ele>1.2</ele><time>2022-09-06T12:46:39Z</time><name>PT5841</name></trkpt>
<trkpt lat="52.721471" lon="06.060877"><ele>1.2</ele><time>2022-09-06T12:46:39Z</time><name>PT5842</name></trkpt>
<trkpt lat="52.721470" lon="06.060852"><ele>1.2</ele><time>2022-09-06T12:46:40Z</time><name>PT5843</name></trkpt>
<trkpt lat="52.721470" lon="06.060831"><ele>1.1</ele><time>2022-09-06T12:46:42Z</time><name>PT5844</name></trkpt>
<trkpt lat="52.721469" lon="06.060816"><ele>1.1</ele><time>2022-09-06T12:46:42Z</time><name>PT5845</name></trkpt>
<trkpt lat="52.721468" lon="06.060805"><ele>1.2</ele><time>2022-09-06T12:46:43Z</time><name>PT5846</name></trkpt>
<trkpt lat="52.721467" lon="06.060798"><ele>1.2</ele><time>2022-09-06T12:46:45Z</time><name>PT5847</name></trkpt>
<trkpt lat="52.721470" lon="06.060786"><ele>1.2</ele><time>2022-09-06T12:46:45Z</time><name>PT5848</name></trkpt>
<trkpt lat="52.721470" lon="06.060772"><ele>1.4</ele><time>2022-09-06T12:46:46Z</time><name>PT5849</name></trkpt>
<trkpt lat="52.721470" lon="06.060748"><ele>1.4</ele><time>2022-09-06T12:46:48Z</time><name>PT5850</name></trkpt>
<trkpt lat="52.721468" lon="06.060720"><ele>1.4</ele><time>2022-09-06T12:46:48Z</time><name>PT5851</name></trkpt>
<trkpt lat="52.721466" lon="06.060694"><ele>1.5</ele><time>2022-09-06T12:46:49Z</time><name>PT5852</name></trkpt>
<trkpt lat="52.721464" lon="06.060674"><ele>1.5</ele><time>2022-09-06T12:46:51Z</time><name>PT5853</name></trkpt>
<trkpt lat="52.721463" lon="06.060655"><ele>1.4</ele><time>2022-09-06T12:46:51Z</time><name>PT5854</name></trkpt>
<trkpt lat="52.721462" lon="06.060634"><ele>1.5</ele><time>2022-09-06T12:46:52Z</time><name>PT5855</name></trkpt>
<trkpt lat="52.721460" lon="06.060610"><ele>1.5</ele><time>2022-09-06T12:46:54Z</time><name>PT5856</name></trkpt>
<trkpt lat="52.721460" lon="06.060589"><ele>1.4</ele><time>2022-09-06T12:46:54Z</time><name>PT5857</name></trkpt>
<trkpt lat="52.721460" lon="06.060570"><ele>1.3</ele><time>2022-09-06T12:46:55Z</time><name>PT5858</name></trkpt>
<trkpt lat="52.721460" lon="06.060559"><ele>1.5</ele><time>2022-09-06T12:46:57Z</time><name>PT5859</name></trkpt>
<trkpt lat="52.721460" lon="06.060546"><ele>1.6</ele><time>2022-09-06T12:46:57Z</time><name>PT5860</name></trkpt>
<trkpt lat="52.721459" lon="06.060530"><ele>1.6</ele><time>2022-09-06T12:46:58Z</time><name>PT5861</name></trkpt>
<trkpt lat="52.721459" lon="06.060512"><ele>1.6</ele><time>2022-09-06T12:47:00Z</time><name>PT5862</name></trkpt>
<trkpt lat="52.721457" lon="06.060499"><ele>1.5</ele><time>2022-09-06T12:47:00Z</time><name>PT5863</name></trkpt>
<trkpt lat="52.721459" lon="06.060479"><ele>1.3</ele><time>2022-09-06T12:47:01Z</time><name>PT5864</name></trkpt>
<trkpt lat="52.721461" lon="06.060454"><ele>1.1</ele><time>2022-09-06T12:47:03Z</time><name>PT5865</name></trkpt>
<trkpt lat="52.721461" lon="06.060433"><ele>1.1</ele><time>2022-09-06T12:47:03Z</time><name>PT5866</name></trkpt>
<trkpt lat="52.721460" lon="06.060413"><ele>1.2</ele><time>2022-09-06T12:47:04Z</time><name>PT5867</name></trkpt>
<trkpt lat="52.721458" lon="06.060402"><ele>1.1</ele><time>2022-09-06T12:47:06Z</time><name>PT5868</name></trkpt>
<trkpt lat="52.721458" lon="06.060390"><ele>1.1</ele><time>2022-09-06T12:47:06Z</time><name>PT5869</name></trkpt>
<trkpt lat="52.721458" lon="06.060374"><ele>1.2</ele><time>2022-09-06T12:47:07Z</time><name>PT5870</name></trkpt>
<trkpt lat="52.721457" lon="06.060359"><ele>1.2</ele><time>2022-09-06T12:47:09Z</time><name>PT5871</name></trkpt>
<trkpt lat="52.721455" lon="06.060342"><ele>1.1</ele><time>2022-09-06T12:47:09Z</time><name>PT5872</name></trkpt>
<trkpt lat="52.721458" lon="06.060323"><ele>1.1</ele><time>2022-09-06T12:47:10Z</time><name>PT5873</name></trkpt>
<trkpt lat="52.721459" lon="06.060303"><ele>1.2</ele><time>2022-09-06T12:47:12Z</time><name>PT5874</name></trkpt>
<trkpt lat="52.721461" lon="06.060278"><ele>1.1</ele><time>2022-09-06T12:47:12Z</time><name>PT5875</name></trkpt>
<trkpt lat="52.721461" lon="06.060249"><ele>1.2</ele><time>2022-09-06T12:47:13Z</time><name>PT5876</name></trkpt>
<trkpt lat="52.721464" lon="06.060225"><ele>1.4</ele><time>2022-09-06T12:47:15Z</time><name>PT5877</name></trkpt>
<trkpt lat="52.721464" lon="06.060201"><ele>1.6</ele><time>2022-09-06T12:47:15Z</time><name>PT5878</name></trkpt>
<trkpt lat="52.721459" lon="06.060172"><ele>1.5</ele><time>2022-09-06T12:47:16Z</time><name>PT5879</name></trkpt>
<trkpt lat="52.721455" lon="06.060143"><ele>1.6</ele><time>2022-09-06T12:47:18Z</time><name>PT5880</name></trkpt>
<trkpt lat="52.721454" lon="06.060120"><ele>1.5</ele><time>2022-09-06T12:47:18Z</time><name>PT5881</name></trkpt>
<trkpt lat="52.721453" lon="06.060097"><ele>1.4</ele><time>2022-09-06T12:47:19Z</time><name>PT5882</name></trkpt>
<trkpt lat="52.721453" lon="06.060081"><ele>1.2</ele><time>2022-09-06T12:47:21Z</time><name>PT5883</name></trkpt>
<trkpt lat="52.721449" lon="06.060064"><ele>1.2</ele><time>2022-09-06T12:47:21Z</time><name>PT5884</name></trkpt>
<trkpt lat="52.721442" lon="06.060049"><ele>1.1</ele><time>2022-09-06T12:47:22Z</time><name>PT5885</name></trkpt>
<trkpt lat="52.721439" lon="06.060035"><ele>1.1</ele><time>2022-09-06T12:47:24Z</time><name>PT5886</name></trkpt>
<trkpt lat="52.721436" lon="06.060019"><ele>1.2</ele><time>2022-09-06T12:47:24Z</time><name>PT5887</name></trkpt>
<trkpt lat="52.721435" lon="06.060002"><ele>1.3</ele><time>2022-09-06T12:47:25Z</time><name>PT5888</name></trkpt>
<trkpt lat="52.721434" lon="06.059982"><ele>1.5</ele><time>2022-09-06T12:47:27Z</time><name>PT5889</name></trkpt>
<trkpt lat="52.721433" lon="06.059959"><ele>1.6</ele><time>2022-09-06T12:47:27Z</time><name>PT5890</name></trkpt>
<trkpt lat="52.721432" lon="06.059937"><ele>1.6</ele><time>2022-09-06T12:47:28Z</time><name>PT5891</name></trkpt>
<trkpt lat="52.721430" lon="06.059906"><ele>1.5</ele><time>2022-09-06T12:47:30Z</time><name>PT5892</name></trkpt>
<trkpt lat="52.721428" lon="06.059881"><ele>1.5</ele><time>2022-09-06T12:47:30Z</time><name>PT5893</name></trkpt>
<trkpt lat="52.721427" lon="06.059861"><ele>1.6</ele><time>2022-09-06T12:47:31Z</time><name>PT5894</name></trkpt>
<trkpt lat="52.721425" lon="06.059845"><ele>1.7</ele><time>2022-09-06T12:47:33Z</time><name>PT5895</name></trkpt>
<trkpt lat="52.721424" lon="06.059830"><ele>1.7</ele><time>2022-09-06T12:47:33Z</time><name>PT5896</name></trkpt>
<trkpt lat="52.721423" lon="06.059820"><ele>1.9</ele><time>2022-09-06T12:47:34Z</time><name>PT5897</name></trkpt>
<trkpt lat="52.721423" lon="06.059810"><ele>1.8</ele><time>2022-09-06T12:47:36Z</time><name>PT5898</name></trkpt>
<trkpt lat="52.721424" lon="06.059794"><ele>1.7</ele><time>2022-09-06T12:47:36Z</time><name>PT5899</name></trkpt>
<trkpt lat="52.721425" lon="06.059774"><ele>1.7</ele><time>2022-09-06T12:47:37Z</time><name>PT5900</name></trkpt>
<trkpt lat="52.721425" lon="06.059756"><ele>1.8</ele><time>2022-09-06T12:47:39Z</time><name>PT5901</name></trkpt>
<trkpt lat="52.721426" lon="06.059733"><ele>1.8</ele><time>2022-09-06T12:47:39Z</time><name>PT5902</name></trkpt>
<trkpt lat="52.721426" lon="06.059706"><ele>1.7</ele><time>2022-09-06T12:47:40Z</time><name>PT5903</name></trkpt>
<trkpt lat="52.721426" lon="06.059682"><ele>1.6</ele><time>2022-09-06T12:47:42Z</time><name>PT5904</name></trkpt>
<trkpt lat="52.721427" lon="06.059661"><ele>1.5</ele><time>2022-09-06T12:47:42Z</time><name>PT5905</name></trkpt>
<trkpt lat="52.721426" lon="06.059641"><ele>1.5</ele><time>2022-09-06T12:47:43Z</time><name>PT5906</name></trkpt>
<trkpt lat="52.721425" lon="06.059623"><ele>1.4</ele><time>2022-09-06T12:47:45Z</time><name>PT5907</name></trkpt>
<trkpt lat="52.721422" lon="06.059603"><ele>1.5</ele><time>2022-09-06T12:47:45Z</time><name>PT5908</name></trkpt>
<trkpt lat="52.721420" lon="06.059584"><ele>1.4</ele><time>2022-09-06T12:47:46Z</time><name>PT5909</name></trkpt>
<trkpt lat="52.721419" lon="06.059565"><ele>1.3</ele><time>2022-09-06T12:47:48Z</time><name>PT5910</name></trkpt>
<trkpt lat="52.721418" lon="06.059551"><ele>1.4</ele><time>2022-09-06T12:47:48Z</time><name>PT5911</name></trkpt>
<trkpt lat="52.721420" lon="06.059537"><ele>1.5</ele><time>2022-09-06T12:47:49Z</time><name>PT5912</name></trkpt>
<trkpt lat="52.721422" lon="06.059524"><ele>1.6</ele><time>2022-09-06T12:47:51Z</time><name>PT5913</name></trkpt>
<trkpt lat="52.721421" lon="06.059503"><ele>1.7</ele><time>2022-09-06T12:47:51Z</time><name>PT5914</name></trkpt>
<trkpt lat="52.721420" lon="06.059480"><ele>1.7</ele><time>2022-09-06T12:47:52Z</time><name>PT5915</name></trkpt>
<trkpt lat="52.721420" lon="06.059459"><ele>1.6</ele><time>2022-09-06T12:47:54Z</time><name>PT5916</name></trkpt>
<trkpt lat="52.721419" lon="06.059435"><ele>1.7</ele><time>2022-09-06T12:47:54Z</time><name>PT5917</name></trkpt>
<trkpt lat="52.721415" lon="06.059406"><ele>1.6</ele><time>2022-09-06T12:47:55Z</time><name>PT5918</name></trkpt>
<trkpt lat="52.721416" lon="06.059387"><ele>1.4</ele><time>2022-09-06T12:47:57Z</time><name>PT5919</name></trkpt>
<trkpt lat="52.721417" lon="06.059370"><ele>1.4</ele><time>2022-09-06T12:47:57Z</time><name>PT5920</name></trkpt>
<trkpt lat="52.721415" lon="06.059353"><ele>1.5</ele><time>2022-09-06T12:47:58Z</time><name>PT5921</name></trkpt>
<trkpt lat="52.721412" lon="06.059337"><ele>1.5</ele><time>2022-09-06T12:48:00Z</time><name>PT5922</name></trkpt>
<trkpt lat="52.721411" lon="06.059324"><ele>1.5</ele><time>2022-09-06T12:48:00Z</time><name>PT5923</name></trkpt>
<trkpt lat="52.721412" lon="06.059315"><ele>1.6</ele><time>2022-09-06T12:48:01Z</time><name>PT5924</name></trkpt>
<trkpt lat="52.721413" lon="06.059304"><ele>1.5</ele><time>2022-09-06T12:48:03Z</time><name>PT5925</name></trkpt>
<trkpt lat="52.721416" lon="06.059294"><ele>1.5</ele><time>2022-09-06T12:48:03Z</time><name>PT5926</name></trkpt>
<trkpt lat="52.721417" lon="06.059273"><ele>1.5</ele><time>2022-09-06T12:48:04Z</time><name>PT5927</name></trkpt>
<trkpt lat="52.721418" lon="06.059249"><ele>1.5</ele><time>2022-09-06T12:48:06Z</time><name>PT5928</name></trkpt>
<trkpt lat="52.721415" lon="06.059219"><ele>1.3</ele><time>2022-09-06T12:48:06Z</time><name>PT5929</name></trkpt>
<trkpt lat="52.721419" lon="06.059192"><ele>1.4</ele><time>2022-09-06T12:48:07Z</time><name>PT5930</name></trkpt>
<trkpt lat="52.721417" lon="06.059173"><ele>1.4</ele><time>2022-09-06T12:48:09Z</time><name>PT5931</name></trkpt>
<trkpt lat="52.721412" lon="06.059153"><ele>1.3</ele><time>2022-09-06T12:48:09Z</time><name>PT5932</name></trkpt>
<trkpt lat="52.721410" lon="06.059133"><ele>1.2</ele><time>2022-09-06T12:48:10Z</time><name>PT5933</name></trkpt>
<trkpt lat="52.721408" lon="06.059119"><ele>1.3</ele><time>2022-09-06T12:48:12Z</time><name>PT5934</name></trkpt>
<trkpt lat="52.721409" lon="06.059108"><ele>1.2</ele><time>2022-09-06T12:48:12Z</time><name>PT5935</name></trkpt>
<trkpt lat="52.721409" lon="06.059096"><ele>1.3</ele><time>2022-09-06T12:48:13Z</time><name>PT5936</name></trkpt>
<trkpt lat="52.721408" lon="06.059083"><ele>1.5</ele><time>2022-09-06T12:48:15Z</time><name>PT5937</name></trkpt>
<trkpt lat="52.721407" lon="06.059069"><ele>1.6</ele><time>2022-09-06T12:48:15Z</time><name>PT5938</name></trkpt>
<trkpt lat="52.721407" lon="06.059050"><ele>1.7</ele><time>2022-09-06T12:48:16Z</time><name>PT5939</name></trkpt>
<trkpt lat="52.721405" lon="06.059035"><ele>1.9</ele><time>2022-09-06T12:48:18Z</time><name>PT5940</name></trkpt>
<trkpt lat="52.721406" lon="06.059021"><ele>1.9</ele><time>2022-09-06T12:48:18Z</time><name>PT5941</name></trkpt>
<trkpt lat="52.721406" lon="06.058996"><ele>1.8</ele><time>2022-09-06T12:48:19Z</time><name>PT5942</name></trkpt>
<trkpt lat="52.721406" lon="06.058974"><ele>1.7</ele><time>2022-09-06T12:48:21Z</time><name>PT5943</name></trkpt>
<trkpt lat="52.721404" lon="06.058952"><ele>1.6</ele><time>2022-09-06T12:48:21Z</time><name>PT5944</name></trkpt>
<trkpt lat="52.721401" lon="06.058936"><ele>1.6</ele><time>2022-09-06T12:48:22Z</time><name>PT5945</name></trkpt>
<trkpt lat="52.721400" lon="06.058925"><ele>1.5</ele><time>2022-09-06T12:48:24Z</time><name>PT5946</name></trkpt>
<trkpt lat="52.721401" lon="06.058916"><ele>1.5</ele><time>2022-09-06T12:48:24Z</time><name>PT5947</name></trkpt>
<trkpt lat="52.721402" lon="06.058904"><ele>1.7</ele><time>2022-09-06T12:48:25Z</time><name>PT5948</name></trkpt>
<trkpt lat="52.721403" lon="06.058890"><ele>1.8</ele><time>2022-09-06T12:48:27Z</time><name>PT5949</name></trkpt>
<trkpt lat="52.721403" lon="06.058876"><ele>1.7</ele><time>2022-09-06T12:48:27Z</time><name>PT5950</name></trkpt>
<trkpt lat="52.721402" lon="06.058859"><ele>1.7</ele><time>2022-09-06T12:48:28Z</time><name>PT5951</name></trkpt>
<trkpt lat="52.721402" lon="06.058835"><ele>1.8</ele><time>2022-09-06T12:48:30Z</time><name>PT5952</name></trkpt>
<trkpt lat="52.721403" lon="06.058808"><ele>1.6</ele><time>2022-09-06T12:48:30Z</time><name>PT5953</name></trkpt>
<trkpt lat="52.721404" lon="06.058781"><ele>1.3</ele><time>2022-09-06T12:48:31Z</time><name>PT5954</name></trkpt>
<trkpt lat="52.721404" lon="06.058750"><ele>1.4</ele><time>2022-09-06T12:48:33Z</time><name>PT5955</name></trkpt>
<trkpt lat="52.721402" lon="06.058718"><ele>1.4</ele><time>2022-09-06T12:48:33Z</time><name>PT5956</name></trkpt>
<trkpt lat="52.721400" lon="06.058695"><ele>1.5</ele><time>2022-09-06T12:48:34Z</time><name>PT5957</name></trkpt>
<trkpt lat="52.721399" lon="06.058679"><ele>1.6</ele><time>2022-09-06T12:48:36Z</time><name>PT5958</name></trkpt>
<trkpt lat="52.721397" lon="06.058663"><ele>1.7</ele><time>2022-09-06T12:48:36Z</time><name>PT5959</name></trkpt>
<trkpt lat="52.721395" lon="06.058649"><ele>1.6</ele><time>2022-09-06T12:48:37Z</time><name>PT5960</name></trkpt>
<trkpt lat="52.721395" lon="06.058635"><ele>1.6</ele><time>2022-09-06T12:48:39Z</time><name>PT5961</name></trkpt>
<trkpt lat="52.721396" lon="06.058628"><ele>1.5</ele><time>2022-09-06T12:48:39Z</time><name>PT5962</name></trkpt>
<trkpt lat="52.721397" lon="06.058614"><ele>1.5</ele><time>2022-09-06T12:48:40Z</time><name>PT5963</name></trkpt>
<trkpt lat="52.721398" lon="06.058595"><ele>1.5</ele><time>2022-09-06T12:48:42Z</time><name>PT5964</name></trkpt>
<trkpt lat="52.721398" lon="06.058572"><ele>1.6</ele><time>2022-09-06T12:48:42Z</time><name>PT5965</name></trkpt>
<trkpt lat="52.721397" lon="06.058550"><ele>1.6</ele><time>2022-09-06T12:48:43Z</time><name>PT5966</name></trkpt>
<trkpt lat="52.721394" lon="06.058526"><ele>1.7</ele><time>2022-09-06T12:48:45Z</time><name>PT5967</name></trkpt>
<trkpt lat="52.721391" lon="06.058505"><ele>1.7</ele><time>2022-09-06T12:48:45Z</time><name>PT5968</name></trkpt>
<trkpt lat="52.721388" lon="06.058490"><ele>1.7</ele><time>2022-09-06T12:48:46Z</time><name>PT5969</name></trkpt>
<trkpt lat="52.721385" lon="06.058477"><ele>1.7</ele><time>2022-09-06T12:48:48Z</time><name>PT5970</name></trkpt>
<trkpt lat="52.721382" lon="06.058463"><ele>1.8</ele><time>2022-09-06T12:48:48Z</time><name>PT5971</name></trkpt>
<trkpt lat="52.721382" lon="06.058450"><ele>1.7</ele><time>2022-09-06T12:48:49Z</time><name>PT5972</name></trkpt>
<trkpt lat="52.721383" lon="06.058437"><ele>1.5</ele><time>2022-09-06T12:48:51Z</time><name>PT5973</name></trkpt>
<trkpt lat="52.721383" lon="06.058423"><ele>1.3</ele><time>2022-09-06T12:48:51Z</time><name>PT5974</name></trkpt>
<trkpt lat="52.721384" lon="06.058398"><ele>1.2</ele><time>2022-09-06T12:48:52Z</time><name>PT5975</name></trkpt>
<trkpt lat="52.721382" lon="06.058369"><ele>1.4</ele><time>2022-09-06T12:48:54Z</time><name>PT5976</name></trkpt>
<trkpt lat="52.721381" lon="06.058345"><ele>1.4</ele><time>2022-09-06T12:48:54Z</time><name>PT5977</name></trkpt>
<trkpt lat="52.721380" lon="06.058325"><ele>1.4</ele><time>2022-09-06T12:48:55Z</time><name>PT5978</name></trkpt>
<trkpt lat="52.721378" lon="06.058310"><ele>1.5</ele><time>2022-09-06T12:48:57Z</time><name>PT5979</name></trkpt>
<trkpt lat="52.721379" lon="06.058295"><ele>1.4</ele><time>2022-09-06T12:48:57Z</time><name>PT5980</name></trkpt>
<trkpt lat="52.721376" lon="06.058281"><ele>1.3</ele><time>2022-09-06T12:48:58Z</time><name>PT5981</name></trkpt>
<trkpt lat="52.721377" lon="06.058265"><ele>1.3</ele><time>2022-09-06T12:49:00Z</time><name>PT5982</name></trkpt>
<trkpt lat="52.721378" lon="06.058251"><ele>1.4</ele><time>2022-09-06T12:49:00Z</time><name>PT5983</name></trkpt>
<trkpt lat="52.721375" lon="06.058230"><ele>1.6</ele><time>2022-09-06T12:49:01Z</time><name>PT5984</name></trkpt>
<trkpt lat="52.721373" lon="06.058212"><ele>1.6</ele><time>2022-09-06T12:49:03Z</time><name>PT5985</name></trkpt>
<trkpt lat="52.721371" lon="06.058189"><ele>1.6</ele><time>2022-09-06T12:49:03Z</time><name>PT5986</name></trkpt>
<trkpt lat="52.721373" lon="06.058171"><ele>1.5</ele><time>2022-09-06T12:49:04Z</time><name>PT5987</name></trkpt>
<trkpt lat="52.721372" lon="06.058150"><ele>1.4</ele><time>2022-09-06T12:49:06Z</time><name>PT5988</name></trkpt>
<trkpt lat="52.721369" lon="06.058131"><ele>1.2</ele><time>2022-09-06T12:49:06Z</time><name>PT5989</name></trkpt>
<trkpt lat="52.721365" lon="06.058112"><ele>1.2</ele><time>2022-09-06T12:49:07Z</time><name>PT5990</name></trkpt>
<trkpt lat="52.721364" lon="06.058098"><ele>1.2</ele><time>2022-09-06T12:49:09Z</time><name>PT5991</name></trkpt>
<trkpt lat="52.721363" lon="06.058078"><ele>1.2</ele><time>2022-09-06T12:49:09Z</time><name>PT5992</name></trkpt>
<trkpt lat="52.721361" lon="06.058059"><ele>1.2</ele><time>2022-09-06T12:49:10Z</time><name>PT5993</name></trkpt>
<trkpt lat="52.721359" lon="06.058041"><ele>1.2</ele><time>2022-09-06T12:49:12Z</time><name>PT5994</name></trkpt>
<trkpt lat="52.721361" lon="06.058023"><ele>1.2</ele><time>2022-09-06T12:49:12Z</time><name>PT5995</name></trkpt>
<trkpt lat="52.721358" lon="06.057997"><ele>1.2</ele><time>2022-09-06T12:49:13Z</time><name>PT5996</name></trkpt>
<trkpt lat="52.721359" lon="06.057971"><ele>1.4</ele><time>2022-09-06T12:49:15Z</time><name>PT5997</name></trkpt>
<trkpt lat="52.721356" lon="06.057941"><ele>1.4</ele><time>2022-09-06T12:49:15Z</time><name>PT5998</name></trkpt>
<trkpt lat="52.721355" lon="06.057915"><ele>1.2</ele><time>2022-09-06T12:49:16Z</time><name>PT5999</name></trkpt>
<trkpt lat="52.721348" lon="06.057887"><ele>1.2</ele><time>2022-09-06T12:49:18Z</time><name>PT6000</name></trkpt>
<trkpt lat="52.721345" lon="06.057864"><ele>1.3</ele><time>2022-09-06T12:49:18Z</time><name>PT6001</name></trkpt>
<trkpt lat="52.721345" lon="06.057848"><ele>1.3</ele><time>2022-09-06T12:49:19Z</time><name>PT6002</name></trkpt>
<trkpt lat="52.721344" lon="06.057834"><ele>1.2</ele><time>2022-09-06T12:49:21Z</time><name>PT6003</name></trkpt>
<trkpt lat="52.721342" lon="06.057822"><ele>1.4</ele><time>2022-09-06T12:49:21Z</time><name>PT6004</name></trkpt>
<trkpt lat="52.721340" lon="06.057809"><ele>1.7</ele><time>2022-09-06T12:49:22Z</time><name>PT6005</name></trkpt>
<trkpt lat="52.721341" lon="06.057794"><ele>1.7</ele><time>2022-09-06T12:49:24Z</time><name>PT6006</name></trkpt>
<trkpt lat="52.721342" lon="06.057776"><ele>1.6</ele><time>2022-09-06T12:49:24Z</time><name>PT6007</name></trkpt>
<trkpt lat="52.721343" lon="06.057755"><ele>1.8</ele><time>2022-09-06T12:49:25Z</time><name>PT6008</name></trkpt>
<trkpt lat="52.721344" lon="06.057737"><ele>1.8</ele><time>2022-09-06T12:49:27Z</time><name>PT6009</name></trkpt>
<trkpt lat="52.721342" lon="06.057715"><ele>1.8</ele><time>2022-09-06T12:49:27Z</time><name>PT6010</name></trkpt>
<trkpt lat="52.721339" lon="06.057690"><ele>1.8</ele><time>2022-09-06T12:49:28Z</time><name>PT6011</name></trkpt>
<trkpt lat="52.721339" lon="06.057669"><ele>1.8</ele><time>2022-09-06T12:49:30Z</time><name>PT6012</name></trkpt>
<trkpt lat="52.721340" lon="06.057645"><ele>1.8</ele><time>2022-09-06T12:49:30Z</time><name>PT6013</name></trkpt>
<trkpt lat="52.721338" lon="06.057626"><ele>1.8</ele><time>2022-09-06T12:49:31Z</time><name>PT6014</name></trkpt>
<trkpt lat="52.721336" lon="06.057614"><ele>1.8</ele><time>2022-09-06T12:49:33Z</time><name>PT6015</name></trkpt>
<trkpt lat="52.721334" lon="06.057604"><ele>1.8</ele><time>2022-09-06T12:49:33Z</time><name>PT6016</name></trkpt>
<trkpt lat="52.721332" lon="06.057591"><ele>1.8</ele><time>2022-09-06T12:49:34Z</time><name>PT6017</name></trkpt>
<trkpt lat="52.721334" lon="06.057574"><ele>1.7</ele><time>2022-09-06T12:49:36Z</time><name>PT6018</name></trkpt>
<trkpt lat="52.721331" lon="06.057549"><ele>1.7</ele><time>2022-09-06T12:49:36Z</time><name>PT6019</name></trkpt>
<trkpt lat="52.721327" lon="06.057521"><ele>1.7</ele><time>2022-09-06T12:49:37Z</time><name>PT6020</name></trkpt>
<trkpt lat="52.721326" lon="06.057498"><ele>1.6</ele><time>2022-09-06T12:49:39Z</time><name>PT6021</name></trkpt>
<trkpt lat="52.721326" lon="06.057476"><ele>1.6</ele><time>2022-09-06T12:49:39Z</time><name>PT6022</name></trkpt>
<trkpt lat="52.721329" lon="06.057454"><ele>1.5</ele><time>2022-09-06T12:49:40Z</time><name>PT6023</name></trkpt>
<trkpt lat="52.721328" lon="06.057443"><ele>1.5</ele><time>2022-09-06T12:49:42Z</time><name>PT6024</name></trkpt>
<trkpt lat="52.721327" lon="06.057434"><ele>1.4</ele><time>2022-09-06T12:49:42Z</time><name>PT6025</name></trkpt>
<trkpt lat="52.721327" lon="06.057424"><ele>1.2</ele><time>2022-09-06T12:49:43Z</time><name>PT6026</name></trkpt>
<trkpt lat="52.721328" lon="06.057407"><ele>1.3</ele><time>2022-09-06T12:49:45Z</time><name>PT6027</name></trkpt>
<trkpt lat="52.721332" lon="06.057398"><ele>1.3</ele><time>2022-09-06T12:49:45Z</time><name>PT6028</name></trkpt>
<trkpt lat="52.721331" lon="06.057382"><ele>1.3</ele><time>2022-09-06T12:49:46Z</time><name>PT6029</name></trkpt>
<trkpt lat="52.721331" lon="06.057365"><ele>1.3</ele><time>2022-09-06T12:49:48Z</time><name>PT6030</name></trkpt>
<trkpt lat="52.721333" lon="06.057352"><ele>1.4</ele><time>2022-09-06T12:49:48Z</time><name>PT6031</name></trkpt>
<trkpt lat="52.721334" lon="06.057341"><ele>1.3</ele><time>2022-09-06T12:49:49Z</time><name>PT6032</name></trkpt>
<trkpt lat="52.721334" lon="06.057323"><ele>1.3</ele><time>2022-09-06T12:49:51Z</time><name>PT6033</name></trkpt>
<trkpt lat="52.721331" lon="06.057301"><ele>1.3</ele><time>2022-09-06T12:49:51Z</time><name>PT6034</name></trkpt>
<trkpt lat="52.721331" lon="06.057278"><ele>1.2</ele><time>2022-09-06T12:49:52Z</time><name>PT6035</name></trkpt>
<trkpt lat="52.721330" lon="06.057258"><ele>1.1</ele><time>2022-09-06T12:49:54Z</time><name>PT6036</name></trkpt>
<trkpt lat="52.721327" lon="06.057240"><ele>1</ele><time>2022-09-06T12:49:54Z</time><name>PT6037</name></trkpt>
<trkpt lat="52.721325" lon="06.057225"><ele>1.1</ele><time>2022-09-06T12:49:55Z</time><name>PT6038</name></trkpt>
<trkpt lat="52.721321" lon="06.057206"><ele>1.1</ele><time>2022-09-06T12:49:57Z</time><name>PT6039</name></trkpt>
<trkpt lat="52.721318" lon="06.057190"><ele>1.2</ele><time>2022-09-06T12:49:57Z</time><name>PT6040</name></trkpt>
<trkpt lat="52.721314" lon="06.057171"><ele>1.2</ele><time>2022-09-06T12:49:58Z</time><name>PT6041</name></trkpt>
<trkpt lat="52.721307" lon="06.057149"><ele>1.4</ele><time>2022-09-06T12:50:00Z</time><name>PT6042</name></trkpt>
<trkpt lat="52.721308" lon="06.057135"><ele>1.4</ele><time>2022-09-06T12:50:00Z</time><name>PT6043</name></trkpt>
<trkpt lat="52.721306" lon="06.057123"><ele>1.6</ele><time>2022-09-06T12:50:01Z</time><name>PT6044</name></trkpt>
<trkpt lat="52.721302" lon="06.057118"><ele>1.7</ele><time>2022-09-06T12:50:03Z</time><name>PT6045</name></trkpt>
<trkpt lat="52.721300" lon="06.057110"><ele>1.9</ele><time>2022-09-06T12:50:03Z</time><name>PT6046</name></trkpt>
<trkpt lat="52.721299" lon="06.057102"><ele>2</ele><time>2022-09-06T12:50:04Z</time><name>PT6047</name></trkpt>
<trkpt lat="52.721299" lon="06.057096"><ele>1.8</ele><time>2022-09-06T12:50:06Z</time><name>PT6048</name></trkpt>
<trkpt lat="52.721300" lon="06.057090"><ele>1.3</ele><time>2022-09-06T12:50:54Z</time><name>PT6049</name></trkpt>
<trkpt lat="52.721302" lon="06.057069"><ele>1.5</ele><time>2022-09-06T12:50:54Z</time><name>PT6050</name></trkpt>
<trkpt lat="52.721306" lon="06.057048"><ele>1.5</ele><time>2022-09-06T12:50:55Z</time><name>PT6051</name></trkpt>
<trkpt lat="52.721308" lon="06.057034"><ele>1.4</ele><time>2022-09-06T12:50:57Z</time><name>PT6052</name></trkpt>
<trkpt lat="52.721309" lon="06.057021"><ele>1.6</ele><time>2022-09-06T12:50:57Z</time><name>PT6053</name></trkpt>
<trkpt lat="52.721308" lon="06.057003"><ele>1.4</ele><time>2022-09-06T12:50:58Z</time><name>PT6054</name></trkpt>
<trkpt lat="52.721306" lon="06.056990"><ele>1.4</ele><time>2022-09-06T12:51:00Z</time><name>PT6055</name></trkpt>
<trkpt lat="52.721304" lon="06.056972"><ele>1.4</ele><time>2022-09-06T12:51:00Z</time><name>PT6056</name></trkpt>
<trkpt lat="52.721303" lon="06.056956"><ele>1.5</ele><time>2022-09-06T12:51:01Z</time><name>PT6057</name></trkpt>
<trkpt lat="52.721302" lon="06.056941"><ele>1.2</ele><time>2022-09-06T12:51:03Z</time><name>PT6058</name></trkpt>
<trkpt lat="52.721298" lon="06.056927"><ele>1.2</ele><time>2022-09-06T12:51:03Z</time><name>PT6059</name></trkpt>
<trkpt lat="52.721293" lon="06.056912"><ele>0.9</ele><time>2022-09-06T12:51:04Z</time><name>PT6060</name></trkpt>
<trkpt lat="52.721292" lon="06.056897"><ele>0.7</ele><time>2022-09-06T12:51:06Z</time><name>PT6061</name></trkpt>
<trkpt lat="52.721289" lon="06.056882"><ele>0.6</ele><time>2022-09-06T12:51:06Z</time><name>PT6062</name></trkpt>
<trkpt lat="52.721288" lon="06.056868"><ele>0.6</ele><time>2022-09-06T12:51:07Z</time><name>PT6063</name></trkpt>
<trkpt lat="52.721290" lon="06.056852"><ele>0.9</ele><time>2022-09-06T12:51:09Z</time><name>PT6064</name></trkpt>
<trkpt lat="52.721289" lon="06.056837"><ele>1.2</ele><time>2022-09-06T12:51:09Z</time><name>PT6065</name></trkpt>
<trkpt lat="52.721291" lon="06.056826"><ele>1.5</ele><time>2022-09-06T12:51:10Z</time><name>PT6066</name></trkpt>
<trkpt lat="52.721290" lon="06.056813"><ele>1.8</ele><time>2022-09-06T12:51:12Z</time><name>PT6067</name></trkpt>
<trkpt lat="52.721289" lon="06.056797"><ele>1.8</ele><time>2022-09-06T12:51:12Z</time><name>PT6068</name></trkpt>
<trkpt lat="52.721291" lon="06.056783"><ele>1.8</ele><time>2022-09-06T12:51:13Z</time><name>PT6069</name></trkpt>
<trkpt lat="52.721291" lon="06.056770"><ele>1.6</ele><time>2022-09-06T12:51:15Z</time><name>PT6070</name></trkpt>
<trkpt lat="52.721289" lon="06.056752"><ele>1.5</ele><time>2022-09-06T12:51:15Z</time><name>PT6071</name></trkpt>
<trkpt lat="52.721289" lon="06.056733"><ele>1.4</ele><time>2022-09-06T12:51:16Z</time><name>PT6072</name></trkpt>
<trkpt lat="52.721284" lon="06.056707"><ele>1.6</ele><time>2022-09-06T12:51:18Z</time><name>PT6073</name></trkpt>
<trkpt lat="52.721280" lon="06.056689"><ele>1.5</ele><time>2022-09-06T12:51:18Z</time><name>PT6074</name></trkpt>
<trkpt lat="52.721280" lon="06.056671"><ele>1.7</ele><time>2022-09-06T12:51:19Z</time><name>PT6075</name></trkpt>
<trkpt lat="52.721284" lon="06.056655"><ele>1.6</ele><time>2022-09-06T12:51:21Z</time><name>PT6076</name></trkpt>
<trkpt lat="52.721285" lon="06.056641"><ele>1.6</ele><time>2022-09-06T12:51:21Z</time><name>PT6077</name></trkpt>
<trkpt lat="52.721285" lon="06.056628"><ele>1.7</ele><time>2022-09-06T12:51:23Z</time><name>PT6078</name></trkpt>
<trkpt lat="52.721283" lon="06.056612"><ele>1.6</ele><time>2022-09-06T12:51:24Z</time><name>PT6079</name></trkpt>
<trkpt lat="52.721280" lon="06.056598"><ele>1.5</ele><time>2022-09-06T12:51:24Z</time><name>PT6080</name></trkpt>
<trkpt lat="52.721278" lon="06.056584"><ele>1.5</ele><time>2022-09-06T12:51:25Z</time><name>PT6081</name></trkpt>
<trkpt lat="52.721280" lon="06.056565"><ele>1.3</ele><time>2022-09-06T12:51:27Z</time><name>PT6082</name></trkpt>
<trkpt lat="52.721279" lon="06.056545"><ele>1.3</ele><time>2022-09-06T12:51:27Z</time><name>PT6083</name></trkpt>
<trkpt lat="52.721280" lon="06.056524"><ele>1.3</ele><time>2022-09-06T12:51:29Z</time><name>PT6084</name></trkpt>
<trkpt lat="52.721279" lon="06.056508"><ele>1.5</ele><time>2022-09-06T12:51:30Z</time><name>PT6085</name></trkpt>
<trkpt lat="52.721277" lon="06.056488"><ele>1.5</ele><time>2022-09-06T12:51:30Z</time><name>PT6086</name></trkpt>
<trkpt lat="52.721276" lon="06.056469"><ele>1.6</ele><time>2022-09-06T12:51:31Z</time><name>PT6087</name></trkpt>
<trkpt lat="52.721278" lon="06.056453"><ele>1.7</ele><time>2022-09-06T12:51:33Z</time><name>PT6088</name></trkpt>
<trkpt lat="52.721275" lon="06.056435"><ele>1.7</ele><time>2022-09-06T12:51:33Z</time><name>PT6089</name></trkpt>
<trkpt lat="52.721274" lon="06.056416"><ele>1.8</ele><time>2022-09-06T12:51:34Z</time><name>PT6090</name></trkpt>
<trkpt lat="52.721272" lon="06.056401"><ele>1.7</ele><time>2022-09-06T12:51:36Z</time><name>PT6091</name></trkpt>
<trkpt lat="52.721269" lon="06.056385"><ele>1.6</ele><time>2022-09-06T12:51:36Z</time><name>PT6092</name></trkpt>
<trkpt lat="52.721266" lon="06.056368"><ele>1.5</ele><time>2022-09-06T12:51:37Z</time><name>PT6093</name></trkpt>
<trkpt lat="52.721266" lon="06.056349"><ele>1.3</ele><time>2022-09-06T12:51:39Z</time><name>PT6094</name></trkpt>
<trkpt lat="52.721265" lon="06.056332"><ele>1.4</ele><time>2022-09-06T12:51:39Z</time><name>PT6095</name></trkpt>
<trkpt lat="52.721264" lon="06.056315"><ele>1.5</ele><time>2022-09-06T12:51:40Z</time><name>PT6096</name></trkpt>
<trkpt lat="52.721264" lon="06.056301"><ele>1.6</ele><time>2022-09-06T12:51:42Z</time><name>PT6097</name></trkpt>
<trkpt lat="52.721263" lon="06.056284"><ele>1.5</ele><time>2022-09-06T12:51:42Z</time><name>PT6098</name></trkpt>
<trkpt lat="52.721261" lon="06.056266"><ele>1.6</ele><time>2022-09-06T12:51:43Z</time><name>PT6099</name></trkpt>
<trkpt lat="52.721260" lon="06.056247"><ele>1.4</ele><time>2022-09-06T12:51:45Z</time><name>PT6100</name></trkpt>
<trkpt lat="52.721258" lon="06.056230"><ele>1.3</ele><time>2022-09-06T12:51:45Z</time><name>PT6101</name></trkpt>
<trkpt lat="52.721256" lon="06.056213"><ele>1.3</ele><time>2022-09-06T12:51:46Z</time><name>PT6102</name></trkpt>
<trkpt lat="52.721255" lon="06.056191"><ele>1.6</ele><time>2022-09-06T12:51:48Z</time><name>PT6103</name></trkpt>
<trkpt lat="52.721253" lon="06.056173"><ele>1.7</ele><time>2022-09-06T12:51:48Z</time><name>PT6104</name></trkpt>
<trkpt lat="52.721252" lon="06.056159"><ele>1.7</ele><time>2022-09-06T12:51:49Z</time><name>PT6105</name></trkpt>
<trkpt lat="52.721253" lon="06.056140"><ele>1.7</ele><time>2022-09-06T12:51:51Z</time><name>PT6106</name></trkpt>
<trkpt lat="52.721252" lon="06.056120"><ele>1.7</ele><time>2022-09-06T12:51:51Z</time><name>PT6107</name></trkpt>
<trkpt lat="52.721251" lon="06.056095"><ele>1.7</ele><time>2022-09-06T12:51:52Z</time><name>PT6108</name></trkpt>
<trkpt lat="52.721250" lon="06.056077"><ele>1.6</ele><time>2022-09-06T12:51:54Z</time><name>PT6109</name></trkpt>
<trkpt lat="52.721247" lon="06.056062"><ele>1.6</ele><time>2022-09-06T12:51:54Z</time><name>PT6110</name></trkpt>
<trkpt lat="52.721247" lon="06.056043"><ele>1.5</ele><time>2022-09-06T12:51:55Z</time><name>PT6111</name></trkpt>
<trkpt lat="52.721248" lon="06.056027"><ele>1.4</ele><time>2022-09-06T12:51:57Z</time><name>PT6112</name></trkpt>
<trkpt lat="52.721247" lon="06.056011"><ele>1.3</ele><time>2022-09-06T12:51:57Z</time><name>PT6113</name></trkpt>
<trkpt lat="52.721247" lon="06.055996"><ele>1.4</ele><time>2022-09-06T12:51:58Z</time><name>PT6114</name></trkpt>
<trkpt lat="52.721248" lon="06.055978"><ele>1.7</ele><time>2022-09-06T12:52:00Z</time><name>PT6115</name></trkpt>
<trkpt lat="52.721249" lon="06.055958"><ele>1.7</ele><time>2022-09-06T12:52:00Z</time><name>PT6116</name></trkpt>
<trkpt lat="52.721248" lon="06.055940"><ele>1.7</ele><time>2022-09-06T12:52:01Z</time><name>PT6117</name></trkpt>
<trkpt lat="52.721246" lon="06.055921"><ele>1.7</ele><time>2022-09-06T12:52:03Z</time><name>PT6118</name></trkpt>
<trkpt lat="52.721243" lon="06.055902"><ele>1.7</ele><time>2022-09-06T12:52:03Z</time><name>PT6119</name></trkpt>
<trkpt lat="52.721240" lon="06.055885"><ele>1.6</ele><time>2022-09-06T12:52:04Z</time><name>PT6120</name></trkpt>
<trkpt lat="52.721238" lon="06.055866"><ele>1.4</ele><time>2022-09-06T12:52:06Z</time><name>PT6121</name></trkpt>
<trkpt lat="52.721236" lon="06.055851"><ele>1.5</ele><time>2022-09-06T12:52:06Z</time><name>PT6122</name></trkpt>
<trkpt lat="52.721237" lon="06.055837"><ele>1.5</ele><time>2022-09-06T12:52:07Z</time><name>PT6123</name></trkpt>
<trkpt lat="52.721239" lon="06.055823"><ele>1.5</ele><time>2022-09-06T12:52:09Z</time><name>PT6124</name></trkpt>
<trkpt lat="52.721238" lon="06.055803"><ele>1.5</ele><time>2022-09-06T12:52:09Z</time><name>PT6125</name></trkpt>
<trkpt lat="52.721237" lon="06.055783"><ele>1.6</ele><time>2022-09-06T12:52:10Z</time><name>PT6126</name></trkpt>
<trkpt lat="52.721235" lon="06.055762"><ele>1.6</ele><time>2022-09-06T12:52:12Z</time><name>PT6127</name></trkpt>
<trkpt lat="52.721233" lon="06.055742"><ele>1.6</ele><time>2022-09-06T12:52:12Z</time><name>PT6128</name></trkpt>
<trkpt lat="52.721231" lon="06.055722"><ele>1.6</ele><time>2022-09-06T12:52:13Z</time><name>PT6129</name></trkpt>
<trkpt lat="52.721229" lon="06.055707"><ele>1.5</ele><time>2022-09-06T12:52:15Z</time><name>PT6130</name></trkpt>
<trkpt lat="52.721226" lon="06.055695"><ele>1.5</ele><time>2022-09-06T12:52:15Z</time><name>PT6131</name></trkpt>
<trkpt lat="52.721224" lon="06.055673"><ele>1.5</ele><time>2022-09-06T12:52:16Z</time><name>PT6132</name></trkpt>
<trkpt lat="52.721222" lon="06.055653"><ele>1.4</ele><time>2022-09-06T12:52:18Z</time><name>PT6133</name></trkpt>
<trkpt lat="52.721222" lon="06.055634"><ele>1.2</ele><time>2022-09-06T12:52:18Z</time><name>PT6134</name></trkpt>
<trkpt lat="52.721221" lon="06.055615"><ele>1.2</ele><time>2022-09-06T12:52:19Z</time><name>PT6135</name></trkpt>
<trkpt lat="52.721220" lon="06.055597"><ele>1</ele><time>2022-09-06T12:52:21Z</time><name>PT6136</name></trkpt>
<trkpt lat="52.721218" lon="06.055575"><ele>1</ele><time>2022-09-06T12:52:21Z</time><name>PT6137</name></trkpt>
<trkpt lat="52.721216" lon="06.055555"><ele>1.2</ele><time>2022-09-06T12:52:22Z</time><name>PT6138</name></trkpt>
<trkpt lat="52.721215" lon="06.055535"><ele>1.2</ele><time>2022-09-06T12:52:24Z</time><name>PT6139</name></trkpt>
<trkpt lat="52.721213" lon="06.055514"><ele>1.4</ele><time>2022-09-06T12:52:24Z</time><name>PT6140</name></trkpt>
<trkpt lat="52.721212" lon="06.055492"><ele>1.5</ele><time>2022-09-06T12:52:25Z</time><name>PT6141</name></trkpt>
<trkpt lat="52.721212" lon="06.055473"><ele>1.5</ele><time>2022-09-06T12:52:27Z</time><name>PT6142</name></trkpt>
<trkpt lat="52.721212" lon="06.055454"><ele>1.5</ele><time>2022-09-06T12:52:27Z</time><name>PT6143</name></trkpt>
<trkpt lat="52.721212" lon="06.055436"><ele>1.4</ele><time>2022-09-06T12:52:28Z</time><name>PT6144</name></trkpt>
<trkpt lat="52.721211" lon="06.055417"><ele>1.6</ele><time>2022-09-06T12:52:30Z</time><name>PT6145</name></trkpt>
<trkpt lat="52.721209" lon="06.055402"><ele>1.6</ele><time>2022-09-06T12:52:30Z</time><name>PT6146</name></trkpt>
<trkpt lat="52.721208" lon="06.055385"><ele>1.7</ele><time>2022-09-06T12:52:31Z</time><name>PT6147</name></trkpt>
<trkpt lat="52.721208" lon="06.055371"><ele>1.7</ele><time>2022-09-06T12:52:33Z</time><name>PT6148</name></trkpt>
<trkpt lat="52.721207" lon="06.055354"><ele>1.7</ele><time>2022-09-06T12:52:33Z</time><name>PT6149</name></trkpt>
<trkpt lat="52.721207" lon="06.055340"><ele>1.6</ele><time>2022-09-06T12:52:34Z</time><name>PT6150</name></trkpt>
<trkpt lat="52.721205" lon="06.055322"><ele>1.4</ele><time>2022-09-06T12:52:36Z</time><name>PT6151</name></trkpt>
<trkpt lat="52.721204" lon="06.055303"><ele>1.3</ele><time>2022-09-06T12:52:36Z</time><name>PT6152</name></trkpt>
<trkpt lat="52.721203" lon="06.055283"><ele>1.4</ele><time>2022-09-06T12:52:37Z</time><name>PT6153</name></trkpt>
<trkpt lat="52.721202" lon="06.055261"><ele>1.4</ele><time>2022-09-06T12:52:39Z</time><name>PT6154</name></trkpt>
<trkpt lat="52.721201" lon="06.055244"><ele>1.6</ele><time>2022-09-06T12:52:39Z</time><name>PT6155</name></trkpt>
<trkpt lat="52.721200" lon="06.055230"><ele>1.6</ele><time>2022-09-06T12:52:40Z</time><name>PT6156</name></trkpt>
<trkpt lat="52.721199" lon="06.055207"><ele>1.7</ele><time>2022-09-06T12:52:42Z</time><name>PT6157</name></trkpt>
<trkpt lat="52.721197" lon="06.055187"><ele>1.7</ele><time>2022-09-06T12:52:42Z</time><name>PT6158</name></trkpt>
<trkpt lat="52.721195" lon="06.055168"><ele>1.8</ele><time>2022-09-06T12:52:43Z</time><name>PT6159</name></trkpt>
<trkpt lat="52.721193" lon="06.055151"><ele>1.8</ele><time>2022-09-06T12:52:45Z</time><name>PT6160</name></trkpt>
<trkpt lat="52.721192" lon="06.055134"><ele>1.9</ele><time>2022-09-06T12:52:45Z</time><name>PT6161</name></trkpt>
<trkpt lat="52.721191" lon="06.055113"><ele>1.7</ele><time>2022-09-06T12:52:46Z</time><name>PT6162</name></trkpt>
<trkpt lat="52.721192" lon="06.055094"><ele>1.7</ele><time>2022-09-06T12:52:48Z</time><name>PT6163</name></trkpt>
<trkpt lat="52.721192" lon="06.055073"><ele>1.7</ele><time>2022-09-06T12:52:48Z</time><name>PT6164</name></trkpt>
<trkpt lat="52.721192" lon="06.055054"><ele>1.8</ele><time>2022-09-06T12:52:49Z</time><name>PT6165</name></trkpt>
<trkpt lat="52.721191" lon="06.055037"><ele>1.8</ele><time>2022-09-06T12:52:51Z</time><name>PT6166</name></trkpt>
<trkpt lat="52.721189" lon="06.055018"><ele>1.8</ele><time>2022-09-06T12:52:51Z</time><name>PT6167</name></trkpt>
<trkpt lat="52.721189" lon="06.055001"><ele>1.6</ele><time>2022-09-06T12:52:52Z</time><name>PT6168</name></trkpt>
<trkpt lat="52.721188" lon="06.054982"><ele>1.7</ele><time>2022-09-06T12:52:54Z</time><name>PT6169</name></trkpt>
<trkpt lat="52.721188" lon="06.054962"><ele>1.6</ele><time>2022-09-06T12:52:54Z</time><name>PT6170</name></trkpt>
<trkpt lat="52.721187" lon="06.054942"><ele>1.7</ele><time>2022-09-06T12:52:55Z</time><name>PT6171</name></trkpt>
<trkpt lat="52.721185" lon="06.054924"><ele>1.7</ele><time>2022-09-06T12:52:57Z</time><name>PT6172</name></trkpt>
<trkpt lat="52.721185" lon="06.054909"><ele>1.7</ele><time>2022-09-06T12:52:57Z</time><name>PT6173</name></trkpt>
<trkpt lat="52.721184" lon="06.054891"><ele>1.6</ele><time>2022-09-06T12:52:58Z</time><name>PT6174</name></trkpt>
<trkpt lat="52.721184" lon="06.054871"><ele>1.7</ele><time>2022-09-06T12:53:00Z</time><name>PT6175</name></trkpt>
<trkpt lat="52.721185" lon="06.054849"><ele>1.6</ele><time>2022-09-06T12:53:00Z</time><name>PT6176</name></trkpt>
<trkpt lat="52.721186" lon="06.054829"><ele>1.7</ele><time>2022-09-06T12:53:01Z</time><name>PT6177</name></trkpt>
<trkpt lat="52.721185" lon="06.054808"><ele>1.7</ele><time>2022-09-06T12:53:03Z</time><name>PT6178</name></trkpt>
<trkpt lat="52.721184" lon="06.054790"><ele>1.6</ele><time>2022-09-06T12:53:03Z</time><name>PT6179</name></trkpt>
<trkpt lat="52.721182" lon="06.054772"><ele>1.5</ele><time>2022-09-06T12:53:04Z</time><name>PT6180</name></trkpt>
<trkpt lat="52.721180" lon="06.054752"><ele>1.5</ele><time>2022-09-06T12:53:06Z</time><name>PT6181</name></trkpt>
<trkpt lat="52.721178" lon="06.054729"><ele>1.6</ele><time>2022-09-06T12:53:06Z</time><name>PT6182</name></trkpt>
<trkpt lat="52.721176" lon="06.054708"><ele>1.7</ele><time>2022-09-06T12:53:07Z</time><name>PT6183</name></trkpt>
<trkpt lat="52.721175" lon="06.054684"><ele>1.8</ele><time>2022-09-06T12:53:09Z</time><name>PT6184</name></trkpt>
<trkpt lat="52.721176" lon="06.054666"><ele>1.8</ele><time>2022-09-06T12:53:09Z</time><name>PT6185</name></trkpt>
<trkpt lat="52.721176" lon="06.054647"><ele>1.9</ele><time>2022-09-06T12:53:10Z</time><name>PT6186</name></trkpt>
<trkpt lat="52.721176" lon="06.054627"><ele>1.7</ele><time>2022-09-06T12:53:12Z</time><name>PT6187</name></trkpt>
<trkpt lat="52.721176" lon="06.054605"><ele>1.7</ele><time>2022-09-06T12:53:12Z</time><name>PT6188</name></trkpt>
<trkpt lat="52.721176" lon="06.054584"><ele>1.8</ele><time>2022-09-06T12:53:13Z</time><name>PT6189</name></trkpt>
<trkpt lat="52.721176" lon="06.054566"><ele>1.6</ele><time>2022-09-06T12:53:15Z</time><name>PT6190</name></trkpt>
<trkpt lat="52.721174" lon="06.054547"><ele>1.4</ele><time>2022-09-06T12:53:15Z</time><name>PT6191</name></trkpt>
<trkpt lat="52.721173" lon="06.054529"><ele>1.6</ele><time>2022-09-06T12:53:16Z</time><name>PT6192</name></trkpt>
<trkpt lat="52.721173" lon="06.054512"><ele>1.5</ele><time>2022-09-06T12:53:18Z</time><name>PT6193</name></trkpt>
<trkpt lat="52.721172" lon="06.054491"><ele>1.5</ele><time>2022-09-06T12:53:18Z</time><name>PT6194</name></trkpt>
<trkpt lat="52.721171" lon="06.054476"><ele>1.5</ele><time>2022-09-06T12:53:19Z</time><name>PT6195</name></trkpt>
<trkpt lat="52.721170" lon="06.054460"><ele>1.6</ele><time>2022-09-06T12:53:21Z</time><name>PT6196</name></trkpt>
<trkpt lat="52.721171" lon="06.054443"><ele>1.6</ele><time>2022-09-06T12:53:21Z</time><name>PT6197</name></trkpt>
<trkpt lat="52.721172" lon="06.054426"><ele>1.7</ele><time>2022-09-06T12:53:22Z</time><name>PT6198</name></trkpt>
<trkpt lat="52.721172" lon="06.054408"><ele>1.7</ele><time>2022-09-06T12:53:24Z</time><name>PT6199</name></trkpt>
<trkpt lat="52.721172" lon="06.054391"><ele>1.7</ele><time>2022-09-06T12:53:24Z</time><name>PT6200</name></trkpt>
<trkpt lat="52.721171" lon="06.054372"><ele>1.6</ele><time>2022-09-06T12:53:25Z</time><name>PT6201</name></trkpt>
<trkpt lat="52.721169" lon="06.054353"><ele>1.3</ele><time>2022-09-06T12:53:27Z</time><name>PT6202</name></trkpt>
<trkpt lat="52.721168" lon="06.054336"><ele>1.3</ele><time>2022-09-06T12:53:27Z</time><name>PT6203</name></trkpt>
<trkpt lat="52.721168" lon="06.054318"><ele>1.3</ele><time>2022-09-06T12:53:28Z</time><name>PT6204</name></trkpt>
<trkpt lat="52.721169" lon="06.054304"><ele>1.3</ele><time>2022-09-06T12:53:30Z</time><name>PT6205</name></trkpt>
<trkpt lat="52.721170" lon="06.054283"><ele>1.4</ele><time>2022-09-06T12:53:30Z</time><name>PT6206</name></trkpt>
<trkpt lat="52.721171" lon="06.054262"><ele>1.2</ele><time>2022-09-06T12:53:31Z</time><name>PT6207</name></trkpt>
<trkpt lat="52.721171" lon="06.054242"><ele>1.1</ele><time>2022-09-06T12:53:33Z</time><name>PT6208</name></trkpt>
<trkpt lat="52.721171" lon="06.054224"><ele>1.2</ele><time>2022-09-06T12:53:33Z</time><name>PT6209</name></trkpt>
<trkpt lat="52.721171" lon="06.054206"><ele>1.2</ele><time>2022-09-06T12:53:34Z</time><name>PT6210</name></trkpt>
<trkpt lat="52.721169" lon="06.054187"><ele>1.2</ele><time>2022-09-06T12:53:36Z</time><name>PT6211</name></trkpt>
<trkpt lat="52.721167" lon="06.054167"><ele>1.3</ele><time>2022-09-06T12:53:36Z</time><name>PT6212</name></trkpt>
<trkpt lat="52.721164" lon="06.054154"><ele>1.5</ele><time>2022-09-06T12:53:37Z</time><name>PT6213</name></trkpt>
<trkpt lat="52.721162" lon="06.054138"><ele>1.6</ele><time>2022-09-06T12:53:39Z</time><name>PT6214</name></trkpt>
<trkpt lat="52.721161" lon="06.054120"><ele>1.6</ele><time>2022-09-06T12:53:39Z</time><name>PT6215</name></trkpt>
<trkpt lat="52.721160" lon="06.054103"><ele>1.3</ele><time>2022-09-06T12:53:40Z</time><name>PT6216</name></trkpt>
<trkpt lat="52.721159" lon="06.054087"><ele>1.3</ele><time>2022-09-06T12:53:42Z</time><name>PT6217</name></trkpt>
<trkpt lat="52.721159" lon="06.054070"><ele>1</ele><time>2022-09-06T12:53:42Z</time><name>PT6218</name></trkpt>
<trkpt lat="52.721158" lon="06.054050"><ele>1</ele><time>2022-09-06T12:53:43Z</time><name>PT6219</name></trkpt>
<trkpt lat="52.721157" lon="06.054031"><ele>1</ele><time>2022-09-06T12:53:45Z</time><name>PT6220</name></trkpt>
<trkpt lat="52.721156" lon="06.054011"><ele>0.8</ele><time>2022-09-06T12:53:45Z</time><name>PT6221</name></trkpt>
<trkpt lat="52.721157" lon="06.053994"><ele>1</ele><time>2022-09-06T12:53:46Z</time><name>PT6222</name></trkpt>
<trkpt lat="52.721157" lon="06.053978"><ele>1.1</ele><time>2022-09-06T12:53:48Z</time><name>PT6223</name></trkpt>
<trkpt lat="52.721157" lon="06.053962"><ele>1</ele><time>2022-09-06T12:53:48Z</time><name>PT6224</name></trkpt>
<trkpt lat="52.721156" lon="06.053944"><ele>1</ele><time>2022-09-06T12:53:49Z</time><name>PT6225</name></trkpt>
<trkpt lat="52.721155" lon="06.053930"><ele>1</ele><time>2022-09-06T12:53:51Z</time><name>PT6226</name></trkpt>
<trkpt lat="52.721153" lon="06.053913"><ele>0.9</ele><time>2022-09-06T12:53:51Z</time><name>PT6227</name></trkpt>
<trkpt lat="52.721152" lon="06.053896"><ele>1.1</ele><time>2022-09-06T12:53:52Z</time><name>PT6228</name></trkpt>
<trkpt lat="52.721151" lon="06.053878"><ele>1</ele><time>2022-09-06T12:53:54Z</time><name>PT6229</name></trkpt>
<trkpt lat="52.721150" lon="06.053860"><ele>1.1</ele><time>2022-09-06T12:53:54Z</time><name>PT6230</name></trkpt>
<trkpt lat="52.721150" lon="06.053842"><ele>1.2</ele><time>2022-09-06T12:53:55Z</time><name>PT6231</name></trkpt>
<trkpt lat="52.721149" lon="06.053825"><ele>1.3</ele><time>2022-09-06T12:53:57Z</time><name>PT6232</name></trkpt>
<trkpt lat="52.721149" lon="06.053808"><ele>1.2</ele><time>2022-09-06T12:53:57Z</time><name>PT6233</name></trkpt>
<trkpt lat="52.721149" lon="06.053793"><ele>1.3</ele><time>2022-09-06T12:53:58Z</time><name>PT6234</name></trkpt>
<trkpt lat="52.721148" lon="06.053774"><ele>1.2</ele><time>2022-09-06T12:54:00Z</time><name>PT6235</name></trkpt>
<trkpt lat="52.721147" lon="06.053758"><ele>1.2</ele><time>2022-09-06T12:54:00Z</time><name>PT6236</name></trkpt>
<trkpt lat="52.721147" lon="06.053739"><ele>1.2</ele><time>2022-09-06T12:54:01Z</time><name>PT6237</name></trkpt>
<trkpt lat="52.721147" lon="06.053722"><ele>1.3</ele><time>2022-09-06T12:54:03Z</time><name>PT6238</name></trkpt>
<trkpt lat="52.721149" lon="06.053703"><ele>1.3</ele><time>2022-09-06T12:54:03Z</time><name>PT6239</name></trkpt>
<trkpt lat="52.721149" lon="06.053685"><ele>1.4</ele><time>2022-09-06T12:54:04Z</time><name>PT6240</name></trkpt>
<trkpt lat="52.721149" lon="06.053668"><ele>1.2</ele><time>2022-09-06T12:54:06Z</time><name>PT6241</name></trkpt>
<trkpt lat="52.721148" lon="06.053652"><ele>1.3</ele><time>2022-09-06T12:54:06Z</time><name>PT6242</name></trkpt>
<trkpt lat="52.721147" lon="06.053635"><ele>1.2</ele><time>2022-09-06T12:54:07Z</time><name>PT6243</name></trkpt>
<trkpt lat="52.721145" lon="06.053616"><ele>1.2</ele><time>2022-09-06T12:54:09Z</time><name>PT6244</name></trkpt>
<trkpt lat="52.721145" lon="06.053597"><ele>1.2</ele><time>2022-09-06T12:54:09Z</time><name>PT6245</name></trkpt>
<trkpt lat="52.721144" lon="06.053579"><ele>1.3</ele><time>2022-09-06T12:54:10Z</time><name>PT6246</name></trkpt>
<trkpt lat="52.721144" lon="06.053563"><ele>1.2</ele><time>2022-09-06T12:54:12Z</time><name>PT6247</name></trkpt>
<trkpt lat="52.721145" lon="06.053547"><ele>1.2</ele><time>2022-09-06T12:54:12Z</time><name>PT6248</name></trkpt>
<trkpt lat="52.721146" lon="06.053529"><ele>1.3</ele><time>2022-09-06T12:54:13Z</time><name>PT6249</name></trkpt>
<trkpt lat="52.721145" lon="06.053514"><ele>1.4</ele><time>2022-09-06T12:54:15Z</time><name>PT6250</name></trkpt>
<trkpt lat="52.721144" lon="06.053499"><ele>1.4</ele><time>2022-09-06T12:54:15Z</time><name>PT6251</name></trkpt>
<trkpt lat="52.721143" lon="06.053480"><ele>1.5</ele><time>2022-09-06T12:54:16Z</time><name>PT6252</name></trkpt>
<trkpt lat="52.721140" lon="06.053462"><ele>1.4</ele><time>2022-09-06T12:54:18Z</time><name>PT6253</name></trkpt>
<trkpt lat="52.721139" lon="06.053447"><ele>1.3</ele><time>2022-09-06T12:54:18Z</time><name>PT6254</name></trkpt>
<trkpt lat="52.721140" lon="06.053430"><ele>1.2</ele><time>2022-09-06T12:54:19Z</time><name>PT6255</name></trkpt>
<trkpt lat="52.721141" lon="06.053409"><ele>1.3</ele><time>2022-09-06T12:54:21Z</time><name>PT6256</name></trkpt>
<trkpt lat="52.721142" lon="06.053391"><ele>1.3</ele><time>2022-09-06T12:54:21Z</time><name>PT6257</name></trkpt>
<trkpt lat="52.721141" lon="06.053372"><ele>1.2</ele><time>2022-09-06T12:54:22Z</time><name>PT6258</name></trkpt>
<trkpt lat="52.721141" lon="06.053354"><ele>1.2</ele><time>2022-09-06T12:54:24Z</time><name>PT6259</name></trkpt>
<trkpt lat="52.721139" lon="06.053335"><ele>1.2</ele><time>2022-09-06T12:54:24Z</time><name>PT6260</name></trkpt>
<trkpt lat="52.721138" lon="06.053320"><ele>1</ele><time>2022-09-06T12:54:25Z</time><name>PT6261</name></trkpt>
<trkpt lat="52.721137" lon="06.053306"><ele>0.9</ele><time>2022-09-06T12:54:27Z</time><name>PT6262</name></trkpt>
<trkpt lat="52.721137" lon="06.053292"><ele>1.1</ele><time>2022-09-06T12:54:27Z</time><name>PT6263</name></trkpt>
<trkpt lat="52.721137" lon="06.053275"><ele>1</ele><time>2022-09-06T12:54:28Z</time><name>PT6264</name></trkpt>
<trkpt lat="52.721137" lon="06.053258"><ele>1.1</ele><time>2022-09-06T12:54:30Z</time><name>PT6265</name></trkpt>
<trkpt lat="52.721136" lon="06.053238"><ele>1.2</ele><time>2022-09-06T12:54:30Z</time><name>PT6266</name></trkpt>
<trkpt lat="52.721134" lon="06.053219"><ele>1.1</ele><time>2022-09-06T12:54:31Z</time><name>PT6267</name></trkpt>
<trkpt lat="52.721134" lon="06.053200"><ele>1.1</ele><time>2022-09-06T12:54:33Z</time><name>PT6268</name></trkpt>
<trkpt lat="52.721134" lon="06.053184"><ele>1.2</ele><time>2022-09-06T12:54:33Z</time><name>PT6269</name></trkpt>
<trkpt lat="52.721134" lon="06.053167"><ele>1.1</ele><time>2022-09-06T12:54:34Z</time><name>PT6270</name></trkpt>
<trkpt lat="52.721135" lon="06.053149"><ele>1.1</ele><time>2022-09-06T12:54:36Z</time><name>PT6271</name></trkpt>
<trkpt lat="52.721135" lon="06.053133"><ele>0.9</ele><time>2022-09-06T12:54:36Z</time><name>PT6272</name></trkpt>
<trkpt lat="52.721134" lon="06.053116"><ele>1</ele><time>2022-09-06T12:54:37Z</time><name>PT6273</name></trkpt>
<trkpt lat="52.721132" lon="06.053099"><ele>1.1</ele><time>2022-09-06T12:54:39Z</time><name>PT6274</name></trkpt>
<trkpt lat="52.721132" lon="06.053081"><ele>1.2</ele><time>2022-09-06T12:54:39Z</time><name>PT6275</name></trkpt>
<trkpt lat="52.721131" lon="06.053065"><ele>1.3</ele><time>2022-09-06T12:54:40Z</time><name>PT6276</name></trkpt>
<trkpt lat="52.721132" lon="06.053050"><ele>1.4</ele><time>2022-09-06T12:54:42Z</time><name>PT6277</name></trkpt>
<trkpt lat="52.721132" lon="06.053031"><ele>1.3</ele><time>2022-09-06T12:54:42Z</time><name>PT6278</name></trkpt>
<trkpt lat="52.721132" lon="06.053011"><ele>1.4</ele><time>2022-09-06T12:54:43Z</time><name>PT6279</name></trkpt>
<trkpt lat="52.721132" lon="06.052993"><ele>1.5</ele><time>2022-09-06T12:54:45Z</time><name>PT6280</name></trkpt>
<trkpt lat="52.721131" lon="06.052976"><ele>1.5</ele><time>2022-09-06T12:54:45Z</time><name>PT6281</name></trkpt>
<trkpt lat="52.721130" lon="06.052956"><ele>1.5</ele><time>2022-09-06T12:54:46Z</time><name>PT6282</name></trkpt>
<trkpt lat="52.721128" lon="06.052937"><ele>1.4</ele><time>2022-09-06T12:54:48Z</time><name>PT6283</name></trkpt>
<trkpt lat="52.721127" lon="06.052917"><ele>1.4</ele><time>2022-09-06T12:54:48Z</time><name>PT6284</name></trkpt>
<trkpt lat="52.721125" lon="06.052901"><ele>1.5</ele><time>2022-09-06T12:54:49Z</time><name>PT6285</name></trkpt>
<trkpt lat="52.721126" lon="06.052885"><ele>1.6</ele><time>2022-09-06T12:54:51Z</time><name>PT6286</name></trkpt>
<trkpt lat="52.721126" lon="06.052869"><ele>1.7</ele><time>2022-09-06T12:54:51Z</time><name>PT6287</name></trkpt>
<trkpt lat="52.721126" lon="06.052851"><ele>1.4</ele><time>2022-09-06T12:54:52Z</time><name>PT6288</name></trkpt>
<trkpt lat="52.721127" lon="06.052832"><ele>1.4</ele><time>2022-09-06T12:54:54Z</time><name>PT6289</name></trkpt>
<trkpt lat="52.721126" lon="06.052814"><ele>1.3</ele><time>2022-09-06T12:54:54Z</time><name>PT6290</name></trkpt>
<trkpt lat="52.721127" lon="06.052798"><ele>1.2</ele><time>2022-09-06T12:54:55Z</time><name>PT6291</name></trkpt>
<trkpt lat="52.721125" lon="06.052783"><ele>1.3</ele><time>2022-09-06T12:54:57Z</time><name>PT6292</name></trkpt>
<trkpt lat="52.721124" lon="06.052769"><ele>1.1</ele><time>2022-09-06T12:54:57Z</time><name>PT6293</name></trkpt>
<trkpt lat="52.721123" lon="06.052755"><ele>1.1</ele><time>2022-09-06T12:54:58Z</time><name>PT6294</name></trkpt>
<trkpt lat="52.721121" lon="06.052744"><ele>1.1</ele><time>2022-09-06T12:55:00Z</time><name>PT6295</name></trkpt>
<trkpt lat="52.721121" lon="06.052731"><ele>1.3</ele><time>2022-09-06T12:55:00Z</time><name>PT6296</name></trkpt>
<trkpt lat="52.721122" lon="06.052715"><ele>1.3</ele><time>2022-09-06T12:55:01Z</time><name>PT6297</name></trkpt>
<trkpt lat="52.721122" lon="06.052698"><ele>1.4</ele><time>2022-09-06T12:55:03Z</time><name>PT6298</name></trkpt>
<trkpt lat="52.721121" lon="06.052684"><ele>1.6</ele><time>2022-09-06T12:55:03Z</time><name>PT6299</name></trkpt>
<trkpt lat="52.721121" lon="06.052668"><ele>1.3</ele><time>2022-09-06T12:55:04Z</time><name>PT6300</name></trkpt>
<trkpt lat="52.721120" lon="06.052651"><ele>1.3</ele><time>2022-09-06T12:55:06Z</time><name>PT6301</name></trkpt>
<trkpt lat="52.721119" lon="06.052636"><ele>1.2</ele><time>2022-09-06T12:55:06Z</time><name>PT6302</name></trkpt>
<trkpt lat="52.721118" lon="06.052619"><ele>1.3</ele><time>2022-09-06T12:55:07Z</time><name>PT6303</name></trkpt>
<trkpt lat="52.721117" lon="06.052603"><ele>1.4</ele><time>2022-09-06T12:55:09Z</time><name>PT6304</name></trkpt>
<trkpt lat="52.721118" lon="06.052584"><ele>1.2</ele><time>2022-09-06T12:55:09Z</time><name>PT6305</name></trkpt>
<trkpt lat="52.721118" lon="06.052567"><ele>1.2</ele><time>2022-09-06T12:55:10Z</time><name>PT6306</name></trkpt>
<trkpt lat="52.721119" lon="06.052549"><ele>1.3</ele><time>2022-09-06T12:55:12Z</time><name>PT6307</name></trkpt>
<trkpt lat="52.721119" lon="06.052534"><ele>1.3</ele><time>2022-09-06T12:55:12Z</time><name>PT6308</name></trkpt>
<trkpt lat="52.721119" lon="06.052521"><ele>1.6</ele><time>2022-09-06T12:55:13Z</time><name>PT6309</name></trkpt>
<trkpt lat="52.721122" lon="06.052514"><ele>1.7</ele><time>2022-09-06T12:55:15Z</time><name>PT6310</name></trkpt>
<trkpt lat="52.721123" lon="06.052505"><ele>1.9</ele><time>2022-09-06T12:55:15Z</time><name>PT6311</name></trkpt>
<trkpt lat="52.721123" lon="06.052493"><ele>1.8</ele><time>2022-09-06T12:55:16Z</time><name>PT6312</name></trkpt>
<trkpt lat="52.721125" lon="06.052480"><ele>1.6</ele><time>2022-09-06T12:55:18Z</time><name>PT6313</name></trkpt>
<trkpt lat="52.721128" lon="06.052465"><ele>1.5</ele><time>2022-09-06T12:55:18Z</time><name>PT6314</name></trkpt>
<trkpt lat="52.721127" lon="06.052452"><ele>1.3</ele><time>2022-09-06T12:55:19Z</time><name>PT6315</name></trkpt>
<trkpt lat="52.721126" lon="06.052444"><ele>1.2</ele><time>2022-09-06T12:55:21Z</time><name>PT6316</name></trkpt>
<trkpt lat="52.721126" lon="06.052440"><ele>1.3</ele><time>2022-09-06T12:55:21Z</time><name>PT6317</name></trkpt>
<trkpt lat="52.721127" lon="06.052436"><ele>1.5</ele><time>2022-09-06T12:55:22Z</time><name>PT6318</name></trkpt>
<trkpt lat="52.721128" lon="06.052432"><ele>1.7</ele><time>2022-09-06T12:55:24Z</time><name>PT6319</name></trkpt>
<trkpt lat="52.721131" lon="06.052421"><ele>1.6</ele><time>2022-09-06T12:55:25Z</time><name>PT6320</name></trkpt>
<trkpt lat="52.721132" lon="06.052412"><ele>1.6</ele><time>2022-09-06T12:55:27Z</time><name>PT6321</name></trkpt>
<trkpt lat="52.721132" lon="06.052395"><ele>1.7</ele><time>2022-09-06T12:55:27Z</time><name>PT6322</name></trkpt>
<trkpt lat="52.721131" lon="06.052380"><ele>1.7</ele><time>2022-09-06T12:55:29Z</time><name>PT6323</name></trkpt>
<trkpt lat="52.721130" lon="06.052365"><ele>1.6</ele><time>2022-09-06T12:55:30Z</time><name>PT6324</name></trkpt>
<trkpt lat="52.721129" lon="06.052352"><ele>1.5</ele><time>2022-09-06T12:55:30Z</time><name>PT6325</name></trkpt>
<trkpt lat="52.721128" lon="06.052337"><ele>1.4</ele><time>2022-09-06T12:55:31Z</time><name>PT6326</name></trkpt>
<trkpt lat="52.721128" lon="06.052326"><ele>1.2</ele><time>2022-09-06T12:55:33Z</time><name>PT6327</name></trkpt>
<trkpt lat="52.721132" lon="06.052317"><ele>1.2</ele><time>2022-09-06T12:55:33Z</time><name>PT6328</name></trkpt>
<trkpt lat="52.721137" lon="06.052306"><ele>1.1</ele><time>2022-09-06T12:55:34Z</time><name>PT6329</name></trkpt>
<trkpt lat="52.721137" lon="06.052295"><ele>1.2</ele><time>2022-09-06T12:55:36Z</time><name>PT6330</name></trkpt>
<trkpt lat="52.721137" lon="06.052284"><ele>1.2</ele><time>2022-09-06T12:55:36Z</time><name>PT6331</name></trkpt>
<trkpt lat="52.721138" lon="06.052278"><ele>1.1</ele><time>2022-09-06T12:55:37Z</time><name>PT6332</name></trkpt>
<trkpt lat="52.721138" lon="06.052276"><ele>1.1</ele><time>2022-09-06T12:55:39Z</time><name>PT6333</name></trkpt>
<trkpt lat="52.721139" lon="06.052275"><ele>1</ele><time>2022-09-06T12:55:39Z</time><name>PT6334</name></trkpt>
<trkpt lat="52.721138" lon="06.052276"><ele>1.1</ele><time>2022-09-06T12:55:40Z</time><name>PT6335</name></trkpt>
<trkpt lat="52.721138" lon="06.052272"><ele>0.9</ele><time>2022-09-06T12:56:27Z</time><name>PT6336</name></trkpt>
<trkpt lat="52.721139" lon="06.052268"><ele>0.9</ele><time>2022-09-06T12:56:28Z</time><name>PT6337</name></trkpt>
<trkpt lat="52.721140" lon="06.052261"><ele>0.7</ele><time>2022-09-06T12:57:15Z</time><name>PT6338</name></trkpt>
<trkpt lat="52.721141" lon="06.052236"><ele>0.7</ele><time>2022-09-06T12:57:15Z</time><name>PT6339</name></trkpt>
<trkpt lat="52.721148" lon="06.052193"><ele>0.7</ele><time>2022-09-06T12:57:16Z</time><name>PT6340</name></trkpt>
<trkpt lat="52.721151" lon="06.052169"><ele>0.7</ele><time>2022-09-06T12:57:18Z</time><name>PT6341</name></trkpt>
<trkpt lat="52.721155" lon="06.052151"><ele>0.6</ele><time>2022-09-06T12:57:18Z</time><name>PT6342</name></trkpt>
<trkpt lat="52.721155" lon="06.052134"><ele>0.6</ele><time>2022-09-06T12:57:19Z</time><name>PT6343</name></trkpt>
<trkpt lat="52.721156" lon="06.052122"><ele>0.6</ele><time>2022-09-06T12:57:21Z</time><name>PT6344</name></trkpt>
<trkpt lat="52.721156" lon="06.052108"><ele>0.5</ele><time>2022-09-06T12:57:21Z</time><name>PT6345</name></trkpt>
<trkpt lat="52.721158" lon="06.052095"><ele>0.8</ele><time>2022-09-06T12:57:22Z</time><name>PT6346</name></trkpt>
<trkpt lat="52.721159" lon="06.052088"><ele>0.7</ele><time>2022-09-06T12:57:24Z</time><name>PT6347</name></trkpt>
<trkpt lat="52.721159" lon="06.052084"><ele>0.6</ele><time>2022-09-06T12:57:24Z</time><name>PT6348</name></trkpt>
<trkpt lat="52.721157" lon="06.052077"><ele>0.8</ele><time>2022-09-06T12:57:25Z</time><name>PT6349</name></trkpt>
<trkpt lat="52.721153" lon="06.052057"><ele>0.5</ele><time>2022-09-06T12:58:12Z</time><name>PT6350</name></trkpt>
<trkpt lat="52.721155" lon="06.052041"><ele>0.7</ele><time>2022-09-06T12:58:12Z</time><name>PT6351</name></trkpt>
<trkpt lat="52.721160" lon="06.052021"><ele>0.3</ele><time>2022-09-06T12:58:22Z</time><name>PT6352</name></trkpt>
<trkpt lat="52.721160" lon="06.052010"><ele>0.3</ele><time>2022-09-06T12:58:24Z</time><name>PT6353</name></trkpt>
<trkpt lat="52.721161" lon="06.052001"><ele>0.4</ele><time>2022-09-06T12:58:24Z</time><name>PT6354</name></trkpt>
<trkpt lat="52.721160" lon="06.051987"><ele>0.5</ele><time>2022-09-06T12:58:42Z</time><name>PT6355</name></trkpt>
<trkpt lat="52.721153" lon="06.051986"><ele>0.3</ele><time>2022-09-06T12:58:43Z</time><name>PT6356</name></trkpt>
<trkpt lat="52.721146" lon="06.051984"><ele>0.3</ele><time>2022-09-06T12:58:45Z</time><name>PT6357</name></trkpt>
<trkpt lat="52.721138" lon="06.051974"><ele>0.3</ele><time>2022-09-06T12:58:45Z</time><name>PT6358</name></trkpt>
<trkpt lat="52.721133" lon="06.051966"><ele>0.3</ele><time>2022-09-06T12:58:46Z</time><name>PT6359</name></trkpt>
<trkpt lat="52.721131" lon="06.051964"><ele>0.6</ele><time>2022-09-06T12:58:48Z</time><name>PT6360</name></trkpt>
<trkpt lat="52.721126" lon="06.051956"><ele>0.7</ele><time>2022-09-06T12:58:48Z</time><name>PT6361</name></trkpt>
<trkpt lat="52.721124" lon="06.051954"><ele>0.4</ele><time>2022-09-06T12:58:49Z</time><name>PT6362</name></trkpt>
<trkpt lat="52.721127" lon="06.051954"><ele>0.4</ele><time>2022-09-06T12:58:51Z</time><name>PT6363</name></trkpt>
<trkpt lat="52.721131" lon="06.051953"><ele>0.3</ele><time>2022-09-06T12:58:51Z</time><name>PT6364</name></trkpt>
<trkpt lat="52.721135" lon="06.051956"><ele>0.3</ele><time>2022-09-06T12:58:52Z</time><name>PT6365</name></trkpt>
<trkpt lat="52.721137" lon="06.051960"><ele>0.5</ele><time>2022-09-06T12:58:54Z</time><name>PT6366</name></trkpt>
<trkpt lat="52.721137" lon="06.051961"><ele>0.6</ele><time>2022-09-06T12:58:54Z</time><name>PT6367</name></trkpt>
<trkpt lat="52.721136" lon="06.051962"><ele>0.5</ele><time>2022-09-06T12:58:55Z</time><name>PT6368</name></trkpt>
<trkpt lat="52.721135" lon="06.051962"><ele>0.6</ele><time>2022-09-06T12:58:57Z</time><name>PT6369</name></trkpt>
<trkpt lat="52.721135" lon="06.051963"><ele>0.7</ele><time>2022-09-06T12:59:00Z</time><name>PT6370</name></trkpt>
<trkpt lat="52.721132" lon="06.051946"><ele>0.7</ele><time>2022-09-06T12:59:00Z</time><name>PT6371</name></trkpt>
<trkpt lat="52.721130" lon="06.051929"><ele>0.6</ele><time>2022-09-06T12:59:01Z</time><name>PT6372</name></trkpt>
<trkpt lat="52.721129" lon="06.051910"><ele>0.6</ele><time>2022-09-06T12:59:03Z</time><name>PT6373</name></trkpt>
<trkpt lat="52.721128" lon="06.051892"><ele>0.6</ele><time>2022-09-06T12:59:03Z</time><name>PT6374</name></trkpt>
<trkpt lat="52.721127" lon="06.051874"><ele>0.4</ele><time>2022-09-06T12:59:04Z</time><name>PT6375</name></trkpt>
<trkpt lat="52.721127" lon="06.051858"><ele>0.4</ele><time>2022-09-06T12:59:06Z</time><name>PT6376</name></trkpt>
<trkpt lat="52.721126" lon="06.051841"><ele>0.3</ele><time>2022-09-06T12:59:06Z</time><name>PT6377</name></trkpt>
<trkpt lat="52.721123" lon="06.051823"><ele>0.3</ele><time>2022-09-06T12:59:07Z</time><name>PT6378</name></trkpt>
<trkpt lat="52.721121" lon="06.051806"><ele>0.2</ele><time>2022-09-06T12:59:09Z</time><name>PT6379</name></trkpt>
<trkpt lat="52.721120" lon="06.051787"><ele>0.3</ele><time>2022-09-06T12:59:09Z</time><name>PT6380</name></trkpt>
<trkpt lat="52.721121" lon="06.051770"><ele>0.4</ele><time>2022-09-06T12:59:10Z</time><name>PT6381</name></trkpt>
<trkpt lat="52.721123" lon="06.051752"><ele>0.3</ele><time>2022-09-06T12:59:12Z</time><name>PT6382</name></trkpt>
<trkpt lat="52.721124" lon="06.051733"><ele>0.3</ele><time>2022-09-06T12:59:12Z</time><name>PT6383</name></trkpt>
<trkpt lat="52.721126" lon="06.051713"><ele>0.2</ele><time>2022-09-06T12:59:13Z</time><name>PT6384</name></trkpt>
<trkpt lat="52.721128" lon="06.051693"><ele>0.3</ele><time>2022-09-06T12:59:15Z</time><name>PT6385</name></trkpt>
<trkpt lat="52.721129" lon="06.051676"><ele>0.2</ele><time>2022-09-06T12:59:15Z</time><name>PT6386</name></trkpt>
<trkpt lat="52.721130" lon="06.051661"><ele>0.3</ele><time>2022-09-06T12:59:16Z</time><name>PT6387</name></trkpt>
<trkpt lat="52.721129" lon="06.051640"><ele>0.4</ele><time>2022-09-06T12:59:18Z</time><name>PT6388</name></trkpt>
<trkpt lat="52.721129" lon="06.051621"><ele>0.4</ele><time>2022-09-06T12:59:18Z</time><name>PT6389</name></trkpt>
<trkpt lat="52.721130" lon="06.051605"><ele>0.3</ele><time>2022-09-06T12:59:19Z</time><name>PT6390</name></trkpt>
<trkpt lat="52.721132" lon="06.051589"><ele>0.4</ele><time>2022-09-06T12:59:21Z</time><name>PT6391</name></trkpt>
<trkpt lat="52.721134" lon="06.051572"><ele>0.3</ele><time>2022-09-06T12:59:21Z</time><name>PT6392</name></trkpt>
<trkpt lat="52.721135" lon="06.051558"><ele>0.3</ele><time>2022-09-06T12:59:22Z</time><name>PT6393</name></trkpt>
<trkpt lat="52.721133" lon="06.051548"><ele>0.1</ele><time>2022-09-06T12:59:24Z</time><name>PT6394</name></trkpt>
<trkpt lat="52.721134" lon="06.051535"><ele>0.1</ele><time>2022-09-06T12:59:24Z</time><name>PT6395</name></trkpt>
<trkpt lat="52.721137" lon="06.051521"><ele>0</ele><time>2022-09-06T12:59:25Z</time><name>PT6396</name></trkpt>
<trkpt lat="52.721138" lon="06.051506"><ele>0.1</ele><time>2022-09-06T12:59:27Z</time><name>PT6397</name></trkpt>
<trkpt lat="52.721139" lon="06.051492"><ele>0.1</ele><time>2022-09-06T12:59:27Z</time><name>PT6398</name></trkpt>
<trkpt lat="52.721139" lon="06.051479"><ele>0</ele><time>2022-09-06T12:59:28Z</time><name>PT6399</name></trkpt>
<trkpt lat="52.721139" lon="06.051471"><ele>0</ele><time>2022-09-06T12:59:30Z</time><name>PT6400</name></trkpt>
<trkpt lat="52.721138" lon="06.051467"><ele>0</ele><time>2022-09-06T12:59:30Z</time><name>PT6401</name></trkpt>
<trkpt lat="52.721140" lon="06.051460"><ele>0.2</ele><time>2022-09-06T12:59:31Z</time><name>PT6402</name></trkpt>
<trkpt lat="52.721142" lon="06.051448"><ele>0</ele><time>2022-09-06T12:59:33Z</time><name>PT6403</name></trkpt>
<trkpt lat="52.721144" lon="06.051432"><ele>0.1</ele><time>2022-09-06T12:59:33Z</time><name>PT6404</name></trkpt>
<trkpt lat="52.721146" lon="06.051417"><ele>0.3</ele><time>2022-09-06T12:59:34Z</time><name>PT6405</name></trkpt>
<trkpt lat="52.721147" lon="06.051402"><ele>0.3</ele><time>2022-09-06T12:59:36Z</time><name>PT6406</name></trkpt>
<trkpt lat="52.721148" lon="06.051386"><ele>0.3</ele><time>2022-09-06T12:59:36Z</time><name>PT6407</name></trkpt>
<trkpt lat="52.721148" lon="06.051374"><ele>0.4</ele><time>2022-09-06T12:59:37Z</time><name>PT6408</name></trkpt>
<trkpt lat="52.721147" lon="06.051363"><ele>0.5</ele><time>2022-09-06T12:59:39Z</time><name>PT6409</name></trkpt>
<trkpt lat="52.721146" lon="06.051350"><ele>0.4</ele><time>2022-09-06T12:59:39Z</time><name>PT6410</name></trkpt>
<trkpt lat="52.721146" lon="06.051337"><ele>0.7</ele><time>2022-09-06T12:59:40Z</time><name>PT6411</name></trkpt>
<trkpt lat="52.721148" lon="06.051325"><ele>0.8</ele><time>2022-09-06T12:59:42Z</time><name>PT6412</name></trkpt>
<trkpt lat="52.721149" lon="06.051319"><ele>0.8</ele><time>2022-09-06T12:59:42Z</time><name>PT6413</name></trkpt>
<trkpt lat="52.721149" lon="06.051306"><ele>1</ele><time>2022-09-06T12:59:43Z</time><name>PT6414</name></trkpt>
<trkpt lat="52.721149" lon="06.051291"><ele>1.2</ele><time>2022-09-06T12:59:45Z</time><name>PT6415</name></trkpt>
<trkpt lat="52.721148" lon="06.051275"><ele>1.2</ele><time>2022-09-06T12:59:45Z</time><name>PT6416</name></trkpt>
<trkpt lat="52.721147" lon="06.051262"><ele>1.2</ele><time>2022-09-06T12:59:46Z</time><name>PT6417</name></trkpt>
<trkpt lat="52.721147" lon="06.051250"><ele>1.4</ele><time>2022-09-06T12:59:48Z</time><name>PT6418</name></trkpt>
<trkpt lat="52.721148" lon="06.051242"><ele>1.4</ele><time>2022-09-06T12:59:48Z</time><name>PT6419</name></trkpt>
<trkpt lat="52.721148" lon="06.051236"><ele>1.5</ele><time>2022-09-06T12:59:49Z</time><name>PT6420</name></trkpt>
<trkpt lat="52.721149" lon="06.051233"><ele>1.6</ele><time>2022-09-06T12:59:51Z</time><name>PT6421</name></trkpt>
<trkpt lat="52.721148" lon="06.051226"><ele>1.5</ele><time>2022-09-06T12:59:51Z</time><name>PT6422</name></trkpt>
<trkpt lat="52.721149" lon="06.051220"><ele>1.3</ele><time>2022-09-06T12:59:52Z</time><name>PT6423</name></trkpt>
<trkpt lat="52.721148" lon="06.051214"><ele>1.2</ele><time>2022-09-06T12:59:54Z</time><name>PT6424</name></trkpt>
<trkpt lat="52.721148" lon="06.051207"><ele>1</ele><time>2022-09-06T12:59:54Z</time><name>PT6425</name></trkpt>
<trkpt lat="52.721148" lon="06.051202"><ele>0.8</ele><time>2022-09-06T12:59:55Z</time><name>PT6426</name></trkpt>
<trkpt lat="52.721148" lon="06.051194"><ele>0.8</ele><time>2022-09-06T12:59:57Z</time><name>PT6427</name></trkpt>
<trkpt lat="52.721148" lon="06.051188"><ele>0.6</ele><time>2022-09-06T12:59:57Z</time><name>PT6428</name></trkpt>
<trkpt lat="52.721147" lon="06.051180"><ele>0.5</ele><time>2022-09-06T12:59:58Z</time><name>PT6429</name></trkpt>
<trkpt lat="52.721146" lon="06.051172"><ele>0.5</ele><time>2022-09-06T13:00:00Z</time><name>PT6430</name></trkpt>
<trkpt lat="52.721146" lon="06.051160"><ele>0.4</ele><time>2022-09-06T13:00:00Z</time><name>PT6431</name></trkpt>
<trkpt lat="52.721145" lon="06.051148"><ele>0.5</ele><time>2022-09-06T13:00:01Z</time><name>PT6432</name></trkpt>
<trkpt lat="52.721143" lon="06.051140"><ele>0.6</ele><time>2022-09-06T13:00:03Z</time><name>PT6433</name></trkpt>
<trkpt lat="52.721143" lon="06.051134"><ele>0.6</ele><time>2022-09-06T13:00:03Z</time><name>PT6434</name></trkpt>
<trkpt lat="52.721143" lon="06.051122"><ele>0.6</ele><time>2022-09-06T13:00:04Z</time><name>PT6435</name></trkpt>
<trkpt lat="52.721143" lon="06.051108"><ele>0.4</ele><time>2022-09-06T13:00:06Z</time><name>PT6436</name></trkpt>
<trkpt lat="52.721143" lon="06.051092"><ele>0.4</ele><time>2022-09-06T13:00:06Z</time><name>PT6437</name></trkpt>
<trkpt lat="52.721140" lon="06.051074"><ele>0.1</ele><time>2022-09-06T13:00:07Z</time><name>PT6438</name></trkpt>
<trkpt lat="52.721137" lon="06.051055"><ele>0.1</ele><time>2022-09-06T13:00:09Z</time><name>PT6439</name></trkpt>
<trkpt lat="52.721136" lon="06.051036"><ele>0.1</ele><time>2022-09-06T13:00:09Z</time><name>PT6440</name></trkpt>
<trkpt lat="52.721136" lon="06.051014"><ele>0</ele><time>2022-09-06T13:00:10Z</time><name>PT6441</name></trkpt>
<trkpt lat="52.721134" lon="06.050993"><ele>0</ele><time>2022-09-06T13:00:12Z</time><name>PT6442</name></trkpt>
<trkpt lat="52.721133" lon="06.050976"><ele>0</ele><time>2022-09-06T13:00:12Z</time><name>PT6443</name></trkpt>
<trkpt lat="52.721132" lon="06.050964"><ele>0</ele><time>2022-09-06T13:00:13Z</time><name>PT6444</name></trkpt>
<trkpt lat="52.721134" lon="06.050950"><ele>0.1</ele><time>2022-09-06T13:00:15Z</time><name>PT6445</name></trkpt>
<trkpt lat="52.721136" lon="06.050935"><ele>0.1</ele><time>2022-09-06T13:00:15Z</time><name>PT6446</name></trkpt>
<trkpt lat="52.721138" lon="06.050914"><ele>0.2</ele><time>2022-09-06T13:00:16Z</time><name>PT6447</name></trkpt>
<trkpt lat="52.721139" lon="06.050893"><ele>0</ele><time>2022-09-06T13:00:18Z</time><name>PT6448</name></trkpt>
<trkpt lat="52.721140" lon="06.050875"><ele>0</ele><time>2022-09-06T13:00:18Z</time><name>PT6449</name></trkpt>
<trkpt lat="52.721139" lon="06.050856"><ele>0</ele><time>2022-09-06T13:00:19Z</time><name>PT6450</name></trkpt>
<trkpt lat="52.721137" lon="06.050837"><ele>0.1</ele><time>2022-09-06T13:00:21Z</time><name>PT6451</name></trkpt>
<trkpt lat="52.721136" lon="06.050820"><ele>0.1</ele><time>2022-09-06T13:00:21Z</time><name>PT6452</name></trkpt>
<trkpt lat="52.721136" lon="06.050803"><ele>0.1</ele><time>2022-09-06T13:00:22Z</time><name>PT6453</name></trkpt>
<trkpt lat="52.721136" lon="06.050787"><ele>0.2</ele><time>2022-09-06T13:00:24Z</time><name>PT6454</name></trkpt>
<trkpt lat="52.721138" lon="06.050770"><ele>0.2</ele><time>2022-09-06T13:00:24Z</time><name>PT6455</name></trkpt>
<trkpt lat="52.721138" lon="06.050754"><ele>0.2</ele><time>2022-09-06T13:00:25Z</time><name>PT6456</name></trkpt>
<trkpt lat="52.721139" lon="06.050737"><ele>0.1</ele><time>2022-09-06T13:00:27Z</time><name>PT6457</name></trkpt>
<trkpt lat="52.721139" lon="06.050720"><ele>0.1</ele><time>2022-09-06T13:00:27Z</time><name>PT6458</name></trkpt>
<trkpt lat="52.721139" lon="06.050702"><ele>0.1</ele><time>2022-09-06T13:00:28Z</time><name>PT6459</name></trkpt>
<trkpt lat="52.721137" lon="06.050683"><ele>0</ele><time>2022-09-06T13:00:30Z</time><name>PT6460</name></trkpt>
<trkpt lat="52.721135" lon="06.050666"><ele>0.1</ele><time>2022-09-06T13:00:30Z</time><name>PT6461</name></trkpt>
<trkpt lat="52.721136" lon="06.050648"><ele>0</ele><time>2022-09-06T13:00:31Z</time><name>PT6462</name></trkpt>
<trkpt lat="52.721137" lon="06.050629"><ele>0.1</ele><time>2022-09-06T13:00:33Z</time><name>PT6463</name></trkpt>
<trkpt lat="52.721136" lon="06.050616"><ele>0.1</ele><time>2022-09-06T13:00:33Z</time><name>PT6464</name></trkpt>
<trkpt lat="52.721135" lon="06.050599"><ele>0.1</ele><time>2022-09-06T13:00:34Z</time><name>PT6465</name></trkpt>
<trkpt lat="52.721136" lon="06.050581"><ele>0</ele><time>2022-09-06T13:00:36Z</time><name>PT6466</name></trkpt>
<trkpt lat="52.721135" lon="06.050566"><ele>0</ele><time>2022-09-06T13:00:36Z</time><name>PT6467</name></trkpt>
<trkpt lat="52.721133" lon="06.050559"><ele>0</ele><time>2022-09-06T13:00:37Z</time><name>PT6468</name></trkpt>
<trkpt lat="52.721132" lon="06.050557"><ele>0</ele><time>2022-09-06T13:00:39Z</time><name>PT6469</name></trkpt>
<trkpt lat="52.721131" lon="06.050555"><ele>0</ele><time>2022-09-06T13:00:39Z</time><name>PT6470</name></trkpt>
<trkpt lat="52.721130" lon="06.050553"><ele>0.1</ele><time>2022-09-06T13:00:40Z</time><name>PT6471</name></trkpt>
<trkpt lat="52.721132" lon="06.050544"><ele>0</ele><time>2022-09-06T13:00:45Z</time><name>PT6472</name></trkpt>
<trkpt lat="52.721132" lon="06.050532"><ele>0</ele><time>2022-09-06T13:00:45Z</time><name>PT6473</name></trkpt>
<trkpt lat="52.721133" lon="06.050519"><ele>0.1</ele><time>2022-09-06T13:00:46Z</time><name>PT6474</name></trkpt>
<trkpt lat="52.721133" lon="06.050507"><ele>0</ele><time>2022-09-06T13:00:48Z</time><name>PT6475</name></trkpt>
<trkpt lat="52.721133" lon="06.050491"><ele>0</ele><time>2022-09-06T13:00:48Z</time><name>PT6476</name></trkpt>
<trkpt lat="52.721132" lon="06.050477"><ele>0.1</ele><time>2022-09-06T13:00:49Z</time><name>PT6477</name></trkpt>
<trkpt lat="52.721129" lon="06.050463"><ele>0.1</ele><time>2022-09-06T13:00:51Z</time><name>PT6478</name></trkpt>
<trkpt lat="52.721126" lon="06.050445"><ele>0.1</ele><time>2022-09-06T13:00:51Z</time><name>PT6479</name></trkpt>
<trkpt lat="52.721124" lon="06.050427"><ele>0.2</ele><time>2022-09-06T13:00:52Z</time><name>PT6480</name></trkpt>
<trkpt lat="52.721123" lon="06.050412"><ele>0</ele><time>2022-09-06T13:00:54Z</time><name>PT6481</name></trkpt>
<trkpt lat="52.721124" lon="06.050395"><ele>0</ele><time>2022-09-06T13:00:54Z</time><name>PT6482</name></trkpt>
<trkpt lat="52.721124" lon="06.050377"><ele>0.1</ele><time>2022-09-06T13:00:55Z</time><name>PT6483</name></trkpt>
<trkpt lat="52.721124" lon="06.050360"><ele>0.1</ele><time>2022-09-06T13:00:57Z</time><name>PT6484</name></trkpt>
<trkpt lat="52.721122" lon="06.050344"><ele>0.1</ele><time>2022-09-06T13:00:57Z</time><name>PT6485</name></trkpt>
<trkpt lat="52.721119" lon="06.050322"><ele>0</ele><time>2022-09-06T13:00:58Z</time><name>PT6486</name></trkpt>
<trkpt lat="52.721117" lon="06.050303"><ele>0.1</ele><time>2022-09-06T13:01:00Z</time><name>PT6487</name></trkpt>
<trkpt lat="52.721117" lon="06.050288"><ele>0.1</ele><time>2022-09-06T13:01:00Z</time><name>PT6488</name></trkpt>
<trkpt lat="52.721116" lon="06.050270"><ele>0.1</ele><time>2022-09-06T13:01:01Z</time><name>PT6489</name></trkpt>
<trkpt lat="52.721116" lon="06.050251"><ele>0</ele><time>2022-09-06T13:01:03Z</time><name>PT6490</name></trkpt>
<trkpt lat="52.721116" lon="06.050233"><ele>0.2</ele><time>2022-09-06T13:01:03Z</time><name>PT6491</name></trkpt>
<trkpt lat="52.721114" lon="06.050217"><ele>0.2</ele><time>2022-09-06T13:01:04Z</time><name>PT6492</name></trkpt>
<trkpt lat="52.721114" lon="06.050201"><ele>0.1</ele><time>2022-09-06T13:01:06Z</time><name>PT6493</name></trkpt>
<trkpt lat="52.721114" lon="06.050185"><ele>0</ele><time>2022-09-06T13:01:06Z</time><name>PT6494</name></trkpt>
<trkpt lat="52.721112" lon="06.050168"><ele>0</ele><time>2022-09-06T13:01:07Z</time><name>PT6495</name></trkpt>
<trkpt lat="52.721110" lon="06.050150"><ele>0</ele><time>2022-09-06T13:01:09Z</time><name>PT6496</name></trkpt>
<trkpt lat="52.721108" lon="06.050129"><ele>0.1</ele><time>2022-09-06T13:01:09Z</time><name>PT6497</name></trkpt>
<trkpt lat="52.721107" lon="06.050111"><ele>0.2</ele><time>2022-09-06T13:01:10Z</time><name>PT6498</name></trkpt>
<trkpt lat="52.721107" lon="06.050090"><ele>0.1</ele><time>2022-09-06T13:01:12Z</time><name>PT6499</name></trkpt>
<trkpt lat="52.721107" lon="06.050073"><ele>0</ele><time>2022-09-06T13:01:12Z</time><name>PT6500</name></trkpt>
<trkpt lat="52.721107" lon="06.050055"><ele>0</ele><time>2022-09-06T13:01:13Z</time><name>PT6501</name></trkpt>
<trkpt lat="52.721105" lon="06.050034"><ele>0.1</ele><time>2022-09-06T13:01:15Z</time><name>PT6502</name></trkpt>
<trkpt lat="52.721104" lon="06.050015"><ele>0</ele><time>2022-09-06T13:01:15Z</time><name>PT6503</name></trkpt>
<trkpt lat="52.721103" lon="06.049997"><ele>0.1</ele><time>2022-09-06T13:01:16Z</time><name>PT6504</name></trkpt>
<trkpt lat="52.721102" lon="06.049974"><ele>0.1</ele><time>2022-09-06T13:01:18Z</time><name>PT6505</name></trkpt>
<trkpt lat="52.721104" lon="06.049963"><ele>0.2</ele><time>2022-09-06T13:01:18Z</time><name>PT6506</name></trkpt>
<trkpt lat="52.721105" lon="06.049944"><ele>0.2</ele><time>2022-09-06T13:01:19Z</time><name>PT6507</name></trkpt>
<trkpt lat="52.721103" lon="06.049920"><ele>0.3</ele><time>2022-09-06T13:01:21Z</time><name>PT6508</name></trkpt>
<trkpt lat="52.721102" lon="06.049901"><ele>0.4</ele><time>2022-09-06T13:01:21Z</time><name>PT6509</name></trkpt>
<trkpt lat="52.721098" lon="06.049882"><ele>0.4</ele><time>2022-09-06T13:01:23Z</time><name>PT6510</name></trkpt>
<trkpt lat="52.721096" lon="06.049868"><ele>0.4</ele><time>2022-09-06T13:01:24Z</time><name>PT6511</name></trkpt>
<trkpt lat="52.721096" lon="06.049856"><ele>0.5</ele><time>2022-09-06T13:01:24Z</time><name>PT6512</name></trkpt>
<trkpt lat="52.721096" lon="06.049844"><ele>0.3</ele><time>2022-09-06T13:01:25Z</time><name>PT6513</name></trkpt>
<trkpt lat="52.721094" lon="06.049838"><ele>0.3</ele><time>2022-09-06T13:01:27Z</time><name>PT6514</name></trkpt>
<trkpt lat="52.721093" lon="06.049835"><ele>0.3</ele><time>2022-09-06T13:01:27Z</time><name>PT6515</name></trkpt>
<trkpt lat="52.721094" lon="06.049827"><ele>0.3</ele><time>2022-09-06T13:01:28Z</time><name>PT6516</name></trkpt>
<trkpt lat="52.721094" lon="06.049813"><ele>0.3</ele><time>2022-09-06T13:01:30Z</time><name>PT6517</name></trkpt>
<trkpt lat="52.721092" lon="06.049796"><ele>0.3</ele><time>2022-09-06T13:01:30Z</time><name>PT6518</name></trkpt>
<trkpt lat="52.721091" lon="06.049778"><ele>0.3</ele><time>2022-09-06T13:01:31Z</time><name>PT6519</name></trkpt>
<trkpt lat="52.721090" lon="06.049762"><ele>0.3</ele><time>2022-09-06T13:01:33Z</time><name>PT6520</name></trkpt>
<trkpt lat="52.721088" lon="06.049746"><ele>0.2</ele><time>2022-09-06T13:01:33Z</time><name>PT6521</name></trkpt>
<trkpt lat="52.721088" lon="06.049729"><ele>0.1</ele><time>2022-09-06T13:01:34Z</time><name>PT6522</name></trkpt>
<trkpt lat="52.721087" lon="06.049712"><ele>0.2</ele><time>2022-09-06T13:01:36Z</time><name>PT6523</name></trkpt>
<trkpt lat="52.721087" lon="06.049696"><ele>0.1</ele><time>2022-09-06T13:01:36Z</time><name>PT6524</name></trkpt>
<trkpt lat="52.721084" lon="06.049688"><ele>0.2</ele><time>2022-09-06T13:01:37Z</time><name>PT6525</name></trkpt>
<trkpt lat="52.721083" lon="06.049671"><ele>0.3</ele><time>2022-09-06T13:01:39Z</time><name>PT6526</name></trkpt>
<trkpt lat="52.721081" lon="06.049653"><ele>0.3</ele><time>2022-09-06T13:01:39Z</time><name>PT6527</name></trkpt>
<trkpt lat="52.721079" lon="06.049635"><ele>0.3</ele><time>2022-09-06T13:01:40Z</time><name>PT6528</name></trkpt>
<trkpt lat="52.721078" lon="06.049612"><ele>0.1</ele><time>2022-09-06T13:01:42Z</time><name>PT6529</name></trkpt>
<trkpt lat="52.721077" lon="06.049592"><ele>0.1</ele><time>2022-09-06T13:01:42Z</time><name>PT6530</name></trkpt>
<trkpt lat="52.721076" lon="06.049574"><ele>0.1</ele><time>2022-09-06T13:01:43Z</time><name>PT6531</name></trkpt>
<trkpt lat="52.721078" lon="06.049558"><ele>0.1</ele><time>2022-09-06T13:01:45Z</time><name>PT6532</name></trkpt>
<trkpt lat="52.721079" lon="06.049540"><ele>0</ele><time>2022-09-06T13:01:45Z</time><name>PT6533</name></trkpt>
<trkpt lat="52.721079" lon="06.049522"><ele>0.1</ele><time>2022-09-06T13:01:46Z</time><name>PT6534</name></trkpt>
<trkpt lat="52.721077" lon="06.049504"><ele>0</ele><time>2022-09-06T13:01:48Z</time><name>PT6535</name></trkpt>
<trkpt lat="52.721077" lon="06.049488"><ele>0</ele><time>2022-09-06T13:01:48Z</time><name>PT6536</name></trkpt>
<trkpt lat="52.721078" lon="06.049472"><ele>0</ele><time>2022-09-06T13:01:49Z</time><name>PT6537</name></trkpt>
<trkpt lat="52.721079" lon="06.049454"><ele>0</ele><time>2022-09-06T13:01:51Z</time><name>PT6538</name></trkpt>
<trkpt lat="52.721077" lon="06.049435"><ele>0</ele><time>2022-09-06T13:01:51Z</time><name>PT6539</name></trkpt>
<trkpt lat="52.721077" lon="06.049416"><ele>0.1</ele><time>2022-09-06T13:01:52Z</time><name>PT6540</name></trkpt>
<trkpt lat="52.721077" lon="06.049399"><ele>0.2</ele><time>2022-09-06T13:01:54Z</time><name>PT6541</name></trkpt>
<trkpt lat="52.721076" lon="06.049380"><ele>0.1</ele><time>2022-09-06T13:01:54Z</time><name>PT6542</name></trkpt>
<trkpt lat="52.721077" lon="06.049364"><ele>0</ele><time>2022-09-06T13:01:55Z</time><name>PT6543</name></trkpt>
<trkpt lat="52.721074" lon="06.049352"><ele>0.1</ele><time>2022-09-06T13:01:57Z</time><name>PT6544</name></trkpt>
<trkpt lat="52.721073" lon="06.049339"><ele>0.2</ele><time>2022-09-06T13:01:57Z</time><name>PT6545</name></trkpt>
<trkpt lat="52.721073" lon="06.049316"><ele>0.3</ele><time>2022-09-06T13:01:58Z</time><name>PT6546</name></trkpt>
<trkpt lat="52.721074" lon="06.049295"><ele>0.1</ele><time>2022-09-06T13:02:00Z</time><name>PT6547</name></trkpt>
<trkpt lat="52.721074" lon="06.049282"><ele>0.2</ele><time>2022-09-06T13:02:00Z</time><name>PT6548</name></trkpt>
<trkpt lat="52.721075" lon="06.049267"><ele>0.3</ele><time>2022-09-06T13:02:01Z</time><name>PT6549</name></trkpt>
<trkpt lat="52.721075" lon="06.049247"><ele>0.3</ele><time>2022-09-06T13:02:03Z</time><name>PT6550</name></trkpt>
<trkpt lat="52.721074" lon="06.049228"><ele>0.2</ele><time>2022-09-06T13:02:03Z</time><name>PT6551</name></trkpt>
<trkpt lat="52.721073" lon="06.049211"><ele>0.1</ele><time>2022-09-06T13:02:04Z</time><name>PT6552</name></trkpt>
<trkpt lat="52.721070" lon="06.049194"><ele>0</ele><time>2022-09-06T13:02:06Z</time><name>PT6553</name></trkpt>
<trkpt lat="52.721067" lon="06.049173"><ele>0.1</ele><time>2022-09-06T13:02:06Z</time><name>PT6554</name></trkpt>
<trkpt lat="52.721065" lon="06.049151"><ele>0.1</ele><time>2022-09-06T13:02:07Z</time><name>PT6555</name></trkpt>
<trkpt lat="52.721062" lon="06.049133"><ele>0.1</ele><time>2022-09-06T13:02:09Z</time><name>PT6556</name></trkpt>
<trkpt lat="52.721060" lon="06.049114"><ele>0.1</ele><time>2022-09-06T13:02:09Z</time><name>PT6557</name></trkpt>
<trkpt lat="52.721061" lon="06.049096"><ele>0.1</ele><time>2022-09-06T13:02:10Z</time><name>PT6558</name></trkpt>
<trkpt lat="52.721062" lon="06.049077"><ele>0.1</ele><time>2022-09-06T13:02:12Z</time><name>PT6559</name></trkpt>
<trkpt lat="52.721061" lon="06.049057"><ele>0.2</ele><time>2022-09-06T13:02:12Z</time><name>PT6560</name></trkpt>
<trkpt lat="52.721061" lon="06.049037"><ele>0.2</ele><time>2022-09-06T13:02:13Z</time><name>PT6561</name></trkpt>
<trkpt lat="52.721061" lon="06.049016"><ele>0.1</ele><time>2022-09-06T13:02:15Z</time><name>PT6562</name></trkpt>
<trkpt lat="52.721060" lon="06.048999"><ele>0.1</ele><time>2022-09-06T13:02:15Z</time><name>PT6563</name></trkpt>
<trkpt lat="52.721059" lon="06.048979"><ele>0</ele><time>2022-09-06T13:02:16Z</time><name>PT6564</name></trkpt>
<trkpt lat="52.721058" lon="06.048960"><ele>0.2</ele><time>2022-09-06T13:02:18Z</time><name>PT6565</name></trkpt>
<trkpt lat="52.721059" lon="06.048937"><ele>0.2</ele><time>2022-09-06T13:02:18Z</time><name>PT6566</name></trkpt>
<trkpt lat="52.721060" lon="06.048921"><ele>0</ele><time>2022-09-06T13:02:19Z</time><name>PT6567</name></trkpt>
<trkpt lat="52.721061" lon="06.048905"><ele>0</ele><time>2022-09-06T13:02:21Z</time><name>PT6568</name></trkpt>
<trkpt lat="52.721060" lon="06.048887"><ele>0.1</ele><time>2022-09-06T13:02:21Z</time><name>PT6569</name></trkpt>
<trkpt lat="52.721060" lon="06.048871"><ele>0.1</ele><time>2022-09-06T13:02:22Z</time><name>PT6570</name></trkpt>
<trkpt lat="52.721059" lon="06.048853"><ele>0.2</ele><time>2022-09-06T13:02:24Z</time><name>PT6571</name></trkpt>
<trkpt lat="52.721058" lon="06.048836"><ele>0.1</ele><time>2022-09-06T13:02:24Z</time><name>PT6572</name></trkpt>
<trkpt lat="52.721057" lon="06.048816"><ele>0.1</ele><time>2022-09-06T13:02:25Z</time><name>PT6573</name></trkpt>
<trkpt lat="52.721055" lon="06.048796"><ele>0.1</ele><time>2022-09-06T13:02:27Z</time><name>PT6574</name></trkpt>
<trkpt lat="52.721055" lon="06.048775"><ele>0.1</ele><time>2022-09-06T13:02:27Z</time><name>PT6575</name></trkpt>
<trkpt lat="52.721056" lon="06.048756"><ele>0.2</ele><time>2022-09-06T13:02:28Z</time><name>PT6576</name></trkpt>
<trkpt lat="52.721059" lon="06.048739"><ele>0.3</ele><time>2022-09-06T13:02:30Z</time><name>PT6577</name></trkpt>
<trkpt lat="52.721059" lon="06.048721"><ele>0.3</ele><time>2022-09-06T13:02:30Z</time><name>PT6578</name></trkpt>
<trkpt lat="52.721059" lon="06.048702"><ele>0.2</ele><time>2022-09-06T13:02:31Z</time><name>PT6579</name></trkpt>
<trkpt lat="52.721058" lon="06.048683"><ele>0</ele><time>2022-09-06T13:02:33Z</time><name>PT6580</name></trkpt>
<trkpt lat="52.721056" lon="06.048663"><ele>0.1</ele><time>2022-09-06T13:02:33Z</time><name>PT6581</name></trkpt>
<trkpt lat="52.721056" lon="06.048644"><ele>0.2</ele><time>2022-09-06T13:02:34Z</time><name>PT6582</name></trkpt>
<trkpt lat="52.721054" lon="06.048624"><ele>0.2</ele><time>2022-09-06T13:02:36Z</time><name>PT6583</name></trkpt>
<trkpt lat="52.721053" lon="06.048602"><ele>0.2</ele><time>2022-09-06T13:02:36Z</time><name>PT6584</name></trkpt>
<trkpt lat="52.721052" lon="06.048581"><ele>0.1</ele><time>2022-09-06T13:02:37Z</time><name>PT6585</name></trkpt>
<trkpt lat="52.721050" lon="06.048559"><ele>0</ele><time>2022-09-06T13:02:39Z</time><name>PT6586</name></trkpt>
<trkpt lat="52.721048" lon="06.048538"><ele>0.1</ele><time>2022-09-06T13:02:39Z</time><name>PT6587</name></trkpt>
<trkpt lat="52.721045" lon="06.048516"><ele>0</ele><time>2022-09-06T13:02:40Z</time><name>PT6588</name></trkpt>
<trkpt lat="52.721044" lon="06.048499"><ele>0.1</ele><time>2022-09-06T13:02:42Z</time><name>PT6589</name></trkpt>
<trkpt lat="52.721044" lon="06.048482"><ele>0.2</ele><time>2022-09-06T13:02:42Z</time><name>PT6590</name></trkpt>
<trkpt lat="52.721044" lon="06.048462"><ele>0.3</ele><time>2022-09-06T13:02:43Z</time><name>PT6591</name></trkpt>
<trkpt lat="52.721044" lon="06.048441"><ele>0.3</ele><time>2022-09-06T13:02:45Z</time><name>PT6592</name></trkpt>
<trkpt lat="52.721044" lon="06.048421"><ele>0.1</ele><time>2022-09-06T13:02:45Z</time><name>PT6593</name></trkpt>
<trkpt lat="52.721045" lon="06.048402"><ele>0.1</ele><time>2022-09-06T13:02:46Z</time><name>PT6594</name></trkpt>
<trkpt lat="52.721044" lon="06.048380"><ele>0.1</ele><time>2022-09-06T13:02:48Z</time><name>PT6595</name></trkpt>
<trkpt lat="52.721040" lon="06.048358"><ele>0.1</ele><time>2022-09-06T13:02:48Z</time><name>PT6596</name></trkpt>
<trkpt lat="52.721038" lon="06.048339"><ele>0</ele><time>2022-09-06T13:02:49Z</time><name>PT6597</name></trkpt>
<trkpt lat="52.721037" lon="06.048320"><ele>0</ele><time>2022-09-06T13:02:51Z</time><name>PT6598</name></trkpt>
<trkpt lat="52.721036" lon="06.048300"><ele>0</ele><time>2022-09-06T13:02:51Z</time><name>PT6599</name></trkpt>
<trkpt lat="52.721035" lon="06.048280"><ele>0</ele><time>2022-09-06T13:02:52Z</time><name>PT6600</name></trkpt>
<trkpt lat="52.721033" lon="06.048262"><ele>0.1</ele><time>2022-09-06T13:02:54Z</time><name>PT6601</name></trkpt>
<trkpt lat="52.721031" lon="06.048246"><ele>0.2</ele><time>2022-09-06T13:02:54Z</time><name>PT6602</name></trkpt>
<trkpt lat="52.721031" lon="06.048227"><ele>0.1</ele><time>2022-09-06T13:02:55Z</time><name>PT6603</name></trkpt>
<trkpt lat="52.721031" lon="06.048207"><ele>0.1</ele><time>2022-09-06T13:02:57Z</time><name>PT6604</name></trkpt>
<trkpt lat="52.721032" lon="06.048186"><ele>0.1</ele><time>2022-09-06T13:02:57Z</time><name>PT6605</name></trkpt>
<trkpt lat="52.721032" lon="06.048167"><ele>0</ele><time>2022-09-06T13:02:58Z</time><name>PT6606</name></trkpt>
<trkpt lat="52.721033" lon="06.048151"><ele>0</ele><time>2022-09-06T13:03:00Z</time><name>PT6607</name></trkpt>
<trkpt lat="52.721033" lon="06.048136"><ele>0</ele><time>2022-09-06T13:03:00Z</time><name>PT6608</name></trkpt>
<trkpt lat="52.721032" lon="06.048117"><ele>0</ele><time>2022-09-06T13:03:01Z</time><name>PT6609</name></trkpt>
<trkpt lat="52.721031" lon="06.048098"><ele>0</ele><time>2022-09-06T13:03:03Z</time><name>PT6610</name></trkpt>
<trkpt lat="52.721031" lon="06.048078"><ele>0</ele><time>2022-09-06T13:03:03Z</time><name>PT6611</name></trkpt>
<trkpt lat="52.721029" lon="06.048058"><ele>0.1</ele><time>2022-09-06T13:03:04Z</time><name>PT6612</name></trkpt>
<trkpt lat="52.721027" lon="06.048038"><ele>0.1</ele><time>2022-09-06T13:03:06Z</time><name>PT6613</name></trkpt>
<trkpt lat="52.721025" lon="06.048019"><ele>0.3</ele><time>2022-09-06T13:03:06Z</time><name>PT6614</name></trkpt>
<trkpt lat="52.721024" lon="06.048002"><ele>0.2</ele><time>2022-09-06T13:03:07Z</time><name>PT6615</name></trkpt>
<trkpt lat="52.721024" lon="06.047986"><ele>0.1</ele><time>2022-09-06T13:03:09Z</time><name>PT6616</name></trkpt>
<trkpt lat="52.721023" lon="06.047971"><ele>0.1</ele><time>2022-09-06T13:03:09Z</time><name>PT6617</name></trkpt>
<trkpt lat="52.721023" lon="06.047955"><ele>0.3</ele><time>2022-09-06T13:03:10Z</time><name>PT6618</name></trkpt>
<trkpt lat="52.721022" lon="06.047938"><ele>0.3</ele><time>2022-09-06T13:03:12Z</time><name>PT6619</name></trkpt>
<trkpt lat="52.721022" lon="06.047920"><ele>0.3</ele><time>2022-09-06T13:03:12Z</time><name>PT6620</name></trkpt>
<trkpt lat="52.721023" lon="06.047902"><ele>0.4</ele><time>2022-09-06T13:03:13Z</time><name>PT6621</name></trkpt>
<trkpt lat="52.721024" lon="06.047884"><ele>0.4</ele><time>2022-09-06T13:03:15Z</time><name>PT6622</name></trkpt>
<trkpt lat="52.721025" lon="06.047872"><ele>0.3</ele><time>2022-09-06T13:03:15Z</time><name>PT6623</name></trkpt>
<trkpt lat="52.721024" lon="06.047859"><ele>0.3</ele><time>2022-09-06T13:03:16Z</time><name>PT6624</name></trkpt>
<trkpt lat="52.721024" lon="06.047842"><ele>0.2</ele><time>2022-09-06T13:03:18Z</time><name>PT6625</name></trkpt>
<trkpt lat="52.721024" lon="06.047821"><ele>0.3</ele><time>2022-09-06T13:03:18Z</time><name>PT6626</name></trkpt>
<trkpt lat="52.721024" lon="06.047803"><ele>0.4</ele><time>2022-09-06T13:03:19Z</time><name>PT6627</name></trkpt>
<trkpt lat="52.721024" lon="06.047785"><ele>0.3</ele><time>2022-09-06T13:03:21Z</time><name>PT6628</name></trkpt>
<trkpt lat="52.721023" lon="06.047769"><ele>0.4</ele><time>2022-09-06T13:03:21Z</time><name>PT6629</name></trkpt>
<trkpt lat="52.721022" lon="06.047750"><ele>0.6</ele><time>2022-09-06T13:03:22Z</time><name>PT6630</name></trkpt>
<trkpt lat="52.721023" lon="06.047736"><ele>0.5</ele><time>2022-09-06T13:03:24Z</time><name>PT6631</name></trkpt>
<trkpt lat="52.721023" lon="06.047726"><ele>0.5</ele><time>2022-09-06T13:03:24Z</time><name>PT6632</name></trkpt>
<trkpt lat="52.721022" lon="06.047712"><ele>0.5</ele><time>2022-09-06T13:03:25Z</time><name>PT6633</name></trkpt>
<trkpt lat="52.721021" lon="06.047695"><ele>0.5</ele><time>2022-09-06T13:03:27Z</time><name>PT6634</name></trkpt>
<trkpt lat="52.721021" lon="06.047675"><ele>0.4</ele><time>2022-09-06T13:03:27Z</time><name>PT6635</name></trkpt>
<trkpt lat="52.721022" lon="06.047657"><ele>0.3</ele><time>2022-09-06T13:03:28Z</time><name>PT6636</name></trkpt>
<trkpt lat="52.721022" lon="06.047635"><ele>0.3</ele><time>2022-09-06T13:03:30Z</time><name>PT6637</name></trkpt>
<trkpt lat="52.721020" lon="06.047615"><ele>0.3</ele><time>2022-09-06T13:03:30Z</time><name>PT6638</name></trkpt>
<trkpt lat="52.721019" lon="06.047597"><ele>0.3</ele><time>2022-09-06T13:03:31Z</time><name>PT6639</name></trkpt>
<trkpt lat="52.721018" lon="06.047578"><ele>0.2</ele><time>2022-09-06T13:03:33Z</time><name>PT6640</name></trkpt>
<trkpt lat="52.721016" lon="06.047558"><ele>0.3</ele><time>2022-09-06T13:03:33Z</time><name>PT6641</name></trkpt>
<trkpt lat="52.721015" lon="06.047537"><ele>0.3</ele><time>2022-09-06T13:03:34Z</time><name>PT6642</name></trkpt>
<trkpt lat="52.721014" lon="06.047515"><ele>0.3</ele><time>2022-09-06T13:03:36Z</time><name>PT6643</name></trkpt>
<trkpt lat="52.721013" lon="06.047492"><ele>0.4</ele><time>2022-09-06T13:03:36Z</time><name>PT6644</name></trkpt>
<trkpt lat="52.721012" lon="06.047469"><ele>0.4</ele><time>2022-09-06T13:03:37Z</time><name>PT6645</name></trkpt>
<trkpt lat="52.721011" lon="06.047446"><ele>0.3</ele><time>2022-09-06T13:03:39Z</time><name>PT6646</name></trkpt>
<trkpt lat="52.721010" lon="06.047423"><ele>0.3</ele><time>2022-09-06T13:03:39Z</time><name>PT6647</name></trkpt>
<trkpt lat="52.721009" lon="06.047399"><ele>0.2</ele><time>2022-09-06T13:03:40Z</time><name>PT6648</name></trkpt>
<trkpt lat="52.721008" lon="06.047381"><ele>0.1</ele><time>2022-09-06T13:03:42Z</time><name>PT6649</name></trkpt>
<trkpt lat="52.721007" lon="06.047361"><ele>0.3</ele><time>2022-09-06T13:03:42Z</time><name>PT6650</name></trkpt>
<trkpt lat="52.721007" lon="06.047337"><ele>0.3</ele><time>2022-09-06T13:03:43Z</time><name>PT6651</name></trkpt>
<trkpt lat="52.721008" lon="06.047313"><ele>0.3</ele><time>2022-09-06T13:03:45Z</time><name>PT6652</name></trkpt>
<trkpt lat="52.721008" lon="06.047292"><ele>0.4</ele><time>2022-09-06T13:03:45Z</time><name>PT6653</name></trkpt>
<trkpt lat="52.721008" lon="06.047272"><ele>0.3</ele><time>2022-09-06T13:03:46Z</time><name>PT6654</name></trkpt>
<trkpt lat="52.721008" lon="06.047251"><ele>0.3</ele><time>2022-09-06T13:03:48Z</time><name>PT6655</name></trkpt>
<trkpt lat="52.721007" lon="06.047226"><ele>0.3</ele><time>2022-09-06T13:03:48Z</time><name>PT6656</name></trkpt>
<trkpt lat="52.721005" lon="06.047205"><ele>0.3</ele><time>2022-09-06T13:03:49Z</time><name>PT6657</name></trkpt>
<trkpt lat="52.721005" lon="06.047184"><ele>0.3</ele><time>2022-09-06T13:03:51Z</time><name>PT6658</name></trkpt>
<trkpt lat="52.721004" lon="06.047162"><ele>0.3</ele><time>2022-09-06T13:03:51Z</time><name>PT6659</name></trkpt>
<trkpt lat="52.721003" lon="06.047141"><ele>0.3</ele><time>2022-09-06T13:03:52Z</time><name>PT6660</name></trkpt>
<trkpt lat="52.721002" lon="06.047120"><ele>0.5</ele><time>2022-09-06T13:03:54Z</time><name>PT6661</name></trkpt>
<trkpt lat="52.721001" lon="06.047100"><ele>0.4</ele><time>2022-09-06T13:03:54Z</time><name>PT6662</name></trkpt>
<trkpt lat="52.721001" lon="06.047082"><ele>0.4</ele><time>2022-09-06T13:03:55Z</time><name>PT6663</name></trkpt>
<trkpt lat="52.721001" lon="06.047064"><ele>0.4</ele><time>2022-09-06T13:03:57Z</time><name>PT6664</name></trkpt>
<trkpt lat="52.721002" lon="06.047045"><ele>0.3</ele><time>2022-09-06T13:03:57Z</time><name>PT6665</name></trkpt>
<trkpt lat="52.721003" lon="06.047025"><ele>0.1</ele><time>2022-09-06T13:03:58Z</time><name>PT6666</name></trkpt>
<trkpt lat="52.721003" lon="06.047005"><ele>0.2</ele><time>2022-09-06T13:04:00Z</time><name>PT6667</name></trkpt>
<trkpt lat="52.721003" lon="06.046986"><ele>0.1</ele><time>2022-09-06T13:04:00Z</time><name>PT6668</name></trkpt>
<trkpt lat="52.721003" lon="06.046968"><ele>0.3</ele><time>2022-09-06T13:04:01Z</time><name>PT6669</name></trkpt>
<trkpt lat="52.721002" lon="06.046959"><ele>0.3</ele><time>2022-09-06T13:04:03Z</time><name>PT6670</name></trkpt>
<trkpt lat="52.721005" lon="06.046953"><ele>0.4</ele><time>2022-09-06T13:04:03Z</time><name>PT6671</name></trkpt>
<trkpt lat="52.721009" lon="06.046941"><ele>0.3</ele><time>2022-09-06T13:04:04Z</time><name>PT6672</name></trkpt>
<trkpt lat="52.721012" lon="06.046924"><ele>0.4</ele><time>2022-09-06T13:04:06Z</time><name>PT6673</name></trkpt>
<trkpt lat="52.721013" lon="06.046909"><ele>0.3</ele><time>2022-09-06T13:04:06Z</time><name>PT6674</name></trkpt>
<trkpt lat="52.721013" lon="06.046893"><ele>0.3</ele><time>2022-09-06T13:04:07Z</time><name>PT6675</name></trkpt>
<trkpt lat="52.721014" lon="06.046878"><ele>0.4</ele><time>2022-09-06T13:04:09Z</time><name>PT6676</name></trkpt>
<trkpt lat="52.721014" lon="06.046866"><ele>0.6</ele><time>2022-09-06T13:04:09Z</time><name>PT6677</name></trkpt>
<trkpt lat="52.721015" lon="06.046852"><ele>0.7</ele><time>2022-09-06T13:04:10Z</time><name>PT6678</name></trkpt>
<trkpt lat="52.721016" lon="06.046844"><ele>0.6</ele><time>2022-09-06T13:04:12Z</time><name>PT6679</name></trkpt>
<trkpt lat="52.721017" lon="06.046841"><ele>0.5</ele><time>2022-09-06T13:04:12Z</time><name>PT6680</name></trkpt>
<trkpt lat="52.721016" lon="06.046839"><ele>0.5</ele><time>2022-09-06T13:04:13Z</time><name>PT6681</name></trkpt>
<trkpt lat="52.721016" lon="06.046835"><ele>0.3</ele><time>2022-09-06T13:04:15Z</time><name>PT6682</name></trkpt>
<trkpt lat="52.721014" lon="06.046825"><ele>0.3</ele><time>2022-09-06T13:04:15Z</time><name>PT6683</name></trkpt>
<trkpt lat="52.721012" lon="06.046815"><ele>0.3</ele><time>2022-09-06T13:04:16Z</time><name>PT6684</name></trkpt>
<trkpt lat="52.721010" lon="06.046809"><ele>0.3</ele><time>2022-09-06T13:04:18Z</time><name>PT6685</name></trkpt>
<trkpt lat="52.721004" lon="06.046800"><ele>0.3</ele><time>2022-09-06T13:04:18Z</time><name>PT6686</name></trkpt>
<trkpt lat="52.720998" lon="06.046785"><ele>0.4</ele><time>2022-09-06T13:04:19Z</time><name>PT6687</name></trkpt>
<trkpt lat="52.720994" lon="06.046768"><ele>0.4</ele><time>2022-09-06T13:04:21Z</time><name>PT6688</name></trkpt>
<trkpt lat="52.720993" lon="06.046752"><ele>0.3</ele><time>2022-09-06T13:04:21Z</time><name>PT6689</name></trkpt>
<trkpt lat="52.720993" lon="06.046733"><ele>0.5</ele><time>2022-09-06T13:04:22Z</time><name>PT6690</name></trkpt>
<trkpt lat="52.720992" lon="06.046716"><ele>0.5</ele><time>2022-09-06T13:04:24Z</time><name>PT6691</name></trkpt>
<trkpt lat="52.720991" lon="06.046699"><ele>0.4</ele><time>2022-09-06T13:04:24Z</time><name>PT6692</name></trkpt>
<trkpt lat="52.720989" lon="06.046682"><ele>0.2</ele><time>2022-09-06T13:04:25Z</time><name>PT6693</name></trkpt>
<trkpt lat="52.720986" lon="06.046665"><ele>0.1</ele><time>2022-09-06T13:04:27Z</time><name>PT6694</name></trkpt>
<trkpt lat="52.720985" lon="06.046647"><ele>0.1</ele><time>2022-09-06T13:04:27Z</time><name>PT6695</name></trkpt>
<trkpt lat="52.720984" lon="06.046630"><ele>0.2</ele><time>2022-09-06T13:04:28Z</time><name>PT6696</name></trkpt>
<trkpt lat="52.720983" lon="06.046611"><ele>0.2</ele><time>2022-09-06T13:04:30Z</time><name>PT6697</name></trkpt>
<trkpt lat="52.720981" lon="06.046594"><ele>0.1</ele><time>2022-09-06T13:04:30Z</time><name>PT6698</name></trkpt>
<trkpt lat="52.720980" lon="06.046578"><ele>0.3</ele><time>2022-09-06T13:04:32Z</time><name>PT6699</name></trkpt>
<trkpt lat="52.720980" lon="06.046563"><ele>0.3</ele><time>2022-09-06T13:04:33Z</time><name>PT6700</name></trkpt>
<trkpt lat="52.720980" lon="06.046545"><ele>0.3</ele><time>2022-09-06T13:04:33Z</time><name>PT6701</name></trkpt>
<trkpt lat="52.720979" lon="06.046529"><ele>0.3</ele><time>2022-09-06T13:04:35Z</time><name>PT6702</name></trkpt>
<trkpt lat="52.720977" lon="06.046510"><ele>0.6</ele><time>2022-09-06T13:04:36Z</time><name>PT6703</name></trkpt>
<trkpt lat="52.720975" lon="06.046489"><ele>0.6</ele><time>2022-09-06T13:04:36Z</time><name>PT6704</name></trkpt>
<trkpt lat="52.720974" lon="06.046473"><ele>0.5</ele><time>2022-09-06T13:04:37Z</time><name>PT6705</name></trkpt>
<trkpt lat="52.720974" lon="06.046454"><ele>0.7</ele><time>2022-09-06T13:04:39Z</time><name>PT6706</name></trkpt>
<trkpt lat="52.720972" lon="06.046437"><ele>0.7</ele><time>2022-09-06T13:04:39Z</time><name>PT6707</name></trkpt>
<trkpt lat="52.720970" lon="06.046417"><ele>0.6</ele><time>2022-09-06T13:04:40Z</time><name>PT6708</name></trkpt>
<trkpt lat="52.720968" lon="06.046399"><ele>0.6</ele><time>2022-09-06T13:04:42Z</time><name>PT6709</name></trkpt>
<trkpt lat="52.720965" lon="06.046382"><ele>0.6</ele><time>2022-09-06T13:04:42Z</time><name>PT6710</name></trkpt>
<trkpt lat="52.720963" lon="06.046364"><ele>0.6</ele><time>2022-09-06T13:04:43Z</time><name>PT6711</name></trkpt>
<trkpt lat="52.720963" lon="06.046344"><ele>0.6</ele><time>2022-09-06T13:04:45Z</time><name>PT6712</name></trkpt>
<trkpt lat="52.720963" lon="06.046323"><ele>0.6</ele><time>2022-09-06T13:04:45Z</time><name>PT6713</name></trkpt>
<trkpt lat="52.720963" lon="06.046304"><ele>0.5</ele><time>2022-09-06T13:04:46Z</time><name>PT6714</name></trkpt>
<trkpt lat="52.720962" lon="06.046284"><ele>0.5</ele><time>2022-09-06T13:04:48Z</time><name>PT6715</name></trkpt>
<trkpt lat="52.720959" lon="06.046265"><ele>0.4</ele><time>2022-09-06T13:04:48Z</time><name>PT6716</name></trkpt>
<trkpt lat="52.720957" lon="06.046249"><ele>0.4</ele><time>2022-09-06T13:04:49Z</time><name>PT6717</name></trkpt>
<trkpt lat="52.720957" lon="06.046233"><ele>0.6</ele><time>2022-09-06T13:04:51Z</time><name>PT6718</name></trkpt>
<trkpt lat="52.720955" lon="06.046214"><ele>0.7</ele><time>2022-09-06T13:04:51Z</time><name>PT6719</name></trkpt>
<trkpt lat="52.720953" lon="06.046194"><ele>0.7</ele><time>2022-09-06T13:04:52Z</time><name>PT6720</name></trkpt>
<trkpt lat="52.720951" lon="06.046175"><ele>0.8</ele><time>2022-09-06T13:04:54Z</time><name>PT6721</name></trkpt>
<trkpt lat="52.720949" lon="06.046158"><ele>1</ele><time>2022-09-06T13:04:54Z</time><name>PT6722</name></trkpt>
<trkpt lat="52.720949" lon="06.046140"><ele>1.1</ele><time>2022-09-06T13:04:55Z</time><name>PT6723</name></trkpt>
<trkpt lat="52.720948" lon="06.046122"><ele>1.2</ele><time>2022-09-06T13:04:57Z</time><name>PT6724</name></trkpt>
<trkpt lat="52.720948" lon="06.046102"><ele>1.2</ele><time>2022-09-06T13:04:57Z</time><name>PT6725</name></trkpt>
<trkpt lat="52.720948" lon="06.046083"><ele>1.2</ele><time>2022-09-06T13:04:58Z</time><name>PT6726</name></trkpt>
<trkpt lat="52.720947" lon="06.046065"><ele>1.2</ele><time>2022-09-06T13:05:00Z</time><name>PT6727</name></trkpt>
<trkpt lat="52.720945" lon="06.046046"><ele>1.1</ele><time>2022-09-06T13:05:00Z</time><name>PT6728</name></trkpt>
<trkpt lat="52.720943" lon="06.046028"><ele>0.9</ele><time>2022-09-06T13:05:01Z</time><name>PT6729</name></trkpt>
<trkpt lat="52.720939" lon="06.046011"><ele>0.8</ele><time>2022-09-06T13:05:03Z</time><name>PT6730</name></trkpt>
<trkpt lat="52.720937" lon="06.045994"><ele>0.8</ele><time>2022-09-06T13:05:03Z</time><name>PT6731</name></trkpt>
<trkpt lat="52.720934" lon="06.045976"><ele>0.8</ele><time>2022-09-06T13:05:04Z</time><name>PT6732</name></trkpt>
<trkpt lat="52.720931" lon="06.045960"><ele>0.8</ele><time>2022-09-06T13:05:06Z</time><name>PT6733</name></trkpt>
<trkpt lat="52.720930" lon="06.045943"><ele>0.8</ele><time>2022-09-06T13:05:06Z</time><name>PT6734</name></trkpt>
<trkpt lat="52.720928" lon="06.045923"><ele>0.9</ele><time>2022-09-06T13:05:07Z</time><name>PT6735</name></trkpt>
<trkpt lat="52.720928" lon="06.045904"><ele>1</ele><time>2022-09-06T13:05:09Z</time><name>PT6736</name></trkpt>
<trkpt lat="52.720928" lon="06.045883"><ele>0.8</ele><time>2022-09-06T13:05:09Z</time><name>PT6737</name></trkpt>
<trkpt lat="52.720926" lon="06.045863"><ele>0.8</ele><time>2022-09-06T13:05:10Z</time><name>PT6738</name></trkpt>
<trkpt lat="52.720925" lon="06.045845"><ele>0.8</ele><time>2022-09-06T13:05:12Z</time><name>PT6739</name></trkpt>
<trkpt lat="52.720925" lon="06.045825"><ele>0.8</ele><time>2022-09-06T13:05:12Z</time><name>PT6740</name></trkpt>
<trkpt lat="52.720923" lon="06.045803"><ele>0.8</ele><time>2022-09-06T13:05:13Z</time><name>PT6741</name></trkpt>
<trkpt lat="52.720921" lon="06.045783"><ele>0.8</ele><time>2022-09-06T13:05:15Z</time><name>PT6742</name></trkpt>
<trkpt lat="52.720919" lon="06.045763"><ele>1</ele><time>2022-09-06T13:05:15Z</time><name>PT6743</name></trkpt>
<trkpt lat="52.720917" lon="06.045742"><ele>1</ele><time>2022-09-06T13:05:16Z</time><name>PT6744</name></trkpt>
<trkpt lat="52.720914" lon="06.045723"><ele>0.8</ele><time>2022-09-06T13:05:18Z</time><name>PT6745</name></trkpt>
<trkpt lat="52.720910" lon="06.045703"><ele>1.1</ele><time>2022-09-06T13:05:18Z</time><name>PT6746</name></trkpt>
<trkpt lat="52.720908" lon="06.045685"><ele>0.9</ele><time>2022-09-06T13:05:19Z</time><name>PT6747</name></trkpt>
<trkpt lat="52.720908" lon="06.045668"><ele>0.9</ele><time>2022-09-06T13:05:21Z</time><name>PT6748</name></trkpt>
<trkpt lat="52.720907" lon="06.045649"><ele>0.9</ele><time>2022-09-06T13:05:21Z</time><name>PT6749</name></trkpt>
<trkpt lat="52.720907" lon="06.045630"><ele>0.9</ele><time>2022-09-06T13:05:22Z</time><name>PT6750</name></trkpt>
<trkpt lat="52.720904" lon="06.045610"><ele>0.8</ele><time>2022-09-06T13:05:24Z</time><name>PT6751</name></trkpt>
<trkpt lat="52.720902" lon="06.045592"><ele>0.8</ele><time>2022-09-06T13:05:24Z</time><name>PT6752</name></trkpt>
<trkpt lat="52.720899" lon="06.045572"><ele>0.6</ele><time>2022-09-06T13:05:25Z</time><name>PT6753</name></trkpt>
<trkpt lat="52.720897" lon="06.045551"><ele>0.5</ele><time>2022-09-06T13:05:27Z</time><name>PT6754</name></trkpt>
<trkpt lat="52.720894" lon="06.045531"><ele>0.4</ele><time>2022-09-06T13:05:27Z</time><name>PT6755</name></trkpt>
<trkpt lat="52.720890" lon="06.045511"><ele>0.4</ele><time>2022-09-06T13:05:28Z</time><name>PT6756</name></trkpt>
<trkpt lat="52.720888" lon="06.045493"><ele>0.5</ele><time>2022-09-06T13:05:30Z</time><name>PT6757</name></trkpt>
<trkpt lat="52.720883" lon="06.045473"><ele>0.7</ele><time>2022-09-06T13:05:30Z</time><name>PT6758</name></trkpt>
<trkpt lat="52.720880" lon="06.045454"><ele>0.8</ele><time>2022-09-06T13:05:31Z</time><name>PT6759</name></trkpt>
<trkpt lat="52.720879" lon="06.045435"><ele>0.8</ele><time>2022-09-06T13:05:33Z</time><name>PT6760</name></trkpt>
<trkpt lat="52.720878" lon="06.045416"><ele>0.8</ele><time>2022-09-06T13:05:33Z</time><name>PT6761</name></trkpt>
<trkpt lat="52.720877" lon="06.045400"><ele>0.8</ele><time>2022-09-06T13:05:34Z</time><name>PT6762</name></trkpt>
<trkpt lat="52.720879" lon="06.045387"><ele>0.9</ele><time>2022-09-06T13:05:36Z</time><name>PT6763</name></trkpt>
<trkpt lat="52.720881" lon="06.045383"><ele>0.9</ele><time>2022-09-06T13:05:36Z</time><name>PT6764</name></trkpt>
<trkpt lat="52.720882" lon="06.045379"><ele>0.9</ele><time>2022-09-06T13:05:37Z</time><name>PT6765</name></trkpt>
<trkpt lat="52.720884" lon="06.045374"><ele>0.8</ele><time>2022-09-06T13:05:39Z</time><name>PT6766</name></trkpt>
<trkpt lat="52.720884" lon="06.045362"><ele>0.8</ele><time>2022-09-06T13:05:39Z</time><name>PT6767</name></trkpt>
<trkpt lat="52.720882" lon="06.045347"><ele>0.8</ele><time>2022-09-06T13:05:40Z</time><name>PT6768</name></trkpt>
<trkpt lat="52.720880" lon="06.045331"><ele>0.7</ele><time>2022-09-06T13:05:42Z</time><name>PT6769</name></trkpt>
<trkpt lat="52.720878" lon="06.045316"><ele>0.7</ele><time>2022-09-06T13:05:42Z</time><name>PT6770</name></trkpt>
<trkpt lat="52.720877" lon="06.045300"><ele>0.8</ele><time>2022-09-06T13:05:43Z</time><name>PT6771</name></trkpt>
<trkpt lat="52.720877" lon="06.045282"><ele>0.8</ele><time>2022-09-06T13:05:45Z</time><name>PT6772</name></trkpt>
<trkpt lat="52.720876" lon="06.045264"><ele>0.9</ele><time>2022-09-06T13:05:45Z</time><name>PT6773</name></trkpt>
<trkpt lat="52.720881" lon="06.045252"><ele>0.9</ele><time>2022-09-06T13:05:46Z</time><name>PT6774</name></trkpt>
<trkpt lat="52.720883" lon="06.045242"><ele>0.9</ele><time>2022-09-06T13:05:48Z</time><name>PT6775</name></trkpt>
<trkpt lat="52.720882" lon="06.045223"><ele>0.9</ele><time>2022-09-06T13:05:48Z</time><name>PT6776</name></trkpt>
<trkpt lat="52.720880" lon="06.045205"><ele>0.9</ele><time>2022-09-06T13:05:49Z</time><name>PT6777</name></trkpt>
<trkpt lat="52.720878" lon="06.045186"><ele>1</ele><time>2022-09-06T13:05:51Z</time><name>PT6778</name></trkpt>
<trkpt lat="52.720876" lon="06.045166"><ele>1.1</ele><time>2022-09-06T13:05:51Z</time><name>PT6779</name></trkpt>
<trkpt lat="52.720874" lon="06.045149"><ele>0.8</ele><time>2022-09-06T13:05:52Z</time><name>PT6780</name></trkpt>
<trkpt lat="52.720873" lon="06.045131"><ele>0.8</ele><time>2022-09-06T13:05:54Z</time><name>PT6781</name></trkpt>
<trkpt lat="52.720872" lon="06.045113"><ele>0.8</ele><time>2022-09-06T13:05:54Z</time><name>PT6782</name></trkpt>
<trkpt lat="52.720872" lon="06.045095"><ele>0.8</ele><time>2022-09-06T13:05:55Z</time><name>PT6783</name></trkpt>
<trkpt lat="52.720872" lon="06.045076"><ele>0.7</ele><time>2022-09-06T13:05:57Z</time><name>PT6784</name></trkpt>
<trkpt lat="52.720872" lon="06.045057"><ele>0.7</ele><time>2022-09-06T13:05:57Z</time><name>PT6785</name></trkpt>
<trkpt lat="52.720871" lon="06.045040"><ele>0.5</ele><time>2022-09-06T13:05:58Z</time><name>PT6786</name></trkpt>
<trkpt lat="52.720871" lon="06.045022"><ele>0.6</ele><time>2022-09-06T13:06:00Z</time><name>PT6787</name></trkpt>
<trkpt lat="52.720870" lon="06.045004"><ele>0.6</ele><time>2022-09-06T13:06:00Z</time><name>PT6788</name></trkpt>
<trkpt lat="52.720868" lon="06.044982"><ele>0.6</ele><time>2022-09-06T13:06:01Z</time><name>PT6789</name></trkpt>
<trkpt lat="52.720867" lon="06.044962"><ele>0.6</ele><time>2022-09-06T13:06:03Z</time><name>PT6790</name></trkpt>
<trkpt lat="52.720866" lon="06.044944"><ele>0.7</ele><time>2022-09-06T13:06:03Z</time><name>PT6791</name></trkpt>
<trkpt lat="52.720864" lon="06.044925"><ele>0.6</ele><time>2022-09-06T13:06:04Z</time><name>PT6792</name></trkpt>
<trkpt lat="52.720863" lon="06.044910"><ele>0.7</ele><time>2022-09-06T13:06:06Z</time><name>PT6793</name></trkpt>
<trkpt lat="52.720863" lon="06.044892"><ele>0.8</ele><time>2022-09-06T13:06:06Z</time><name>PT6794</name></trkpt>
<trkpt lat="52.720863" lon="06.044874"><ele>0.8</ele><time>2022-09-06T13:06:07Z</time><name>PT6795</name></trkpt>
<trkpt lat="52.720863" lon="06.044856"><ele>0.7</ele><time>2022-09-06T13:06:09Z</time><name>PT6796</name></trkpt>
<trkpt lat="52.720864" lon="06.044838"><ele>0.8</ele><time>2022-09-06T13:06:09Z</time><name>PT6797</name></trkpt>
<trkpt lat="52.720865" lon="06.044817"><ele>0.8</ele><time>2022-09-06T13:06:10Z</time><name>PT6798</name></trkpt>
<trkpt lat="52.720865" lon="06.044796"><ele>0.9</ele><time>2022-09-06T13:06:12Z</time><name>PT6799</name></trkpt>
<trkpt lat="52.720863" lon="06.044779"><ele>0.9</ele><time>2022-09-06T13:06:12Z</time><name>PT6800</name></trkpt>
<trkpt lat="52.720862" lon="06.044761"><ele>1</ele><time>2022-09-06T13:06:13Z</time><name>PT6801</name></trkpt>
<trkpt lat="52.720860" lon="06.044741"><ele>1.1</ele><time>2022-09-06T13:06:15Z</time><name>PT6802</name></trkpt>
<trkpt lat="52.720858" lon="06.044720"><ele>1</ele><time>2022-09-06T13:06:15Z</time><name>PT6803</name></trkpt>
<trkpt lat="52.720855" lon="06.044701"><ele>1.2</ele><time>2022-09-06T13:06:16Z</time><name>PT6804</name></trkpt>
<trkpt lat="52.720854" lon="06.044683"><ele>1.3</ele><time>2022-09-06T13:06:18Z</time><name>PT6805</name></trkpt>
<trkpt lat="52.720853" lon="06.044666"><ele>1.2</ele><time>2022-09-06T13:06:18Z</time><name>PT6806</name></trkpt>
<trkpt lat="52.720853" lon="06.044646"><ele>1.2</ele><time>2022-09-06T13:06:19Z</time><name>PT6807</name></trkpt>
<trkpt lat="52.720852" lon="06.044629"><ele>1.1</ele><time>2022-09-06T13:06:21Z</time><name>PT6808</name></trkpt>
<trkpt lat="52.720852" lon="06.044611"><ele>1</ele><time>2022-09-06T13:06:21Z</time><name>PT6809</name></trkpt>
<trkpt lat="52.720851" lon="06.044594"><ele>1.1</ele><time>2022-09-06T13:06:22Z</time><name>PT6810</name></trkpt>
<trkpt lat="52.720851" lon="06.044576"><ele>1.2</ele><time>2022-09-06T13:06:24Z</time><name>PT6811</name></trkpt>
<trkpt lat="52.720850" lon="06.044557"><ele>1.2</ele><time>2022-09-06T13:06:24Z</time><name>PT6812</name></trkpt>
<trkpt lat="52.720848" lon="06.044537"><ele>1.3</ele><time>2022-09-06T13:06:25Z</time><name>PT6813</name></trkpt>
<trkpt lat="52.720847" lon="06.044517"><ele>1.4</ele><time>2022-09-06T13:06:27Z</time><name>PT6814</name></trkpt>
<trkpt lat="52.720845" lon="06.044499"><ele>1.4</ele><time>2022-09-06T13:06:27Z</time><name>PT6815</name></trkpt>
<trkpt lat="52.720843" lon="06.044481"><ele>1.4</ele><time>2022-09-06T13:06:28Z</time><name>PT6816</name></trkpt>
<trkpt lat="52.720842" lon="06.044469"><ele>1.5</ele><time>2022-09-06T13:06:30Z</time><name>PT6817</name></trkpt>
<trkpt lat="52.720841" lon="06.044450"><ele>1.4</ele><time>2022-09-06T13:06:30Z</time><name>PT6818</name></trkpt>
<trkpt lat="52.720841" lon="06.044433"><ele>1.4</ele><time>2022-09-06T13:06:31Z</time><name>PT6819</name></trkpt>
<trkpt lat="52.720840" lon="06.044414"><ele>1.4</ele><time>2022-09-06T13:06:33Z</time><name>PT6820</name></trkpt>
<trkpt lat="52.720840" lon="06.044396"><ele>1.3</ele><time>2022-09-06T13:06:33Z</time><name>PT6821</name></trkpt>
<trkpt lat="52.720839" lon="06.044374"><ele>1.3</ele><time>2022-09-06T13:06:34Z</time><name>PT6822</name></trkpt>
<trkpt lat="52.720838" lon="06.044356"><ele>1.3</ele><time>2022-09-06T13:06:36Z</time><name>PT6823</name></trkpt>
<trkpt lat="52.720838" lon="06.044339"><ele>1.2</ele><time>2022-09-06T13:06:36Z</time><name>PT6824</name></trkpt>
<trkpt lat="52.720835" lon="06.044322"><ele>1.2</ele><time>2022-09-06T13:06:37Z</time><name>PT6825</name></trkpt>
<trkpt lat="52.720834" lon="06.044304"><ele>1.3</ele><time>2022-09-06T13:06:39Z</time><name>PT6826</name></trkpt>
<trkpt lat="52.720832" lon="06.044285"><ele>1.3</ele><time>2022-09-06T13:06:39Z</time><name>PT6827</name></trkpt>
<trkpt lat="52.720830" lon="06.044264"><ele>1.3</ele><time>2022-09-06T13:06:40Z</time><name>PT6828</name></trkpt>
<trkpt lat="52.720827" lon="06.044245"><ele>1.3</ele><time>2022-09-06T13:06:42Z</time><name>PT6829</name></trkpt>
<trkpt lat="52.720826" lon="06.044230"><ele>1.3</ele><time>2022-09-06T13:06:42Z</time><name>PT6830</name></trkpt>
<trkpt lat="52.720826" lon="06.044212"><ele>1.2</ele><time>2022-09-06T13:06:43Z</time><name>PT6831</name></trkpt>
<trkpt lat="52.720827" lon="06.044193"><ele>1.2</ele><time>2022-09-06T13:06:45Z</time><name>PT6832</name></trkpt>
<trkpt lat="52.720826" lon="06.044172"><ele>1.2</ele><time>2022-09-06T13:06:45Z</time><name>PT6833</name></trkpt>
<trkpt lat="52.720825" lon="06.044153"><ele>1.2</ele><time>2022-09-06T13:06:46Z</time><name>PT6834</name></trkpt>
<trkpt lat="52.720822" lon="06.044134"><ele>1.2</ele><time>2022-09-06T13:06:48Z</time><name>PT6835</name></trkpt>
<trkpt lat="52.720822" lon="06.044116"><ele>1.2</ele><time>2022-09-06T13:06:48Z</time><name>PT6836</name></trkpt>
<trkpt lat="52.720822" lon="06.044098"><ele>1.3</ele><time>2022-09-06T13:06:49Z</time><name>PT6837</name></trkpt>
<trkpt lat="52.720820" lon="06.044077"><ele>1.2</ele><time>2022-09-06T13:06:51Z</time><name>PT6838</name></trkpt>
<trkpt lat="52.720818" lon="06.044057"><ele>1.2</ele><time>2022-09-06T13:06:51Z</time><name>PT6839</name></trkpt>
<trkpt lat="52.720818" lon="06.044037"><ele>1.1</ele><time>2022-09-06T13:06:52Z</time><name>PT6840</name></trkpt>
<trkpt lat="52.720819" lon="06.044020"><ele>0.9</ele><time>2022-09-06T13:06:54Z</time><name>PT6841</name></trkpt>
<trkpt lat="52.720820" lon="06.044003"><ele>0.9</ele><time>2022-09-06T13:06:54Z</time><name>PT6842</name></trkpt>
<trkpt lat="52.720820" lon="06.043984"><ele>1.1</ele><time>2022-09-06T13:06:55Z</time><name>PT6843</name></trkpt>
<trkpt lat="52.720819" lon="06.043964"><ele>1.2</ele><time>2022-09-06T13:06:57Z</time><name>PT6844</name></trkpt>
<trkpt lat="52.720818" lon="06.043943"><ele>1.2</ele><time>2022-09-06T13:06:57Z</time><name>PT6845</name></trkpt>
<trkpt lat="52.720817" lon="06.043921"><ele>1.1</ele><time>2022-09-06T13:06:58Z</time><name>PT6846</name></trkpt>
<trkpt lat="52.720816" lon="06.043903"><ele>0.9</ele><time>2022-09-06T13:07:00Z</time><name>PT6847</name></trkpt>
<trkpt lat="52.720816" lon="06.043886"><ele>0.8</ele><time>2022-09-06T13:07:00Z</time><name>PT6848</name></trkpt>
<trkpt lat="52.720815" lon="06.043867"><ele>0.6</ele><time>2022-09-06T13:07:01Z</time><name>PT6849</name></trkpt>
<trkpt lat="52.720813" lon="06.043847"><ele>0.6</ele><time>2022-09-06T13:07:03Z</time><name>PT6850</name></trkpt>
<trkpt lat="52.720812" lon="06.043826"><ele>0.6</ele><time>2022-09-06T13:07:03Z</time><name>PT6851</name></trkpt>
<trkpt lat="52.720810" lon="06.043807"><ele>0.7</ele><time>2022-09-06T13:07:04Z</time><name>PT6852</name></trkpt>
<trkpt lat="52.720808" lon="06.043786"><ele>0.8</ele><time>2022-09-06T13:07:06Z</time><name>PT6853</name></trkpt>
<trkpt lat="52.720808" lon="06.043768"><ele>0.8</ele><time>2022-09-06T13:07:06Z</time><name>PT6854</name></trkpt>
<trkpt lat="52.720807" lon="06.043748"><ele>0.9</ele><time>2022-09-06T13:07:07Z</time><name>PT6855</name></trkpt>
<trkpt lat="52.720807" lon="06.043728"><ele>0.9</ele><time>2022-09-06T13:07:09Z</time><name>PT6856</name></trkpt>
<trkpt lat="52.720807" lon="06.043710"><ele>0.8</ele><time>2022-09-06T13:07:09Z</time><name>PT6857</name></trkpt>
<trkpt lat="52.720806" lon="06.043688"><ele>0.8</ele><time>2022-09-06T13:07:10Z</time><name>PT6858</name></trkpt>
<trkpt lat="52.720805" lon="06.043669"><ele>0.8</ele><time>2022-09-06T13:07:12Z</time><name>PT6859</name></trkpt>
<trkpt lat="52.720803" lon="06.043651"><ele>0.8</ele><time>2022-09-06T13:07:12Z</time><name>PT6860</name></trkpt>
<trkpt lat="52.720803" lon="06.043629"><ele>0.7</ele><time>2022-09-06T13:07:13Z</time><name>PT6861</name></trkpt>
<trkpt lat="52.720802" lon="06.043608"><ele>0.6</ele><time>2022-09-06T13:07:15Z</time><name>PT6862</name></trkpt>
<trkpt lat="52.720800" lon="06.043586"><ele>0.7</ele><time>2022-09-06T13:07:15Z</time><name>PT6863</name></trkpt>
<trkpt lat="52.720798" lon="06.043565"><ele>0.8</ele><time>2022-09-06T13:07:16Z</time><name>PT6864</name></trkpt>
<trkpt lat="52.720798" lon="06.043544"><ele>0.8</ele><time>2022-09-06T13:07:18Z</time><name>PT6865</name></trkpt>
<trkpt lat="52.720797" lon="06.043525"><ele>0.9</ele><time>2022-09-06T13:07:18Z</time><name>PT6866</name></trkpt>
<trkpt lat="52.720795" lon="06.043508"><ele>1</ele><time>2022-09-06T13:07:19Z</time><name>PT6867</name></trkpt>
<trkpt lat="52.720795" lon="06.043490"><ele>1</ele><time>2022-09-06T13:07:21Z</time><name>PT6868</name></trkpt>
<trkpt lat="52.720794" lon="06.043471"><ele>1.1</ele><time>2022-09-06T13:07:21Z</time><name>PT6869</name></trkpt>
<trkpt lat="52.720793" lon="06.043450"><ele>0.9</ele><time>2022-09-06T13:07:22Z</time><name>PT6870</name></trkpt>
<trkpt lat="52.720792" lon="06.043431"><ele>0.8</ele><time>2022-09-06T13:07:24Z</time><name>PT6871</name></trkpt>
<trkpt lat="52.720792" lon="06.043412"><ele>0.9</ele><time>2022-09-06T13:07:24Z</time><name>PT6872</name></trkpt>
<trkpt lat="52.720791" lon="06.043397"><ele>1</ele><time>2022-09-06T13:07:25Z</time><name>PT6873</name></trkpt>
<trkpt lat="52.720791" lon="06.043381"><ele>1</ele><time>2022-09-06T13:07:27Z</time><name>PT6874</name></trkpt>
<trkpt lat="52.720790" lon="06.043361"><ele>1.1</ele><time>2022-09-06T13:07:27Z</time><name>PT6875</name></trkpt>
<trkpt lat="52.720788" lon="06.043341"><ele>1.3</ele><time>2022-09-06T13:07:28Z</time><name>PT6876</name></trkpt>
<trkpt lat="52.720787" lon="06.043321"><ele>1.3</ele><time>2022-09-06T13:07:30Z</time><name>PT6877</name></trkpt>
<trkpt lat="52.720785" lon="06.043302"><ele>1.3</ele><time>2022-09-06T13:07:30Z</time><name>PT6878</name></trkpt>
<trkpt lat="52.720784" lon="06.043285"><ele>1.3</ele><time>2022-09-06T13:07:31Z</time><name>PT6879</name></trkpt>
<trkpt lat="52.720784" lon="06.043267"><ele>1.2</ele><time>2022-09-06T13:07:33Z</time><name>PT6880</name></trkpt>
<trkpt lat="52.720784" lon="06.043247"><ele>1.1</ele><time>2022-09-06T13:07:33Z</time><name>PT6881</name></trkpt>
<trkpt lat="52.720784" lon="06.043229"><ele>1.2</ele><time>2022-09-06T13:07:34Z</time><name>PT6882</name></trkpt>
<trkpt lat="52.720785" lon="06.043210"><ele>1.2</ele><time>2022-09-06T13:07:36Z</time><name>PT6883</name></trkpt>
<trkpt lat="52.720785" lon="06.043191"><ele>1.2</ele><time>2022-09-06T13:07:36Z</time><name>PT6884</name></trkpt>
<trkpt lat="52.720784" lon="06.043170"><ele>1.3</ele><time>2022-09-06T13:07:37Z</time><name>PT6885</name></trkpt>
<trkpt lat="52.720784" lon="06.043150"><ele>1.2</ele><time>2022-09-06T13:07:39Z</time><name>PT6886</name></trkpt>
<trkpt lat="52.720783" lon="06.043128"><ele>1.2</ele><time>2022-09-06T13:07:39Z</time><name>PT6887</name></trkpt>
<trkpt lat="52.720782" lon="06.043109"><ele>1.2</ele><time>2022-09-06T13:07:40Z</time><name>PT6888</name></trkpt>
<trkpt lat="52.720779" lon="06.043090"><ele>1.2</ele><time>2022-09-06T13:07:42Z</time><name>PT6889</name></trkpt>
<trkpt lat="52.720776" lon="06.043072"><ele>1.2</ele><time>2022-09-06T13:07:42Z</time><name>PT6890</name></trkpt>
<trkpt lat="52.720774" lon="06.043054"><ele>1.4</ele><time>2022-09-06T13:07:43Z</time><name>PT6891</name></trkpt>
<trkpt lat="52.720773" lon="06.043036"><ele>1.2</ele><time>2022-09-06T13:07:45Z</time><name>PT6892</name></trkpt>
<trkpt lat="52.720770" lon="06.043017"><ele>1.2</ele><time>2022-09-06T13:07:45Z</time><name>PT6893</name></trkpt>
<trkpt lat="52.720768" lon="06.042998"><ele>1.2</ele><time>2022-09-06T13:07:46Z</time><name>PT6894</name></trkpt>
<trkpt lat="52.720768" lon="06.042981"><ele>1</ele><time>2022-09-06T13:07:48Z</time><name>PT6895</name></trkpt>
<trkpt lat="52.720767" lon="06.042961"><ele>0.8</ele><time>2022-09-06T13:07:48Z</time><name>PT6896</name></trkpt>
<trkpt lat="52.720765" lon="06.042941"><ele>0.8</ele><time>2022-09-06T13:07:49Z</time><name>PT6897</name></trkpt>
<trkpt lat="52.720764" lon="06.042920"><ele>0.8</ele><time>2022-09-06T13:07:51Z</time><name>PT6898</name></trkpt>
<trkpt lat="52.720763" lon="06.042900"><ele>0.8</ele><time>2022-09-06T13:07:51Z</time><name>PT6899</name></trkpt>
<trkpt lat="52.720762" lon="06.042882"><ele>0.7</ele><time>2022-09-06T13:07:52Z</time><name>PT6900</name></trkpt>
<trkpt lat="52.720761" lon="06.042864"><ele>0.8</ele><time>2022-09-06T13:07:54Z</time><name>PT6901</name></trkpt>
<trkpt lat="52.720759" lon="06.042842"><ele>0.8</ele><time>2022-09-06T13:07:54Z</time><name>PT6902</name></trkpt>
<trkpt lat="52.720757" lon="06.042822"><ele>1</ele><time>2022-09-06T13:07:55Z</time><name>PT6903</name></trkpt>
<trkpt lat="52.720755" lon="06.042801"><ele>1.1</ele><time>2022-09-06T13:07:57Z</time><name>PT6904</name></trkpt>
<trkpt lat="52.720753" lon="06.042782"><ele>1.2</ele><time>2022-09-06T13:07:57Z</time><name>PT6905</name></trkpt>
<trkpt lat="52.720752" lon="06.042761"><ele>1.2</ele><time>2022-09-06T13:07:58Z</time><name>PT6906</name></trkpt>
<trkpt lat="52.720751" lon="06.042742"><ele>1.2</ele><time>2022-09-06T13:08:00Z</time><name>PT6907</name></trkpt>
<trkpt lat="52.720749" lon="06.042723"><ele>1.1</ele><time>2022-09-06T13:08:00Z</time><name>PT6908</name></trkpt>
<trkpt lat="52.720748" lon="06.042706"><ele>1</ele><time>2022-09-06T13:08:01Z</time><name>PT6909</name></trkpt>
<trkpt lat="52.720747" lon="06.042686"><ele>1</ele><time>2022-09-06T13:08:03Z</time><name>PT6910</name></trkpt>
<trkpt lat="52.720745" lon="06.042665"><ele>1.1</ele><time>2022-09-06T13:08:03Z</time><name>PT6911</name></trkpt>
<trkpt lat="52.720744" lon="06.042645"><ele>1.1</ele><time>2022-09-06T13:08:04Z</time><name>PT6912</name></trkpt>
<trkpt lat="52.720744" lon="06.042622"><ele>1.1</ele><time>2022-09-06T13:08:06Z</time><name>PT6913</name></trkpt>
<trkpt lat="52.720743" lon="06.042602"><ele>1.2</ele><time>2022-09-06T13:08:06Z</time><name>PT6914</name></trkpt>
<trkpt lat="52.720742" lon="06.042584"><ele>1.2</ele><time>2022-09-06T13:08:07Z</time><name>PT6915</name></trkpt>
<trkpt lat="52.720740" lon="06.042565"><ele>1</ele><time>2022-09-06T13:08:09Z</time><name>PT6916</name></trkpt>
<trkpt lat="52.720738" lon="06.042546"><ele>1</ele><time>2022-09-06T13:08:09Z</time><name>PT6917</name></trkpt>
<trkpt lat="52.720735" lon="06.042527"><ele>1.2</ele><time>2022-09-06T13:08:10Z</time><name>PT6918</name></trkpt>
<trkpt lat="52.720732" lon="06.042508"><ele>1.1</ele><time>2022-09-06T13:08:12Z</time><name>PT6919</name></trkpt>
<trkpt lat="52.720730" lon="06.042490"><ele>1.2</ele><time>2022-09-06T13:08:12Z</time><name>PT6920</name></trkpt>
<trkpt lat="52.720729" lon="06.042473"><ele>1.3</ele><time>2022-09-06T13:08:13Z</time><name>PT6921</name></trkpt>
<trkpt lat="52.720728" lon="06.042453"><ele>1.2</ele><time>2022-09-06T13:08:15Z</time><name>PT6922</name></trkpt>
<trkpt lat="52.720727" lon="06.042434"><ele>1.2</ele><time>2022-09-06T13:08:15Z</time><name>PT6923</name></trkpt>
<trkpt lat="52.720726" lon="06.042415"><ele>1.1</ele><time>2022-09-06T13:08:16Z</time><name>PT6924</name></trkpt>
<trkpt lat="52.720726" lon="06.042396"><ele>0.9</ele><time>2022-09-06T13:08:18Z</time><name>PT6925</name></trkpt>
<trkpt lat="52.720726" lon="06.042377"><ele>1</ele><time>2022-09-06T13:08:18Z</time><name>PT6926</name></trkpt>
<trkpt lat="52.720725" lon="06.042358"><ele>0.9</ele><time>2022-09-06T13:08:19Z</time><name>PT6927</name></trkpt>
<trkpt lat="52.720724" lon="06.042341"><ele>0.9</ele><time>2022-09-06T13:08:21Z</time><name>PT6928</name></trkpt>
<trkpt lat="52.720724" lon="06.042323"><ele>1</ele><time>2022-09-06T13:08:21Z</time><name>PT6929</name></trkpt>
<trkpt lat="52.720722" lon="06.042303"><ele>1.1</ele><time>2022-09-06T13:08:22Z</time><name>PT6930</name></trkpt>
<trkpt lat="52.720721" lon="06.042286"><ele>1.2</ele><time>2022-09-06T13:08:24Z</time><name>PT6931</name></trkpt>
<trkpt lat="52.720720" lon="06.042266"><ele>1.1</ele><time>2022-09-06T13:08:24Z</time><name>PT6932</name></trkpt>
<trkpt lat="52.720718" lon="06.042245"><ele>1</ele><time>2022-09-06T13:08:25Z</time><name>PT6933</name></trkpt>
<trkpt lat="52.720717" lon="06.042226"><ele>0.8</ele><time>2022-09-06T13:08:27Z</time><name>PT6934</name></trkpt>
<trkpt lat="52.720716" lon="06.042209"><ele>0.9</ele><time>2022-09-06T13:08:27Z</time><name>PT6935</name></trkpt>
<trkpt lat="52.720716" lon="06.042189"><ele>0.8</ele><time>2022-09-06T13:08:28Z</time><name>PT6936</name></trkpt>
<trkpt lat="52.720716" lon="06.042171"><ele>0.8</ele><time>2022-09-06T13:08:30Z</time><name>PT6937</name></trkpt>
<trkpt lat="52.720716" lon="06.042153"><ele>0.7</ele><time>2022-09-06T13:08:30Z</time><name>PT6938</name></trkpt>
<trkpt lat="52.720718" lon="06.042136"><ele>0.8</ele><time>2022-09-06T13:08:31Z</time><name>PT6939</name></trkpt>
<trkpt lat="52.720719" lon="06.042118"><ele>0.8</ele><time>2022-09-06T13:08:33Z</time><name>PT6940</name></trkpt>
<trkpt lat="52.720717" lon="06.042101"><ele>0.8</ele><time>2022-09-06T13:08:33Z</time><name>PT6941</name></trkpt>
<trkpt lat="52.720716" lon="06.042084"><ele>1</ele><time>2022-09-06T13:08:34Z</time><name>PT6942</name></trkpt>
<trkpt lat="52.720715" lon="06.042066"><ele>1.2</ele><time>2022-09-06T13:08:36Z</time><name>PT6943</name></trkpt>
<trkpt lat="52.720713" lon="06.042044"><ele>1.2</ele><time>2022-09-06T13:08:36Z</time><name>PT6944</name></trkpt>
<trkpt lat="52.720711" lon="06.042025"><ele>1.2</ele><time>2022-09-06T13:08:37Z</time><name>PT6945</name></trkpt>
<trkpt lat="52.720709" lon="06.042006"><ele>1.2</ele><time>2022-09-06T13:08:39Z</time><name>PT6946</name></trkpt>
<trkpt lat="52.720709" lon="06.041988"><ele>1.1</ele><time>2022-09-06T13:08:39Z</time><name>PT6947</name></trkpt>
<trkpt lat="52.720708" lon="06.041972"><ele>1</ele><time>2022-09-06T13:08:40Z</time><name>PT6948</name></trkpt>
<trkpt lat="52.720708" lon="06.041957"><ele>0.9</ele><time>2022-09-06T13:08:42Z</time><name>PT6949</name></trkpt>
<trkpt lat="52.720708" lon="06.041938"><ele>0.9</ele><time>2022-09-06T13:08:42Z</time><name>PT6950</name></trkpt>
<trkpt lat="52.720709" lon="06.041918"><ele>1.1</ele><time>2022-09-06T13:08:43Z</time><name>PT6951</name></trkpt>
<trkpt lat="52.720708" lon="06.041900"><ele>0.8</ele><time>2022-09-06T13:08:45Z</time><name>PT6952</name></trkpt>
<trkpt lat="52.720707" lon="06.041882"><ele>0.9</ele><time>2022-09-06T13:08:45Z</time><name>PT6953</name></trkpt>
<trkpt lat="52.720706" lon="06.041862"><ele>0.8</ele><time>2022-09-06T13:08:46Z</time><name>PT6954</name></trkpt>
<trkpt lat="52.720707" lon="06.041843"><ele>0.7</ele><time>2022-09-06T13:08:48Z</time><name>PT6955</name></trkpt>
<trkpt lat="52.720706" lon="06.041824"><ele>0.6</ele><time>2022-09-06T13:08:48Z</time><name>PT6956</name></trkpt>
<trkpt lat="52.720705" lon="06.041804"><ele>0.7</ele><time>2022-09-06T13:08:49Z</time><name>PT6957</name></trkpt>
<trkpt lat="52.720703" lon="06.041785"><ele>0.7</ele><time>2022-09-06T13:08:51Z</time><name>PT6958</name></trkpt>
<trkpt lat="52.720701" lon="06.041766"><ele>0.7</ele><time>2022-09-06T13:08:51Z</time><name>PT6959</name></trkpt>
<trkpt lat="52.720701" lon="06.041749"><ele>0.6</ele><time>2022-09-06T13:08:52Z</time><name>PT6960</name></trkpt>
<trkpt lat="52.720702" lon="06.041732"><ele>0.4</ele><time>2022-09-06T13:08:54Z</time><name>PT6961</name></trkpt>
<trkpt lat="52.720702" lon="06.041714"><ele>0.7</ele><time>2022-09-06T13:08:54Z</time><name>PT6962</name></trkpt>
<trkpt lat="52.720702" lon="06.041695"><ele>0.6</ele><time>2022-09-06T13:08:55Z</time><name>PT6963</name></trkpt>
<trkpt lat="52.720703" lon="06.041676"><ele>0.8</ele><time>2022-09-06T13:08:57Z</time><name>PT6964</name></trkpt>
<trkpt lat="52.720703" lon="06.041657"><ele>0.8</ele><time>2022-09-06T13:08:57Z</time><name>PT6965</name></trkpt>
<trkpt lat="52.720703" lon="06.041637"><ele>0.9</ele><time>2022-09-06T13:08:58Z</time><name>PT6966</name></trkpt>
<trkpt lat="52.720702" lon="06.041618"><ele>0.8</ele><time>2022-09-06T13:09:00Z</time><name>PT6967</name></trkpt>
<trkpt lat="52.720702" lon="06.041599"><ele>0.8</ele><time>2022-09-06T13:09:00Z</time><name>PT6968</name></trkpt>
<trkpt lat="52.720700" lon="06.041582"><ele>0.7</ele><time>2022-09-06T13:09:01Z</time><name>PT6969</name></trkpt>
<trkpt lat="52.720699" lon="06.041563"><ele>0.7</ele><time>2022-09-06T13:09:03Z</time><name>PT6970</name></trkpt>
<trkpt lat="52.720698" lon="06.041544"><ele>0.7</ele><time>2022-09-06T13:09:03Z</time><name>PT6971</name></trkpt>
<trkpt lat="52.720697" lon="06.041530"><ele>0.6</ele><time>2022-09-06T13:09:04Z</time><name>PT6972</name></trkpt>
<trkpt lat="52.720696" lon="06.041514"><ele>0.7</ele><time>2022-09-06T13:09:06Z</time><name>PT6973</name></trkpt>
<trkpt lat="52.720696" lon="06.041494"><ele>0.8</ele><time>2022-09-06T13:09:06Z</time><name>PT6974</name></trkpt>
<trkpt lat="52.720695" lon="06.041477"><ele>1</ele><time>2022-09-06T13:09:07Z</time><name>PT6975</name></trkpt>
<trkpt lat="52.720695" lon="06.041457"><ele>1</ele><time>2022-09-06T13:09:08Z</time><name>PT6976</name></trkpt>
<trkpt lat="52.720695" lon="06.041437"><ele>1.1</ele><time>2022-09-06T13:09:09Z</time><name>PT6977</name></trkpt>
<trkpt lat="52.720695" lon="06.041419"><ele>1.1</ele><time>2022-09-06T13:09:10Z</time><name>PT6978</name></trkpt>
<trkpt lat="52.720694" lon="06.041397"><ele>1</ele><time>2022-09-06T13:09:12Z</time><name>PT6979</name></trkpt>
<trkpt lat="52.720694" lon="06.041377"><ele>0.8</ele><time>2022-09-06T13:09:12Z</time><name>PT6980</name></trkpt>
<trkpt lat="52.720693" lon="06.041356"><ele>0.8</ele><time>2022-09-06T13:09:13Z</time><name>PT6981</name></trkpt>
<trkpt lat="52.720692" lon="06.041335"><ele>0.7</ele><time>2022-09-06T13:09:15Z</time><name>PT6982</name></trkpt>
<trkpt lat="52.720689" lon="06.041316"><ele>0.8</ele><time>2022-09-06T13:09:15Z</time><name>PT6983</name></trkpt>
<trkpt lat="52.720688" lon="06.041295"><ele>0.7</ele><time>2022-09-06T13:09:16Z</time><name>PT6984</name></trkpt>
<trkpt lat="52.720686" lon="06.041278"><ele>0.8</ele><time>2022-09-06T13:09:18Z</time><name>PT6985</name></trkpt>
<trkpt lat="52.720685" lon="06.041260"><ele>0.8</ele><time>2022-09-06T13:09:18Z</time><name>PT6986</name></trkpt>
<trkpt lat="52.720684" lon="06.041242"><ele>0.6</ele><time>2022-09-06T13:09:19Z</time><name>PT6987</name></trkpt>
<trkpt lat="52.720684" lon="06.041223"><ele>0.6</ele><time>2022-09-06T13:09:21Z</time><name>PT6988</name></trkpt>
<trkpt lat="52.720683" lon="06.041205"><ele>0.7</ele><time>2022-09-06T13:09:21Z</time><name>PT6989</name></trkpt>
<trkpt lat="52.720684" lon="06.041184"><ele>0.8</ele><time>2022-09-06T13:09:22Z</time><name>PT6990</name></trkpt>
<trkpt lat="52.720683" lon="06.041165"><ele>0.9</ele><time>2022-09-06T13:09:24Z</time><name>PT6991</name></trkpt>
<trkpt lat="52.720683" lon="06.041148"><ele>0.9</ele><time>2022-09-06T13:09:24Z</time><name>PT6992</name></trkpt>
<trkpt lat="52.720681" lon="06.041129"><ele>1</ele><time>2022-09-06T13:09:25Z</time><name>PT6993</name></trkpt>
<trkpt lat="52.720679" lon="06.041109"><ele>0.9</ele><time>2022-09-06T13:09:27Z</time><name>PT6994</name></trkpt>
<trkpt lat="52.720677" lon="06.041090"><ele>0.9</ele><time>2022-09-06T13:09:27Z</time><name>PT6995</name></trkpt>
<trkpt lat="52.720674" lon="06.041072"><ele>1</ele><time>2022-09-06T13:09:28Z</time><name>PT6996</name></trkpt>
<trkpt lat="52.720673" lon="06.041056"><ele>0.8</ele><time>2022-09-06T13:09:30Z</time><name>PT6997</name></trkpt>
<trkpt lat="52.720672" lon="06.041037"><ele>0.8</ele><time>2022-09-06T13:09:30Z</time><name>PT6998</name></trkpt>
<trkpt lat="52.720670" lon="06.041017"><ele>0.8</ele><time>2022-09-06T13:09:31Z</time><name>PT6999</name></trkpt>
<trkpt lat="52.720668" lon="06.040996"><ele>0.8</ele><time>2022-09-06T13:09:33Z</time><name>PT7000</name></trkpt>
<trkpt lat="52.720667" lon="06.040978"><ele>0.7</ele><time>2022-09-06T13:09:33Z</time><name>PT7001</name></trkpt>
<trkpt lat="52.720665" lon="06.040962"><ele>0.7</ele><time>2022-09-06T13:09:34Z</time><name>PT7002</name></trkpt>
<trkpt lat="52.720662" lon="06.040945"><ele>0.8</ele><time>2022-09-06T13:09:36Z</time><name>PT7003</name></trkpt>
<trkpt lat="52.720658" lon="06.040928"><ele>0.8</ele><time>2022-09-06T13:09:36Z</time><name>PT7004</name></trkpt>
<trkpt lat="52.720656" lon="06.040911"><ele>0.8</ele><time>2022-09-06T13:09:37Z</time><name>PT7005</name></trkpt>
<trkpt lat="52.720652" lon="06.040895"><ele>1</ele><time>2022-09-06T13:09:39Z</time><name>PT7006</name></trkpt>
<trkpt lat="52.720649" lon="06.040879"><ele>1.1</ele><time>2022-09-06T13:09:39Z</time><name>PT7007</name></trkpt>
<trkpt lat="52.720646" lon="06.040862"><ele>0.8</ele><time>2022-09-06T13:09:40Z</time><name>PT7008</name></trkpt>
<trkpt lat="52.720643" lon="06.040843"><ele>0.8</ele><time>2022-09-06T13:09:42Z</time><name>PT7009</name></trkpt>
<trkpt lat="52.720642" lon="06.040827"><ele>0.8</ele><time>2022-09-06T13:09:42Z</time><name>PT7010</name></trkpt>
<trkpt lat="52.720639" lon="06.040810"><ele>0.8</ele><time>2022-09-06T13:09:43Z</time><name>PT7011</name></trkpt>
<trkpt lat="52.720636" lon="06.040791"><ele>0.7</ele><time>2022-09-06T13:09:45Z</time><name>PT7012</name></trkpt>
<trkpt lat="52.720633" lon="06.040775"><ele>0.9</ele><time>2022-09-06T13:09:45Z</time><name>PT7013</name></trkpt>
<trkpt lat="52.720630" lon="06.040757"><ele>1</ele><time>2022-09-06T13:09:47Z</time><name>PT7014</name></trkpt>
<trkpt lat="52.720629" lon="06.040740"><ele>1</ele><time>2022-09-06T13:09:48Z</time><name>PT7015</name></trkpt>
<trkpt lat="52.720628" lon="06.040722"><ele>1.1</ele><time>2022-09-06T13:09:48Z</time><name>PT7016</name></trkpt>
<trkpt lat="52.720626" lon="06.040707"><ele>1.2</ele><time>2022-09-06T13:09:49Z</time><name>PT7017</name></trkpt>
<trkpt lat="52.720624" lon="06.040692"><ele>1.2</ele><time>2022-09-06T13:09:51Z</time><name>PT7018</name></trkpt>
<trkpt lat="52.720621" lon="06.040676"><ele>1.1</ele><time>2022-09-06T13:09:51Z</time><name>PT7019</name></trkpt>
<trkpt lat="52.720619" lon="06.040662"><ele>1.2</ele><time>2022-09-06T13:09:52Z</time><name>PT7020</name></trkpt>
<trkpt lat="52.720617" lon="06.040645"><ele>1</ele><time>2022-09-06T13:09:54Z</time><name>PT7021</name></trkpt>
<trkpt lat="52.720617" lon="06.040631"><ele>0.8</ele><time>2022-09-06T13:09:54Z</time><name>PT7022</name></trkpt>
<trkpt lat="52.720617" lon="06.040620"><ele>0.8</ele><time>2022-09-06T13:09:55Z</time><name>PT7023</name></trkpt>
<trkpt lat="52.720615" lon="06.040609"><ele>0.8</ele><time>2022-09-06T13:09:57Z</time><name>PT7024</name></trkpt>
<trkpt lat="52.720614" lon="06.040597"><ele>0.8</ele><time>2022-09-06T13:09:57Z</time><name>PT7025</name></trkpt>
<trkpt lat="52.720614" lon="06.040583"><ele>0.9</ele><time>2022-09-06T13:09:58Z</time><name>PT7026</name></trkpt>
<trkpt lat="52.720613" lon="06.040572"><ele>1.2</ele><time>2022-09-06T13:10:00Z</time><name>PT7027</name></trkpt>
<trkpt lat="52.720610" lon="06.040556"><ele>1.1</ele><time>2022-09-06T13:10:00Z</time><name>PT7028</name></trkpt>
<trkpt lat="52.720608" lon="06.040542"><ele>1</ele><time>2022-09-06T13:10:01Z</time><name>PT7029</name></trkpt>
<trkpt lat="52.720608" lon="06.040527"><ele>0.9</ele><time>2022-09-06T13:10:03Z</time><name>PT7030</name></trkpt>
<trkpt lat="52.720608" lon="06.040510"><ele>0.9</ele><time>2022-09-06T13:10:03Z</time><name>PT7031</name></trkpt>
<trkpt lat="52.720607" lon="06.040496"><ele>0.8</ele><time>2022-09-06T13:10:04Z</time><name>PT7032</name></trkpt>
<trkpt lat="52.720605" lon="06.040479"><ele>1</ele><time>2022-09-06T13:10:06Z</time><name>PT7033</name></trkpt>
<trkpt lat="52.720603" lon="06.040465"><ele>0.9</ele><time>2022-09-06T13:10:06Z</time><name>PT7034</name></trkpt>
<trkpt lat="52.720601" lon="06.040450"><ele>1</ele><time>2022-09-06T13:10:07Z</time><name>PT7035</name></trkpt>
<trkpt lat="52.720602" lon="06.040437"><ele>1.2</ele><time>2022-09-06T13:10:09Z</time><name>PT7036</name></trkpt>
<trkpt lat="52.720601" lon="06.040424"><ele>1.2</ele><time>2022-09-06T13:10:09Z</time><name>PT7037</name></trkpt>
<trkpt lat="52.720599" lon="06.040414"><ele>1.2</ele><time>2022-09-06T13:10:10Z</time><name>PT7038</name></trkpt>
<trkpt lat="52.720597" lon="06.040407"><ele>1.1</ele><time>2022-09-06T13:10:12Z</time><name>PT7039</name></trkpt>
<trkpt lat="52.720596" lon="06.040400"><ele>1.2</ele><time>2022-09-06T13:10:12Z</time><name>PT7040</name></trkpt>
<trkpt lat="52.720595" lon="06.040396"><ele>1.1</ele><time>2022-09-06T13:10:13Z</time><name>PT7041</name></trkpt>
<trkpt lat="52.720595" lon="06.040397"><ele>1</ele><time>2022-09-06T13:10:15Z</time><name>PT7042</name></trkpt>
<trkpt lat="52.720595" lon="06.040397"><ele>1</ele><time>2022-09-06T13:10:15Z</time><name>PT7043</name></trkpt>
<trkpt lat="52.720598" lon="06.040398"><ele>1</ele><time>2022-09-06T13:10:19Z</time><name>PT7044</name></trkpt>
<trkpt lat="52.720598" lon="06.040400"><ele>0.9</ele><time>2022-09-06T13:10:21Z</time><name>PT7045</name></trkpt>
<trkpt lat="52.720598" lon="06.040400"><ele>1</ele><time>2022-09-06T13:10:21Z</time><name>PT7046</name></trkpt>
<trkpt lat="52.720599" lon="06.040407"><ele>1</ele><time>2022-09-06T13:10:30Z</time><name>PT7047</name></trkpt>
<trkpt lat="52.720606" lon="06.040419"><ele>1.1</ele><time>2022-09-06T13:10:30Z</time><name>PT7048</name></trkpt>
<trkpt lat="52.720611" lon="06.040427"><ele>1</ele><time>2022-09-06T13:10:31Z</time><name>PT7049</name></trkpt>
<trkpt lat="52.720617" lon="06.040433"><ele>1</ele><time>2022-09-06T13:10:33Z</time><name>PT7050</name></trkpt>
<trkpt lat="52.720620" lon="06.040434"><ele>0.9</ele><time>2022-09-06T13:10:33Z</time><name>PT7051</name></trkpt>
<trkpt lat="52.720623" lon="06.040432"><ele>1</ele><time>2022-09-06T13:10:34Z</time><name>PT7052</name></trkpt>
<trkpt lat="52.720630" lon="06.040430"><ele>1</ele><time>2022-09-06T13:10:36Z</time><name>PT7053</name></trkpt>
<trkpt lat="52.720630" lon="06.040427"><ele>1.1</ele><time>2022-09-06T13:10:36Z</time><name>PT7054</name></trkpt>
<trkpt lat="52.720628" lon="06.040423"><ele>1.2</ele><time>2022-09-06T13:10:37Z</time><name>PT7055</name></trkpt>
<trkpt lat="52.720628" lon="06.040427"><ele>1.2</ele><time>2022-09-06T13:11:00Z</time><name>PT7056</name></trkpt>
<trkpt lat="52.720625" lon="06.040425"><ele>1.2</ele><time>2022-09-06T13:11:00Z</time><name>PT7057</name></trkpt>
<trkpt lat="52.720624" lon="06.040424"><ele>1.2</ele><time>2022-09-06T13:11:01Z</time><name>PT7058</name></trkpt>
<trkpt lat="52.720623" lon="06.040420"><ele>1.2</ele><time>2022-09-06T13:11:09Z</time><name>PT7059</name></trkpt>
<trkpt lat="52.720621" lon="06.040406"><ele>1.1</ele><time>2022-09-06T13:11:09Z</time><name>PT7060</name></trkpt>
<trkpt lat="52.720617" lon="06.040388"><ele>1</ele><time>2022-09-06T13:11:10Z</time><name>PT7061</name></trkpt>
<trkpt lat="52.720614" lon="06.040372"><ele>1</ele><time>2022-09-06T13:11:12Z</time><name>PT7062</name></trkpt>
<trkpt lat="52.720611" lon="06.040354"><ele>1.2</ele><time>2022-09-06T13:11:12Z</time><name>PT7063</name></trkpt>
<trkpt lat="52.720608" lon="06.040338"><ele>1.2</ele><time>2022-09-06T13:11:13Z</time><name>PT7064</name></trkpt>
<trkpt lat="52.720607" lon="06.040320"><ele>1.3</ele><time>2022-09-06T13:11:15Z</time><name>PT7065</name></trkpt>
<trkpt lat="52.720604" lon="06.040304"><ele>1.3</ele><time>2022-09-06T13:11:15Z</time><name>PT7066</name></trkpt>
<trkpt lat="52.720599" lon="06.040289"><ele>1.3</ele><time>2022-09-06T13:11:16Z</time><name>PT7067</name></trkpt>
<trkpt lat="52.720593" lon="06.040271"><ele>1.2</ele><time>2022-09-06T13:11:18Z</time><name>PT7068</name></trkpt>
<trkpt lat="52.720586" lon="06.040253"><ele>1.2</ele><time>2022-09-06T13:11:18Z</time><name>PT7069</name></trkpt>
<trkpt lat="52.720580" lon="06.040239"><ele>1.2</ele><time>2022-09-06T13:11:19Z</time><name>PT7070</name></trkpt>
<trkpt lat="52.720574" lon="06.040221"><ele>1</ele><time>2022-09-06T13:11:21Z</time><name>PT7071</name></trkpt>
<trkpt lat="52.720570" lon="06.040208"><ele>1.1</ele><time>2022-09-06T13:11:21Z</time><name>PT7072</name></trkpt>
<trkpt lat="52.720566" lon="06.040191"><ele>1</ele><time>2022-09-06T13:11:22Z</time><name>PT7073</name></trkpt>
<trkpt lat="52.720564" lon="06.040174"><ele>1.2</ele><time>2022-09-06T13:11:24Z</time><name>PT7074</name></trkpt>
<trkpt lat="52.720563" lon="06.040156"><ele>1</ele><time>2022-09-06T13:11:24Z</time><name>PT7075</name></trkpt>
<trkpt lat="52.720562" lon="06.040140"><ele>1.3</ele><time>2022-09-06T13:11:25Z</time><name>PT7076</name></trkpt>
<trkpt lat="52.720560" lon="06.040125"><ele>1.3</ele><time>2022-09-06T13:11:27Z</time><name>PT7077</name></trkpt>
<trkpt lat="52.720558" lon="06.040112"><ele>1.3</ele><time>2022-09-06T13:11:27Z</time><name>PT7078</name></trkpt>
<trkpt lat="52.720555" lon="06.040101"><ele>1.2</ele><time>2022-09-06T13:11:28Z</time><name>PT7079</name></trkpt>
<trkpt lat="52.720554" lon="06.040095"><ele>1.3</ele><time>2022-09-06T13:11:30Z</time><name>PT7080</name></trkpt>
<trkpt lat="52.720554" lon="06.040086"><ele>1.3</ele><time>2022-09-06T13:11:30Z</time><name>PT7081</name></trkpt>
<trkpt lat="52.720555" lon="06.040079"><ele>1.4</ele><time>2022-09-06T13:11:31Z</time><name>PT7082</name></trkpt>
<trkpt lat="52.720555" lon="06.040069"><ele>1.3</ele><time>2022-09-06T13:11:33Z</time><name>PT7083</name></trkpt>
<trkpt lat="52.720555" lon="06.040055"><ele>1.3</ele><time>2022-09-06T13:11:33Z</time><name>PT7084</name></trkpt>
<trkpt lat="52.720554" lon="06.040041"><ele>1.3</ele><time>2022-09-06T13:11:34Z</time><name>PT7085</name></trkpt>
<trkpt lat="52.720554" lon="06.040025"><ele>1.3</ele><time>2022-09-06T13:11:36Z</time><name>PT7086</name></trkpt>
<trkpt lat="52.720554" lon="06.040009"><ele>1.3</ele><time>2022-09-06T13:11:36Z</time><name>PT7087</name></trkpt>
<trkpt lat="52.720556" lon="06.039991"><ele>1.4</ele><time>2022-09-06T13:11:37Z</time><name>PT7088</name></trkpt>
<trkpt lat="52.720556" lon="06.039973"><ele>1.5</ele><time>2022-09-06T13:11:39Z</time><name>PT7089</name></trkpt>
<trkpt lat="52.720556" lon="06.039957"><ele>1.5</ele><time>2022-09-06T13:11:39Z</time><name>PT7090</name></trkpt>
<trkpt lat="52.720557" lon="06.039940"><ele>1.4</ele><time>2022-09-06T13:11:40Z</time><name>PT7091</name></trkpt>
<trkpt lat="52.720556" lon="06.039920"><ele>1.3</ele><time>2022-09-06T13:11:42Z</time><name>PT7092</name></trkpt>
<trkpt lat="52.720553" lon="06.039900"><ele>1.3</ele><time>2022-09-06T13:11:42Z</time><name>PT7093</name></trkpt>
<trkpt lat="52.720551" lon="06.039882"><ele>1.4</ele><time>2022-09-06T13:11:43Z</time><name>PT7094</name></trkpt>
<trkpt lat="52.720552" lon="06.039868"><ele>1.5</ele><time>2022-09-06T13:11:45Z</time><name>PT7095</name></trkpt>
<trkpt lat="52.720552" lon="06.039851"><ele>1.7</ele><time>2022-09-06T13:11:45Z</time><name>PT7096</name></trkpt>
<trkpt lat="52.720552" lon="06.039832"><ele>1.7</ele><time>2022-09-06T13:11:46Z</time><name>PT7097</name></trkpt>
<trkpt lat="52.720552" lon="06.039820"><ele>1.7</ele><time>2022-09-06T13:11:48Z</time><name>PT7098</name></trkpt>
<trkpt lat="52.720553" lon="06.039805"><ele>1.6</ele><time>2022-09-06T13:11:48Z</time><name>PT7099</name></trkpt>
<trkpt lat="52.720553" lon="06.039791"><ele>1.5</ele><time>2022-09-06T13:11:49Z</time><name>PT7100</name></trkpt>
<trkpt lat="52.720556" lon="06.039779"><ele>1.5</ele><time>2022-09-06T13:11:51Z</time><name>PT7101</name></trkpt>
<trkpt lat="52.720557" lon="06.039765"><ele>1.6</ele><time>2022-09-06T13:11:51Z</time><name>PT7102</name></trkpt>
<trkpt lat="52.720558" lon="06.039752"><ele>1.4</ele><time>2022-09-06T13:11:52Z</time><name>PT7103</name></trkpt>
<trkpt lat="52.720560" lon="06.039741"><ele>1.5</ele><time>2022-09-06T13:11:54Z</time><name>PT7104</name></trkpt>
<trkpt lat="52.720561" lon="06.039736"><ele>1.5</ele><time>2022-09-06T13:11:54Z</time><name>PT7105</name></trkpt>
<trkpt lat="52.720561" lon="06.039733"><ele>1.6</ele><time>2022-09-06T13:11:55Z</time><name>PT7106</name></trkpt>
<trkpt lat="52.720560" lon="06.039731"><ele>1.7</ele><time>2022-09-06T13:11:57Z</time><name>PT7107</name></trkpt>
<trkpt lat="52.720563" lon="06.039725"><ele>1.2</ele><time>2022-09-06T13:12:10Z</time><name>PT7108</name></trkpt>
<trkpt lat="52.720564" lon="06.039710"><ele>1.2</ele><time>2022-09-06T13:12:12Z</time><name>PT7109</name></trkpt>
<trkpt lat="52.720564" lon="06.039694"><ele>1.2</ele><time>2022-09-06T13:12:12Z</time><name>PT7110</name></trkpt>
<trkpt lat="52.720562" lon="06.039674"><ele>1.1</ele><time>2022-09-06T13:12:13Z</time><name>PT7111</name></trkpt>
<trkpt lat="52.720561" lon="06.039657"><ele>1.1</ele><time>2022-09-06T13:12:15Z</time><name>PT7112</name></trkpt>
<trkpt lat="52.720561" lon="06.039642"><ele>1.1</ele><time>2022-09-06T13:12:15Z</time><name>PT7113</name></trkpt>
<trkpt lat="52.720560" lon="06.039625"><ele>1.2</ele><time>2022-09-06T13:12:16Z</time><name>PT7114</name></trkpt>
<trkpt lat="52.720559" lon="06.039609"><ele>1.2</ele><time>2022-09-06T13:12:18Z</time><name>PT7115</name></trkpt>
<trkpt lat="52.720558" lon="06.039598"><ele>1</ele><time>2022-09-06T13:12:18Z</time><name>PT7116</name></trkpt>
<trkpt lat="52.720558" lon="06.039590"><ele>1.2</ele><time>2022-09-06T13:12:19Z</time><name>PT7117</name></trkpt>
<trkpt lat="52.720557" lon="06.039586"><ele>1.2</ele><time>2022-09-06T13:12:21Z</time><name>PT7118</name></trkpt>
<trkpt lat="52.720556" lon="06.039584"><ele>1.2</ele><time>2022-09-06T13:12:21Z</time><name>PT7119</name></trkpt>
<trkpt lat="52.720556" lon="06.039578"><ele>1.4</ele><time>2022-09-06T13:12:24Z</time><name>PT7120</name></trkpt>
<trkpt lat="52.720557" lon="06.039558"><ele>1.4</ele><time>2022-09-06T13:12:25Z</time><name>PT7121</name></trkpt>
<trkpt lat="52.720557" lon="06.039541"><ele>1.5</ele><time>2022-09-06T13:12:27Z</time><name>PT7122</name></trkpt>
<trkpt lat="52.720557" lon="06.039521"><ele>1.4</ele><time>2022-09-06T13:12:27Z</time><name>PT7123</name></trkpt>
<trkpt lat="52.720556" lon="06.039495"><ele>1.5</ele><time>2022-09-06T13:12:28Z</time><name>PT7124</name></trkpt>
<trkpt lat="52.720556" lon="06.039474"><ele>1.4</ele><time>2022-09-06T13:12:30Z</time><name>PT7125</name></trkpt>
<trkpt lat="52.720553" lon="06.039452"><ele>1.2</ele><time>2022-09-06T13:12:30Z</time><name>PT7126</name></trkpt>
<trkpt lat="52.720549" lon="06.039435"><ele>1.3</ele><time>2022-09-06T13:12:31Z</time><name>PT7127</name></trkpt>
<trkpt lat="52.720548" lon="06.039412"><ele>1.2</ele><time>2022-09-06T13:12:33Z</time><name>PT7128</name></trkpt>
<trkpt lat="52.720548" lon="06.039397"><ele>1.2</ele><time>2022-09-06T13:12:33Z</time><name>PT7129</name></trkpt>
<trkpt lat="52.720547" lon="06.039382"><ele>1.3</ele><time>2022-09-06T13:12:34Z</time><name>PT7130</name></trkpt>
<trkpt lat="52.720545" lon="06.039364"><ele>1.4</ele><time>2022-09-06T13:12:35Z</time><name>PT7131</name></trkpt>
<trkpt lat="52.720543" lon="06.039350"><ele>1.4</ele><time>2022-09-06T13:12:36Z</time><name>PT7132</name></trkpt>
<trkpt lat="52.720540" lon="06.039338"><ele>1.8</ele><time>2022-09-06T13:12:37Z</time><name>PT7133</name></trkpt>
<trkpt lat="52.720538" lon="06.039326"><ele>2</ele><time>2022-09-06T13:12:39Z</time><name>PT7134</name></trkpt>
<trkpt lat="52.720537" lon="06.039314"><ele>2.1</ele><time>2022-09-06T13:12:39Z</time><name>PT7135</name></trkpt>
<trkpt lat="52.720537" lon="06.039303"><ele>2.2</ele><time>2022-09-06T13:12:40Z</time><name>PT7136</name></trkpt>
<trkpt lat="52.720537" lon="06.039289"><ele>2.4</ele><time>2022-09-06T13:12:42Z</time><name>PT7137</name></trkpt>
<trkpt lat="52.720535" lon="06.039281"><ele>2.4</ele><time>2022-09-06T13:12:42Z</time><name>PT7138</name></trkpt>
<trkpt lat="52.720533" lon="06.039270"><ele>2.6</ele><time>2022-09-06T13:12:43Z</time><name>PT7139</name></trkpt>
<trkpt lat="52.720530" lon="06.039259"><ele>2.6</ele><time>2022-09-06T13:12:45Z</time><name>PT7140</name></trkpt>
<trkpt lat="52.720530" lon="06.039247"><ele>2.7</ele><time>2022-09-06T13:12:45Z</time><name>PT7141</name></trkpt>
<trkpt lat="52.720529" lon="06.039238"><ele>2.9</ele><time>2022-09-06T13:12:46Z</time><name>PT7142</name></trkpt>
<trkpt lat="52.720528" lon="06.039225"><ele>3</ele><time>2022-09-06T13:12:48Z</time><name>PT7143</name></trkpt>
<trkpt lat="52.720526" lon="06.039214"><ele>3.2</ele><time>2022-09-06T13:12:48Z</time><name>PT7144</name></trkpt>
<trkpt lat="52.720527" lon="06.039207"><ele>3.4</ele><time>2022-09-06T13:12:49Z</time><name>PT7145</name></trkpt>
<trkpt lat="52.720526" lon="06.039200"><ele>3.4</ele><time>2022-09-06T13:12:51Z</time><name>PT7146</name></trkpt>
<trkpt lat="52.720525" lon="06.039195"><ele>3.5</ele><time>2022-09-06T13:12:51Z</time><name>PT7147</name></trkpt>
<trkpt lat="52.720527" lon="06.039190"><ele>3.5</ele><time>2022-09-06T13:12:52Z</time><name>PT7148</name></trkpt>
<trkpt lat="52.720527" lon="06.039183"><ele>3.4</ele><time>2022-09-06T13:12:54Z</time><name>PT7149</name></trkpt>
<trkpt lat="52.720527" lon="06.039178"><ele>3.4</ele><time>2022-09-06T13:12:54Z</time><name>PT7150</name></trkpt>
<trkpt lat="52.720528" lon="06.039173"><ele>3.5</ele><time>2022-09-06T13:12:55Z</time><name>PT7151</name></trkpt>
<trkpt lat="52.720528" lon="06.039171"><ele>3.4</ele><time>2022-09-06T13:12:57Z</time><name>PT7152</name></trkpt>
<trkpt lat="52.720530" lon="06.039168"><ele>3.4</ele><time>2022-09-06T13:12:57Z</time><name>PT7153</name></trkpt>
<trkpt lat="52.720531" lon="06.039167"><ele>3.2</ele><time>2022-09-06T13:12:58Z</time><name>PT7154</name></trkpt>
<trkpt lat="52.720530" lon="06.039163"><ele>3.2</ele><time>2022-09-06T13:13:30Z</time><name>PT7155</name></trkpt>
<trkpt lat="52.720530" lon="06.039158"><ele>3.4</ele><time>2022-09-06T13:13:30Z</time><name>PT7156</name></trkpt>
<trkpt lat="52.720531" lon="06.039154"><ele>3.6</ele><time>2022-09-06T13:13:31Z</time><name>PT7157</name></trkpt>
<trkpt lat="52.720530" lon="06.039149"><ele>3.4</ele><time>2022-09-06T13:13:42Z</time><name>PT7158</name></trkpt>
<trkpt lat="52.720528" lon="06.039132"><ele>3.5</ele><time>2022-09-06T13:13:42Z</time><name>PT7159</name></trkpt>
<trkpt lat="52.720525" lon="06.039117"><ele>3.2</ele><time>2022-09-06T13:13:43Z</time><name>PT7160</name></trkpt>
<trkpt lat="52.720521" lon="06.039104"><ele>2.9</ele><time>2022-09-06T13:13:45Z</time><name>PT7161</name></trkpt>
<trkpt lat="52.720520" lon="06.039091"><ele>3.1</ele><time>2022-09-06T13:13:45Z</time><name>PT7162</name></trkpt>
<trkpt lat="52.720519" lon="06.039080"><ele>3</ele><time>2022-09-06T13:13:46Z</time><name>PT7163</name></trkpt>
<trkpt lat="52.720517" lon="06.039069"><ele>3</ele><time>2022-09-06T13:13:48Z</time><name>PT7164</name></trkpt>
<trkpt lat="52.720516" lon="06.039057"><ele>3.1</ele><time>2022-09-06T13:13:48Z</time><name>PT7165</name></trkpt>
<trkpt lat="52.720515" lon="06.039045"><ele>3</ele><time>2022-09-06T13:13:49Z</time><name>PT7166</name></trkpt>
<trkpt lat="52.720513" lon="06.039036"><ele>2.8</ele><time>2022-09-06T13:13:51Z</time><name>PT7167</name></trkpt>
<trkpt lat="52.720512" lon="06.039026"><ele>2.9</ele><time>2022-09-06T13:13:51Z</time><name>PT7168</name></trkpt>
<trkpt lat="52.720512" lon="06.039017"><ele>2.7</ele><time>2022-09-06T13:13:52Z</time><name>PT7169</name></trkpt>
<trkpt lat="52.720511" lon="06.039008"><ele>2.6</ele><time>2022-09-06T13:13:54Z</time><name>PT7170</name></trkpt>
<trkpt lat="52.720511" lon="06.039000"><ele>2.6</ele><time>2022-09-06T13:13:54Z</time><name>PT7171</name></trkpt>
<trkpt lat="52.720509" lon="06.038992"><ele>2.7</ele><time>2022-09-06T13:13:55Z</time><name>PT7172</name></trkpt>
<trkpt lat="52.720512" lon="06.038978"><ele>1.3</ele><time>2022-09-06T13:14:15Z</time><name>PT7173</name></trkpt>
<trkpt lat="52.720514" lon="06.038952"><ele>1.2</ele><time>2022-09-06T13:14:15Z</time><name>PT7174</name></trkpt>
<trkpt lat="52.720516" lon="06.038926"><ele>1.2</ele><time>2022-09-06T13:14:16Z</time><name>PT7175</name></trkpt>
<trkpt lat="52.720519" lon="06.038904"><ele>1.3</ele><time>2022-09-06T13:14:18Z</time><name>PT7176</name></trkpt>
<trkpt lat="52.720521" lon="06.038887"><ele>1.2</ele><time>2022-09-06T13:14:18Z</time><name>PT7177</name></trkpt>
<trkpt lat="52.720524" lon="06.038867"><ele>1.3</ele><time>2022-09-06T13:14:19Z</time><name>PT7178</name></trkpt>
<trkpt lat="52.720525" lon="06.038854"><ele>1.2</ele><time>2022-09-06T13:14:21Z</time><name>PT7179</name></trkpt>
<trkpt lat="52.720525" lon="06.038841"><ele>1.2</ele><time>2022-09-06T13:14:21Z</time><name>PT7180</name></trkpt>
<trkpt lat="52.720529" lon="06.038831"><ele>1.1</ele><time>2022-09-06T13:14:22Z</time><name>PT7181</name></trkpt>
<trkpt lat="52.720532" lon="06.038819"><ele>1</ele><time>2022-09-06T13:14:24Z</time><name>PT7182</name></trkpt>
<trkpt lat="52.720533" lon="06.038808"><ele>1</ele><time>2022-09-06T13:14:24Z</time><name>PT7183</name></trkpt>
<trkpt lat="52.720533" lon="06.038800"><ele>0.8</ele><time>2022-09-06T13:14:25Z</time><name>PT7184</name></trkpt>
<trkpt lat="52.720532" lon="06.038786"><ele>0.8</ele><time>2022-09-06T13:14:33Z</time><name>PT7185</name></trkpt>
<trkpt lat="52.720531" lon="06.038776"><ele>0.8</ele><time>2022-09-06T13:14:33Z</time><name>PT7186</name></trkpt>
<trkpt lat="52.720532" lon="06.038769"><ele>0.8</ele><time>2022-09-06T13:14:34Z</time><name>PT7187</name></trkpt>
<trkpt lat="52.720529" lon="06.038755"><ele>0.8</ele><time>2022-09-06T13:14:36Z</time><name>PT7188</name></trkpt>
<trkpt lat="52.720528" lon="06.038746"><ele>0.8</ele><time>2022-09-06T13:14:36Z</time><name>PT7189</name></trkpt>
<trkpt lat="52.720528" lon="06.038739"><ele>0.9</ele><time>2022-09-06T13:14:37Z</time><name>PT7190</name></trkpt>
<trkpt lat="52.720514" lon="06.038687"><ele>-1.5</ele><time>2022-09-06T13:40:10Z</time><name>PT7191</name></trkpt>
<trkpt lat="52.720514" lon="06.038676"><ele>-1.9</ele><time>2022-09-06T13:41:42Z</time><name>PT7192</name></trkpt>
<trkpt lat="52.720508" lon="06.038665"><ele>-1.9</ele><time>2022-09-06T13:41:43Z</time><name>PT7193</name></trkpt>
<trkpt lat="52.720503" lon="06.038653"><ele>-2</ele><time>2022-09-06T13:41:44Z</time><name>PT7194</name></trkpt>
<trkpt lat="52.720500" lon="06.038642"><ele>-2</ele><time>2022-09-06T13:41:45Z</time><name>PT7195</name></trkpt>
<trkpt lat="52.720496" lon="06.038628"><ele>-1.8</ele><time>2022-09-06T13:41:46Z</time><name>PT7196</name></trkpt>
<trkpt lat="52.720499" lon="06.038604"><ele>-1.8</ele><time>2022-09-06T13:41:47Z</time><name>PT7197</name></trkpt>
<trkpt lat="52.720498" lon="06.038591"><ele>-1.8</ele><time>2022-09-06T13:41:48Z</time><name>PT7198</name></trkpt>
<trkpt lat="52.720497" lon="06.038583"><ele>-1.6</ele><time>2022-09-06T13:41:49Z</time><name>PT7199</name></trkpt>
<trkpt lat="52.720497" lon="06.038572"><ele>-1.7</ele><time>2022-09-06T13:41:50Z</time><name>PT7200</name></trkpt>
<trkpt lat="52.720497" lon="06.038560"><ele>-1.7</ele><time>2022-09-06T13:41:51Z</time><name>PT7201</name></trkpt>
<trkpt lat="52.720496" lon="06.038544"><ele>-1.6</ele><time>2022-09-06T13:41:52Z</time><name>PT7202</name></trkpt>
<trkpt lat="52.720496" lon="06.038529"><ele>-1.8</ele><time>2022-09-06T13:41:53Z</time><name>PT7203</name></trkpt>
<trkpt lat="52.720495" lon="06.038516"><ele>-1.7</ele><time>2022-09-06T13:41:54Z</time><name>PT7204</name></trkpt>
<trkpt lat="52.720492" lon="06.038502"><ele>-1.8</ele><time>2022-09-06T13:41:55Z</time><name>PT7205</name></trkpt>
<trkpt lat="52.720488" lon="06.038483"><ele>-1.9</ele><time>2022-09-06T13:41:56Z</time><name>PT7206</name></trkpt>
<trkpt lat="52.720481" lon="06.038453"><ele>-1.8</ele><time>2022-09-06T13:41:57Z</time><name>PT7207</name></trkpt>
<trkpt lat="52.720480" lon="06.038439"><ele>-1.7</ele><time>2022-09-06T13:41:58Z</time><name>PT7208</name></trkpt>
<trkpt lat="52.720477" lon="06.038420"><ele>-1.7</ele><time>2022-09-06T13:41:59Z</time><name>PT7209</name></trkpt>
<trkpt lat="52.720469" lon="06.038392"><ele>-1.5</ele><time>2022-09-06T13:42:00Z</time><name>PT7210</name></trkpt>
<trkpt lat="52.720465" lon="06.038371"><ele>-1.7</ele><time>2022-09-06T13:42:01Z</time><name>PT7211</name></trkpt>
<trkpt lat="52.720460" lon="06.038347"><ele>-1.7</ele><time>2022-09-06T13:42:02Z</time><name>PT7212</name></trkpt>
<trkpt lat="52.720458" lon="06.038327"><ele>-1.6</ele><time>2022-09-06T13:42:03Z</time><name>PT7213</name></trkpt>
<trkpt lat="52.720457" lon="06.038307"><ele>-1.9</ele><time>2022-09-06T13:42:04Z</time><name>PT7214</name></trkpt>
<trkpt lat="52.720452" lon="06.038281"><ele>-1.9</ele><time>2022-09-06T13:42:05Z</time><name>PT7215</name></trkpt>
<trkpt lat="52.720449" lon="06.038264"><ele>-1.6</ele><time>2022-09-06T13:42:06Z</time><name>PT7216</name></trkpt>
<trkpt lat="52.720448" lon="06.038246"><ele>-1.6</ele><time>2022-09-06T13:42:07Z</time><name>PT7217</name></trkpt>
<trkpt lat="52.720444" lon="06.038228"><ele>-1.5</ele><time>2022-09-06T13:42:08Z</time><name>PT7218</name></trkpt>
<trkpt lat="52.720442" lon="06.038209"><ele>-1.4</ele><time>2022-09-06T13:42:09Z</time><name>PT7219</name></trkpt>
<trkpt lat="52.720440" lon="06.038194"><ele>-1.4</ele><time>2022-09-06T13:42:10Z</time><name>PT7220</name></trkpt>
<trkpt lat="52.720440" lon="06.038178"><ele>-1.5</ele><time>2022-09-06T13:42:11Z</time><name>PT7221</name></trkpt>
<trkpt lat="52.720441" lon="06.038161"><ele>-1.6</ele><time>2022-09-06T13:42:12Z</time><name>PT7222</name></trkpt>
<trkpt lat="52.720444" lon="06.038142"><ele>-1.6</ele><time>2022-09-06T13:42:13Z</time><name>PT7223</name></trkpt>
<trkpt lat="52.720445" lon="06.038124"><ele>-1.5</ele><time>2022-09-06T13:42:14Z</time><name>PT7224</name></trkpt>
<trkpt lat="52.720446" lon="06.038105"><ele>-1.5</ele><time>2022-09-06T13:42:15Z</time><name>PT7225</name></trkpt>
<trkpt lat="52.720445" lon="06.038088"><ele>-1.7</ele><time>2022-09-06T13:42:16Z</time><name>PT7226</name></trkpt>
<trkpt lat="52.720441" lon="06.038072"><ele>-1.8</ele><time>2022-09-06T13:42:17Z</time><name>PT7227</name></trkpt>
<trkpt lat="52.720438" lon="06.038053"><ele>-1.9</ele><time>2022-09-06T13:42:18Z</time><name>PT7228</name></trkpt>
<trkpt lat="52.720436" lon="06.038033"><ele>-1.9</ele><time>2022-09-06T13:42:19Z</time><name>PT7229</name></trkpt>
<trkpt lat="52.720436" lon="06.038016"><ele>-1.9</ele><time>2022-09-06T13:42:20Z</time><name>PT7230</name></trkpt>
<trkpt lat="52.720437" lon="06.037996"><ele>-1.8</ele><time>2022-09-06T13:42:21Z</time><name>PT7231</name></trkpt>
<trkpt lat="52.720442" lon="06.037976"><ele>-1.9</ele><time>2022-09-06T13:42:22Z</time><name>PT7232</name></trkpt>
<trkpt lat="52.720446" lon="06.037955"><ele>-1.9</ele><time>2022-09-06T13:42:23Z</time><name>PT7233</name></trkpt>
<trkpt lat="52.720445" lon="06.037931"><ele>-1.9</ele><time>2022-09-06T13:42:24Z</time><name>PT7234</name></trkpt>
<trkpt lat="52.720444" lon="06.037912"><ele>-1.9</ele><time>2022-09-06T13:42:25Z</time><name>PT7235</name></trkpt>
<trkpt lat="52.720443" lon="06.037894"><ele>-1.9</ele><time>2022-09-06T13:42:26Z</time><name>PT7236</name></trkpt>
<trkpt lat="52.720440" lon="06.037873"><ele>-2</ele><time>2022-09-06T13:42:27Z</time><name>PT7237</name></trkpt>
<trkpt lat="52.720438" lon="06.037855"><ele>-1.8</ele><time>2022-09-06T13:42:28Z</time><name>PT7238</name></trkpt>
<trkpt lat="52.720438" lon="06.037835"><ele>-1.6</ele><time>2022-09-06T13:42:29Z</time><name>PT7239</name></trkpt>
<trkpt lat="52.720438" lon="06.037814"><ele>-1.6</ele><time>2022-09-06T13:42:30Z</time><name>PT7240</name></trkpt>
<trkpt lat="52.720437" lon="06.037794"><ele>-1.6</ele><time>2022-09-06T13:42:31Z</time><name>PT7241</name></trkpt>
<trkpt lat="52.720436" lon="06.037772"><ele>-1.8</ele><time>2022-09-06T13:42:32Z</time><name>PT7242</name></trkpt>
<trkpt lat="52.720435" lon="06.037754"><ele>-1.9</ele><time>2022-09-06T13:42:33Z</time><name>PT7243</name></trkpt>
<trkpt lat="52.720433" lon="06.037735"><ele>-2</ele><time>2022-09-06T13:42:34Z</time><name>PT7244</name></trkpt>
<trkpt lat="52.720434" lon="06.037715"><ele>-2</ele><time>2022-09-06T13:42:35Z</time><name>PT7245</name></trkpt>
<trkpt lat="52.720436" lon="06.037694"><ele>-2</ele><time>2022-09-06T13:42:36Z</time><name>PT7246</name></trkpt>
<trkpt lat="52.720437" lon="06.037673"><ele>-2.1</ele><time>2022-09-06T13:42:37Z</time><name>PT7247</name></trkpt>
<trkpt lat="52.720437" lon="06.037655"><ele>-2.3</ele><time>2022-09-06T13:42:38Z</time><name>PT7248</name></trkpt>
<trkpt lat="52.720436" lon="06.037637"><ele>-2.2</ele><time>2022-09-06T13:42:39Z</time><name>PT7249</name></trkpt>
<trkpt lat="52.720434" lon="06.037618"><ele>-2.3</ele><time>2022-09-06T13:42:40Z</time><name>PT7250</name></trkpt>
<trkpt lat="52.720434" lon="06.037600"><ele>-1.9</ele><time>2022-09-06T13:42:41Z</time><name>PT7251</name></trkpt>
<trkpt lat="52.720434" lon="06.037581"><ele>-1.9</ele><time>2022-09-06T13:42:42Z</time><name>PT7252</name></trkpt>
<trkpt lat="52.720433" lon="06.037563"><ele>-1.9</ele><time>2022-09-06T13:42:43Z</time><name>PT7253</name></trkpt>
<trkpt lat="52.720433" lon="06.037545"><ele>-1.8</ele><time>2022-09-06T13:42:44Z</time><name>PT7254</name></trkpt>
<trkpt lat="52.720433" lon="06.037526"><ele>-1.7</ele><time>2022-09-06T13:42:45Z</time><name>PT7255</name></trkpt>
<trkpt lat="52.720433" lon="06.037507"><ele>-1.8</ele><time>2022-09-06T13:42:46Z</time><name>PT7256</name></trkpt>
<trkpt lat="52.720432" lon="06.037489"><ele>-1.7</ele><time>2022-09-06T13:42:47Z</time><name>PT7257</name></trkpt>
<trkpt lat="52.720434" lon="06.037472"><ele>-1.6</ele><time>2022-09-06T13:42:48Z</time><name>PT7258</name></trkpt>
<trkpt lat="52.720434" lon="06.037455"><ele>-1.7</ele><time>2022-09-06T13:42:49Z</time><name>PT7259</name></trkpt>
<trkpt lat="52.720435" lon="06.037436"><ele>-1.7</ele><time>2022-09-06T13:42:50Z</time><name>PT7260</name></trkpt>
<trkpt lat="52.720436" lon="06.037417"><ele>-1.6</ele><time>2022-09-06T13:42:51Z</time><name>PT7261</name></trkpt>
<trkpt lat="52.720437" lon="06.037401"><ele>-1.8</ele><time>2022-09-06T13:42:52Z</time><name>PT7262</name></trkpt>
<trkpt lat="52.720436" lon="06.037383"><ele>-1.8</ele><time>2022-09-06T13:42:53Z</time><name>PT7263</name></trkpt>
<trkpt lat="52.720434" lon="06.037363"><ele>-1.7</ele><time>2022-09-06T13:42:54Z</time><name>PT7264</name></trkpt>
<trkpt lat="52.720434" lon="06.037345"><ele>-1.8</ele><time>2022-09-06T13:42:55Z</time><name>PT7265</name></trkpt>
<trkpt lat="52.720434" lon="06.037325"><ele>-1.7</ele><time>2022-09-06T13:42:56Z</time><name>PT7266</name></trkpt>
<trkpt lat="52.720433" lon="06.037303"><ele>-1.7</ele><time>2022-09-06T13:42:57Z</time><name>PT7267</name></trkpt>
<trkpt lat="52.720433" lon="06.037284"><ele>-1.6</ele><time>2022-09-06T13:42:58Z</time><name>PT7268</name></trkpt>
<trkpt lat="52.720433" lon="06.037265"><ele>-1.9</ele><time>2022-09-06T13:42:59Z</time><name>PT7269</name></trkpt>
<trkpt lat="52.720433" lon="06.037249"><ele>-1.9</ele><time>2022-09-06T13:43:00Z</time><name>PT7270</name></trkpt>
<trkpt lat="52.720433" lon="06.037232"><ele>-1.9</ele><time>2022-09-06T13:43:01Z</time><name>PT7271</name></trkpt>
<trkpt lat="52.720434" lon="06.037213"><ele>-2.3</ele><time>2022-09-06T13:43:02Z</time><name>PT7272</name></trkpt>
<trkpt lat="52.720435" lon="06.037192"><ele>-2.2</ele><time>2022-09-06T13:43:03Z</time><name>PT7273</name></trkpt>
<trkpt lat="52.720436" lon="06.037172"><ele>-2.2</ele><time>2022-09-06T13:43:04Z</time><name>PT7274</name></trkpt>
<trkpt lat="52.720435" lon="06.037155"><ele>-2.1</ele><time>2022-09-06T13:43:05Z</time><name>PT7275</name></trkpt>
<trkpt lat="52.720432" lon="06.037138"><ele>-2</ele><time>2022-09-06T13:43:06Z</time><name>PT7276</name></trkpt>
<trkpt lat="52.720432" lon="06.037120"><ele>-1.9</ele><time>2022-09-06T13:43:07Z</time><name>PT7277</name></trkpt>
<trkpt lat="52.720430" lon="06.037102"><ele>-1.9</ele><time>2022-09-06T13:43:08Z</time><name>PT7278</name></trkpt>
<trkpt lat="52.720428" lon="06.037084"><ele>-2</ele><time>2022-09-06T13:43:09Z</time><name>PT7279</name></trkpt>
<trkpt lat="52.720426" lon="06.037062"><ele>-2.1</ele><time>2022-09-06T13:43:10Z</time><name>PT7280</name></trkpt>
<trkpt lat="52.720424" lon="06.037043"><ele>-2.1</ele><time>2022-09-06T13:43:11Z</time><name>PT7281</name></trkpt>
<trkpt lat="52.720422" lon="06.037027"><ele>-2</ele><time>2022-09-06T13:43:12Z</time><name>PT7282</name></trkpt>
<trkpt lat="52.720420" lon="06.037011"><ele>-2</ele><time>2022-09-06T13:43:13Z</time><name>PT7283</name></trkpt>
<trkpt lat="52.720420" lon="06.036996"><ele>-1.9</ele><time>2022-09-06T13:43:14Z</time><name>PT7284</name></trkpt>
<trkpt lat="52.720420" lon="06.036980"><ele>-1.9</ele><time>2022-09-06T13:43:15Z</time><name>PT7285</name></trkpt>
<trkpt lat="52.720420" lon="06.036961"><ele>-1.8</ele><time>2022-09-06T13:43:16Z</time><name>PT7286</name></trkpt>
<trkpt lat="52.720421" lon="06.036940"><ele>-1.9</ele><time>2022-09-06T13:43:17Z</time><name>PT7287</name></trkpt>
<trkpt lat="52.720421" lon="06.036922"><ele>-2.1</ele><time>2022-09-06T13:43:18Z</time><name>PT7288</name></trkpt>
<trkpt lat="52.720419" lon="06.036907"><ele>-2.1</ele><time>2022-09-06T13:43:19Z</time><name>PT7289</name></trkpt>
<trkpt lat="52.720417" lon="06.036889"><ele>-2.3</ele><time>2022-09-06T13:43:20Z</time><name>PT7290</name></trkpt>
<trkpt lat="52.720414" lon="06.036871"><ele>-2.2</ele><time>2022-09-06T13:43:21Z</time><name>PT7291</name></trkpt>
<trkpt lat="52.720412" lon="06.036851"><ele>-2</ele><time>2022-09-06T13:43:22Z</time><name>PT7292</name></trkpt>
<trkpt lat="52.720410" lon="06.036830"><ele>-1.9</ele><time>2022-09-06T13:43:23Z</time><name>PT7293</name></trkpt>
<trkpt lat="52.720410" lon="06.036812"><ele>-2</ele><time>2022-09-06T13:43:24Z</time><name>PT7294</name></trkpt>
<trkpt lat="52.720409" lon="06.036796"><ele>-1.9</ele><time>2022-09-06T13:43:25Z</time><name>PT7295</name></trkpt>
<trkpt lat="52.720407" lon="06.036781"><ele>-2</ele><time>2022-09-06T13:43:26Z</time><name>PT7296</name></trkpt>
<trkpt lat="52.720405" lon="06.036762"><ele>-1.9</ele><time>2022-09-06T13:43:27Z</time><name>PT7297</name></trkpt>
<trkpt lat="52.720405" lon="06.036747"><ele>-2.1</ele><time>2022-09-06T13:43:28Z</time><name>PT7298</name></trkpt>
<trkpt lat="52.720404" lon="06.036730"><ele>-2</ele><time>2022-09-06T13:43:29Z</time><name>PT7299</name></trkpt>
<trkpt lat="52.720401" lon="06.036714"><ele>-1.9</ele><time>2022-09-06T13:43:30Z</time><name>PT7300</name></trkpt>
<trkpt lat="52.720400" lon="06.036699"><ele>-1.7</ele><time>2022-09-06T13:43:31Z</time><name>PT7301</name></trkpt>
<trkpt lat="52.720400" lon="06.036683"><ele>-1.4</ele><time>2022-09-06T13:43:32Z</time><name>PT7302</name></trkpt>
<trkpt lat="52.720400" lon="06.036665"><ele>-1.5</ele><time>2022-09-06T13:43:33Z</time><name>PT7303</name></trkpt>
<trkpt lat="52.720399" lon="06.036644"><ele>-1.6</ele><time>2022-09-06T13:43:34Z</time><name>PT7304</name></trkpt>
<trkpt lat="52.720396" lon="06.036622"><ele>-1.7</ele><time>2022-09-06T13:43:35Z</time><name>PT7305</name></trkpt>
<trkpt lat="52.720396" lon="06.036603"><ele>-1.7</ele><time>2022-09-06T13:43:36Z</time><name>PT7306</name></trkpt>
<trkpt lat="52.720393" lon="06.036582"><ele>-1.9</ele><time>2022-09-06T13:43:37Z</time><name>PT7307</name></trkpt>
<trkpt lat="52.720392" lon="06.036566"><ele>-1.9</ele><time>2022-09-06T13:43:38Z</time><name>PT7308</name></trkpt>
<trkpt lat="52.720390" lon="06.036548"><ele>-2.1</ele><time>2022-09-06T13:43:39Z</time><name>PT7309</name></trkpt>
<trkpt lat="52.720389" lon="06.036532"><ele>-2.2</ele><time>2022-09-06T13:43:40Z</time><name>PT7310</name></trkpt>
<trkpt lat="52.720389" lon="06.036512"><ele>-1.9</ele><time>2022-09-06T13:43:41Z</time><name>PT7311</name></trkpt>
<trkpt lat="52.720392" lon="06.036492"><ele>-1.9</ele><time>2022-09-06T13:43:42Z</time><name>PT7312</name></trkpt>
<trkpt lat="52.720390" lon="06.036473"><ele>-1.9</ele><time>2022-09-06T13:43:43Z</time><name>PT7313</name></trkpt>
<trkpt lat="52.720388" lon="06.036457"><ele>-2.2</ele><time>2022-09-06T13:43:44Z</time><name>PT7314</name></trkpt>
<trkpt lat="52.720387" lon="06.036439"><ele>-2.1</ele><time>2022-09-06T13:43:45Z</time><name>PT7315</name></trkpt>
<trkpt lat="52.720385" lon="06.036420"><ele>-2.3</ele><time>2022-09-06T13:43:46Z</time><name>PT7316</name></trkpt>
<trkpt lat="52.720383" lon="06.036401"><ele>-2.4</ele><time>2022-09-06T13:43:47Z</time><name>PT7317</name></trkpt>
<trkpt lat="52.720382" lon="06.036382"><ele>-2.4</ele><time>2022-09-06T13:43:48Z</time><name>PT7318</name></trkpt>
<trkpt lat="52.720381" lon="06.036365"><ele>-2.4</ele><time>2022-09-06T13:43:49Z</time><name>PT7319</name></trkpt>
<trkpt lat="52.720380" lon="06.036348"><ele>-2.3</ele><time>2022-09-06T13:43:50Z</time><name>PT7320</name></trkpt>
<trkpt lat="52.720380" lon="06.036330"><ele>-2.1</ele><time>2022-09-06T13:43:51Z</time><name>PT7321</name></trkpt>
<trkpt lat="52.720379" lon="06.036313"><ele>-2</ele><time>2022-09-06T13:43:52Z</time><name>PT7322</name></trkpt>
<trkpt lat="52.720379" lon="06.036291"><ele>-1.9</ele><time>2022-09-06T13:43:53Z</time><name>PT7323</name></trkpt>
<trkpt lat="52.720378" lon="06.036271"><ele>-1.8</ele><time>2022-09-06T13:43:54Z</time><name>PT7324</name></trkpt>
<trkpt lat="52.720377" lon="06.036253"><ele>-1.9</ele><time>2022-09-06T13:43:55Z</time><name>PT7325</name></trkpt>
<trkpt lat="52.720375" lon="06.036235"><ele>-1.9</ele><time>2022-09-06T13:43:56Z</time><name>PT7326</name></trkpt>
<trkpt lat="52.720373" lon="06.036214"><ele>-1.9</ele><time>2022-09-06T13:43:57Z</time><name>PT7327</name></trkpt>
<trkpt lat="52.720371" lon="06.036194"><ele>-2.2</ele><time>2022-09-06T13:43:58Z</time><name>PT7328</name></trkpt>
<trkpt lat="52.720371" lon="06.036172"><ele>-2.1</ele><time>2022-09-06T13:43:59Z</time><name>PT7329</name></trkpt>
<trkpt lat="52.720369" lon="06.036152"><ele>-2</ele><time>2022-09-06T13:44:00Z</time><name>PT7330</name></trkpt>
<trkpt lat="52.720367" lon="06.036132"><ele>-1.9</ele><time>2022-09-06T13:44:01Z</time><name>PT7331</name></trkpt>
<trkpt lat="52.720368" lon="06.036114"><ele>-1.8</ele><time>2022-09-06T13:44:02Z</time><name>PT7332</name></trkpt>
<trkpt lat="52.720368" lon="06.036096"><ele>-1.7</ele><time>2022-09-06T13:44:03Z</time><name>PT7333</name></trkpt>
<trkpt lat="52.720366" lon="06.036074"><ele>-1.7</ele><time>2022-09-06T13:44:04Z</time><name>PT7334</name></trkpt>
<trkpt lat="52.720366" lon="06.036054"><ele>-1.8</ele><time>2022-09-06T13:44:05Z</time><name>PT7335</name></trkpt>
<trkpt lat="52.720364" lon="06.036034"><ele>-1.9</ele><time>2022-09-06T13:44:06Z</time><name>PT7336</name></trkpt>
<trkpt lat="52.720362" lon="06.036014"><ele>-2.1</ele><time>2022-09-06T13:44:07Z</time><name>PT7337</name></trkpt>
<trkpt lat="52.720360" lon="06.035996"><ele>-2.3</ele><time>2022-09-06T13:44:08Z</time><name>PT7338</name></trkpt>
<trkpt lat="52.720357" lon="06.035977"><ele>-2.3</ele><time>2022-09-06T13:44:09Z</time><name>PT7339</name></trkpt>
<trkpt lat="52.720356" lon="06.035959"><ele>-2.4</ele><time>2022-09-06T13:44:10Z</time><name>PT7340</name></trkpt>
<trkpt lat="52.720354" lon="06.035943"><ele>-2.2</ele><time>2022-09-06T13:44:11Z</time><name>PT7341</name></trkpt>
<trkpt lat="52.720354" lon="06.035925"><ele>-2.1</ele><time>2022-09-06T13:44:12Z</time><name>PT7342</name></trkpt>
<trkpt lat="52.720355" lon="06.035906"><ele>-2</ele><time>2022-09-06T13:44:13Z</time><name>PT7343</name></trkpt>
<trkpt lat="52.720355" lon="06.035887"><ele>-2</ele><time>2022-09-06T13:44:14Z</time><name>PT7344</name></trkpt>
<trkpt lat="52.720354" lon="06.035868"><ele>-1.9</ele><time>2022-09-06T13:44:15Z</time><name>PT7345</name></trkpt>
<trkpt lat="52.720354" lon="06.035848"><ele>-1.9</ele><time>2022-09-06T13:44:16Z</time><name>PT7346</name></trkpt>
<trkpt lat="52.720354" lon="06.035828"><ele>-1.9</ele><time>2022-09-06T13:44:17Z</time><name>PT7347</name></trkpt>
<trkpt lat="52.720352" lon="06.035811"><ele>-1.9</ele><time>2022-09-06T13:44:18Z</time><name>PT7348</name></trkpt>
<trkpt lat="52.720350" lon="06.035792"><ele>-1.8</ele><time>2022-09-06T13:44:19Z</time><name>PT7349</name></trkpt>
<trkpt lat="52.720349" lon="06.035773"><ele>-1.8</ele><time>2022-09-06T13:44:20Z</time><name>PT7350</name></trkpt>
<trkpt lat="52.720348" lon="06.035754"><ele>-1.6</ele><time>2022-09-06T13:44:21Z</time><name>PT7351</name></trkpt>
<trkpt lat="52.720345" lon="06.035734"><ele>-1.6</ele><time>2022-09-06T13:44:22Z</time><name>PT7352</name></trkpt>
<trkpt lat="52.720345" lon="06.035714"><ele>-1.7</ele><time>2022-09-06T13:44:23Z</time><name>PT7353</name></trkpt>
<trkpt lat="52.720343" lon="06.035696"><ele>-1.9</ele><time>2022-09-06T13:44:24Z</time><name>PT7354</name></trkpt>
<trkpt lat="52.720339" lon="06.035679"><ele>-2</ele><time>2022-09-06T13:44:25Z</time><name>PT7355</name></trkpt>
<trkpt lat="52.720338" lon="06.035662"><ele>-2</ele><time>2022-09-06T13:44:26Z</time><name>PT7356</name></trkpt>
<trkpt lat="52.720339" lon="06.035645"><ele>-1.9</ele><time>2022-09-06T13:44:27Z</time><name>PT7357</name></trkpt>
<trkpt lat="52.720339" lon="06.035627"><ele>-1.9</ele><time>2022-09-06T13:44:28Z</time><name>PT7358</name></trkpt>
<trkpt lat="52.720339" lon="06.035608"><ele>-1.7</ele><time>2022-09-06T13:44:29Z</time><name>PT7359</name></trkpt>
<trkpt lat="52.720336" lon="06.035587"><ele>-1.9</ele><time>2022-09-06T13:44:30Z</time><name>PT7360</name></trkpt>
<trkpt lat="52.720333" lon="06.035570"><ele>-2</ele><time>2022-09-06T13:44:31Z</time><name>PT7361</name></trkpt>
<trkpt lat="52.720333" lon="06.035553"><ele>-1.9</ele><time>2022-09-06T13:44:32Z</time><name>PT7362</name></trkpt>
<trkpt lat="52.720332" lon="06.035534"><ele>-1.9</ele><time>2022-09-06T13:44:33Z</time><name>PT7363</name></trkpt>
<trkpt lat="52.720330" lon="06.035514"><ele>-1.8</ele><time>2022-09-06T13:44:34Z</time><name>PT7364</name></trkpt>
<trkpt lat="52.720328" lon="06.035493"><ele>-1.8</ele><time>2022-09-06T13:44:35Z</time><name>PT7365</name></trkpt>
<trkpt lat="52.720326" lon="06.035473"><ele>-1.8</ele><time>2022-09-06T13:44:36Z</time><name>PT7366</name></trkpt>
<trkpt lat="52.720323" lon="06.035455"><ele>-1.8</ele><time>2022-09-06T13:44:37Z</time><name>PT7367</name></trkpt>
<trkpt lat="52.720321" lon="06.035436"><ele>-1.9</ele><time>2022-09-06T13:44:38Z</time><name>PT7368</name></trkpt>
<trkpt lat="52.720320" lon="06.035413"><ele>-2</ele><time>2022-09-06T13:44:39Z</time><name>PT7369</name></trkpt>
<trkpt lat="52.720320" lon="06.035393"><ele>-2.1</ele><time>2022-09-06T13:44:40Z</time><name>PT7370</name></trkpt>
<trkpt lat="52.720320" lon="06.035372"><ele>-2.3</ele><time>2022-09-06T13:44:41Z</time><name>PT7371</name></trkpt>
<trkpt lat="52.720318" lon="06.035354"><ele>-2.4</ele><time>2022-09-06T13:44:42Z</time><name>PT7372</name></trkpt>
<trkpt lat="52.720318" lon="06.035337"><ele>-2.4</ele><time>2022-09-06T13:44:43Z</time><name>PT7373</name></trkpt>
<trkpt lat="52.720317" lon="06.035321"><ele>-2.4</ele><time>2022-09-06T13:44:44Z</time><name>PT7374</name></trkpt>
<trkpt lat="52.720316" lon="06.035304"><ele>-2.3</ele><time>2022-09-06T13:44:45Z</time><name>PT7375</name></trkpt>
<trkpt lat="52.720316" lon="06.035287"><ele>-2.2</ele><time>2022-09-06T13:44:46Z</time><name>PT7376</name></trkpt>
<trkpt lat="52.720314" lon="06.035266"><ele>-2.2</ele><time>2022-09-06T13:44:47Z</time><name>PT7377</name></trkpt>
<trkpt lat="52.720313" lon="06.035246"><ele>-2</ele><time>2022-09-06T13:44:48Z</time><name>PT7378</name></trkpt>
<trkpt lat="52.720310" lon="06.035228"><ele>-2.1</ele><time>2022-09-06T13:44:49Z</time><name>PT7379</name></trkpt>
<trkpt lat="52.720308" lon="06.035210"><ele>-2.1</ele><time>2022-09-06T13:44:50Z</time><name>PT7380</name></trkpt>
<trkpt lat="52.720309" lon="06.035193"><ele>-2.3</ele><time>2022-09-06T13:44:51Z</time><name>PT7381</name></trkpt>
<trkpt lat="52.720309" lon="06.035174"><ele>-2.3</ele><time>2022-09-06T13:44:52Z</time><name>PT7382</name></trkpt>
<trkpt lat="52.720309" lon="06.035154"><ele>-2.4</ele><time>2022-09-06T13:44:53Z</time><name>PT7383</name></trkpt>
<trkpt lat="52.720310" lon="06.035134"><ele>-2.6</ele><time>2022-09-06T13:44:54Z</time><name>PT7384</name></trkpt>
<trkpt lat="52.720309" lon="06.035117"><ele>-2.5</ele><time>2022-09-06T13:44:55Z</time><name>PT7385</name></trkpt>
<trkpt lat="52.720307" lon="06.035100"><ele>-2.5</ele><time>2022-09-06T13:44:56Z</time><name>PT7386</name></trkpt>
<trkpt lat="52.720307" lon="06.035082"><ele>-2.5</ele><time>2022-09-06T13:44:57Z</time><name>PT7387</name></trkpt>
<trkpt lat="52.720306" lon="06.035063"><ele>-2.4</ele><time>2022-09-06T13:44:58Z</time><name>PT7388</name></trkpt>
<trkpt lat="52.720304" lon="06.035043"><ele>-2.2</ele><time>2022-09-06T13:44:59Z</time><name>PT7389</name></trkpt>
<trkpt lat="52.720305" lon="06.035024"><ele>-2.2</ele><time>2022-09-06T13:45:00Z</time><name>PT7390</name></trkpt>
<trkpt lat="52.720303" lon="06.035006"><ele>-1.9</ele><time>2022-09-06T13:45:01Z</time><name>PT7391</name></trkpt>
<trkpt lat="52.720299" lon="06.034986"><ele>-1.6</ele><time>2022-09-06T13:45:02Z</time><name>PT7392</name></trkpt>
<trkpt lat="52.720298" lon="06.034968"><ele>-1.6</ele><time>2022-09-06T13:45:03Z</time><name>PT7393</name></trkpt>
<trkpt lat="52.720298" lon="06.034950"><ele>-1.6</ele><time>2022-09-06T13:45:04Z</time><name>PT7394</name></trkpt>
<trkpt lat="52.720298" lon="06.034932"><ele>-1.7</ele><time>2022-09-06T13:45:05Z</time><name>PT7395</name></trkpt>
<trkpt lat="52.720297" lon="06.034912"><ele>-1.8</ele><time>2022-09-06T13:45:06Z</time><name>PT7396</name></trkpt>
<trkpt lat="52.720298" lon="06.034892"><ele>-2</ele><time>2022-09-06T13:45:07Z</time><name>PT7397</name></trkpt>
<trkpt lat="52.720296" lon="06.034874"><ele>-2</ele><time>2022-09-06T13:45:08Z</time><name>PT7398</name></trkpt>
<trkpt lat="52.720295" lon="06.034859"><ele>-1.9</ele><time>2022-09-06T13:45:09Z</time><name>PT7399</name></trkpt>
<trkpt lat="52.720295" lon="06.034845"><ele>-2</ele><time>2022-09-06T13:45:10Z</time><name>PT7400</name></trkpt>
<trkpt lat="52.720294" lon="06.034827"><ele>-1.8</ele><time>2022-09-06T13:45:11Z</time><name>PT7401</name></trkpt>
<trkpt lat="52.720292" lon="06.034807"><ele>-1.7</ele><time>2022-09-06T13:45:12Z</time><name>PT7402</name></trkpt>
<trkpt lat="52.720292" lon="06.034789"><ele>-1.7</ele><time>2022-09-06T13:45:13Z</time><name>PT7403</name></trkpt>
<trkpt lat="52.720289" lon="06.034766"><ele>-1.6</ele><time>2022-09-06T13:45:14Z</time><name>PT7404</name></trkpt>
<trkpt lat="52.720287" lon="06.034748"><ele>-1.7</ele><time>2022-09-06T13:45:15Z</time><name>PT7405</name></trkpt>
<trkpt lat="52.720285" lon="06.034729"><ele>-1.7</ele><time>2022-09-06T13:45:16Z</time><name>PT7406</name></trkpt>
<trkpt lat="52.720286" lon="06.034714"><ele>-1.9</ele><time>2022-09-06T13:45:17Z</time><name>PT7407</name></trkpt>
<trkpt lat="52.720286" lon="06.034695"><ele>-2</ele><time>2022-09-06T13:45:18Z</time><name>PT7408</name></trkpt>
<trkpt lat="52.720286" lon="06.034676"><ele>-2.2</ele><time>2022-09-06T13:45:19Z</time><name>PT7409</name></trkpt>
<trkpt lat="52.720284" lon="06.034656"><ele>-2.4</ele><time>2022-09-06T13:45:20Z</time><name>PT7410</name></trkpt>
<trkpt lat="52.720282" lon="06.034637"><ele>-2.2</ele><time>2022-09-06T13:45:21Z</time><name>PT7411</name></trkpt>
<trkpt lat="52.720281" lon="06.034619"><ele>-2.2</ele><time>2022-09-06T13:45:22Z</time><name>PT7412</name></trkpt>
<trkpt lat="52.720279" lon="06.034602"><ele>-2.2</ele><time>2022-09-06T13:45:23Z</time><name>PT7413</name></trkpt>
<trkpt lat="52.720277" lon="06.034584"><ele>-2</ele><time>2022-09-06T13:45:24Z</time><name>PT7414</name></trkpt>
<trkpt lat="52.720275" lon="06.034561"><ele>-2.2</ele><time>2022-09-06T13:45:25Z</time><name>PT7415</name></trkpt>
<trkpt lat="52.720272" lon="06.034541"><ele>-2.3</ele><time>2022-09-06T13:45:26Z</time><name>PT7416</name></trkpt>
<trkpt lat="52.720270" lon="06.034524"><ele>-2.3</ele><time>2022-09-06T13:45:27Z</time><name>PT7417</name></trkpt>
<trkpt lat="52.720268" lon="06.034506"><ele>-2.2</ele><time>2022-09-06T13:45:28Z</time><name>PT7418</name></trkpt>
<trkpt lat="52.720269" lon="06.034488"><ele>-2</ele><time>2022-09-06T13:45:29Z</time><name>PT7419</name></trkpt>
<trkpt lat="52.720269" lon="06.034470"><ele>-2.1</ele><time>2022-09-06T13:45:30Z</time><name>PT7420</name></trkpt>
<trkpt lat="52.720269" lon="06.034452"><ele>-2</ele><time>2022-09-06T13:45:31Z</time><name>PT7421</name></trkpt>
<trkpt lat="52.720269" lon="06.034433"><ele>-2.1</ele><time>2022-09-06T13:45:32Z</time><name>PT7422</name></trkpt>
<trkpt lat="52.720269" lon="06.034416"><ele>-2.2</ele><time>2022-09-06T13:45:33Z</time><name>PT7423</name></trkpt>
<trkpt lat="52.720268" lon="06.034403"><ele>-2.1</ele><time>2022-09-06T13:45:34Z</time><name>PT7424</name></trkpt>
<trkpt lat="52.720267" lon="06.034386"><ele>-2.1</ele><time>2022-09-06T13:45:35Z</time><name>PT7425</name></trkpt>
<trkpt lat="52.720264" lon="06.034367"><ele>-2.4</ele><time>2022-09-06T13:45:36Z</time><name>PT7426</name></trkpt>
<trkpt lat="52.720262" lon="06.034348"><ele>-2.3</ele><time>2022-09-06T13:45:37Z</time><name>PT7427</name></trkpt>
<trkpt lat="52.720260" lon="06.034328"><ele>-2.4</ele><time>2022-09-06T13:45:38Z</time><name>PT7428</name></trkpt>
<trkpt lat="52.720259" lon="06.034311"><ele>-2.4</ele><time>2022-09-06T13:45:39Z</time><name>PT7429</name></trkpt>
<trkpt lat="52.720256" lon="06.034297"><ele>-2.4</ele><time>2022-09-06T13:45:40Z</time><name>PT7430</name></trkpt>
<trkpt lat="52.720256" lon="06.034283"><ele>-2.1</ele><time>2022-09-06T13:45:41Z</time><name>PT7431</name></trkpt>
<trkpt lat="52.720254" lon="06.034266"><ele>-1.9</ele><time>2022-09-06T13:45:42Z</time><name>PT7432</name></trkpt>
<trkpt lat="52.720254" lon="06.034248"><ele>-1.9</ele><time>2022-09-06T13:45:43Z</time><name>PT7433</name></trkpt>
<trkpt lat="52.720253" lon="06.034230"><ele>-1.8</ele><time>2022-09-06T13:45:44Z</time><name>PT7434</name></trkpt>
<trkpt lat="52.720252" lon="06.034210"><ele>-1.9</ele><time>2022-09-06T13:45:45Z</time><name>PT7435</name></trkpt>
<trkpt lat="52.720250" lon="06.034192"><ele>-1.9</ele><time>2022-09-06T13:45:46Z</time><name>PT7436</name></trkpt>
<trkpt lat="52.720246" lon="06.034175"><ele>-2</ele><time>2022-09-06T13:45:47Z</time><name>PT7437</name></trkpt>
<trkpt lat="52.720242" lon="06.034158"><ele>-2.4</ele><time>2022-09-06T13:45:48Z</time><name>PT7438</name></trkpt>
<trkpt lat="52.720238" lon="06.034140"><ele>-2.3</ele><time>2022-09-06T13:45:49Z</time><name>PT7439</name></trkpt>
<trkpt lat="52.720233" lon="06.034124"><ele>-2.4</ele><time>2022-09-06T13:45:50Z</time><name>PT7440</name></trkpt>
<trkpt lat="52.720227" lon="06.034107"><ele>-2.4</ele><time>2022-09-06T13:45:51Z</time><name>PT7441</name></trkpt>
<trkpt lat="52.720222" lon="06.034090"><ele>-2.1</ele><time>2022-09-06T13:45:52Z</time><name>PT7442</name></trkpt>
<trkpt lat="52.720218" lon="06.034074"><ele>-2</ele><time>2022-09-06T13:45:53Z</time><name>PT7443</name></trkpt>
<trkpt lat="52.720212" lon="06.034061"><ele>-2.1</ele><time>2022-09-06T13:45:54Z</time><name>PT7444</name></trkpt>
<trkpt lat="52.720207" lon="06.034045"><ele>-1.9</ele><time>2022-09-06T13:45:55Z</time><name>PT7445</name></trkpt>
<trkpt lat="52.720204" lon="06.034030"><ele>-1.9</ele><time>2022-09-06T13:45:56Z</time><name>PT7446</name></trkpt>
<trkpt lat="52.720198" lon="06.034014"><ele>-1.9</ele><time>2022-09-06T13:45:57Z</time><name>PT7447</name></trkpt>
<trkpt lat="52.720194" lon="06.033997"><ele>-1.9</ele><time>2022-09-06T13:45:58Z</time><name>PT7448</name></trkpt>
<trkpt lat="52.720188" lon="06.033982"><ele>-2.1</ele><time>2022-09-06T13:45:59Z</time><name>PT7449</name></trkpt>
<trkpt lat="52.720183" lon="06.033970"><ele>-2.1</ele><time>2022-09-06T13:46:00Z</time><name>PT7450</name></trkpt>
<trkpt lat="52.720177" lon="06.033955"><ele>-2.4</ele><time>2022-09-06T13:46:01Z</time><name>PT7451</name></trkpt>
<trkpt lat="52.720170" lon="06.033941"><ele>-2.3</ele><time>2022-09-06T13:46:02Z</time><name>PT7452</name></trkpt>
<trkpt lat="52.720164" lon="06.033924"><ele>-2.2</ele><time>2022-09-06T13:46:03Z</time><name>PT7453</name></trkpt>
<trkpt lat="52.720157" lon="06.033908"><ele>-2.4</ele><time>2022-09-06T13:46:04Z</time><name>PT7454</name></trkpt>
<trkpt lat="52.720149" lon="06.033891"><ele>-2.1</ele><time>2022-09-06T13:46:05Z</time><name>PT7455</name></trkpt>
<trkpt lat="52.720143" lon="06.033878"><ele>-2</ele><time>2022-09-06T13:46:06Z</time><name>PT7456</name></trkpt>
<trkpt lat="52.720138" lon="06.033864"><ele>-2.1</ele><time>2022-09-06T13:46:07Z</time><name>PT7457</name></trkpt>
<trkpt lat="52.720134" lon="06.033849"><ele>-2.1</ele><time>2022-09-06T13:46:08Z</time><name>PT7458</name></trkpt>
<trkpt lat="52.720128" lon="06.033832"><ele>-1.9</ele><time>2022-09-06T13:46:09Z</time><name>PT7459</name></trkpt>
<trkpt lat="52.720122" lon="06.033816"><ele>-1.9</ele><time>2022-09-06T13:46:10Z</time><name>PT7460</name></trkpt>
<trkpt lat="52.720117" lon="06.033798"><ele>-2.2</ele><time>2022-09-06T13:46:11Z</time><name>PT7461</name></trkpt>
<trkpt lat="52.720114" lon="06.033782"><ele>-2.2</ele><time>2022-09-06T13:46:12Z</time><name>PT7462</name></trkpt>
<trkpt lat="52.720109" lon="06.033768"><ele>-2.2</ele><time>2022-09-06T13:46:13Z</time><name>PT7463</name></trkpt>
<trkpt lat="52.720103" lon="06.033755"><ele>-2</ele><time>2022-09-06T13:46:14Z</time><name>PT7464</name></trkpt>
<trkpt lat="52.720097" lon="06.033743"><ele>-2</ele><time>2022-09-06T13:46:15Z</time><name>PT7465</name></trkpt>
<trkpt lat="52.720090" lon="06.033729"><ele>-1.7</ele><time>2022-09-06T13:46:16Z</time><name>PT7466</name></trkpt>
<trkpt lat="52.720083" lon="06.033712"><ele>-1.8</ele><time>2022-09-06T13:46:17Z</time><name>PT7467</name></trkpt>
<trkpt lat="52.720078" lon="06.033699"><ele>-1.9</ele><time>2022-09-06T13:46:18Z</time><name>PT7468</name></trkpt>
<trkpt lat="52.720072" lon="06.033684"><ele>-2.1</ele><time>2022-09-06T13:46:19Z</time><name>PT7469</name></trkpt>
<trkpt lat="52.720067" lon="06.033667"><ele>-2.1</ele><time>2022-09-06T13:46:20Z</time><name>PT7470</name></trkpt>
<trkpt lat="52.720062" lon="06.033651"><ele>-2.2</ele><time>2022-09-06T13:46:21Z</time><name>PT7471</name></trkpt>
<trkpt lat="52.720058" lon="06.033634"><ele>-2.1</ele><time>2022-09-06T13:46:22Z</time><name>PT7472</name></trkpt>
<trkpt lat="52.720052" lon="06.033617"><ele>-2</ele><time>2022-09-06T13:46:23Z</time><name>PT7473</name></trkpt>
<trkpt lat="52.720046" lon="06.033602"><ele>-2.2</ele><time>2022-09-06T13:46:24Z</time><name>PT7474</name></trkpt>
<trkpt lat="52.720040" lon="06.033587"><ele>-2.2</ele><time>2022-09-06T13:46:25Z</time><name>PT7475</name></trkpt>
<trkpt lat="52.720035" lon="06.033573"><ele>-2.4</ele><time>2022-09-06T13:46:26Z</time><name>PT7476</name></trkpt>
<trkpt lat="52.720030" lon="06.033560"><ele>-2.4</ele><time>2022-09-06T13:46:27Z</time><name>PT7477</name></trkpt>
<trkpt lat="52.720024" lon="06.033545"><ele>-2.3</ele><time>2022-09-06T13:46:28Z</time><name>PT7478</name></trkpt>
<trkpt lat="52.720017" lon="06.033530"><ele>-2.1</ele><time>2022-09-06T13:46:29Z</time><name>PT7479</name></trkpt>
<trkpt lat="52.720009" lon="06.033513"><ele>-1.9</ele><time>2022-09-06T13:46:30Z</time><name>PT7480</name></trkpt>
<trkpt lat="52.720001" lon="06.033495"><ele>-1.9</ele><time>2022-09-06T13:46:31Z</time><name>PT7481</name></trkpt>
<trkpt lat="52.719996" lon="06.033480"><ele>-1.9</ele><time>2022-09-06T13:46:32Z</time><name>PT7482</name></trkpt>
<trkpt lat="52.719992" lon="06.033466"><ele>-1.9</ele><time>2022-09-06T13:46:33Z</time><name>PT7483</name></trkpt>
<trkpt lat="52.719987" lon="06.033450"><ele>-2.2</ele><time>2022-09-06T13:46:34Z</time><name>PT7484</name></trkpt>
<trkpt lat="52.719984" lon="06.033434"><ele>-2.1</ele><time>2022-09-06T13:46:35Z</time><name>PT7485</name></trkpt>
<trkpt lat="52.719979" lon="06.033417"><ele>-2.2</ele><time>2022-09-06T13:46:36Z</time><name>PT7486</name></trkpt>
<trkpt lat="52.719975" lon="06.033402"><ele>-2</ele><time>2022-09-06T13:46:37Z</time><name>PT7487</name></trkpt>
<trkpt lat="52.719971" lon="06.033389"><ele>-1.9</ele><time>2022-09-06T13:46:38Z</time><name>PT7488</name></trkpt>
<trkpt lat="52.719965" lon="06.033375"><ele>-1.8</ele><time>2022-09-06T13:46:39Z</time><name>PT7489</name></trkpt>
<trkpt lat="52.719958" lon="06.033360"><ele>-1.8</ele><time>2022-09-06T13:46:40Z</time><name>PT7490</name></trkpt>
<trkpt lat="52.719951" lon="06.033343"><ele>-1.9</ele><time>2022-09-06T13:46:41Z</time><name>PT7491</name></trkpt>
<trkpt lat="52.719946" lon="06.033329"><ele>-1.9</ele><time>2022-09-06T13:46:42Z</time><name>PT7492</name></trkpt>
<trkpt lat="52.719939" lon="06.033315"><ele>-2</ele><time>2022-09-06T13:46:43Z</time><name>PT7493</name></trkpt>
<trkpt lat="52.719933" lon="06.033300"><ele>-2.2</ele><time>2022-09-06T13:46:44Z</time><name>PT7494</name></trkpt>
<trkpt lat="52.719928" lon="06.033284"><ele>-2.1</ele><time>2022-09-06T13:46:45Z</time><name>PT7495</name></trkpt>
<trkpt lat="52.719922" lon="06.033266"><ele>-2</ele><time>2022-09-06T13:46:46Z</time><name>PT7496</name></trkpt>
<trkpt lat="52.719917" lon="06.033249"><ele>-2</ele><time>2022-09-06T13:46:47Z</time><name>PT7497</name></trkpt>
<trkpt lat="52.719914" lon="06.033232"><ele>-1.9</ele><time>2022-09-06T13:46:48Z</time><name>PT7498</name></trkpt>
<trkpt lat="52.719909" lon="06.033218"><ele>-1.7</ele><time>2022-09-06T13:46:49Z</time><name>PT7499</name></trkpt>
<trkpt lat="52.719903" lon="06.033205"><ele>-1.5</ele><time>2022-09-06T13:46:50Z</time><name>PT7500</name></trkpt>
<trkpt lat="52.719898" lon="06.033194"><ele>-1.6</ele><time>2022-09-06T13:46:51Z</time><name>PT7501</name></trkpt>
<trkpt lat="52.719893" lon="06.033181"><ele>-1.9</ele><time>2022-09-06T13:46:52Z</time><name>PT7502</name></trkpt>
<trkpt lat="52.719888" lon="06.033166"><ele>-1.9</ele><time>2022-09-06T13:46:53Z</time><name>PT7503</name></trkpt>
<trkpt lat="52.719884" lon="06.033158"><ele>-2.1</ele><time>2022-09-06T13:46:54Z</time><name>PT7504</name></trkpt>
<trkpt lat="52.719881" lon="06.033146"><ele>-2</ele><time>2022-09-06T13:46:55Z</time><name>PT7505</name></trkpt>
<trkpt lat="52.719877" lon="06.033132"><ele>-1.9</ele><time>2022-09-06T13:46:56Z</time><name>PT7506</name></trkpt>
<trkpt lat="52.719874" lon="06.033119"><ele>-2.1</ele><time>2022-09-06T13:46:57Z</time><name>PT7507</name></trkpt>
<trkpt lat="52.719872" lon="06.033107"><ele>-2.1</ele><time>2022-09-06T13:46:58Z</time><name>PT7508</name></trkpt>
<trkpt lat="52.719869" lon="06.033093"><ele>-2.4</ele><time>2022-09-06T13:46:59Z</time><name>PT7509</name></trkpt>
<trkpt lat="52.719868" lon="06.033079"><ele>-2.5</ele><time>2022-09-06T13:47:00Z</time><name>PT7510</name></trkpt>
<trkpt lat="52.719866" lon="06.033063"><ele>-2.4</ele><time>2022-09-06T13:47:01Z</time><name>PT7511</name></trkpt>
<trkpt lat="52.719864" lon="06.033048"><ele>-2.2</ele><time>2022-09-06T13:47:02Z</time><name>PT7512</name></trkpt>
<trkpt lat="52.719862" lon="06.033032"><ele>-2.2</ele><time>2022-09-06T13:47:03Z</time><name>PT7513</name></trkpt>
<trkpt lat="52.719862" lon="06.033021"><ele>-2</ele><time>2022-09-06T13:47:04Z</time><name>PT7514</name></trkpt>
<trkpt lat="52.719861" lon="06.033009"><ele>-2.1</ele><time>2022-09-06T13:47:05Z</time><name>PT7515</name></trkpt>
<trkpt lat="52.719860" lon="06.032999"><ele>-2.2</ele><time>2022-09-06T13:47:06Z</time><name>PT7516</name></trkpt>
<trkpt lat="52.719860" lon="06.032993"><ele>-2.1</ele><time>2022-09-06T13:47:07Z</time><name>PT7517</name></trkpt>
<trkpt lat="52.719860" lon="06.032989"><ele>-2.1</ele><time>2022-09-06T13:47:08Z</time><name>PT7518</name></trkpt>
<trkpt lat="52.719863" lon="06.032981"><ele>-2</ele><time>2022-09-06T13:47:09Z</time><name>PT7519</name></trkpt>
<trkpt lat="52.719864" lon="06.032976"><ele>-1.9</ele><time>2022-09-06T13:47:10Z</time><name>PT7520</name></trkpt>
<trkpt lat="52.719862" lon="06.032969"><ele>-1.9</ele><time>2022-09-06T13:47:29Z</time><name>PT7521</name></trkpt>
<trkpt lat="52.719862" lon="06.032974"><ele>-1.9</ele><time>2022-09-06T13:47:30Z</time><name>PT7522</name></trkpt>
<trkpt lat="52.719862" lon="06.032974"><ele>-1.9</ele><time>2022-09-06T13:47:31Z</time><name>PT7523</name></trkpt>
<trkpt lat="52.719863" lon="06.032969"><ele>-1.9</ele><time>2022-09-06T13:47:32Z</time><name>PT7524</name></trkpt>
<trkpt lat="52.719868" lon="06.032960"><ele>-1.9</ele><time>2022-09-06T13:47:33Z</time><name>PT7525</name></trkpt>
<trkpt lat="52.719870" lon="06.032954"><ele>-1.9</ele><time>2022-09-06T13:47:34Z</time><name>PT7526</name></trkpt>
<trkpt lat="52.719869" lon="06.032954"><ele>-2</ele><time>2022-09-06T13:47:35Z</time><name>PT7527</name></trkpt>
<trkpt lat="52.719869" lon="06.032952"><ele>-2.1</ele><time>2022-09-06T13:47:36Z</time><name>PT7528</name></trkpt>
<trkpt lat="52.719869" lon="06.032958"><ele>-2.3</ele><time>2022-09-06T13:47:37Z</time><name>PT7529</name></trkpt>
<trkpt lat="52.719869" lon="06.032957"><ele>-2.3</ele><time>2022-09-06T13:47:38Z</time><name>PT7530</name></trkpt>
<trkpt lat="52.719868" lon="06.032959"><ele>-2.1</ele><time>2022-09-06T13:47:39Z</time><name>PT7531</name></trkpt>
<trkpt lat="52.719867" lon="06.032957"><ele>-1.9</ele><time>2022-09-06T13:47:40Z</time><name>PT7532</name></trkpt>
<trkpt lat="52.719868" lon="06.032953"><ele>-1.9</ele><time>2022-09-06T13:47:41Z</time><name>PT7533</name></trkpt>
<trkpt lat="52.719869" lon="06.032956"><ele>-1.9</ele><time>2022-09-06T13:47:42Z</time><name>PT7534</name></trkpt>
<trkpt lat="52.719866" lon="06.032954"><ele>-2</ele><time>2022-09-06T13:47:43Z</time><name>PT7535</name></trkpt>
<trkpt lat="52.719864" lon="06.032955"><ele>-2</ele><time>2022-09-06T13:47:44Z</time><name>PT7536</name></trkpt>
<trkpt lat="52.719860" lon="06.032954"><ele>-1.9</ele><time>2022-09-06T13:47:45Z</time><name>PT7537</name></trkpt>
<trkpt lat="52.719857" lon="06.032955"><ele>-2.3</ele><time>2022-09-06T13:47:46Z</time><name>PT7538</name></trkpt>
<trkpt lat="52.719854" lon="06.032954"><ele>-2.4</ele><time>2022-09-06T13:47:47Z</time><name>PT7539</name></trkpt>
<trkpt lat="52.719853" lon="06.032956"><ele>-2.4</ele><time>2022-09-06T13:47:48Z</time><name>PT7540</name></trkpt>
<trkpt lat="52.719850" lon="06.032959"><ele>-2.7</ele><time>2022-09-06T13:47:49Z</time><name>PT7541</name></trkpt>
<trkpt lat="52.719846" lon="06.032962"><ele>-2.5</ele><time>2022-09-06T13:47:50Z</time><name>PT7542</name></trkpt>
<trkpt lat="52.719840" lon="06.032962"><ele>-2.5</ele><time>2022-09-06T13:47:51Z</time><name>PT7543</name></trkpt>
<trkpt lat="52.719836" lon="06.032961"><ele>-2.4</ele><time>2022-09-06T13:47:52Z</time><name>PT7544</name></trkpt>
<trkpt lat="52.719832" lon="06.032962"><ele>-2.3</ele><time>2022-09-06T13:47:53Z</time><name>PT7545</name></trkpt>
<trkpt lat="52.719831" lon="06.032968"><ele>-2.3</ele><time>2022-09-06T13:47:56Z</time><name>PT7546</name></trkpt>
<trkpt lat="52.719827" lon="06.032969"><ele>-2.2</ele><time>2022-09-06T13:47:57Z</time><name>PT7547</name></trkpt>
<trkpt lat="52.719822" lon="06.032968"><ele>-1.9</ele><time>2022-09-06T13:47:58Z</time><name>PT7548</name></trkpt>
<trkpt lat="52.719818" lon="06.032969"><ele>-2</ele><time>2022-09-06T13:47:59Z</time><name>PT7549</name></trkpt>
<trkpt lat="52.719815" lon="06.032970"><ele>-1.9</ele><time>2022-09-06T13:48:00Z</time><name>PT7550</name></trkpt>
<trkpt lat="52.719815" lon="06.032963"><ele>-1.9</ele><time>2022-09-06T13:48:01Z</time><name>PT7551</name></trkpt>
<trkpt lat="52.719816" lon="06.032963"><ele>-2.7</ele><time>2022-09-06T13:48:18Z</time><name>PT7552</name></trkpt>
<trkpt lat="52.719812" lon="06.032965"><ele>-2.5</ele><time>2022-09-06T13:48:19Z</time><name>PT7553</name></trkpt>
<trkpt lat="52.719808" lon="06.032970"><ele>-2.3</ele><time>2022-09-06T13:48:20Z</time><name>PT7554</name></trkpt>
<trkpt lat="52.719801" lon="06.032975"><ele>-2.2</ele><time>2022-09-06T13:48:21Z</time><name>PT7555</name></trkpt>
<trkpt lat="52.719792" lon="06.032983"><ele>-2.2</ele><time>2022-09-06T13:48:22Z</time><name>PT7556</name></trkpt>
<trkpt lat="52.719782" lon="06.032996"><ele>-2</ele><time>2022-09-06T13:48:23Z</time><name>PT7557</name></trkpt>
<trkpt lat="52.719777" lon="06.033008"><ele>-1.9</ele><time>2022-09-06T13:48:24Z</time><name>PT7558</name></trkpt>
<trkpt lat="52.719772" lon="06.033022"><ele>-2.2</ele><time>2022-09-06T13:48:25Z</time><name>PT7559</name></trkpt>
<trkpt lat="52.719770" lon="06.033032"><ele>-2.2</ele><time>2022-09-06T13:48:26Z</time><name>PT7560</name></trkpt>
<trkpt lat="52.719760" lon="06.033038"><ele>-2.3</ele><time>2022-09-06T13:48:27Z</time><name>PT7561</name></trkpt>
<trkpt lat="52.719751" lon="06.033049"><ele>-2.4</ele><time>2022-09-06T13:48:28Z</time><name>PT7562</name></trkpt>
<trkpt lat="52.719745" lon="06.033063"><ele>-2.4</ele><time>2022-09-06T13:48:29Z</time><name>PT7563</name></trkpt>
<trkpt lat="52.719739" lon="06.033074"><ele>-2.4</ele><time>2022-09-06T13:48:30Z</time><name>PT7564</name></trkpt>
<trkpt lat="52.719737" lon="06.033085"><ele>-2.4</ele><time>2022-09-06T13:48:31Z</time><name>PT7565</name></trkpt>
<trkpt lat="52.719737" lon="06.033098"><ele>-2.5</ele><time>2022-09-06T13:48:32Z</time><name>PT7566</name></trkpt>
<trkpt lat="52.719738" lon="06.033110"><ele>-2.6</ele><time>2022-09-06T13:48:33Z</time><name>PT7567</name></trkpt>
<trkpt lat="52.719737" lon="06.033118"><ele>-2.6</ele><time>2022-09-06T13:48:34Z</time><name>PT7568</name></trkpt>
<trkpt lat="52.719738" lon="06.033127"><ele>-2.7</ele><time>2022-09-06T13:48:35Z</time><name>PT7569</name></trkpt>
<trkpt lat="52.719739" lon="06.033137"><ele>-2.7</ele><time>2022-09-06T13:48:36Z</time><name>PT7570</name></trkpt>
<trkpt lat="52.719739" lon="06.033149"><ele>-2.6</ele><time>2022-09-06T13:48:37Z</time><name>PT7571</name></trkpt>
<trkpt lat="52.719739" lon="06.033160"><ele>-2.4</ele><time>2022-09-06T13:48:38Z</time><name>PT7572</name></trkpt>
<trkpt lat="52.719739" lon="06.033175"><ele>-2.5</ele><time>2022-09-06T13:48:39Z</time><name>PT7573</name></trkpt>
<trkpt lat="52.719737" lon="06.033191"><ele>-2.3</ele><time>2022-09-06T13:48:40Z</time><name>PT7574</name></trkpt>
<trkpt lat="52.719736" lon="06.033202"><ele>-2.3</ele><time>2022-09-06T13:48:41Z</time><name>PT7575</name></trkpt>
<trkpt lat="52.719735" lon="06.033212"><ele>-2.3</ele><time>2022-09-06T13:48:42Z</time><name>PT7576</name></trkpt>
<trkpt lat="52.719735" lon="06.033224"><ele>-2.3</ele><time>2022-09-06T13:48:43Z</time><name>PT7577</name></trkpt>
<trkpt lat="52.719736" lon="06.033237"><ele>-2.4</ele><time>2022-09-06T13:48:44Z</time><name>PT7578</name></trkpt>
<trkpt lat="52.719737" lon="06.033255"><ele>-2.4</ele><time>2022-09-06T13:48:45Z</time><name>PT7579</name></trkpt>
<trkpt lat="52.719738" lon="06.033269"><ele>-2.4</ele><time>2022-09-06T13:48:46Z</time><name>PT7580</name></trkpt>
<trkpt lat="52.719737" lon="06.033281"><ele>-2.3</ele><time>2022-09-06T13:48:47Z</time><name>PT7581</name></trkpt>
<trkpt lat="52.719737" lon="06.033293"><ele>-2.3</ele><time>2022-09-06T13:48:48Z</time><name>PT7582</name></trkpt>
<trkpt lat="52.719736" lon="06.033307"><ele>-2.3</ele><time>2022-09-06T13:48:49Z</time><name>PT7583</name></trkpt>
<trkpt lat="52.719736" lon="06.033318"><ele>-2.4</ele><time>2022-09-06T13:48:50Z</time><name>PT7584</name></trkpt>
<trkpt lat="52.719737" lon="06.033328"><ele>-2.3</ele><time>2022-09-06T13:48:51Z</time><name>PT7585</name></trkpt>
<trkpt lat="52.719735" lon="06.033341"><ele>-2.4</ele><time>2022-09-06T13:48:52Z</time><name>PT7586</name></trkpt>
<trkpt lat="52.719735" lon="06.033355"><ele>-2.3</ele><time>2022-09-06T13:48:53Z</time><name>PT7587</name></trkpt>
<trkpt lat="52.719734" lon="06.033369"><ele>-2.4</ele><time>2022-09-06T13:48:54Z</time><name>PT7588</name></trkpt>
<trkpt lat="52.719732" lon="06.033382"><ele>-2.5</ele><time>2022-09-06T13:48:55Z</time><name>PT7589</name></trkpt>
<trkpt lat="52.719729" lon="06.033395"><ele>-2.5</ele><time>2022-09-06T13:48:56Z</time><name>PT7590</name></trkpt>
<trkpt lat="52.719727" lon="06.033411"><ele>-2.4</ele><time>2022-09-06T13:48:57Z</time><name>PT7591</name></trkpt>
<trkpt lat="52.719722" lon="06.033422"><ele>-2.5</ele><time>2022-09-06T13:48:58Z</time><name>PT7592</name></trkpt>
<trkpt lat="52.719716" lon="06.033435"><ele>-2.4</ele><time>2022-09-06T13:48:59Z</time><name>PT7593</name></trkpt>
<trkpt lat="52.719710" lon="06.033443"><ele>-2.6</ele><time>2022-09-06T13:49:00Z</time><name>PT7594</name></trkpt>
<trkpt lat="52.719703" lon="06.033451"><ele>-2.7</ele><time>2022-09-06T13:49:01Z</time><name>PT7595</name></trkpt>
<trkpt lat="52.719695" lon="06.033459"><ele>-3</ele><time>2022-09-06T13:49:02Z</time><name>PT7596</name></trkpt>
<trkpt lat="52.719688" lon="06.033466"><ele>-3.1</ele><time>2022-09-06T13:49:03Z</time><name>PT7597</name></trkpt>
<trkpt lat="52.719682" lon="06.033473"><ele>-3.2</ele><time>2022-09-06T13:49:04Z</time><name>PT7598</name></trkpt>
<trkpt lat="52.719676" lon="06.033479"><ele>-3.1</ele><time>2022-09-06T13:49:05Z</time><name>PT7599</name></trkpt>
<trkpt lat="52.719671" lon="06.033487"><ele>-2.9</ele><time>2022-09-06T13:49:06Z</time><name>PT7600</name></trkpt>
<trkpt lat="52.719665" lon="06.033496"><ele>-2.8</ele><time>2022-09-06T13:49:07Z</time><name>PT7601</name></trkpt>
<trkpt lat="52.719658" lon="06.033502"><ele>-2.5</ele><time>2022-09-06T13:49:08Z</time><name>PT7602</name></trkpt>
<trkpt lat="52.719653" lon="06.033511"><ele>-2.4</ele><time>2022-09-06T13:49:09Z</time><name>PT7603</name></trkpt>
<trkpt lat="52.719649" lon="06.033517"><ele>-2.4</ele><time>2022-09-06T13:49:10Z</time><name>PT7604</name></trkpt>
<trkpt lat="52.719649" lon="06.033516"><ele>-2.4</ele><time>2022-09-06T13:49:11Z</time><name>PT7605</name></trkpt>
<trkpt lat="52.719646" lon="06.033523"><ele>-2.3</ele><time>2022-09-06T13:49:12Z</time><name>PT7606</name></trkpt>
<trkpt lat="52.719640" lon="06.033532"><ele>-2.4</ele><time>2022-09-06T13:49:13Z</time><name>PT7607</name></trkpt>
<trkpt lat="52.719634" lon="06.033540"><ele>-2.5</ele><time>2022-09-06T13:49:14Z</time><name>PT7608</name></trkpt>
<trkpt lat="52.719629" lon="06.033546"><ele>-2.4</ele><time>2022-09-06T13:49:15Z</time><name>PT7609</name></trkpt>
<trkpt lat="52.719623" lon="06.033552"><ele>-2.4</ele><time>2022-09-06T13:49:16Z</time><name>PT7610</name></trkpt>
<trkpt lat="52.719615" lon="06.033555"><ele>-2.6</ele><time>2022-09-06T13:49:17Z</time><name>PT7611</name></trkpt>
<trkpt lat="52.719607" lon="06.033556"><ele>-2.7</ele><time>2022-09-06T13:49:18Z</time><name>PT7612</name></trkpt>
<trkpt lat="52.719601" lon="06.033558"><ele>-2.6</ele><time>2022-09-06T13:49:19Z</time><name>PT7613</name></trkpt>
<trkpt lat="52.719594" lon="06.033560"><ele>-2.5</ele><time>2022-09-06T13:49:20Z</time><name>PT7614</name></trkpt>
<trkpt lat="52.719588" lon="06.033562"><ele>-2.7</ele><time>2022-09-06T13:49:21Z</time><name>PT7615</name></trkpt>
<trkpt lat="52.719580" lon="06.033562"><ele>-2.7</ele><time>2022-09-06T13:49:22Z</time><name>PT7616</name></trkpt>
<trkpt lat="52.719572" lon="06.033564"><ele>-2.6</ele><time>2022-09-06T13:49:23Z</time><name>PT7617</name></trkpt>
<trkpt lat="52.719566" lon="06.033568"><ele>-2.5</ele><time>2022-09-06T13:49:24Z</time><name>PT7618</name></trkpt>
<trkpt lat="52.719558" lon="06.033571"><ele>-2.7</ele><time>2022-09-06T13:49:25Z</time><name>PT7619</name></trkpt>
<trkpt lat="52.719548" lon="06.033575"><ele>-2.5</ele><time>2022-09-06T13:49:26Z</time><name>PT7620</name></trkpt>
<trkpt lat="52.719540" lon="06.033583"><ele>-2.6</ele><time>2022-09-06T13:49:27Z</time><name>PT7621</name></trkpt>
<trkpt lat="52.719532" lon="06.033588"><ele>-2.7</ele><time>2022-09-06T13:49:28Z</time><name>PT7622</name></trkpt>
<trkpt lat="52.719525" lon="06.033590"><ele>-2.6</ele><time>2022-09-06T13:49:29Z</time><name>PT7623</name></trkpt>
<trkpt lat="52.719520" lon="06.033592"><ele>-2.5</ele><time>2022-09-06T13:49:30Z</time><name>PT7624</name></trkpt>
<trkpt lat="52.719513" lon="06.033592"><ele>-2.4</ele><time>2022-09-06T13:49:31Z</time><name>PT7625</name></trkpt>
<trkpt lat="52.719504" lon="06.033593"><ele>-2.3</ele><time>2022-09-06T13:49:32Z</time><name>PT7626</name></trkpt>
<trkpt lat="52.719496" lon="06.033593"><ele>-2.3</ele><time>2022-09-06T13:49:33Z</time><name>PT7627</name></trkpt>
<trkpt lat="52.719488" lon="06.033593"><ele>-2.3</ele><time>2022-09-06T13:49:34Z</time><name>PT7628</name></trkpt>
<trkpt lat="52.719481" lon="06.033592"><ele>-2.5</ele><time>2022-09-06T13:49:35Z</time><name>PT7629</name></trkpt>
<trkpt lat="52.719477" lon="06.033587"><ele>-2.4</ele><time>2022-09-06T13:49:36Z</time><name>PT7630</name></trkpt>
<trkpt lat="52.719473" lon="06.033582"><ele>-2.4</ele><time>2022-09-06T13:49:37Z</time><name>PT7631</name></trkpt>
<trkpt lat="52.719471" lon="06.033574"><ele>-2.2</ele><time>2022-09-06T13:49:38Z</time><name>PT7632</name></trkpt>
<trkpt lat="52.719469" lon="06.033567"><ele>-2.2</ele><time>2022-09-06T13:49:39Z</time><name>PT7633</name></trkpt>
<trkpt lat="52.719469" lon="06.033556"><ele>-2.1</ele><time>2022-09-06T13:49:40Z</time><name>PT7634</name></trkpt>
<trkpt lat="52.719468" lon="06.033546"><ele>-2.2</ele><time>2022-09-06T13:49:41Z</time><name>PT7635</name></trkpt>
<trkpt lat="52.719465" lon="06.033538"><ele>-2.3</ele><time>2022-09-06T13:49:42Z</time><name>PT7636</name></trkpt>
<trkpt lat="52.719465" lon="06.033531"><ele>-2.4</ele><time>2022-09-06T13:49:43Z</time><name>PT7637</name></trkpt>
<trkpt lat="52.719466" lon="06.033522"><ele>-2.3</ele><time>2022-09-06T13:49:44Z</time><name>PT7638</name></trkpt>
<trkpt lat="52.719465" lon="06.033514"><ele>-2.3</ele><time>2022-09-06T13:49:45Z</time><name>PT7639</name></trkpt>
<trkpt lat="52.719470" lon="06.033504"><ele>-2.4</ele><time>2022-09-06T13:49:46Z</time><name>PT7640</name></trkpt>
<trkpt lat="52.719470" lon="06.033499"><ele>-2.3</ele><time>2022-09-06T13:49:47Z</time><name>PT7641</name></trkpt>
<trkpt lat="52.719468" lon="06.033494"><ele>-2.3</ele><time>2022-09-06T13:49:48Z</time><name>PT7642</name></trkpt>
<trkpt lat="52.719467" lon="06.033489"><ele>-2.4</ele><time>2022-09-06T13:49:49Z</time><name>PT7643</name></trkpt>
<trkpt lat="52.719466" lon="06.033483"><ele>-2.6</ele><time>2022-09-06T13:49:50Z</time><name>PT7644</name></trkpt>
<trkpt lat="52.719465" lon="06.033477"><ele>-2.6</ele><time>2022-09-06T13:49:51Z</time><name>PT7645</name></trkpt>
<trkpt lat="52.719463" lon="06.033471"><ele>-2.7</ele><time>2022-09-06T13:49:52Z</time><name>PT7646</name></trkpt>
<trkpt lat="52.719461" lon="06.033467"><ele>-2.7</ele><time>2022-09-06T13:49:53Z</time><name>PT7647</name></trkpt>
<trkpt lat="52.719461" lon="06.033462"><ele>-2.8</ele><time>2022-09-06T13:49:54Z</time><name>PT7648</name></trkpt>
<trkpt lat="52.719459" lon="06.033458"><ele>-2.7</ele><time>2022-09-06T13:50:02Z</time><name>PT7649</name></trkpt>
<trkpt lat="52.719462" lon="06.033447"><ele>-2.6</ele><time>2022-09-06T13:50:03Z</time><name>PT7650</name></trkpt>
<trkpt lat="52.719462" lon="06.033441"><ele>-2.4</ele><time>2022-09-06T13:50:04Z</time><name>PT7651</name></trkpt>
<trkpt lat="52.719463" lon="06.033427"><ele>-2.4</ele><time>2022-09-06T13:50:05Z</time><name>PT7652</name></trkpt>
<trkpt lat="52.719463" lon="06.033414"><ele>-2.4</ele><time>2022-09-06T13:50:06Z</time><name>PT7653</name></trkpt>
<trkpt lat="52.719464" lon="06.033398"><ele>-2.4</ele><time>2022-09-06T13:50:07Z</time><name>PT7654</name></trkpt>
<trkpt lat="52.719464" lon="06.033386"><ele>-2.4</ele><time>2022-09-06T13:50:08Z</time><name>PT7655</name></trkpt>
<trkpt lat="52.719463" lon="06.033375"><ele>-2.6</ele><time>2022-09-06T13:50:09Z</time><name>PT7656</name></trkpt>
<trkpt lat="52.719462" lon="06.033359"><ele>-2.6</ele><time>2022-09-06T13:50:10Z</time><name>PT7657</name></trkpt>
<trkpt lat="52.719459" lon="06.033345"><ele>-2.6</ele><time>2022-09-06T13:50:11Z</time><name>PT7658</name></trkpt>
<trkpt lat="52.719456" lon="06.033337"><ele>-2.6</ele><time>2022-09-06T13:50:12Z</time><name>PT7659</name></trkpt>
<trkpt lat="52.719458" lon="06.033325"><ele>-2.4</ele><time>2022-09-06T13:50:13Z</time><name>PT7660</name></trkpt>
<trkpt lat="52.719459" lon="06.033314"><ele>-2.3</ele><time>2022-09-06T13:50:14Z</time><name>PT7661</name></trkpt>
<trkpt lat="52.719460" lon="06.033303"><ele>-2.2</ele><time>2022-09-06T13:50:15Z</time><name>PT7662</name></trkpt>
<trkpt lat="52.719458" lon="06.033293"><ele>-2.1</ele><time>2022-09-06T13:50:16Z</time><name>PT7663</name></trkpt>
<trkpt lat="52.719457" lon="06.033282"><ele>-2.2</ele><time>2022-09-06T13:50:18Z</time><name>PT7664</name></trkpt>
<trkpt lat="52.719454" lon="06.033271"><ele>-2.2</ele><time>2022-09-06T13:50:18Z</time><name>PT7665</name></trkpt>
<trkpt lat="52.719453" lon="06.033262"><ele>-2.2</ele><time>2022-09-06T13:50:19Z</time><name>PT7666</name></trkpt>
<trkpt lat="52.719452" lon="06.033251"><ele>-2.2</ele><time>2022-09-06T13:50:20Z</time><name>PT7667</name></trkpt>
<trkpt lat="52.719453" lon="06.033239"><ele>-2.2</ele><time>2022-09-06T13:50:21Z</time><name>PT7668</name></trkpt>
<trkpt lat="52.719452" lon="06.033228"><ele>-2.1</ele><time>2022-09-06T13:50:22Z</time><name>PT7669</name></trkpt>
<trkpt lat="52.719450" lon="06.033215"><ele>-2.1</ele><time>2022-09-06T13:50:23Z</time><name>PT7670</name></trkpt>
<trkpt lat="52.719449" lon="06.033208"><ele>-2.2</ele><time>2022-09-06T13:50:24Z</time><name>PT7671</name></trkpt>
<trkpt lat="52.719449" lon="06.033197"><ele>-2.3</ele><time>2022-09-06T13:50:25Z</time><name>PT7672</name></trkpt>
<trkpt lat="52.719449" lon="06.033187"><ele>-2.2</ele><time>2022-09-06T13:50:26Z</time><name>PT7673</name></trkpt>
<trkpt lat="52.719451" lon="06.033178"><ele>-2.2</ele><time>2022-09-06T13:50:27Z</time><name>PT7674</name></trkpt>
<trkpt lat="52.719451" lon="06.033165"><ele>-2.4</ele><time>2022-09-06T13:50:28Z</time><name>PT7675</name></trkpt>
<trkpt lat="52.719453" lon="06.033150"><ele>-2.4</ele><time>2022-09-06T13:50:29Z</time><name>PT7676</name></trkpt>
<trkpt lat="52.719454" lon="06.033139"><ele>-2.4</ele><time>2022-09-06T13:50:30Z</time><name>PT7677</name></trkpt>
<trkpt lat="52.719455" lon="06.033128"><ele>-2.4</ele><time>2022-09-06T13:50:31Z</time><name>PT7678</name></trkpt>
<trkpt lat="52.719455" lon="06.033115"><ele>-2.4</ele><time>2022-09-06T13:50:32Z</time><name>PT7679</name></trkpt>
<trkpt lat="52.719456" lon="06.033103"><ele>-2.4</ele><time>2022-09-06T13:50:33Z</time><name>PT7680</name></trkpt>
<trkpt lat="52.719456" lon="06.033086"><ele>-2.3</ele><time>2022-09-06T13:50:34Z</time><name>PT7681</name></trkpt>
<trkpt lat="52.719455" lon="06.033071"><ele>-2.2</ele><time>2022-09-06T13:50:35Z</time><name>PT7682</name></trkpt>
<trkpt lat="52.719453" lon="06.033058"><ele>-2.2</ele><time>2022-09-06T13:50:36Z</time><name>PT7683</name></trkpt>
<trkpt lat="52.719450" lon="06.033045"><ele>-2.2</ele><time>2022-09-06T13:50:37Z</time><name>PT7684</name></trkpt>
<trkpt lat="52.719447" lon="06.033032"><ele>-2.2</ele><time>2022-09-06T13:50:38Z</time><name>PT7685</name></trkpt>
<trkpt lat="52.719446" lon="06.033019"><ele>-2.1</ele><time>2022-09-06T13:50:39Z</time><name>PT7686</name></trkpt>
<trkpt lat="52.719444" lon="06.033008"><ele>-2.1</ele><time>2022-09-06T13:50:40Z</time><name>PT7687</name></trkpt>
<trkpt lat="52.719442" lon="06.032996"><ele>-2.3</ele><time>2022-09-06T13:50:41Z</time><name>PT7688</name></trkpt>
<trkpt lat="52.719441" lon="06.032982"><ele>-2.2</ele><time>2022-09-06T13:50:42Z</time><name>PT7689</name></trkpt>
<trkpt lat="52.719441" lon="06.032968"><ele>-2.1</ele><time>2022-09-06T13:50:43Z</time><name>PT7690</name></trkpt>
<trkpt lat="52.719440" lon="06.032954"><ele>-2</ele><time>2022-09-06T13:50:44Z</time><name>PT7691</name></trkpt>
<trkpt lat="52.719437" lon="06.032941"><ele>-2.2</ele><time>2022-09-06T13:50:45Z</time><name>PT7692</name></trkpt>
<trkpt lat="52.719438" lon="06.032930"><ele>-2.2</ele><time>2022-09-06T13:50:46Z</time><name>PT7693</name></trkpt>
<trkpt lat="52.719439" lon="06.032919"><ele>-2.4</ele><time>2022-09-06T13:50:48Z</time><name>PT7694</name></trkpt>
<trkpt lat="52.719440" lon="06.032909"><ele>-2.4</ele><time>2022-09-06T13:50:48Z</time><name>PT7695</name></trkpt>
<trkpt lat="52.719440" lon="06.032900"><ele>-2.6</ele><time>2022-09-06T13:50:49Z</time><name>PT7696</name></trkpt>
<trkpt lat="52.719442" lon="06.032890"><ele>-2.4</ele><time>2022-09-06T13:50:50Z</time><name>PT7697</name></trkpt>
<trkpt lat="52.719445" lon="06.032870"><ele>-1.8</ele><time>2022-09-06T13:50:56Z</time><name>PT7698</name></trkpt>
<trkpt lat="52.719448" lon="06.032854"><ele>-2</ele><time>2022-09-06T13:50:57Z</time><name>PT7699</name></trkpt>
<trkpt lat="52.719448" lon="06.032837"><ele>-2.1</ele><time>2022-09-06T13:50:58Z</time><name>PT7700</name></trkpt>
<trkpt lat="52.719450" lon="06.032820"><ele>-2.2</ele><time>2022-09-06T13:50:59Z</time><name>PT7701</name></trkpt>
<trkpt lat="52.719449" lon="06.032803"><ele>-2.2</ele><time>2022-09-06T13:51:00Z</time><name>PT7702</name></trkpt>
<trkpt lat="52.719447" lon="06.032784"><ele>-2.2</ele><time>2022-09-06T13:51:01Z</time><name>PT7703</name></trkpt>
<trkpt lat="52.719448" lon="06.032770"><ele>-1.9</ele><time>2022-09-06T13:51:02Z</time><name>PT7704</name></trkpt>
<trkpt lat="52.719446" lon="06.032746"><ele>-1.9</ele><time>2022-09-06T13:51:03Z</time><name>PT7705</name></trkpt>
<trkpt lat="52.719447" lon="06.032735"><ele>-2</ele><time>2022-09-06T13:51:04Z</time><name>PT7706</name></trkpt>
<trkpt lat="52.719447" lon="06.032725"><ele>-2.1</ele><time>2022-09-06T13:51:05Z</time><name>PT7707</name></trkpt>
<trkpt lat="52.719442" lon="06.032710"><ele>-2</ele><time>2022-09-06T13:51:06Z</time><name>PT7708</name></trkpt>
<trkpt lat="52.719437" lon="06.032696"><ele>-2.2</ele><time>2022-09-06T13:51:07Z</time><name>PT7709</name></trkpt>
<trkpt lat="52.719434" lon="06.032681"><ele>-2</ele><time>2022-09-06T13:51:08Z</time><name>PT7710</name></trkpt>
<trkpt lat="52.719432" lon="06.032671"><ele>-2.2</ele><time>2022-09-06T13:51:09Z</time><name>PT7711</name></trkpt>
<trkpt lat="52.719432" lon="06.032665"><ele>-2.2</ele><time>2022-09-06T13:51:10Z</time><name>PT7712</name></trkpt>
<trkpt lat="52.719431" lon="06.032654"><ele>-2.4</ele><time>2022-09-06T13:51:11Z</time><name>PT7713</name></trkpt>
<trkpt lat="52.719432" lon="06.032642"><ele>-2.4</ele><time>2022-09-06T13:51:12Z</time><name>PT7714</name></trkpt>
<trkpt lat="52.719430" lon="06.032639"><ele>-2.4</ele><time>2022-09-06T13:51:13Z</time><name>PT7715</name></trkpt>
<trkpt lat="52.719428" lon="06.032629"><ele>-2.4</ele><time>2022-09-06T13:51:14Z</time><name>PT7716</name></trkpt>
<trkpt lat="52.719429" lon="06.032624"><ele>-2.4</ele><time>2022-09-06T13:51:15Z</time><name>PT7717</name></trkpt>
<trkpt lat="52.719429" lon="06.032620"><ele>-2.2</ele><time>2022-09-06T13:51:16Z</time><name>PT7718</name></trkpt>
<trkpt lat="52.719430" lon="06.032611"><ele>-2.2</ele><time>2022-09-06T13:51:17Z</time><name>PT7719</name></trkpt>
<trkpt lat="52.719426" lon="06.032603"><ele>-2.2</ele><time>2022-09-06T13:51:18Z</time><name>PT7720</name></trkpt>
<trkpt lat="52.719426" lon="06.032587"><ele>-2.1</ele><time>2022-09-06T13:51:19Z</time><name>PT7721</name></trkpt>
<trkpt lat="52.719427" lon="06.032573"><ele>-2.1</ele><time>2022-09-06T13:51:20Z</time><name>PT7722</name></trkpt>
<trkpt lat="52.719428" lon="06.032564"><ele>-2.1</ele><time>2022-09-06T13:51:21Z</time><name>PT7723</name></trkpt>
<trkpt lat="52.719429" lon="06.032556"><ele>-2.1</ele><time>2022-09-06T13:51:22Z</time><name>PT7724</name></trkpt>
<trkpt lat="52.719430" lon="06.032549"><ele>-2.3</ele><time>2022-09-06T13:51:23Z</time><name>PT7725</name></trkpt>
<trkpt lat="52.719427" lon="06.032535"><ele>-2.4</ele><time>2022-09-06T13:51:24Z</time><name>PT7726</name></trkpt>
<trkpt lat="52.719425" lon="06.032524"><ele>-2.2</ele><time>2022-09-06T13:51:25Z</time><name>PT7727</name></trkpt>
<trkpt lat="52.719425" lon="06.032514"><ele>-2.1</ele><time>2022-09-06T13:51:26Z</time><name>PT7728</name></trkpt>
<trkpt lat="52.719422" lon="06.032505"><ele>-2.2</ele><time>2022-09-06T13:51:27Z</time><name>PT7729</name></trkpt>
<trkpt lat="52.719418" lon="06.032493"><ele>-2.2</ele><time>2022-09-06T13:51:28Z</time><name>PT7730</name></trkpt>
<trkpt lat="52.719415" lon="06.032487"><ele>-2.3</ele><time>2022-09-06T13:51:29Z</time><name>PT7731</name></trkpt>
<trkpt lat="52.719413" lon="06.032478"><ele>-2.2</ele><time>2022-09-06T13:51:30Z</time><name>PT7732</name></trkpt>
<trkpt lat="52.719414" lon="06.032475"><ele>-2.4</ele><time>2022-09-06T13:51:31Z</time><name>PT7733</name></trkpt>
<trkpt lat="52.719412" lon="06.032470"><ele>-2.3</ele><time>2022-09-06T13:51:32Z</time><name>PT7734</name></trkpt>
<trkpt lat="52.719411" lon="06.032463"><ele>-2.4</ele><time>2022-09-06T13:51:33Z</time><name>PT7735</name></trkpt>
<trkpt lat="52.719408" lon="06.032454"><ele>-2.4</ele><time>2022-09-06T13:51:34Z</time><name>PT7736</name></trkpt>
<trkpt lat="52.719406" lon="06.032446"><ele>-2.4</ele><time>2022-09-06T13:51:35Z</time><name>PT7737</name></trkpt>
<trkpt lat="52.719405" lon="06.032441"><ele>-2.2</ele><time>2022-09-06T13:51:36Z</time><name>PT7738</name></trkpt>
<trkpt lat="52.719401" lon="06.032438"><ele>-2.1</ele><time>2022-09-06T13:51:48Z</time><name>PT7739</name></trkpt>
<trkpt lat="52.719375" lon="06.032415"><ele>-2</ele><time>2022-09-06T13:51:49Z</time><name>PT7740</name></trkpt>
<trkpt lat="52.719362" lon="06.032403"><ele>-2</ele><time>2022-09-06T13:51:50Z</time><name>PT7741</name></trkpt>
<trkpt lat="52.719352" lon="06.032400"><ele>-2.1</ele><time>2022-09-06T13:51:51Z</time><name>PT7742</name></trkpt>
<trkpt lat="52.719340" lon="06.032391"><ele>-2</ele><time>2022-09-06T13:51:52Z</time><name>PT7743</name></trkpt>
<trkpt lat="52.719332" lon="06.032384"><ele>-2</ele><time>2022-09-06T13:51:53Z</time><name>PT7744</name></trkpt>
<trkpt lat="52.719324" lon="06.032375"><ele>-2.1</ele><time>2022-09-06T13:51:54Z</time><name>PT7745</name></trkpt>
<trkpt lat="52.719312" lon="06.032364"><ele>-2.3</ele><time>2022-09-06T13:51:55Z</time><name>PT7746</name></trkpt>
<trkpt lat="52.719305" lon="06.032350"><ele>-2.2</ele><time>2022-09-06T13:51:56Z</time><name>PT7747</name></trkpt>
<trkpt lat="52.719296" lon="06.032346"><ele>-2.2</ele><time>2022-09-06T13:51:57Z</time><name>PT7748</name></trkpt>
<trkpt lat="52.719288" lon="06.032338"><ele>-2.4</ele><time>2022-09-06T13:51:58Z</time><name>PT7749</name></trkpt>
<trkpt lat="52.719279" lon="06.032340"><ele>-2.3</ele><time>2022-09-06T13:51:59Z</time><name>PT7750</name></trkpt>
<trkpt lat="52.719273" lon="06.032341"><ele>-2.2</ele><time>2022-09-06T13:52:00Z</time><name>PT7751</name></trkpt>
<trkpt lat="52.719265" lon="06.032346"><ele>-2.4</ele><time>2022-09-06T13:52:01Z</time><name>PT7752</name></trkpt>
<trkpt lat="52.719257" lon="06.032342"><ele>-2.4</ele><time>2022-09-06T13:52:02Z</time><name>PT7753</name></trkpt>
<trkpt lat="52.719247" lon="06.032342"><ele>-2.4</ele><time>2022-09-06T13:52:03Z</time><name>PT7754</name></trkpt>
<trkpt lat="52.719238" lon="06.032342"><ele>-2.3</ele><time>2022-09-06T13:52:04Z</time><name>PT7755</name></trkpt>
<trkpt lat="52.719230" lon="06.032345"><ele>-2.1</ele><time>2022-09-06T13:52:05Z</time><name>PT7756</name></trkpt>
<trkpt lat="52.719223" lon="06.032341"><ele>-2</ele><time>2022-09-06T13:52:06Z</time><name>PT7757</name></trkpt>
<trkpt lat="52.719212" lon="06.032342"><ele>-1.9</ele><time>2022-09-06T13:52:07Z</time><name>PT7758</name></trkpt>
<trkpt lat="52.719206" lon="06.032345"><ele>-1.9</ele><time>2022-09-06T13:52:08Z</time><name>PT7759</name></trkpt>
<trkpt lat="52.719198" lon="06.032352"><ele>-1.9</ele><time>2022-09-06T13:52:09Z</time><name>PT7760</name></trkpt>
<trkpt lat="52.719194" lon="06.032356"><ele>-2</ele><time>2022-09-06T13:52:10Z</time><name>PT7761</name></trkpt>
<trkpt lat="52.719182" lon="06.032354"><ele>-2</ele><time>2022-09-06T13:52:11Z</time><name>PT7762</name></trkpt>
<trkpt lat="52.719172" lon="06.032354"><ele>-2.1</ele><time>2022-09-06T13:52:12Z</time><name>PT7763</name></trkpt>
<trkpt lat="52.719164" lon="06.032357"><ele>-2.1</ele><time>2022-09-06T13:52:13Z</time><name>PT7764</name></trkpt>
<trkpt lat="52.719155" lon="06.032361"><ele>-2.2</ele><time>2022-09-06T13:52:14Z</time><name>PT7765</name></trkpt>
<trkpt lat="52.719148" lon="06.032356"><ele>-2</ele><time>2022-09-06T13:52:15Z</time><name>PT7766</name></trkpt>
<trkpt lat="52.719140" lon="06.032353"><ele>-2.3</ele><time>2022-09-06T13:52:16Z</time><name>PT7767</name></trkpt>
<trkpt lat="52.719130" lon="06.032350"><ele>-2.4</ele><time>2022-09-06T13:52:17Z</time><name>PT7768</name></trkpt>
<trkpt lat="52.719123" lon="06.032349"><ele>-2.5</ele><time>2022-09-06T13:52:18Z</time><name>PT7769</name></trkpt>
<trkpt lat="52.719116" lon="06.032345"><ele>-2.5</ele><time>2022-09-06T13:52:19Z</time><name>PT7770</name></trkpt>
<trkpt lat="52.719108" lon="06.032344"><ele>-2.5</ele><time>2022-09-06T13:52:20Z</time><name>PT7771</name></trkpt>
<trkpt lat="52.719101" lon="06.032341"><ele>-2.5</ele><time>2022-09-06T13:52:21Z</time><name>PT7772</name></trkpt>
<trkpt lat="52.719095" lon="06.032343"><ele>-2.4</ele><time>2022-09-06T13:52:22Z</time><name>PT7773</name></trkpt>
<trkpt lat="52.719090" lon="06.032347"><ele>-2.4</ele><time>2022-09-06T13:52:23Z</time><name>PT7774</name></trkpt>
<trkpt lat="52.719081" lon="06.032346"><ele>-2.4</ele><time>2022-09-06T13:52:24Z</time><name>PT7775</name></trkpt>
<trkpt lat="52.719074" lon="06.032343"><ele>-2.3</ele><time>2022-09-06T13:52:25Z</time><name>PT7776</name></trkpt>
<trkpt lat="52.719067" lon="06.032339"><ele>-2.4</ele><time>2022-09-06T13:52:26Z</time><name>PT7777</name></trkpt>
<trkpt lat="52.719058" lon="06.032338"><ele>-2.4</ele><time>2022-09-06T13:52:27Z</time><name>PT7778</name></trkpt>
<trkpt lat="52.719048" lon="06.032336"><ele>-2.2</ele><time>2022-09-06T13:52:28Z</time><name>PT7779</name></trkpt>
<trkpt lat="52.719040" lon="06.032335"><ele>-2.1</ele><time>2022-09-06T13:52:29Z</time><name>PT7780</name></trkpt>
<trkpt lat="52.719034" lon="06.032331"><ele>-2.1</ele><time>2022-09-06T13:52:30Z</time><name>PT7781</name></trkpt>
<trkpt lat="52.719028" lon="06.032330"><ele>-1.9</ele><time>2022-09-06T13:52:31Z</time><name>PT7782</name></trkpt>
<trkpt lat="52.719021" lon="06.032328"><ele>-1.9</ele><time>2022-09-06T13:52:32Z</time><name>PT7783</name></trkpt>
<trkpt lat="52.719017" lon="06.032322"><ele>-1.9</ele><time>2022-09-06T13:52:33Z</time><name>PT7784</name></trkpt>
<trkpt lat="52.719013" lon="06.032317"><ele>-1.9</ele><time>2022-09-06T13:52:34Z</time><name>PT7785</name></trkpt>
<trkpt lat="52.719008" lon="06.032312"><ele>-2.1</ele><time>2022-09-06T13:52:35Z</time><name>PT7786</name></trkpt>
<trkpt lat="52.719001" lon="06.032309"><ele>-2.2</ele><time>2022-09-06T13:52:36Z</time><name>PT7787</name></trkpt>
<trkpt lat="52.718998" lon="06.032301"><ele>-2.1</ele><time>2022-09-06T13:52:37Z</time><name>PT7788</name></trkpt>
<trkpt lat="52.718990" lon="06.032291"><ele>-2.1</ele><time>2022-09-06T13:52:38Z</time><name>PT7789</name></trkpt>
<trkpt lat="52.718984" lon="06.032287"><ele>-2</ele><time>2022-09-06T13:52:39Z</time><name>PT7790</name></trkpt>
<trkpt lat="52.718980" lon="06.032280"><ele>-2.2</ele><time>2022-09-06T13:52:40Z</time><name>PT7791</name></trkpt>
<trkpt lat="52.718975" lon="06.032273"><ele>-2.2</ele><time>2022-09-06T13:52:41Z</time><name>PT7792</name></trkpt>
<trkpt lat="52.718968" lon="06.032265"><ele>-2.2</ele><time>2022-09-06T13:52:42Z</time><name>PT7793</name></trkpt>
<trkpt lat="52.718965" lon="06.032255"><ele>-2.3</ele><time>2022-09-06T13:52:43Z</time><name>PT7794</name></trkpt>
<trkpt lat="52.718963" lon="06.032246"><ele>-2.4</ele><time>2022-09-06T13:52:44Z</time><name>PT7795</name></trkpt>
<trkpt lat="52.718962" lon="06.032234"><ele>-2.2</ele><time>2022-09-06T13:52:45Z</time><name>PT7796</name></trkpt>
<trkpt lat="52.718960" lon="06.032222"><ele>-2.2</ele><time>2022-09-06T13:52:46Z</time><name>PT7797</name></trkpt>
<trkpt lat="52.718959" lon="06.032207"><ele>-1.9</ele><time>2022-09-06T13:52:47Z</time><name>PT7798</name></trkpt>
<trkpt lat="52.718958" lon="06.032194"><ele>-1.9</ele><time>2022-09-06T13:52:48Z</time><name>PT7799</name></trkpt>
<trkpt lat="52.718955" lon="06.032182"><ele>-1.8</ele><time>2022-09-06T13:52:49Z</time><name>PT7800</name></trkpt>
<trkpt lat="52.718954" lon="06.032171"><ele>-1.8</ele><time>2022-09-06T13:52:50Z</time><name>PT7801</name></trkpt>
<trkpt lat="52.718954" lon="06.032159"><ele>-1.9</ele><time>2022-09-06T13:52:51Z</time><name>PT7802</name></trkpt>
<trkpt lat="52.718954" lon="06.032146"><ele>-2</ele><time>2022-09-06T13:52:52Z</time><name>PT7803</name></trkpt>
<trkpt lat="52.718954" lon="06.032134"><ele>-1.9</ele><time>2022-09-06T13:52:53Z</time><name>PT7804</name></trkpt>
<trkpt lat="52.718955" lon="06.032124"><ele>-1.9</ele><time>2022-09-06T13:52:54Z</time><name>PT7805</name></trkpt>
<trkpt lat="52.718956" lon="06.032114"><ele>-2</ele><time>2022-09-06T13:52:55Z</time><name>PT7806</name></trkpt>
<trkpt lat="52.718958" lon="06.032106"><ele>-2.1</ele><time>2022-09-06T13:52:56Z</time><name>PT7807</name></trkpt>
<trkpt lat="52.718958" lon="06.032101"><ele>-2.1</ele><time>2022-09-06T13:52:57Z</time><name>PT7808</name></trkpt>
<trkpt lat="52.718955" lon="06.032090"><ele>-2.2</ele><time>2022-09-06T13:52:58Z</time><name>PT7809</name></trkpt>
<trkpt lat="52.718953" lon="06.032078"><ele>-2.2</ele><time>2022-09-06T13:52:59Z</time><name>PT7810</name></trkpt>
<trkpt lat="52.718950" lon="06.032067"><ele>-2.1</ele><time>2022-09-06T13:53:00Z</time><name>PT7811</name></trkpt>
<trkpt lat="52.718949" lon="06.032056"><ele>-2.2</ele><time>2022-09-06T13:53:01Z</time><name>PT7812</name></trkpt>
<trkpt lat="52.718948" lon="06.032042"><ele>-2.1</ele><time>2022-09-06T13:53:02Z</time><name>PT7813</name></trkpt>
<trkpt lat="52.718948" lon="06.032032"><ele>-2.2</ele><time>2022-09-06T13:53:03Z</time><name>PT7814</name></trkpt>
<trkpt lat="52.718949" lon="06.032022"><ele>-2.4</ele><time>2022-09-06T13:53:04Z</time><name>PT7815</name></trkpt>
<trkpt lat="52.718946" lon="06.032004"><ele>-2.3</ele><time>2022-09-06T13:53:05Z</time><name>PT7816</name></trkpt>
<trkpt lat="52.718944" lon="06.031990"><ele>-2.3</ele><time>2022-09-06T13:53:06Z</time><name>PT7817</name></trkpt>
<trkpt lat="52.718942" lon="06.031976"><ele>-2.1</ele><time>2022-09-06T13:53:07Z</time><name>PT7818</name></trkpt>
<trkpt lat="52.718940" lon="06.031960"><ele>-2.1</ele><time>2022-09-06T13:53:08Z</time><name>PT7819</name></trkpt>
<trkpt lat="52.718936" lon="06.031944"><ele>-1.9</ele><time>2022-09-06T13:53:09Z</time><name>PT7820</name></trkpt>
<trkpt lat="52.718934" lon="06.031931"><ele>-2.1</ele><time>2022-09-06T13:53:10Z</time><name>PT7821</name></trkpt>
<trkpt lat="52.718933" lon="06.031919"><ele>-1.9</ele><time>2022-09-06T13:53:11Z</time><name>PT7822</name></trkpt>
<trkpt lat="52.718931" lon="06.031910"><ele>-2.2</ele><time>2022-09-06T13:53:12Z</time><name>PT7823</name></trkpt>
<trkpt lat="52.718928" lon="06.031903"><ele>-2.2</ele><time>2022-09-06T13:53:13Z</time><name>PT7824</name></trkpt>
<trkpt lat="52.718929" lon="06.031897"><ele>-2.2</ele><time>2022-09-06T13:53:14Z</time><name>PT7825</name></trkpt>
<trkpt lat="52.718930" lon="06.031893"><ele>-2.2</ele><time>2022-09-06T13:53:15Z</time><name>PT7826</name></trkpt>
<trkpt lat="52.718931" lon="06.031887"><ele>-2.4</ele><time>2022-09-06T13:53:16Z</time><name>PT7827</name></trkpt>
<trkpt lat="52.718937" lon="06.031869"><ele>-1.8</ele><time>2022-09-06T13:53:20Z</time><name>PT7828</name></trkpt>
<trkpt lat="52.718937" lon="06.031853"><ele>-1.7</ele><time>2022-09-06T13:53:21Z</time><name>PT7829</name></trkpt>
<trkpt lat="52.718933" lon="06.031841"><ele>-1.8</ele><time>2022-09-06T13:53:22Z</time><name>PT7830</name></trkpt>
<trkpt lat="52.718931" lon="06.031832"><ele>-1.9</ele><time>2022-09-06T13:53:23Z</time><name>PT7831</name></trkpt>
<trkpt lat="52.718932" lon="06.031817"><ele>-1.9</ele><time>2022-09-06T13:53:24Z</time><name>PT7832</name></trkpt>
<trkpt lat="52.718933" lon="06.031808"><ele>-1.9</ele><time>2022-09-06T13:53:25Z</time><name>PT7833</name></trkpt>
<trkpt lat="52.718931" lon="06.031799"><ele>-2</ele><time>2022-09-06T13:53:26Z</time><name>PT7834</name></trkpt>
<trkpt lat="52.718929" lon="06.031790"><ele>-1.9</ele><time>2022-09-06T13:53:27Z</time><name>PT7835</name></trkpt>
<trkpt lat="52.718930" lon="06.031777"><ele>-1.9</ele><time>2022-09-06T13:53:28Z</time><name>PT7836</name></trkpt>
<trkpt lat="52.718933" lon="06.031763"><ele>-1.8</ele><time>2022-09-06T13:53:29Z</time><name>PT7837</name></trkpt>
<trkpt lat="52.718937" lon="06.031750"><ele>-1.8</ele><time>2022-09-06T13:53:30Z</time><name>PT7838</name></trkpt>
<trkpt lat="52.718939" lon="06.031739"><ele>-1.7</ele><time>2022-09-06T13:53:31Z</time><name>PT7839</name></trkpt>
<trkpt lat="52.718941" lon="06.031731"><ele>-1.7</ele><time>2022-09-06T13:53:32Z</time><name>PT7840</name></trkpt>
<trkpt lat="52.718938" lon="06.031717"><ele>-1.9</ele><time>2022-09-06T13:53:33Z</time><name>PT7841</name></trkpt>
<trkpt lat="52.718937" lon="06.031710"><ele>-1.9</ele><time>2022-09-06T13:53:34Z</time><name>PT7842</name></trkpt>
<trkpt lat="52.718932" lon="06.031696"><ele>-1.9</ele><time>2022-09-06T13:53:35Z</time><name>PT7843</name></trkpt>
<trkpt lat="52.718930" lon="06.031681"><ele>-2.1</ele><time>2022-09-06T13:53:36Z</time><name>PT7844</name></trkpt>
<trkpt lat="52.718925" lon="06.031661"><ele>-2.1</ele><time>2022-09-06T13:53:37Z</time><name>PT7845</name></trkpt>
<trkpt lat="52.718926" lon="06.031649"><ele>-1.9</ele><time>2022-09-06T13:53:38Z</time><name>PT7846</name></trkpt>
<trkpt lat="52.718931" lon="06.031642"><ele>-1.9</ele><time>2022-09-06T13:53:39Z</time><name>PT7847</name></trkpt>
<trkpt lat="52.718934" lon="06.031637"><ele>-1.6</ele><time>2022-09-06T13:53:40Z</time><name>PT7848</name></trkpt>
<trkpt lat="52.718936" lon="06.031626"><ele>-1.4</ele><time>2022-09-06T13:53:41Z</time><name>PT7849</name></trkpt>
<trkpt lat="52.718932" lon="06.031614"><ele>-1.5</ele><time>2022-09-06T13:53:42Z</time><name>PT7850</name></trkpt>
<trkpt lat="52.718932" lon="06.031600"><ele>-1.6</ele><time>2022-09-06T13:53:43Z</time><name>PT7851</name></trkpt>
<trkpt lat="52.718932" lon="06.031588"><ele>-1.7</ele><time>2022-09-06T13:53:44Z</time><name>PT7852</name></trkpt>
<trkpt lat="52.718931" lon="06.031574"><ele>-1.8</ele><time>2022-09-06T13:53:45Z</time><name>PT7853</name></trkpt>
<trkpt lat="52.718927" lon="06.031557"><ele>-1.9</ele><time>2022-09-06T13:53:46Z</time><name>PT7854</name></trkpt>
<trkpt lat="52.718925" lon="06.031546"><ele>-2.1</ele><time>2022-09-06T13:53:47Z</time><name>PT7855</name></trkpt>
<trkpt lat="52.718923" lon="06.031535"><ele>-2</ele><time>2022-09-06T13:53:48Z</time><name>PT7856</name></trkpt>
<trkpt lat="52.718922" lon="06.031522"><ele>-2</ele><time>2022-09-06T13:53:49Z</time><name>PT7857</name></trkpt>
<trkpt lat="52.718923" lon="06.031504"><ele>-1.9</ele><time>2022-09-06T13:53:50Z</time><name>PT7858</name></trkpt>
<trkpt lat="52.718921" lon="06.031482"><ele>-1.8</ele><time>2022-09-06T13:53:51Z</time><name>PT7859</name></trkpt>
<trkpt lat="52.718917" lon="06.031465"><ele>-1.9</ele><time>2022-09-06T13:53:52Z</time><name>PT7860</name></trkpt>
<trkpt lat="52.718914" lon="06.031454"><ele>-1.9</ele><time>2022-09-06T13:53:53Z</time><name>PT7861</name></trkpt>
<trkpt lat="52.718914" lon="06.031437"><ele>-1.8</ele><time>2022-09-06T13:53:54Z</time><name>PT7862</name></trkpt>
<trkpt lat="52.718911" lon="06.031427"><ele>-1.9</ele><time>2022-09-06T13:53:55Z</time><name>PT7863</name></trkpt>
<trkpt lat="52.718909" lon="06.031418"><ele>-2.1</ele><time>2022-09-06T13:53:56Z</time><name>PT7864</name></trkpt>
<trkpt lat="52.718906" lon="06.031405"><ele>-2.1</ele><time>2022-09-06T13:53:57Z</time><name>PT7865</name></trkpt>
<trkpt lat="52.718904" lon="06.031390"><ele>-1.9</ele><time>2022-09-06T13:53:58Z</time><name>PT7866</name></trkpt>
<trkpt lat="52.718901" lon="06.031377"><ele>-2.1</ele><time>2022-09-06T13:53:59Z</time><name>PT7867</name></trkpt>
<trkpt lat="52.718901" lon="06.031360"><ele>-2</ele><time>2022-09-06T13:54:00Z</time><name>PT7868</name></trkpt>
<trkpt lat="52.718900" lon="06.031350"><ele>-1.9</ele><time>2022-09-06T13:54:01Z</time><name>PT7869</name></trkpt>
<trkpt lat="52.718898" lon="06.031336"><ele>-1.9</ele><time>2022-09-06T13:54:02Z</time><name>PT7870</name></trkpt>
<trkpt lat="52.718898" lon="06.031323"><ele>-2.1</ele><time>2022-09-06T13:54:03Z</time><name>PT7871</name></trkpt>
<trkpt lat="52.718901" lon="06.031307"><ele>-1.9</ele><time>2022-09-06T13:54:04Z</time><name>PT7872</name></trkpt>
<trkpt lat="52.718903" lon="06.031291"><ele>-1.9</ele><time>2022-09-06T13:54:05Z</time><name>PT7873</name></trkpt>
<trkpt lat="52.718902" lon="06.031279"><ele>-1.9</ele><time>2022-09-06T13:54:06Z</time><name>PT7874</name></trkpt>
<trkpt lat="52.718900" lon="06.031268"><ele>-1.9</ele><time>2022-09-06T13:54:07Z</time><name>PT7875</name></trkpt>
<trkpt lat="52.718900" lon="06.031257"><ele>-1.8</ele><time>2022-09-06T13:54:08Z</time><name>PT7876</name></trkpt>
<trkpt lat="52.718899" lon="06.031247"><ele>-1.8</ele><time>2022-09-06T13:54:09Z</time><name>PT7877</name></trkpt>
<trkpt lat="52.718901" lon="06.031235"><ele>-1.7</ele><time>2022-09-06T13:54:10Z</time><name>PT7878</name></trkpt>
<trkpt lat="52.718900" lon="06.031227"><ele>-1.8</ele><time>2022-09-06T13:54:11Z</time><name>PT7879</name></trkpt>
<trkpt lat="52.718901" lon="06.031210"><ele>-1.9</ele><time>2022-09-06T13:54:12Z</time><name>PT7880</name></trkpt>
<trkpt lat="52.718902" lon="06.031194"><ele>-2.1</ele><time>2022-09-06T13:54:13Z</time><name>PT7881</name></trkpt>
<trkpt lat="52.718901" lon="06.031179"><ele>-2.2</ele><time>2022-09-06T13:54:14Z</time><name>PT7882</name></trkpt>
<trkpt lat="52.718902" lon="06.031166"><ele>-2.2</ele><time>2022-09-06T13:54:15Z</time><name>PT7883</name></trkpt>
<trkpt lat="52.718903" lon="06.031148"><ele>-2.3</ele><time>2022-09-06T13:54:16Z</time><name>PT7884</name></trkpt>
<trkpt lat="52.718905" lon="06.031134"><ele>-2</ele><time>2022-09-06T13:54:17Z</time><name>PT7885</name></trkpt>
<trkpt lat="52.718905" lon="06.031118"><ele>-2</ele><time>2022-09-06T13:54:18Z</time><name>PT7886</name></trkpt>
<trkpt lat="52.718903" lon="06.031104"><ele>-2.2</ele><time>2022-09-06T13:54:19Z</time><name>PT7887</name></trkpt>
<trkpt lat="52.718900" lon="06.031093"><ele>-2.2</ele><time>2022-09-06T13:54:20Z</time><name>PT7888</name></trkpt>
<trkpt lat="52.718899" lon="06.031077"><ele>-2.1</ele><time>2022-09-06T13:54:21Z</time><name>PT7889</name></trkpt>
<trkpt lat="52.718898" lon="06.031063"><ele>-2.4</ele><time>2022-09-06T13:54:22Z</time><name>PT7890</name></trkpt>
<trkpt lat="52.718895" lon="06.031050"><ele>-2.3</ele><time>2022-09-06T13:54:23Z</time><name>PT7891</name></trkpt>
<trkpt lat="52.718894" lon="06.031040"><ele>-2.3</ele><time>2022-09-06T13:54:24Z</time><name>PT7892</name></trkpt>
<trkpt lat="52.718895" lon="06.031028"><ele>-2.2</ele><time>2022-09-06T13:54:25Z</time><name>PT7893</name></trkpt>
<trkpt lat="52.718897" lon="06.031018"><ele>-2.2</ele><time>2022-09-06T13:54:26Z</time><name>PT7894</name></trkpt>
<trkpt lat="52.718900" lon="06.031005"><ele>-2</ele><time>2022-09-06T13:54:27Z</time><name>PT7895</name></trkpt>
<trkpt lat="52.718898" lon="06.030988"><ele>-1.7</ele><time>2022-09-06T13:54:28Z</time><name>PT7896</name></trkpt>
<trkpt lat="52.718897" lon="06.030971"><ele>-1.9</ele><time>2022-09-06T13:54:29Z</time><name>PT7897</name></trkpt>
<trkpt lat="52.718895" lon="06.030953"><ele>-1.8</ele><time>2022-09-06T13:54:30Z</time><name>PT7898</name></trkpt>
<trkpt lat="52.718895" lon="06.030942"><ele>-1.9</ele><time>2022-09-06T13:54:31Z</time><name>PT7899</name></trkpt>
<trkpt lat="52.718894" lon="06.030918"><ele>-2.1</ele><time>2022-09-06T13:54:32Z</time><name>PT7900</name></trkpt>
<trkpt lat="52.718895" lon="06.030909"><ele>-2.3</ele><time>2022-09-06T13:54:33Z</time><name>PT7901</name></trkpt>
<trkpt lat="52.718895" lon="06.030889"><ele>-2.1</ele><time>2022-09-06T13:54:34Z</time><name>PT7902</name></trkpt>
<trkpt lat="52.718895" lon="06.030866"><ele>-2.2</ele><time>2022-09-06T13:54:35Z</time><name>PT7903</name></trkpt>
<trkpt lat="52.718898" lon="06.030853"><ele>-2.1</ele><time>2022-09-06T13:54:36Z</time><name>PT7904</name></trkpt>
<trkpt lat="52.718900" lon="06.030836"><ele>-2.1</ele><time>2022-09-06T13:54:37Z</time><name>PT7905</name></trkpt>
<trkpt lat="52.718902" lon="06.030821"><ele>-2.4</ele><time>2022-09-06T13:54:38Z</time><name>PT7906</name></trkpt>
<trkpt lat="52.718903" lon="06.030811"><ele>-2.4</ele><time>2022-09-06T13:54:39Z</time><name>PT7907</name></trkpt>
<trkpt lat="52.718902" lon="06.030795"><ele>-2.3</ele><time>2022-09-06T13:54:40Z</time><name>PT7908</name></trkpt>
<trkpt lat="52.718902" lon="06.030777"><ele>-2.1</ele><time>2022-09-06T13:54:41Z</time><name>PT7909</name></trkpt>
<trkpt lat="52.718904" lon="06.030765"><ele>-2</ele><time>2022-09-06T13:54:42Z</time><name>PT7910</name></trkpt>
<trkpt lat="52.718904" lon="06.030750"><ele>-2.1</ele><time>2022-09-06T13:54:43Z</time><name>PT7911</name></trkpt>
<trkpt lat="52.718904" lon="06.030737"><ele>-1.9</ele><time>2022-09-06T13:54:44Z</time><name>PT7912</name></trkpt>
<trkpt lat="52.718905" lon="06.030712"><ele>-1.9</ele><time>2022-09-06T13:54:45Z</time><name>PT7913</name></trkpt>
<trkpt lat="52.718908" lon="06.030699"><ele>-1.9</ele><time>2022-09-06T13:54:46Z</time><name>PT7914</name></trkpt>
<trkpt lat="52.718910" lon="06.030684"><ele>-1.9</ele><time>2022-09-06T13:54:47Z</time><name>PT7915</name></trkpt>
<trkpt lat="52.718913" lon="06.030668"><ele>-1.9</ele><time>2022-09-06T13:54:48Z</time><name>PT7916</name></trkpt>
<trkpt lat="52.718917" lon="06.030649"><ele>-1.9</ele><time>2022-09-06T13:54:49Z</time><name>PT7917</name></trkpt>
<trkpt lat="52.718919" lon="06.030634"><ele>-1.9</ele><time>2022-09-06T13:54:50Z</time><name>PT7918</name></trkpt>
<trkpt lat="52.718924" lon="06.030626"><ele>-1.9</ele><time>2022-09-06T13:54:51Z</time><name>PT7919</name></trkpt>
<trkpt lat="52.718926" lon="06.030606"><ele>-1.8</ele><time>2022-09-06T13:54:52Z</time><name>PT7920</name></trkpt>
<trkpt lat="52.718929" lon="06.030589"><ele>-1.9</ele><time>2022-09-06T13:54:54Z</time><name>PT7921</name></trkpt>
<trkpt lat="52.718933" lon="06.030576"><ele>-2.1</ele><time>2022-09-06T13:54:54Z</time><name>PT7922</name></trkpt>
<trkpt lat="52.718937" lon="06.030564"><ele>-2.3</ele><time>2022-09-06T13:54:55Z</time><name>PT7923</name></trkpt>
<trkpt lat="52.718945" lon="06.030557"><ele>-2.3</ele><time>2022-09-06T13:54:56Z</time><name>PT7924</name></trkpt>
<trkpt lat="52.718954" lon="06.030552"><ele>-2.4</ele><time>2022-09-06T13:54:57Z</time><name>PT7925</name></trkpt>
<trkpt lat="52.718959" lon="06.030549"><ele>-2.1</ele><time>2022-09-06T13:54:58Z</time><name>PT7926</name></trkpt>
<trkpt lat="52.718964" lon="06.030548"><ele>-1.9</ele><time>2022-09-06T13:54:59Z</time><name>PT7927</name></trkpt>
<trkpt lat="52.718970" lon="06.030537"><ele>-1.9</ele><time>2022-09-06T13:55:00Z</time><name>PT7928</name></trkpt>
<trkpt lat="52.718976" lon="06.030535"><ele>-1.9</ele><time>2022-09-06T13:55:01Z</time><name>PT7929</name></trkpt>
<trkpt lat="52.718978" lon="06.030527"><ele>-1.9</ele><time>2022-09-06T13:55:02Z</time><name>PT7930</name></trkpt>
<trkpt lat="52.718981" lon="06.030525"><ele>-2</ele><time>2022-09-06T13:55:03Z</time><name>PT7931</name></trkpt>
<trkpt lat="52.718988" lon="06.030519"><ele>-1.9</ele><time>2022-09-06T13:55:04Z</time><name>PT7932</name></trkpt>
<trkpt lat="52.718995" lon="06.030517"><ele>-1.9</ele><time>2022-09-06T13:55:05Z</time><name>PT7933</name></trkpt>
<trkpt lat="52.719000" lon="06.030518"><ele>-1.8</ele><time>2022-09-06T13:55:06Z</time><name>PT7934</name></trkpt>
<trkpt lat="52.719006" lon="06.030517"><ele>-1.9</ele><time>2022-09-06T13:55:07Z</time><name>PT7935</name></trkpt>
<trkpt lat="52.719015" lon="06.030517"><ele>-1.9</ele><time>2022-09-06T13:55:08Z</time><name>PT7936</name></trkpt>
<trkpt lat="52.719023" lon="06.030515"><ele>-1.9</ele><time>2022-09-06T13:55:09Z</time><name>PT7937</name></trkpt>
<trkpt lat="52.719030" lon="06.030514"><ele>-2</ele><time>2022-09-06T13:55:10Z</time><name>PT7938</name></trkpt>
<trkpt lat="52.719034" lon="06.030510"><ele>-2.1</ele><time>2022-09-06T13:55:11Z</time><name>PT7939</name></trkpt>
<trkpt lat="52.719039" lon="06.030502"><ele>-2</ele><time>2022-09-06T13:55:12Z</time><name>PT7940</name></trkpt>
<trkpt lat="52.719043" lon="06.030497"><ele>-2</ele><time>2022-09-06T13:55:13Z</time><name>PT7941</name></trkpt>
<trkpt lat="52.719047" lon="06.030492"><ele>-2.2</ele><time>2022-09-06T13:55:14Z</time><name>PT7942</name></trkpt>
<trkpt lat="52.719052" lon="06.030491"><ele>-2.3</ele><time>2022-09-06T13:55:15Z</time><name>PT7943</name></trkpt>
<trkpt lat="52.719059" lon="06.030485"><ele>-2.3</ele><time>2022-09-06T13:55:16Z</time><name>PT7944</name></trkpt>
<trkpt lat="52.719068" lon="06.030484"><ele>-2.2</ele><time>2022-09-06T13:55:17Z</time><name>PT7945</name></trkpt>
<trkpt lat="52.719074" lon="06.030481"><ele>-2.4</ele><time>2022-09-06T13:55:18Z</time><name>PT7946</name></trkpt>
<trkpt lat="52.719082" lon="06.030478"><ele>-2.4</ele><time>2022-09-06T13:55:19Z</time><name>PT7947</name></trkpt>
<trkpt lat="52.719090" lon="06.030477"><ele>-2.4</ele><time>2022-09-06T13:55:20Z</time><name>PT7948</name></trkpt>
<trkpt lat="52.719095" lon="06.030475"><ele>-2.5</ele><time>2022-09-06T13:55:21Z</time><name>PT7949</name></trkpt>
<trkpt lat="52.719100" lon="06.030473"><ele>-2.5</ele><time>2022-09-06T13:55:22Z</time><name>PT7950</name></trkpt>
<trkpt lat="52.719104" lon="06.030469"><ele>-2.5</ele><time>2022-09-06T13:55:23Z</time><name>PT7951</name></trkpt>
<trkpt lat="52.719109" lon="06.030463"><ele>-2.4</ele><time>2022-09-06T13:55:24Z</time><name>PT7952</name></trkpt>
<trkpt lat="52.719113" lon="06.030467"><ele>-2</ele><time>2022-09-06T13:55:28Z</time><name>PT7953</name></trkpt>
<trkpt lat="52.719124" lon="06.030468"><ele>-2</ele><time>2022-09-06T13:55:29Z</time><name>PT7954</name></trkpt>
<trkpt lat="52.719131" lon="06.030463"><ele>-2</ele><time>2022-09-06T13:55:30Z</time><name>PT7955</name></trkpt>
<trkpt lat="52.719141" lon="06.030461"><ele>-2</ele><time>2022-09-06T13:55:31Z</time><name>PT7956</name></trkpt>
<trkpt lat="52.719149" lon="06.030463"><ele>-2.2</ele><time>2022-09-06T13:55:32Z</time><name>PT7957</name></trkpt>
<trkpt lat="52.719158" lon="06.030463"><ele>-2.3</ele><time>2022-09-06T13:55:33Z</time><name>PT7958</name></trkpt>
<trkpt lat="52.719163" lon="06.030468"><ele>-2.4</ele><time>2022-09-06T13:55:37Z</time><name>PT7959</name></trkpt>
<trkpt lat="52.719170" lon="06.030470"><ele>-2.3</ele><time>2022-09-06T13:55:38Z</time><name>PT7960</name></trkpt>
<trkpt lat="52.719176" lon="06.030468"><ele>-2.2</ele><time>2022-09-06T13:55:39Z</time><name>PT7961</name></trkpt>
<trkpt lat="52.719181" lon="06.030464"><ele>-2.2</ele><time>2022-09-06T13:55:40Z</time><name>PT7962</name></trkpt>
<trkpt lat="52.719186" lon="06.030460"><ele>-2</ele><time>2022-09-06T13:55:41Z</time><name>PT7963</name></trkpt>
<trkpt lat="52.719190" lon="06.030464"><ele>-2</ele><time>2022-09-06T13:55:42Z</time><name>PT7964</name></trkpt>
<trkpt lat="52.719195" lon="06.030461"><ele>-2.2</ele><time>2022-09-06T13:55:43Z</time><name>PT7965</name></trkpt>
<trkpt lat="52.719202" lon="06.030457"><ele>-2.2</ele><time>2022-09-06T13:55:44Z</time><name>PT7966</name></trkpt>
<trkpt lat="52.719207" lon="06.030451"><ele>-2.3</ele><time>2022-09-06T13:55:45Z</time><name>PT7967</name></trkpt>
<trkpt lat="52.719211" lon="06.030430"><ele>-2.4</ele><time>2022-09-06T13:55:46Z</time><name>PT7968</name></trkpt>
<trkpt lat="52.719213" lon="06.030426"><ele>-2.3</ele><time>2022-09-06T13:55:47Z</time><name>PT7969</name></trkpt>
<trkpt lat="52.719221" lon="06.030418"><ele>-2.2</ele><time>2022-09-06T13:55:48Z</time><name>PT7970</name></trkpt>
<trkpt lat="52.719225" lon="06.030411"><ele>-2.2</ele><time>2022-09-06T13:55:49Z</time><name>PT7971</name></trkpt>
<trkpt lat="52.719230" lon="06.030403"><ele>-2.2</ele><time>2022-09-06T13:55:50Z</time><name>PT7972</name></trkpt>
<trkpt lat="52.719234" lon="06.030394"><ele>-2.2</ele><time>2022-09-06T13:55:51Z</time><name>PT7973</name></trkpt>
<trkpt lat="52.719239" lon="06.030389"><ele>-2.1</ele><time>2022-09-06T13:55:52Z</time><name>PT7974</name></trkpt>
<trkpt lat="52.719245" lon="06.030386"><ele>-2.2</ele><time>2022-09-06T13:55:53Z</time><name>PT7975</name></trkpt>
<trkpt lat="52.719250" lon="06.030381"><ele>-2.2</ele><time>2022-09-06T13:55:54Z</time><name>PT7976</name></trkpt>
<trkpt lat="52.719252" lon="06.030378"><ele>-2.3</ele><time>2022-09-06T13:55:55Z</time><name>PT7977</name></trkpt>
<trkpt lat="52.719260" lon="06.030372"><ele>-2.3</ele><time>2022-09-06T13:55:56Z</time><name>PT7978</name></trkpt>
<trkpt lat="52.719264" lon="06.030367"><ele>-2.2</ele><time>2022-09-06T13:55:57Z</time><name>PT7979</name></trkpt>
<trkpt lat="52.719270" lon="06.030358"><ele>-2.4</ele><time>2022-09-06T13:55:58Z</time><name>PT7980</name></trkpt>
<trkpt lat="52.719275" lon="06.030347"><ele>-2.4</ele><time>2022-09-06T13:55:59Z</time><name>PT7981</name></trkpt>
<trkpt lat="52.719283" lon="06.030338"><ele>-2.4</ele><time>2022-09-06T13:56:00Z</time><name>PT7982</name></trkpt>
<trkpt lat="52.719287" lon="06.030330"><ele>-2.4</ele><time>2022-09-06T13:56:01Z</time><name>PT7983</name></trkpt>
<trkpt lat="52.719291" lon="06.030321"><ele>-2.2</ele><time>2022-09-06T13:56:02Z</time><name>PT7984</name></trkpt>
<trkpt lat="52.719293" lon="06.030310"><ele>-2</ele><time>2022-09-06T13:56:03Z</time><name>PT7985</name></trkpt>
<trkpt lat="52.719297" lon="06.030302"><ele>-1.8</ele><time>2022-09-06T13:56:04Z</time><name>PT7986</name></trkpt>
<trkpt lat="52.719299" lon="06.030287"><ele>-1.7</ele><time>2022-09-06T13:56:05Z</time><name>PT7987</name></trkpt>
<trkpt lat="52.719302" lon="06.030276"><ele>-1.7</ele><time>2022-09-06T13:56:06Z</time><name>PT7988</name></trkpt>
<trkpt lat="52.719302" lon="06.030269"><ele>-1.7</ele><time>2022-09-06T13:56:07Z</time><name>PT7989</name></trkpt>
<trkpt lat="52.719302" lon="06.030261"><ele>-1.9</ele><time>2022-09-06T13:56:08Z</time><name>PT7990</name></trkpt>
<trkpt lat="52.719301" lon="06.030248"><ele>-2</ele><time>2022-09-06T13:56:09Z</time><name>PT7991</name></trkpt>
<trkpt lat="52.719300" lon="06.030233"><ele>-1.9</ele><time>2022-09-06T13:56:10Z</time><name>PT7992</name></trkpt>
<trkpt lat="52.719300" lon="06.030218"><ele>-1.9</ele><time>2022-09-06T13:56:11Z</time><name>PT7993</name></trkpt>
<trkpt lat="52.719298" lon="06.030204"><ele>-1.9</ele><time>2022-09-06T13:56:12Z</time><name>PT7994</name></trkpt>
<trkpt lat="52.719300" lon="06.030190"><ele>-1.9</ele><time>2022-09-06T13:56:13Z</time><name>PT7995</name></trkpt>
<trkpt lat="52.719300" lon="06.030180"><ele>-1.9</ele><time>2022-09-06T13:56:14Z</time><name>PT7996</name></trkpt>
<trkpt lat="52.719299" lon="06.030172"><ele>-1.9</ele><time>2022-09-06T13:56:15Z</time><name>PT7997</name></trkpt>
<trkpt lat="52.719299" lon="06.030162"><ele>-2</ele><time>2022-09-06T13:56:16Z</time><name>PT7998</name></trkpt>
<trkpt lat="52.719301" lon="06.030151"><ele>-2</ele><time>2022-09-06T13:56:17Z</time><name>PT7999</name></trkpt>
<trkpt lat="52.719300" lon="06.030141"><ele>-2</ele><time>2022-09-06T13:56:18Z</time><name>PT8000</name></trkpt>
<trkpt lat="52.719301" lon="06.030131"><ele>-1.9</ele><time>2022-09-06T13:56:19Z</time><name>PT8001</name></trkpt>
<trkpt lat="52.719304" lon="06.030120"><ele>-2</ele><time>2022-09-06T13:56:20Z</time><name>PT8002</name></trkpt>
<trkpt lat="52.719306" lon="06.030111"><ele>-2</ele><time>2022-09-06T13:56:21Z</time><name>PT8003</name></trkpt>
<trkpt lat="52.719305" lon="06.030104"><ele>-1.8</ele><time>2022-09-06T13:56:22Z</time><name>PT8004</name></trkpt>
<trkpt lat="52.719306" lon="06.030094"><ele>-1.8</ele><time>2022-09-06T13:56:23Z</time><name>PT8005</name></trkpt>
<trkpt lat="52.719306" lon="06.030084"><ele>-1.9</ele><time>2022-09-06T13:56:24Z</time><name>PT8006</name></trkpt>
<trkpt lat="52.719305" lon="06.030075"><ele>-1.8</ele><time>2022-09-06T13:56:25Z</time><name>PT8007</name></trkpt>
<trkpt lat="52.719307" lon="06.030069"><ele>-1.8</ele><time>2022-09-06T13:56:26Z</time><name>PT8008</name></trkpt>
<trkpt lat="52.719308" lon="06.030060"><ele>-1.8</ele><time>2022-09-06T13:56:27Z</time><name>PT8009</name></trkpt>
<trkpt lat="52.719306" lon="06.030055"><ele>-1.7</ele><time>2022-09-06T13:56:28Z</time><name>PT8010</name></trkpt>
<trkpt lat="52.719305" lon="06.030048"><ele>-1.6</ele><time>2022-09-06T13:56:29Z</time><name>PT8011</name></trkpt>
<trkpt lat="52.719305" lon="06.030038"><ele>-1.6</ele><time>2022-09-06T13:56:30Z</time><name>PT8012</name></trkpt>
<trkpt lat="52.719303" lon="06.030031"><ele>-1.8</ele><time>2022-09-06T13:56:31Z</time><name>PT8013</name></trkpt>
<trkpt lat="52.719304" lon="06.030020"><ele>-1.9</ele><time>2022-09-06T13:56:32Z</time><name>PT8014</name></trkpt>
<trkpt lat="52.719305" lon="06.030006"><ele>-1.9</ele><time>2022-09-06T13:56:33Z</time><name>PT8015</name></trkpt>
<trkpt lat="52.719305" lon="06.029995"><ele>-1.9</ele><time>2022-09-06T13:56:34Z</time><name>PT8016</name></trkpt>
<trkpt lat="52.719305" lon="06.029987"><ele>-1.9</ele><time>2022-09-06T13:56:35Z</time><name>PT8017</name></trkpt>
<trkpt lat="52.719306" lon="06.029980"><ele>-2.2</ele><time>2022-09-06T13:56:36Z</time><name>PT8018</name></trkpt>
<trkpt lat="52.719305" lon="06.029970"><ele>-2.3</ele><time>2022-09-06T13:56:37Z</time><name>PT8019</name></trkpt>
<trkpt lat="52.719306" lon="06.029959"><ele>-2.4</ele><time>2022-09-06T13:56:38Z</time><name>PT8020</name></trkpt>
<trkpt lat="52.719307" lon="06.029946"><ele>-2.4</ele><time>2022-09-06T13:56:39Z</time><name>PT8021</name></trkpt>
<trkpt lat="52.719306" lon="06.029934"><ele>-2.2</ele><time>2022-09-06T13:56:40Z</time><name>PT8022</name></trkpt>
<trkpt lat="52.719306" lon="06.029920"><ele>-2</ele><time>2022-09-06T13:56:41Z</time><name>PT8023</name></trkpt>
<trkpt lat="52.719307" lon="06.029906"><ele>-2.1</ele><time>2022-09-06T13:56:42Z</time><name>PT8024</name></trkpt>
<trkpt lat="52.719309" lon="06.029894"><ele>-1.9</ele><time>2022-09-06T13:56:43Z</time><name>PT8025</name></trkpt>
<trkpt lat="52.719309" lon="06.029884"><ele>-2</ele><time>2022-09-06T13:56:44Z</time><name>PT8026</name></trkpt>
<trkpt lat="52.719308" lon="06.029874"><ele>-2.1</ele><time>2022-09-06T13:56:45Z</time><name>PT8027</name></trkpt>
<trkpt lat="52.719307" lon="06.029864"><ele>-2</ele><time>2022-09-06T13:56:46Z</time><name>PT8028</name></trkpt>
<trkpt lat="52.719305" lon="06.029854"><ele>-2</ele><time>2022-09-06T13:56:47Z</time><name>PT8029</name></trkpt>
<trkpt lat="52.719304" lon="06.029842"><ele>-2.2</ele><time>2022-09-06T13:56:48Z</time><name>PT8030</name></trkpt>
<trkpt lat="52.719304" lon="06.029831"><ele>-2.1</ele><time>2022-09-06T13:56:49Z</time><name>PT8031</name></trkpt>
<trkpt lat="52.719304" lon="06.029819"><ele>-1.9</ele><time>2022-09-06T13:56:50Z</time><name>PT8032</name></trkpt>
<trkpt lat="52.719304" lon="06.029806"><ele>-1.9</ele><time>2022-09-06T13:56:51Z</time><name>PT8033</name></trkpt>
<trkpt lat="52.719303" lon="06.029794"><ele>-1.7</ele><time>2022-09-06T13:56:52Z</time><name>PT8034</name></trkpt>
<trkpt lat="52.719304" lon="06.029782"><ele>-1.5</ele><time>2022-09-06T13:56:53Z</time><name>PT8035</name></trkpt>
<trkpt lat="52.719304" lon="06.029770"><ele>-1.7</ele><time>2022-09-06T13:56:54Z</time><name>PT8036</name></trkpt>
<trkpt lat="52.719303" lon="06.029760"><ele>-1.9</ele><time>2022-09-06T13:56:55Z</time><name>PT8037</name></trkpt>
<trkpt lat="52.719303" lon="06.029750"><ele>-2.1</ele><time>2022-09-06T13:56:56Z</time><name>PT8038</name></trkpt>
<trkpt lat="52.719304" lon="06.029740"><ele>-2.2</ele><time>2022-09-06T13:56:57Z</time><name>PT8039</name></trkpt>
<trkpt lat="52.719303" lon="06.029729"><ele>-2.3</ele><time>2022-09-06T13:56:58Z</time><name>PT8040</name></trkpt>
<trkpt lat="52.719304" lon="06.029715"><ele>-1.9</ele><time>2022-09-06T13:56:59Z</time><name>PT8041</name></trkpt>
<trkpt lat="52.719301" lon="06.029700"><ele>-1.8</ele><time>2022-09-06T13:57:00Z</time><name>PT8042</name></trkpt>
<trkpt lat="52.719302" lon="06.029685"><ele>-1.8</ele><time>2022-09-06T13:57:01Z</time><name>PT8043</name></trkpt>
<trkpt lat="52.719304" lon="06.029673"><ele>-1.9</ele><time>2022-09-06T13:57:02Z</time><name>PT8044</name></trkpt>
<trkpt lat="52.719305" lon="06.029660"><ele>-1.9</ele><time>2022-09-06T13:57:03Z</time><name>PT8045</name></trkpt>
<trkpt lat="52.719305" lon="06.029645"><ele>-2</ele><time>2022-09-06T13:57:04Z</time><name>PT8046</name></trkpt>
<trkpt lat="52.719306" lon="06.029630"><ele>-2.3</ele><time>2022-09-06T13:57:05Z</time><name>PT8047</name></trkpt>
<trkpt lat="52.719306" lon="06.029613"><ele>-2.1</ele><time>2022-09-06T13:57:06Z</time><name>PT8048</name></trkpt>
<trkpt lat="52.719306" lon="06.029599"><ele>-2.1</ele><time>2022-09-06T13:57:07Z</time><name>PT8049</name></trkpt>
<trkpt lat="52.719306" lon="06.029587"><ele>-2.1</ele><time>2022-09-06T13:57:08Z</time><name>PT8050</name></trkpt>
<trkpt lat="52.719307" lon="06.029574"><ele>-2.4</ele><time>2022-09-06T13:57:09Z</time><name>PT8051</name></trkpt>
<trkpt lat="52.719307" lon="06.029558"><ele>-2.3</ele><time>2022-09-06T13:57:10Z</time><name>PT8052</name></trkpt>
<trkpt lat="52.719306" lon="06.029544"><ele>-2.4</ele><time>2022-09-06T13:57:11Z</time><name>PT8053</name></trkpt>
<trkpt lat="52.719306" lon="06.029531"><ele>-2.3</ele><time>2022-09-06T13:57:12Z</time><name>PT8054</name></trkpt>
<trkpt lat="52.719305" lon="06.029519"><ele>-2.3</ele><time>2022-09-06T13:57:13Z</time><name>PT8055</name></trkpt>
<trkpt lat="52.719305" lon="06.029508"><ele>-2.1</ele><time>2022-09-06T13:57:14Z</time><name>PT8056</name></trkpt>
<trkpt lat="52.719303" lon="06.029496"><ele>-2</ele><time>2022-09-06T13:57:15Z</time><name>PT8057</name></trkpt>
<trkpt lat="52.719303" lon="06.029487"><ele>-1.9</ele><time>2022-09-06T13:57:16Z</time><name>PT8058</name></trkpt>
<trkpt lat="52.719303" lon="06.029476"><ele>-1.9</ele><time>2022-09-06T13:57:17Z</time><name>PT8059</name></trkpt>
<trkpt lat="52.719301" lon="06.029465"><ele>-1.9</ele><time>2022-09-06T13:57:18Z</time><name>PT8060</name></trkpt>
<trkpt lat="52.719300" lon="06.029455"><ele>-1.8</ele><time>2022-09-06T13:57:19Z</time><name>PT8061</name></trkpt>
<trkpt lat="52.719301" lon="06.029446"><ele>-1.8</ele><time>2022-09-06T13:57:20Z</time><name>PT8062</name></trkpt>
<trkpt lat="52.719304" lon="06.029437"><ele>-1.9</ele><time>2022-09-06T13:57:21Z</time><name>PT8063</name></trkpt>
<trkpt lat="52.719302" lon="06.029429"><ele>-1.9</ele><time>2022-09-06T13:57:22Z</time><name>PT8064</name></trkpt>
<trkpt lat="52.719302" lon="06.029422"><ele>-2</ele><time>2022-09-06T13:57:23Z</time><name>PT8065</name></trkpt>
<trkpt lat="52.719300" lon="06.029415"><ele>-2</ele><time>2022-09-06T13:57:24Z</time><name>PT8066</name></trkpt>
<trkpt lat="52.719298" lon="06.029412"><ele>-2</ele><time>2022-09-06T13:57:25Z</time><name>PT8067</name></trkpt>
<trkpt lat="52.719299" lon="06.029408"><ele>-2</ele><time>2022-09-06T13:57:26Z</time><name>PT8068</name></trkpt>
<trkpt lat="52.719299" lon="06.029404"><ele>-1.9</ele><time>2022-09-06T13:57:27Z</time><name>PT8069</name></trkpt>
<trkpt lat="52.719262" lon="06.029314"><ele>-2.3</ele><time>2022-09-06T13:57:52Z</time><name>PT8070</name></trkpt>
<trkpt lat="52.719270" lon="06.029277"><ele>-2.1</ele><time>2022-09-06T13:57:53Z</time><name>PT8071</name></trkpt>
<trkpt lat="52.719277" lon="06.029241"><ele>-2.4</ele><time>2022-09-06T13:58:03Z</time><name>PT8072</name></trkpt>
<trkpt lat="52.719279" lon="06.029223"><ele>-2.4</ele><time>2022-09-06T13:58:04Z</time><name>PT8073</name></trkpt>
<trkpt lat="52.719278" lon="06.029188"><ele>-2.6</ele><time>2022-09-06T13:58:13Z</time><name>PT8074</name></trkpt>
<trkpt lat="52.719280" lon="06.029168"><ele>-2.4</ele><time>2022-09-06T13:58:14Z</time><name>PT8075</name></trkpt>
<trkpt lat="52.719284" lon="06.029145"><ele>-2.4</ele><time>2022-09-06T13:58:31Z</time><name>PT8076</name></trkpt>
<trkpt lat="52.719283" lon="06.029120"><ele>-2.6</ele><time>2022-09-06T13:58:32Z</time><name>PT8077</name></trkpt>
<trkpt lat="52.719283" lon="06.029106"><ele>-2.6</ele><time>2022-09-06T13:58:33Z</time><name>PT8078</name></trkpt>
<trkpt lat="52.719286" lon="06.029092"><ele>-2.5</ele><time>2022-09-06T13:58:34Z</time><name>PT8079</name></trkpt>
<trkpt lat="52.719288" lon="06.029079"><ele>-2.4</ele><time>2022-09-06T13:58:35Z</time><name>PT8080</name></trkpt>
<trkpt lat="52.719289" lon="06.029064"><ele>-2.6</ele><time>2022-09-06T13:58:36Z</time><name>PT8081</name></trkpt>
<trkpt lat="52.719288" lon="06.029050"><ele>-2.4</ele><time>2022-09-06T13:58:37Z</time><name>PT8082</name></trkpt>
<trkpt lat="52.719288" lon="06.029031"><ele>-2.4</ele><time>2022-09-06T13:58:38Z</time><name>PT8083</name></trkpt>
<trkpt lat="52.719286" lon="06.029012"><ele>-2.4</ele><time>2022-09-06T13:58:39Z</time><name>PT8084</name></trkpt>
<trkpt lat="52.719284" lon="06.028998"><ele>-2.5</ele><time>2022-09-06T13:58:40Z</time><name>PT8085</name></trkpt>
<trkpt lat="52.719284" lon="06.028983"><ele>-2.6</ele><time>2022-09-06T13:58:41Z</time><name>PT8086</name></trkpt>
<trkpt lat="52.719284" lon="06.028966"><ele>-2.6</ele><time>2022-09-06T13:58:42Z</time><name>PT8087</name></trkpt>
<trkpt lat="52.719283" lon="06.028953"><ele>-2.7</ele><time>2022-09-06T13:58:43Z</time><name>PT8088</name></trkpt>
<trkpt lat="52.719283" lon="06.028938"><ele>-2.5</ele><time>2022-09-06T13:58:44Z</time><name>PT8089</name></trkpt>
<trkpt lat="52.719283" lon="06.028924"><ele>-2.4</ele><time>2022-09-06T13:58:45Z</time><name>PT8090</name></trkpt>
<trkpt lat="52.719282" lon="06.028911"><ele>-2.2</ele><time>2022-09-06T13:58:46Z</time><name>PT8091</name></trkpt>
<trkpt lat="52.719283" lon="06.028896"><ele>-2.3</ele><time>2022-09-06T13:58:47Z</time><name>PT8092</name></trkpt>
<trkpt lat="52.719284" lon="06.028884"><ele>-2.4</ele><time>2022-09-06T13:58:48Z</time><name>PT8093</name></trkpt>
<trkpt lat="52.719284" lon="06.028875"><ele>-2.4</ele><time>2022-09-06T13:58:49Z</time><name>PT8094</name></trkpt>
<trkpt lat="52.719288" lon="06.028866"><ele>-2.5</ele><time>2022-09-06T13:58:50Z</time><name>PT8095</name></trkpt>
<trkpt lat="52.719291" lon="06.028853"><ele>-2.7</ele><time>2022-09-06T13:58:51Z</time><name>PT8096</name></trkpt>
<trkpt lat="52.719295" lon="06.028844"><ele>-2.5</ele><time>2022-09-06T13:58:52Z</time><name>PT8097</name></trkpt>
<trkpt lat="52.719297" lon="06.028832"><ele>-2.4</ele><time>2022-09-06T13:58:53Z</time><name>PT8098</name></trkpt>
<trkpt lat="52.719300" lon="06.028822"><ele>-2.4</ele><time>2022-09-06T13:58:54Z</time><name>PT8099</name></trkpt>
<trkpt lat="52.719304" lon="06.028812"><ele>-2.5</ele><time>2022-09-06T13:58:55Z</time><name>PT8100</name></trkpt>
<trkpt lat="52.719305" lon="06.028799"><ele>-2.7</ele><time>2022-09-06T13:58:56Z</time><name>PT8101</name></trkpt>
<trkpt lat="52.719307" lon="06.028791"><ele>-2.6</ele><time>2022-09-06T13:58:57Z</time><name>PT8102</name></trkpt>
<trkpt lat="52.719309" lon="06.028784"><ele>-2.5</ele><time>2022-09-06T13:58:58Z</time><name>PT8103</name></trkpt>
<trkpt lat="52.719310" lon="06.028777"><ele>-2.5</ele><time>2022-09-06T13:58:59Z</time><name>PT8104</name></trkpt>
<trkpt lat="52.719314" lon="06.028766"><ele>-2.5</ele><time>2022-09-06T13:59:00Z</time><name>PT8105</name></trkpt>
<trkpt lat="52.719315" lon="06.028742"><ele>-2.4</ele><time>2022-09-06T13:59:01Z</time><name>PT8106</name></trkpt>
<trkpt lat="52.719317" lon="06.028724"><ele>-2.4</ele><time>2022-09-06T13:59:02Z</time><name>PT8107</name></trkpt>
<trkpt lat="52.719317" lon="06.028714"><ele>-2.5</ele><time>2022-09-06T13:59:03Z</time><name>PT8108</name></trkpt>
<trkpt lat="52.719320" lon="06.028705"><ele>-2.6</ele><time>2022-09-06T13:59:04Z</time><name>PT8109</name></trkpt>
<trkpt lat="52.719321" lon="06.028696"><ele>-2.4</ele><time>2022-09-06T13:59:05Z</time><name>PT8110</name></trkpt>
<trkpt lat="52.719322" lon="06.028685"><ele>-2.5</ele><time>2022-09-06T13:59:06Z</time><name>PT8111</name></trkpt>
<trkpt lat="52.719325" lon="06.028676"><ele>-2.6</ele><time>2022-09-06T13:59:07Z</time><name>PT8112</name></trkpt>
<trkpt lat="52.719325" lon="06.028667"><ele>-2.5</ele><time>2022-09-06T13:59:08Z</time><name>PT8113</name></trkpt>
<trkpt lat="52.719327" lon="06.028658"><ele>-2.5</ele><time>2022-09-06T13:59:09Z</time><name>PT8114</name></trkpt>
<trkpt lat="52.719329" lon="06.028646"><ele>-2.4</ele><time>2022-09-06T13:59:10Z</time><name>PT8115</name></trkpt>
<trkpt lat="52.719329" lon="06.028638"><ele>-2.4</ele><time>2022-09-06T13:59:11Z</time><name>PT8116</name></trkpt>
<trkpt lat="52.719329" lon="06.028628"><ele>-2.4</ele><time>2022-09-06T13:59:12Z</time><name>PT8117</name></trkpt>
<trkpt lat="52.719329" lon="06.028621"><ele>-2.5</ele><time>2022-09-06T13:59:13Z</time><name>PT8118</name></trkpt>
<trkpt lat="52.719331" lon="06.028613"><ele>-2.4</ele><time>2022-09-06T13:59:14Z</time><name>PT8119</name></trkpt>
<trkpt lat="52.719330" lon="06.028607"><ele>-2.3</ele><time>2022-09-06T13:59:15Z</time><name>PT8120</name></trkpt>
<trkpt lat="52.719328" lon="06.028603"><ele>-2.2</ele><time>2022-09-06T13:59:16Z</time><name>PT8121</name></trkpt>
<trkpt lat="52.719327" lon="06.028599"><ele>-2.1</ele><time>2022-09-06T13:59:17Z</time><name>PT8122</name></trkpt>
<trkpt lat="52.719327" lon="06.028594"><ele>-2</ele><time>2022-09-06T13:59:18Z</time><name>PT8123</name></trkpt>
<trkpt lat="52.719328" lon="06.028590"><ele>-2</ele><time>2022-09-06T13:59:19Z</time><name>PT8124</name></trkpt>
<trkpt lat="52.719328" lon="06.028584"><ele>-2.3</ele><time>2022-09-06T13:59:27Z</time><name>PT8125</name></trkpt>
<trkpt lat="52.719327" lon="06.028573"><ele>-2.3</ele><time>2022-09-06T13:59:28Z</time><name>PT8126</name></trkpt>
<trkpt lat="52.719328" lon="06.028563"><ele>-2.4</ele><time>2022-09-06T13:59:29Z</time><name>PT8127</name></trkpt>
<trkpt lat="52.719329" lon="06.028551"><ele>-2.4</ele><time>2022-09-06T13:59:30Z</time><name>PT8128</name></trkpt>
<trkpt lat="52.719327" lon="06.028537"><ele>-2.4</ele><time>2022-09-06T13:59:31Z</time><name>PT8129</name></trkpt>
<trkpt lat="52.719326" lon="06.028526"><ele>-2.1</ele><time>2022-09-06T13:59:32Z</time><name>PT8130</name></trkpt>
<trkpt lat="52.719325" lon="06.028518"><ele>-2.2</ele><time>2022-09-06T13:59:33Z</time><name>PT8131</name></trkpt>
<trkpt lat="52.719327" lon="06.028509"><ele>-2.2</ele><time>2022-09-06T13:59:34Z</time><name>PT8132</name></trkpt>
<trkpt lat="52.719329" lon="06.028499"><ele>-2.1</ele><time>2022-09-06T13:59:35Z</time><name>PT8133</name></trkpt>
<trkpt lat="52.719331" lon="06.028486"><ele>-2.2</ele><time>2022-09-06T13:59:36Z</time><name>PT8134</name></trkpt>
<trkpt lat="52.719330" lon="06.028478"><ele>-2</ele><time>2022-09-06T13:59:37Z</time><name>PT8135</name></trkpt>
<trkpt lat="52.719328" lon="06.028466"><ele>-2</ele><time>2022-09-06T13:59:38Z</time><name>PT8136</name></trkpt>
<trkpt lat="52.719326" lon="06.028456"><ele>-2</ele><time>2022-09-06T13:59:39Z</time><name>PT8137</name></trkpt>
<trkpt lat="52.719326" lon="06.028442"><ele>-1.9</ele><time>2022-09-06T13:59:40Z</time><name>PT8138</name></trkpt>
<trkpt lat="52.719328" lon="06.028429"><ele>-1.9</ele><time>2022-09-06T13:59:41Z</time><name>PT8139</name></trkpt>
<trkpt lat="52.719328" lon="06.028416"><ele>-1.8</ele><time>2022-09-06T13:59:42Z</time><name>PT8140</name></trkpt>
<trkpt lat="52.719327" lon="06.028407"><ele>-2.1</ele><time>2022-09-06T13:59:43Z</time><name>PT8141</name></trkpt>
<trkpt lat="52.719328" lon="06.028396"><ele>-2</ele><time>2022-09-06T13:59:44Z</time><name>PT8142</name></trkpt>
<trkpt lat="52.719325" lon="06.028385"><ele>-2</ele><time>2022-09-06T13:59:45Z</time><name>PT8143</name></trkpt>
<trkpt lat="52.719326" lon="06.028377"><ele>-2.2</ele><time>2022-09-06T13:59:46Z</time><name>PT8144</name></trkpt>
<trkpt lat="52.719326" lon="06.028370"><ele>-2.1</ele><time>2022-09-06T13:59:47Z</time><name>PT8145</name></trkpt>
<trkpt lat="52.719324" lon="06.028362"><ele>-2.1</ele><time>2022-09-06T13:59:48Z</time><name>PT8146</name></trkpt>
<trkpt lat="52.719324" lon="06.028352"><ele>-2.3</ele><time>2022-09-06T13:59:49Z</time><name>PT8147</name></trkpt>
<trkpt lat="52.719326" lon="06.028339"><ele>-2.3</ele><time>2022-09-06T13:59:50Z</time><name>PT8148</name></trkpt>
<trkpt lat="52.719326" lon="06.028330"><ele>-2.3</ele><time>2022-09-06T13:59:51Z</time><name>PT8149</name></trkpt>
<trkpt lat="52.719324" lon="06.028321"><ele>-2.4</ele><time>2022-09-06T13:59:52Z</time><name>PT8150</name></trkpt>
<trkpt lat="52.719328" lon="06.028312"><ele>-2.3</ele><time>2022-09-06T13:59:53Z</time><name>PT8151</name></trkpt>
<trkpt lat="52.719329" lon="06.028302"><ele>-2.4</ele><time>2022-09-06T13:59:54Z</time><name>PT8152</name></trkpt>
<trkpt lat="52.719327" lon="06.028293"><ele>-2.4</ele><time>2022-09-06T13:59:55Z</time><name>PT8153</name></trkpt>
<trkpt lat="52.719327" lon="06.028285"><ele>-2.4</ele><time>2022-09-06T13:59:56Z</time><name>PT8154</name></trkpt>
<trkpt lat="52.719328" lon="06.028275"><ele>-2.6</ele><time>2022-09-06T13:59:57Z</time><name>PT8155</name></trkpt>
<trkpt lat="52.719331" lon="06.028267"><ele>-2.7</ele><time>2022-09-06T13:59:58Z</time><name>PT8156</name></trkpt>
<trkpt lat="52.719330" lon="06.028254"><ele>-2.7</ele><time>2022-09-06T13:59:59Z</time><name>PT8157</name></trkpt>
<trkpt lat="52.719328" lon="06.028245"><ele>-2.6</ele><time>2022-09-06T14:00:00Z</time><name>PT8158</name></trkpt>
<trkpt lat="52.719325" lon="06.028232"><ele>-2.6</ele><time>2022-09-06T14:00:01Z</time><name>PT8159</name></trkpt>
<trkpt lat="52.719324" lon="06.028223"><ele>-2.5</ele><time>2022-09-06T14:00:02Z</time><name>PT8160</name></trkpt>
<trkpt lat="52.719322" lon="06.028216"><ele>-2.5</ele><time>2022-09-06T14:00:03Z</time><name>PT8161</name></trkpt>
<trkpt lat="52.719322" lon="06.028204"><ele>-2.4</ele><time>2022-09-06T14:00:04Z</time><name>PT8162</name></trkpt>
<trkpt lat="52.719323" lon="06.028192"><ele>-2.3</ele><time>2022-09-06T14:00:05Z</time><name>PT8163</name></trkpt>
<trkpt lat="52.719324" lon="06.028182"><ele>-2.1</ele><time>2022-09-06T14:00:06Z</time><name>PT8164</name></trkpt>
<trkpt lat="52.719327" lon="06.028170"><ele>-2.2</ele><time>2022-09-06T14:00:07Z</time><name>PT8165</name></trkpt>
<trkpt lat="52.719329" lon="06.028160"><ele>-2.1</ele><time>2022-09-06T14:00:08Z</time><name>PT8166</name></trkpt>
<trkpt lat="52.719329" lon="06.028151"><ele>-2.2</ele><time>2022-09-06T14:00:09Z</time><name>PT8167</name></trkpt>
<trkpt lat="52.719328" lon="06.028133"><ele>-1.9</ele><time>2022-09-06T14:00:15Z</time><name>PT8168</name></trkpt>
<trkpt lat="52.719327" lon="06.028108"><ele>-2</ele><time>2022-09-06T14:00:16Z</time><name>PT8169</name></trkpt>
<trkpt lat="52.719328" lon="06.028079"><ele>-2</ele><time>2022-09-06T14:00:17Z</time><name>PT8170</name></trkpt>
<trkpt lat="52.719328" lon="06.028063"><ele>-2.1</ele><time>2022-09-06T14:00:18Z</time><name>PT8171</name></trkpt>
<trkpt lat="52.719329" lon="06.028035"><ele>-2.2</ele><time>2022-09-06T14:00:19Z</time><name>PT8172</name></trkpt>
<trkpt lat="52.719328" lon="06.028016"><ele>-2.4</ele><time>2022-09-06T14:00:20Z</time><name>PT8173</name></trkpt>
<trkpt lat="52.719326" lon="06.028001"><ele>-2.3</ele><time>2022-09-06T14:00:21Z</time><name>PT8174</name></trkpt>
<trkpt lat="52.719326" lon="06.027987"><ele>-2.7</ele><time>2022-09-06T14:00:22Z</time><name>PT8175</name></trkpt>
<trkpt lat="52.719323" lon="06.027965"><ele>-2.7</ele><time>2022-09-06T14:00:23Z</time><name>PT8176</name></trkpt>
<trkpt lat="52.719324" lon="06.027949"><ele>-2.5</ele><time>2022-09-06T14:00:24Z</time><name>PT8177</name></trkpt>
<trkpt lat="52.719325" lon="06.027929"><ele>-2.5</ele><time>2022-09-06T14:00:25Z</time><name>PT8178</name></trkpt>
<trkpt lat="52.719326" lon="06.027915"><ele>-2.3</ele><time>2022-09-06T14:00:26Z</time><name>PT8179</name></trkpt>
<trkpt lat="52.719323" lon="06.027897"><ele>-2.2</ele><time>2022-09-06T14:00:27Z</time><name>PT8180</name></trkpt>
<trkpt lat="52.719320" lon="06.027880"><ele>-2.3</ele><time>2022-09-06T14:00:28Z</time><name>PT8181</name></trkpt>
<trkpt lat="52.719322" lon="06.027864"><ele>-2.4</ele><time>2022-09-06T14:00:29Z</time><name>PT8182</name></trkpt>
<trkpt lat="52.719323" lon="06.027852"><ele>-2.4</ele><time>2022-09-06T14:00:30Z</time><name>PT8183</name></trkpt>
<trkpt lat="52.719317" lon="06.027840"><ele>-2.5</ele><time>2022-09-06T14:00:31Z</time><name>PT8184</name></trkpt>
<trkpt lat="52.719316" lon="06.027832"><ele>-2.5</ele><time>2022-09-06T14:00:32Z</time><name>PT8185</name></trkpt>
<trkpt lat="52.719318" lon="06.027823"><ele>-2.5</ele><time>2022-09-06T14:00:33Z</time><name>PT8186</name></trkpt>
<trkpt lat="52.719320" lon="06.027808"><ele>-2.5</ele><time>2022-09-06T14:00:34Z</time><name>PT8187</name></trkpt>
<trkpt lat="52.719321" lon="06.027796"><ele>-2.5</ele><time>2022-09-06T14:00:35Z</time><name>PT8188</name></trkpt>
<trkpt lat="52.719324" lon="06.027777"><ele>-2.6</ele><time>2022-09-06T14:00:36Z</time><name>PT8189</name></trkpt>
<trkpt lat="52.719321" lon="06.027761"><ele>-2.5</ele><time>2022-09-06T14:00:37Z</time><name>PT8190</name></trkpt>
<trkpt lat="52.719320" lon="06.027740"><ele>-2.4</ele><time>2022-09-06T14:00:38Z</time><name>PT8191</name></trkpt>
<trkpt lat="52.719317" lon="06.027725"><ele>-2.3</ele><time>2022-09-06T14:00:39Z</time><name>PT8192</name></trkpt>
<trkpt lat="52.719312" lon="06.027713"><ele>-2.2</ele><time>2022-09-06T14:00:40Z</time><name>PT8193</name></trkpt>
<trkpt lat="52.719309" lon="06.027702"><ele>-2.4</ele><time>2022-09-06T14:00:41Z</time><name>PT8194</name></trkpt>
<trkpt lat="52.719308" lon="06.027691"><ele>-2.4</ele><time>2022-09-06T14:00:42Z</time><name>PT8195</name></trkpt>
<trkpt lat="52.719301" lon="06.027685"><ele>-2.4</ele><time>2022-09-06T14:00:43Z</time><name>PT8196</name></trkpt>
<trkpt lat="52.719297" lon="06.027672"><ele>-2.4</ele><time>2022-09-06T14:00:44Z</time><name>PT8197</name></trkpt>
<trkpt lat="52.719297" lon="06.027659"><ele>-2.4</ele><time>2022-09-06T14:00:45Z</time><name>PT8198</name></trkpt>
<trkpt lat="52.719298" lon="06.027643"><ele>-2.2</ele><time>2022-09-06T14:00:46Z</time><name>PT8199</name></trkpt>
<trkpt lat="52.719298" lon="06.027633"><ele>-2.1</ele><time>2022-09-06T14:00:47Z</time><name>PT8200</name></trkpt>
<trkpt lat="52.719298" lon="06.027620"><ele>-2.2</ele><time>2022-09-06T14:00:48Z</time><name>PT8201</name></trkpt>
<trkpt lat="52.719296" lon="06.027600"><ele>-2.4</ele><time>2022-09-06T14:00:49Z</time><name>PT8202</name></trkpt>
<trkpt lat="52.719295" lon="06.027587"><ele>-2.4</ele><time>2022-09-06T14:00:50Z</time><name>PT8203</name></trkpt>
<trkpt lat="52.719294" lon="06.027572"><ele>-2.4</ele><time>2022-09-06T14:00:51Z</time><name>PT8204</name></trkpt>
<trkpt lat="52.719295" lon="06.027558"><ele>-2.4</ele><time>2022-09-06T14:00:52Z</time><name>PT8205</name></trkpt>
<trkpt lat="52.719294" lon="06.027546"><ele>-2.1</ele><time>2022-09-06T14:00:53Z</time><name>PT8206</name></trkpt>
<trkpt lat="52.719298" lon="06.027530"><ele>-2.1</ele><time>2022-09-06T14:00:54Z</time><name>PT8207</name></trkpt>
<trkpt lat="52.719296" lon="06.027516"><ele>-2</ele><time>2022-09-06T14:00:55Z</time><name>PT8208</name></trkpt>
<trkpt lat="52.719290" lon="06.027496"><ele>-2.1</ele><time>2022-09-06T14:00:56Z</time><name>PT8209</name></trkpt>
<trkpt lat="52.719290" lon="06.027478"><ele>-2.2</ele><time>2022-09-06T14:00:57Z</time><name>PT8210</name></trkpt>
<trkpt lat="52.719290" lon="06.027467"><ele>-2.4</ele><time>2022-09-06T14:00:58Z</time><name>PT8211</name></trkpt>
<trkpt lat="52.719292" lon="06.027452"><ele>-2.4</ele><time>2022-09-06T14:00:59Z</time><name>PT8212</name></trkpt>
<trkpt lat="52.719292" lon="06.027438"><ele>-2.3</ele><time>2022-09-06T14:01:00Z</time><name>PT8213</name></trkpt>
<trkpt lat="52.719293" lon="06.027425"><ele>-2.2</ele><time>2022-09-06T14:01:01Z</time><name>PT8214</name></trkpt>
<trkpt lat="52.719294" lon="06.027412"><ele>-2</ele><time>2022-09-06T14:01:02Z</time><name>PT8215</name></trkpt>
<trkpt lat="52.719292" lon="06.027400"><ele>-2</ele><time>2022-09-06T14:01:03Z</time><name>PT8216</name></trkpt>
<trkpt lat="52.719295" lon="06.027382"><ele>-2.2</ele><time>2022-09-06T14:01:04Z</time><name>PT8217</name></trkpt>
<trkpt lat="52.719295" lon="06.027367"><ele>-2.4</ele><time>2022-09-06T14:01:05Z</time><name>PT8218</name></trkpt>
<trkpt lat="52.719296" lon="06.027354"><ele>-2.4</ele><time>2022-09-06T14:01:06Z</time><name>PT8219</name></trkpt>
<trkpt lat="52.719296" lon="06.027335"><ele>-2.5</ele><time>2022-09-06T14:01:07Z</time><name>PT8220</name></trkpt>
<trkpt lat="52.719297" lon="06.027315"><ele>-2.5</ele><time>2022-09-06T14:01:08Z</time><name>PT8221</name></trkpt>
<trkpt lat="52.719297" lon="06.027299"><ele>-2.5</ele><time>2022-09-06T14:01:09Z</time><name>PT8222</name></trkpt>
<trkpt lat="52.719298" lon="06.027278"><ele>-2.4</ele><time>2022-09-06T14:01:10Z</time><name>PT8223</name></trkpt>
<trkpt lat="52.719298" lon="06.027264"><ele>-2.3</ele><time>2022-09-06T14:01:11Z</time><name>PT8224</name></trkpt>
<trkpt lat="52.719298" lon="06.027246"><ele>-2</ele><time>2022-09-06T14:01:12Z</time><name>PT8225</name></trkpt>
<trkpt lat="52.719300" lon="06.027223"><ele>-1.9</ele><time>2022-09-06T14:01:13Z</time><name>PT8226</name></trkpt>
<trkpt lat="52.719303" lon="06.027209"><ele>-1.9</ele><time>2022-09-06T14:01:14Z</time><name>PT8227</name></trkpt>
<trkpt lat="52.719303" lon="06.027196"><ele>-1.9</ele><time>2022-09-06T14:01:15Z</time><name>PT8228</name></trkpt>
<trkpt lat="52.719300" lon="06.027183"><ele>-1.9</ele><time>2022-09-06T14:01:16Z</time><name>PT8229</name></trkpt>
<trkpt lat="52.719298" lon="06.027164"><ele>-1.9</ele><time>2022-09-06T14:01:17Z</time><name>PT8230</name></trkpt>
<trkpt lat="52.719299" lon="06.027143"><ele>-1.8</ele><time>2022-09-06T14:01:18Z</time><name>PT8231</name></trkpt>
<trkpt lat="52.719301" lon="06.027127"><ele>-1.7</ele><time>2022-09-06T14:01:19Z</time><name>PT8232</name></trkpt>
<trkpt lat="52.719301" lon="06.027112"><ele>-1.7</ele><time>2022-09-06T14:01:20Z</time><name>PT8233</name></trkpt>
<trkpt lat="52.719298" lon="06.027093"><ele>-1.7</ele><time>2022-09-06T14:01:21Z</time><name>PT8234</name></trkpt>
<trkpt lat="52.719299" lon="06.027079"><ele>-1.9</ele><time>2022-09-06T14:01:22Z</time><name>PT8235</name></trkpt>
<trkpt lat="52.719300" lon="06.027061"><ele>-2.2</ele><time>2022-09-06T14:01:23Z</time><name>PT8236</name></trkpt>
<trkpt lat="52.719303" lon="06.027047"><ele>-2.1</ele><time>2022-09-06T14:01:24Z</time><name>PT8237</name></trkpt>
<trkpt lat="52.719305" lon="06.027035"><ele>-2.3</ele><time>2022-09-06T14:01:25Z</time><name>PT8238</name></trkpt>
<trkpt lat="52.719301" lon="06.027022"><ele>-2.4</ele><time>2022-09-06T14:01:26Z</time><name>PT8239</name></trkpt>
<trkpt lat="52.719301" lon="06.027011"><ele>-2.4</ele><time>2022-09-06T14:01:27Z</time><name>PT8240</name></trkpt>
<trkpt lat="52.719299" lon="06.027002"><ele>-2.4</ele><time>2022-09-06T14:01:28Z</time><name>PT8241</name></trkpt>
<trkpt lat="52.719298" lon="06.026991"><ele>-2.4</ele><time>2022-09-06T14:01:29Z</time><name>PT8242</name></trkpt>
<trkpt lat="52.719296" lon="06.026982"><ele>-2.4</ele><time>2022-09-06T14:01:30Z</time><name>PT8243</name></trkpt>
<trkpt lat="52.719295" lon="06.026972"><ele>-2.3</ele><time>2022-09-06T14:01:31Z</time><name>PT8244</name></trkpt>
<trkpt lat="52.719304" lon="06.026934"><ele>-2.4</ele><time>2022-09-06T14:01:39Z</time><name>PT8245</name></trkpt>
<trkpt lat="52.719298" lon="06.026891"><ele>-2.4</ele><time>2022-09-06T14:01:40Z</time><name>PT8246</name></trkpt>
<trkpt lat="52.719301" lon="06.026863"><ele>-2.4</ele><time>2022-09-06T14:01:41Z</time><name>PT8247</name></trkpt>
<trkpt lat="52.719295" lon="06.026844"><ele>-2.4</ele><time>2022-09-06T14:01:42Z</time><name>PT8248</name></trkpt>
<trkpt lat="52.719289" lon="06.026823"><ele>-2.3</ele><time>2022-09-06T14:01:43Z</time><name>PT8249</name></trkpt>
<trkpt lat="52.719281" lon="06.026802"><ele>-2.3</ele><time>2022-09-06T14:01:44Z</time><name>PT8250</name></trkpt>
<trkpt lat="52.719278" lon="06.026780"><ele>-2.4</ele><time>2022-09-06T14:01:45Z</time><name>PT8251</name></trkpt>
<trkpt lat="52.719274" lon="06.026756"><ele>-2.3</ele><time>2022-09-06T14:01:46Z</time><name>PT8252</name></trkpt>
<trkpt lat="52.719270" lon="06.026736"><ele>-2.3</ele><time>2022-09-06T14:01:47Z</time><name>PT8253</name></trkpt>
<trkpt lat="52.719267" lon="06.026719"><ele>-2.4</ele><time>2022-09-06T14:01:48Z</time><name>PT8254</name></trkpt>
<trkpt lat="52.719262" lon="06.026706"><ele>-2.3</ele><time>2022-09-06T14:01:49Z</time><name>PT8255</name></trkpt>
<trkpt lat="52.719255" lon="06.026693"><ele>-2.3</ele><time>2022-09-06T14:01:50Z</time><name>PT8256</name></trkpt>
<trkpt lat="52.719253" lon="06.026677"><ele>-2.2</ele><time>2022-09-06T14:01:51Z</time><name>PT8257</name></trkpt>
<trkpt lat="52.719253" lon="06.026661"><ele>-2</ele><time>2022-09-06T14:01:52Z</time><name>PT8258</name></trkpt>
<trkpt lat="52.719250" lon="06.026649"><ele>-2.3</ele><time>2022-09-06T14:01:53Z</time><name>PT8259</name></trkpt>
<trkpt lat="52.719246" lon="06.026641"><ele>-2.3</ele><time>2022-09-06T14:01:54Z</time><name>PT8260</name></trkpt>
<trkpt lat="52.719246" lon="06.026629"><ele>-2.3</ele><time>2022-09-06T14:01:55Z</time><name>PT8261</name></trkpt>
<trkpt lat="52.719247" lon="06.026620"><ele>-2.4</ele><time>2022-09-06T14:01:56Z</time><name>PT8262</name></trkpt>
<trkpt lat="52.719249" lon="06.026608"><ele>-2.4</ele><time>2022-09-06T14:01:57Z</time><name>PT8263</name></trkpt>
<trkpt lat="52.719249" lon="06.026595"><ele>-2.4</ele><time>2022-09-06T14:01:58Z</time><name>PT8264</name></trkpt>
<trkpt lat="52.719249" lon="06.026583"><ele>-2.4</ele><time>2022-09-06T14:01:59Z</time><name>PT8265</name></trkpt>
<trkpt lat="52.719249" lon="06.026573"><ele>-2.4</ele><time>2022-09-06T14:02:00Z</time><name>PT8266</name></trkpt>
<trkpt lat="52.719253" lon="06.026563"><ele>-2.4</ele><time>2022-09-06T14:02:01Z</time><name>PT8267</name></trkpt>
<trkpt lat="52.719254" lon="06.026553"><ele>-2.4</ele><time>2022-09-06T14:02:02Z</time><name>PT8268</name></trkpt>
<trkpt lat="52.719254" lon="06.026538"><ele>-2.4</ele><time>2022-09-06T14:02:03Z</time><name>PT8269</name></trkpt>
<trkpt lat="52.719256" lon="06.026525"><ele>-2.4</ele><time>2022-09-06T14:02:04Z</time><name>PT8270</name></trkpt>
<trkpt lat="52.719259" lon="06.026516"><ele>-2.3</ele><time>2022-09-06T14:02:05Z</time><name>PT8271</name></trkpt>
<trkpt lat="52.719260" lon="06.026507"><ele>-2.5</ele><time>2022-09-06T14:02:06Z</time><name>PT8272</name></trkpt>
<trkpt lat="52.719260" lon="06.026492"><ele>-2.4</ele><time>2022-09-06T14:02:07Z</time><name>PT8273</name></trkpt>
<trkpt lat="52.719263" lon="06.026479"><ele>-2.4</ele><time>2022-09-06T14:02:08Z</time><name>PT8274</name></trkpt>
<trkpt lat="52.719263" lon="06.026465"><ele>-2.4</ele><time>2022-09-06T14:02:09Z</time><name>PT8275</name></trkpt>
<trkpt lat="52.719264" lon="06.026450"><ele>-2.4</ele><time>2022-09-06T14:02:10Z</time><name>PT8276</name></trkpt>
<trkpt lat="52.719266" lon="06.026436"><ele>-2.4</ele><time>2022-09-06T14:02:11Z</time><name>PT8277</name></trkpt>
<trkpt lat="52.719270" lon="06.026421"><ele>-2.6</ele><time>2022-09-06T14:02:12Z</time><name>PT8278</name></trkpt>
<trkpt lat="52.719269" lon="06.026404"><ele>-2.6</ele><time>2022-09-06T14:02:13Z</time><name>PT8279</name></trkpt>
<trkpt lat="52.719271" lon="06.026389"><ele>-2.4</ele><time>2022-09-06T14:02:14Z</time><name>PT8280</name></trkpt>
<trkpt lat="52.719273" lon="06.026377"><ele>-2.4</ele><time>2022-09-06T14:02:15Z</time><name>PT8281</name></trkpt>
<trkpt lat="52.719276" lon="06.026367"><ele>-2.2</ele><time>2022-09-06T14:02:16Z</time><name>PT8282</name></trkpt>
<trkpt lat="52.719278" lon="06.026359"><ele>-2.1</ele><time>2022-09-06T14:02:18Z</time><name>PT8283</name></trkpt>
<trkpt lat="52.719286" lon="06.026342"><ele>-2</ele><time>2022-09-06T14:02:19Z</time><name>PT8284</name></trkpt>
<trkpt lat="52.719291" lon="06.026328"><ele>-2.1</ele><time>2022-09-06T14:02:20Z</time><name>PT8285</name></trkpt>
<trkpt lat="52.719295" lon="06.026319"><ele>-2.3</ele><time>2022-09-06T14:02:21Z</time><name>PT8286</name></trkpt>
<trkpt lat="52.719297" lon="06.026305"><ele>-2.4</ele><time>2022-09-06T14:02:22Z</time><name>PT8287</name></trkpt>
<trkpt lat="52.719299" lon="06.026290"><ele>-2.4</ele><time>2022-09-06T14:02:23Z</time><name>PT8288</name></trkpt>
<trkpt lat="52.719303" lon="06.026278"><ele>-2.4</ele><time>2022-09-06T14:02:24Z</time><name>PT8289</name></trkpt>
<trkpt lat="52.719305" lon="06.026272"><ele>-2.3</ele><time>2022-09-06T14:02:25Z</time><name>PT8290</name></trkpt>
<trkpt lat="52.719305" lon="06.026266"><ele>-2.2</ele><time>2022-09-06T14:02:26Z</time><name>PT8291</name></trkpt>
<trkpt lat="52.719305" lon="06.026260"><ele>-2.1</ele><time>2022-09-06T14:02:27Z</time><name>PT8292</name></trkpt>
<trkpt lat="52.719310" lon="06.026250"><ele>-2.4</ele><time>2022-09-06T14:02:29Z</time><name>PT8293</name></trkpt>
<trkpt lat="52.719310" lon="06.026230"><ele>-2.4</ele><time>2022-09-06T14:02:30Z</time><name>PT8294</name></trkpt>
<trkpt lat="52.719310" lon="06.026214"><ele>-2.4</ele><time>2022-09-06T14:02:31Z</time><name>PT8295</name></trkpt>
<trkpt lat="52.719313" lon="06.026195"><ele>-2.4</ele><time>2022-09-06T14:02:32Z</time><name>PT8296</name></trkpt>
<trkpt lat="52.719315" lon="06.026189"><ele>-2.3</ele><time>2022-09-06T14:02:33Z</time><name>PT8297</name></trkpt>
<trkpt lat="52.719314" lon="06.026184"><ele>-2.4</ele><time>2022-09-06T14:02:34Z</time><name>PT8298</name></trkpt>
<trkpt lat="52.719312" lon="06.026179"><ele>-2.4</ele><time>2022-09-06T14:02:35Z</time><name>PT8299</name></trkpt>
<trkpt lat="52.719310" lon="06.026169"><ele>-2.4</ele><time>2022-09-06T14:02:38Z</time><name>PT8300</name></trkpt>
<trkpt lat="52.719309" lon="06.026154"><ele>-2.3</ele><time>2022-09-06T14:02:39Z</time><name>PT8301</name></trkpt>
<trkpt lat="52.719316" lon="06.026135"><ele>-2.4</ele><time>2022-09-06T14:02:40Z</time><name>PT8302</name></trkpt>
<trkpt lat="52.719314" lon="06.026119"><ele>-2.4</ele><time>2022-09-06T14:02:41Z</time><name>PT8303</name></trkpt>
<trkpt lat="52.719317" lon="06.026105"><ele>-2.5</ele><time>2022-09-06T14:02:42Z</time><name>PT8304</name></trkpt>
<trkpt lat="52.719317" lon="06.026087"><ele>-2.5</ele><time>2022-09-06T14:02:43Z</time><name>PT8305</name></trkpt>
<trkpt lat="52.719315" lon="06.026073"><ele>-2.5</ele><time>2022-09-06T14:02:44Z</time><name>PT8306</name></trkpt>
<trkpt lat="52.719312" lon="06.026058"><ele>-2.5</ele><time>2022-09-06T14:02:45Z</time><name>PT8307</name></trkpt>
<trkpt lat="52.719309" lon="06.026043"><ele>-2.5</ele><time>2022-09-06T14:02:46Z</time><name>PT8308</name></trkpt>
<trkpt lat="52.719304" lon="06.026031"><ele>-2.4</ele><time>2022-09-06T14:02:47Z</time><name>PT8309</name></trkpt>
<trkpt lat="52.719298" lon="06.026020"><ele>-2.3</ele><time>2022-09-06T14:02:48Z</time><name>PT8310</name></trkpt>
<trkpt lat="52.719295" lon="06.026005"><ele>-2.4</ele><time>2022-09-06T14:02:49Z</time><name>PT8311</name></trkpt>
<trkpt lat="52.719289" lon="06.025994"><ele>-2.4</ele><time>2022-09-06T14:02:50Z</time><name>PT8312</name></trkpt>
<trkpt lat="52.719282" lon="06.025980"><ele>-2.5</ele><time>2022-09-06T14:02:51Z</time><name>PT8313</name></trkpt>
<trkpt lat="52.719278" lon="06.025971"><ele>-2.6</ele><time>2022-09-06T14:02:52Z</time><name>PT8314</name></trkpt>
<trkpt lat="52.719272" lon="06.025961"><ele>-2.4</ele><time>2022-09-06T14:02:53Z</time><name>PT8315</name></trkpt>
<trkpt lat="52.719262" lon="06.025957"><ele>-2.6</ele><time>2022-09-06T14:02:54Z</time><name>PT8316</name></trkpt>
<trkpt lat="52.719255" lon="06.025951"><ele>-2.7</ele><time>2022-09-06T14:02:55Z</time><name>PT8317</name></trkpt>
<trkpt lat="52.719247" lon="06.025943"><ele>-2.9</ele><time>2022-09-06T14:02:56Z</time><name>PT8318</name></trkpt>
<trkpt lat="52.719241" lon="06.025935"><ele>-2.6</ele><time>2022-09-06T14:02:57Z</time><name>PT8319</name></trkpt>
<trkpt lat="52.719239" lon="06.025922"><ele>-2.7</ele><time>2022-09-06T14:02:58Z</time><name>PT8320</name></trkpt>
<trkpt lat="52.719233" lon="06.025915"><ele>-2.7</ele><time>2022-09-06T14:02:59Z</time><name>PT8321</name></trkpt>
<trkpt lat="52.719230" lon="06.025907"><ele>-2.5</ele><time>2022-09-06T14:03:00Z</time><name>PT8322</name></trkpt>
<trkpt lat="52.719223" lon="06.025896"><ele>-2.5</ele><time>2022-09-06T14:03:01Z</time><name>PT8323</name></trkpt>
<trkpt lat="52.719221" lon="06.025887"><ele>-2.5</ele><time>2022-09-06T14:03:02Z</time><name>PT8324</name></trkpt>
<trkpt lat="52.719220" lon="06.025880"><ele>-2.3</ele><time>2022-09-06T14:03:03Z</time><name>PT8325</name></trkpt>
<trkpt lat="52.719220" lon="06.025871"><ele>-2.4</ele><time>2022-09-06T14:03:04Z</time><name>PT8326</name></trkpt>
<trkpt lat="52.719221" lon="06.025864"><ele>-2.3</ele><time>2022-09-06T14:03:05Z</time><name>PT8327</name></trkpt>
<trkpt lat="52.719220" lon="06.025855"><ele>-2.2</ele><time>2022-09-06T14:03:06Z</time><name>PT8328</name></trkpt>
<trkpt lat="52.719218" lon="06.025844"><ele>-2.2</ele><time>2022-09-06T14:03:07Z</time><name>PT8329</name></trkpt>
<trkpt lat="52.719218" lon="06.025832"><ele>-2.1</ele><time>2022-09-06T14:03:08Z</time><name>PT8330</name></trkpt>
<trkpt lat="52.719219" lon="06.025821"><ele>-2.1</ele><time>2022-09-06T14:03:09Z</time><name>PT8331</name></trkpt>
<trkpt lat="52.719219" lon="06.025809"><ele>-2.1</ele><time>2022-09-06T14:03:10Z</time><name>PT8332</name></trkpt>
<trkpt lat="52.719217" lon="06.025797"><ele>-2</ele><time>2022-09-06T14:03:11Z</time><name>PT8333</name></trkpt>
<trkpt lat="52.719216" lon="06.025785"><ele>-2</ele><time>2022-09-06T14:03:12Z</time><name>PT8334</name></trkpt>
<trkpt lat="52.719215" lon="06.025774"><ele>-2.1</ele><time>2022-09-06T14:03:13Z</time><name>PT8335</name></trkpt>
<trkpt lat="52.719214" lon="06.025767"><ele>-2</ele><time>2022-09-06T14:03:14Z</time><name>PT8336</name></trkpt>
<trkpt lat="52.719214" lon="06.025753"><ele>-2.3</ele><time>2022-09-06T14:03:15Z</time><name>PT8337</name></trkpt>
<trkpt lat="52.719214" lon="06.025743"><ele>-2.2</ele><time>2022-09-06T14:03:16Z</time><name>PT8338</name></trkpt>
<trkpt lat="52.719214" lon="06.025733"><ele>-1.9</ele><time>2022-09-06T14:03:17Z</time><name>PT8339</name></trkpt>
<trkpt lat="52.719213" lon="06.025724"><ele>-1.9</ele><time>2022-09-06T14:03:18Z</time><name>PT8340</name></trkpt>
<trkpt lat="52.719212" lon="06.025714"><ele>-1.9</ele><time>2022-09-06T14:03:19Z</time><name>PT8341</name></trkpt>
<trkpt lat="52.719210" lon="06.025705"><ele>-1.8</ele><time>2022-09-06T14:03:20Z</time><name>PT8342</name></trkpt>
<trkpt lat="52.719208" lon="06.025696"><ele>-1.8</ele><time>2022-09-06T14:03:21Z</time><name>PT8343</name></trkpt>
<trkpt lat="52.719205" lon="06.025681"><ele>-1.9</ele><time>2022-09-06T14:03:22Z</time><name>PT8344</name></trkpt>
<trkpt lat="52.719205" lon="06.025674"><ele>-2.1</ele><time>2022-09-06T14:03:23Z</time><name>PT8345</name></trkpt>
<trkpt lat="52.719205" lon="06.025660"><ele>-2</ele><time>2022-09-06T14:03:24Z</time><name>PT8346</name></trkpt>
<trkpt lat="52.719207" lon="06.025647"><ele>-2.1</ele><time>2022-09-06T14:03:25Z</time><name>PT8347</name></trkpt>
<trkpt lat="52.719207" lon="06.025635"><ele>-2.1</ele><time>2022-09-06T14:03:26Z</time><name>PT8348</name></trkpt>
<trkpt lat="52.719202" lon="06.025616"><ele>-1.9</ele><time>2022-09-06T14:03:27Z</time><name>PT8349</name></trkpt>
<trkpt lat="52.719199" lon="06.025603"><ele>-1.9</ele><time>2022-09-06T14:03:28Z</time><name>PT8350</name></trkpt>
<trkpt lat="52.719195" lon="06.025588"><ele>-2.1</ele><time>2022-09-06T14:03:29Z</time><name>PT8351</name></trkpt>
<trkpt lat="52.719194" lon="06.025577"><ele>-2.3</ele><time>2022-09-06T14:03:30Z</time><name>PT8352</name></trkpt>
<trkpt lat="52.719193" lon="06.025566"><ele>-2.4</ele><time>2022-09-06T14:03:31Z</time><name>PT8353</name></trkpt>
<trkpt lat="52.719192" lon="06.025557"><ele>-2.4</ele><time>2022-09-06T14:03:32Z</time><name>PT8354</name></trkpt>
<trkpt lat="52.719192" lon="06.025549"><ele>-2.2</ele><time>2022-09-06T14:03:33Z</time><name>PT8355</name></trkpt>
<trkpt lat="52.719192" lon="06.025532"><ele>-2.2</ele><time>2022-09-06T14:03:34Z</time><name>PT8356</name></trkpt>
<trkpt lat="52.719190" lon="06.025516"><ele>-2.3</ele><time>2022-09-06T14:03:35Z</time><name>PT8357</name></trkpt>
<trkpt lat="52.719190" lon="06.025506"><ele>-2.3</ele><time>2022-09-06T14:03:36Z</time><name>PT8358</name></trkpt>
<trkpt lat="52.719189" lon="06.025494"><ele>-2.4</ele><time>2022-09-06T14:03:37Z</time><name>PT8359</name></trkpt>
<trkpt lat="52.719190" lon="06.025481"><ele>-2.3</ele><time>2022-09-06T14:03:38Z</time><name>PT8360</name></trkpt>
<trkpt lat="52.719190" lon="06.025470"><ele>-2.2</ele><time>2022-09-06T14:03:39Z</time><name>PT8361</name></trkpt>
<trkpt lat="52.719191" lon="06.025461"><ele>-2.2</ele><time>2022-09-06T14:03:40Z</time><name>PT8362</name></trkpt>
<trkpt lat="52.719191" lon="06.025448"><ele>-2</ele><time>2022-09-06T14:03:41Z</time><name>PT8363</name></trkpt>
<trkpt lat="52.719195" lon="06.025434"><ele>-1.9</ele><time>2022-09-06T14:03:42Z</time><name>PT8364</name></trkpt>
<trkpt lat="52.719198" lon="06.025422"><ele>-2</ele><time>2022-09-06T14:03:43Z</time><name>PT8365</name></trkpt>
<trkpt lat="52.719199" lon="06.025409"><ele>-1.9</ele><time>2022-09-06T14:03:44Z</time><name>PT8366</name></trkpt>
<trkpt lat="52.719202" lon="06.025399"><ele>-1.7</ele><time>2022-09-06T14:03:45Z</time><name>PT8367</name></trkpt>
<trkpt lat="52.719205" lon="06.025393"><ele>-1.8</ele><time>2022-09-06T14:03:46Z</time><name>PT8368</name></trkpt>
<trkpt lat="52.719206" lon="06.025387"><ele>-1.9</ele><time>2022-09-06T14:03:47Z</time><name>PT8369</name></trkpt>
<trkpt lat="52.719204" lon="06.025379"><ele>-1.7</ele><time>2022-09-06T14:03:48Z</time><name>PT8370</name></trkpt>
<trkpt lat="52.719203" lon="06.025375"><ele>-1.7</ele><time>2022-09-06T14:03:49Z</time><name>PT8371</name></trkpt>
<trkpt lat="52.719200" lon="06.025366"><ele>-1.8</ele><time>2022-09-06T14:03:50Z</time><name>PT8372</name></trkpt>
<trkpt lat="52.719201" lon="06.025361"><ele>-1.6</ele><time>2022-09-06T14:03:51Z</time><name>PT8373</name></trkpt>
<trkpt lat="52.719198" lon="06.025356"><ele>-1.6</ele><time>2022-09-06T14:03:52Z</time><name>PT8374</name></trkpt>
<trkpt lat="52.719196" lon="06.025346"><ele>-1.8</ele><time>2022-09-06T14:03:53Z</time><name>PT8375</name></trkpt>
<trkpt lat="52.719191" lon="06.025340"><ele>-1.9</ele><time>2022-09-06T14:03:54Z</time><name>PT8376</name></trkpt>
<trkpt lat="52.719190" lon="06.025336"><ele>-1.7</ele><time>2022-09-06T14:03:55Z</time><name>PT8377</name></trkpt>
<trkpt lat="52.719189" lon="06.025329"><ele>-1.6</ele><time>2022-09-06T14:03:56Z</time><name>PT8378</name></trkpt>
<trkpt lat="52.719190" lon="06.025323"><ele>-1.6</ele><time>2022-09-06T14:04:17Z</time><name>PT8379</name></trkpt>
<trkpt lat="52.719190" lon="06.025318"><ele>-1.7</ele><time>2022-09-06T14:04:18Z</time><name>PT8380</name></trkpt>
<trkpt lat="52.719188" lon="06.025314"><ele>-1.7</ele><time>2022-09-06T14:04:19Z</time><name>PT8381</name></trkpt>
<trkpt lat="52.719187" lon="06.025310"><ele>-1.9</ele><time>2022-09-06T14:04:20Z</time><name>PT8382</name></trkpt>
<trkpt lat="52.719186" lon="06.025304"><ele>-1.9</ele><time>2022-09-06T14:04:21Z</time><name>PT8383</name></trkpt>
<trkpt lat="52.719187" lon="06.025302"><ele>-1.8</ele><time>2022-09-06T14:04:22Z</time><name>PT8384</name></trkpt>
<trkpt lat="52.719185" lon="06.025299"><ele>-2.3</ele><time>2022-09-06T14:04:27Z</time><name>PT8385</name></trkpt>
<trkpt lat="52.719185" lon="06.025294"><ele>-2.3</ele><time>2022-09-06T14:04:28Z</time><name>PT8386</name></trkpt>
<trkpt lat="52.719186" lon="06.025290"><ele>-2.2</ele><time>2022-09-06T14:04:29Z</time><name>PT8387</name></trkpt>
<trkpt lat="52.719185" lon="06.025286"><ele>-2.3</ele><time>2022-09-06T14:04:41Z</time><name>PT8388</name></trkpt>
<trkpt lat="52.719186" lon="06.025284"><ele>-2.3</ele><time>2022-09-06T14:04:42Z</time><name>PT8389</name></trkpt>
<trkpt lat="52.719185" lon="06.025279"><ele>-2.1</ele><time>2022-09-06T14:04:43Z</time><name>PT8390</name></trkpt>
<trkpt lat="52.719185" lon="06.025279"><ele>-1.9</ele><time>2022-09-06T14:04:44Z</time><name>PT8391</name></trkpt>
<trkpt lat="52.719181" lon="06.025275"><ele>-2.4</ele><time>2022-09-06T14:05:07Z</time><name>PT8392</name></trkpt>
<trkpt lat="52.719180" lon="06.025270"><ele>-2.1</ele><time>2022-09-06T14:05:08Z</time><name>PT8393</name></trkpt>
<trkpt lat="52.719181" lon="06.025264"><ele>-1.9</ele><time>2022-09-06T14:05:09Z</time><name>PT8394</name></trkpt>
<trkpt lat="52.719182" lon="06.025260"><ele>-1.9</ele><time>2022-09-06T14:05:10Z</time><name>PT8395</name></trkpt>
<trkpt lat="52.719182" lon="06.025258"><ele>-1.8</ele><time>2022-09-06T14:05:11Z</time><name>PT8396</name></trkpt>
<trkpt lat="52.719182" lon="06.025254"><ele>-1.7</ele><time>2022-09-06T14:05:12Z</time><name>PT8397</name></trkpt>
<trkpt lat="52.719182" lon="06.025252"><ele>-1.8</ele><time>2022-09-06T14:05:13Z</time><name>PT8398</name></trkpt>
<trkpt lat="52.719180" lon="06.025246"><ele>-2.2</ele><time>2022-09-06T14:05:17Z</time><name>PT8399</name></trkpt>
<trkpt lat="52.719178" lon="06.025239"><ele>-2.2</ele><time>2022-09-06T14:05:18Z</time><name>PT8400</name></trkpt>
<trkpt lat="52.719178" lon="06.025231"><ele>-1.9</ele><time>2022-09-06T14:05:19Z</time><name>PT8401</name></trkpt>
<trkpt lat="52.719179" lon="06.025223"><ele>-1.7</ele><time>2022-09-06T14:05:20Z</time><name>PT8402</name></trkpt>
<trkpt lat="52.719180" lon="06.025220"><ele>-1.5</ele><time>2022-09-06T14:05:21Z</time><name>PT8403</name></trkpt>
<trkpt lat="52.719181" lon="06.025215"><ele>-1.5</ele><time>2022-09-06T14:05:22Z</time><name>PT8404</name></trkpt>
<trkpt lat="52.719181" lon="06.025211"><ele>-1.4</ele><time>2022-09-06T14:05:23Z</time><name>PT8405</name></trkpt>
<trkpt lat="52.719181" lon="06.025202"><ele>-1.4</ele><time>2022-09-06T14:05:24Z</time><name>PT8406</name></trkpt>
<trkpt lat="52.719181" lon="06.025189"><ele>-1.6</ele><time>2022-09-06T14:05:25Z</time><name>PT8407</name></trkpt>
<trkpt lat="52.719179" lon="06.025182"><ele>-1.4</ele><time>2022-09-06T14:05:26Z</time><name>PT8408</name></trkpt>
<trkpt lat="52.719178" lon="06.025179"><ele>-1.4</ele><time>2022-09-06T14:05:27Z</time><name>PT8409</name></trkpt>
<trkpt lat="52.719178" lon="06.025174"><ele>-1.6</ele><time>2022-09-06T14:05:28Z</time><name>PT8410</name></trkpt>
<trkpt lat="52.719176" lon="06.025170"><ele>-1.4</ele><time>2022-09-06T14:05:35Z</time><name>PT8411</name></trkpt>
<trkpt lat="52.719176" lon="06.025162"><ele>-1.6</ele><time>2022-09-06T14:05:36Z</time><name>PT8412</name></trkpt>
<trkpt lat="52.719177" lon="06.025157"><ele>-1.4</ele><time>2022-09-06T14:05:37Z</time><name>PT8413</name></trkpt>
<trkpt lat="52.719177" lon="06.025150"><ele>-1.3</ele><time>2022-09-06T14:05:38Z</time><name>PT8414</name></trkpt>
<trkpt lat="52.719177" lon="06.025147"><ele>-1</ele><time>2022-09-06T14:05:41Z</time><name>PT8415</name></trkpt>
<trkpt lat="52.719178" lon="06.025146"><ele>-1</ele><time>2022-09-06T14:05:42Z</time><name>PT8416</name></trkpt>
<trkpt lat="52.719176" lon="06.025137"><ele>-1</ele><time>2022-09-06T14:05:43Z</time><name>PT8417</name></trkpt>
<trkpt lat="52.719175" lon="06.025130"><ele>-1.1</ele><time>2022-09-06T14:05:44Z</time><name>PT8418</name></trkpt>
<trkpt lat="52.719174" lon="06.025125"><ele>-1.4</ele><time>2022-09-06T14:05:45Z</time><name>PT8419</name></trkpt>
<trkpt lat="52.719176" lon="06.025124"><ele>-1.4</ele><time>2022-09-06T14:05:46Z</time><name>PT8420</name></trkpt>
<trkpt lat="52.719177" lon="06.025119"><ele>-1.4</ele><time>2022-09-06T14:05:47Z</time><name>PT8421</name></trkpt>
<trkpt lat="52.719181" lon="06.025114"><ele>-1.4</ele><time>2022-09-06T14:05:48Z</time><name>PT8422</name></trkpt>
<trkpt lat="52.719187" lon="06.025106"><ele>-1.3</ele><time>2022-09-06T14:05:49Z</time><name>PT8423</name></trkpt>
<trkpt lat="52.719189" lon="06.025104"><ele>-1.2</ele><time>2022-09-06T14:05:50Z</time><name>PT8424</name></trkpt>
<trkpt lat="52.719190" lon="06.025103"><ele>-1.2</ele><time>2022-09-06T14:05:51Z</time><name>PT8425</name></trkpt>
<trkpt lat="52.719190" lon="06.025104"><ele>-1.3</ele><time>2022-09-06T14:05:52Z</time><name>PT8426</name></trkpt>
<trkpt lat="52.719191" lon="06.025100"><ele>-1.3</ele><time>2022-09-06T14:05:53Z</time><name>PT8427</name></trkpt>
<trkpt lat="52.719194" lon="06.025104"><ele>-1.3</ele><time>2022-09-06T14:05:54Z</time><name>PT8428</name></trkpt>
<trkpt lat="52.719199" lon="06.025098"><ele>-1.3</ele><time>2022-09-06T14:05:55Z</time><name>PT8429</name></trkpt>
<trkpt lat="52.719207" lon="06.025090"><ele>-1.3</ele><time>2022-09-06T14:05:56Z</time><name>PT8430</name></trkpt>
<trkpt lat="52.719209" lon="06.025085"><ele>-1.4</ele><time>2022-09-06T14:05:57Z</time><name>PT8431</name></trkpt>
<trkpt lat="52.719214" lon="06.025086"><ele>-1.5</ele><time>2022-09-06T14:05:58Z</time><name>PT8432</name></trkpt>
<trkpt lat="52.719218" lon="06.025084"><ele>-1.5</ele><time>2022-09-06T14:05:59Z</time><name>PT8433</name></trkpt>
<trkpt lat="52.719221" lon="06.025076"><ele>-1.5</ele><time>2022-09-06T14:06:00Z</time><name>PT8434</name></trkpt>
<trkpt lat="52.719224" lon="06.025071"><ele>-1.5</ele><time>2022-09-06T14:06:01Z</time><name>PT8435</name></trkpt>
<trkpt lat="52.719227" lon="06.025069"><ele>-1.3</ele><time>2022-09-06T14:06:02Z</time><name>PT8436</name></trkpt>
<trkpt lat="52.719231" lon="06.025068"><ele>-1.1</ele><time>2022-09-06T14:06:03Z</time><name>PT8437</name></trkpt>
<trkpt lat="52.719232" lon="06.025063"><ele>0.9</ele><time>2022-09-06T14:06:07Z</time><name>PT8438</name></trkpt>
<trkpt lat="52.719238" lon="06.025064"><ele>-1</ele><time>2022-09-06T14:06:08Z</time><name>PT8439</name></trkpt>
<trkpt lat="52.719247" lon="06.025062"><ele>-1</ele><time>2022-09-06T14:06:09Z</time><name>PT8440</name></trkpt>
<trkpt lat="52.719254" lon="06.025062"><ele>0.8</ele><time>2022-09-06T14:06:10Z</time><name>PT8441</name></trkpt>
<trkpt lat="52.719261" lon="06.025063"><ele>0.6</ele><time>2022-09-06T14:06:11Z</time><name>PT8442</name></trkpt>
<trkpt lat="52.719267" lon="06.025063"><ele>0.7</ele><time>2022-09-06T14:06:12Z</time><name>PT8443</name></trkpt>
<trkpt lat="52.719272" lon="06.025059"><ele>0.6</ele><time>2022-09-06T14:06:13Z</time><name>PT8444</name></trkpt>
<trkpt lat="52.719275" lon="06.025059"><ele>0.6</ele><time>2022-09-06T14:06:14Z</time><name>PT8445</name></trkpt>
<trkpt lat="52.719275" lon="06.025061"><ele>0.6</ele><time>2022-09-06T14:06:15Z</time><name>PT8446</name></trkpt>
<trkpt lat="52.719276" lon="06.025060"><ele>0.9</ele><time>2022-09-06T14:06:16Z</time><name>PT8447</name></trkpt>
<trkpt lat="52.719276" lon="06.025059"><ele>0.9</ele><time>2022-09-06T14:06:17Z</time><name>PT8448</name></trkpt>
<trkpt lat="52.719277" lon="06.025058"><ele>-1</ele><time>2022-09-06T14:06:18Z</time><name>PT8449</name></trkpt>
<trkpt lat="52.719271" lon="06.025055"><ele>-1.1</ele><time>2022-09-06T14:06:26Z</time><name>PT8450</name></trkpt>
<trkpt lat="52.719272" lon="06.025053"><ele>-1.2</ele><time>2022-09-06T14:06:27Z</time><name>PT8451</name></trkpt>
<trkpt lat="52.719277" lon="06.025049"><ele>-1</ele><time>2022-09-06T14:06:28Z</time><name>PT8452</name></trkpt>
<trkpt lat="52.719283" lon="06.025041"><ele>-1.2</ele><time>2022-09-06T14:06:29Z</time><name>PT8453</name></trkpt>
<trkpt lat="52.719288" lon="06.025034"><ele>-1</ele><time>2022-09-06T14:06:30Z</time><name>PT8454</name></trkpt>
<trkpt lat="52.719293" lon="06.025026"><ele>0.9</ele><time>2022-09-06T14:06:31Z</time><name>PT8455</name></trkpt>
<trkpt lat="52.719300" lon="06.025016"><ele>-1</ele><time>2022-09-06T14:06:32Z</time><name>PT8456</name></trkpt>
<trkpt lat="52.719303" lon="06.025004"><ele>-1.1</ele><time>2022-09-06T14:06:33Z</time><name>PT8457</name></trkpt>
<trkpt lat="52.719307" lon="06.024992"><ele>-1.1</ele><time>2022-09-06T14:06:34Z</time><name>PT8458</name></trkpt>
<trkpt lat="52.719312" lon="06.024983"><ele>-1.2</ele><time>2022-09-06T14:06:35Z</time><name>PT8459</name></trkpt>
<trkpt lat="52.719313" lon="06.024976"><ele>-1.4</ele><time>2022-09-06T14:06:36Z</time><name>PT8460</name></trkpt>
<trkpt lat="52.719312" lon="06.024967"><ele>-1.4</ele><time>2022-09-06T14:06:37Z</time><name>PT8461</name></trkpt>
<trkpt lat="52.719314" lon="06.024961"><ele>-1.2</ele><time>2022-09-06T14:06:38Z</time><name>PT8462</name></trkpt>
<trkpt lat="52.719315" lon="06.024951"><ele>-1.2</ele><time>2022-09-06T14:06:39Z</time><name>PT8463</name></trkpt>
<trkpt lat="52.719315" lon="06.024944"><ele>-1.1</ele><time>2022-09-06T14:06:40Z</time><name>PT8464</name></trkpt>
<trkpt lat="52.719314" lon="06.024933"><ele>-1.1</ele><time>2022-09-06T14:06:41Z</time><name>PT8465</name></trkpt>
<trkpt lat="52.719314" lon="06.024921"><ele>-1.3</ele><time>2022-09-06T14:06:42Z</time><name>PT8466</name></trkpt>
<trkpt lat="52.719314" lon="06.024910"><ele>-1.4</ele><time>2022-09-06T14:06:43Z</time><name>PT8467</name></trkpt>
<trkpt lat="52.719314" lon="06.024901"><ele>-1.5</ele><time>2022-09-06T14:06:44Z</time><name>PT8468</name></trkpt>
<trkpt lat="52.719315" lon="06.024897"><ele>-1.7</ele><time>2022-09-06T14:06:45Z</time><name>PT8469</name></trkpt>
<trkpt lat="52.719316" lon="06.024893"><ele>-1.6</ele><time>2022-09-06T14:06:46Z</time><name>PT8470</name></trkpt>
<trkpt lat="52.719316" lon="06.024892"><ele>-1.6</ele><time>2022-09-06T14:06:47Z</time><name>PT8471</name></trkpt>
<trkpt lat="52.719317" lon="06.024893"><ele>-1.4</ele><time>2022-09-06T14:06:48Z</time><name>PT8472</name></trkpt>
<trkpt lat="52.719321" lon="06.024886"><ele>-1.3</ele><time>2022-09-06T14:06:54Z</time><name>PT8473</name></trkpt>
<trkpt lat="52.719320" lon="06.024875"><ele>-1.7</ele><time>2022-09-06T14:06:55Z</time><name>PT8474</name></trkpt>
<trkpt lat="52.719325" lon="06.024862"><ele>-1.5</ele><time>2022-09-06T14:06:56Z</time><name>PT8475</name></trkpt>
<trkpt lat="52.719330" lon="06.024844"><ele>-1.7</ele><time>2022-09-06T14:06:57Z</time><name>PT8476</name></trkpt>
<trkpt lat="52.719330" lon="06.024830"><ele>-1.6</ele><time>2022-09-06T14:06:58Z</time><name>PT8477</name></trkpt>
<trkpt lat="52.719330" lon="06.024813"><ele>-1.7</ele><time>2022-09-06T14:06:59Z</time><name>PT8478</name></trkpt>
<trkpt lat="52.719331" lon="06.024798"><ele>-1.7</ele><time>2022-09-06T14:07:00Z</time><name>PT8479</name></trkpt>
<trkpt lat="52.719328" lon="06.024783"><ele>-1.9</ele><time>2022-09-06T14:07:01Z</time><name>PT8480</name></trkpt>
<trkpt lat="52.719327" lon="06.024768"><ele>-1.9</ele><time>2022-09-06T14:07:02Z</time><name>PT8481</name></trkpt>
<trkpt lat="52.719326" lon="06.024760"><ele>-2.1</ele><time>2022-09-06T14:07:03Z</time><name>PT8482</name></trkpt>
<trkpt lat="52.719327" lon="06.024750"><ele>-2</ele><time>2022-09-06T14:07:04Z</time><name>PT8483</name></trkpt>
<trkpt lat="52.719328" lon="06.024736"><ele>-1.9</ele><time>2022-09-06T14:07:05Z</time><name>PT8484</name></trkpt>
<trkpt lat="52.719326" lon="06.024723"><ele>-1.8</ele><time>2022-09-06T14:07:06Z</time><name>PT8485</name></trkpt>
<trkpt lat="52.719324" lon="06.024710"><ele>-1.7</ele><time>2022-09-06T14:07:07Z</time><name>PT8486</name></trkpt>
<trkpt lat="52.719324" lon="06.024695"><ele>-1.8</ele><time>2022-09-06T14:07:08Z</time><name>PT8487</name></trkpt>
<trkpt lat="52.719323" lon="06.024679"><ele>-1.8</ele><time>2022-09-06T14:07:09Z</time><name>PT8488</name></trkpt>
<trkpt lat="52.719322" lon="06.024667"><ele>-1.7</ele><time>2022-09-06T14:07:10Z</time><name>PT8489</name></trkpt>
<trkpt lat="52.719321" lon="06.024655"><ele>-1.7</ele><time>2022-09-06T14:07:11Z</time><name>PT8490</name></trkpt>
<trkpt lat="52.719320" lon="06.024643"><ele>-1.7</ele><time>2022-09-06T14:07:12Z</time><name>PT8491</name></trkpt>
<trkpt lat="52.719320" lon="06.024630"><ele>-1.9</ele><time>2022-09-06T14:07:13Z</time><name>PT8492</name></trkpt>
<trkpt lat="52.719319" lon="06.024619"><ele>-1.9</ele><time>2022-09-06T14:07:14Z</time><name>PT8493</name></trkpt>
<trkpt lat="52.719320" lon="06.024606"><ele>-1.8</ele><time>2022-09-06T14:07:15Z</time><name>PT8494</name></trkpt>
<trkpt lat="52.719321" lon="06.024595"><ele>-1.7</ele><time>2022-09-06T14:07:16Z</time><name>PT8495</name></trkpt>
<trkpt lat="52.719321" lon="06.024581"><ele>-1.7</ele><time>2022-09-06T14:07:17Z</time><name>PT8496</name></trkpt>
<trkpt lat="52.719320" lon="06.024569"><ele>-1.6</ele><time>2022-09-06T14:07:18Z</time><name>PT8497</name></trkpt>
<trkpt lat="52.719318" lon="06.024556"><ele>-1.4</ele><time>2022-09-06T14:07:19Z</time><name>PT8498</name></trkpt>
<trkpt lat="52.719318" lon="06.024541"><ele>-1.4</ele><time>2022-09-06T14:07:20Z</time><name>PT8499</name></trkpt>
<trkpt lat="52.719316" lon="06.024526"><ele>-1.4</ele><time>2022-09-06T14:07:21Z</time><name>PT8500</name></trkpt>
<trkpt lat="52.719315" lon="06.024512"><ele>-1.4</ele><time>2022-09-06T14:07:22Z</time><name>PT8501</name></trkpt>
<trkpt lat="52.719314" lon="06.024498"><ele>-1.4</ele><time>2022-09-06T14:07:23Z</time><name>PT8502</name></trkpt>
<trkpt lat="52.719314" lon="06.024484"><ele>-1.5</ele><time>2022-09-06T14:07:24Z</time><name>PT8503</name></trkpt>
<trkpt lat="52.719315" lon="06.024467"><ele>-1.6</ele><time>2022-09-06T14:07:25Z</time><name>PT8504</name></trkpt>
<trkpt lat="52.719315" lon="06.024450"><ele>-1.4</ele><time>2022-09-06T14:07:26Z</time><name>PT8505</name></trkpt>
<trkpt lat="52.719313" lon="06.024438"><ele>-1.4</ele><time>2022-09-06T14:07:27Z</time><name>PT8506</name></trkpt>
<trkpt lat="52.719312" lon="06.024426"><ele>-1.4</ele><time>2022-09-06T14:07:28Z</time><name>PT8507</name></trkpt>
<trkpt lat="52.719310" lon="06.024418"><ele>-1.4</ele><time>2022-09-06T14:07:29Z</time><name>PT8508</name></trkpt>
<trkpt lat="52.719311" lon="06.024407"><ele>-1.5</ele><time>2022-09-06T14:07:30Z</time><name>PT8509</name></trkpt>
<trkpt lat="52.719313" lon="06.024394"><ele>-1.7</ele><time>2022-09-06T14:07:31Z</time><name>PT8510</name></trkpt>
<trkpt lat="52.719313" lon="06.024382"><ele>-1.7</ele><time>2022-09-06T14:07:32Z</time><name>PT8511</name></trkpt>
<trkpt lat="52.719312" lon="06.024366"><ele>-1.8</ele><time>2022-09-06T14:07:33Z</time><name>PT8512</name></trkpt>
<trkpt lat="52.719312" lon="06.024352"><ele>-1.9</ele><time>2022-09-06T14:07:34Z</time><name>PT8513</name></trkpt>
<trkpt lat="52.719312" lon="06.024338"><ele>-1.9</ele><time>2022-09-06T14:07:35Z</time><name>PT8514</name></trkpt>
<trkpt lat="52.719312" lon="06.024325"><ele>-1.9</ele><time>2022-09-06T14:07:36Z</time><name>PT8515</name></trkpt>
<trkpt lat="52.719311" lon="06.024316"><ele>-1.8</ele><time>2022-09-06T14:07:37Z</time><name>PT8516</name></trkpt>
<trkpt lat="52.719309" lon="06.024308"><ele>-1.8</ele><time>2022-09-06T14:07:38Z</time><name>PT8517</name></trkpt>
<trkpt lat="52.719310" lon="06.024295"><ele>-1.7</ele><time>2022-09-06T14:07:39Z</time><name>PT8518</name></trkpt>
<trkpt lat="52.719310" lon="06.024279"><ele>-1.8</ele><time>2022-09-06T14:07:40Z</time><name>PT8519</name></trkpt>
<trkpt lat="52.719309" lon="06.024262"><ele>-1.8</ele><time>2022-09-06T14:07:41Z</time><name>PT8520</name></trkpt>
<trkpt lat="52.719308" lon="06.024247"><ele>-1.8</ele><time>2022-09-06T14:07:42Z</time><name>PT8521</name></trkpt>
<trkpt lat="52.719307" lon="06.024235"><ele>-1.7</ele><time>2022-09-06T14:07:43Z</time><name>PT8522</name></trkpt>
<trkpt lat="52.719306" lon="06.024221"><ele>-1.6</ele><time>2022-09-06T14:07:44Z</time><name>PT8523</name></trkpt>
<trkpt lat="52.719303" lon="06.024206"><ele>-1.6</ele><time>2022-09-06T14:07:45Z</time><name>PT8524</name></trkpt>
<trkpt lat="52.719301" lon="06.024190"><ele>-1.6</ele><time>2022-09-06T14:07:46Z</time><name>PT8525</name></trkpt>
<trkpt lat="52.719299" lon="06.024177"><ele>-1.7</ele><time>2022-09-06T14:07:47Z</time><name>PT8526</name></trkpt>
<trkpt lat="52.719299" lon="06.024161"><ele>-1.7</ele><time>2022-09-06T14:07:48Z</time><name>PT8527</name></trkpt>
<trkpt lat="52.719298" lon="06.024147"><ele>-1.8</ele><time>2022-09-06T14:07:49Z</time><name>PT8528</name></trkpt>
<trkpt lat="52.719300" lon="06.024134"><ele>-1.7</ele><time>2022-09-06T14:07:50Z</time><name>PT8529</name></trkpt>
<trkpt lat="52.719299" lon="06.024119"><ele>-1.7</ele><time>2022-09-06T14:07:51Z</time><name>PT8530</name></trkpt>
<trkpt lat="52.719298" lon="06.024108"><ele>-1.7</ele><time>2022-09-06T14:07:52Z</time><name>PT8531</name></trkpt>
<trkpt lat="52.719296" lon="06.024097"><ele>-1.7</ele><time>2022-09-06T14:07:53Z</time><name>PT8532</name></trkpt>
<trkpt lat="52.719294" lon="06.024086"><ele>-1.5</ele><time>2022-09-06T14:07:54Z</time><name>PT8533</name></trkpt>
<trkpt lat="52.719293" lon="06.024075"><ele>-1.4</ele><time>2022-09-06T14:07:55Z</time><name>PT8534</name></trkpt>
<trkpt lat="52.719292" lon="06.024063"><ele>-1.4</ele><time>2022-09-06T14:07:56Z</time><name>PT8535</name></trkpt>
<trkpt lat="52.719291" lon="06.024050"><ele>-1.2</ele><time>2022-09-06T14:07:57Z</time><name>PT8536</name></trkpt>
<trkpt lat="52.719287" lon="06.024037"><ele>-1.3</ele><time>2022-09-06T14:07:58Z</time><name>PT8537</name></trkpt>
<trkpt lat="52.719284" lon="06.024023"><ele>-1.2</ele><time>2022-09-06T14:07:59Z</time><name>PT8538</name></trkpt>
<trkpt lat="52.719284" lon="06.024008"><ele>-1.4</ele><time>2022-09-06T14:08:00Z</time><name>PT8539</name></trkpt>
<trkpt lat="52.719284" lon="06.023991"><ele>-1.4</ele><time>2022-09-06T14:08:01Z</time><name>PT8540</name></trkpt>
<trkpt lat="52.719283" lon="06.023980"><ele>-1.5</ele><time>2022-09-06T14:08:02Z</time><name>PT8541</name></trkpt>
<trkpt lat="52.719281" lon="06.023967"><ele>-1.5</ele><time>2022-09-06T14:08:03Z</time><name>PT8542</name></trkpt>
<trkpt lat="52.719279" lon="06.023953"><ele>-1.5</ele><time>2022-09-06T14:08:04Z</time><name>PT8543</name></trkpt>
<trkpt lat="52.719278" lon="06.023938"><ele>-1.6</ele><time>2022-09-06T14:08:05Z</time><name>PT8544</name></trkpt>
<trkpt lat="52.719275" lon="06.023923"><ele>-1.7</ele><time>2022-09-06T14:08:06Z</time><name>PT8545</name></trkpt>
<trkpt lat="52.719272" lon="06.023913"><ele>-1.7</ele><time>2022-09-06T14:08:07Z</time><name>PT8546</name></trkpt>
<trkpt lat="52.719270" lon="06.023902"><ele>-1.8</ele><time>2022-09-06T14:08:08Z</time><name>PT8547</name></trkpt>
<trkpt lat="52.719268" lon="06.023894"><ele>-1.6</ele><time>2022-09-06T14:08:09Z</time><name>PT8548</name></trkpt>
<trkpt lat="52.719264" lon="06.023884"><ele>-1.6</ele><time>2022-09-06T14:08:10Z</time><name>PT8549</name></trkpt>
<trkpt lat="52.719260" lon="06.023873"><ele>-1.7</ele><time>2022-09-06T14:08:11Z</time><name>PT8550</name></trkpt>
<trkpt lat="52.719255" lon="06.023861"><ele>-1.8</ele><time>2022-09-06T14:08:12Z</time><name>PT8551</name></trkpt>
<trkpt lat="52.719254" lon="06.023848"><ele>-1.7</ele><time>2022-09-06T14:08:13Z</time><name>PT8552</name></trkpt>
<trkpt lat="52.719254" lon="06.023834"><ele>-1.8</ele><time>2022-09-06T14:08:14Z</time><name>PT8553</name></trkpt>
<trkpt lat="52.719255" lon="06.023820"><ele>-1.6</ele><time>2022-09-06T14:08:15Z</time><name>PT8554</name></trkpt>
<trkpt lat="52.719255" lon="06.023806"><ele>-1.7</ele><time>2022-09-06T14:08:16Z</time><name>PT8555</name></trkpt>
<trkpt lat="52.719255" lon="06.023794"><ele>-1.5</ele><time>2022-09-06T14:08:17Z</time><name>PT8556</name></trkpt>
<trkpt lat="52.719255" lon="06.023785"><ele>-1.6</ele><time>2022-09-06T14:08:18Z</time><name>PT8557</name></trkpt>
<trkpt lat="52.719252" lon="06.023774"><ele>-1.7</ele><time>2022-09-06T14:08:19Z</time><name>PT8558</name></trkpt>
<trkpt lat="52.719251" lon="06.023762"><ele>-1.7</ele><time>2022-09-06T14:08:20Z</time><name>PT8559</name></trkpt>
<trkpt lat="52.719251" lon="06.023752"><ele>-1.6</ele><time>2022-09-06T14:08:21Z</time><name>PT8560</name></trkpt>
<trkpt lat="52.719252" lon="06.023740"><ele>-1.7</ele><time>2022-09-06T14:08:22Z</time><name>PT8561</name></trkpt>
<trkpt lat="52.719252" lon="06.023731"><ele>-1.6</ele><time>2022-09-06T14:08:23Z</time><name>PT8562</name></trkpt>
<trkpt lat="52.719251" lon="06.023723"><ele>-1.5</ele><time>2022-09-06T14:08:24Z</time><name>PT8563</name></trkpt>
<trkpt lat="52.719251" lon="06.023717"><ele>-1.7</ele><time>2022-09-06T14:08:25Z</time><name>PT8564</name></trkpt>
<trkpt lat="52.719251" lon="06.023709"><ele>-1.7</ele><time>2022-09-06T14:08:26Z</time><name>PT8565</name></trkpt>
<trkpt lat="52.719253" lon="06.023701"><ele>-1.6</ele><time>2022-09-06T14:08:27Z</time><name>PT8566</name></trkpt>
<trkpt lat="52.719253" lon="06.023695"><ele>-1.7</ele><time>2022-09-06T14:08:28Z</time><name>PT8567</name></trkpt>
<trkpt lat="52.719254" lon="06.023687"><ele>-1.7</ele><time>2022-09-06T14:08:29Z</time><name>PT8568</name></trkpt>
<trkpt lat="52.719257" lon="06.023679"><ele>-1.8</ele><time>2022-09-06T14:08:30Z</time><name>PT8569</name></trkpt>
<trkpt lat="52.719256" lon="06.023670"><ele>-1.8</ele><time>2022-09-06T14:08:31Z</time><name>PT8570</name></trkpt>
<trkpt lat="52.719256" lon="06.023661"><ele>-1.8</ele><time>2022-09-06T14:08:32Z</time><name>PT8571</name></trkpt>
<trkpt lat="52.719258" lon="06.023651"><ele>-1.9</ele><time>2022-09-06T14:08:33Z</time><name>PT8572</name></trkpt>
<trkpt lat="52.719258" lon="06.023640"><ele>-1.9</ele><time>2022-09-06T14:08:34Z</time><name>PT8573</name></trkpt>
<trkpt lat="52.719256" lon="06.023632"><ele>-2</ele><time>2022-09-06T14:08:35Z</time><name>PT8574</name></trkpt>
<trkpt lat="52.719253" lon="06.023621"><ele>-2.1</ele><time>2022-09-06T14:08:36Z</time><name>PT8575</name></trkpt>
<trkpt lat="52.719248" lon="06.023615"><ele>-2.1</ele><time>2022-09-06T14:08:37Z</time><name>PT8576</name></trkpt>
<trkpt lat="52.719242" lon="06.023607"><ele>-1.9</ele><time>2022-09-06T14:08:38Z</time><name>PT8577</name></trkpt>
<trkpt lat="52.719239" lon="06.023595"><ele>-1.9</ele><time>2022-09-06T14:08:39Z</time><name>PT8578</name></trkpt>
<trkpt lat="52.719238" lon="06.023581"><ele>-1.8</ele><time>2022-09-06T14:08:40Z</time><name>PT8579</name></trkpt>
<trkpt lat="52.719238" lon="06.023567"><ele>-1.7</ele><time>2022-09-06T14:08:41Z</time><name>PT8580</name></trkpt>
<trkpt lat="52.719239" lon="06.023552"><ele>-1.7</ele><time>2022-09-06T14:08:42Z</time><name>PT8581</name></trkpt>
<trkpt lat="52.719240" lon="06.023539"><ele>-1.6</ele><time>2022-09-06T14:08:43Z</time><name>PT8582</name></trkpt>
<trkpt lat="52.719242" lon="06.023524"><ele>-1.5</ele><time>2022-09-06T14:08:44Z</time><name>PT8583</name></trkpt>
<trkpt lat="52.719245" lon="06.023513"><ele>-1.4</ele><time>2022-09-06T14:08:45Z</time><name>PT8584</name></trkpt>
<trkpt lat="52.719248" lon="06.023501"><ele>-1.4</ele><time>2022-09-06T14:08:46Z</time><name>PT8585</name></trkpt>
<trkpt lat="52.719250" lon="06.023488"><ele>-1.4</ele><time>2022-09-06T14:08:47Z</time><name>PT8586</name></trkpt>
<trkpt lat="52.719256" lon="06.023475"><ele>-1.4</ele><time>2022-09-06T14:08:48Z</time><name>PT8587</name></trkpt>
<trkpt lat="52.719260" lon="06.023463"><ele>-1.5</ele><time>2022-09-06T14:08:49Z</time><name>PT8588</name></trkpt>
<trkpt lat="52.719260" lon="06.023451"><ele>-1.5</ele><time>2022-09-06T14:08:50Z</time><name>PT8589</name></trkpt>
<trkpt lat="52.719264" lon="06.023439"><ele>-1.6</ele><time>2022-09-06T14:08:51Z</time><name>PT8590</name></trkpt>
<trkpt lat="52.719268" lon="06.023426"><ele>-1.6</ele><time>2022-09-06T14:08:52Z</time><name>PT8591</name></trkpt>
<trkpt lat="52.719271" lon="06.023412"><ele>-1.6</ele><time>2022-09-06T14:08:53Z</time><name>PT8592</name></trkpt>
<trkpt lat="52.719275" lon="06.023401"><ele>-1.6</ele><time>2022-09-06T14:08:54Z</time><name>PT8593</name></trkpt>
<trkpt lat="52.719278" lon="06.023387"><ele>-1.6</ele><time>2022-09-06T14:08:55Z</time><name>PT8594</name></trkpt>
<trkpt lat="52.719284" lon="06.023375"><ele>-1.4</ele><time>2022-09-06T14:08:56Z</time><name>PT8595</name></trkpt>
<trkpt lat="52.719288" lon="06.023365"><ele>-1.6</ele><time>2022-09-06T14:08:57Z</time><name>PT8596</name></trkpt>
<trkpt lat="52.719290" lon="06.023352"><ele>-1.6</ele><time>2022-09-06T14:08:58Z</time><name>PT8597</name></trkpt>
<trkpt lat="52.719294" lon="06.023339"><ele>-1.7</ele><time>2022-09-06T14:08:59Z</time><name>PT8598</name></trkpt>
<trkpt lat="52.719296" lon="06.023327"><ele>-1.7</ele><time>2022-09-06T14:09:00Z</time><name>PT8599</name></trkpt>
<trkpt lat="52.719298" lon="06.023312"><ele>-1.9</ele><time>2022-09-06T14:09:01Z</time><name>PT8600</name></trkpt>
<trkpt lat="52.719301" lon="06.023299"><ele>-1.7</ele><time>2022-09-06T14:09:02Z</time><name>PT8601</name></trkpt>
<trkpt lat="52.719302" lon="06.023286"><ele>-1.8</ele><time>2022-09-06T14:09:03Z</time><name>PT8602</name></trkpt>
<trkpt lat="52.719303" lon="06.023277"><ele>-1.7</ele><time>2022-09-06T14:09:04Z</time><name>PT8603</name></trkpt>
<trkpt lat="52.719302" lon="06.023266"><ele>-1.5</ele><time>2022-09-06T14:09:05Z</time><name>PT8604</name></trkpt>
<trkpt lat="52.719300" lon="06.023254"><ele>-1.5</ele><time>2022-09-06T14:09:06Z</time><name>PT8605</name></trkpt>
<trkpt lat="52.719298" lon="06.023239"><ele>-1.6</ele><time>2022-09-06T14:09:07Z</time><name>PT8606</name></trkpt>
<trkpt lat="52.719296" lon="06.023226"><ele>-1.8</ele><time>2022-09-06T14:09:08Z</time><name>PT8607</name></trkpt>
<trkpt lat="52.719295" lon="06.023215"><ele>-1.9</ele><time>2022-09-06T14:09:09Z</time><name>PT8608</name></trkpt>
<trkpt lat="52.719295" lon="06.023203"><ele>-1.9</ele><time>2022-09-06T14:09:10Z</time><name>PT8609</name></trkpt>
<trkpt lat="52.719295" lon="06.023190"><ele>-2</ele><time>2022-09-06T14:09:11Z</time><name>PT8610</name></trkpt>
<trkpt lat="52.719292" lon="06.023177"><ele>-2</ele><time>2022-09-06T14:09:12Z</time><name>PT8611</name></trkpt>
<trkpt lat="52.719289" lon="06.023168"><ele>-1.8</ele><time>2022-09-06T14:09:13Z</time><name>PT8612</name></trkpt>
<trkpt lat="52.719289" lon="06.023156"><ele>-1.7</ele><time>2022-09-06T14:09:14Z</time><name>PT8613</name></trkpt>
<trkpt lat="52.719288" lon="06.023146"><ele>-1.8</ele><time>2022-09-06T14:09:15Z</time><name>PT8614</name></trkpt>
<trkpt lat="52.719286" lon="06.023132"><ele>-1.7</ele><time>2022-09-06T14:09:16Z</time><name>PT8615</name></trkpt>
<trkpt lat="52.719283" lon="06.023116"><ele>-1.6</ele><time>2022-09-06T14:09:17Z</time><name>PT8616</name></trkpt>
<trkpt lat="52.719281" lon="06.023102"><ele>-1.7</ele><time>2022-09-06T14:09:18Z</time><name>PT8617</name></trkpt>
<trkpt lat="52.719277" lon="06.023090"><ele>-1.7</ele><time>2022-09-06T14:09:19Z</time><name>PT8618</name></trkpt>
<trkpt lat="52.719276" lon="06.023077"><ele>-1.6</ele><time>2022-09-06T14:09:20Z</time><name>PT8619</name></trkpt>
<trkpt lat="52.719273" lon="06.023062"><ele>-1.6</ele><time>2022-09-06T14:09:21Z</time><name>PT8620</name></trkpt>
<trkpt lat="52.719269" lon="06.023049"><ele>-1.7</ele><time>2022-09-06T14:09:22Z</time><name>PT8621</name></trkpt>
<trkpt lat="52.719266" lon="06.023034"><ele>-1.6</ele><time>2022-09-06T14:09:23Z</time><name>PT8622</name></trkpt>
<trkpt lat="52.719260" lon="06.023025"><ele>-1.6</ele><time>2022-09-06T14:09:24Z</time><name>PT8623</name></trkpt>
<trkpt lat="52.719254" lon="06.023014"><ele>-1.7</ele><time>2022-09-06T14:09:25Z</time><name>PT8624</name></trkpt>
<trkpt lat="52.719249" lon="06.023001"><ele>-1.6</ele><time>2022-09-06T14:09:26Z</time><name>PT8625</name></trkpt>
<trkpt lat="52.719246" lon="06.022988"><ele>-1.5</ele><time>2022-09-06T14:09:27Z</time><name>PT8626</name></trkpt>
<trkpt lat="52.719242" lon="06.022975"><ele>-1.4</ele><time>2022-09-06T14:09:28Z</time><name>PT8627</name></trkpt>
<trkpt lat="52.719239" lon="06.022964"><ele>-1.4</ele><time>2022-09-06T14:09:29Z</time><name>PT8628</name></trkpt>
<trkpt lat="52.719234" lon="06.022953"><ele>-1.5</ele><time>2022-09-06T14:09:30Z</time><name>PT8629</name></trkpt>
<trkpt lat="52.719229" lon="06.022939"><ele>-1.6</ele><time>2022-09-06T14:09:31Z</time><name>PT8630</name></trkpt>
<trkpt lat="52.719227" lon="06.022924"><ele>-1.9</ele><time>2022-09-06T14:09:32Z</time><name>PT8631</name></trkpt>
<trkpt lat="52.719224" lon="06.022911"><ele>-1.9</ele><time>2022-09-06T14:09:33Z</time><name>PT8632</name></trkpt>
<trkpt lat="52.719220" lon="06.022899"><ele>-2</ele><time>2022-09-06T14:09:34Z</time><name>PT8633</name></trkpt>
<trkpt lat="52.719218" lon="06.022883"><ele>-1.9</ele><time>2022-09-06T14:09:35Z</time><name>PT8634</name></trkpt>
<trkpt lat="52.719218" lon="06.022871"><ele>-2.1</ele><time>2022-09-06T14:09:36Z</time><name>PT8635</name></trkpt>
<trkpt lat="52.719217" lon="06.022859"><ele>-1.9</ele><time>2022-09-06T14:09:37Z</time><name>PT8636</name></trkpt>
<trkpt lat="52.719213" lon="06.022845"><ele>-2.1</ele><time>2022-09-06T14:09:38Z</time><name>PT8637</name></trkpt>
<trkpt lat="52.719210" lon="06.022828"><ele>-2.1</ele><time>2022-09-06T14:09:39Z</time><name>PT8638</name></trkpt>
<trkpt lat="52.719210" lon="06.022814"><ele>-2.1</ele><time>2022-09-06T14:09:40Z</time><name>PT8639</name></trkpt>
<trkpt lat="52.719211" lon="06.022801"><ele>-2</ele><time>2022-09-06T14:09:41Z</time><name>PT8640</name></trkpt>
<trkpt lat="52.719211" lon="06.022787"><ele>-2.2</ele><time>2022-09-06T14:09:42Z</time><name>PT8641</name></trkpt>
<trkpt lat="52.719210" lon="06.022772"><ele>-1.8</ele><time>2022-09-06T14:09:43Z</time><name>PT8642</name></trkpt>
<trkpt lat="52.719207" lon="06.022757"><ele>-1.7</ele><time>2022-09-06T14:09:44Z</time><name>PT8643</name></trkpt>
<trkpt lat="52.719206" lon="06.022743"><ele>-1.7</ele><time>2022-09-06T14:09:45Z</time><name>PT8644</name></trkpt>
<trkpt lat="52.719205" lon="06.022728"><ele>-1.7</ele><time>2022-09-06T14:09:46Z</time><name>PT8645</name></trkpt>
<trkpt lat="52.719204" lon="06.022713"><ele>-1.6</ele><time>2022-09-06T14:09:47Z</time><name>PT8646</name></trkpt>
<trkpt lat="52.719201" lon="06.022700"><ele>-1.7</ele><time>2022-09-06T14:09:48Z</time><name>PT8647</name></trkpt>
<trkpt lat="52.719198" lon="06.022686"><ele>-1.6</ele><time>2022-09-06T14:09:49Z</time><name>PT8648</name></trkpt>
<trkpt lat="52.719198" lon="06.022672"><ele>-1.7</ele><time>2022-09-06T14:09:50Z</time><name>PT8649</name></trkpt>
<trkpt lat="52.719196" lon="06.022658"><ele>-1.7</ele><time>2022-09-06T14:09:51Z</time><name>PT8650</name></trkpt>
<trkpt lat="52.719195" lon="06.022649"><ele>-1.8</ele><time>2022-09-06T14:09:52Z</time><name>PT8651</name></trkpt>
<trkpt lat="52.719192" lon="06.022637"><ele>-1.7</ele><time>2022-09-06T14:09:53Z</time><name>PT8652</name></trkpt>
<trkpt lat="52.719192" lon="06.022626"><ele>-1.9</ele><time>2022-09-06T14:09:54Z</time><name>PT8653</name></trkpt>
<trkpt lat="52.719193" lon="06.022611"><ele>-1.6</ele><time>2022-09-06T14:09:55Z</time><name>PT8654</name></trkpt>
<trkpt lat="52.719193" lon="06.022597"><ele>-1.5</ele><time>2022-09-06T14:09:56Z</time><name>PT8655</name></trkpt>
<trkpt lat="52.719190" lon="06.022582"><ele>-1.6</ele><time>2022-09-06T14:09:57Z</time><name>PT8656</name></trkpt>
<trkpt lat="52.719187" lon="06.022569"><ele>-1.8</ele><time>2022-09-06T14:09:58Z</time><name>PT8657</name></trkpt>
<trkpt lat="52.719187" lon="06.022551"><ele>-1.9</ele><time>2022-09-06T14:09:59Z</time><name>PT8658</name></trkpt>
<trkpt lat="52.719188" lon="06.022533"><ele>-2</ele><time>2022-09-06T14:10:00Z</time><name>PT8659</name></trkpt>
<trkpt lat="52.719188" lon="06.022518"><ele>-1.9</ele><time>2022-09-06T14:10:01Z</time><name>PT8660</name></trkpt>
<trkpt lat="52.719187" lon="06.022502"><ele>-1.8</ele><time>2022-09-06T14:10:02Z</time><name>PT8661</name></trkpt>
<trkpt lat="52.719185" lon="06.022490"><ele>-1.7</ele><time>2022-09-06T14:10:03Z</time><name>PT8662</name></trkpt>
<trkpt lat="52.719184" lon="06.022479"><ele>-1.5</ele><time>2022-09-06T14:10:04Z</time><name>PT8663</name></trkpt>
<trkpt lat="52.719183" lon="06.022464"><ele>-1.6</ele><time>2022-09-06T14:10:05Z</time><name>PT8664</name></trkpt>
<trkpt lat="52.719182" lon="06.022450"><ele>-1.6</ele><time>2022-09-06T14:10:06Z</time><name>PT8665</name></trkpt>
<trkpt lat="52.719179" lon="06.022435"><ele>-1.5</ele><time>2022-09-06T14:10:07Z</time><name>PT8666</name></trkpt>
<trkpt lat="52.719177" lon="06.022419"><ele>-1.5</ele><time>2022-09-06T14:10:08Z</time><name>PT8667</name></trkpt>
<trkpt lat="52.719178" lon="06.022405"><ele>-1.5</ele><time>2022-09-06T14:10:09Z</time><name>PT8668</name></trkpt>
<trkpt lat="52.719178" lon="06.022389"><ele>-1.6</ele><time>2022-09-06T14:10:10Z</time><name>PT8669</name></trkpt>
<trkpt lat="52.719177" lon="06.022375"><ele>-1.7</ele><time>2022-09-06T14:10:11Z</time><name>PT8670</name></trkpt>
<trkpt lat="52.719176" lon="06.022359"><ele>-1.8</ele><time>2022-09-06T14:10:12Z</time><name>PT8671</name></trkpt>
<trkpt lat="52.719175" lon="06.022344"><ele>-1.8</ele><time>2022-09-06T14:10:13Z</time><name>PT8672</name></trkpt>
<trkpt lat="52.719174" lon="06.022334"><ele>-1.9</ele><time>2022-09-06T14:10:14Z</time><name>PT8673</name></trkpt>
<trkpt lat="52.719173" lon="06.022320"><ele>-1.8</ele><time>2022-09-06T14:10:15Z</time><name>PT8674</name></trkpt>
<trkpt lat="52.719173" lon="06.022306"><ele>-1.8</ele><time>2022-09-06T14:10:16Z</time><name>PT8675</name></trkpt>
<trkpt lat="52.719171" lon="06.022293"><ele>-1.9</ele><time>2022-09-06T14:10:17Z</time><name>PT8676</name></trkpt>
<trkpt lat="52.719170" lon="06.022278"><ele>-1.8</ele><time>2022-09-06T14:10:18Z</time><name>PT8677</name></trkpt>
<trkpt lat="52.719171" lon="06.022264"><ele>-1.8</ele><time>2022-09-06T14:10:19Z</time><name>PT8678</name></trkpt>
<trkpt lat="52.719171" lon="06.022249"><ele>-1.8</ele><time>2022-09-06T14:10:20Z</time><name>PT8679</name></trkpt>
<trkpt lat="52.719169" lon="06.022238"><ele>-1.8</ele><time>2022-09-06T14:10:21Z</time><name>PT8680</name></trkpt>
<trkpt lat="52.719168" lon="06.022226"><ele>-1.9</ele><time>2022-09-06T14:10:22Z</time><name>PT8681</name></trkpt>
<trkpt lat="52.719168" lon="06.022218"><ele>-1.9</ele><time>2022-09-06T14:10:23Z</time><name>PT8682</name></trkpt>
<trkpt lat="52.719171" lon="06.022208"><ele>-1.8</ele><time>2022-09-06T14:10:24Z</time><name>PT8683</name></trkpt>
<trkpt lat="52.719175" lon="06.022198"><ele>-1.9</ele><time>2022-09-06T14:10:25Z</time><name>PT8684</name></trkpt>
<trkpt lat="52.719179" lon="06.022187"><ele>-2</ele><time>2022-09-06T14:10:26Z</time><name>PT8685</name></trkpt>
<trkpt lat="52.719182" lon="06.022177"><ele>-2</ele><time>2022-09-06T14:10:27Z</time><name>PT8686</name></trkpt>
<trkpt lat="52.719184" lon="06.022168"><ele>-2.1</ele><time>2022-09-06T14:10:28Z</time><name>PT8687</name></trkpt>
<trkpt lat="52.719186" lon="06.022155"><ele>-2.3</ele><time>2022-09-06T14:10:29Z</time><name>PT8688</name></trkpt>
<trkpt lat="52.719185" lon="06.022142"><ele>-2.1</ele><time>2022-09-06T14:10:30Z</time><name>PT8689</name></trkpt>
<trkpt lat="52.719182" lon="06.022129"><ele>-1.9</ele><time>2022-09-06T14:10:31Z</time><name>PT8690</name></trkpt>
<trkpt lat="52.719182" lon="06.022116"><ele>-1.9</ele><time>2022-09-06T14:10:32Z</time><name>PT8691</name></trkpt>
<trkpt lat="52.719183" lon="06.022102"><ele>-1.9</ele><time>2022-09-06T14:10:33Z</time><name>PT8692</name></trkpt>
<trkpt lat="52.719182" lon="06.022091"><ele>-1.9</ele><time>2022-09-06T14:10:34Z</time><name>PT8693</name></trkpt>
<trkpt lat="52.719181" lon="06.022079"><ele>-1.9</ele><time>2022-09-06T14:10:35Z</time><name>PT8694</name></trkpt>
<trkpt lat="52.719183" lon="06.022069"><ele>-1.9</ele><time>2022-09-06T14:10:36Z</time><name>PT8695</name></trkpt>
<trkpt lat="52.719185" lon="06.022057"><ele>-1.9</ele><time>2022-09-06T14:10:37Z</time><name>PT8696</name></trkpt>
<trkpt lat="52.719190" lon="06.022046"><ele>-1.7</ele><time>2022-09-06T14:10:38Z</time><name>PT8697</name></trkpt>
<trkpt lat="52.719195" lon="06.022034"><ele>-1.6</ele><time>2022-09-06T14:10:39Z</time><name>PT8698</name></trkpt>
<trkpt lat="52.719197" lon="06.022019"><ele>-1.7</ele><time>2022-09-06T14:10:40Z</time><name>PT8699</name></trkpt>
<trkpt lat="52.719194" lon="06.022008"><ele>-1.4</ele><time>2022-09-06T14:10:41Z</time><name>PT8700</name></trkpt>
<trkpt lat="52.719196" lon="06.021999"><ele>-1.4</ele><time>2022-09-06T14:10:42Z</time><name>PT8701</name></trkpt>
<trkpt lat="52.719200" lon="06.021989"><ele>-1.5</ele><time>2022-09-06T14:10:43Z</time><name>PT8702</name></trkpt>
<trkpt lat="52.719203" lon="06.021981"><ele>-1.4</ele><time>2022-09-06T14:10:44Z</time><name>PT8703</name></trkpt>
<trkpt lat="52.719206" lon="06.021978"><ele>-1.5</ele><time>2022-09-06T14:10:45Z</time><name>PT8704</name></trkpt>
<trkpt lat="52.719207" lon="06.021976"><ele>-1.6</ele><time>2022-09-06T14:10:46Z</time><name>PT8705</name></trkpt>
<trkpt lat="52.719208" lon="06.021973"><ele>-1.6</ele><time>2022-09-06T14:10:47Z</time><name>PT8706</name></trkpt>
<trkpt lat="52.719213" lon="06.021958"><ele>-1.6</ele><time>2022-09-06T14:11:22Z</time><name>PT8707</name></trkpt>
<trkpt lat="52.719218" lon="06.021951"><ele>-1.5</ele><time>2022-09-06T14:11:23Z</time><name>PT8708</name></trkpt>
<trkpt lat="52.719222" lon="06.021944"><ele>-1.6</ele><time>2022-09-06T14:11:24Z</time><name>PT8709</name></trkpt>
<trkpt lat="52.719225" lon="06.021940"><ele>-1.6</ele><time>2022-09-06T14:11:25Z</time><name>PT8710</name></trkpt>
<trkpt lat="52.719230" lon="06.021930"><ele>-1.9</ele><time>2022-09-06T14:11:34Z</time><name>PT8711</name></trkpt>
<trkpt lat="52.719233" lon="06.021924"><ele>-1.9</ele><time>2022-09-06T14:11:35Z</time><name>PT8712</name></trkpt>
<trkpt lat="52.719235" lon="06.021920"><ele>-1.9</ele><time>2022-09-06T14:11:36Z</time><name>PT8713</name></trkpt>
<trkpt lat="52.719235" lon="06.021910"><ele>-1.9</ele><time>2022-09-06T14:11:57Z</time><name>PT8714</name></trkpt>
<trkpt lat="52.719240" lon="06.021907"><ele>-1.9</ele><time>2022-09-06T14:11:58Z</time><name>PT8715</name></trkpt>
<trkpt lat="52.719244" lon="06.021906"><ele>-1.8</ele><time>2022-09-06T14:11:59Z</time><name>PT8716</name></trkpt>
<trkpt lat="52.719245" lon="06.021908"><ele>-1.9</ele><time>2022-09-06T14:12:02Z</time><name>PT8717</name></trkpt>
<trkpt lat="52.719247" lon="06.021907"><ele>-2</ele><time>2022-09-06T14:12:03Z</time><name>PT8718</name></trkpt>
<trkpt lat="52.719246" lon="06.021906"><ele>-2.2</ele><time>2022-09-06T14:12:04Z</time><name>PT8719</name></trkpt>
<trkpt lat="52.719245" lon="06.021899"><ele>-2</ele><time>2022-09-06T14:12:05Z</time><name>PT8720</name></trkpt>
<trkpt lat="52.719246" lon="06.021898"><ele>-1.9</ele><time>2022-09-06T14:12:06Z</time><name>PT8721</name></trkpt>
<trkpt lat="52.719250" lon="06.021900"><ele>-1.9</ele><time>2022-09-06T14:12:07Z</time><name>PT8722</name></trkpt>
<trkpt lat="52.719253" lon="06.021901"><ele>-1.8</ele><time>2022-09-06T14:12:08Z</time><name>PT8723</name></trkpt>
<trkpt lat="52.719257" lon="06.021900"><ele>-1.7</ele><time>2022-09-06T14:12:09Z</time><name>PT8724</name></trkpt>
<trkpt lat="52.719261" lon="06.021896"><ele>-1.9</ele><time>2022-09-06T14:12:10Z</time><name>PT8725</name></trkpt>
<trkpt lat="52.719263" lon="06.021891"><ele>-1.8</ele><time>2022-09-06T14:12:11Z</time><name>PT8726</name></trkpt>
<trkpt lat="52.719266" lon="06.021886"><ele>-1.8</ele><time>2022-09-06T14:12:14Z</time><name>PT8727</name></trkpt>
<trkpt lat="52.719268" lon="06.021881"><ele>-1.8</ele><time>2022-09-06T14:12:15Z</time><name>PT8728</name></trkpt>
<trkpt lat="52.719272" lon="06.021880"><ele>-1.9</ele><time>2022-09-06T14:12:16Z</time><name>PT8729</name></trkpt>
<trkpt lat="52.719276" lon="06.021881"><ele>-1.8</ele><time>2022-09-06T14:12:17Z</time><name>PT8730</name></trkpt>
<trkpt lat="52.719280" lon="06.021882"><ele>-1.7</ele><time>2022-09-06T14:12:18Z</time><name>PT8731</name></trkpt>
<trkpt lat="52.719284" lon="06.021882"><ele>-1.6</ele><time>2022-09-06T14:12:19Z</time><name>PT8732</name></trkpt>
<trkpt lat="52.719287" lon="06.021880"><ele>-1.6</ele><time>2022-09-06T14:12:20Z</time><name>PT8733</name></trkpt>
<trkpt lat="52.719289" lon="06.021879"><ele>-1.6</ele><time>2022-09-06T14:12:24Z</time><name>PT8734</name></trkpt>
<trkpt lat="52.719292" lon="06.021878"><ele>-1.9</ele><time>2022-09-06T14:12:25Z</time><name>PT8735</name></trkpt>
<trkpt lat="52.719295" lon="06.021876"><ele>-1.9</ele><time>2022-09-06T14:12:26Z</time><name>PT8736</name></trkpt>
<trkpt lat="52.719298" lon="06.021882"><ele>-1.5</ele><time>2022-09-06T14:12:43Z</time><name>PT8737</name></trkpt>
<trkpt lat="52.719301" lon="06.021886"><ele>-1.6</ele><time>2022-09-06T14:12:44Z</time><name>PT8738</name></trkpt>
<trkpt lat="52.719304" lon="06.021882"><ele>-1.6</ele><time>2022-09-06T14:12:45Z</time><name>PT8739</name></trkpt>
<trkpt lat="52.719308" lon="06.021881"><ele>-1.9</ele><time>2022-09-06T14:13:13Z</time><name>PT8740</name></trkpt>
<trkpt lat="52.719309" lon="06.021880"><ele>-1.9</ele><time>2022-09-06T14:13:14Z</time><name>PT8741</name></trkpt>
<trkpt lat="52.719311" lon="06.021879"><ele>-2</ele><time>2022-09-06T14:13:15Z</time><name>PT8742</name></trkpt>
<trkpt lat="52.717445" lon="06.008589"><ele>-1.9</ele><time>2022-09-06T14:52:17Z</time><name>PT8743</name></trkpt>
<trkpt lat="52.717443" lon="06.008589"><ele>-1.5</ele><time>2022-09-06T14:52:22Z</time><name>PT8744</name></trkpt>
<trkpt lat="52.717442" lon="06.008578"><ele>-1.5</ele><time>2022-09-06T14:52:23Z</time><name>PT8745</name></trkpt>
<trkpt lat="52.717440" lon="06.008565"><ele>-1.5</ele><time>2022-09-06T14:52:24Z</time><name>PT8746</name></trkpt>
<trkpt lat="52.717438" lon="06.008550"><ele>-1.4</ele><time>2022-09-06T14:52:25Z</time><name>PT8747</name></trkpt>
<trkpt lat="52.717436" lon="06.008535"><ele>-1.4</ele><time>2022-09-06T14:52:26Z</time><name>PT8748</name></trkpt>
<trkpt lat="52.717433" lon="06.008523"><ele>-1.5</ele><time>2022-09-06T14:52:27Z</time><name>PT8749</name></trkpt>
<trkpt lat="52.717429" lon="06.008510"><ele>-1.7</ele><time>2022-09-06T14:52:28Z</time><name>PT8750</name></trkpt>
<trkpt lat="52.717426" lon="06.008498"><ele>-1.8</ele><time>2022-09-06T14:52:29Z</time><name>PT8751</name></trkpt>
<trkpt lat="52.717423" lon="06.008485"><ele>-1.8</ele><time>2022-09-06T14:52:30Z</time><name>PT8752</name></trkpt>
<trkpt lat="52.717421" lon="06.008473"><ele>-1.9</ele><time>2022-09-06T14:52:31Z</time><name>PT8753</name></trkpt>
<trkpt lat="52.717419" lon="06.008459"><ele>-1.7</ele><time>2022-09-06T14:52:32Z</time><name>PT8754</name></trkpt>
<trkpt lat="52.717415" lon="06.008443"><ele>-1.6</ele><time>2022-09-06T14:52:33Z</time><name>PT8755</name></trkpt>
<trkpt lat="52.717412" lon="06.008428"><ele>-1.6</ele><time>2022-09-06T14:52:34Z</time><name>PT8756</name></trkpt>
<trkpt lat="52.717408" lon="06.008412"><ele>-1.6</ele><time>2022-09-06T14:52:35Z</time><name>PT8757</name></trkpt>
<trkpt lat="52.717406" lon="06.008397"><ele>-1.5</ele><time>2022-09-06T14:52:36Z</time><name>PT8758</name></trkpt>
<trkpt lat="52.717405" lon="06.008383"><ele>-1.5</ele><time>2022-09-06T14:52:37Z</time><name>PT8759</name></trkpt>
<trkpt lat="52.717402" lon="06.008370"><ele>-1.5</ele><time>2022-09-06T14:52:38Z</time><name>PT8760</name></trkpt>
<trkpt lat="52.717399" lon="06.008354"><ele>-1.6</ele><time>2022-09-06T14:52:39Z</time><name>PT8761</name></trkpt>
<trkpt lat="52.717395" lon="06.008338"><ele>-1.6</ele><time>2022-09-06T14:52:40Z</time><name>PT8762</name></trkpt>
<trkpt lat="52.717392" lon="06.008321"><ele>-1.6</ele><time>2022-09-06T14:52:41Z</time><name>PT8763</name></trkpt>
<trkpt lat="52.717388" lon="06.008305"><ele>-1.6</ele><time>2022-09-06T14:52:42Z</time><name>PT8764</name></trkpt>
<trkpt lat="52.717385" lon="06.008290"><ele>-1.6</ele><time>2022-09-06T14:52:43Z</time><name>PT8765</name></trkpt>
<trkpt lat="52.717381" lon="06.008273"><ele>-1.5</ele><time>2022-09-06T14:52:44Z</time><name>PT8766</name></trkpt>
<trkpt lat="52.717377" lon="06.008257"><ele>-1.5</ele><time>2022-09-06T14:52:45Z</time><name>PT8767</name></trkpt>
<trkpt lat="52.717373" lon="06.008240"><ele>-1.5</ele><time>2022-09-06T14:52:46Z</time><name>PT8768</name></trkpt>
<trkpt lat="52.717370" lon="06.008224"><ele>-1.5</ele><time>2022-09-06T14:52:47Z</time><name>PT8769</name></trkpt>
<trkpt lat="52.717365" lon="06.008208"><ele>-1.5</ele><time>2022-09-06T14:52:48Z</time><name>PT8770</name></trkpt>
<trkpt lat="52.717362" lon="06.008192"><ele>-1.6</ele><time>2022-09-06T14:52:49Z</time><name>PT8771</name></trkpt>
<trkpt lat="52.717358" lon="06.008176"><ele>-1.4</ele><time>2022-09-06T14:52:50Z</time><name>PT8772</name></trkpt>
<trkpt lat="52.717353" lon="06.008159"><ele>-1.6</ele><time>2022-09-06T14:52:51Z</time><name>PT8773</name></trkpt>
<trkpt lat="52.717349" lon="06.008142"><ele>-1.7</ele><time>2022-09-06T14:52:52Z</time><name>PT8774</name></trkpt>
<trkpt lat="52.717345" lon="06.008126"><ele>-1.6</ele><time>2022-09-06T14:52:53Z</time><name>PT8775</name></trkpt>
<trkpt lat="52.717342" lon="06.008109"><ele>-1.7</ele><time>2022-09-06T14:52:54Z</time><name>PT8776</name></trkpt>
<trkpt lat="52.717339" lon="06.008091"><ele>-1.8</ele><time>2022-09-06T14:52:55Z</time><name>PT8777</name></trkpt>
<trkpt lat="52.717337" lon="06.008075"><ele>-1.9</ele><time>2022-09-06T14:52:56Z</time><name>PT8778</name></trkpt>
<trkpt lat="52.717334" lon="06.008058"><ele>-1.8</ele><time>2022-09-06T14:52:57Z</time><name>PT8779</name></trkpt>
<trkpt lat="52.717330" lon="06.008042"><ele>-1.9</ele><time>2022-09-06T14:52:58Z</time><name>PT8780</name></trkpt>
<trkpt lat="52.717326" lon="06.008026"><ele>-1.9</ele><time>2022-09-06T14:52:59Z</time><name>PT8781</name></trkpt>
<trkpt lat="52.717322" lon="06.008010"><ele>-1.8</ele><time>2022-09-06T14:53:00Z</time><name>PT8782</name></trkpt>
<trkpt lat="52.717317" lon="06.007994"><ele>-1.9</ele><time>2022-09-06T14:53:01Z</time><name>PT8783</name></trkpt>
<trkpt lat="52.717313" lon="06.007977"><ele>-1.7</ele><time>2022-09-06T14:53:02Z</time><name>PT8784</name></trkpt>
<trkpt lat="52.717309" lon="06.007961"><ele>-1.6</ele><time>2022-09-06T14:53:03Z</time><name>PT8785</name></trkpt>
<trkpt lat="52.717305" lon="06.007945"><ele>-1.4</ele><time>2022-09-06T14:53:04Z</time><name>PT8786</name></trkpt>
<trkpt lat="52.717301" lon="06.007926"><ele>-1.6</ele><time>2022-09-06T14:53:05Z</time><name>PT8787</name></trkpt>
<trkpt lat="52.717297" lon="06.007908"><ele>-1.5</ele><time>2022-09-06T14:53:06Z</time><name>PT8788</name></trkpt>
<trkpt lat="52.717294" lon="06.007892"><ele>-1.4</ele><time>2022-09-06T14:53:07Z</time><name>PT8789</name></trkpt>
<trkpt lat="52.717292" lon="06.007876"><ele>-1.5</ele><time>2022-09-06T14:53:08Z</time><name>PT8790</name></trkpt>
<trkpt lat="52.717288" lon="06.007860"><ele>-1.5</ele><time>2022-09-06T14:53:09Z</time><name>PT8791</name></trkpt>
<trkpt lat="52.717284" lon="06.007844"><ele>-1.5</ele><time>2022-09-06T14:53:10Z</time><name>PT8792</name></trkpt>
<trkpt lat="52.717280" lon="06.007827"><ele>-1.4</ele><time>2022-09-06T14:53:11Z</time><name>PT8793</name></trkpt>
<trkpt lat="52.717277" lon="06.007810"><ele>-1.5</ele><time>2022-09-06T14:53:12Z</time><name>PT8794</name></trkpt>
<trkpt lat="52.717273" lon="06.007792"><ele>-1.6</ele><time>2022-09-06T14:53:13Z</time><name>PT8795</name></trkpt>
<trkpt lat="52.717269" lon="06.007773"><ele>-1.7</ele><time>2022-09-06T14:53:14Z</time><name>PT8796</name></trkpt>
<trkpt lat="52.717263" lon="06.007754"><ele>-1.7</ele><time>2022-09-06T14:53:15Z</time><name>PT8797</name></trkpt>
<trkpt lat="52.717258" lon="06.007735"><ele>-1.7</ele><time>2022-09-06T14:53:16Z</time><name>PT8798</name></trkpt>
<trkpt lat="52.717254" lon="06.007716"><ele>-1.7</ele><time>2022-09-06T14:53:17Z</time><name>PT8799</name></trkpt>
<trkpt lat="52.717251" lon="06.007697"><ele>-1.6</ele><time>2022-09-06T14:53:18Z</time><name>PT8800</name></trkpt>
<trkpt lat="52.717247" lon="06.007680"><ele>-1.6</ele><time>2022-09-06T14:53:19Z</time><name>PT8801</name></trkpt>
<trkpt lat="52.717243" lon="06.007664"><ele>-1.6</ele><time>2022-09-06T14:53:20Z</time><name>PT8802</name></trkpt>
<trkpt lat="52.717240" lon="06.007648"><ele>-1.4</ele><time>2022-09-06T14:53:21Z</time><name>PT8803</name></trkpt>
<trkpt lat="52.717236" lon="06.007631"><ele>-1.7</ele><time>2022-09-06T14:53:22Z</time><name>PT8804</name></trkpt>
<trkpt lat="52.717232" lon="06.007615"><ele>-1.7</ele><time>2022-09-06T14:53:23Z</time><name>PT8805</name></trkpt>
<trkpt lat="52.717229" lon="06.007598"><ele>-1.7</ele><time>2022-09-06T14:53:24Z</time><name>PT8806</name></trkpt>
<trkpt lat="52.717226" lon="06.007582"><ele>-1.7</ele><time>2022-09-06T14:53:25Z</time><name>PT8807</name></trkpt>
<trkpt lat="52.717222" lon="06.007566"><ele>-1.5</ele><time>2022-09-06T14:53:26Z</time><name>PT8808</name></trkpt>
<trkpt lat="52.717220" lon="06.007548"><ele>-1.6</ele><time>2022-09-06T14:53:27Z</time><name>PT8809</name></trkpt>
<trkpt lat="52.717217" lon="06.007530"><ele>-1.6</ele><time>2022-09-06T14:53:28Z</time><name>PT8810</name></trkpt>
<trkpt lat="52.717213" lon="06.007512"><ele>-1.7</ele><time>2022-09-06T14:53:29Z</time><name>PT8811</name></trkpt>
<trkpt lat="52.717209" lon="06.007497"><ele>-1.8</ele><time>2022-09-06T14:53:30Z</time><name>PT8812</name></trkpt>
<trkpt lat="52.717205" lon="06.007482"><ele>-1.7</ele><time>2022-09-06T14:53:31Z</time><name>PT8813</name></trkpt>
<trkpt lat="52.717201" lon="06.007466"><ele>-1.5</ele><time>2022-09-06T14:53:32Z</time><name>PT8814</name></trkpt>
<trkpt lat="52.717198" lon="06.007450"><ele>-1.6</ele><time>2022-09-06T14:53:33Z</time><name>PT8815</name></trkpt>
<trkpt lat="52.717194" lon="06.007435"><ele>-1.4</ele><time>2022-09-06T14:53:34Z</time><name>PT8816</name></trkpt>
<trkpt lat="52.717191" lon="06.007420"><ele>-1.5</ele><time>2022-09-06T14:53:35Z</time><name>PT8817</name></trkpt>
<trkpt lat="52.717186" lon="06.007405"><ele>-1.5</ele><time>2022-09-06T14:53:36Z</time><name>PT8818</name></trkpt>
<trkpt lat="52.717184" lon="06.007390"><ele>-1.9</ele><time>2022-09-06T14:53:37Z</time><name>PT8819</name></trkpt>
<trkpt lat="52.717182" lon="06.007375"><ele>-1.7</ele><time>2022-09-06T14:53:38Z</time><name>PT8820</name></trkpt>
<trkpt lat="52.717180" lon="06.007360"><ele>-1.8</ele><time>2022-09-06T14:53:39Z</time><name>PT8821</name></trkpt>
<trkpt lat="52.717177" lon="06.007346"><ele>-1.8</ele><time>2022-09-06T14:53:40Z</time><name>PT8822</name></trkpt>
<trkpt lat="52.717174" lon="06.007332"><ele>-1.9</ele><time>2022-09-06T14:53:41Z</time><name>PT8823</name></trkpt>
<trkpt lat="52.717170" lon="06.007318"><ele>-1.7</ele><time>2022-09-06T14:53:42Z</time><name>PT8824</name></trkpt>
<trkpt lat="52.717167" lon="06.007305"><ele>-1.7</ele><time>2022-09-06T14:53:43Z</time><name>PT8825</name></trkpt>
<trkpt lat="52.717165" lon="06.007290"><ele>-1.6</ele><time>2022-09-06T14:53:44Z</time><name>PT8826</name></trkpt>
<trkpt lat="52.717162" lon="06.007275"><ele>-1.7</ele><time>2022-09-06T14:53:45Z</time><name>PT8827</name></trkpt>
<trkpt lat="52.717159" lon="06.007259"><ele>-1.8</ele><time>2022-09-06T14:53:46Z</time><name>PT8828</name></trkpt>
<trkpt lat="52.717157" lon="06.007242"><ele>-1.8</ele><time>2022-09-06T14:53:47Z</time><name>PT8829</name></trkpt>
<trkpt lat="52.717155" lon="06.007227"><ele>-1.9</ele><time>2022-09-06T14:53:48Z</time><name>PT8830</name></trkpt>
<trkpt lat="52.717153" lon="06.007212"><ele>-2</ele><time>2022-09-06T14:53:49Z</time><name>PT8831</name></trkpt>
<trkpt lat="52.717151" lon="06.007197"><ele>-1.9</ele><time>2022-09-06T14:53:50Z</time><name>PT8832</name></trkpt>
<trkpt lat="52.717148" lon="06.007182"><ele>-1.8</ele><time>2022-09-06T14:53:51Z</time><name>PT8833</name></trkpt>
<trkpt lat="52.717144" lon="06.007167"><ele>-1.7</ele><time>2022-09-06T14:53:52Z</time><name>PT8834</name></trkpt>
<trkpt lat="52.717141" lon="06.007152"><ele>-1.4</ele><time>2022-09-06T14:53:53Z</time><name>PT8835</name></trkpt>
<trkpt lat="52.717138" lon="06.007135"><ele>-1.4</ele><time>2022-09-06T14:53:54Z</time><name>PT8836</name></trkpt>
<trkpt lat="52.717135" lon="06.007118"><ele>-1.2</ele><time>2022-09-06T14:53:55Z</time><name>PT8837</name></trkpt>
<trkpt lat="52.717133" lon="06.007104"><ele>-1.4</ele><time>2022-09-06T14:53:56Z</time><name>PT8838</name></trkpt>
<trkpt lat="52.717130" lon="06.007090"><ele>-1.4</ele><time>2022-09-06T14:53:57Z</time><name>PT8839</name></trkpt>
<trkpt lat="52.717127" lon="06.007075"><ele>-1.6</ele><time>2022-09-06T14:53:58Z</time><name>PT8840</name></trkpt>
<trkpt lat="52.717124" lon="06.007058"><ele>-1.9</ele><time>2022-09-06T14:53:59Z</time><name>PT8841</name></trkpt>
<trkpt lat="52.717120" lon="06.007041"><ele>-1.9</ele><time>2022-09-06T14:54:00Z</time><name>PT8842</name></trkpt>
<trkpt lat="52.717117" lon="06.007025"><ele>-1.9</ele><time>2022-09-06T14:54:01Z</time><name>PT8843</name></trkpt>
<trkpt lat="52.717114" lon="06.007008"><ele>-1.9</ele><time>2022-09-06T14:54:02Z</time><name>PT8844</name></trkpt>
<trkpt lat="52.717111" lon="06.006991"><ele>-1.8</ele><time>2022-09-06T14:54:03Z</time><name>PT8845</name></trkpt>
<trkpt lat="52.717107" lon="06.006971"><ele>-1.7</ele><time>2022-09-06T14:54:04Z</time><name>PT8846</name></trkpt>
<trkpt lat="52.717104" lon="06.006954"><ele>-1.6</ele><time>2022-09-06T14:54:05Z</time><name>PT8847</name></trkpt>
<trkpt lat="52.717100" lon="06.006939"><ele>-1.6</ele><time>2022-09-06T14:54:06Z</time><name>PT8848</name></trkpt>
<trkpt lat="52.717097" lon="06.006922"><ele>-1.5</ele><time>2022-09-06T14:54:07Z</time><name>PT8849</name></trkpt>
<trkpt lat="52.717094" lon="06.006907"><ele>-1.4</ele><time>2022-09-06T14:54:08Z</time><name>PT8850</name></trkpt>
<trkpt lat="52.717090" lon="06.006891"><ele>-1.4</ele><time>2022-09-06T14:54:09Z</time><name>PT8851</name></trkpt>
<trkpt lat="52.717086" lon="06.006873"><ele>-1.4</ele><time>2022-09-06T14:54:10Z</time><name>PT8852</name></trkpt>
<trkpt lat="52.717082" lon="06.006855"><ele>-1.4</ele><time>2022-09-06T14:54:11Z</time><name>PT8853</name></trkpt>
<trkpt lat="52.717079" lon="06.006837"><ele>-1.5</ele><time>2022-09-06T14:54:12Z</time><name>PT8854</name></trkpt>
<trkpt lat="52.717076" lon="06.006818"><ele>-1.6</ele><time>2022-09-06T14:54:13Z</time><name>PT8855</name></trkpt>
<trkpt lat="52.717072" lon="06.006802"><ele>-1.5</ele><time>2022-09-06T14:54:14Z</time><name>PT8856</name></trkpt>
<trkpt lat="52.717069" lon="06.006786"><ele>-1.6</ele><time>2022-09-06T14:54:15Z</time><name>PT8857</name></trkpt>
<trkpt lat="52.717065" lon="06.006771"><ele>-1.6</ele><time>2022-09-06T14:54:16Z</time><name>PT8858</name></trkpt>
<trkpt lat="52.717062" lon="06.006757"><ele>-1.6</ele><time>2022-09-06T14:54:17Z</time><name>PT8859</name></trkpt>
<trkpt lat="52.717058" lon="06.006739"><ele>-1.6</ele><time>2022-09-06T14:54:18Z</time><name>PT8860</name></trkpt>
<trkpt lat="52.717053" lon="06.006720"><ele>-1.9</ele><time>2022-09-06T14:54:19Z</time><name>PT8861</name></trkpt>
<trkpt lat="52.717049" lon="06.006698"><ele>-1.8</ele><time>2022-09-06T14:54:20Z</time><name>PT8862</name></trkpt>
<trkpt lat="52.717045" lon="06.006680"><ele>-1.9</ele><time>2022-09-06T14:54:21Z</time><name>PT8863</name></trkpt>
<trkpt lat="52.717041" lon="06.006663"><ele>-1.9</ele><time>2022-09-06T14:54:22Z</time><name>PT8864</name></trkpt>
<trkpt lat="52.717040" lon="06.006646"><ele>-1.5</ele><time>2022-09-06T14:54:23Z</time><name>PT8865</name></trkpt>
<trkpt lat="52.717038" lon="06.006629"><ele>-1.4</ele><time>2022-09-06T14:54:24Z</time><name>PT8866</name></trkpt>
<trkpt lat="52.717034" lon="06.006612"><ele>-1.3</ele><time>2022-09-06T14:54:25Z</time><name>PT8867</name></trkpt>
<trkpt lat="52.717030" lon="06.006594"><ele>-1.1</ele><time>2022-09-06T14:54:26Z</time><name>PT8868</name></trkpt>
<trkpt lat="52.717026" lon="06.006576"><ele>-1.2</ele><time>2022-09-06T14:54:27Z</time><name>PT8869</name></trkpt>
<trkpt lat="52.717022" lon="06.006558"><ele>-1.3</ele><time>2022-09-06T14:54:28Z</time><name>PT8870</name></trkpt>
<trkpt lat="52.717019" lon="06.006539"><ele>-1.3</ele><time>2022-09-06T14:54:29Z</time><name>PT8871</name></trkpt>
<trkpt lat="52.717019" lon="06.006518"><ele>-1.3</ele><time>2022-09-06T14:54:30Z</time><name>PT8872</name></trkpt>
<trkpt lat="52.717017" lon="06.006499"><ele>-1.4</ele><time>2022-09-06T14:54:31Z</time><name>PT8873</name></trkpt>
<trkpt lat="52.717013" lon="06.006481"><ele>-1.3</ele><time>2022-09-06T14:54:32Z</time><name>PT8874</name></trkpt>
<trkpt lat="52.717009" lon="06.006464"><ele>-1.3</ele><time>2022-09-06T14:54:33Z</time><name>PT8875</name></trkpt>
<trkpt lat="52.717005" lon="06.006448"><ele>-1.3</ele><time>2022-09-06T14:54:34Z</time><name>PT8876</name></trkpt>
<trkpt lat="52.717000" lon="06.006432"><ele>-1.2</ele><time>2022-09-06T14:54:35Z</time><name>PT8877</name></trkpt>
<trkpt lat="52.716997" lon="06.006415"><ele>-1.3</ele><time>2022-09-06T14:54:36Z</time><name>PT8878</name></trkpt>
<trkpt lat="52.716993" lon="06.006399"><ele>-1.4</ele><time>2022-09-06T14:54:37Z</time><name>PT8879</name></trkpt>
<trkpt lat="52.716990" lon="06.006382"><ele>-1.4</ele><time>2022-09-06T14:54:38Z</time><name>PT8880</name></trkpt>
<trkpt lat="52.716982" lon="06.006366"><ele>-1.5</ele><time>2022-09-06T14:54:39Z</time><name>PT8881</name></trkpt>
<trkpt lat="52.716976" lon="06.006349"><ele>-1.7</ele><time>2022-09-06T14:54:40Z</time><name>PT8882</name></trkpt>
<trkpt lat="52.716972" lon="06.006332"><ele>-1.6</ele><time>2022-09-06T14:54:41Z</time><name>PT8883</name></trkpt>
<trkpt lat="52.716967" lon="06.006317"><ele>-1.6</ele><time>2022-09-06T14:54:42Z</time><name>PT8884</name></trkpt>
<trkpt lat="52.716963" lon="06.006301"><ele>-1.5</ele><time>2022-09-06T14:54:43Z</time><name>PT8885</name></trkpt>
<trkpt lat="52.716961" lon="06.006285"><ele>-1.4</ele><time>2022-09-06T14:54:44Z</time><name>PT8886</name></trkpt>
<trkpt lat="52.716957" lon="06.006268"><ele>-1.5</ele><time>2022-09-06T14:54:45Z</time><name>PT8887</name></trkpt>
<trkpt lat="52.716952" lon="06.006252"><ele>-1.6</ele><time>2022-09-06T14:54:46Z</time><name>PT8888</name></trkpt>
<trkpt lat="52.716947" lon="06.006236"><ele>-1.5</ele><time>2022-09-06T14:54:47Z</time><name>PT8889</name></trkpt>
<trkpt lat="52.716943" lon="06.006219"><ele>-1.6</ele><time>2022-09-06T14:54:48Z</time><name>PT8890</name></trkpt>
<trkpt lat="52.716939" lon="06.006199"><ele>-1.4</ele><time>2022-09-06T14:54:49Z</time><name>PT8891</name></trkpt>
<trkpt lat="52.716935" lon="06.006180"><ele>-1.5</ele><time>2022-09-06T14:54:50Z</time><name>PT8892</name></trkpt>
<trkpt lat="52.716932" lon="06.006161"><ele>-1.4</ele><time>2022-09-06T14:54:51Z</time><name>PT8893</name></trkpt>
<trkpt lat="52.716927" lon="06.006145"><ele>-1.4</ele><time>2022-09-06T14:54:52Z</time><name>PT8894</name></trkpt>
<trkpt lat="52.716924" lon="06.006128"><ele>-1.5</ele><time>2022-09-06T14:54:53Z</time><name>PT8895</name></trkpt>
<trkpt lat="52.716920" lon="06.006111"><ele>-1.4</ele><time>2022-09-06T14:54:54Z</time><name>PT8896</name></trkpt>
<trkpt lat="52.716917" lon="06.006094"><ele>-1.4</ele><time>2022-09-06T14:54:55Z</time><name>PT8897</name></trkpt>
<trkpt lat="52.716913" lon="06.006079"><ele>-1.5</ele><time>2022-09-06T14:54:56Z</time><name>PT8898</name></trkpt>
<trkpt lat="52.716909" lon="06.006065"><ele>-1.4</ele><time>2022-09-06T14:54:57Z</time><name>PT8899</name></trkpt>
<trkpt lat="52.716905" lon="06.006051"><ele>-1.4</ele><time>2022-09-06T14:54:58Z</time><name>PT8900</name></trkpt>
<trkpt lat="52.716902" lon="06.006035"><ele>-1.5</ele><time>2022-09-06T14:54:59Z</time><name>PT8901</name></trkpt>
<trkpt lat="52.716900" lon="06.006018"><ele>-1.4</ele><time>2022-09-06T14:55:00Z</time><name>PT8902</name></trkpt>
<trkpt lat="52.716897" lon="06.006001"><ele>-1.4</ele><time>2022-09-06T14:55:01Z</time><name>PT8903</name></trkpt>
<trkpt lat="52.716894" lon="06.005986"><ele>-1.4</ele><time>2022-09-06T14:55:02Z</time><name>PT8904</name></trkpt>
<trkpt lat="52.716890" lon="06.005972"><ele>-1.4</ele><time>2022-09-06T14:55:03Z</time><name>PT8905</name></trkpt>
<trkpt lat="52.716885" lon="06.005958"><ele>-1.4</ele><time>2022-09-06T14:55:04Z</time><name>PT8906</name></trkpt>
<trkpt lat="52.716881" lon="06.005943"><ele>-1.3</ele><time>2022-09-06T14:55:05Z</time><name>PT8907</name></trkpt>
<trkpt lat="52.716878" lon="06.005929"><ele>-1.3</ele><time>2022-09-06T14:55:06Z</time><name>PT8908</name></trkpt>
<trkpt lat="52.716875" lon="06.005914"><ele>-1.2</ele><time>2022-09-06T14:55:07Z</time><name>PT8909</name></trkpt>
<trkpt lat="52.716873" lon="06.005897"><ele>-1.2</ele><time>2022-09-06T14:55:08Z</time><name>PT8910</name></trkpt>
<trkpt lat="52.716869" lon="06.005880"><ele>-1.3</ele><time>2022-09-06T14:55:09Z</time><name>PT8911</name></trkpt>
<trkpt lat="52.716866" lon="06.005868"><ele>-1.4</ele><time>2022-09-06T14:55:10Z</time><name>PT8912</name></trkpt>
<trkpt lat="52.716864" lon="06.005858"><ele>-1.4</ele><time>2022-09-06T14:55:11Z</time><name>PT8913</name></trkpt>
<trkpt lat="52.716861" lon="06.005847"><ele>-1.4</ele><time>2022-09-06T14:55:12Z</time><name>PT8914</name></trkpt>
<trkpt lat="52.716858" lon="06.005831"><ele>-1.5</ele><time>2022-09-06T14:55:13Z</time><name>PT8915</name></trkpt>
<trkpt lat="52.716852" lon="06.005808"><ele>-1.4</ele><time>2022-09-06T14:55:14Z</time><name>PT8916</name></trkpt>
<trkpt lat="52.716847" lon="06.005784"><ele>-1.4</ele><time>2022-09-06T14:55:15Z</time><name>PT8917</name></trkpt>
<trkpt lat="52.716842" lon="06.005763"><ele>-1.4</ele><time>2022-09-06T14:55:16Z</time><name>PT8918</name></trkpt>
<trkpt lat="52.716840" lon="06.005748"><ele>-1.2</ele><time>2022-09-06T14:55:17Z</time><name>PT8919</name></trkpt>
<trkpt lat="52.716838" lon="06.005733"><ele>-1.2</ele><time>2022-09-06T14:55:18Z</time><name>PT8920</name></trkpt>
<trkpt lat="52.716835" lon="06.005718"><ele>-1.4</ele><time>2022-09-06T14:55:19Z</time><name>PT8921</name></trkpt>
<trkpt lat="52.716832" lon="06.005704"><ele>-1.2</ele><time>2022-09-06T14:55:20Z</time><name>PT8922</name></trkpt>
<trkpt lat="52.716828" lon="06.005689"><ele>-1.1</ele><time>2022-09-06T14:55:21Z</time><name>PT8923</name></trkpt>
<trkpt lat="52.716825" lon="06.005674"><ele>-1.3</ele><time>2022-09-06T14:55:22Z</time><name>PT8924</name></trkpt>
<trkpt lat="52.716821" lon="06.005659"><ele>-1.4</ele><time>2022-09-06T14:55:23Z</time><name>PT8925</name></trkpt>
<trkpt lat="52.716818" lon="06.005644"><ele>-1.4</ele><time>2022-09-06T14:55:24Z</time><name>PT8926</name></trkpt>
<trkpt lat="52.716815" lon="06.005628"><ele>-1.4</ele><time>2022-09-06T14:55:25Z</time><name>PT8927</name></trkpt>
<trkpt lat="52.716813" lon="06.005611"><ele>-1.4</ele><time>2022-09-06T14:55:26Z</time><name>PT8928</name></trkpt>
<trkpt lat="52.716809" lon="06.005597"><ele>-1.4</ele><time>2022-09-06T14:55:27Z</time><name>PT8929</name></trkpt>
<trkpt lat="52.716806" lon="06.005585"><ele>-1.4</ele><time>2022-09-06T14:55:28Z</time><name>PT8930</name></trkpt>
<trkpt lat="52.716803" lon="06.005573"><ele>-1.4</ele><time>2022-09-06T14:55:29Z</time><name>PT8931</name></trkpt>
<trkpt lat="52.716800" lon="06.005560"><ele>-1.3</ele><time>2022-09-06T14:55:30Z</time><name>PT8932</name></trkpt>
<trkpt lat="52.716796" lon="06.005547"><ele>-1.4</ele><time>2022-09-06T14:55:31Z</time><name>PT8933</name></trkpt>
<trkpt lat="52.716794" lon="06.005531"><ele>-1.3</ele><time>2022-09-06T14:55:32Z</time><name>PT8934</name></trkpt>
<trkpt lat="52.716792" lon="06.005515"><ele>-1.4</ele><time>2022-09-06T14:55:33Z</time><name>PT8935</name></trkpt>
<trkpt lat="52.716789" lon="06.005500"><ele>-1.4</ele><time>2022-09-06T14:55:34Z</time><name>PT8936</name></trkpt>
<trkpt lat="52.716786" lon="06.005484"><ele>-1.1</ele><time>2022-09-06T14:55:35Z</time><name>PT8937</name></trkpt>
<trkpt lat="52.716783" lon="06.005468"><ele>-1.2</ele><time>2022-09-06T14:55:36Z</time><name>PT8938</name></trkpt>
<trkpt lat="52.716779" lon="06.005452"><ele>-1.1</ele><time>2022-09-06T14:55:37Z</time><name>PT8939</name></trkpt>
<trkpt lat="52.716775" lon="06.005436"><ele>-1.2</ele><time>2022-09-06T14:55:38Z</time><name>PT8940</name></trkpt>
<trkpt lat="52.716772" lon="06.005421"><ele>-1.3</ele><time>2022-09-06T14:55:39Z</time><name>PT8941</name></trkpt>
<trkpt lat="52.716768" lon="06.005401"><ele>-1.4</ele><time>2022-09-06T14:55:40Z</time><name>PT8942</name></trkpt>
<trkpt lat="52.716763" lon="06.005378"><ele>-1.3</ele><time>2022-09-06T14:55:41Z</time><name>PT8943</name></trkpt>
<trkpt lat="52.716759" lon="06.005361"><ele>-1.4</ele><time>2022-09-06T14:55:42Z</time><name>PT8944</name></trkpt>
<trkpt lat="52.716755" lon="06.005346"><ele>-1.4</ele><time>2022-09-06T14:55:43Z</time><name>PT8945</name></trkpt>
<trkpt lat="52.716753" lon="06.005330"><ele>-1.2</ele><time>2022-09-06T14:55:44Z</time><name>PT8946</name></trkpt>
<trkpt lat="52.716751" lon="06.005315"><ele>-1.2</ele><time>2022-09-06T14:55:45Z</time><name>PT8947</name></trkpt>
<trkpt lat="52.716747" lon="06.005300"><ele>-1.1</ele><time>2022-09-06T14:55:46Z</time><name>PT8948</name></trkpt>
<trkpt lat="52.716743" lon="06.005288"><ele>-1.1</ele><time>2022-09-06T14:55:47Z</time><name>PT8949</name></trkpt>
<trkpt lat="52.716740" lon="06.005274"><ele>-1.3</ele><time>2022-09-06T14:55:48Z</time><name>PT8950</name></trkpt>
<trkpt lat="52.716736" lon="06.005257"><ele>-1.3</ele><time>2022-09-06T14:55:49Z</time><name>PT8951</name></trkpt>
<trkpt lat="52.716731" lon="06.005242"><ele>-1.2</ele><time>2022-09-06T14:55:50Z</time><name>PT8952</name></trkpt>
<trkpt lat="52.716729" lon="06.005227"><ele>-1.3</ele><time>2022-09-06T14:55:51Z</time><name>PT8953</name></trkpt>
<trkpt lat="52.716726" lon="06.005212"><ele>-1.4</ele><time>2022-09-06T14:55:52Z</time><name>PT8954</name></trkpt>
<trkpt lat="52.716724" lon="06.005199"><ele>-1.4</ele><time>2022-09-06T14:55:53Z</time><name>PT8955</name></trkpt>
<trkpt lat="52.716721" lon="06.005185"><ele>-1.4</ele><time>2022-09-06T14:55:54Z</time><name>PT8956</name></trkpt>
<trkpt lat="52.716718" lon="06.005173"><ele>-1.5</ele><time>2022-09-06T14:55:55Z</time><name>PT8957</name></trkpt>
<trkpt lat="52.716713" lon="06.005157"><ele>-1.3</ele><time>2022-09-06T14:55:56Z</time><name>PT8958</name></trkpt>
<trkpt lat="52.716710" lon="06.005145"><ele>-1.2</ele><time>2022-09-06T14:55:57Z</time><name>PT8959</name></trkpt>
<trkpt lat="52.716707" lon="06.005137"><ele>-1.1</ele><time>2022-09-06T14:55:58Z</time><name>PT8960</name></trkpt>
<trkpt lat="52.716703" lon="06.005126"><ele>-1</ele><time>2022-09-06T14:55:59Z</time><name>PT8961</name></trkpt>
<trkpt lat="52.716701" lon="06.005118"><ele>-1</ele><time>2022-09-06T14:56:00Z</time><name>PT8962</name></trkpt>
<trkpt lat="52.716696" lon="06.005114"><ele>-1</ele><time>2022-09-06T14:56:01Z</time><name>PT8963</name></trkpt>
<trkpt lat="52.716691" lon="06.005110"><ele>-1</ele><time>2022-09-06T14:56:02Z</time><name>PT8964</name></trkpt>
<trkpt lat="52.716686" lon="06.005109"><ele>0.9</ele><time>2022-09-06T14:56:03Z</time><name>PT8965</name></trkpt>
<trkpt lat="52.716681" lon="06.005111"><ele>0.9</ele><time>2022-09-06T14:56:04Z</time><name>PT8966</name></trkpt>
<trkpt lat="52.716679" lon="06.005109"><ele>0.9</ele><time>2022-09-06T14:56:05Z</time><name>PT8967</name></trkpt>
<trkpt lat="52.716679" lon="06.005107"><ele>0.9</ele><time>2022-09-06T14:56:06Z</time><name>PT8968</name></trkpt>
<trkpt lat="52.716676" lon="06.005107"><ele>0.6</ele><time>2022-09-06T14:56:07Z</time><name>PT8969</name></trkpt>
<trkpt lat="52.716672" lon="06.005107"><ele>0.7</ele><time>2022-09-06T14:56:08Z</time><name>PT8970</name></trkpt>
<trkpt lat="52.716666" lon="06.005110"><ele>0.8</ele><time>2022-09-06T14:56:09Z</time><name>PT8971</name></trkpt>
<trkpt lat="52.716662" lon="06.005118"><ele>0.8</ele><time>2022-09-06T14:56:10Z</time><name>PT8972</name></trkpt>
<trkpt lat="52.716653" lon="06.005131"><ele>-1</ele><time>2022-09-06T14:56:11Z</time><name>PT8973</name></trkpt>
<trkpt lat="52.716641" lon="06.005144"><ele>-1</ele><time>2022-09-06T14:56:12Z</time><name>PT8974</name></trkpt>
<trkpt lat="52.716632" lon="06.005153"><ele>0.7</ele><time>2022-09-06T14:56:13Z</time><name>PT8975</name></trkpt>
<trkpt lat="52.716626" lon="06.005160"><ele>0.5</ele><time>2022-09-06T14:56:14Z</time><name>PT8976</name></trkpt>
<trkpt lat="52.716619" lon="06.005164"><ele>0.5</ele><time>2022-09-06T14:56:15Z</time><name>PT8977</name></trkpt>
<trkpt lat="52.716612" lon="06.005169"><ele>0.3</ele><time>2022-09-06T14:56:16Z</time><name>PT8978</name></trkpt>
<trkpt lat="52.716602" lon="06.005177"><ele>0.5</ele><time>2022-09-06T14:56:17Z</time><name>PT8979</name></trkpt>
<trkpt lat="52.716587" lon="06.005188"><ele>0.5</ele><time>2022-09-06T14:56:18Z</time><name>PT8980</name></trkpt>
<trkpt lat="52.716573" lon="06.005197"><ele>0.6</ele><time>2022-09-06T14:56:19Z</time><name>PT8981</name></trkpt>
<trkpt lat="52.716563" lon="06.005206"><ele>0.6</ele><time>2022-09-06T14:56:20Z</time><name>PT8982</name></trkpt>
<trkpt lat="52.716556" lon="06.005213"><ele>0.5</ele><time>2022-09-06T14:56:21Z</time><name>PT8983</name></trkpt>
<trkpt lat="52.716550" lon="06.005217"><ele>0.5</ele><time>2022-09-06T14:56:22Z</time><name>PT8984</name></trkpt>
<trkpt lat="52.716543" lon="06.005214"><ele>0.6</ele><time>2022-09-06T14:56:23Z</time><name>PT8985</name></trkpt>
<trkpt lat="52.716532" lon="06.005221"><ele>0.5</ele><time>2022-09-06T14:56:24Z</time><name>PT8986</name></trkpt>
<trkpt lat="52.716517" lon="06.005230"><ele>0.4</ele><time>2022-09-06T14:56:25Z</time><name>PT8987</name></trkpt>
<trkpt lat="52.716505" lon="06.005236"><ele>0.5</ele><time>2022-09-06T14:56:26Z</time><name>PT8988</name></trkpt>
<trkpt lat="52.716493" lon="06.005240"><ele>0.4</ele><time>2022-09-06T14:56:27Z</time><name>PT8989</name></trkpt>
<trkpt lat="52.716485" lon="06.005248"><ele>0.4</ele><time>2022-09-06T14:56:28Z</time><name>PT8990</name></trkpt>
<trkpt lat="52.716477" lon="06.005253"><ele>0.5</ele><time>2022-09-06T14:56:29Z</time><name>PT8991</name></trkpt>
<trkpt lat="52.716469" lon="06.005258"><ele>0.4</ele><time>2022-09-06T14:56:30Z</time><name>PT8992</name></trkpt>
<trkpt lat="52.716460" lon="06.005265"><ele>0.3</ele><time>2022-09-06T14:56:31Z</time><name>PT8993</name></trkpt>
<trkpt lat="52.716451" lon="06.005270"><ele>0.4</ele><time>2022-09-06T14:56:32Z</time><name>PT8994</name></trkpt>
<trkpt lat="52.716442" lon="06.005275"><ele>0.2</ele><time>2022-09-06T14:56:33Z</time><name>PT8995</name></trkpt>
<trkpt lat="52.716433" lon="06.005280"><ele>0.3</ele><time>2022-09-06T14:56:34Z</time><name>PT8996</name></trkpt>
<trkpt lat="52.716423" lon="06.005286"><ele>0.4</ele><time>2022-09-06T14:56:35Z</time><name>PT8997</name></trkpt>
<trkpt lat="52.716414" lon="06.005293"><ele>0.3</ele><time>2022-09-06T14:56:36Z</time><name>PT8998</name></trkpt>
<trkpt lat="52.716405" lon="06.005299"><ele>0.3</ele><time>2022-09-06T14:56:37Z</time><name>PT8999</name></trkpt>
<trkpt lat="52.716396" lon="06.005305"><ele>0.4</ele><time>2022-09-06T14:56:38Z</time><name>PT9000</name></trkpt>
<trkpt lat="52.716386" lon="06.005311"><ele>0.4</ele><time>2022-09-06T14:56:39Z</time><name>PT9001</name></trkpt>
<trkpt lat="52.716376" lon="06.005317"><ele>0.4</ele><time>2022-09-06T14:56:40Z</time><name>PT9002</name></trkpt>
<trkpt lat="52.716367" lon="06.005323"><ele>0.5</ele><time>2022-09-06T14:56:41Z</time><name>PT9003</name></trkpt>
<trkpt lat="52.716357" lon="06.005328"><ele>0.4</ele><time>2022-09-06T14:56:42Z</time><name>PT9004</name></trkpt>
<trkpt lat="52.716348" lon="06.005333"><ele>0.5</ele><time>2022-09-06T14:56:43Z</time><name>PT9005</name></trkpt>
<trkpt lat="52.716338" lon="06.005340"><ele>0.5</ele><time>2022-09-06T14:56:44Z</time><name>PT9006</name></trkpt>
<trkpt lat="52.716329" lon="06.005348"><ele>0.5</ele><time>2022-09-06T14:56:45Z</time><name>PT9007</name></trkpt>
<trkpt lat="52.716321" lon="06.005354"><ele>0.4</ele><time>2022-09-06T14:56:46Z</time><name>PT9008</name></trkpt>
<trkpt lat="52.716312" lon="06.005360"><ele>0.5</ele><time>2022-09-06T14:56:47Z</time><name>PT9009</name></trkpt>
<trkpt lat="52.716302" lon="06.005366"><ele>0.3</ele><time>2022-09-06T14:56:48Z</time><name>PT9010</name></trkpt>
<trkpt lat="52.716292" lon="06.005372"><ele>0.5</ele><time>2022-09-06T14:56:49Z</time><name>PT9011</name></trkpt>
<trkpt lat="52.716281" lon="06.005377"><ele>0.5</ele><time>2022-09-06T14:56:50Z</time><name>PT9012</name></trkpt>
<trkpt lat="52.716271" lon="06.005382"><ele>0.3</ele><time>2022-09-06T14:56:51Z</time><name>PT9013</name></trkpt>
<trkpt lat="52.716262" lon="06.005387"><ele>0.2</ele><time>2022-09-06T14:56:52Z</time><name>PT9014</name></trkpt>
<trkpt lat="52.716252" lon="06.005392"><ele>0.2</ele><time>2022-09-06T14:56:53Z</time><name>PT9015</name></trkpt>
<trkpt lat="52.716243" lon="06.005398"><ele>0.3</ele><time>2022-09-06T14:56:54Z</time><name>PT9016</name></trkpt>
<trkpt lat="52.716234" lon="06.005404"><ele>0.3</ele><time>2022-09-06T14:56:55Z</time><name>PT9017</name></trkpt>
<trkpt lat="52.716225" lon="06.005412"><ele>0.5</ele><time>2022-09-06T14:56:56Z</time><name>PT9018</name></trkpt>
<trkpt lat="52.716216" lon="06.005420"><ele>0.5</ele><time>2022-09-06T14:56:57Z</time><name>PT9019</name></trkpt>
<trkpt lat="52.716206" lon="06.005427"><ele>0.1</ele><time>2022-09-06T14:56:58Z</time><name>PT9020</name></trkpt>
<trkpt lat="52.716196" lon="06.005433"><ele>0</ele><time>2022-09-06T14:56:59Z</time><name>PT9021</name></trkpt>
<trkpt lat="52.716186" lon="06.005437"><ele>0</ele><time>2022-09-06T14:57:00Z</time><name>PT9022</name></trkpt>
<trkpt lat="52.716177" lon="06.005441"><ele>0</ele><time>2022-09-06T14:57:01Z</time><name>PT9023</name></trkpt>
<trkpt lat="52.716167" lon="06.005447"><ele>0.2</ele><time>2022-09-06T14:57:02Z</time><name>PT9024</name></trkpt>
<trkpt lat="52.716157" lon="06.005454"><ele>0.3</ele><time>2022-09-06T14:57:03Z</time><name>PT9025</name></trkpt>
<trkpt lat="52.716147" lon="06.005461"><ele>0.5</ele><time>2022-09-06T14:57:04Z</time><name>PT9026</name></trkpt>
<trkpt lat="52.716137" lon="06.005468"><ele>0.5</ele><time>2022-09-06T14:57:05Z</time><name>PT9027</name></trkpt>
<trkpt lat="52.716126" lon="06.005475"><ele>0.5</ele><time>2022-09-06T14:57:06Z</time><name>PT9028</name></trkpt>
<trkpt lat="52.716115" lon="06.005483"><ele>0.5</ele><time>2022-09-06T14:57:07Z</time><name>PT9029</name></trkpt>
<trkpt lat="52.716105" lon="06.005490"><ele>0.5</ele><time>2022-09-06T14:57:08Z</time><name>PT9030</name></trkpt>
<trkpt lat="52.716095" lon="06.005497"><ele>0.5</ele><time>2022-09-06T14:57:09Z</time><name>PT9031</name></trkpt>
<trkpt lat="52.716085" lon="06.005505"><ele>0.5</ele><time>2022-09-06T14:57:10Z</time><name>PT9032</name></trkpt>
<trkpt lat="52.716075" lon="06.005512"><ele>0.5</ele><time>2022-09-06T14:57:11Z</time><name>PT9033</name></trkpt>
<trkpt lat="52.716065" lon="06.005517"><ele>0.5</ele><time>2022-09-06T14:57:12Z</time><name>PT9034</name></trkpt>
<trkpt lat="52.716055" lon="06.005523"><ele>0.5</ele><time>2022-09-06T14:57:13Z</time><name>PT9035</name></trkpt>
<trkpt lat="52.716045" lon="06.005530"><ele>0.4</ele><time>2022-09-06T14:57:14Z</time><name>PT9036</name></trkpt>
<trkpt lat="52.716035" lon="06.005537"><ele>0.5</ele><time>2022-09-06T14:57:15Z</time><name>PT9037</name></trkpt>
<trkpt lat="52.716025" lon="06.005543"><ele>0.5</ele><time>2022-09-06T14:57:16Z</time><name>PT9038</name></trkpt>
<trkpt lat="52.716014" lon="06.005549"><ele>0.6</ele><time>2022-09-06T14:57:17Z</time><name>PT9039</name></trkpt>
<trkpt lat="52.716003" lon="06.005554"><ele>0.8</ele><time>2022-09-06T14:57:18Z</time><name>PT9040</name></trkpt>
<trkpt lat="52.715991" lon="06.005561"><ele>-1</ele><time>2022-09-06T14:57:19Z</time><name>PT9041</name></trkpt>
<trkpt lat="52.715981" lon="06.005568"><ele>0.9</ele><time>2022-09-06T14:57:20Z</time><name>PT9042</name></trkpt>
<trkpt lat="52.715970" lon="06.005575"><ele>0.9</ele><time>2022-09-06T14:57:21Z</time><name>PT9043</name></trkpt>
<trkpt lat="52.715961" lon="06.005580"><ele>0.9</ele><time>2022-09-06T14:57:22Z</time><name>PT9044</name></trkpt>
<trkpt lat="52.715952" lon="06.005587"><ele>0.8</ele><time>2022-09-06T14:57:23Z</time><name>PT9045</name></trkpt>
<trkpt lat="52.715943" lon="06.005593"><ele>0.7</ele><time>2022-09-06T14:57:24Z</time><name>PT9046</name></trkpt>
<trkpt lat="52.715934" lon="06.005598"><ele>0.8</ele><time>2022-09-06T14:57:25Z</time><name>PT9047</name></trkpt>
<trkpt lat="52.715924" lon="06.005604"><ele>0.7</ele><time>2022-09-06T14:57:26Z</time><name>PT9048</name></trkpt>
<trkpt lat="52.715914" lon="06.005609"><ele>0.7</ele><time>2022-09-06T14:57:27Z</time><name>PT9049</name></trkpt>
<trkpt lat="52.715904" lon="06.005616"><ele>0.5</ele><time>2022-09-06T14:57:28Z</time><name>PT9050</name></trkpt>
<trkpt lat="52.715893" lon="06.005623"><ele>0.4</ele><time>2022-09-06T14:57:29Z</time><name>PT9051</name></trkpt>
<trkpt lat="52.715883" lon="06.005630"><ele>0.5</ele><time>2022-09-06T14:57:30Z</time><name>PT9052</name></trkpt>
<trkpt lat="52.715872" lon="06.005636"><ele>0.3</ele><time>2022-09-06T14:57:31Z</time><name>PT9053</name></trkpt>
<trkpt lat="52.715862" lon="06.005641"><ele>0.2</ele><time>2022-09-06T14:57:32Z</time><name>PT9054</name></trkpt>
<trkpt lat="52.715854" lon="06.005647"><ele>0.3</ele><time>2022-09-06T14:57:33Z</time><name>PT9055</name></trkpt>
<trkpt lat="52.715845" lon="06.005652"><ele>0.1</ele><time>2022-09-06T14:57:34Z</time><name>PT9056</name></trkpt>
<trkpt lat="52.715835" lon="06.005658"><ele>0</ele><time>2022-09-06T14:57:35Z</time><name>PT9057</name></trkpt>
<trkpt lat="52.715826" lon="06.005665"><ele>0.2</ele><time>2022-09-06T14:57:36Z</time><name>PT9058</name></trkpt>
<trkpt lat="52.715817" lon="06.005671"><ele>0.2</ele><time>2022-09-06T14:57:37Z</time><name>PT9059</name></trkpt>
<trkpt lat="52.715807" lon="06.005677"><ele>0.2</ele><time>2022-09-06T14:57:38Z</time><name>PT9060</name></trkpt>
<trkpt lat="52.715799" lon="06.005684"><ele>0.3</ele><time>2022-09-06T14:57:39Z</time><name>PT9061</name></trkpt>
<trkpt lat="52.715790" lon="06.005689"><ele>0.3</ele><time>2022-09-06T14:57:40Z</time><name>PT9062</name></trkpt>
<trkpt lat="52.715784" lon="06.005694"><ele>0.2</ele><time>2022-09-06T14:57:41Z</time><name>PT9063</name></trkpt>
<trkpt lat="52.715778" lon="06.005698"><ele>0.2</ele><time>2022-09-06T14:57:42Z</time><name>PT9064</name></trkpt>
<trkpt lat="52.715771" lon="06.005704"><ele>0.4</ele><time>2022-09-06T14:57:43Z</time><name>PT9065</name></trkpt>
<trkpt lat="52.715764" lon="06.005709"><ele>0.4</ele><time>2022-09-06T14:57:44Z</time><name>PT9066</name></trkpt>
<trkpt lat="52.715759" lon="06.005713"><ele>0.3</ele><time>2022-09-06T14:57:45Z</time><name>PT9067</name></trkpt>
<trkpt lat="52.715754" lon="06.005718"><ele>0.5</ele><time>2022-09-06T14:57:46Z</time><name>PT9068</name></trkpt>
<trkpt lat="52.715749" lon="06.005720"><ele>0.5</ele><time>2022-09-06T14:57:47Z</time><name>PT9069</name></trkpt>
<trkpt lat="52.715748" lon="06.005788"><ele>1.3</ele><time>2022-09-06T15:12:31Z</time><name>PT9070</name></trkpt>
<trkpt lat="52.715740" lon="06.005787"><ele>1.4</ele><time>2022-09-06T15:12:32Z</time><name>PT9071</name></trkpt>
<trkpt lat="52.715732" lon="06.005790"><ele>1.4</ele><time>2022-09-06T15:12:33Z</time><name>PT9072</name></trkpt>
<trkpt lat="52.715723" lon="06.005795"><ele>1.5</ele><time>2022-09-06T15:12:34Z</time><name>PT9073</name></trkpt>
<trkpt lat="52.715715" lon="06.005803"><ele>1.4</ele><time>2022-09-06T15:12:35Z</time><name>PT9074</name></trkpt>
<trkpt lat="52.715706" lon="06.005809"><ele>1.4</ele><time>2022-09-06T15:12:36Z</time><name>PT9075</name></trkpt>
<trkpt lat="52.715699" lon="06.005815"><ele>1.3</ele><time>2022-09-06T15:12:37Z</time><name>PT9076</name></trkpt>
<trkpt lat="52.715690" lon="06.005817"><ele>1.4</ele><time>2022-09-06T15:12:38Z</time><name>PT9077</name></trkpt>
<trkpt lat="52.715681" lon="06.005821"><ele>1.4</ele><time>2022-09-06T15:12:39Z</time><name>PT9078</name></trkpt>
<trkpt lat="52.715672" lon="06.005826"><ele>1.4</ele><time>2022-09-06T15:12:40Z</time><name>PT9079</name></trkpt>
<trkpt lat="52.715663" lon="06.005833"><ele>1.3</ele><time>2022-09-06T15:12:41Z</time><name>PT9080</name></trkpt>
<trkpt lat="52.715654" lon="06.005841"><ele>1.3</ele><time>2022-09-06T15:12:42Z</time><name>PT9081</name></trkpt>
<trkpt lat="52.715645" lon="06.005848"><ele>1.3</ele><time>2022-09-06T15:12:43Z</time><name>PT9082</name></trkpt>
<trkpt lat="52.715635" lon="06.005856"><ele>1.5</ele><time>2022-09-06T15:12:44Z</time><name>PT9083</name></trkpt>
<trkpt lat="52.715625" lon="06.005863"><ele>1.5</ele><time>2022-09-06T15:12:45Z</time><name>PT9084</name></trkpt>
<trkpt lat="52.715616" lon="06.005870"><ele>1.6</ele><time>2022-09-06T15:12:46Z</time><name>PT9085</name></trkpt>
<trkpt lat="52.715608" lon="06.005875"><ele>1.8</ele><time>2022-09-06T15:12:47Z</time><name>PT9086</name></trkpt>
<trkpt lat="52.715600" lon="06.005880"><ele>1.8</ele><time>2022-09-06T15:12:48Z</time><name>PT9087</name></trkpt>
<trkpt lat="52.715589" lon="06.005884"><ele>1.8</ele><time>2022-09-06T15:12:49Z</time><name>PT9088</name></trkpt>
<trkpt lat="52.715579" lon="06.005887"><ele>1.8</ele><time>2022-09-06T15:12:50Z</time><name>PT9089</name></trkpt>
<trkpt lat="52.715568" lon="06.005892"><ele>1.9</ele><time>2022-09-06T15:12:51Z</time><name>PT9090</name></trkpt>
<trkpt lat="52.715558" lon="06.005895"><ele>1.9</ele><time>2022-09-06T15:12:52Z</time><name>PT9091</name></trkpt>
<trkpt lat="52.715548" lon="06.005905"><ele>1.8</ele><time>2022-09-06T15:12:53Z</time><name>PT9092</name></trkpt>
<trkpt lat="52.715539" lon="06.005913"><ele>1.8</ele><time>2022-09-06T15:12:54Z</time><name>PT9093</name></trkpt>
<trkpt lat="52.715530" lon="06.005921"><ele>1.6</ele><time>2022-09-06T15:12:55Z</time><name>PT9094</name></trkpt>
<trkpt lat="52.715522" lon="06.005927"><ele>1.4</ele><time>2022-09-06T15:12:56Z</time><name>PT9095</name></trkpt>
<trkpt lat="52.715513" lon="06.005932"><ele>1.4</ele><time>2022-09-06T15:12:57Z</time><name>PT9096</name></trkpt>
<trkpt lat="52.715503" lon="06.005938"><ele>1.4</ele><time>2022-09-06T15:12:58Z</time><name>PT9097</name></trkpt>
<trkpt lat="52.715493" lon="06.005944"><ele>1.7</ele><time>2022-09-06T15:12:59Z</time><name>PT9098</name></trkpt>
<trkpt lat="52.715482" lon="06.005949"><ele>1.8</ele><time>2022-09-06T15:13:00Z</time><name>PT9099</name></trkpt>
<trkpt lat="52.715471" lon="06.005954"><ele>1.9</ele><time>2022-09-06T15:13:01Z</time><name>PT9100</name></trkpt>
<trkpt lat="52.715461" lon="06.005961"><ele>1.8</ele><time>2022-09-06T15:13:02Z</time><name>PT9101</name></trkpt>
<trkpt lat="52.715446" lon="06.005970"><ele>1.8</ele><time>2022-09-06T15:13:03Z</time><name>PT9102</name></trkpt>
<trkpt lat="52.715434" lon="06.005976"><ele>1.7</ele><time>2022-09-06T15:13:04Z</time><name>PT9103</name></trkpt>
<trkpt lat="52.715429" lon="06.005983"><ele>1.4</ele><time>2022-09-06T15:13:05Z</time><name>PT9104</name></trkpt>
<trkpt lat="52.715425" lon="06.005988"><ele>1.4</ele><time>2022-09-06T15:13:06Z</time><name>PT9105</name></trkpt>
<trkpt lat="52.715421" lon="06.005993"><ele>1.4</ele><time>2022-09-06T15:13:07Z</time><name>PT9106</name></trkpt>
<trkpt lat="52.715411" lon="06.005991"><ele>1.6</ele><time>2022-09-06T15:13:09Z</time><name>PT9107</name></trkpt>
<trkpt lat="52.715396" lon="06.005993"><ele>1.7</ele><time>2022-09-06T15:13:10Z</time><name>PT9108</name></trkpt>
<trkpt lat="52.715379" lon="06.006004"><ele>1.8</ele><time>2022-09-06T15:13:11Z</time><name>PT9109</name></trkpt>
<trkpt lat="52.715361" lon="06.006016"><ele>1.8</ele><time>2022-09-06T15:13:12Z</time><name>PT9110</name></trkpt>
<trkpt lat="52.715346" lon="06.006027"><ele>1.8</ele><time>2022-09-06T15:13:13Z</time><name>PT9111</name></trkpt>
<trkpt lat="52.715336" lon="06.006033"><ele>1.8</ele><time>2022-09-06T15:13:14Z</time><name>PT9112</name></trkpt>
<trkpt lat="52.715329" lon="06.006038"><ele>1.8</ele><time>2022-09-06T15:13:15Z</time><name>PT9113</name></trkpt>
<trkpt lat="52.715320" lon="06.006044"><ele>1.7</ele><time>2022-09-06T15:13:16Z</time><name>PT9114</name></trkpt>
<trkpt lat="52.715316" lon="06.006046"><ele>1.8</ele><time>2022-09-06T15:13:17Z</time><name>PT9115</name></trkpt>
<trkpt lat="52.715307" lon="06.006053"><ele>1.7</ele><time>2022-09-06T15:13:18Z</time><name>PT9116</name></trkpt>
<trkpt lat="52.715297" lon="06.006058"><ele>1.8</ele><time>2022-09-06T15:13:19Z</time><name>PT9117</name></trkpt>
<trkpt lat="52.715282" lon="06.006066"><ele>1.7</ele><time>2022-09-06T15:13:20Z</time><name>PT9118</name></trkpt>
<trkpt lat="52.715264" lon="06.006074"><ele>1.8</ele><time>2022-09-06T15:13:21Z</time><name>PT9119</name></trkpt>
<trkpt lat="52.715248" lon="06.006076"><ele>1.7</ele><time>2022-09-06T15:13:22Z</time><name>PT9120</name></trkpt>
<trkpt lat="52.715238" lon="06.006081"><ele>1.6</ele><time>2022-09-06T15:13:23Z</time><name>PT9121</name></trkpt>
<trkpt lat="52.715229" lon="06.006091"><ele>1.5</ele><time>2022-09-06T15:13:24Z</time><name>PT9122</name></trkpt>
<trkpt lat="52.715225" lon="06.006097"><ele>1.3</ele><time>2022-09-06T15:13:25Z</time><name>PT9123</name></trkpt>
<trkpt lat="52.715221" lon="06.006100"><ele>1.3</ele><time>2022-09-06T15:13:26Z</time><name>PT9124</name></trkpt>
<trkpt lat="52.715219" lon="06.006101"><ele>1.4</ele><time>2022-09-06T15:13:27Z</time><name>PT9125</name></trkpt>
<trkpt lat="52.715212" lon="06.006105"><ele>1.5</ele><time>2022-09-06T15:13:28Z</time><name>PT9126</name></trkpt>
<trkpt lat="52.715201" lon="06.006114"><ele>1.5</ele><time>2022-09-06T15:13:29Z</time><name>PT9127</name></trkpt>
<trkpt lat="52.715187" lon="06.006124"><ele>1.6</ele><time>2022-09-06T15:13:30Z</time><name>PT9128</name></trkpt>
<trkpt lat="52.715169" lon="06.006132"><ele>1.4</ele><time>2022-09-06T15:13:31Z</time><name>PT9129</name></trkpt>
<trkpt lat="52.715152" lon="06.006144"><ele>1.3</ele><time>2022-09-06T15:13:32Z</time><name>PT9130</name></trkpt>
<trkpt lat="52.715135" lon="06.006159"><ele>1.4</ele><time>2022-09-06T15:13:33Z</time><name>PT9131</name></trkpt>
<trkpt lat="52.715123" lon="06.006168"><ele>1.6</ele><time>2022-09-06T15:13:34Z</time><name>PT9132</name></trkpt>
<trkpt lat="52.715120" lon="06.006173"><ele>1.6</ele><time>2022-09-06T15:13:35Z</time><name>PT9133</name></trkpt>
<trkpt lat="52.715115" lon="06.006179"><ele>1.7</ele><time>2022-09-06T15:13:36Z</time><name>PT9134</name></trkpt>
<trkpt lat="52.715111" lon="06.006183"><ele>1.8</ele><time>2022-09-06T15:13:37Z</time><name>PT9135</name></trkpt>
<trkpt lat="52.715105" lon="06.006186"><ele>1.8</ele><time>2022-09-06T15:13:38Z</time><name>PT9136</name></trkpt>
<trkpt lat="52.715100" lon="06.006189"><ele>1.7</ele><time>2022-09-06T15:13:39Z</time><name>PT9137</name></trkpt>
<trkpt lat="52.715091" lon="06.006192"><ele>1.7</ele><time>2022-09-06T15:13:40Z</time><name>PT9138</name></trkpt>
<trkpt lat="52.715075" lon="06.006197"><ele>1.6</ele><time>2022-09-06T15:13:41Z</time><name>PT9139</name></trkpt>
<trkpt lat="52.715055" lon="06.006207"><ele>1.5</ele><time>2022-09-06T15:13:42Z</time><name>PT9140</name></trkpt>
<trkpt lat="52.715038" lon="06.006214"><ele>1.5</ele><time>2022-09-06T15:13:43Z</time><name>PT9141</name></trkpt>
<trkpt lat="52.715027" lon="06.006218"><ele>1.4</ele><time>2022-09-06T15:13:44Z</time><name>PT9142</name></trkpt>
<trkpt lat="52.715022" lon="06.006223"><ele>1.5</ele><time>2022-09-06T15:13:45Z</time><name>PT9143</name></trkpt>
<trkpt lat="52.715019" lon="06.006228"><ele>1.4</ele><time>2022-09-06T15:13:46Z</time><name>PT9144</name></trkpt>
<trkpt lat="52.715015" lon="06.006234"><ele>1.4</ele><time>2022-09-06T15:13:47Z</time><name>PT9145</name></trkpt>
<trkpt lat="52.715010" lon="06.006237"><ele>1.3</ele><time>2022-09-06T15:13:48Z</time><name>PT9146</name></trkpt>
<trkpt lat="52.715002" lon="06.006237"><ele>1.3</ele><time>2022-09-06T15:13:49Z</time><name>PT9147</name></trkpt>
<trkpt lat="52.714994" lon="06.006236"><ele>1.3</ele><time>2022-09-06T15:13:50Z</time><name>PT9148</name></trkpt>
<trkpt lat="52.714978" lon="06.006235"><ele>1.3</ele><time>2022-09-06T15:13:51Z</time><name>PT9149</name></trkpt>
<trkpt lat="52.714956" lon="06.006240"><ele>1.2</ele><time>2022-09-06T15:13:52Z</time><name>PT9150</name></trkpt>
<trkpt lat="52.714933" lon="06.006250"><ele>1.1</ele><time>2022-09-06T15:13:53Z</time><name>PT9151</name></trkpt>
<trkpt lat="52.714913" lon="06.006259"><ele>1.3</ele><time>2022-09-06T15:13:54Z</time><name>PT9152</name></trkpt>
<trkpt lat="52.714897" lon="06.006274"><ele>1.1</ele><time>2022-09-06T15:13:55Z</time><name>PT9153</name></trkpt>
<trkpt lat="52.714890" lon="06.006279"><ele>1.3</ele><time>2022-09-06T15:13:56Z</time><name>PT9154</name></trkpt>
<trkpt lat="52.714889" lon="06.006283"><ele>1.3</ele><time>2022-09-06T15:13:57Z</time><name>PT9155</name></trkpt>
<trkpt lat="52.714888" lon="06.006287"><ele>1.3</ele><time>2022-09-06T15:13:58Z</time><name>PT9156</name></trkpt>
<trkpt lat="52.714888" lon="06.006292"><ele>1.2</ele><time>2022-09-06T15:13:59Z</time><name>PT9157</name></trkpt>
<trkpt lat="52.714889" lon="06.006294"><ele>1.3</ele><time>2022-09-06T15:14:00Z</time><name>PT9158</name></trkpt>
<trkpt lat="52.714887" lon="06.006295"><ele>1.3</ele><time>2022-09-06T15:14:01Z</time><name>PT9159</name></trkpt>
<trkpt lat="52.714879" lon="06.006301"><ele>1.3</ele><time>2022-09-06T15:14:02Z</time><name>PT9160</name></trkpt>
<trkpt lat="52.714866" lon="06.006308"><ele>1.4</ele><time>2022-09-06T15:14:03Z</time><name>PT9161</name></trkpt>
<trkpt lat="52.714847" lon="06.006319"><ele>1.4</ele><time>2022-09-06T15:14:04Z</time><name>PT9162</name></trkpt>
<trkpt lat="52.714826" lon="06.006332"><ele>1.3</ele><time>2022-09-06T15:14:05Z</time><name>PT9163</name></trkpt>
<trkpt lat="52.714806" lon="06.006349"><ele>1.3</ele><time>2022-09-06T15:14:06Z</time><name>PT9164</name></trkpt>
<trkpt lat="52.714788" lon="06.006369"><ele>1.4</ele><time>2022-09-06T15:14:07Z</time><name>PT9165</name></trkpt>
<trkpt lat="52.714776" lon="06.006382"><ele>1.3</ele><time>2022-09-06T15:14:08Z</time><name>PT9166</name></trkpt>
<trkpt lat="52.714769" lon="06.006390"><ele>1.3</ele><time>2022-09-06T15:14:09Z</time><name>PT9167</name></trkpt>
<trkpt lat="52.714763" lon="06.006396"><ele>1.4</ele><time>2022-09-06T15:14:10Z</time><name>PT9168</name></trkpt>
<trkpt lat="52.714761" lon="06.006398"><ele>1.3</ele><time>2022-09-06T15:14:11Z</time><name>PT9169</name></trkpt>
<trkpt lat="52.714761" lon="06.006397"><ele>1.4</ele><time>2022-09-06T15:14:12Z</time><name>PT9170</name></trkpt>
<trkpt lat="52.714762" lon="06.006398"><ele>1.4</ele><time>2022-09-06T15:14:13Z</time><name>PT9171</name></trkpt>
<trkpt lat="52.714757" lon="06.006399"><ele>1.5</ele><time>2022-09-06T15:14:14Z</time><name>PT9172</name></trkpt>
<trkpt lat="52.714743" lon="06.006403"><ele>1.4</ele><time>2022-09-06T15:14:15Z</time><name>PT9173</name></trkpt>
<trkpt lat="52.714728" lon="06.006414"><ele>1.4</ele><time>2022-09-06T15:14:16Z</time><name>PT9174</name></trkpt>
<trkpt lat="52.714709" lon="06.006425"><ele>1.4</ele><time>2022-09-06T15:14:17Z</time><name>PT9175</name></trkpt>
<trkpt lat="52.714692" lon="06.006437"><ele>1.4</ele><time>2022-09-06T15:14:18Z</time><name>PT9176</name></trkpt>
<trkpt lat="52.714679" lon="06.006449"><ele>1.4</ele><time>2022-09-06T15:14:19Z</time><name>PT9177</name></trkpt>
<trkpt lat="52.714668" lon="06.006460"><ele>1.6</ele><time>2022-09-06T15:14:20Z</time><name>PT9178</name></trkpt>
<trkpt lat="52.714660" lon="06.006464"><ele>1.4</ele><time>2022-09-06T15:14:21Z</time><name>PT9179</name></trkpt>
<trkpt lat="52.714658" lon="06.006464"><ele>1.4</ele><time>2022-09-06T15:14:22Z</time><name>PT9180</name></trkpt>
<trkpt lat="52.714656" lon="06.006464"><ele>1.4</ele><time>2022-09-06T15:14:23Z</time><name>PT9181</name></trkpt>
<trkpt lat="52.714653" lon="06.006464"><ele>1.4</ele><time>2022-09-06T15:14:24Z</time><name>PT9182</name></trkpt>
<trkpt lat="52.714648" lon="06.006466"><ele>1.4</ele><time>2022-09-06T15:14:25Z</time><name>PT9183</name></trkpt>
<trkpt lat="52.714639" lon="06.006472"><ele>1.6</ele><time>2022-09-06T15:14:26Z</time><name>PT9184</name></trkpt>
<trkpt lat="52.714624" lon="06.006479"><ele>1.7</ele><time>2022-09-06T15:14:27Z</time><name>PT9185</name></trkpt>
<trkpt lat="52.714608" lon="06.006492"><ele>1.8</ele><time>2022-09-06T15:14:28Z</time><name>PT9186</name></trkpt>
<trkpt lat="52.714592" lon="06.006505"><ele>1.6</ele><time>2022-09-06T15:14:29Z</time><name>PT9187</name></trkpt>
<trkpt lat="52.714580" lon="06.006517"><ele>1.7</ele><time>2022-09-06T15:14:30Z</time><name>PT9188</name></trkpt>
<trkpt lat="52.714572" lon="06.006522"><ele>1.7</ele><time>2022-09-06T15:14:31Z</time><name>PT9189</name></trkpt>
<trkpt lat="52.714567" lon="06.006524"><ele>1.5</ele><time>2022-09-06T15:14:32Z</time><name>PT9190</name></trkpt>
<trkpt lat="52.714562" lon="06.006524"><ele>1.3</ele><time>2022-09-06T15:14:33Z</time><name>PT9191</name></trkpt>
<trkpt lat="52.714553" lon="06.006525"><ele>1.3</ele><time>2022-09-06T15:14:34Z</time><name>PT9192</name></trkpt>
<trkpt lat="52.714540" lon="06.006530"><ele>1.3</ele><time>2022-09-06T15:14:35Z</time><name>PT9193</name></trkpt>
<trkpt lat="52.714523" lon="06.006544"><ele>1.3</ele><time>2022-09-06T15:14:36Z</time><name>PT9194</name></trkpt>
<trkpt lat="52.714512" lon="06.006552"><ele>1.3</ele><time>2022-09-06T15:14:37Z</time><name>PT9195</name></trkpt>
<trkpt lat="52.714506" lon="06.006556"><ele>1.7</ele><time>2022-09-06T15:14:38Z</time><name>PT9196</name></trkpt>
<trkpt lat="52.714503" lon="06.006557"><ele>1.8</ele><time>2022-09-06T15:14:39Z</time><name>PT9197</name></trkpt>
<trkpt lat="52.714499" lon="06.006557"><ele>1.8</ele><time>2022-09-06T15:14:40Z</time><name>PT9198</name></trkpt>
<trkpt lat="52.714492" lon="06.006561"><ele>1.8</ele><time>2022-09-06T15:14:41Z</time><name>PT9199</name></trkpt>
<trkpt lat="52.714479" lon="06.006568"><ele>1.7</ele><time>2022-09-06T15:14:42Z</time><name>PT9200</name></trkpt>
<trkpt lat="52.714460" lon="06.006579"><ele>1.6</ele><time>2022-09-06T15:14:43Z</time><name>PT9201</name></trkpt>
<trkpt lat="52.714437" lon="06.006600"><ele>1.6</ele><time>2022-09-06T15:14:44Z</time><name>PT9202</name></trkpt>
<trkpt lat="52.714413" lon="06.006621"><ele>1.6</ele><time>2022-09-06T15:14:45Z</time><name>PT9203</name></trkpt>
<trkpt lat="52.714398" lon="06.006633"><ele>1.8</ele><time>2022-09-06T15:14:46Z</time><name>PT9204</name></trkpt>
<trkpt lat="52.714396" lon="06.006633"><ele>1.5</ele><time>2022-09-06T15:14:47Z</time><name>PT9205</name></trkpt>
<trkpt lat="52.714398" lon="06.006633"><ele>1.6</ele><time>2022-09-06T15:14:48Z</time><name>PT9206</name></trkpt>
<trkpt lat="52.714394" lon="06.006632"><ele>1.4</ele><time>2022-09-06T15:14:49Z</time><name>PT9207</name></trkpt>
<trkpt lat="52.714388" lon="06.006635"><ele>1.5</ele><time>2022-09-06T15:14:50Z</time><name>PT9208</name></trkpt>
<trkpt lat="52.714377" lon="06.006639"><ele>1.4</ele><time>2022-09-06T15:14:51Z</time><name>PT9209</name></trkpt>
<trkpt lat="52.714364" lon="06.006646"><ele>1.6</ele><time>2022-09-06T15:14:52Z</time><name>PT9210</name></trkpt>
<trkpt lat="52.714348" lon="06.006653"><ele>1.7</ele><time>2022-09-06T15:14:53Z</time><name>PT9211</name></trkpt>
<trkpt lat="52.714331" lon="06.006659"><ele>1.6</ele><time>2022-09-06T15:14:54Z</time><name>PT9212</name></trkpt>
<trkpt lat="52.714318" lon="06.006667"><ele>1.5</ele><time>2022-09-06T15:14:55Z</time><name>PT9213</name></trkpt>
<trkpt lat="52.714308" lon="06.006675"><ele>1.6</ele><time>2022-09-06T15:14:56Z</time><name>PT9214</name></trkpt>
<trkpt lat="52.714301" lon="06.006682"><ele>1.6</ele><time>2022-09-06T15:14:57Z</time><name>PT9215</name></trkpt>
<trkpt lat="52.714301" lon="06.006687"><ele>1.5</ele><time>2022-09-06T15:14:58Z</time><name>PT9216</name></trkpt>
<trkpt lat="52.714296" lon="06.006690"><ele>1.5</ele><time>2022-09-06T15:14:59Z</time><name>PT9217</name></trkpt>
<trkpt lat="52.714286" lon="06.006688"><ele>1.5</ele><time>2022-09-06T15:15:00Z</time><name>PT9218</name></trkpt>
<trkpt lat="52.714276" lon="06.006693"><ele>1.5</ele><time>2022-09-06T15:15:01Z</time><name>PT9219</name></trkpt>
<trkpt lat="52.714267" lon="06.006695"><ele>1.6</ele><time>2022-09-06T15:15:02Z</time><name>PT9220</name></trkpt>
<trkpt lat="52.714258" lon="06.006701"><ele>1.7</ele><time>2022-09-06T15:15:03Z</time><name>PT9221</name></trkpt>
<trkpt lat="52.714250" lon="06.006709"><ele>1.8</ele><time>2022-09-06T15:15:04Z</time><name>PT9222</name></trkpt>
<trkpt lat="52.714242" lon="06.006719"><ele>1.8</ele><time>2022-09-06T15:15:05Z</time><name>PT9223</name></trkpt>
<trkpt lat="52.714235" lon="06.006728"><ele>1.7</ele><time>2022-09-06T15:15:06Z</time><name>PT9224</name></trkpt>
<trkpt lat="52.714227" lon="06.006736"><ele>1.6</ele><time>2022-09-06T15:15:07Z</time><name>PT9225</name></trkpt>
<trkpt lat="52.714217" lon="06.006741"><ele>1.6</ele><time>2022-09-06T15:15:08Z</time><name>PT9226</name></trkpt>
<trkpt lat="52.714208" lon="06.006746"><ele>1.6</ele><time>2022-09-06T15:15:09Z</time><name>PT9227</name></trkpt>
<trkpt lat="52.714198" lon="06.006751"><ele>1.7</ele><time>2022-09-06T15:15:10Z</time><name>PT9228</name></trkpt>
<trkpt lat="52.714187" lon="06.006753"><ele>1.6</ele><time>2022-09-06T15:15:11Z</time><name>PT9229</name></trkpt>
<trkpt lat="52.714176" lon="06.006756"><ele>1.6</ele><time>2022-09-06T15:15:12Z</time><name>PT9230</name></trkpt>
<trkpt lat="52.714166" lon="06.006761"><ele>1.6</ele><time>2022-09-06T15:15:13Z</time><name>PT9231</name></trkpt>
<trkpt lat="52.714156" lon="06.006768"><ele>1.5</ele><time>2022-09-06T15:15:14Z</time><name>PT9232</name></trkpt>
<trkpt lat="52.714146" lon="06.006777"><ele>1.6</ele><time>2022-09-06T15:15:15Z</time><name>PT9233</name></trkpt>
<trkpt lat="52.714136" lon="06.006785"><ele>1.7</ele><time>2022-09-06T15:15:16Z</time><name>PT9234</name></trkpt>
<trkpt lat="52.714129" lon="06.006795"><ele>1.8</ele><time>2022-09-06T15:15:17Z</time><name>PT9235</name></trkpt>
<trkpt lat="52.714121" lon="06.006800"><ele>1.8</ele><time>2022-09-06T15:15:18Z</time><name>PT9236</name></trkpt>
<trkpt lat="52.714112" lon="06.006807"><ele>1.8</ele><time>2022-09-06T15:15:19Z</time><name>PT9237</name></trkpt>
<trkpt lat="52.714102" lon="06.006813"><ele>1.5</ele><time>2022-09-06T15:15:20Z</time><name>PT9238</name></trkpt>
<trkpt lat="52.714092" lon="06.006817"><ele>1.5</ele><time>2022-09-06T15:15:21Z</time><name>PT9239</name></trkpt>
<trkpt lat="52.714082" lon="06.006822"><ele>1.4</ele><time>2022-09-06T15:15:22Z</time><name>PT9240</name></trkpt>
<trkpt lat="52.714071" lon="06.006831"><ele>1.3</ele><time>2022-09-06T15:15:23Z</time><name>PT9241</name></trkpt>
<trkpt lat="52.714060" lon="06.006839"><ele>1.4</ele><time>2022-09-06T15:15:24Z</time><name>PT9242</name></trkpt>
<trkpt lat="52.714051" lon="06.006845"><ele>1.4</ele><time>2022-09-06T15:15:25Z</time><name>PT9243</name></trkpt>
<trkpt lat="52.714041" lon="06.006853"><ele>1.2</ele><time>2022-09-06T15:15:26Z</time><name>PT9244</name></trkpt>
<trkpt lat="52.714031" lon="06.006863"><ele>1</ele><time>2022-09-06T15:15:27Z</time><name>PT9245</name></trkpt>
<trkpt lat="52.714021" lon="06.006873"><ele>1.2</ele><time>2022-09-06T15:15:28Z</time><name>PT9246</name></trkpt>
<trkpt lat="52.714012" lon="06.006881"><ele>1.3</ele><time>2022-09-06T15:15:29Z</time><name>PT9247</name></trkpt>
<trkpt lat="52.714003" lon="06.006891"><ele>1.3</ele><time>2022-09-06T15:15:30Z</time><name>PT9248</name></trkpt>
<trkpt lat="52.713994" lon="06.006897"><ele>1.7</ele><time>2022-09-06T15:15:31Z</time><name>PT9249</name></trkpt>
<trkpt lat="52.713984" lon="06.006901"><ele>1.6</ele><time>2022-09-06T15:15:32Z</time><name>PT9250</name></trkpt>
<trkpt lat="52.713973" lon="06.006905"><ele>1.5</ele><time>2022-09-06T15:15:33Z</time><name>PT9251</name></trkpt>
<trkpt lat="52.713962" lon="06.006908"><ele>1.5</ele><time>2022-09-06T15:15:34Z</time><name>PT9252</name></trkpt>
<trkpt lat="52.713951" lon="06.006913"><ele>1.6</ele><time>2022-09-06T15:15:35Z</time><name>PT9253</name></trkpt>
<trkpt lat="52.713941" lon="06.006920"><ele>1.5</ele><time>2022-09-06T15:15:36Z</time><name>PT9254</name></trkpt>
<trkpt lat="52.713933" lon="06.006929"><ele>1.5</ele><time>2022-09-06T15:15:37Z</time><name>PT9255</name></trkpt>
<trkpt lat="52.713922" lon="06.006938"><ele>1.6</ele><time>2022-09-06T15:15:38Z</time><name>PT9256</name></trkpt>
<trkpt lat="52.713913" lon="06.006945"><ele>1.7</ele><time>2022-09-06T15:15:39Z</time><name>PT9257</name></trkpt>
<trkpt lat="52.713902" lon="06.006953"><ele>1.6</ele><time>2022-09-06T15:15:40Z</time><name>PT9258</name></trkpt>
<trkpt lat="52.713891" lon="06.006959"><ele>1.6</ele><time>2022-09-06T15:15:41Z</time><name>PT9259</name></trkpt>
<trkpt lat="52.713882" lon="06.006966"><ele>1.6</ele><time>2022-09-06T15:15:42Z</time><name>PT9260</name></trkpt>
<trkpt lat="52.713873" lon="06.006970"><ele>1.4</ele><time>2022-09-06T15:15:43Z</time><name>PT9261</name></trkpt>
<trkpt lat="52.713864" lon="06.006974"><ele>1.3</ele><time>2022-09-06T15:15:44Z</time><name>PT9262</name></trkpt>
<trkpt lat="52.713854" lon="06.006979"><ele>1.4</ele><time>2022-09-06T15:15:45Z</time><name>PT9263</name></trkpt>
<trkpt lat="52.713843" lon="06.006983"><ele>1.3</ele><time>2022-09-06T15:15:46Z</time><name>PT9264</name></trkpt>
<trkpt lat="52.713832" lon="06.006987"><ele>1.4</ele><time>2022-09-06T15:15:47Z</time><name>PT9265</name></trkpt>
<trkpt lat="52.713821" lon="06.006992"><ele>1.5</ele><time>2022-09-06T15:15:48Z</time><name>PT9266</name></trkpt>
<trkpt lat="52.713812" lon="06.006998"><ele>1.5</ele><time>2022-09-06T15:15:49Z</time><name>PT9267</name></trkpt>
<trkpt lat="52.713802" lon="06.007005"><ele>1.3</ele><time>2022-09-06T15:15:50Z</time><name>PT9268</name></trkpt>
<trkpt lat="52.713791" lon="06.007010"><ele>1.3</ele><time>2022-09-06T15:15:51Z</time><name>PT9269</name></trkpt>
<trkpt lat="52.713782" lon="06.007019"><ele>1.3</ele><time>2022-09-06T15:15:52Z</time><name>PT9270</name></trkpt>
<trkpt lat="52.713771" lon="06.007029"><ele>1.4</ele><time>2022-09-06T15:15:53Z</time><name>PT9271</name></trkpt>
<trkpt lat="52.713760" lon="06.007037"><ele>1.5</ele><time>2022-09-06T15:15:54Z</time><name>PT9272</name></trkpt>
<trkpt lat="52.713750" lon="06.007045"><ele>1.6</ele><time>2022-09-06T15:15:55Z</time><name>PT9273</name></trkpt>
<trkpt lat="52.713742" lon="06.007051"><ele>1.5</ele><time>2022-09-06T15:15:56Z</time><name>PT9274</name></trkpt>
<trkpt lat="52.713732" lon="06.007057"><ele>1.5</ele><time>2022-09-06T15:15:57Z</time><name>PT9275</name></trkpt>
<trkpt lat="52.713721" lon="06.007062"><ele>1.5</ele><time>2022-09-06T15:15:58Z</time><name>PT9276</name></trkpt>
<trkpt lat="52.713711" lon="06.007066"><ele>1.6</ele><time>2022-09-06T15:15:59Z</time><name>PT9277</name></trkpt>
<trkpt lat="52.713701" lon="06.007072"><ele>1.6</ele><time>2022-09-06T15:16:00Z</time><name>PT9278</name></trkpt>
<trkpt lat="52.713690" lon="06.007077"><ele>1.7</ele><time>2022-09-06T15:16:01Z</time><name>PT9279</name></trkpt>
<trkpt lat="52.713679" lon="06.007083"><ele>1.7</ele><time>2022-09-06T15:16:02Z</time><name>PT9280</name></trkpt>
<trkpt lat="52.713668" lon="06.007089"><ele>1.7</ele><time>2022-09-06T15:16:03Z</time><name>PT9281</name></trkpt>
<trkpt lat="52.713658" lon="06.007097"><ele>1.7</ele><time>2022-09-06T15:16:04Z</time><name>PT9282</name></trkpt>
<trkpt lat="52.713649" lon="06.007108"><ele>1.8</ele><time>2022-09-06T15:16:05Z</time><name>PT9283</name></trkpt>
<trkpt lat="52.713639" lon="06.007116"><ele>1.8</ele><time>2022-09-06T15:16:06Z</time><name>PT9284</name></trkpt>
<trkpt lat="52.713630" lon="06.007121"><ele>1.9</ele><time>2022-09-06T15:16:07Z</time><name>PT9285</name></trkpt>
<trkpt lat="52.713621" lon="06.007126"><ele>1.8</ele><time>2022-09-06T15:16:08Z</time><name>PT9286</name></trkpt>
<trkpt lat="52.713610" lon="06.007130"><ele>1.8</ele><time>2022-09-06T15:16:09Z</time><name>PT9287</name></trkpt>
<trkpt lat="52.713601" lon="06.007137"><ele>1.7</ele><time>2022-09-06T15:16:10Z</time><name>PT9288</name></trkpt>
<trkpt lat="52.713590" lon="06.007146"><ele>1.6</ele><time>2022-09-06T15:16:11Z</time><name>PT9289</name></trkpt>
<trkpt lat="52.713579" lon="06.007153"><ele>1.7</ele><time>2022-09-06T15:16:12Z</time><name>PT9290</name></trkpt>
<trkpt lat="52.713570" lon="06.007159"><ele>1.6</ele><time>2022-09-06T15:16:13Z</time><name>PT9291</name></trkpt>
<trkpt lat="52.713560" lon="06.007164"><ele>1.7</ele><time>2022-09-06T15:16:14Z</time><name>PT9292</name></trkpt>
<trkpt lat="52.713550" lon="06.007168"><ele>1.6</ele><time>2022-09-06T15:16:15Z</time><name>PT9293</name></trkpt>
<trkpt lat="52.713539" lon="06.007174"><ele>1.8</ele><time>2022-09-06T15:16:16Z</time><name>PT9294</name></trkpt>
<trkpt lat="52.713527" lon="06.007180"><ele>1.8</ele><time>2022-09-06T15:16:17Z</time><name>PT9295</name></trkpt>
<trkpt lat="52.713517" lon="06.007186"><ele>1.9</ele><time>2022-09-06T15:16:18Z</time><name>PT9296</name></trkpt>
<trkpt lat="52.713507" lon="06.007194"><ele>1.9</ele><time>2022-09-06T15:16:19Z</time><name>PT9297</name></trkpt>
<trkpt lat="52.713498" lon="06.007200"><ele>1.9</ele><time>2022-09-06T15:16:20Z</time><name>PT9298</name></trkpt>
<trkpt lat="52.713489" lon="06.007211"><ele>1.9</ele><time>2022-09-06T15:16:21Z</time><name>PT9299</name></trkpt>
<trkpt lat="52.713479" lon="06.007219"><ele>2</ele><time>2022-09-06T15:16:22Z</time><name>PT9300</name></trkpt>
<trkpt lat="52.713470" lon="06.007227"><ele>1.9</ele><time>2022-09-06T15:16:23Z</time><name>PT9301</name></trkpt>
<trkpt lat="52.713461" lon="06.007233"><ele>1.9</ele><time>2022-09-06T15:16:24Z</time><name>PT9302</name></trkpt>
<trkpt lat="52.713451" lon="06.007240"><ele>2</ele><time>2022-09-06T15:16:25Z</time><name>PT9303</name></trkpt>
<trkpt lat="52.713441" lon="06.007244"><ele>1.8</ele><time>2022-09-06T15:16:26Z</time><name>PT9304</name></trkpt>
<trkpt lat="52.713430" lon="06.007247"><ele>1.8</ele><time>2022-09-06T15:16:27Z</time><name>PT9305</name></trkpt>
<trkpt lat="52.713419" lon="06.007257"><ele>1.8</ele><time>2022-09-06T15:16:28Z</time><name>PT9306</name></trkpt>
<trkpt lat="52.713410" lon="06.007265"><ele>1.7</ele><time>2022-09-06T15:16:29Z</time><name>PT9307</name></trkpt>
<trkpt lat="52.713400" lon="06.007273"><ele>1.7</ele><time>2022-09-06T15:16:30Z</time><name>PT9308</name></trkpt>
<trkpt lat="52.713391" lon="06.007281"><ele>1.8</ele><time>2022-09-06T15:16:31Z</time><name>PT9309</name></trkpt>
<trkpt lat="52.713380" lon="06.007289"><ele>2</ele><time>2022-09-06T15:16:32Z</time><name>PT9310</name></trkpt>
<trkpt lat="52.713369" lon="06.007296"><ele>2.1</ele><time>2022-09-06T15:16:33Z</time><name>PT9311</name></trkpt>
<trkpt lat="52.713359" lon="06.007303"><ele>2.3</ele><time>2022-09-06T15:16:34Z</time><name>PT9312</name></trkpt>
<trkpt lat="52.713349" lon="06.007309"><ele>2.3</ele><time>2022-09-06T15:16:35Z</time><name>PT9313</name></trkpt>
<trkpt lat="52.713337" lon="06.007314"><ele>2.1</ele><time>2022-09-06T15:16:36Z</time><name>PT9314</name></trkpt>
<trkpt lat="52.713324" lon="06.007318"><ele>1.9</ele><time>2022-09-06T15:16:37Z</time><name>PT9315</name></trkpt>
<trkpt lat="52.713313" lon="06.007325"><ele>1.8</ele><time>2022-09-06T15:16:38Z</time><name>PT9316</name></trkpt>
<trkpt lat="52.713302" lon="06.007330"><ele>1.8</ele><time>2022-09-06T15:16:39Z</time><name>PT9317</name></trkpt>
<trkpt lat="52.713293" lon="06.007335"><ele>1.8</ele><time>2022-09-06T15:16:40Z</time><name>PT9318</name></trkpt>
<trkpt lat="52.713284" lon="06.007342"><ele>1.9</ele><time>2022-09-06T15:16:41Z</time><name>PT9319</name></trkpt>
<trkpt lat="52.713274" lon="06.007350"><ele>1.9</ele><time>2022-09-06T15:16:42Z</time><name>PT9320</name></trkpt>
<trkpt lat="52.713266" lon="06.007356"><ele>1.8</ele><time>2022-09-06T15:16:43Z</time><name>PT9321</name></trkpt>
<trkpt lat="52.713257" lon="06.007361"><ele>1.8</ele><time>2022-09-06T15:16:44Z</time><name>PT9322</name></trkpt>
<trkpt lat="52.713246" lon="06.007366"><ele>1.8</ele><time>2022-09-06T15:16:45Z</time><name>PT9323</name></trkpt>
<trkpt lat="52.713236" lon="06.007373"><ele>1.8</ele><time>2022-09-06T15:16:46Z</time><name>PT9324</name></trkpt>
<trkpt lat="52.713226" lon="06.007380"><ele>1.8</ele><time>2022-09-06T15:16:47Z</time><name>PT9325</name></trkpt>
<trkpt lat="52.713216" lon="06.007387"><ele>2</ele><time>2022-09-06T15:16:48Z</time><name>PT9326</name></trkpt>
<trkpt lat="52.713205" lon="06.007396"><ele>2.1</ele><time>2022-09-06T15:16:49Z</time><name>PT9327</name></trkpt>
<trkpt lat="52.713195" lon="06.007405"><ele>2.1</ele><time>2022-09-06T15:16:50Z</time><name>PT9328</name></trkpt>
<trkpt lat="52.713185" lon="06.007413"><ele>1.9</ele><time>2022-09-06T15:16:51Z</time><name>PT9329</name></trkpt>
<trkpt lat="52.713176" lon="06.007419"><ele>1.8</ele><time>2022-09-06T15:16:52Z</time><name>PT9330</name></trkpt>
<trkpt lat="52.713165" lon="06.007423"><ele>1.7</ele><time>2022-09-06T15:16:53Z</time><name>PT9331</name></trkpt>
<trkpt lat="52.713153" lon="06.007427"><ele>1.8</ele><time>2022-09-06T15:16:54Z</time><name>PT9332</name></trkpt>
<trkpt lat="52.713142" lon="06.007433"><ele>1.6</ele><time>2022-09-06T15:16:55Z</time><name>PT9333</name></trkpt>
<trkpt lat="52.713133" lon="06.007441"><ele>1.7</ele><time>2022-09-06T15:16:56Z</time><name>PT9334</name></trkpt>
<trkpt lat="52.713123" lon="06.007447"><ele>1.8</ele><time>2022-09-06T15:16:57Z</time><name>PT9335</name></trkpt>
<trkpt lat="52.713114" lon="06.007455"><ele>1.9</ele><time>2022-09-06T15:16:58Z</time><name>PT9336</name></trkpt>
<trkpt lat="52.713104" lon="06.007461"><ele>2</ele><time>2022-09-06T15:16:59Z</time><name>PT9337</name></trkpt>
<trkpt lat="52.713094" lon="06.007469"><ele>2</ele><time>2022-09-06T15:17:00Z</time><name>PT9338</name></trkpt>
<trkpt lat="52.713084" lon="06.007475"><ele>2.1</ele><time>2022-09-06T15:17:01Z</time><name>PT9339</name></trkpt>
<trkpt lat="52.713076" lon="06.007482"><ele>1.8</ele><time>2022-09-06T15:17:02Z</time><name>PT9340</name></trkpt>
<trkpt lat="52.713066" lon="06.007488"><ele>1.7</ele><time>2022-09-06T15:17:03Z</time><name>PT9341</name></trkpt>
<trkpt lat="52.713056" lon="06.007493"><ele>1.5</ele><time>2022-09-06T15:17:04Z</time><name>PT9342</name></trkpt>
<trkpt lat="52.713045" lon="06.007498"><ele>1.5</ele><time>2022-09-06T15:17:05Z</time><name>PT9343</name></trkpt>
<trkpt lat="52.713034" lon="06.007502"><ele>1.7</ele><time>2022-09-06T15:17:06Z</time><name>PT9344</name></trkpt>
<trkpt lat="52.713023" lon="06.007507"><ele>1.8</ele><time>2022-09-06T15:17:07Z</time><name>PT9345</name></trkpt>
<trkpt lat="52.713013" lon="06.007513"><ele>1.8</ele><time>2022-09-06T15:17:08Z</time><name>PT9346</name></trkpt>
<trkpt lat="52.713004" lon="06.007521"><ele>1.9</ele><time>2022-09-06T15:17:09Z</time><name>PT9347</name></trkpt>
<trkpt lat="52.712994" lon="06.007529"><ele>2</ele><time>2022-09-06T15:17:10Z</time><name>PT9348</name></trkpt>
<trkpt lat="52.712984" lon="06.007537"><ele>1.9</ele><time>2022-09-06T15:17:11Z</time><name>PT9349</name></trkpt>
<trkpt lat="52.712975" lon="06.007543"><ele>1.8</ele><time>2022-09-06T15:17:12Z</time><name>PT9350</name></trkpt>
<trkpt lat="52.712967" lon="06.007550"><ele>-2</ele><time>2022-09-06T15:17:13Z</time><name>PT9351</name></trkpt>
<trkpt lat="52.712959" lon="06.007556"><ele>-2.1</ele><time>2022-09-06T15:17:14Z</time><name>PT9352</name></trkpt>
<trkpt lat="52.712951" lon="06.007562"><ele>-2.2</ele><time>2022-09-06T15:17:15Z</time><name>PT9353</name></trkpt>
<trkpt lat="52.712941" lon="06.007568"><ele>-2.1</ele><time>2022-09-06T15:17:16Z</time><name>PT9354</name></trkpt>
<trkpt lat="52.712931" lon="06.007573"><ele>-2.1</ele><time>2022-09-06T15:17:17Z</time><name>PT9355</name></trkpt>
<trkpt lat="52.712922" lon="06.007579"><ele>-2</ele><time>2022-09-06T15:17:18Z</time><name>PT9356</name></trkpt>
<trkpt lat="52.712913" lon="06.007586"><ele>-2.1</ele><time>2022-09-06T15:17:19Z</time><name>PT9357</name></trkpt>
<trkpt lat="52.712904" lon="06.007594"><ele>-2.3</ele><time>2022-09-06T15:17:20Z</time><name>PT9358</name></trkpt>
<trkpt lat="52.712894" lon="06.007600"><ele>-2.4</ele><time>2022-09-06T15:17:21Z</time><name>PT9359</name></trkpt>
<trkpt lat="52.712883" lon="06.007606"><ele>-2.4</ele><time>2022-09-06T15:17:22Z</time><name>PT9360</name></trkpt>
<trkpt lat="52.712873" lon="06.007614"><ele>-2.4</ele><time>2022-09-06T15:17:23Z</time><name>PT9361</name></trkpt>
<trkpt lat="52.712863" lon="06.007620"><ele>-2.3</ele><time>2022-09-06T15:17:24Z</time><name>PT9362</name></trkpt>
<trkpt lat="52.712853" lon="06.007623"><ele>-2</ele><time>2022-09-06T15:17:25Z</time><name>PT9363</name></trkpt>
<trkpt lat="52.712842" lon="06.007625"><ele>-2.1</ele><time>2022-09-06T15:17:26Z</time><name>PT9364</name></trkpt>
<trkpt lat="52.712831" lon="06.007629"><ele>-2.1</ele><time>2022-09-06T15:17:27Z</time><name>PT9365</name></trkpt>
<trkpt lat="52.712821" lon="06.007637"><ele>-2.2</ele><time>2022-09-06T15:17:28Z</time><name>PT9366</name></trkpt>
<trkpt lat="52.712811" lon="06.007643"><ele>-2</ele><time>2022-09-06T15:17:29Z</time><name>PT9367</name></trkpt>
<trkpt lat="52.712801" lon="06.007650"><ele>-2</ele><time>2022-09-06T15:17:30Z</time><name>PT9368</name></trkpt>
<trkpt lat="52.712792" lon="06.007657"><ele>-2</ele><time>2022-09-06T15:17:31Z</time><name>PT9369</name></trkpt>
<trkpt lat="52.712783" lon="06.007665"><ele>-2</ele><time>2022-09-06T15:17:32Z</time><name>PT9370</name></trkpt>
<trkpt lat="52.712774" lon="06.007673"><ele>-2</ele><time>2022-09-06T15:17:33Z</time><name>PT9371</name></trkpt>
<trkpt lat="52.712764" lon="06.007678"><ele>-2.2</ele><time>2022-09-06T15:17:34Z</time><name>PT9372</name></trkpt>
<trkpt lat="52.712754" lon="06.007685"><ele>-2.3</ele><time>2022-09-06T15:17:35Z</time><name>PT9373</name></trkpt>
<trkpt lat="52.712743" lon="06.007690"><ele>-2.4</ele><time>2022-09-06T15:17:36Z</time><name>PT9374</name></trkpt>
<trkpt lat="52.712732" lon="06.007695"><ele>-2.4</ele><time>2022-09-06T15:17:37Z</time><name>PT9375</name></trkpt>
<trkpt lat="52.712721" lon="06.007701"><ele>-2</ele><time>2022-09-06T15:17:38Z</time><name>PT9376</name></trkpt>
<trkpt lat="52.712712" lon="06.007707"><ele>-2.1</ele><time>2022-09-06T15:17:39Z</time><name>PT9377</name></trkpt>
<trkpt lat="52.712702" lon="06.007714"><ele>-2</ele><time>2022-09-06T15:17:40Z</time><name>PT9378</name></trkpt>
<trkpt lat="52.712692" lon="06.007722"><ele>-2</ele><time>2022-09-06T15:17:41Z</time><name>PT9379</name></trkpt>
<trkpt lat="52.712682" lon="06.007729"><ele>-2</ele><time>2022-09-06T15:17:42Z</time><name>PT9380</name></trkpt>
<trkpt lat="52.712672" lon="06.007735"><ele>-2.2</ele><time>2022-09-06T15:17:43Z</time><name>PT9381</name></trkpt>
<trkpt lat="52.712662" lon="06.007740"><ele>-2.2</ele><time>2022-09-06T15:17:44Z</time><name>PT9382</name></trkpt>
<trkpt lat="52.712652" lon="06.007746"><ele>-2.4</ele><time>2022-09-06T15:17:45Z</time><name>PT9383</name></trkpt>
<trkpt lat="52.712641" lon="06.007751"><ele>-2.3</ele><time>2022-09-06T15:17:46Z</time><name>PT9384</name></trkpt>
<trkpt lat="52.712631" lon="06.007757"><ele>-2.3</ele><time>2022-09-06T15:17:47Z</time><name>PT9385</name></trkpt>
<trkpt lat="52.712621" lon="06.007763"><ele>-2.3</ele><time>2022-09-06T15:17:48Z</time><name>PT9386</name></trkpt>
<trkpt lat="52.712611" lon="06.007770"><ele>-2.2</ele><time>2022-09-06T15:17:49Z</time><name>PT9387</name></trkpt>
<trkpt lat="52.712600" lon="06.007780"><ele>-2.1</ele><time>2022-09-06T15:17:50Z</time><name>PT9388</name></trkpt>
<trkpt lat="52.712590" lon="06.007787"><ele>-2.2</ele><time>2022-09-06T15:17:51Z</time><name>PT9389</name></trkpt>
<trkpt lat="52.712580" lon="06.007791"><ele>-2.2</ele><time>2022-09-06T15:17:52Z</time><name>PT9390</name></trkpt>
<trkpt lat="52.712570" lon="06.007796"><ele>-2.3</ele><time>2022-09-06T15:17:53Z</time><name>PT9391</name></trkpt>
<trkpt lat="52.712560" lon="06.007800"><ele>-2.5</ele><time>2022-09-06T15:17:54Z</time><name>PT9392</name></trkpt>
<trkpt lat="52.712549" lon="06.007805"><ele>-2.4</ele><time>2022-09-06T15:17:55Z</time><name>PT9393</name></trkpt>
<trkpt lat="52.712537" lon="06.007812"><ele>-2.2</ele><time>2022-09-06T15:17:56Z</time><name>PT9394</name></trkpt>
<trkpt lat="52.712527" lon="06.007816"><ele>-2.2</ele><time>2022-09-06T15:17:57Z</time><name>PT9395</name></trkpt>
<trkpt lat="52.712517" lon="06.007821"><ele>-2</ele><time>2022-09-06T15:17:58Z</time><name>PT9396</name></trkpt>
<trkpt lat="52.712506" lon="06.007828"><ele>-2.2</ele><time>2022-09-06T15:17:59Z</time><name>PT9397</name></trkpt>
<trkpt lat="52.712496" lon="06.007840"><ele>-2.1</ele><time>2022-09-06T15:18:00Z</time><name>PT9398</name></trkpt>
<trkpt lat="52.712486" lon="06.007850"><ele>-2.1</ele><time>2022-09-06T15:18:01Z</time><name>PT9399</name></trkpt>
<trkpt lat="52.712475" lon="06.007857"><ele>-2.2</ele><time>2022-09-06T15:18:02Z</time><name>PT9400</name></trkpt>
<trkpt lat="52.712466" lon="06.007865"><ele>-2.4</ele><time>2022-09-06T15:18:03Z</time><name>PT9401</name></trkpt>
<trkpt lat="52.712456" lon="06.007872"><ele>-2.1</ele><time>2022-09-06T15:18:04Z</time><name>PT9402</name></trkpt>
<trkpt lat="52.712445" lon="06.007876"><ele>-2.3</ele><time>2022-09-06T15:18:05Z</time><name>PT9403</name></trkpt>
<trkpt lat="52.712433" lon="06.007881"><ele>-2.2</ele><time>2022-09-06T15:18:06Z</time><name>PT9404</name></trkpt>
<trkpt lat="52.712422" lon="06.007886"><ele>-2</ele><time>2022-09-06T15:18:07Z</time><name>PT9405</name></trkpt>
<trkpt lat="52.712411" lon="06.007892"><ele>-2</ele><time>2022-09-06T15:18:08Z</time><name>PT9406</name></trkpt>
<trkpt lat="52.712402" lon="06.007899"><ele>-1.9</ele><time>2022-09-06T15:18:09Z</time><name>PT9407</name></trkpt>
<trkpt lat="52.712392" lon="06.007905"><ele>-1.9</ele><time>2022-09-06T15:18:10Z</time><name>PT9408</name></trkpt>
<trkpt lat="52.712383" lon="06.007914"><ele>-2</ele><time>2022-09-06T15:18:11Z</time><name>PT9409</name></trkpt>
<trkpt lat="52.712374" lon="06.007920"><ele>-1.9</ele><time>2022-09-06T15:18:12Z</time><name>PT9410</name></trkpt>
<trkpt lat="52.712366" lon="06.007924"><ele>-2.1</ele><time>2022-09-06T15:18:13Z</time><name>PT9411</name></trkpt>
<trkpt lat="52.712354" lon="06.007929"><ele>-2.1</ele><time>2022-09-06T15:18:14Z</time><name>PT9412</name></trkpt>
<trkpt lat="52.712344" lon="06.007936"><ele>-2.2</ele><time>2022-09-06T15:18:15Z</time><name>PT9413</name></trkpt>
<trkpt lat="52.712336" lon="06.007942"><ele>-2.2</ele><time>2022-09-06T15:18:16Z</time><name>PT9414</name></trkpt>
<trkpt lat="52.712327" lon="06.007948"><ele>-2.3</ele><time>2022-09-06T15:18:17Z</time><name>PT9415</name></trkpt>
<trkpt lat="52.712318" lon="06.007955"><ele>-2.3</ele><time>2022-09-06T15:18:18Z</time><name>PT9416</name></trkpt>
<trkpt lat="52.712310" lon="06.007961"><ele>-2.3</ele><time>2022-09-06T15:18:19Z</time><name>PT9417</name></trkpt>
<trkpt lat="52.712301" lon="06.007968"><ele>-2.4</ele><time>2022-09-06T15:18:20Z</time><name>PT9418</name></trkpt>
<trkpt lat="52.712291" lon="06.007974"><ele>-2.3</ele><time>2022-09-06T15:18:21Z</time><name>PT9419</name></trkpt>
<trkpt lat="52.712282" lon="06.007980"><ele>-2.4</ele><time>2022-09-06T15:18:22Z</time><name>PT9420</name></trkpt>
<trkpt lat="52.712272" lon="06.007984"><ele>-2.4</ele><time>2022-09-06T15:18:23Z</time><name>PT9421</name></trkpt>
<trkpt lat="52.712263" lon="06.007990"><ele>-2.4</ele><time>2022-09-06T15:18:24Z</time><name>PT9422</name></trkpt>
<trkpt lat="52.712253" lon="06.007997"><ele>-2.5</ele><time>2022-09-06T15:18:25Z</time><name>PT9423</name></trkpt>
<trkpt lat="52.712245" lon="06.008007"><ele>-2.4</ele><time>2022-09-06T15:18:26Z</time><name>PT9424</name></trkpt>
<trkpt lat="52.712236" lon="06.008013"><ele>-2.4</ele><time>2022-09-06T15:18:27Z</time><name>PT9425</name></trkpt>
<trkpt lat="52.712227" lon="06.008015"><ele>-2.4</ele><time>2022-09-06T15:18:28Z</time><name>PT9426</name></trkpt>
<trkpt lat="52.712216" lon="06.008018"><ele>-2.4</ele><time>2022-09-06T15:18:29Z</time><name>PT9427</name></trkpt>
<trkpt lat="52.712205" lon="06.008024"><ele>-2.4</ele><time>2022-09-06T15:18:30Z</time><name>PT9428</name></trkpt>
<trkpt lat="52.712196" lon="06.008031"><ele>-2.3</ele><time>2022-09-06T15:18:31Z</time><name>PT9429</name></trkpt>
<trkpt lat="52.712187" lon="06.008036"><ele>-2.3</ele><time>2022-09-06T15:18:32Z</time><name>PT9430</name></trkpt>
<trkpt lat="52.712177" lon="06.008043"><ele>-2.3</ele><time>2022-09-06T15:18:33Z</time><name>PT9431</name></trkpt>
<trkpt lat="52.712168" lon="06.008051"><ele>-2.2</ele><time>2022-09-06T15:18:34Z</time><name>PT9432</name></trkpt>
<trkpt lat="52.712160" lon="06.008060"><ele>-2.3</ele><time>2022-09-06T15:18:35Z</time><name>PT9433</name></trkpt>
<trkpt lat="52.712154" lon="06.008066"><ele>-2.5</ele><time>2022-09-06T15:18:36Z</time><name>PT9434</name></trkpt>
<trkpt lat="52.712145" lon="06.008069"><ele>-2.4</ele><time>2022-09-06T15:18:37Z</time><name>PT9435</name></trkpt>
<trkpt lat="52.712137" lon="06.008074"><ele>-2.3</ele><time>2022-09-06T15:18:38Z</time><name>PT9436</name></trkpt>
<trkpt lat="52.712129" lon="06.008078"><ele>-2.4</ele><time>2022-09-06T15:18:39Z</time><name>PT9437</name></trkpt>
<trkpt lat="52.712122" lon="06.008087"><ele>-2.2</ele><time>2022-09-06T15:18:40Z</time><name>PT9438</name></trkpt>
<trkpt lat="52.712114" lon="06.008093"><ele>-2</ele><time>2022-09-06T15:18:41Z</time><name>PT9439</name></trkpt>
<trkpt lat="52.712107" lon="06.008099"><ele>-2.1</ele><time>2022-09-06T15:18:42Z</time><name>PT9440</name></trkpt>
<trkpt lat="52.712099" lon="06.008106"><ele>-2.2</ele><time>2022-09-06T15:18:43Z</time><name>PT9441</name></trkpt>
<trkpt lat="52.712091" lon="06.008114"><ele>-2.3</ele><time>2022-09-06T15:18:44Z</time><name>PT9442</name></trkpt>
<trkpt lat="52.712081" lon="06.008121"><ele>-2.4</ele><time>2022-09-06T15:18:45Z</time><name>PT9443</name></trkpt>
<trkpt lat="52.712069" lon="06.008122"><ele>-2.5</ele><time>2022-09-06T15:18:46Z</time><name>PT9444</name></trkpt>
<trkpt lat="52.712061" lon="06.008127"><ele>-2.4</ele><time>2022-09-06T15:18:47Z</time><name>PT9445</name></trkpt>
<trkpt lat="52.712051" lon="06.008132"><ele>-2.5</ele><time>2022-09-06T15:18:48Z</time><name>PT9446</name></trkpt>
<trkpt lat="52.712042" lon="06.008136"><ele>-2.5</ele><time>2022-09-06T15:18:49Z</time><name>PT9447</name></trkpt>
<trkpt lat="52.712032" lon="06.008139"><ele>-2.6</ele><time>2022-09-06T15:18:50Z</time><name>PT9448</name></trkpt>
<trkpt lat="52.712023" lon="06.008144"><ele>-2.6</ele><time>2022-09-06T15:18:51Z</time><name>PT9449</name></trkpt>
<trkpt lat="52.712015" lon="06.008147"><ele>-2.7</ele><time>2022-09-06T15:18:52Z</time><name>PT9450</name></trkpt>
<trkpt lat="52.712005" lon="06.008151"><ele>-2.9</ele><time>2022-09-06T15:18:53Z</time><name>PT9451</name></trkpt>
<trkpt lat="52.711996" lon="06.008158"><ele>-2.9</ele><time>2022-09-06T15:18:54Z</time><name>PT9452</name></trkpt>
<trkpt lat="52.711988" lon="06.008166"><ele>-2.7</ele><time>2022-09-06T15:18:55Z</time><name>PT9453</name></trkpt>
<trkpt lat="52.711977" lon="06.008173"><ele>-2.6</ele><time>2022-09-06T15:18:56Z</time><name>PT9454</name></trkpt>
<trkpt lat="52.711968" lon="06.008180"><ele>-2.5</ele><time>2022-09-06T15:18:57Z</time><name>PT9455</name></trkpt>
<trkpt lat="52.711959" lon="06.008185"><ele>-2.5</ele><time>2022-09-06T15:18:58Z</time><name>PT9456</name></trkpt>
<trkpt lat="52.711948" lon="06.008188"><ele>-2.5</ele><time>2022-09-06T15:18:59Z</time><name>PT9457</name></trkpt>
<trkpt lat="52.711938" lon="06.008194"><ele>-2.5</ele><time>2022-09-06T15:19:00Z</time><name>PT9458</name></trkpt>
<trkpt lat="52.711928" lon="06.008199"><ele>-2.5</ele><time>2022-09-06T15:19:01Z</time><name>PT9459</name></trkpt>
<trkpt lat="52.711917" lon="06.008203"><ele>-2.5</ele><time>2022-09-06T15:19:02Z</time><name>PT9460</name></trkpt>
<trkpt lat="52.711906" lon="06.008208"><ele>-2.5</ele><time>2022-09-06T15:19:03Z</time><name>PT9461</name></trkpt>
<trkpt lat="52.711896" lon="06.008214"><ele>-2.5</ele><time>2022-09-06T15:19:04Z</time><name>PT9462</name></trkpt>
<trkpt lat="52.711887" lon="06.008219"><ele>-2.4</ele><time>2022-09-06T15:19:05Z</time><name>PT9463</name></trkpt>
<trkpt lat="52.711879" lon="06.008221"><ele>-2.4</ele><time>2022-09-06T15:19:06Z</time><name>PT9464</name></trkpt>
<trkpt lat="52.711865" lon="06.008227"><ele>-2.3</ele><time>2022-09-06T15:19:07Z</time><name>PT9465</name></trkpt>
<trkpt lat="52.711854" lon="06.008225"><ele>-2.3</ele><time>2022-09-06T15:19:08Z</time><name>PT9466</name></trkpt>
<trkpt lat="52.711834" lon="06.008228"><ele>-2.3</ele><time>2022-09-06T15:19:09Z</time><name>PT9467</name></trkpt>
<trkpt lat="52.711826" lon="06.008223"><ele>-2.3</ele><time>2022-09-06T15:19:10Z</time><name>PT9468</name></trkpt>
<trkpt lat="52.711819" lon="06.008226"><ele>-2.5</ele><time>2022-09-06T15:19:11Z</time><name>PT9469</name></trkpt>
<trkpt lat="52.711810" lon="06.008227"><ele>-2.5</ele><time>2022-09-06T15:19:12Z</time><name>PT9470</name></trkpt>
<trkpt lat="52.711800" lon="06.008231"><ele>-2.5</ele><time>2022-09-06T15:19:13Z</time><name>PT9471</name></trkpt>
<trkpt lat="52.711791" lon="06.008238"><ele>-2.5</ele><time>2022-09-06T15:19:14Z</time><name>PT9472</name></trkpt>
<trkpt lat="52.711784" lon="06.008244"><ele>-2.5</ele><time>2022-09-06T15:19:15Z</time><name>PT9473</name></trkpt>
<trkpt lat="52.711774" lon="06.008250"><ele>-2.6</ele><time>2022-09-06T15:19:16Z</time><name>PT9474</name></trkpt>
<trkpt lat="52.711764" lon="06.008253"><ele>-2.6</ele><time>2022-09-06T15:19:17Z</time><name>PT9475</name></trkpt>
<trkpt lat="52.711755" lon="06.008258"><ele>-2.6</ele><time>2022-09-06T15:19:18Z</time><name>PT9476</name></trkpt>
<trkpt lat="52.711747" lon="06.008261"><ele>-2.5</ele><time>2022-09-06T15:19:19Z</time><name>PT9477</name></trkpt>
<trkpt lat="52.711739" lon="06.008266"><ele>-2.4</ele><time>2022-09-06T15:19:20Z</time><name>PT9478</name></trkpt>
<trkpt lat="52.711728" lon="06.008270"><ele>-2.5</ele><time>2022-09-06T15:19:21Z</time><name>PT9479</name></trkpt>
<trkpt lat="52.711721" lon="06.008270"><ele>-2.5</ele><time>2022-09-06T15:19:22Z</time><name>PT9480</name></trkpt>
<trkpt lat="52.711711" lon="06.008269"><ele>-2.5</ele><time>2022-09-06T15:19:23Z</time><name>PT9481</name></trkpt>
<trkpt lat="52.711700" lon="06.008274"><ele>-2.6</ele><time>2022-09-06T15:19:24Z</time><name>PT9482</name></trkpt>
<trkpt lat="52.711690" lon="06.008281"><ele>-2.6</ele><time>2022-09-06T15:19:25Z</time><name>PT9483</name></trkpt>
<trkpt lat="52.711680" lon="06.008288"><ele>-2.5</ele><time>2022-09-06T15:19:26Z</time><name>PT9484</name></trkpt>
<trkpt lat="52.711669" lon="06.008296"><ele>-2.5</ele><time>2022-09-06T15:19:27Z</time><name>PT9485</name></trkpt>
<trkpt lat="52.711658" lon="06.008300"><ele>-2.4</ele><time>2022-09-06T15:19:28Z</time><name>PT9486</name></trkpt>
<trkpt lat="52.711652" lon="06.008308"><ele>-2.5</ele><time>2022-09-06T15:19:29Z</time><name>PT9487</name></trkpt>
<trkpt lat="52.711643" lon="06.008318"><ele>-2.5</ele><time>2022-09-06T15:19:30Z</time><name>PT9488</name></trkpt>
<trkpt lat="52.711634" lon="06.008332"><ele>-2.5</ele><time>2022-09-06T15:19:31Z</time><name>PT9489</name></trkpt>
<trkpt lat="52.711626" lon="06.008346"><ele>-2.5</ele><time>2022-09-06T15:19:32Z</time><name>PT9490</name></trkpt>
<trkpt lat="52.711614" lon="06.008358"><ele>-2.3</ele><time>2022-09-06T15:19:33Z</time><name>PT9491</name></trkpt>
<trkpt lat="52.711602" lon="06.008364"><ele>-2.3</ele><time>2022-09-06T15:19:34Z</time><name>PT9492</name></trkpt>
<trkpt lat="52.711591" lon="06.008373"><ele>-2.4</ele><time>2022-09-06T15:19:35Z</time><name>PT9493</name></trkpt>
<trkpt lat="52.711581" lon="06.008381"><ele>-2.3</ele><time>2022-09-06T15:19:36Z</time><name>PT9494</name></trkpt>
<trkpt lat="52.711571" lon="06.008390"><ele>-2.2</ele><time>2022-09-06T15:19:37Z</time><name>PT9495</name></trkpt>
<trkpt lat="52.711561" lon="06.008400"><ele>-2.3</ele><time>2022-09-06T15:19:38Z</time><name>PT9496</name></trkpt>
<trkpt lat="52.711551" lon="06.008409"><ele>-2.3</ele><time>2022-09-06T15:19:39Z</time><name>PT9497</name></trkpt>
<trkpt lat="52.711541" lon="06.008419"><ele>-2.5</ele><time>2022-09-06T15:19:40Z</time><name>PT9498</name></trkpt>
<trkpt lat="52.711532" lon="06.008425"><ele>-2.6</ele><time>2022-09-06T15:19:41Z</time><name>PT9499</name></trkpt>
<trkpt lat="52.711523" lon="06.008430"><ele>-2.8</ele><time>2022-09-06T15:19:42Z</time><name>PT9500</name></trkpt>
<trkpt lat="52.711512" lon="06.008433"><ele>-2.7</ele><time>2022-09-06T15:19:43Z</time><name>PT9501</name></trkpt>
<trkpt lat="52.711499" lon="06.008440"><ele>-2.6</ele><time>2022-09-06T15:19:44Z</time><name>PT9502</name></trkpt>
<trkpt lat="52.711488" lon="06.008447"><ele>-2.6</ele><time>2022-09-06T15:19:45Z</time><name>PT9503</name></trkpt>
<trkpt lat="52.711477" lon="06.008454"><ele>-2.6</ele><time>2022-09-06T15:19:46Z</time><name>PT9504</name></trkpt>
<trkpt lat="52.711468" lon="06.008463"><ele>-2.5</ele><time>2022-09-06T15:19:47Z</time><name>PT9505</name></trkpt>
<trkpt lat="52.711459" lon="06.008471"><ele>-2.6</ele><time>2022-09-06T15:19:48Z</time><name>PT9506</name></trkpt>
<trkpt lat="52.711448" lon="06.008480"><ele>-2.5</ele><time>2022-09-06T15:19:49Z</time><name>PT9507</name></trkpt>
<trkpt lat="52.711436" lon="06.008489"><ele>-2.3</ele><time>2022-09-06T15:19:50Z</time><name>PT9508</name></trkpt>
<trkpt lat="52.711423" lon="06.008497"><ele>-2.3</ele><time>2022-09-06T15:19:51Z</time><name>PT9509</name></trkpt>
<trkpt lat="52.711411" lon="06.008502"><ele>-2.4</ele><time>2022-09-06T15:19:52Z</time><name>PT9510</name></trkpt>
<trkpt lat="52.711401" lon="06.008507"><ele>-2.5</ele><time>2022-09-06T15:19:53Z</time><name>PT9511</name></trkpt>
<trkpt lat="52.711390" lon="06.008513"><ele>-2.6</ele><time>2022-09-06T15:19:54Z</time><name>PT9512</name></trkpt>
<trkpt lat="52.711379" lon="06.008519"><ele>-2.8</ele><time>2022-09-06T15:19:55Z</time><name>PT9513</name></trkpt>
<trkpt lat="52.711369" lon="06.008525"><ele>-2.6</ele><time>2022-09-06T15:19:56Z</time><name>PT9514</name></trkpt>
<trkpt lat="52.711361" lon="06.008532"><ele>-2.6</ele><time>2022-09-06T15:19:57Z</time><name>PT9515</name></trkpt>
<trkpt lat="52.711351" lon="06.008539"><ele>-2.6</ele><time>2022-09-06T15:19:58Z</time><name>PT9516</name></trkpt>
<trkpt lat="52.711341" lon="06.008548"><ele>-2.5</ele><time>2022-09-06T15:19:59Z</time><name>PT9517</name></trkpt>
<trkpt lat="52.711331" lon="06.008556"><ele>-2.6</ele><time>2022-09-06T15:20:00Z</time><name>PT9518</name></trkpt>
<trkpt lat="52.711321" lon="06.008564"><ele>-2.6</ele><time>2022-09-06T15:20:01Z</time><name>PT9519</name></trkpt>
<trkpt lat="52.711310" lon="06.008569"><ele>-2.5</ele><time>2022-09-06T15:20:02Z</time><name>PT9520</name></trkpt>
<trkpt lat="52.711300" lon="06.008572"><ele>-2.5</ele><time>2022-09-06T15:20:03Z</time><name>PT9521</name></trkpt>
<trkpt lat="52.711289" lon="06.008577"><ele>-2.5</ele><time>2022-09-06T15:20:04Z</time><name>PT9522</name></trkpt>
<trkpt lat="52.711277" lon="06.008581"><ele>-2.6</ele><time>2022-09-06T15:20:05Z</time><name>PT9523</name></trkpt>
<trkpt lat="52.711266" lon="06.008587"><ele>-2.6</ele><time>2022-09-06T15:20:06Z</time><name>PT9524</name></trkpt>
<trkpt lat="52.711257" lon="06.008594"><ele>-2.6</ele><time>2022-09-06T15:20:07Z</time><name>PT9525</name></trkpt>
<trkpt lat="52.711247" lon="06.008603"><ele>-2.6</ele><time>2022-09-06T15:20:08Z</time><name>PT9526</name></trkpt>
<trkpt lat="52.711236" lon="06.008612"><ele>-2.7</ele><time>2022-09-06T15:20:09Z</time><name>PT9527</name></trkpt>
<trkpt lat="52.711224" lon="06.008622"><ele>-2.6</ele><time>2022-09-06T15:20:10Z</time><name>PT9528</name></trkpt>
<trkpt lat="52.711214" lon="06.008631"><ele>-2.6</ele><time>2022-09-06T15:20:11Z</time><name>PT9529</name></trkpt>
<trkpt lat="52.711203" lon="06.008639"><ele>-2.5</ele><time>2022-09-06T15:20:12Z</time><name>PT9530</name></trkpt>
<trkpt lat="52.711194" lon="06.008645"><ele>-2.6</ele><time>2022-09-06T15:20:13Z</time><name>PT9531</name></trkpt>
<trkpt lat="52.711182" lon="06.008650"><ele>-2.5</ele><time>2022-09-06T15:20:14Z</time><name>PT9532</name></trkpt>
<trkpt lat="52.711171" lon="06.008654"><ele>-2.5</ele><time>2022-09-06T15:20:15Z</time><name>PT9533</name></trkpt>
<trkpt lat="52.711159" lon="06.008660"><ele>-2.6</ele><time>2022-09-06T15:20:16Z</time><name>PT9534</name></trkpt>
<trkpt lat="52.711149" lon="06.008667"><ele>-2.5</ele><time>2022-09-06T15:20:17Z</time><name>PT9535</name></trkpt>
<trkpt lat="52.711139" lon="06.008673"><ele>-2.5</ele><time>2022-09-06T15:20:18Z</time><name>PT9536</name></trkpt>
<trkpt lat="52.711129" lon="06.008680"><ele>-2.5</ele><time>2022-09-06T15:20:19Z</time><name>PT9537</name></trkpt>
<trkpt lat="52.711117" lon="06.008688"><ele>-2.6</ele><time>2022-09-06T15:20:20Z</time><name>PT9538</name></trkpt>
<trkpt lat="52.711106" lon="06.008696"><ele>-2.7</ele><time>2022-09-06T15:20:21Z</time><name>PT9539</name></trkpt>
<trkpt lat="52.711097" lon="06.008704"><ele>-2.7</ele><time>2022-09-06T15:20:22Z</time><name>PT9540</name></trkpt>
<trkpt lat="52.711088" lon="06.008708"><ele>-2.6</ele><time>2022-09-06T15:20:23Z</time><name>PT9541</name></trkpt>
<trkpt lat="52.711077" lon="06.008713"><ele>-2.5</ele><time>2022-09-06T15:20:24Z</time><name>PT9542</name></trkpt>
<trkpt lat="52.711065" lon="06.008718"><ele>-2.5</ele><time>2022-09-06T15:20:25Z</time><name>PT9543</name></trkpt>
<trkpt lat="52.711055" lon="06.008724"><ele>-2.5</ele><time>2022-09-06T15:20:26Z</time><name>PT9544</name></trkpt>
<trkpt lat="52.711045" lon="06.008733"><ele>-2.4</ele><time>2022-09-06T15:20:27Z</time><name>PT9545</name></trkpt>
<trkpt lat="52.711036" lon="06.008740"><ele>-2.5</ele><time>2022-09-06T15:20:28Z</time><name>PT9546</name></trkpt>
<trkpt lat="52.711025" lon="06.008748"><ele>-2.5</ele><time>2022-09-06T15:20:29Z</time><name>PT9547</name></trkpt>
<trkpt lat="52.711015" lon="06.008759"><ele>-2.5</ele><time>2022-09-06T15:20:30Z</time><name>PT9548</name></trkpt>
<trkpt lat="52.711005" lon="06.008769"><ele>-2.4</ele><time>2022-09-06T15:20:31Z</time><name>PT9549</name></trkpt>
<trkpt lat="52.710993" lon="06.008777"><ele>-2.2</ele><time>2022-09-06T15:20:32Z</time><name>PT9550</name></trkpt>
<trkpt lat="52.710982" lon="06.008783"><ele>-2.1</ele><time>2022-09-06T15:20:33Z</time><name>PT9551</name></trkpt>
<trkpt lat="52.710971" lon="06.008789"><ele>-2.3</ele><time>2022-09-06T15:20:34Z</time><name>PT9552</name></trkpt>
<trkpt lat="52.710959" lon="06.008795"><ele>-2.3</ele><time>2022-09-06T15:20:35Z</time><name>PT9553</name></trkpt>
<trkpt lat="52.710949" lon="06.008800"><ele>-2.2</ele><time>2022-09-06T15:20:36Z</time><name>PT9554</name></trkpt>
<trkpt lat="52.710938" lon="06.008804"><ele>-2.5</ele><time>2022-09-06T15:20:37Z</time><name>PT9555</name></trkpt>
<trkpt lat="52.710926" lon="06.008808"><ele>-2.4</ele><time>2022-09-06T15:20:38Z</time><name>PT9556</name></trkpt>
<trkpt lat="52.710915" lon="06.008814"><ele>-2.5</ele><time>2022-09-06T15:20:39Z</time><name>PT9557</name></trkpt>
<trkpt lat="52.710905" lon="06.008821"><ele>-2.5</ele><time>2022-09-06T15:20:40Z</time><name>PT9558</name></trkpt>
<trkpt lat="52.710896" lon="06.008828"><ele>-2.3</ele><time>2022-09-06T15:20:41Z</time><name>PT9559</name></trkpt>
<trkpt lat="52.710887" lon="06.008834"><ele>-2.2</ele><time>2022-09-06T15:20:42Z</time><name>PT9560</name></trkpt>
<trkpt lat="52.710876" lon="06.008838"><ele>-2.2</ele><time>2022-09-06T15:20:43Z</time><name>PT9561</name></trkpt>
<trkpt lat="52.710866" lon="06.008844"><ele>-2.4</ele><time>2022-09-06T15:20:44Z</time><name>PT9562</name></trkpt>
<trkpt lat="52.710857" lon="06.008852"><ele>-2.4</ele><time>2022-09-06T15:20:45Z</time><name>PT9563</name></trkpt>
<trkpt lat="52.710847" lon="06.008862"><ele>-2.5</ele><time>2022-09-06T15:20:46Z</time><name>PT9564</name></trkpt>
<trkpt lat="52.710837" lon="06.008871"><ele>-2.4</ele><time>2022-09-06T15:20:47Z</time><name>PT9565</name></trkpt>
<trkpt lat="52.710828" lon="06.008878"><ele>-2.5</ele><time>2022-09-06T15:20:48Z</time><name>PT9566</name></trkpt>
<trkpt lat="52.710818" lon="06.008883"><ele>-2.5</ele><time>2022-09-06T15:20:49Z</time><name>PT9567</name></trkpt>
<trkpt lat="52.710807" lon="06.008888"><ele>-2.6</ele><time>2022-09-06T15:20:50Z</time><name>PT9568</name></trkpt>
<trkpt lat="52.710796" lon="06.008894"><ele>-2.5</ele><time>2022-09-06T15:20:51Z</time><name>PT9569</name></trkpt>
<trkpt lat="52.710786" lon="06.008899"><ele>-2.6</ele><time>2022-09-06T15:20:52Z</time><name>PT9570</name></trkpt>
<trkpt lat="52.710777" lon="06.008908"><ele>-2.5</ele><time>2022-09-06T15:20:53Z</time><name>PT9571</name></trkpt>
<trkpt lat="52.710767" lon="06.008918"><ele>-2.5</ele><time>2022-09-06T15:20:54Z</time><name>PT9572</name></trkpt>
<trkpt lat="52.710757" lon="06.008926"><ele>-2.5</ele><time>2022-09-06T15:20:55Z</time><name>PT9573</name></trkpt>
<trkpt lat="52.710748" lon="06.008933"><ele>-2.5</ele><time>2022-09-06T15:20:56Z</time><name>PT9574</name></trkpt>
<trkpt lat="52.710739" lon="06.008938"><ele>-2.5</ele><time>2022-09-06T15:20:57Z</time><name>PT9575</name></trkpt>
<trkpt lat="52.710729" lon="06.008942"><ele>-2.5</ele><time>2022-09-06T15:20:58Z</time><name>PT9576</name></trkpt>
<trkpt lat="52.710719" lon="06.008946"><ele>-2.5</ele><time>2022-09-06T15:20:59Z</time><name>PT9577</name></trkpt>
<trkpt lat="52.710710" lon="06.008951"><ele>-2.6</ele><time>2022-09-06T15:21:00Z</time><name>PT9578</name></trkpt>
<trkpt lat="52.710700" lon="06.008959"><ele>-2.5</ele><time>2022-09-06T15:21:01Z</time><name>PT9579</name></trkpt>
<trkpt lat="52.710689" lon="06.008967"><ele>-2.5</ele><time>2022-09-06T15:21:02Z</time><name>PT9580</name></trkpt>
<trkpt lat="52.710678" lon="06.008975"><ele>-2.5</ele><time>2022-09-06T15:21:03Z</time><name>PT9581</name></trkpt>
<trkpt lat="52.710668" lon="06.008982"><ele>-2.5</ele><time>2022-09-06T15:21:04Z</time><name>PT9582</name></trkpt>
<trkpt lat="52.710659" lon="06.008988"><ele>-2.5</ele><time>2022-09-06T15:21:05Z</time><name>PT9583</name></trkpt>
<trkpt lat="52.710649" lon="06.008992"><ele>-2.5</ele><time>2022-09-06T15:21:06Z</time><name>PT9584</name></trkpt>
<trkpt lat="52.710639" lon="06.008999"><ele>-2.4</ele><time>2022-09-06T15:21:07Z</time><name>PT9585</name></trkpt>
<trkpt lat="52.710628" lon="06.009006"><ele>-2.4</ele><time>2022-09-06T15:21:08Z</time><name>PT9586</name></trkpt>
<trkpt lat="52.710618" lon="06.009012"><ele>-2.5</ele><time>2022-09-06T15:21:09Z</time><name>PT9587</name></trkpt>
<trkpt lat="52.710606" lon="06.009020"><ele>-2.5</ele><time>2022-09-06T15:21:10Z</time><name>PT9588</name></trkpt>
<trkpt lat="52.710596" lon="06.009027"><ele>-2.4</ele><time>2022-09-06T15:21:11Z</time><name>PT9589</name></trkpt>
<trkpt lat="52.710586" lon="06.009035"><ele>-2.5</ele><time>2022-09-06T15:21:12Z</time><name>PT9590</name></trkpt>
<trkpt lat="52.710576" lon="06.009042"><ele>-2.5</ele><time>2022-09-06T15:21:13Z</time><name>PT9591</name></trkpt>
<trkpt lat="52.710567" lon="06.009049"><ele>-2.5</ele><time>2022-09-06T15:21:14Z</time><name>PT9592</name></trkpt>
<trkpt lat="52.710557" lon="06.009055"><ele>-2.5</ele><time>2022-09-06T15:21:15Z</time><name>PT9593</name></trkpt>
<trkpt lat="52.710547" lon="06.009060"><ele>-2.6</ele><time>2022-09-06T15:21:16Z</time><name>PT9594</name></trkpt>
<trkpt lat="52.710535" lon="06.009065"><ele>-2.5</ele><time>2022-09-06T15:21:17Z</time><name>PT9595</name></trkpt>
<trkpt lat="52.710524" lon="06.009071"><ele>-2.5</ele><time>2022-09-06T15:21:18Z</time><name>PT9596</name></trkpt>
<trkpt lat="52.710513" lon="06.009078"><ele>-2.4</ele><time>2022-09-06T15:21:19Z</time><name>PT9597</name></trkpt>
<trkpt lat="52.710504" lon="06.009085"><ele>-2.5</ele><time>2022-09-06T15:21:20Z</time><name>PT9598</name></trkpt>
<trkpt lat="52.710493" lon="06.009093"><ele>-2.5</ele><time>2022-09-06T15:21:21Z</time><name>PT9599</name></trkpt>
<trkpt lat="52.710482" lon="06.009099"><ele>-2.5</ele><time>2022-09-06T15:21:22Z</time><name>PT9600</name></trkpt>
<trkpt lat="52.710472" lon="06.009106"><ele>-2.4</ele><time>2022-09-06T15:21:23Z</time><name>PT9601</name></trkpt>
<trkpt lat="52.710463" lon="06.009113"><ele>-2.5</ele><time>2022-09-06T15:21:24Z</time><name>PT9602</name></trkpt>
<trkpt lat="52.710455" lon="06.009118"><ele>-2.4</ele><time>2022-09-06T15:21:25Z</time><name>PT9603</name></trkpt>
<trkpt lat="52.710445" lon="06.009123"><ele>-2.5</ele><time>2022-09-06T15:21:26Z</time><name>PT9604</name></trkpt>
<trkpt lat="52.710436" lon="06.009128"><ele>-2.4</ele><time>2022-09-06T15:21:27Z</time><name>PT9605</name></trkpt>
<trkpt lat="52.710425" lon="06.009134"><ele>-2.4</ele><time>2022-09-06T15:21:28Z</time><name>PT9606</name></trkpt>
<trkpt lat="52.710416" lon="06.009141"><ele>-2.4</ele><time>2022-09-06T15:21:29Z</time><name>PT9607</name></trkpt>
<trkpt lat="52.710407" lon="06.009148"><ele>-2.4</ele><time>2022-09-06T15:21:30Z</time><name>PT9608</name></trkpt>
<trkpt lat="52.710396" lon="06.009149"><ele>-2.4</ele><time>2022-09-06T15:21:31Z</time><name>PT9609</name></trkpt>
<trkpt lat="52.710385" lon="06.009155"><ele>-2.2</ele><time>2022-09-06T15:21:32Z</time><name>PT9610</name></trkpt>
<trkpt lat="52.710374" lon="06.009161"><ele>-2.3</ele><time>2022-09-06T15:21:33Z</time><name>PT9611</name></trkpt>
<trkpt lat="52.710364" lon="06.009163"><ele>-2.3</ele><time>2022-09-06T15:21:34Z</time><name>PT9612</name></trkpt>
<trkpt lat="52.710352" lon="06.009166"><ele>-2.2</ele><time>2022-09-06T15:21:35Z</time><name>PT9613</name></trkpt>
<trkpt lat="52.710341" lon="06.009170"><ele>-2.2</ele><time>2022-09-06T15:21:36Z</time><name>PT9614</name></trkpt>
<trkpt lat="52.710329" lon="06.009175"><ele>-2.3</ele><time>2022-09-06T15:21:37Z</time><name>PT9615</name></trkpt>
<trkpt lat="52.710317" lon="06.009180"><ele>-2.3</ele><time>2022-09-06T15:21:38Z</time><name>PT9616</name></trkpt>
<trkpt lat="52.710308" lon="06.009185"><ele>-2.5</ele><time>2022-09-06T15:21:39Z</time><name>PT9617</name></trkpt>
<trkpt lat="52.710298" lon="06.009192"><ele>-2.3</ele><time>2022-09-06T15:21:40Z</time><name>PT9618</name></trkpt>
<trkpt lat="52.710288" lon="06.009201"><ele>-2.4</ele><time>2022-09-06T15:21:41Z</time><name>PT9619</name></trkpt>
<trkpt lat="52.710278" lon="06.009209"><ele>-2.4</ele><time>2022-09-06T15:21:42Z</time><name>PT9620</name></trkpt>
<trkpt lat="52.710268" lon="06.009216"><ele>-2.3</ele><time>2022-09-06T15:21:43Z</time><name>PT9621</name></trkpt>
<trkpt lat="52.710259" lon="06.009222"><ele>-2.5</ele><time>2022-09-06T15:21:44Z</time><name>PT9622</name></trkpt>
<trkpt lat="52.710249" lon="06.009226"><ele>-2.6</ele><time>2022-09-06T15:21:45Z</time><name>PT9623</name></trkpt>
<trkpt lat="52.710238" lon="06.009230"><ele>-2.6</ele><time>2022-09-06T15:21:46Z</time><name>PT9624</name></trkpt>
<trkpt lat="52.710227" lon="06.009233"><ele>-2.5</ele><time>2022-09-06T15:21:47Z</time><name>PT9625</name></trkpt>
<trkpt lat="52.710217" lon="06.009236"><ele>-2.6</ele><time>2022-09-06T15:21:48Z</time><name>PT9626</name></trkpt>
<trkpt lat="52.710207" lon="06.009240"><ele>-2.6</ele><time>2022-09-06T15:21:49Z</time><name>PT9627</name></trkpt>
<trkpt lat="52.710197" lon="06.009248"><ele>-2.5</ele><time>2022-09-06T15:21:50Z</time><name>PT9628</name></trkpt>
<trkpt lat="52.710185" lon="06.009257"><ele>-2.5</ele><time>2022-09-06T15:21:51Z</time><name>PT9629</name></trkpt>
<trkpt lat="52.710174" lon="06.009264"><ele>-2.5</ele><time>2022-09-06T15:21:52Z</time><name>PT9630</name></trkpt>
<trkpt lat="52.710164" lon="06.009271"><ele>-2.4</ele><time>2022-09-06T15:21:53Z</time><name>PT9631</name></trkpt>
<trkpt lat="52.710153" lon="06.009274"><ele>-2.3</ele><time>2022-09-06T15:21:54Z</time><name>PT9632</name></trkpt>
<trkpt lat="52.710143" lon="06.009274"><ele>-2.5</ele><time>2022-09-06T15:21:55Z</time><name>PT9633</name></trkpt>
<trkpt lat="52.710132" lon="06.009273"><ele>-2.5</ele><time>2022-09-06T15:21:56Z</time><name>PT9634</name></trkpt>
<trkpt lat="52.710122" lon="06.009272"><ele>-2.7</ele><time>2022-09-06T15:21:57Z</time><name>PT9635</name></trkpt>
<trkpt lat="52.710111" lon="06.009272"><ele>-2.7</ele><time>2022-09-06T15:21:58Z</time><name>PT9636</name></trkpt>
<trkpt lat="52.710101" lon="06.009271"><ele>-2.5</ele><time>2022-09-06T15:21:59Z</time><name>PT9637</name></trkpt>
<trkpt lat="52.710091" lon="06.009267"><ele>-2.4</ele><time>2022-09-06T15:22:00Z</time><name>PT9638</name></trkpt>
<trkpt lat="52.710080" lon="06.009266"><ele>-2.3</ele><time>2022-09-06T15:22:01Z</time><name>PT9639</name></trkpt>
<trkpt lat="52.710070" lon="06.009264"><ele>-2.3</ele><time>2022-09-06T15:22:02Z</time><name>PT9640</name></trkpt>
<trkpt lat="52.710060" lon="06.009263"><ele>-2.3</ele><time>2022-09-06T15:22:03Z</time><name>PT9641</name></trkpt>
<trkpt lat="52.710050" lon="06.009260"><ele>-2.3</ele><time>2022-09-06T15:22:04Z</time><name>PT9642</name></trkpt>
<trkpt lat="52.710040" lon="06.009253"><ele>-2.1</ele><time>2022-09-06T15:22:05Z</time><name>PT9643</name></trkpt>
<trkpt lat="52.710031" lon="06.009242"><ele>-2.2</ele><time>2022-09-06T15:22:06Z</time><name>PT9644</name></trkpt>
<trkpt lat="52.710020" lon="06.009236"><ele>-2.2</ele><time>2022-09-06T15:22:07Z</time><name>PT9645</name></trkpt>
<trkpt lat="52.710011" lon="06.009230"><ele>-2.3</ele><time>2022-09-06T15:22:08Z</time><name>PT9646</name></trkpt>
<trkpt lat="52.710002" lon="06.009221"><ele>-2.3</ele><time>2022-09-06T15:22:09Z</time><name>PT9647</name></trkpt>
<trkpt lat="52.709992" lon="06.009212"><ele>-2.4</ele><time>2022-09-06T15:22:10Z</time><name>PT9648</name></trkpt>
<trkpt lat="52.709980" lon="06.009203"><ele>-2.3</ele><time>2022-09-06T15:22:11Z</time><name>PT9649</name></trkpt>
<trkpt lat="52.709971" lon="06.009195"><ele>-2.2</ele><time>2022-09-06T15:22:12Z</time><name>PT9650</name></trkpt>
<trkpt lat="52.709963" lon="06.009187"><ele>-2.1</ele><time>2022-09-06T15:22:13Z</time><name>PT9651</name></trkpt>
<trkpt lat="52.709954" lon="06.009174"><ele>-1.9</ele><time>2022-09-06T15:22:14Z</time><name>PT9652</name></trkpt>
<trkpt lat="52.709947" lon="06.009158"><ele>-1.9</ele><time>2022-09-06T15:22:15Z</time><name>PT9653</name></trkpt>
<trkpt lat="52.709939" lon="06.009142"><ele>-1.8</ele><time>2022-09-06T15:22:16Z</time><name>PT9654</name></trkpt>
<trkpt lat="52.709931" lon="06.009130"><ele>-2</ele><time>2022-09-06T15:22:17Z</time><name>PT9655</name></trkpt>
<trkpt lat="52.709925" lon="06.009117"><ele>-2</ele><time>2022-09-06T15:22:18Z</time><name>PT9656</name></trkpt>
<trkpt lat="52.709918" lon="06.009106"><ele>-2.1</ele><time>2022-09-06T15:22:19Z</time><name>PT9657</name></trkpt>
<trkpt lat="52.709912" lon="06.009095"><ele>-2.3</ele><time>2022-09-06T15:22:20Z</time><name>PT9658</name></trkpt>
<trkpt lat="52.709906" lon="06.009082"><ele>-2.5</ele><time>2022-09-06T15:22:21Z</time><name>PT9659</name></trkpt>
<trkpt lat="52.709900" lon="06.009069"><ele>-2.4</ele><time>2022-09-06T15:22:22Z</time><name>PT9660</name></trkpt>
<trkpt lat="52.709895" lon="06.009054"><ele>-2.5</ele><time>2022-09-06T15:22:23Z</time><name>PT9661</name></trkpt>
<trkpt lat="52.709892" lon="06.009037"><ele>-2.5</ele><time>2022-09-06T15:22:24Z</time><name>PT9662</name></trkpt>
<trkpt lat="52.709888" lon="06.009022"><ele>-2.4</ele><time>2022-09-06T15:22:25Z</time><name>PT9663</name></trkpt>
<trkpt lat="52.709884" lon="06.009008"><ele>-2.4</ele><time>2022-09-06T15:22:26Z</time><name>PT9664</name></trkpt>
<trkpt lat="52.709879" lon="06.008994"><ele>-2.3</ele><time>2022-09-06T15:22:27Z</time><name>PT9665</name></trkpt>
<trkpt lat="52.709874" lon="06.008980"><ele>-2.2</ele><time>2022-09-06T15:22:28Z</time><name>PT9666</name></trkpt>
<trkpt lat="52.709870" lon="06.008966"><ele>-2</ele><time>2022-09-06T15:22:29Z</time><name>PT9667</name></trkpt>
<trkpt lat="52.709868" lon="06.008952"><ele>-2.1</ele><time>2022-09-06T15:22:30Z</time><name>PT9668</name></trkpt>
<trkpt lat="52.709865" lon="06.008935"><ele>-2</ele><time>2022-09-06T15:22:31Z</time><name>PT9669</name></trkpt>
<trkpt lat="52.709863" lon="06.008919"><ele>-2.1</ele><time>2022-09-06T15:22:32Z</time><name>PT9670</name></trkpt>
<trkpt lat="52.709859" lon="06.008902"><ele>-2.2</ele><time>2022-09-06T15:22:33Z</time><name>PT9671</name></trkpt>
<trkpt lat="52.709857" lon="06.008888"><ele>-2.2</ele><time>2022-09-06T15:22:34Z</time><name>PT9672</name></trkpt>
<trkpt lat="52.709854" lon="06.008878"><ele>-2.2</ele><time>2022-09-06T15:22:35Z</time><name>PT9673</name></trkpt>
<trkpt lat="52.709853" lon="06.008870"><ele>-2.3</ele><time>2022-09-06T15:22:36Z</time><name>PT9674</name></trkpt>
<trkpt lat="52.709853" lon="06.008868"><ele>-2.3</ele><time>2022-09-06T15:22:37Z</time><name>PT9675</name></trkpt>
<trkpt lat="52.709853" lon="06.008867"><ele>-2.3</ele><time>2022-09-06T15:22:38Z</time><name>PT9676</name></trkpt>
<trkpt lat="52.709853" lon="06.008867"><ele>-2.3</ele><time>2022-09-06T15:22:39Z</time><name>PT9677</name></trkpt>
<trkpt lat="52.709851" lon="06.008862"><ele>-2.4</ele><time>2022-09-06T15:22:49Z</time><name>PT9678</name></trkpt>
<trkpt lat="52.709850" lon="06.008845"><ele>-2.5</ele><time>2022-09-06T15:22:50Z</time><name>PT9679</name></trkpt>
<trkpt lat="52.709846" lon="06.008830"><ele>-2.5</ele><time>2022-09-06T15:22:51Z</time><name>PT9680</name></trkpt>
<trkpt lat="52.709842" lon="06.008816"><ele>-2.7</ele><time>2022-09-06T15:22:52Z</time><name>PT9681</name></trkpt>
<trkpt lat="52.709839" lon="06.008802"><ele>-2.5</ele><time>2022-09-06T15:22:53Z</time><name>PT9682</name></trkpt>
<trkpt lat="52.709837" lon="06.008786"><ele>-2.4</ele><time>2022-09-06T15:22:54Z</time><name>PT9683</name></trkpt>
<trkpt lat="52.709835" lon="06.008769"><ele>-2.2</ele><time>2022-09-06T15:22:55Z</time><name>PT9684</name></trkpt>
<trkpt lat="52.709833" lon="06.008752"><ele>-2</ele><time>2022-09-06T15:22:56Z</time><name>PT9685</name></trkpt>
<trkpt lat="52.709829" lon="06.008736"><ele>-2</ele><time>2022-09-06T15:22:57Z</time><name>PT9686</name></trkpt>
<trkpt lat="52.709826" lon="06.008721"><ele>-2.2</ele><time>2022-09-06T15:22:58Z</time><name>PT9687</name></trkpt>
<trkpt lat="52.709821" lon="06.008707"><ele>-2.2</ele><time>2022-09-06T15:22:59Z</time><name>PT9688</name></trkpt>
<trkpt lat="52.709817" lon="06.008693"><ele>-2.3</ele><time>2022-09-06T15:23:00Z</time><name>PT9689</name></trkpt>
<trkpt lat="52.709814" lon="06.008679"><ele>-2.5</ele><time>2022-09-06T15:23:01Z</time><name>PT9690</name></trkpt>
<trkpt lat="52.709810" lon="06.008662"><ele>-3.3</ele><time>2022-09-06T15:23:02Z</time><name>PT9691</name></trkpt>
<trkpt lat="52.709807" lon="06.008645"><ele>-3.8</ele><time>2022-09-06T15:23:03Z</time><name>PT9692</name></trkpt>
<trkpt lat="52.709805" lon="06.008630"><ele>-4.4</ele><time>2022-09-06T15:23:04Z</time><name>PT9693</name></trkpt>
<trkpt lat="52.709802" lon="06.008615"><ele>-5.6</ele><time>2022-09-06T15:23:05Z</time><name>PT9694</name></trkpt>
<trkpt lat="52.709798" lon="06.008601"><ele>-5.3</ele><time>2022-09-06T15:23:06Z</time><name>PT9695</name></trkpt>
<trkpt lat="52.709794" lon="06.008588"><ele>-4.5</ele><time>2022-09-06T15:23:07Z</time><name>PT9696</name></trkpt>
<trkpt lat="52.709792" lon="06.008573"><ele>-3.4</ele><time>2022-09-06T15:23:08Z</time><name>PT9697</name></trkpt>
<trkpt lat="52.709789" lon="06.008558"><ele>-2.9</ele><time>2022-09-06T15:23:09Z</time><name>PT9698</name></trkpt>
<trkpt lat="52.709786" lon="06.008544"><ele>-2.2</ele><time>2022-09-06T15:23:10Z</time><name>PT9699</name></trkpt>
<trkpt lat="52.709784" lon="06.008530"><ele>-2.2</ele><time>2022-09-06T15:23:11Z</time><name>PT9700</name></trkpt>
<trkpt lat="52.709779" lon="06.008514"><ele>-2.2</ele><time>2022-09-06T15:23:12Z</time><name>PT9701</name></trkpt>
<trkpt lat="52.709775" lon="06.008497"><ele>-2.3</ele><time>2022-09-06T15:23:13Z</time><name>PT9702</name></trkpt>
<trkpt lat="52.709772" lon="06.008483"><ele>-2.2</ele><time>2022-09-06T15:23:14Z</time><name>PT9703</name></trkpt>
<trkpt lat="52.709768" lon="06.008468"><ele>-2.1</ele><time>2022-09-06T15:23:15Z</time><name>PT9704</name></trkpt>
<trkpt lat="52.709764" lon="06.008449"><ele>-2.1</ele><time>2022-09-06T15:23:16Z</time><name>PT9705</name></trkpt>
<trkpt lat="52.709761" lon="06.008429"><ele>-2</ele><time>2022-09-06T15:23:17Z</time><name>PT9706</name></trkpt>
<trkpt lat="52.709757" lon="06.008410"><ele>-1.9</ele><time>2022-09-06T15:23:18Z</time><name>PT9707</name></trkpt>
<trkpt lat="52.709753" lon="06.008391"><ele>-1.9</ele><time>2022-09-06T15:23:19Z</time><name>PT9708</name></trkpt>
<trkpt lat="52.709749" lon="06.008373"><ele>-2</ele><time>2022-09-06T15:23:20Z</time><name>PT9709</name></trkpt>
<trkpt lat="52.709743" lon="06.008357"><ele>-1.9</ele><time>2022-09-06T15:23:21Z</time><name>PT9710</name></trkpt>
<trkpt lat="52.709740" lon="06.008342"><ele>-1.9</ele><time>2022-09-06T15:23:22Z</time><name>PT9711</name></trkpt>
<trkpt lat="52.709735" lon="06.008325"><ele>-2</ele><time>2022-09-06T15:23:23Z</time><name>PT9712</name></trkpt>
<trkpt lat="52.709730" lon="06.008309"><ele>-2</ele><time>2022-09-06T15:23:24Z</time><name>PT9713</name></trkpt>
<trkpt lat="52.709726" lon="06.008292"><ele>-2</ele><time>2022-09-06T15:23:25Z</time><name>PT9714</name></trkpt>
<trkpt lat="52.709721" lon="06.008276"><ele>-2</ele><time>2022-09-06T15:23:26Z</time><name>PT9715</name></trkpt>
<trkpt lat="52.709719" lon="06.008258"><ele>-2</ele><time>2022-09-06T15:23:27Z</time><name>PT9716</name></trkpt>
<trkpt lat="52.709716" lon="06.008240"><ele>-2</ele><time>2022-09-06T15:23:28Z</time><name>PT9717</name></trkpt>
<trkpt lat="52.709712" lon="06.008223"><ele>-2</ele><time>2022-09-06T15:23:29Z</time><name>PT9718</name></trkpt>
<trkpt lat="52.709710" lon="06.008207"><ele>-1.9</ele><time>2022-09-06T15:23:30Z</time><name>PT9719</name></trkpt>
<trkpt lat="52.709708" lon="06.008190"><ele>-2</ele><time>2022-09-06T15:23:31Z</time><name>PT9720</name></trkpt>
<trkpt lat="52.709705" lon="06.008175"><ele>-2.1</ele><time>2022-09-06T15:23:32Z</time><name>PT9721</name></trkpt>
<trkpt lat="52.709702" lon="06.008159"><ele>-2</ele><time>2022-09-06T15:23:33Z</time><name>PT9722</name></trkpt>
<trkpt lat="52.709699" lon="06.008144"><ele>-2</ele><time>2022-09-06T15:23:34Z</time><name>PT9723</name></trkpt>
<trkpt lat="52.709696" lon="06.008128"><ele>-2</ele><time>2022-09-06T15:23:35Z</time><name>PT9724</name></trkpt>
<trkpt lat="52.709693" lon="06.008110"><ele>-2</ele><time>2022-09-06T15:23:36Z</time><name>PT9725</name></trkpt>
<trkpt lat="52.709689" lon="06.008093"><ele>-2</ele><time>2022-09-06T15:23:37Z</time><name>PT9726</name></trkpt>
<trkpt lat="52.709687" lon="06.008077"><ele>-2</ele><time>2022-09-06T15:23:38Z</time><name>PT9727</name></trkpt>
<trkpt lat="52.709684" lon="06.008059"><ele>-2</ele><time>2022-09-06T15:23:39Z</time><name>PT9728</name></trkpt>
<trkpt lat="52.709682" lon="06.008043"><ele>-2</ele><time>2022-09-06T15:23:40Z</time><name>PT9729</name></trkpt>
<trkpt lat="52.709679" lon="06.008027"><ele>-2.1</ele><time>2022-09-06T15:23:41Z</time><name>PT9730</name></trkpt>
<trkpt lat="52.709677" lon="06.008013"><ele>-2.2</ele><time>2022-09-06T15:23:42Z</time><name>PT9731</name></trkpt>
<trkpt lat="52.709674" lon="06.007998"><ele>-2.1</ele><time>2022-09-06T15:23:43Z</time><name>PT9732</name></trkpt>
<trkpt lat="52.709670" lon="06.007985"><ele>-2</ele><time>2022-09-06T15:23:44Z</time><name>PT9733</name></trkpt>
<trkpt lat="52.709666" lon="06.007968"><ele>-2</ele><time>2022-09-06T15:23:45Z</time><name>PT9734</name></trkpt>
<trkpt lat="52.709664" lon="06.007949"><ele>-1.8</ele><time>2022-09-06T15:23:46Z</time><name>PT9735</name></trkpt>
<trkpt lat="52.709661" lon="06.007930"><ele>-1.9</ele><time>2022-09-06T15:23:47Z</time><name>PT9736</name></trkpt>
<trkpt lat="52.709658" lon="06.007912"><ele>-2</ele><time>2022-09-06T15:23:48Z</time><name>PT9737</name></trkpt>
<trkpt lat="52.709655" lon="06.007895"><ele>-1.9</ele><time>2022-09-06T15:23:49Z</time><name>PT9738</name></trkpt>
<trkpt lat="52.709651" lon="06.007880"><ele>-2</ele><time>2022-09-06T15:23:50Z</time><name>PT9739</name></trkpt>
<trkpt lat="52.709648" lon="06.007864"><ele>-2</ele><time>2022-09-06T15:23:51Z</time><name>PT9740</name></trkpt>
<trkpt lat="52.709644" lon="06.007847"><ele>-2</ele><time>2022-09-06T15:23:52Z</time><name>PT9741</name></trkpt>
<trkpt lat="52.709640" lon="06.007830"><ele>-2.2</ele><time>2022-09-06T15:23:53Z</time><name>PT9742</name></trkpt>
<trkpt lat="52.709636" lon="06.007810"><ele>-2.2</ele><time>2022-09-06T15:23:54Z</time><name>PT9743</name></trkpt>
<trkpt lat="52.709632" lon="06.007791"><ele>-2.2</ele><time>2022-09-06T15:23:55Z</time><name>PT9744</name></trkpt>
<trkpt lat="52.709629" lon="06.007772"><ele>-2.2</ele><time>2022-09-06T15:23:56Z</time><name>PT9745</name></trkpt>
<trkpt lat="52.709626" lon="06.007754"><ele>-2.1</ele><time>2022-09-06T15:23:57Z</time><name>PT9746</name></trkpt>
<trkpt lat="52.709623" lon="06.007737"><ele>-2.1</ele><time>2022-09-06T15:23:58Z</time><name>PT9747</name></trkpt>
<trkpt lat="52.709619" lon="06.007721"><ele>-2</ele><time>2022-09-06T15:23:59Z</time><name>PT9748</name></trkpt>
<trkpt lat="52.709614" lon="06.007706"><ele>-2</ele><time>2022-09-06T15:24:00Z</time><name>PT9749</name></trkpt>
<trkpt lat="52.709611" lon="06.007691"><ele>-2.2</ele><time>2022-09-06T15:24:01Z</time><name>PT9750</name></trkpt>
<trkpt lat="52.709607" lon="06.007675"><ele>-2.2</ele><time>2022-09-06T15:24:02Z</time><name>PT9751</name></trkpt>
<trkpt lat="52.709603" lon="06.007658"><ele>-2.1</ele><time>2022-09-06T15:24:03Z</time><name>PT9752</name></trkpt>
<trkpt lat="52.709598" lon="06.007638"><ele>-2.2</ele><time>2022-09-06T15:24:04Z</time><name>PT9753</name></trkpt>
<trkpt lat="52.709592" lon="06.007618"><ele>-2.2</ele><time>2022-09-06T15:24:05Z</time><name>PT9754</name></trkpt>
<trkpt lat="52.709589" lon="06.007598"><ele>-2</ele><time>2022-09-06T15:24:06Z</time><name>PT9755</name></trkpt>
<trkpt lat="52.709586" lon="06.007578"><ele>-2</ele><time>2022-09-06T15:24:07Z</time><name>PT9756</name></trkpt>
<trkpt lat="52.709583" lon="06.007557"><ele>-2.1</ele><time>2022-09-06T15:24:08Z</time><name>PT9757</name></trkpt>
<trkpt lat="52.709581" lon="06.007539"><ele>-2.1</ele><time>2022-09-06T15:24:09Z</time><name>PT9758</name></trkpt>
<trkpt lat="52.709578" lon="06.007522"><ele>-2</ele><time>2022-09-06T15:24:10Z</time><name>PT9759</name></trkpt>
<trkpt lat="52.709574" lon="06.007508"><ele>-2</ele><time>2022-09-06T15:24:11Z</time><name>PT9760</name></trkpt>
<trkpt lat="52.709570" lon="06.007490"><ele>-2</ele><time>2022-09-06T15:24:12Z</time><name>PT9761</name></trkpt>
<trkpt lat="52.709566" lon="06.007474"><ele>-2</ele><time>2022-09-06T15:24:13Z</time><name>PT9762</name></trkpt>
<trkpt lat="52.709563" lon="06.007457"><ele>-2</ele><time>2022-09-06T15:24:14Z</time><name>PT9763</name></trkpt>
<trkpt lat="52.709559" lon="06.007441"><ele>-1.7</ele><time>2022-09-06T15:24:15Z</time><name>PT9764</name></trkpt>
<trkpt lat="52.709555" lon="06.007424"><ele>-1.8</ele><time>2022-09-06T15:24:16Z</time><name>PT9765</name></trkpt>
<trkpt lat="52.709550" lon="06.007404"><ele>-1.7</ele><time>2022-09-06T15:24:17Z</time><name>PT9766</name></trkpt>
<trkpt lat="52.709546" lon="06.007384"><ele>-1.6</ele><time>2022-09-06T15:24:18Z</time><name>PT9767</name></trkpt>
<trkpt lat="52.709542" lon="06.007364"><ele>-1.6</ele><time>2022-09-06T15:24:19Z</time><name>PT9768</name></trkpt>
<trkpt lat="52.709538" lon="06.007345"><ele>-1.7</ele><time>2022-09-06T15:24:20Z</time><name>PT9769</name></trkpt>
<trkpt lat="52.709536" lon="06.007328"><ele>-1.6</ele><time>2022-09-06T15:24:21Z</time><name>PT9770</name></trkpt>
<trkpt lat="52.709533" lon="06.007312"><ele>-1.6</ele><time>2022-09-06T15:24:22Z</time><name>PT9771</name></trkpt>
<trkpt lat="52.709532" lon="06.007293"><ele>-1.8</ele><time>2022-09-06T15:24:23Z</time><name>PT9772</name></trkpt>
<trkpt lat="52.709530" lon="06.007275"><ele>-1.9</ele><time>2022-09-06T15:24:24Z</time><name>PT9773</name></trkpt>
<trkpt lat="52.709525" lon="06.007259"><ele>-1.9</ele><time>2022-09-06T15:24:25Z</time><name>PT9774</name></trkpt>
<trkpt lat="52.709519" lon="06.007244"><ele>-2</ele><time>2022-09-06T15:24:26Z</time><name>PT9775</name></trkpt>
<trkpt lat="52.709514" lon="06.007232"><ele>-2.1</ele><time>2022-09-06T15:24:27Z</time><name>PT9776</name></trkpt>
<trkpt lat="52.709508" lon="06.007211"><ele>-2.1</ele><time>2022-09-06T15:24:28Z</time><name>PT9777</name></trkpt>
<trkpt lat="52.709505" lon="06.007199"><ele>-2.3</ele><time>2022-09-06T15:24:29Z</time><name>PT9778</name></trkpt>
<trkpt lat="52.709500" lon="06.007183"><ele>-2.4</ele><time>2022-09-06T15:24:30Z</time><name>PT9779</name></trkpt>
<trkpt lat="52.709495" lon="06.007164"><ele>-2.4</ele><time>2022-09-06T15:24:31Z</time><name>PT9780</name></trkpt>
<trkpt lat="52.709492" lon="06.007145"><ele>-2.5</ele><time>2022-09-06T15:24:32Z</time><name>PT9781</name></trkpt>
<trkpt lat="52.709488" lon="06.007127"><ele>-2.5</ele><time>2022-09-06T15:24:33Z</time><name>PT9782</name></trkpt>
<trkpt lat="52.709484" lon="06.007107"><ele>-2.4</ele><time>2022-09-06T15:24:34Z</time><name>PT9783</name></trkpt>
<trkpt lat="52.709479" lon="06.007088"><ele>-2.5</ele><time>2022-09-06T15:24:35Z</time><name>PT9784</name></trkpt>
<trkpt lat="52.709472" lon="06.007069"><ele>-2.5</ele><time>2022-09-06T15:24:36Z</time><name>PT9785</name></trkpt>
<trkpt lat="52.709466" lon="06.007049"><ele>-2.5</ele><time>2022-09-06T15:24:37Z</time><name>PT9786</name></trkpt>
<trkpt lat="52.709462" lon="06.007035"><ele>-2.5</ele><time>2022-09-06T15:24:38Z</time><name>PT9787</name></trkpt>
<trkpt lat="52.709458" lon="06.007021"><ele>-2.4</ele><time>2022-09-06T15:24:39Z</time><name>PT9788</name></trkpt>
<trkpt lat="52.709456" lon="06.007004"><ele>-2.3</ele><time>2022-09-06T15:24:40Z</time><name>PT9789</name></trkpt>
<trkpt lat="52.709453" lon="06.006987"><ele>-2.5</ele><time>2022-09-06T15:24:41Z</time><name>PT9790</name></trkpt>
<trkpt lat="52.709449" lon="06.006970"><ele>-2.5</ele><time>2022-09-06T15:24:42Z</time><name>PT9791</name></trkpt>
<trkpt lat="52.709447" lon="06.006953"><ele>-2.5</ele><time>2022-09-06T15:24:43Z</time><name>PT9792</name></trkpt>
<trkpt lat="52.709446" lon="06.006936"><ele>-2.5</ele><time>2022-09-06T15:24:44Z</time><name>PT9793</name></trkpt>
<trkpt lat="52.709444" lon="06.006918"><ele>-2.5</ele><time>2022-09-06T15:24:45Z</time><name>PT9794</name></trkpt>
<trkpt lat="52.709441" lon="06.006901"><ele>-2.4</ele><time>2022-09-06T15:24:46Z</time><name>PT9795</name></trkpt>
<trkpt lat="52.709436" lon="06.006885"><ele>-2.2</ele><time>2022-09-06T15:24:47Z</time><name>PT9796</name></trkpt>
<trkpt lat="52.709432" lon="06.006868"><ele>-2.1</ele><time>2022-09-06T15:24:48Z</time><name>PT9797</name></trkpt>
<trkpt lat="52.709427" lon="06.006851"><ele>-2.1</ele><time>2022-09-06T15:24:49Z</time><name>PT9798</name></trkpt>
<trkpt lat="52.709423" lon="06.006836"><ele>-2.2</ele><time>2022-09-06T15:24:50Z</time><name>PT9799</name></trkpt>
<trkpt lat="52.709419" lon="06.006821"><ele>-2.2</ele><time>2022-09-06T15:24:51Z</time><name>PT9800</name></trkpt>
<trkpt lat="52.709417" lon="06.006807"><ele>-2.4</ele><time>2022-09-06T15:24:52Z</time><name>PT9801</name></trkpt>
<trkpt lat="52.709415" lon="06.006792"><ele>-2.5</ele><time>2022-09-06T15:24:53Z</time><name>PT9802</name></trkpt>
<trkpt lat="52.709414" lon="06.006774"><ele>-2.6</ele><time>2022-09-06T15:24:54Z</time><name>PT9803</name></trkpt>
<trkpt lat="52.709412" lon="06.006756"><ele>-2.5</ele><time>2022-09-06T15:24:55Z</time><name>PT9804</name></trkpt>
<trkpt lat="52.709410" lon="06.006738"><ele>-2.5</ele><time>2022-09-06T15:24:56Z</time><name>PT9805</name></trkpt>
<trkpt lat="52.709407" lon="06.006720"><ele>-2.3</ele><time>2022-09-06T15:24:57Z</time><name>PT9806</name></trkpt>
<trkpt lat="52.709404" lon="06.006704"><ele>-2.1</ele><time>2022-09-06T15:24:58Z</time><name>PT9807</name></trkpt>
<trkpt lat="52.709399" lon="06.006689"><ele>-2.1</ele><time>2022-09-06T15:24:59Z</time><name>PT9808</name></trkpt>
<trkpt lat="52.709395" lon="06.006672"><ele>-2.3</ele><time>2022-09-06T15:25:00Z</time><name>PT9809</name></trkpt>
<trkpt lat="52.709390" lon="06.006655"><ele>-2.4</ele><time>2022-09-06T15:25:01Z</time><name>PT9810</name></trkpt>
<trkpt lat="52.709387" lon="06.006640"><ele>-2.5</ele><time>2022-09-06T15:25:02Z</time><name>PT9811</name></trkpt>
<trkpt lat="52.709385" lon="06.006624"><ele>-2.5</ele><time>2022-09-06T15:25:03Z</time><name>PT9812</name></trkpt>
<trkpt lat="52.709383" lon="06.006607"><ele>-2.6</ele><time>2022-09-06T15:25:04Z</time><name>PT9813</name></trkpt>
<trkpt lat="52.709380" lon="06.006589"><ele>-2.6</ele><time>2022-09-06T15:25:05Z</time><name>PT9814</name></trkpt>
<trkpt lat="52.709377" lon="06.006570"><ele>-2.7</ele><time>2022-09-06T15:25:06Z</time><name>PT9815</name></trkpt>
<trkpt lat="52.709373" lon="06.006554"><ele>-2.7</ele><time>2022-09-06T15:25:07Z</time><name>PT9816</name></trkpt>
<trkpt lat="52.709369" lon="06.006538"><ele>-2.6</ele><time>2022-09-06T15:25:08Z</time><name>PT9817</name></trkpt>
<trkpt lat="52.709366" lon="06.006523"><ele>-2.6</ele><time>2022-09-06T15:25:09Z</time><name>PT9818</name></trkpt>
<trkpt lat="52.709361" lon="06.006506"><ele>-2.6</ele><time>2022-09-06T15:25:10Z</time><name>PT9819</name></trkpt>
<trkpt lat="52.709358" lon="06.006489"><ele>-2.5</ele><time>2022-09-06T15:25:11Z</time><name>PT9820</name></trkpt>
<trkpt lat="52.709354" lon="06.006472"><ele>-2.6</ele><time>2022-09-06T15:25:12Z</time><name>PT9821</name></trkpt>
<trkpt lat="52.709350" lon="06.006454"><ele>-2.7</ele><time>2022-09-06T15:25:13Z</time><name>PT9822</name></trkpt>
<trkpt lat="52.709347" lon="06.006433"><ele>-2.5</ele><time>2022-09-06T15:25:14Z</time><name>PT9823</name></trkpt>
<trkpt lat="52.709345" lon="06.006418"><ele>-2.6</ele><time>2022-09-06T15:25:15Z</time><name>PT9824</name></trkpt>
<trkpt lat="52.709343" lon="06.006402"><ele>-2.6</ele><time>2022-09-06T15:25:16Z</time><name>PT9825</name></trkpt>
<trkpt lat="52.709341" lon="06.006386"><ele>-2.5</ele><time>2022-09-06T15:25:17Z</time><name>PT9826</name></trkpt>
<trkpt lat="52.709338" lon="06.006371"><ele>-2.5</ele><time>2022-09-06T15:25:18Z</time><name>PT9827</name></trkpt>
<trkpt lat="52.709332" lon="06.006356"><ele>-2.5</ele><time>2022-09-06T15:25:19Z</time><name>PT9828</name></trkpt>
<trkpt lat="52.709327" lon="06.006339"><ele>-2.4</ele><time>2022-09-06T15:25:20Z</time><name>PT9829</name></trkpt>
<trkpt lat="52.709323" lon="06.006324"><ele>-2.4</ele><time>2022-09-06T15:25:21Z</time><name>PT9830</name></trkpt>
<trkpt lat="52.709320" lon="06.006311"><ele>-2.4</ele><time>2022-09-06T15:25:22Z</time><name>PT9831</name></trkpt>
<trkpt lat="52.709318" lon="06.006297"><ele>-2.3</ele><time>2022-09-06T15:25:23Z</time><name>PT9832</name></trkpt>
<trkpt lat="52.709316" lon="06.006282"><ele>-2.4</ele><time>2022-09-06T15:25:24Z</time><name>PT9833</name></trkpt>
<trkpt lat="52.709314" lon="06.006265"><ele>-2.5</ele><time>2022-09-06T15:25:25Z</time><name>PT9834</name></trkpt>
<trkpt lat="52.709310" lon="06.006249"><ele>-2.5</ele><time>2022-09-06T15:25:26Z</time><name>PT9835</name></trkpt>
<trkpt lat="52.709307" lon="06.006235"><ele>-2.6</ele><time>2022-09-06T15:25:27Z</time><name>PT9836</name></trkpt>
<trkpt lat="52.709303" lon="06.006219"><ele>-2.5</ele><time>2022-09-06T15:25:28Z</time><name>PT9837</name></trkpt>
<trkpt lat="52.709299" lon="06.006201"><ele>-2.5</ele><time>2022-09-06T15:25:29Z</time><name>PT9838</name></trkpt>
<trkpt lat="52.709295" lon="06.006184"><ele>-2.4</ele><time>2022-09-06T15:25:30Z</time><name>PT9839</name></trkpt>
<trkpt lat="52.709290" lon="06.006168"><ele>-2.2</ele><time>2022-09-06T15:25:31Z</time><name>PT9840</name></trkpt>
<trkpt lat="52.709288" lon="06.006154"><ele>-2.1</ele><time>2022-09-06T15:25:32Z</time><name>PT9841</name></trkpt>
<trkpt lat="52.709286" lon="06.006138"><ele>-2.3</ele><time>2022-09-06T15:25:33Z</time><name>PT9842</name></trkpt>
<trkpt lat="52.709284" lon="06.006121"><ele>-2.2</ele><time>2022-09-06T15:25:34Z</time><name>PT9843</name></trkpt>
<trkpt lat="52.709282" lon="06.006105"><ele>-2</ele><time>2022-09-06T15:25:35Z</time><name>PT9844</name></trkpt>
<trkpt lat="52.709279" lon="06.006089"><ele>-2.1</ele><time>2022-09-06T15:25:36Z</time><name>PT9845</name></trkpt>
<trkpt lat="52.709275" lon="06.006073"><ele>-2.1</ele><time>2022-09-06T15:25:37Z</time><name>PT9846</name></trkpt>
<trkpt lat="52.709271" lon="06.006058"><ele>-2.4</ele><time>2022-09-06T15:25:38Z</time><name>PT9847</name></trkpt>
<trkpt lat="52.709267" lon="06.006041"><ele>-2.4</ele><time>2022-09-06T15:25:39Z</time><name>PT9848</name></trkpt>
<trkpt lat="52.709264" lon="06.006026"><ele>-2.5</ele><time>2022-09-06T15:25:40Z</time><name>PT9849</name></trkpt>
<trkpt lat="52.709261" lon="06.006012"><ele>-2.7</ele><time>2022-09-06T15:25:41Z</time><name>PT9850</name></trkpt>
<trkpt lat="52.709259" lon="06.005997"><ele>-2.8</ele><time>2022-09-06T15:25:42Z</time><name>PT9851</name></trkpt>
<trkpt lat="52.709256" lon="06.005981"><ele>-2.6</ele><time>2022-09-06T15:25:43Z</time><name>PT9852</name></trkpt>
<trkpt lat="52.709253" lon="06.005963"><ele>-2.5</ele><time>2022-09-06T15:25:44Z</time><name>PT9853</name></trkpt>
<trkpt lat="52.709250" lon="06.005947"><ele>-2.5</ele><time>2022-09-06T15:25:45Z</time><name>PT9854</name></trkpt>
<trkpt lat="52.709246" lon="06.005933"><ele>-2.5</ele><time>2022-09-06T15:25:46Z</time><name>PT9855</name></trkpt>
<trkpt lat="52.709242" lon="06.005918"><ele>-2.5</ele><time>2022-09-06T15:25:47Z</time><name>PT9856</name></trkpt>
<trkpt lat="52.709238" lon="06.005902"><ele>-2.4</ele><time>2022-09-06T15:25:48Z</time><name>PT9857</name></trkpt>
<trkpt lat="52.709234" lon="06.005887"><ele>-2.5</ele><time>2022-09-06T15:25:49Z</time><name>PT9858</name></trkpt>
<trkpt lat="52.709231" lon="06.005874"><ele>-2.5</ele><time>2022-09-06T15:25:50Z</time><name>PT9859</name></trkpt>
<trkpt lat="52.709228" lon="06.005860"><ele>-2.5</ele><time>2022-09-06T15:25:51Z</time><name>PT9860</name></trkpt>
<trkpt lat="52.709225" lon="06.005845"><ele>-2.5</ele><time>2022-09-06T15:25:52Z</time><name>PT9861</name></trkpt>
<trkpt lat="52.709222" lon="06.005829"><ele>-2.5</ele><time>2022-09-06T15:25:53Z</time><name>PT9862</name></trkpt>
<trkpt lat="52.709219" lon="06.005815"><ele>-2.5</ele><time>2022-09-06T15:25:54Z</time><name>PT9863</name></trkpt>
<trkpt lat="52.709215" lon="06.005800"><ele>-2.5</ele><time>2022-09-06T15:25:55Z</time><name>PT9864</name></trkpt>
<trkpt lat="52.709211" lon="06.005784"><ele>-2.4</ele><time>2022-09-06T15:25:56Z</time><name>PT9865</name></trkpt>
<trkpt lat="52.709208" lon="06.005768"><ele>-2.4</ele><time>2022-09-06T15:25:57Z</time><name>PT9866</name></trkpt>
<trkpt lat="52.709208" lon="06.005754"><ele>-2.3</ele><time>2022-09-06T15:25:58Z</time><name>PT9867</name></trkpt>
<trkpt lat="52.709207" lon="06.005738"><ele>-2.4</ele><time>2022-09-06T15:25:59Z</time><name>PT9868</name></trkpt>
<trkpt lat="52.709204" lon="06.005722"><ele>-2.4</ele><time>2022-09-06T15:26:00Z</time><name>PT9869</name></trkpt>
<trkpt lat="52.709199" lon="06.005701"><ele>-2.5</ele><time>2022-09-06T15:26:01Z</time><name>PT9870</name></trkpt>
<trkpt lat="52.709196" lon="06.005684"><ele>-2.4</ele><time>2022-09-06T15:26:02Z</time><name>PT9871</name></trkpt>
<trkpt lat="52.709193" lon="06.005668"><ele>-2.5</ele><time>2022-09-06T15:26:03Z</time><name>PT9872</name></trkpt>
<trkpt lat="52.709187" lon="06.005651"><ele>-2.5</ele><time>2022-09-06T15:26:04Z</time><name>PT9873</name></trkpt>
<trkpt lat="52.709182" lon="06.005635"><ele>-2.6</ele><time>2022-09-06T15:26:05Z</time><name>PT9874</name></trkpt>
<trkpt lat="52.709178" lon="06.005621"><ele>-2.6</ele><time>2022-09-06T15:26:06Z</time><name>PT9875</name></trkpt>
<trkpt lat="52.709174" lon="06.005600"><ele>-2.9</ele><time>2022-09-06T15:26:07Z</time><name>PT9876</name></trkpt>
<trkpt lat="52.709172" lon="06.005583"><ele>-2.9</ele><time>2022-09-06T15:26:08Z</time><name>PT9877</name></trkpt>
<trkpt lat="52.709170" lon="06.005564"><ele>-2.9</ele><time>2022-09-06T15:26:09Z</time><name>PT9878</name></trkpt>
<trkpt lat="52.709168" lon="06.005545"><ele>-3.1</ele><time>2022-09-06T15:26:10Z</time><name>PT9879</name></trkpt>
<trkpt lat="52.709165" lon="06.005527"><ele>-3</ele><time>2022-09-06T15:26:11Z</time><name>PT9880</name></trkpt>
<trkpt lat="52.709161" lon="06.005510"><ele>-3.1</ele><time>2022-09-06T15:26:12Z</time><name>PT9881</name></trkpt>
<trkpt lat="52.709157" lon="06.005496"><ele>-3.1</ele><time>2022-09-06T15:26:13Z</time><name>PT9882</name></trkpt>
<trkpt lat="52.709153" lon="06.005479"><ele>-3</ele><time>2022-09-06T15:26:14Z</time><name>PT9883</name></trkpt>
<trkpt lat="52.709149" lon="06.005460"><ele>-2.9</ele><time>2022-09-06T15:26:15Z</time><name>PT9884</name></trkpt>
<trkpt lat="52.709144" lon="06.005441"><ele>-2.8</ele><time>2022-09-06T15:26:16Z</time><name>PT9885</name></trkpt>
<trkpt lat="52.709140" lon="06.005424"><ele>-2.5</ele><time>2022-09-06T15:26:17Z</time><name>PT9886</name></trkpt>
<trkpt lat="52.709138" lon="06.005409"><ele>-2.5</ele><time>2022-09-06T15:26:18Z</time><name>PT9887</name></trkpt>
<trkpt lat="52.709135" lon="06.005393"><ele>-2.5</ele><time>2022-09-06T15:26:19Z</time><name>PT9888</name></trkpt>
<trkpt lat="52.709133" lon="06.005376"><ele>-2.6</ele><time>2022-09-06T15:26:20Z</time><name>PT9889</name></trkpt>
<trkpt lat="52.709130" lon="06.005357"><ele>-2.7</ele><time>2022-09-06T15:26:21Z</time><name>PT9890</name></trkpt>
<trkpt lat="52.709127" lon="06.005340"><ele>-2.9</ele><time>2022-09-06T15:26:22Z</time><name>PT9891</name></trkpt>
<trkpt lat="52.709124" lon="06.005323"><ele>-3</ele><time>2022-09-06T15:26:23Z</time><name>PT9892</name></trkpt>
<trkpt lat="52.709122" lon="06.005308"><ele>-3</ele><time>2022-09-06T15:26:24Z</time><name>PT9893</name></trkpt>
<trkpt lat="52.709117" lon="06.005290"><ele>-3</ele><time>2022-09-06T15:26:25Z</time><name>PT9894</name></trkpt>
<trkpt lat="52.709113" lon="06.005273"><ele>-2.9</ele><time>2022-09-06T15:26:26Z</time><name>PT9895</name></trkpt>
<trkpt lat="52.709108" lon="06.005256"><ele>-2.9</ele><time>2022-09-06T15:26:27Z</time><name>PT9896</name></trkpt>
<trkpt lat="52.709106" lon="06.005241"><ele>-2.8</ele><time>2022-09-06T15:26:28Z</time><name>PT9897</name></trkpt>
<trkpt lat="52.709103" lon="06.005225"><ele>-2.7</ele><time>2022-09-06T15:26:29Z</time><name>PT9898</name></trkpt>
<trkpt lat="52.709099" lon="06.005208"><ele>-2.5</ele><time>2022-09-06T15:26:30Z</time><name>PT9899</name></trkpt>
<trkpt lat="52.709096" lon="06.005191"><ele>-2.5</ele><time>2022-09-06T15:26:31Z</time><name>PT9900</name></trkpt>
<trkpt lat="52.709092" lon="06.005175"><ele>-2.3</ele><time>2022-09-06T15:26:32Z</time><name>PT9901</name></trkpt>
<trkpt lat="52.709087" lon="06.005161"><ele>-2.2</ele><time>2022-09-06T15:26:33Z</time><name>PT9902</name></trkpt>
<trkpt lat="52.709083" lon="06.005145"><ele>-2.3</ele><time>2022-09-06T15:26:34Z</time><name>PT9903</name></trkpt>
<trkpt lat="52.709078" lon="06.005129"><ele>-2.4</ele><time>2022-09-06T15:26:35Z</time><name>PT9904</name></trkpt>
<trkpt lat="52.709074" lon="06.005111"><ele>-2.5</ele><time>2022-09-06T15:26:36Z</time><name>PT9905</name></trkpt>
<trkpt lat="52.709071" lon="06.005092"><ele>-2.6</ele><time>2022-09-06T15:26:37Z</time><name>PT9906</name></trkpt>
<trkpt lat="52.709067" lon="06.005074"><ele>-2.6</ele><time>2022-09-06T15:26:38Z</time><name>PT9907</name></trkpt>
<trkpt lat="52.709066" lon="06.005059"><ele>-2.6</ele><time>2022-09-06T15:26:39Z</time><name>PT9908</name></trkpt>
<trkpt lat="52.709064" lon="06.005042"><ele>-2.5</ele><time>2022-09-06T15:26:40Z</time><name>PT9909</name></trkpt>
<trkpt lat="52.709061" lon="06.005025"><ele>-2.6</ele><time>2022-09-06T15:26:41Z</time><name>PT9910</name></trkpt>
<trkpt lat="52.709059" lon="06.005008"><ele>-2.5</ele><time>2022-09-06T15:26:42Z</time><name>PT9911</name></trkpt>
<trkpt lat="52.709055" lon="06.004992"><ele>-2.5</ele><time>2022-09-06T15:26:43Z</time><name>PT9912</name></trkpt>
<trkpt lat="52.709051" lon="06.004973"><ele>-2.6</ele><time>2022-09-06T15:26:44Z</time><name>PT9913</name></trkpt>
<trkpt lat="52.709046" lon="06.004955"><ele>-2.5</ele><time>2022-09-06T15:26:45Z</time><name>PT9914</name></trkpt>
<trkpt lat="52.709042" lon="06.004939"><ele>-2.5</ele><time>2022-09-06T15:26:46Z</time><name>PT9915</name></trkpt>
<trkpt lat="52.709039" lon="06.004925"><ele>-2.5</ele><time>2022-09-06T15:26:47Z</time><name>PT9916</name></trkpt>
<trkpt lat="52.709036" lon="06.004908"><ele>-2.5</ele><time>2022-09-06T15:26:48Z</time><name>PT9917</name></trkpt>
<trkpt lat="52.709033" lon="06.004890"><ele>-2.4</ele><time>2022-09-06T15:26:49Z</time><name>PT9918</name></trkpt>
<trkpt lat="52.709029" lon="06.004873"><ele>-2.4</ele><time>2022-09-06T15:26:50Z</time><name>PT9919</name></trkpt>
<trkpt lat="52.709026" lon="06.004857"><ele>-2.4</ele><time>2022-09-06T15:26:51Z</time><name>PT9920</name></trkpt>
<trkpt lat="52.709022" lon="06.004839"><ele>-2.5</ele><time>2022-09-06T15:26:52Z</time><name>PT9921</name></trkpt>
<trkpt lat="52.709018" lon="06.004821"><ele>-2.3</ele><time>2022-09-06T15:26:53Z</time><name>PT9922</name></trkpt>
<trkpt lat="52.709014" lon="06.004804"><ele>-2.4</ele><time>2022-09-06T15:26:54Z</time><name>PT9923</name></trkpt>
<trkpt lat="52.709009" lon="06.004788"><ele>-2.5</ele><time>2022-09-06T15:26:55Z</time><name>PT9924</name></trkpt>
<trkpt lat="52.709005" lon="06.004774"><ele>-2.3</ele><time>2022-09-06T15:26:56Z</time><name>PT9925</name></trkpt>
<trkpt lat="52.709001" lon="06.004756"><ele>-2.3</ele><time>2022-09-06T15:26:57Z</time><name>PT9926</name></trkpt>
<trkpt lat="52.708999" lon="06.004738"><ele>-2.4</ele><time>2022-09-06T15:26:58Z</time><name>PT9927</name></trkpt>
<trkpt lat="52.708995" lon="06.004720"><ele>-2.3</ele><time>2022-09-06T15:26:59Z</time><name>PT9928</name></trkpt>
<trkpt lat="52.708992" lon="06.004701"><ele>-2.3</ele><time>2022-09-06T15:27:00Z</time><name>PT9929</name></trkpt>
<trkpt lat="52.708987" lon="06.004686"><ele>-2.4</ele><time>2022-09-06T15:27:01Z</time><name>PT9930</name></trkpt>
<trkpt lat="52.708981" lon="06.004673"><ele>-2.2</ele><time>2022-09-06T15:27:02Z</time><name>PT9931</name></trkpt>
<trkpt lat="52.708974" lon="06.004657"><ele>-2.2</ele><time>2022-09-06T15:27:03Z</time><name>PT9932</name></trkpt>
<trkpt lat="52.708967" lon="06.004641"><ele>-2.2</ele><time>2022-09-06T15:27:04Z</time><name>PT9933</name></trkpt>
<trkpt lat="52.708959" lon="06.004627"><ele>-2.2</ele><time>2022-09-06T15:27:05Z</time><name>PT9934</name></trkpt>
<trkpt lat="52.708952" lon="06.004616"><ele>-2.2</ele><time>2022-09-06T15:27:06Z</time><name>PT9935</name></trkpt>
<trkpt lat="52.708944" lon="06.004602"><ele>-2.1</ele><time>2022-09-06T15:27:07Z</time><name>PT9936</name></trkpt>
<trkpt lat="52.708937" lon="06.004585"><ele>-1.9</ele><time>2022-09-06T15:27:08Z</time><name>PT9937</name></trkpt>
<trkpt lat="52.708930" lon="06.004568"><ele>-2</ele><time>2022-09-06T15:27:09Z</time><name>PT9938</name></trkpt>
<trkpt lat="52.708922" lon="06.004556"><ele>-2.2</ele><time>2022-09-06T15:27:10Z</time><name>PT9939</name></trkpt>
<trkpt lat="52.708915" lon="06.004545"><ele>-2</ele><time>2022-09-06T15:27:11Z</time><name>PT9940</name></trkpt>
<trkpt lat="52.708907" lon="06.004534"><ele>-2</ele><time>2022-09-06T15:27:12Z</time><name>PT9941</name></trkpt>
<trkpt lat="52.708896" lon="06.004524"><ele>-2</ele><time>2022-09-06T15:27:13Z</time><name>PT9942</name></trkpt>
<trkpt lat="52.708886" lon="06.004515"><ele>-1.8</ele><time>2022-09-06T15:27:14Z</time><name>PT9943</name></trkpt>
<trkpt lat="52.708876" lon="06.004506"><ele>-1.9</ele><time>2022-09-06T15:27:15Z</time><name>PT9944</name></trkpt>
<trkpt lat="52.708867" lon="06.004497"><ele>-2</ele><time>2022-09-06T15:27:16Z</time><name>PT9945</name></trkpt>
<trkpt lat="52.708858" lon="06.004488"><ele>-2</ele><time>2022-09-06T15:27:17Z</time><name>PT9946</name></trkpt>
<trkpt lat="52.708848" lon="06.004479"><ele>-2.1</ele><time>2022-09-06T15:27:18Z</time><name>PT9947</name></trkpt>
<trkpt lat="52.708837" lon="06.004469"><ele>-2.2</ele><time>2022-09-06T15:27:19Z</time><name>PT9948</name></trkpt>
<trkpt lat="52.708826" lon="06.004460"><ele>-2.1</ele><time>2022-09-06T15:27:20Z</time><name>PT9949</name></trkpt>
<trkpt lat="52.708816" lon="06.004453"><ele>-2.1</ele><time>2022-09-06T15:27:21Z</time><name>PT9950</name></trkpt>
<trkpt lat="52.708806" lon="06.004448"><ele>-2</ele><time>2022-09-06T15:27:22Z</time><name>PT9951</name></trkpt>
<trkpt lat="52.708794" lon="06.004442"><ele>-2.1</ele><time>2022-09-06T15:27:23Z</time><name>PT9952</name></trkpt>
<trkpt lat="52.708783" lon="06.004438"><ele>-2.2</ele><time>2022-09-06T15:27:24Z</time><name>PT9953</name></trkpt>
<trkpt lat="52.708771" lon="06.004437"><ele>-2.3</ele><time>2022-09-06T15:27:25Z</time><name>PT9954</name></trkpt>
<trkpt lat="52.708761" lon="06.004436"><ele>-2.3</ele><time>2022-09-06T15:27:26Z</time><name>PT9955</name></trkpt>
<trkpt lat="52.708751" lon="06.004435"><ele>-2.3</ele><time>2022-09-06T15:27:27Z</time><name>PT9956</name></trkpt>
<trkpt lat="52.708741" lon="06.004433"><ele>-2.1</ele><time>2022-09-06T15:27:28Z</time><name>PT9957</name></trkpt>
<trkpt lat="52.708731" lon="06.004429"><ele>-2.2</ele><time>2022-09-06T15:27:29Z</time><name>PT9958</name></trkpt>
<trkpt lat="52.708720" lon="06.004428"><ele>-2.2</ele><time>2022-09-06T15:27:30Z</time><name>PT9959</name></trkpt>
<trkpt lat="52.708710" lon="06.004427"><ele>-2</ele><time>2022-09-06T15:27:31Z</time><name>PT9960</name></trkpt>
<trkpt lat="52.708699" lon="06.004427"><ele>-2.1</ele><time>2022-09-06T15:27:32Z</time><name>PT9961</name></trkpt>
<trkpt lat="52.708687" lon="06.004427"><ele>-2.2</ele><time>2022-09-06T15:27:33Z</time><name>PT9962</name></trkpt>
<trkpt lat="52.708677" lon="06.004427"><ele>-2</ele><time>2022-09-06T15:27:34Z</time><name>PT9963</name></trkpt>
<trkpt lat="52.708667" lon="06.004428"><ele>-1.7</ele><time>2022-09-06T15:27:35Z</time><name>PT9964</name></trkpt>
<trkpt lat="52.708656" lon="06.004427"><ele>-1.6</ele><time>2022-09-06T15:27:36Z</time><name>PT9965</name></trkpt>
<trkpt lat="52.708645" lon="06.004424"><ele>-1.5</ele><time>2022-09-06T15:27:37Z</time><name>PT9966</name></trkpt>
<trkpt lat="52.708633" lon="06.004423"><ele>-1.5</ele><time>2022-09-06T15:27:38Z</time><name>PT9967</name></trkpt>
<trkpt lat="52.708622" lon="06.004421"><ele>-1.5</ele><time>2022-09-06T15:27:39Z</time><name>PT9968</name></trkpt>
<trkpt lat="52.708611" lon="06.004420"><ele>-1.7</ele><time>2022-09-06T15:27:40Z</time><name>PT9969</name></trkpt>
<trkpt lat="52.708600" lon="06.004421"><ele>-1.9</ele><time>2022-09-06T15:27:41Z</time><name>PT9970</name></trkpt>
<trkpt lat="52.708587" lon="06.004423"><ele>-1.9</ele><time>2022-09-06T15:27:42Z</time><name>PT9971</name></trkpt>
<trkpt lat="52.708575" lon="06.004425"><ele>-1.9</ele><time>2022-09-06T15:27:43Z</time><name>PT9972</name></trkpt>
<trkpt lat="52.708563" lon="06.004426"><ele>-1.7</ele><time>2022-09-06T15:27:44Z</time><name>PT9973</name></trkpt>
<trkpt lat="52.708553" lon="06.004429"><ele>-1.7</ele><time>2022-09-06T15:27:45Z</time><name>PT9974</name></trkpt>
<trkpt lat="52.708544" lon="06.004430"><ele>-1.8</ele><time>2022-09-06T15:27:46Z</time><name>PT9975</name></trkpt>
<trkpt lat="52.708534" lon="06.004430"><ele>-1.9</ele><time>2022-09-06T15:27:47Z</time><name>PT9976</name></trkpt>
<trkpt lat="52.708522" lon="06.004428"><ele>-1.9</ele><time>2022-09-06T15:27:48Z</time><name>PT9977</name></trkpt>
<trkpt lat="52.708510" lon="06.004423"><ele>-2</ele><time>2022-09-06T15:27:49Z</time><name>PT9978</name></trkpt>
<trkpt lat="52.708498" lon="06.004419"><ele>-1.9</ele><time>2022-09-06T15:27:50Z</time><name>PT9979</name></trkpt>
<trkpt lat="52.708487" lon="06.004418"><ele>-1.9</ele><time>2022-09-06T15:27:51Z</time><name>PT9980</name></trkpt>
<trkpt lat="52.708477" lon="06.004418"><ele>-1.8</ele><time>2022-09-06T15:27:52Z</time><name>PT9981</name></trkpt>
<trkpt lat="52.708466" lon="06.004418"><ele>-2</ele><time>2022-09-06T15:27:53Z</time><name>PT9982</name></trkpt>
<trkpt lat="52.708455" lon="06.004418"><ele>-2</ele><time>2022-09-06T15:27:54Z</time><name>PT9983</name></trkpt>
<trkpt lat="52.708443" lon="06.004417"><ele>-2</ele><time>2022-09-06T15:27:55Z</time><name>PT9984</name></trkpt>
<trkpt lat="52.708433" lon="06.004417"><ele>-2</ele><time>2022-09-06T15:27:56Z</time><name>PT9985</name></trkpt>
<trkpt lat="52.708422" lon="06.004416"><ele>-2</ele><time>2022-09-06T15:27:57Z</time><name>PT9986</name></trkpt>
<trkpt lat="52.708413" lon="06.004415"><ele>-2</ele><time>2022-09-06T15:27:58Z</time><name>PT9987</name></trkpt>
<trkpt lat="52.708402" lon="06.004413"><ele>-2</ele><time>2022-09-06T15:27:59Z</time><name>PT9988</name></trkpt>
<trkpt lat="52.708393" lon="06.004412"><ele>-2.1</ele><time>2022-09-06T15:28:00Z</time><name>PT9989</name></trkpt>
<trkpt lat="52.708382" lon="06.004411"><ele>-2</ele><time>2022-09-06T15:28:01Z</time><name>PT9990</name></trkpt>
<trkpt lat="52.708370" lon="06.004411"><ele>-2.2</ele><time>2022-09-06T15:28:02Z</time><name>PT9991</name></trkpt>
<trkpt lat="52.708357" lon="06.004412"><ele>-2.3</ele><time>2022-09-06T15:28:03Z</time><name>PT9992</name></trkpt>
<trkpt lat="52.708347" lon="06.004413"><ele>-2.2</ele><time>2022-09-06T15:28:04Z</time><name>PT9993</name></trkpt>
<trkpt lat="52.708337" lon="06.004417"><ele>-2.3</ele><time>2022-09-06T15:28:05Z</time><name>PT9994</name></trkpt>
<trkpt lat="52.708326" lon="06.004416"><ele>-2.3</ele><time>2022-09-06T15:28:06Z</time><name>PT9995</name></trkpt>
<trkpt lat="52.708314" lon="06.004413"><ele>-2.2</ele><time>2022-09-06T15:28:07Z</time><name>PT9996</name></trkpt>
<trkpt lat="52.708302" lon="06.004410"><ele>-2.2</ele><time>2022-09-06T15:28:08Z</time><name>PT9997</name></trkpt>
<trkpt lat="52.708291" lon="06.004409"><ele>-2.2</ele><time>2022-09-06T15:28:09Z</time><name>PT9998</name></trkpt>
<trkpt lat="52.708281" lon="06.004408"><ele>-2.2</ele><time>2022-09-06T15:28:10Z</time><name>PT9999</name></trkpt>
<trkpt lat="52.708271" lon="06.004406"><ele>-2.2</ele><time>2022-09-06T15:28:11Z</time><name>PT10000</name></trkpt>
<trkpt lat="52.708261" lon="06.004406"><ele>-2.2</ele><time>2022-09-06T15:28:12Z</time><name>PT10001</name></trkpt>
<trkpt lat="52.708250" lon="06.004407"><ele>-2.3</ele><time>2022-09-06T15:28:13Z</time><name>PT10002</name></trkpt>
<trkpt lat="52.708239" lon="06.004407"><ele>-2</ele><time>2022-09-06T15:28:14Z</time><name>PT10003</name></trkpt>
<trkpt lat="52.708229" lon="06.004406"><ele>-2.1</ele><time>2022-09-06T15:28:15Z</time><name>PT10004</name></trkpt>
<trkpt lat="52.708220" lon="06.004405"><ele>-2.2</ele><time>2022-09-06T15:28:16Z</time><name>PT10005</name></trkpt>
<trkpt lat="52.708209" lon="06.004401"><ele>-2</ele><time>2022-09-06T15:28:17Z</time><name>PT10006</name></trkpt>
<trkpt lat="52.708198" lon="06.004397"><ele>-2</ele><time>2022-09-06T15:28:18Z</time><name>PT10007</name></trkpt>
<trkpt lat="52.708188" lon="06.004396"><ele>-2.2</ele><time>2022-09-06T15:28:19Z</time><name>PT10008</name></trkpt>
<trkpt lat="52.708178" lon="06.004395"><ele>-2.1</ele><time>2022-09-06T15:28:20Z</time><name>PT10009</name></trkpt>
<trkpt lat="52.708168" lon="06.004396"><ele>-2.1</ele><time>2022-09-06T15:28:21Z</time><name>PT10010</name></trkpt>
<trkpt lat="52.708157" lon="06.004400"><ele>-2.2</ele><time>2022-09-06T15:28:22Z</time><name>PT10011</name></trkpt>
<trkpt lat="52.708147" lon="06.004403"><ele>-2.2</ele><time>2022-09-06T15:28:23Z</time><name>PT10012</name></trkpt>
<trkpt lat="52.708138" lon="06.004405"><ele>-2.2</ele><time>2022-09-06T15:28:24Z</time><name>PT10013</name></trkpt>
<trkpt lat="52.708128" lon="06.004404"><ele>-2</ele><time>2022-09-06T15:28:25Z</time><name>PT10014</name></trkpt>
<trkpt lat="52.708119" lon="06.004402"><ele>-2</ele><time>2022-09-06T15:28:26Z</time><name>PT10015</name></trkpt>
<trkpt lat="52.708110" lon="06.004398"><ele>-2.1</ele><time>2022-09-06T15:28:27Z</time><name>PT10016</name></trkpt>
<trkpt lat="52.708101" lon="06.004397"><ele>-2</ele><time>2022-09-06T15:28:28Z</time><name>PT10017</name></trkpt>
<trkpt lat="52.708091" lon="06.004398"><ele>-2.3</ele><time>2022-09-06T15:28:29Z</time><name>PT10018</name></trkpt>
<trkpt lat="52.708083" lon="06.004398"><ele>-2.3</ele><time>2022-09-06T15:28:30Z</time><name>PT10019</name></trkpt>
<trkpt lat="52.708076" lon="06.004397"><ele>-2.2</ele><time>2022-09-06T15:28:31Z</time><name>PT10020</name></trkpt>
<trkpt lat="52.708074" lon="06.004399"><ele>-2.2</ele><time>2022-09-06T15:28:32Z</time><name>PT10021</name></trkpt>
<trkpt lat="52.708073" lon="06.004401"><ele>-2.2</ele><time>2022-09-06T15:28:33Z</time><name>PT10022</name></trkpt>
<trkpt lat="52.708071" lon="06.004403"><ele>-2</ele><time>2022-09-06T15:28:34Z</time><name>PT10023</name></trkpt>
<trkpt lat="52.708066" lon="06.004403"><ele>-1.9</ele><time>2022-09-06T15:28:37Z</time><name>PT10024</name></trkpt>
<trkpt lat="52.708056" lon="06.004402"><ele>-1.8</ele><time>2022-09-06T15:28:38Z</time><name>PT10025</name></trkpt>
<trkpt lat="52.708047" lon="06.004400"><ele>-1.9</ele><time>2022-09-06T15:28:39Z</time><name>PT10026</name></trkpt>
<trkpt lat="52.708036" lon="06.004399"><ele>-1.9</ele><time>2022-09-06T15:28:40Z</time><name>PT10027</name></trkpt>
<trkpt lat="52.708026" lon="06.004398"><ele>-2</ele><time>2022-09-06T15:28:41Z</time><name>PT10028</name></trkpt>
<trkpt lat="52.708014" lon="06.004395"><ele>-2</ele><time>2022-09-06T15:28:42Z</time><name>PT10029</name></trkpt>
<trkpt lat="52.708003" lon="06.004392"><ele>-2</ele><time>2022-09-06T15:28:43Z</time><name>PT10030</name></trkpt>
<trkpt lat="52.707993" lon="06.004392"><ele>-2</ele><time>2022-09-06T15:28:44Z</time><name>PT10031</name></trkpt>
<trkpt lat="52.707984" lon="06.004393"><ele>-2.1</ele><time>2022-09-06T15:28:45Z</time><name>PT10032</name></trkpt>
<trkpt lat="52.707973" lon="06.004394"><ele>-2.4</ele><time>2022-09-06T15:28:46Z</time><name>PT10033</name></trkpt>
<trkpt lat="52.707963" lon="06.004397"><ele>-2.3</ele><time>2022-09-06T15:28:47Z</time><name>PT10034</name></trkpt>
<trkpt lat="52.707952" lon="06.004399"><ele>-2.2</ele><time>2022-09-06T15:28:48Z</time><name>PT10035</name></trkpt>
<trkpt lat="52.707942" lon="06.004398"><ele>-2.2</ele><time>2022-09-06T15:28:49Z</time><name>PT10036</name></trkpt>
<trkpt lat="52.707931" lon="06.004395"><ele>-2</ele><time>2022-09-06T15:28:50Z</time><name>PT10037</name></trkpt>
<trkpt lat="52.707920" lon="06.004393"><ele>-1.9</ele><time>2022-09-06T15:28:51Z</time><name>PT10038</name></trkpt>
<trkpt lat="52.707909" lon="06.004391"><ele>-2</ele><time>2022-09-06T15:28:52Z</time><name>PT10039</name></trkpt>
<trkpt lat="52.707900" lon="06.004390"><ele>-2.1</ele><time>2022-09-06T15:28:53Z</time><name>PT10040</name></trkpt>
<trkpt lat="52.707890" lon="06.004391"><ele>-2</ele><time>2022-09-06T15:28:54Z</time><name>PT10041</name></trkpt>
<trkpt lat="52.707881" lon="06.004393"><ele>-2</ele><time>2022-09-06T15:28:55Z</time><name>PT10042</name></trkpt>
<trkpt lat="52.707872" lon="06.004391"><ele>-2.1</ele><time>2022-09-06T15:28:56Z</time><name>PT10043</name></trkpt>
<trkpt lat="52.707862" lon="06.004388"><ele>-2.1</ele><time>2022-09-06T15:28:57Z</time><name>PT10044</name></trkpt>
<trkpt lat="52.707852" lon="06.004384"><ele>-2</ele><time>2022-09-06T15:28:58Z</time><name>PT10045</name></trkpt>
<trkpt lat="52.707842" lon="06.004380"><ele>-2.1</ele><time>2022-09-06T15:28:59Z</time><name>PT10046</name></trkpt>
<trkpt lat="52.707833" lon="06.004380"><ele>-2.1</ele><time>2022-09-06T15:29:00Z</time><name>PT10047</name></trkpt>
<trkpt lat="52.707823" lon="06.004380"><ele>-2.2</ele><time>2022-09-06T15:29:01Z</time><name>PT10048</name></trkpt>
<trkpt lat="52.707813" lon="06.004375"><ele>-2.1</ele><time>2022-09-06T15:29:02Z</time><name>PT10049</name></trkpt>
<trkpt lat="52.707803" lon="06.004374"><ele>-2.2</ele><time>2022-09-06T15:29:03Z</time><name>PT10050</name></trkpt>
<trkpt lat="52.707792" lon="06.004372"><ele>-2.1</ele><time>2022-09-06T15:29:04Z</time><name>PT10051</name></trkpt>
<trkpt lat="52.707783" lon="06.004371"><ele>-2.2</ele><time>2022-09-06T15:29:05Z</time><name>PT10052</name></trkpt>
<trkpt lat="52.707772" lon="06.004372"><ele>-2.2</ele><time>2022-09-06T15:29:06Z</time><name>PT10053</name></trkpt>
<trkpt lat="52.707762" lon="06.004373"><ele>-2.3</ele><time>2022-09-06T15:29:07Z</time><name>PT10054</name></trkpt>
<trkpt lat="52.707752" lon="06.004373"><ele>-2.3</ele><time>2022-09-06T15:29:08Z</time><name>PT10055</name></trkpt>
<trkpt lat="52.707742" lon="06.004372"><ele>-2.3</ele><time>2022-09-06T15:29:09Z</time><name>PT10056</name></trkpt>
<trkpt lat="52.707731" lon="06.004372"><ele>-2.4</ele><time>2022-09-06T15:29:10Z</time><name>PT10057</name></trkpt>
<trkpt lat="52.707721" lon="06.004370"><ele>-2.4</ele><time>2022-09-06T15:29:11Z</time><name>PT10058</name></trkpt>
<trkpt lat="52.707710" lon="06.004370"><ele>-2.3</ele><time>2022-09-06T15:29:12Z</time><name>PT10059</name></trkpt>
<trkpt lat="52.707701" lon="06.004370"><ele>-2.5</ele><time>2022-09-06T15:29:13Z</time><name>PT10060</name></trkpt>
<trkpt lat="52.707692" lon="06.004371"><ele>-2.4</ele><time>2022-09-06T15:29:14Z</time><name>PT10061</name></trkpt>
<trkpt lat="52.707681" lon="06.004372"><ele>-2.4</ele><time>2022-09-06T15:29:15Z</time><name>PT10062</name></trkpt>
<trkpt lat="52.707672" lon="06.004371"><ele>-2.3</ele><time>2022-09-06T15:29:16Z</time><name>PT10063</name></trkpt>
<trkpt lat="52.707661" lon="06.004368"><ele>-2.4</ele><time>2022-09-06T15:29:17Z</time><name>PT10064</name></trkpt>
<trkpt lat="52.707650" lon="06.004366"><ele>-2.4</ele><time>2022-09-06T15:29:18Z</time><name>PT10065</name></trkpt>
<trkpt lat="52.707641" lon="06.004366"><ele>-2.5</ele><time>2022-09-06T15:29:19Z</time><name>PT10066</name></trkpt>
<trkpt lat="52.707631" lon="06.004366"><ele>-2.5</ele><time>2022-09-06T15:29:20Z</time><name>PT10067</name></trkpt>
<trkpt lat="52.707620" lon="06.004366"><ele>-2.5</ele><time>2022-09-06T15:29:21Z</time><name>PT10068</name></trkpt>
<trkpt lat="52.707610" lon="06.004367"><ele>-2.5</ele><time>2022-09-06T15:29:22Z</time><name>PT10069</name></trkpt>
<trkpt lat="52.707601" lon="06.004366"><ele>-2.3</ele><time>2022-09-06T15:29:23Z</time><name>PT10070</name></trkpt>
<trkpt lat="52.707592" lon="06.004362"><ele>-2.4</ele><time>2022-09-06T15:29:24Z</time><name>PT10071</name></trkpt>
<trkpt lat="52.707582" lon="06.004361"><ele>-2.3</ele><time>2022-09-06T15:29:25Z</time><name>PT10072</name></trkpt>
<trkpt lat="52.707574" lon="06.004363"><ele>-2.2</ele><time>2022-09-06T15:29:26Z</time><name>PT10073</name></trkpt>
<trkpt lat="52.707564" lon="06.004365"><ele>-2.5</ele><time>2022-09-06T15:29:27Z</time><name>PT10074</name></trkpt>
<trkpt lat="52.707553" lon="06.004365"><ele>-2.5</ele><time>2022-09-06T15:29:28Z</time><name>PT10075</name></trkpt>
<trkpt lat="52.707542" lon="06.004364"><ele>-2.5</ele><time>2022-09-06T15:29:29Z</time><name>PT10076</name></trkpt>
<trkpt lat="52.707532" lon="06.004365"><ele>-2.7</ele><time>2022-09-06T15:29:30Z</time><name>PT10077</name></trkpt>
<trkpt lat="52.707522" lon="06.004365"><ele>-2.6</ele><time>2022-09-06T15:29:31Z</time><name>PT10078</name></trkpt>
<trkpt lat="52.707511" lon="06.004364"><ele>-2.6</ele><time>2022-09-06T15:29:32Z</time><name>PT10079</name></trkpt>
<trkpt lat="52.707500" lon="06.004364"><ele>-2.6</ele><time>2022-09-06T15:29:33Z</time><name>PT10080</name></trkpt>
<trkpt lat="52.707489" lon="06.004362"><ele>-2.4</ele><time>2022-09-06T15:29:34Z</time><name>PT10081</name></trkpt>
<trkpt lat="52.707478" lon="06.004361"><ele>-2.3</ele><time>2022-09-06T15:29:35Z</time><name>PT10082</name></trkpt>
<trkpt lat="52.707467" lon="06.004361"><ele>-2.2</ele><time>2022-09-06T15:29:36Z</time><name>PT10083</name></trkpt>
<trkpt lat="52.707456" lon="06.004363"><ele>-2.1</ele><time>2022-09-06T15:29:37Z</time><name>PT10084</name></trkpt>
<trkpt lat="52.707447" lon="06.004365"><ele>-2</ele><time>2022-09-06T15:29:38Z</time><name>PT10085</name></trkpt>
<trkpt lat="52.707436" lon="06.004363"><ele>-2.1</ele><time>2022-09-06T15:29:39Z</time><name>PT10086</name></trkpt>
<trkpt lat="52.707424" lon="06.004361"><ele>-2</ele><time>2022-09-06T15:29:40Z</time><name>PT10087</name></trkpt>
<trkpt lat="52.707413" lon="06.004360"><ele>-2</ele><time>2022-09-06T15:29:41Z</time><name>PT10088</name></trkpt>
<trkpt lat="52.707402" lon="06.004357"><ele>-2.2</ele><time>2022-09-06T15:29:42Z</time><name>PT10089</name></trkpt>
<trkpt lat="52.707392" lon="06.004355"><ele>-2.5</ele><time>2022-09-06T15:29:43Z</time><name>PT10090</name></trkpt>
<trkpt lat="52.707382" lon="06.004354"><ele>-2.5</ele><time>2022-09-06T15:29:44Z</time><name>PT10091</name></trkpt>
<trkpt lat="52.707370" lon="06.004354"><ele>-2.5</ele><time>2022-09-06T15:29:45Z</time><name>PT10092</name></trkpt>
<trkpt lat="52.707359" lon="06.004355"><ele>-2.3</ele><time>2022-09-06T15:29:46Z</time><name>PT10093</name></trkpt>
<trkpt lat="52.707348" lon="06.004356"><ele>-2</ele><time>2022-09-06T15:29:47Z</time><name>PT10094</name></trkpt>
<trkpt lat="52.707338" lon="06.004356"><ele>-2</ele><time>2022-09-06T15:29:48Z</time><name>PT10095</name></trkpt>
<trkpt lat="52.707327" lon="06.004355"><ele>-1.9</ele><time>2022-09-06T15:29:49Z</time><name>PT10096</name></trkpt>
<trkpt lat="52.707317" lon="06.004351"><ele>-2</ele><time>2022-09-06T15:29:50Z</time><name>PT10097</name></trkpt>
<trkpt lat="52.707307" lon="06.004349"><ele>-2.1</ele><time>2022-09-06T15:29:51Z</time><name>PT10098</name></trkpt>
<trkpt lat="52.707298" lon="06.004347"><ele>-2.4</ele><time>2022-09-06T15:29:52Z</time><name>PT10099</name></trkpt>
<trkpt lat="52.707288" lon="06.004349"><ele>-2.5</ele><time>2022-09-06T15:29:53Z</time><name>PT10100</name></trkpt>
<trkpt lat="52.707278" lon="06.004352"><ele>-2.6</ele><time>2022-09-06T15:29:54Z</time><name>PT10101</name></trkpt>
<trkpt lat="52.707267" lon="06.004354"><ele>-2.6</ele><time>2022-09-06T15:29:55Z</time><name>PT10102</name></trkpt>
<trkpt lat="52.707256" lon="06.004353"><ele>-2.8</ele><time>2022-09-06T15:29:56Z</time><name>PT10103</name></trkpt>
<trkpt lat="52.707246" lon="06.004353"><ele>-2.9</ele><time>2022-09-06T15:29:57Z</time><name>PT10104</name></trkpt>
<trkpt lat="52.707236" lon="06.004351"><ele>-2.8</ele><time>2022-09-06T15:29:58Z</time><name>PT10105</name></trkpt>
<trkpt lat="52.707225" lon="06.004347"><ele>-2.6</ele><time>2022-09-06T15:29:59Z</time><name>PT10106</name></trkpt>
<trkpt lat="52.707214" lon="06.004346"><ele>-2.5</ele><time>2022-09-06T15:30:00Z</time><name>PT10107</name></trkpt>
<trkpt lat="52.707204" lon="06.004346"><ele>-2.5</ele><time>2022-09-06T15:30:01Z</time><name>PT10108</name></trkpt>
<trkpt lat="52.707193" lon="06.004348"><ele>-2.3</ele><time>2022-09-06T15:30:02Z</time><name>PT10109</name></trkpt>
<trkpt lat="52.707185" lon="06.004351"><ele>-2.3</ele><time>2022-09-06T15:30:03Z</time><name>PT10110</name></trkpt>
<trkpt lat="52.707175" lon="06.004350"><ele>-2.5</ele><time>2022-09-06T15:30:04Z</time><name>PT10111</name></trkpt>
<trkpt lat="52.707165" lon="06.004347"><ele>-2.5</ele><time>2022-09-06T15:30:05Z</time><name>PT10112</name></trkpt>
<trkpt lat="52.707154" lon="06.004344"><ele>-2.5</ele><time>2022-09-06T15:30:06Z</time><name>PT10113</name></trkpt>
<trkpt lat="52.707143" lon="06.004341"><ele>-2.6</ele><time>2022-09-06T15:30:07Z</time><name>PT10114</name></trkpt>
<trkpt lat="52.707132" lon="06.004339"><ele>-2.5</ele><time>2022-09-06T15:30:08Z</time><name>PT10115</name></trkpt>
<trkpt lat="52.707122" lon="06.004339"><ele>-2.5</ele><time>2022-09-06T15:30:09Z</time><name>PT10116</name></trkpt>
<trkpt lat="52.707110" lon="06.004339"><ele>-2.5</ele><time>2022-09-06T15:30:10Z</time><name>PT10117</name></trkpt>
<trkpt lat="52.707100" lon="06.004340"><ele>-2.3</ele><time>2022-09-06T15:30:11Z</time><name>PT10118</name></trkpt>
<trkpt lat="52.707090" lon="06.004341"><ele>-2.2</ele><time>2022-09-06T15:30:12Z</time><name>PT10119</name></trkpt>
<trkpt lat="52.707079" lon="06.004339"><ele>-2.3</ele><time>2022-09-06T15:30:13Z</time><name>PT10120</name></trkpt>
<trkpt lat="52.707069" lon="06.004337"><ele>-2.3</ele><time>2022-09-06T15:30:14Z</time><name>PT10121</name></trkpt>
<trkpt lat="52.707058" lon="06.004336"><ele>-2.3</ele><time>2022-09-06T15:30:15Z</time><name>PT10122</name></trkpt>
<trkpt lat="52.707048" lon="06.004336"><ele>-2.5</ele><time>2022-09-06T15:30:16Z</time><name>PT10123</name></trkpt>
<trkpt lat="52.707039" lon="06.004337"><ele>-2.3</ele><time>2022-09-06T15:30:17Z</time><name>PT10124</name></trkpt>
<trkpt lat="52.707029" lon="06.004339"><ele>-2.3</ele><time>2022-09-06T15:30:18Z</time><name>PT10125</name></trkpt>
<trkpt lat="52.707019" lon="06.004339"><ele>-2.3</ele><time>2022-09-06T15:30:19Z</time><name>PT10126</name></trkpt>
<trkpt lat="52.707009" lon="06.004341"><ele>-2.1</ele><time>2022-09-06T15:30:20Z</time><name>PT10127</name></trkpt>
<trkpt lat="52.706998" lon="06.004341"><ele>-2.2</ele><time>2022-09-06T15:30:21Z</time><name>PT10128</name></trkpt>
<trkpt lat="52.706988" lon="06.004341"><ele>-2.1</ele><time>2022-09-06T15:30:22Z</time><name>PT10129</name></trkpt>
<trkpt lat="52.706977" lon="06.004338"><ele>-2</ele><time>2022-09-06T15:30:23Z</time><name>PT10130</name></trkpt>
<trkpt lat="52.706965" lon="06.004335"><ele>-2</ele><time>2022-09-06T15:30:24Z</time><name>PT10131</name></trkpt>
<trkpt lat="52.706954" lon="06.004333"><ele>-2.1</ele><time>2022-09-06T15:30:25Z</time><name>PT10132</name></trkpt>
<trkpt lat="52.706944" lon="06.004333"><ele>-2.2</ele><time>2022-09-06T15:30:26Z</time><name>PT10133</name></trkpt>
<trkpt lat="52.706933" lon="06.004336"><ele>-2.4</ele><time>2022-09-06T15:30:27Z</time><name>PT10134</name></trkpt>
<trkpt lat="52.706923" lon="06.004338"><ele>-2.5</ele><time>2022-09-06T15:30:28Z</time><name>PT10135</name></trkpt>
<trkpt lat="52.706912" lon="06.004338"><ele>-2.4</ele><time>2022-09-06T15:30:29Z</time><name>PT10136</name></trkpt>
<trkpt lat="52.706902" lon="06.004337"><ele>-2.2</ele><time>2022-09-06T15:30:30Z</time><name>PT10137</name></trkpt>
<trkpt lat="52.706893" lon="06.004338"><ele>-2.2</ele><time>2022-09-06T15:30:31Z</time><name>PT10138</name></trkpt>
<trkpt lat="52.706883" lon="06.004338"><ele>-2.4</ele><time>2022-09-06T15:30:32Z</time><name>PT10139</name></trkpt>
<trkpt lat="52.706871" lon="06.004338"><ele>-2.4</ele><time>2022-09-06T15:30:33Z</time><name>PT10140</name></trkpt>
<trkpt lat="52.706860" lon="06.004335"><ele>-2.5</ele><time>2022-09-06T15:30:34Z</time><name>PT10141</name></trkpt>
<trkpt lat="52.706849" lon="06.004332"><ele>-2.5</ele><time>2022-09-06T15:30:35Z</time><name>PT10142</name></trkpt>
<trkpt lat="52.706838" lon="06.004330"><ele>-2.5</ele><time>2022-09-06T15:30:36Z</time><name>PT10143</name></trkpt>
<trkpt lat="52.706828" lon="06.004330"><ele>-2.4</ele><time>2022-09-06T15:30:37Z</time><name>PT10144</name></trkpt>
<trkpt lat="52.706817" lon="06.004332"><ele>-2.3</ele><time>2022-09-06T15:30:38Z</time><name>PT10145</name></trkpt>
<trkpt lat="52.706807" lon="06.004336"><ele>-2.3</ele><time>2022-09-06T15:30:39Z</time><name>PT10146</name></trkpt>
<trkpt lat="52.706796" lon="06.004340"><ele>-2.3</ele><time>2022-09-06T15:30:40Z</time><name>PT10147</name></trkpt>
<trkpt lat="52.706785" lon="06.004341"><ele>-2.3</ele><time>2022-09-06T15:30:41Z</time><name>PT10148</name></trkpt>
<trkpt lat="52.706775" lon="06.004341"><ele>-2.4</ele><time>2022-09-06T15:30:42Z</time><name>PT10149</name></trkpt>
<trkpt lat="52.706764" lon="06.004340"><ele>-2.5</ele><time>2022-09-06T15:30:43Z</time><name>PT10150</name></trkpt>
<trkpt lat="52.706752" lon="06.004337"><ele>-2.5</ele><time>2022-09-06T15:30:44Z</time><name>PT10151</name></trkpt>
<trkpt lat="52.706740" lon="06.004333"><ele>-2.6</ele><time>2022-09-06T15:30:45Z</time><name>PT10152</name></trkpt>
<trkpt lat="52.706730" lon="06.004333"><ele>-2.5</ele><time>2022-09-06T15:30:46Z</time><name>PT10153</name></trkpt>
<trkpt lat="52.706719" lon="06.004332"><ele>-2.5</ele><time>2022-09-06T15:30:47Z</time><name>PT10154</name></trkpt>
<trkpt lat="52.706709" lon="06.004331"><ele>-2.4</ele><time>2022-09-06T15:30:48Z</time><name>PT10155</name></trkpt>
<trkpt lat="52.706697" lon="06.004331"><ele>-2.3</ele><time>2022-09-06T15:30:49Z</time><name>PT10156</name></trkpt>
<trkpt lat="52.706687" lon="06.004333"><ele>-2.3</ele><time>2022-09-06T15:30:50Z</time><name>PT10157</name></trkpt>
<trkpt lat="52.706677" lon="06.004333"><ele>-2.3</ele><time>2022-09-06T15:30:51Z</time><name>PT10158</name></trkpt>
<trkpt lat="52.706668" lon="06.004329"><ele>-2.5</ele><time>2022-09-06T15:30:52Z</time><name>PT10159</name></trkpt>
<trkpt lat="52.706658" lon="06.004326"><ele>-2.5</ele><time>2022-09-06T15:30:53Z</time><name>PT10160</name></trkpt>
<trkpt lat="52.706648" lon="06.004323"><ele>-2.5</ele><time>2022-09-06T15:30:54Z</time><name>PT10161</name></trkpt>
<trkpt lat="52.706638" lon="06.004320"><ele>-2.7</ele><time>2022-09-06T15:30:55Z</time><name>PT10162</name></trkpt>
<trkpt lat="52.706629" lon="06.004319"><ele>-2.6</ele><time>2022-09-06T15:30:56Z</time><name>PT10163</name></trkpt>
<trkpt lat="52.706619" lon="06.004319"><ele>-2.5</ele><time>2022-09-06T15:30:57Z</time><name>PT10164</name></trkpt>
<trkpt lat="52.706608" lon="06.004320"><ele>-2.7</ele><time>2022-09-06T15:30:58Z</time><name>PT10165</name></trkpt>
<trkpt lat="52.706597" lon="06.004321"><ele>-2.5</ele><time>2022-09-06T15:30:59Z</time><name>PT10166</name></trkpt>
<trkpt lat="52.706586" lon="06.004322"><ele>-2.5</ele><time>2022-09-06T15:31:00Z</time><name>PT10167</name></trkpt>
<trkpt lat="52.706576" lon="06.004322"><ele>-2.4</ele><time>2022-09-06T15:31:01Z</time><name>PT10168</name></trkpt>
<trkpt lat="52.706565" lon="06.004321"><ele>-2.2</ele><time>2022-09-06T15:31:02Z</time><name>PT10169</name></trkpt>
<trkpt lat="52.706553" lon="06.004319"><ele>-2</ele><time>2022-09-06T15:31:03Z</time><name>PT10170</name></trkpt>
<trkpt lat="52.706542" lon="06.004316"><ele>-2</ele><time>2022-09-06T15:31:04Z</time><name>PT10171</name></trkpt>
<trkpt lat="52.706531" lon="06.004313"><ele>-2.1</ele><time>2022-09-06T15:31:05Z</time><name>PT10172</name></trkpt>
<trkpt lat="52.706520" lon="06.004311"><ele>-2.1</ele><time>2022-09-06T15:31:06Z</time><name>PT10173</name></trkpt>
<trkpt lat="52.706510" lon="06.004311"><ele>-2.3</ele><time>2022-09-06T15:31:07Z</time><name>PT10174</name></trkpt>
<trkpt lat="52.706499" lon="06.004309"><ele>-2.2</ele><time>2022-09-06T15:31:08Z</time><name>PT10175</name></trkpt>
<trkpt lat="52.706489" lon="06.004307"><ele>-2.2</ele><time>2022-09-06T15:31:09Z</time><name>PT10176</name></trkpt>
<trkpt lat="52.706480" lon="06.004303"><ele>-2.1</ele><time>2022-09-06T15:31:10Z</time><name>PT10177</name></trkpt>
<trkpt lat="52.706470" lon="06.004298"><ele>-2.1</ele><time>2022-09-06T15:31:11Z</time><name>PT10178</name></trkpt>
<trkpt lat="52.706459" lon="06.004292"><ele>-2.1</ele><time>2022-09-06T15:31:12Z</time><name>PT10179</name></trkpt>
<trkpt lat="52.706449" lon="06.004289"><ele>-2</ele><time>2022-09-06T15:31:13Z</time><name>PT10180</name></trkpt>
<trkpt lat="52.706440" lon="06.004287"><ele>-2.3</ele><time>2022-09-06T15:31:14Z</time><name>PT10181</name></trkpt>
<trkpt lat="52.706431" lon="06.004287"><ele>-2.2</ele><time>2022-09-06T15:31:15Z</time><name>PT10182</name></trkpt>
<trkpt lat="52.706421" lon="06.004285"><ele>-2.1</ele><time>2022-09-06T15:31:16Z</time><name>PT10183</name></trkpt>
<trkpt lat="52.706410" lon="06.004280"><ele>-2</ele><time>2022-09-06T15:31:17Z</time><name>PT10184</name></trkpt>
<trkpt lat="52.706410" lon="06.004274"><ele>-2.1</ele><time>2022-09-06T15:31:18Z</time><name>PT10185</name></trkpt>
<trkpt lat="52.706414" lon="06.004273"><ele>-2</ele><time>2022-09-06T15:31:19Z</time><name>PT10186</name></trkpt>
<trkpt lat="52.706408" lon="06.004276"><ele>-1.9</ele><time>2022-09-06T15:31:20Z</time><name>PT10187</name></trkpt>
<trkpt lat="52.706398" lon="06.004270"><ele>-2</ele><time>2022-09-06T15:31:21Z</time><name>PT10188</name></trkpt>
<trkpt lat="52.706388" lon="06.004267"><ele>-2</ele><time>2022-09-06T15:31:22Z</time><name>PT10189</name></trkpt>
<trkpt lat="52.706380" lon="06.004262"><ele>-2.4</ele><time>2022-09-06T15:31:23Z</time><name>PT10190</name></trkpt>
<trkpt lat="52.706371" lon="06.004254"><ele>-2.4</ele><time>2022-09-06T15:31:24Z</time><name>PT10191</name></trkpt>
<trkpt lat="52.706362" lon="06.004248"><ele>-2.5</ele><time>2022-09-06T15:31:25Z</time><name>PT10192</name></trkpt>
<trkpt lat="52.706353" lon="06.004244"><ele>-2.5</ele><time>2022-09-06T15:31:26Z</time><name>PT10193</name></trkpt>
<trkpt lat="52.706347" lon="06.004243"><ele>-2.5</ele><time>2022-09-06T15:31:27Z</time><name>PT10194</name></trkpt>
<trkpt lat="52.706342" lon="06.004242"><ele>-2.3</ele><time>2022-09-06T15:31:28Z</time><name>PT10195</name></trkpt>
<trkpt lat="52.706335" lon="06.004241"><ele>-2.1</ele><time>2022-09-06T15:31:29Z</time><name>PT10196</name></trkpt>
<trkpt lat="52.706328" lon="06.004242"><ele>-2.1</ele><time>2022-09-06T15:31:30Z</time><name>PT10197</name></trkpt>
<trkpt lat="52.706322" lon="06.004245"><ele>-2</ele><time>2022-09-06T15:31:31Z</time><name>PT10198</name></trkpt>
<trkpt lat="52.706317" lon="06.004252"><ele>-2.3</ele><time>2022-09-06T15:31:32Z</time><name>PT10199</name></trkpt>
<trkpt lat="52.706312" lon="06.004257"><ele>-2.3</ele><time>2022-09-06T15:31:33Z</time><name>PT10200</name></trkpt>
<trkpt lat="52.706308" lon="06.004261"><ele>-2.5</ele><time>2022-09-06T15:31:34Z</time><name>PT10201</name></trkpt>
<trkpt lat="52.706307" lon="06.004266"><ele>-2.5</ele><time>2022-09-06T15:31:35Z</time><name>PT10202</name></trkpt>
<trkpt lat="52.706307" lon="06.004268"><ele>-2.7</ele><time>2022-09-06T15:31:36Z</time><name>PT10203</name></trkpt>
<trkpt lat="52.706307" lon="06.004268"><ele>-2.5</ele><time>2022-09-06T15:31:37Z</time><name>PT10204</name></trkpt>
<trkpt lat="52.706307" lon="06.004268"><ele>-2.5</ele><time>2022-09-06T15:31:38Z</time><name>PT10205</name></trkpt>
<trkpt lat="52.706310" lon="06.004245"><ele>-1.9</ele><time>2022-09-06T15:32:44Z</time><name>PT10206</name></trkpt>
<trkpt lat="52.706305" lon="06.004227"><ele>-1.8</ele><time>2022-09-06T15:32:45Z</time><name>PT10207</name></trkpt>
<trkpt lat="52.706300" lon="06.004216"><ele>-1.9</ele><time>2022-09-06T15:32:46Z</time><name>PT10208</name></trkpt>
<trkpt lat="52.706298" lon="06.004205"><ele>-2</ele><time>2022-09-06T15:32:47Z</time><name>PT10209</name></trkpt>
<trkpt lat="52.706295" lon="06.004198"><ele>-2.1</ele><time>2022-09-06T15:32:48Z</time><name>PT10210</name></trkpt>
<trkpt lat="52.706292" lon="06.004196"><ele>-2.1</ele><time>2022-09-06T15:32:49Z</time><name>PT10211</name></trkpt>
<trkpt lat="52.706290" lon="06.004192"><ele>-2.3</ele><time>2022-09-06T15:32:50Z</time><name>PT10212</name></trkpt>
<trkpt lat="52.706288" lon="06.004188"><ele>-2.3</ele><time>2022-09-06T15:32:51Z</time><name>PT10213</name></trkpt>
<trkpt lat="52.706288" lon="06.004187"><ele>-2.2</ele><time>2022-09-06T15:32:52Z</time><name>PT10214</name></trkpt>
<trkpt lat="52.706288" lon="06.004183"><ele>-2.2</ele><time>2022-09-06T15:32:53Z</time><name>PT10215</name></trkpt>
<trkpt lat="52.706288" lon="06.004177"><ele>-2</ele><time>2022-09-06T15:32:56Z</time><name>PT10216</name></trkpt>
<trkpt lat="52.706286" lon="06.004173"><ele>-2</ele><time>2022-09-06T15:32:57Z</time><name>PT10217</name></trkpt>
<trkpt lat="52.706288" lon="06.004172"><ele>-2</ele><time>2022-09-06T15:32:58Z</time><name>PT10218</name></trkpt>
<trkpt lat="52.706288" lon="06.004172"><ele>-1.8</ele><time>2022-09-06T15:32:59Z</time><name>PT10219</name></trkpt>
<trkpt lat="52.706288" lon="06.004171"><ele>-1.7</ele><time>2022-09-06T15:33:00Z</time><name>PT10220</name></trkpt>
<trkpt lat="52.706290" lon="06.004167"><ele>-1.9</ele><time>2022-09-06T15:33:10Z</time><name>PT10221</name></trkpt>
<trkpt lat="52.706290" lon="06.004165"><ele>-2.2</ele><time>2022-09-06T15:33:11Z</time><name>PT10222</name></trkpt>
<trkpt lat="52.706288" lon="06.004159"><ele>-2.4</ele><time>2022-09-06T15:33:12Z</time><name>PT10223</name></trkpt>
<trkpt lat="52.706287" lon="06.004161"><ele>-2.3</ele><time>2022-09-06T15:33:13Z</time><name>PT10224</name></trkpt>
<trkpt lat="52.706286" lon="06.004161"><ele>-2.5</ele><time>2022-09-06T15:33:14Z</time><name>PT10225</name></trkpt>
<trkpt lat="52.706286" lon="06.004161"><ele>-2.5</ele><time>2022-09-06T15:33:15Z</time><name>PT10226</name></trkpt>
<trkpt lat="52.706285" lon="06.004160"><ele>-2.3</ele><time>2022-09-06T15:33:16Z</time><name>PT10227</name></trkpt>
<trkpt lat="52.706283" lon="06.004161"><ele>-1.6</ele><time>2022-09-06T15:36:47Z</time><name>PT10228</name></trkpt>
<trkpt lat="52.706281" lon="06.004159"><ele>-1.6</ele><time>2022-09-06T15:36:48Z</time><name>PT10229</name></trkpt>
<trkpt lat="52.706279" lon="06.004155"><ele>-1.6</ele><time>2022-09-06T15:36:49Z</time><name>PT10230</name></trkpt>
<trkpt lat="52.706282" lon="06.004159"><ele>-1.5</ele><time>2022-09-06T15:37:34Z</time><name>PT10231</name></trkpt>
<trkpt lat="52.706283" lon="06.004160"><ele>-1.5</ele><time>2022-09-06T15:37:35Z</time><name>PT10232</name></trkpt>
<trkpt lat="52.706282" lon="06.004161"><ele>-1.5</ele><time>2022-09-06T15:37:36Z</time><name>PT10233</name></trkpt>
<trkpt lat="52.706279" lon="06.004153"><ele>-1.5</ele><time>2022-09-06T15:37:37Z</time><name>PT10234</name></trkpt>
<trkpt lat="52.706277" lon="06.004145"><ele>-1.2</ele><time>2022-09-06T15:37:38Z</time><name>PT10235</name></trkpt>
<trkpt lat="52.706281" lon="06.004140"><ele>-1.3</ele><time>2022-09-06T15:38:22Z</time><name>PT10236</name></trkpt>
<trkpt lat="52.706279" lon="06.004132"><ele>-1.5</ele><time>2022-09-06T15:38:23Z</time><name>PT10237</name></trkpt>
<trkpt lat="52.706276" lon="06.004126"><ele>-1.5</ele><time>2022-09-06T15:38:24Z</time><name>PT10238</name></trkpt>
<trkpt lat="52.706276" lon="06.004123"><ele>-1.3</ele><time>2022-09-06T15:38:25Z</time><name>PT10239</name></trkpt>
<trkpt lat="52.706276" lon="06.004125"><ele>-1.2</ele><time>2022-09-06T15:38:26Z</time><name>PT10240</name></trkpt>
<trkpt lat="52.706279" lon="06.004120"><ele>-1.2</ele><time>2022-09-06T15:38:36Z</time><name>PT10241</name></trkpt>
<trkpt lat="52.706278" lon="06.004106"><ele>-1</ele><time>2022-09-06T15:38:37Z</time><name>PT10242</name></trkpt>
<trkpt lat="52.706275" lon="06.004093"><ele>0.9</ele><time>2022-09-06T15:38:38Z</time><name>PT10243</name></trkpt>
<trkpt lat="52.706270" lon="06.004085"><ele>0.9</ele><time>2022-09-06T15:38:39Z</time><name>PT10244</name></trkpt>
<trkpt lat="52.706269" lon="06.004075"><ele>0.6</ele><time>2022-09-06T15:38:40Z</time><name>PT10245</name></trkpt>
<trkpt lat="52.706266" lon="06.004066"><ele>0.6</ele><time>2022-09-06T15:38:41Z</time><name>PT10246</name></trkpt>
<trkpt lat="52.706263" lon="06.004057"><ele>0.8</ele><time>2022-09-06T15:38:42Z</time><name>PT10247</name></trkpt>
<trkpt lat="52.706261" lon="06.004046"><ele>0.5</ele><time>2022-09-06T15:38:43Z</time><name>PT10248</name></trkpt>
<trkpt lat="52.706257" lon="06.004033"><ele>0.5</ele><time>2022-09-06T15:38:44Z</time><name>PT10249</name></trkpt>
<trkpt lat="52.706255" lon="06.004018"><ele>0.6</ele><time>2022-09-06T15:38:45Z</time><name>PT10250</name></trkpt>
<trkpt lat="52.706253" lon="06.004001"><ele>0.6</ele><time>2022-09-06T15:38:46Z</time><name>PT10251</name></trkpt>
<trkpt lat="52.706251" lon="06.003985"><ele>0.7</ele><time>2022-09-06T15:38:47Z</time><name>PT10252</name></trkpt>
<trkpt lat="52.706248" lon="06.003970"><ele>0.8</ele><time>2022-09-06T15:38:48Z</time><name>PT10253</name></trkpt>
<trkpt lat="52.706246" lon="06.003955"><ele>-1</ele><time>2022-09-06T15:38:49Z</time><name>PT10254</name></trkpt>
<trkpt lat="52.706243" lon="06.003940"><ele>-1.1</ele><time>2022-09-06T15:38:50Z</time><name>PT10255</name></trkpt>
<trkpt lat="52.706240" lon="06.003925"><ele>-1.2</ele><time>2022-09-06T15:38:51Z</time><name>PT10256</name></trkpt>
<trkpt lat="52.706237" lon="06.003908"><ele>-1.2</ele><time>2022-09-06T15:38:52Z</time><name>PT10257</name></trkpt>
<trkpt lat="52.706234" lon="06.003893"><ele>-1</ele><time>2022-09-06T15:38:53Z</time><name>PT10258</name></trkpt>
<trkpt lat="52.706231" lon="06.003876"><ele>-1</ele><time>2022-09-06T15:38:54Z</time><name>PT10259</name></trkpt>
<trkpt lat="52.706228" lon="06.003859"><ele>0.9</ele><time>2022-09-06T15:38:55Z</time><name>PT10260</name></trkpt>
<trkpt lat="52.706223" lon="06.003841"><ele>0.8</ele><time>2022-09-06T15:38:56Z</time><name>PT10261</name></trkpt>
<trkpt lat="52.706219" lon="06.003824"><ele>0.8</ele><time>2022-09-06T15:38:57Z</time><name>PT10262</name></trkpt>
<trkpt lat="52.706218" lon="06.003806"><ele>-1</ele><time>2022-09-06T15:38:58Z</time><name>PT10263</name></trkpt>
<trkpt lat="52.706216" lon="06.003788"><ele>-1</ele><time>2022-09-06T15:38:59Z</time><name>PT10264</name></trkpt>
<trkpt lat="52.706214" lon="06.003771"><ele>-1.1</ele><time>2022-09-06T15:39:00Z</time><name>PT10265</name></trkpt>
<trkpt lat="52.706212" lon="06.003756"><ele>-1.1</ele><time>2022-09-06T15:39:01Z</time><name>PT10266</name></trkpt>
<trkpt lat="52.706209" lon="06.003742"><ele>-1.1</ele><time>2022-09-06T15:39:02Z</time><name>PT10267</name></trkpt>
<trkpt lat="52.706205" lon="06.003729"><ele>-1</ele><time>2022-09-06T15:39:03Z</time><name>PT10268</name></trkpt>
<trkpt lat="52.706202" lon="06.003717"><ele>-1</ele><time>2022-09-06T15:39:04Z</time><name>PT10269</name></trkpt>
<trkpt lat="52.706201" lon="06.003706"><ele>0.9</ele><time>2022-09-06T15:39:05Z</time><name>PT10270</name></trkpt>
<trkpt lat="52.706199" lon="06.003694"><ele>0.9</ele><time>2022-09-06T15:39:06Z</time><name>PT10271</name></trkpt>
<trkpt lat="52.706199" lon="06.003691"><ele>0.7</ele><time>2022-09-06T15:39:07Z</time><name>PT10272</name></trkpt>
<trkpt lat="52.706199" lon="06.003690"><ele>0.8</ele><time>2022-09-06T15:39:08Z</time><name>PT10273</name></trkpt>
<trkpt lat="52.706199" lon="06.003690"><ele>0.7</ele><time>2022-09-06T15:39:09Z</time><name>PT10274</name></trkpt>
<trkpt lat="52.706199" lon="06.003687"><ele>0.9</ele><time>2022-09-06T15:39:21Z</time><name>PT10275</name></trkpt>
<trkpt lat="52.706198" lon="06.003672"><ele>-1.1</ele><time>2022-09-06T15:39:22Z</time><name>PT10276</name></trkpt>
<trkpt lat="52.706197" lon="06.003656"><ele>-1.3</ele><time>2022-09-06T15:39:23Z</time><name>PT10277</name></trkpt>
<trkpt lat="52.706196" lon="06.003639"><ele>-1.4</ele><time>2022-09-06T15:39:24Z</time><name>PT10278</name></trkpt>
<trkpt lat="52.706194" lon="06.003622"><ele>-1.3</ele><time>2022-09-06T15:39:25Z</time><name>PT10279</name></trkpt>
<trkpt lat="52.706193" lon="06.003605"><ele>-1.1</ele><time>2022-09-06T15:39:26Z</time><name>PT10280</name></trkpt>
<trkpt lat="52.706193" lon="06.003587"><ele>-1.1</ele><time>2022-09-06T15:39:27Z</time><name>PT10281</name></trkpt>
<trkpt lat="52.706190" lon="06.003570"><ele>0.9</ele><time>2022-09-06T15:39:28Z</time><name>PT10282</name></trkpt>
<trkpt lat="52.706188" lon="06.003554"><ele>-1</ele><time>2022-09-06T15:39:29Z</time><name>PT10283</name></trkpt>
<trkpt lat="52.706186" lon="06.003537"><ele>-1.2</ele><time>2022-09-06T15:39:30Z</time><name>PT10284</name></trkpt>
<trkpt lat="52.706182" lon="06.003521"><ele>-1.2</ele><time>2022-09-06T15:39:31Z</time><name>PT10285</name></trkpt>
<trkpt lat="52.706178" lon="06.003504"><ele>-1.2</ele><time>2022-09-06T15:39:32Z</time><name>PT10286</name></trkpt>
<trkpt lat="52.706176" lon="06.003490"><ele>-1.2</ele><time>2022-09-06T15:39:33Z</time><name>PT10287</name></trkpt>
<trkpt lat="52.706175" lon="06.003471"><ele>-1</ele><time>2022-09-06T15:39:34Z</time><name>PT10288</name></trkpt>
<trkpt lat="52.706171" lon="06.003454"><ele>0.7</ele><time>2022-09-06T15:39:35Z</time><name>PT10289</name></trkpt>
<trkpt lat="52.706168" lon="06.003437"><ele>0.9</ele><time>2022-09-06T15:39:36Z</time><name>PT10290</name></trkpt>
<trkpt lat="52.706166" lon="06.003419"><ele>0.9</ele><time>2022-09-06T15:39:37Z</time><name>PT10291</name></trkpt>
<trkpt lat="52.706166" lon="06.003403"><ele>-1</ele><time>2022-09-06T15:39:38Z</time><name>PT10292</name></trkpt>
<trkpt lat="52.706164" lon="06.003387"><ele>-1</ele><time>2022-09-06T15:39:39Z</time><name>PT10293</name></trkpt>
<trkpt lat="52.706160" lon="06.003370"><ele>-1</ele><time>2022-09-06T15:39:40Z</time><name>PT10294</name></trkpt>
<trkpt lat="52.706155" lon="06.003352"><ele>0.8</ele><time>2022-09-06T15:39:41Z</time><name>PT10295</name></trkpt>
<trkpt lat="52.706152" lon="06.003336"><ele>0.7</ele><time>2022-09-06T15:39:42Z</time><name>PT10296</name></trkpt>
<trkpt lat="52.706150" lon="06.003319"><ele>0.8</ele><time>2022-09-06T15:39:43Z</time><name>PT10297</name></trkpt>
<trkpt lat="52.706147" lon="06.003303"><ele>-1.1</ele><time>2022-09-06T15:39:44Z</time><name>PT10298</name></trkpt>
<trkpt lat="52.706146" lon="06.003287"><ele>-1.1</ele><time>2022-09-06T15:39:45Z</time><name>PT10299</name></trkpt>
<trkpt lat="52.706145" lon="06.003270"><ele>-1.3</ele><time>2022-09-06T15:39:46Z</time><name>PT10300</name></trkpt>
<trkpt lat="52.706142" lon="06.003252"><ele>-1.4</ele><time>2022-09-06T15:39:47Z</time><name>PT10301</name></trkpt>
<trkpt lat="52.706138" lon="06.003235"><ele>-1.2</ele><time>2022-09-06T15:39:48Z</time><name>PT10302</name></trkpt>
<trkpt lat="52.706135" lon="06.003218"><ele>-1.1</ele><time>2022-09-06T15:39:49Z</time><name>PT10303</name></trkpt>
<trkpt lat="52.706132" lon="06.003200"><ele>-1</ele><time>2022-09-06T15:39:50Z</time><name>PT10304</name></trkpt>
<trkpt lat="52.706129" lon="06.003182"><ele>-1</ele><time>2022-09-06T15:39:51Z</time><name>PT10305</name></trkpt>
<trkpt lat="52.706126" lon="06.003164"><ele>-1</ele><time>2022-09-06T15:39:52Z</time><name>PT10306</name></trkpt>
<trkpt lat="52.706124" lon="06.003147"><ele>-1</ele><time>2022-09-06T15:39:53Z</time><name>PT10307</name></trkpt>
<trkpt lat="52.706122" lon="06.003131"><ele>-1.1</ele><time>2022-09-06T15:39:54Z</time><name>PT10308</name></trkpt>
<trkpt lat="52.706119" lon="06.003111"><ele>-1.3</ele><time>2022-09-06T15:39:55Z</time><name>PT10309</name></trkpt>
<trkpt lat="52.706118" lon="06.003091"><ele>-1.3</ele><time>2022-09-06T15:39:56Z</time><name>PT10310</name></trkpt>
<trkpt lat="52.706118" lon="06.003070"><ele>-1.3</ele><time>2022-09-06T15:39:57Z</time><name>PT10311</name></trkpt>
<trkpt lat="52.706116" lon="06.003054"><ele>-1.2</ele><time>2022-09-06T15:39:58Z</time><name>PT10312</name></trkpt>
<trkpt lat="52.706113" lon="06.003039"><ele>-1.1</ele><time>2022-09-06T15:39:59Z</time><name>PT10313</name></trkpt>
<trkpt lat="52.706110" lon="06.003024"><ele>-1</ele><time>2022-09-06T15:40:00Z</time><name>PT10314</name></trkpt>
<trkpt lat="52.706106" lon="06.003005"><ele>-1</ele><time>2022-09-06T15:40:01Z</time><name>PT10315</name></trkpt>
<trkpt lat="52.706103" lon="06.002989"><ele>-1</ele><time>2022-09-06T15:40:02Z</time><name>PT10316</name></trkpt>
<trkpt lat="52.706100" lon="06.002973"><ele>0.8</ele><time>2022-09-06T15:40:03Z</time><name>PT10317</name></trkpt>
<trkpt lat="52.706098" lon="06.002956"><ele>-1</ele><time>2022-09-06T15:40:04Z</time><name>PT10318</name></trkpt>
<trkpt lat="52.706097" lon="06.002939"><ele>0.9</ele><time>2022-09-06T15:40:05Z</time><name>PT10319</name></trkpt>
<trkpt lat="52.706097" lon="06.002920"><ele>0.9</ele><time>2022-09-06T15:40:06Z</time><name>PT10320</name></trkpt>
<trkpt lat="52.706097" lon="06.002902"><ele>0.9</ele><time>2022-09-06T15:40:07Z</time><name>PT10321</name></trkpt>
<trkpt lat="52.706095" lon="06.002883"><ele>-1</ele><time>2022-09-06T15:40:08Z</time><name>PT10322</name></trkpt>
<trkpt lat="52.706092" lon="06.002867"><ele>-1</ele><time>2022-09-06T15:40:09Z</time><name>PT10323</name></trkpt>
<trkpt lat="52.706091" lon="06.002850"><ele>-1</ele><time>2022-09-06T15:40:10Z</time><name>PT10324</name></trkpt>
<trkpt lat="52.706088" lon="06.002833"><ele>-1.1</ele><time>2022-09-06T15:40:11Z</time><name>PT10325</name></trkpt>
<trkpt lat="52.706084" lon="06.002813"><ele>-1.3</ele><time>2022-09-06T15:40:12Z</time><name>PT10326</name></trkpt>
<trkpt lat="52.706081" lon="06.002798"><ele>-1.4</ele><time>2022-09-06T15:40:13Z</time><name>PT10327</name></trkpt>
<trkpt lat="52.706078" lon="06.002782"><ele>-1.4</ele><time>2022-09-06T15:40:14Z</time><name>PT10328</name></trkpt>
<trkpt lat="52.706077" lon="06.002766"><ele>-1.4</ele><time>2022-09-06T15:40:15Z</time><name>PT10329</name></trkpt>
<trkpt lat="52.706076" lon="06.002748"><ele>-1.3</ele><time>2022-09-06T15:40:16Z</time><name>PT10330</name></trkpt>
<trkpt lat="52.706075" lon="06.002727"><ele>-1.1</ele><time>2022-09-06T15:40:17Z</time><name>PT10331</name></trkpt>
<trkpt lat="52.706074" lon="06.002708"><ele>-1</ele><time>2022-09-06T15:40:18Z</time><name>PT10332</name></trkpt>
<trkpt lat="52.706074" lon="06.002688"><ele>0.9</ele><time>2022-09-06T15:40:19Z</time><name>PT10333</name></trkpt>
<trkpt lat="52.706073" lon="06.002670"><ele>0.8</ele><time>2022-09-06T15:40:20Z</time><name>PT10334</name></trkpt>
<trkpt lat="52.706072" lon="06.002657"><ele>0.7</ele><time>2022-09-06T15:40:21Z</time><name>PT10335</name></trkpt>
<trkpt lat="52.706071" lon="06.002643"><ele>0.7</ele><time>2022-09-06T15:40:22Z</time><name>PT10336</name></trkpt>
<trkpt lat="52.706072" lon="06.002630"><ele>0.8</ele><time>2022-09-06T15:40:23Z</time><name>PT10337</name></trkpt>
<trkpt lat="52.706071" lon="06.002614"><ele>-1</ele><time>2022-09-06T15:40:24Z</time><name>PT10338</name></trkpt>
<trkpt lat="52.706068" lon="06.002599"><ele>-1</ele><time>2022-09-06T15:40:25Z</time><name>PT10339</name></trkpt>
<trkpt lat="52.706065" lon="06.002587"><ele>-1.2</ele><time>2022-09-06T15:40:26Z</time><name>PT10340</name></trkpt>
<trkpt lat="52.706060" lon="06.002570"><ele>-1.1</ele><time>2022-09-06T15:40:27Z</time><name>PT10341</name></trkpt>
<trkpt lat="52.706059" lon="06.002553"><ele>-1.1</ele><time>2022-09-06T15:40:28Z</time><name>PT10342</name></trkpt>
<trkpt lat="52.706060" lon="06.002533"><ele>-1.1</ele><time>2022-09-06T15:40:29Z</time><name>PT10343</name></trkpt>
<trkpt lat="52.706059" lon="06.002518"><ele>-1.2</ele><time>2022-09-06T15:40:30Z</time><name>PT10344</name></trkpt>
<trkpt lat="52.706059" lon="06.002504"><ele>-1</ele><time>2022-09-06T15:40:31Z</time><name>PT10345</name></trkpt>
<trkpt lat="52.706058" lon="06.002488"><ele>0.9</ele><time>2022-09-06T15:40:32Z</time><name>PT10346</name></trkpt>
<trkpt lat="52.706057" lon="06.002471"><ele>-1</ele><time>2022-09-06T15:40:33Z</time><name>PT10347</name></trkpt>
<trkpt lat="52.706056" lon="06.002454"><ele>0.8</ele><time>2022-09-06T15:40:34Z</time><name>PT10348</name></trkpt>
<trkpt lat="52.706054" lon="06.002439"><ele>0.8</ele><time>2022-09-06T15:40:35Z</time><name>PT10349</name></trkpt>
<trkpt lat="52.706054" lon="06.002423"><ele>-1</ele><time>2022-09-06T15:40:36Z</time><name>PT10350</name></trkpt>
<trkpt lat="52.706054" lon="06.002400"><ele>-1</ele><time>2022-09-06T15:40:37Z</time><name>PT10351</name></trkpt>
<trkpt lat="52.706054" lon="06.002377"><ele>-1.1</ele><time>2022-09-06T15:40:38Z</time><name>PT10352</name></trkpt>
<trkpt lat="52.706056" lon="06.002360"><ele>-1.2</ele><time>2022-09-06T15:40:39Z</time><name>PT10353</name></trkpt>
<trkpt lat="52.706057" lon="06.002340"><ele>-1.1</ele><time>2022-09-06T15:40:40Z</time><name>PT10354</name></trkpt>
<trkpt lat="52.706059" lon="06.002321"><ele>-1.3</ele><time>2022-09-06T15:40:41Z</time><name>PT10355</name></trkpt>
<trkpt lat="52.706058" lon="06.002305"><ele>-1.4</ele><time>2022-09-06T15:40:42Z</time><name>PT10356</name></trkpt>
<trkpt lat="52.706055" lon="06.002288"><ele>-1.1</ele><time>2022-09-06T15:40:43Z</time><name>PT10357</name></trkpt>
<trkpt lat="52.706052" lon="06.002272"><ele>-1.3</ele><time>2022-09-06T15:40:44Z</time><name>PT10358</name></trkpt>
<trkpt lat="52.706051" lon="06.002255"><ele>-1.2</ele><time>2022-09-06T15:40:45Z</time><name>PT10359</name></trkpt>
<trkpt lat="52.706050" lon="06.002236"><ele>-1</ele><time>2022-09-06T15:40:46Z</time><name>PT10360</name></trkpt>
<trkpt lat="52.706048" lon="06.002220"><ele>0.9</ele><time>2022-09-06T15:40:47Z</time><name>PT10361</name></trkpt>
<trkpt lat="52.706046" lon="06.002205"><ele>0.9</ele><time>2022-09-06T15:40:48Z</time><name>PT10362</name></trkpt>
<trkpt lat="52.706047" lon="06.002183"><ele>0.8</ele><time>2022-09-06T15:40:49Z</time><name>PT10363</name></trkpt>
<trkpt lat="52.706049" lon="06.002164"><ele>0.9</ele><time>2022-09-06T15:40:50Z</time><name>PT10364</name></trkpt>
<trkpt lat="52.706049" lon="06.002147"><ele>-1</ele><time>2022-09-06T15:40:51Z</time><name>PT10365</name></trkpt>
<trkpt lat="52.706048" lon="06.002128"><ele>-1.1</ele><time>2022-09-06T15:40:52Z</time><name>PT10366</name></trkpt>
<trkpt lat="52.706049" lon="06.002109"><ele>-1</ele><time>2022-09-06T15:40:53Z</time><name>PT10367</name></trkpt>
<trkpt lat="52.706048" lon="06.002093"><ele>-1.1</ele><time>2022-09-06T15:40:54Z</time><name>PT10368</name></trkpt>
<trkpt lat="52.706047" lon="06.002077"><ele>-1</ele><time>2022-09-06T15:40:55Z</time><name>PT10369</name></trkpt>
<trkpt lat="52.706044" lon="06.002061"><ele>-1.2</ele><time>2022-09-06T15:40:56Z</time><name>PT10370</name></trkpt>
<trkpt lat="52.706043" lon="06.002046"><ele>-1</ele><time>2022-09-06T15:40:57Z</time><name>PT10371</name></trkpt>
<trkpt lat="52.706042" lon="06.002036"><ele>-1</ele><time>2022-09-06T15:40:58Z</time><name>PT10372</name></trkpt>
<trkpt lat="52.706042" lon="06.002027"><ele>-1.1</ele><time>2022-09-06T15:40:59Z</time><name>PT10373</name></trkpt>
<trkpt lat="52.706042" lon="06.002026"><ele>-1.2</ele><time>2022-09-06T15:41:00Z</time><name>PT10374</name></trkpt>
<trkpt lat="52.706041" lon="06.002026"><ele>-1</ele><time>2022-09-06T15:41:01Z</time><name>PT10375</name></trkpt>
<trkpt lat="52.706047" lon="06.002015"><ele>0.8</ele><time>2022-09-06T15:41:15Z</time><name>PT10376</name></trkpt>
<trkpt lat="52.706046" lon="06.002003"><ele>-1</ele><time>2022-09-06T15:41:16Z</time><name>PT10377</name></trkpt>
<trkpt lat="52.706044" lon="06.001987"><ele>0.9</ele><time>2022-09-06T15:41:17Z</time><name>PT10378</name></trkpt>
<trkpt lat="52.706042" lon="06.001973"><ele>0.8</ele><time>2022-09-06T15:41:18Z</time><name>PT10379</name></trkpt>
<trkpt lat="52.706042" lon="06.001964"><ele>0.8</ele><time>2022-09-06T15:41:19Z</time><name>PT10380</name></trkpt>
<trkpt lat="52.706041" lon="06.001950"><ele>0.5</ele><time>2022-09-06T15:41:20Z</time><name>PT10381</name></trkpt>
<trkpt lat="52.706040" lon="06.001938"><ele>0.5</ele><time>2022-09-06T15:41:21Z</time><name>PT10382</name></trkpt>
<trkpt lat="52.706040" lon="06.001924"><ele>0.6</ele><time>2022-09-06T15:41:22Z</time><name>PT10383</name></trkpt>
<trkpt lat="52.706039" lon="06.001908"><ele>0.9</ele><time>2022-09-06T15:41:23Z</time><name>PT10384</name></trkpt>
<trkpt lat="52.706037" lon="06.001895"><ele>0.8</ele><time>2022-09-06T15:41:24Z</time><name>PT10385</name></trkpt>
<trkpt lat="52.706036" lon="06.001879"><ele>-1</ele><time>2022-09-06T15:41:25Z</time><name>PT10386</name></trkpt>
<trkpt lat="52.706035" lon="06.001864"><ele>-1</ele><time>2022-09-06T15:41:26Z</time><name>PT10387</name></trkpt>
<trkpt lat="52.706032" lon="06.001849"><ele>0.9</ele><time>2022-09-06T15:41:27Z</time><name>PT10388</name></trkpt>
<trkpt lat="52.706032" lon="06.001835"><ele>-1</ele><time>2022-09-06T15:41:28Z</time><name>PT10389</name></trkpt>
<trkpt lat="52.706029" lon="06.001820"><ele>-1</ele><time>2022-09-06T15:41:29Z</time><name>PT10390</name></trkpt>
<trkpt lat="52.706025" lon="06.001805"><ele>-1</ele><time>2022-09-06T15:41:30Z</time><name>PT10391</name></trkpt>
<trkpt lat="52.706024" lon="06.001789"><ele>-1.1</ele><time>2022-09-06T15:41:31Z</time><name>PT10392</name></trkpt>
<trkpt lat="52.706022" lon="06.001773"><ele>-1</ele><time>2022-09-06T15:41:32Z</time><name>PT10393</name></trkpt>
<trkpt lat="52.706020" lon="06.001757"><ele>0.9</ele><time>2022-09-06T15:41:33Z</time><name>PT10394</name></trkpt>
<trkpt lat="52.706022" lon="06.001742"><ele>0.7</ele><time>2022-09-06T15:41:34Z</time><name>PT10395</name></trkpt>
<trkpt lat="52.706023" lon="06.001720"><ele>-1</ele><time>2022-09-06T15:41:35Z</time><name>PT10396</name></trkpt>
<trkpt lat="52.706026" lon="06.001702"><ele>-1</ele><time>2022-09-06T15:41:36Z</time><name>PT10397</name></trkpt>
<trkpt lat="52.706024" lon="06.001689"><ele>-1.2</ele><time>2022-09-06T15:41:37Z</time><name>PT10398</name></trkpt>
<trkpt lat="52.706021" lon="06.001677"><ele>-1.3</ele><time>2022-09-06T15:41:38Z</time><name>PT10399</name></trkpt>
<trkpt lat="52.706022" lon="06.001663"><ele>-1.4</ele><time>2022-09-06T15:41:39Z</time><name>PT10400</name></trkpt>
<trkpt lat="52.706020" lon="06.001659"><ele>-1.2</ele><time>2022-09-06T15:41:40Z</time><name>PT10401</name></trkpt>
<trkpt lat="52.706020" lon="06.001658"><ele>-1.3</ele><time>2022-09-06T15:41:41Z</time><name>PT10402</name></trkpt>
<trkpt lat="52.706019" lon="06.001657"><ele>-1.2</ele><time>2022-09-06T15:41:42Z</time><name>PT10403</name></trkpt>
<trkpt lat="52.706016" lon="06.001642"><ele>-1</ele><time>2022-09-06T15:41:44Z</time><name>PT10404</name></trkpt>
<trkpt lat="52.706010" lon="06.001622"><ele>-1</ele><time>2022-09-06T15:41:45Z</time><name>PT10405</name></trkpt>
<trkpt lat="52.706008" lon="06.001604"><ele>0.7</ele><time>2022-09-06T15:41:46Z</time><name>PT10406</name></trkpt>
<trkpt lat="52.706008" lon="06.001585"><ele>0.8</ele><time>2022-09-06T15:41:47Z</time><name>PT10407</name></trkpt>
<trkpt lat="52.706007" lon="06.001569"><ele>0.8</ele><time>2022-09-06T15:41:48Z</time><name>PT10408</name></trkpt>
<trkpt lat="52.706006" lon="06.001552"><ele>0.8</ele><time>2022-09-06T15:41:49Z</time><name>PT10409</name></trkpt>
<trkpt lat="52.706003" lon="06.001536"><ele>0.9</ele><time>2022-09-06T15:41:50Z</time><name>PT10410</name></trkpt>
<trkpt lat="52.706002" lon="06.001521"><ele>-1</ele><time>2022-09-06T15:41:51Z</time><name>PT10411</name></trkpt>
<trkpt lat="52.706002" lon="06.001514"><ele>-1</ele><time>2022-09-06T15:41:52Z</time><name>PT10412</name></trkpt>
<trkpt lat="52.706001" lon="06.001511"><ele>-1.1</ele><time>2022-09-06T15:41:53Z</time><name>PT10413</name></trkpt>
<trkpt lat="52.706000" lon="06.001508"><ele>-1.2</ele><time>2022-09-06T15:41:54Z</time><name>PT10414</name></trkpt>
<trkpt lat="52.705999" lon="06.001500"><ele>-1.2</ele><time>2022-09-06T15:41:55Z</time><name>PT10415</name></trkpt>
<trkpt lat="52.705998" lon="06.001486"><ele>-1.1</ele><time>2022-09-06T15:41:56Z</time><name>PT10416</name></trkpt>
<trkpt lat="52.705996" lon="06.001471"><ele>-1</ele><time>2022-09-06T15:41:57Z</time><name>PT10417</name></trkpt>
<trkpt lat="52.705994" lon="06.001460"><ele>-1</ele><time>2022-09-06T15:41:58Z</time><name>PT10418</name></trkpt>
<trkpt lat="52.705993" lon="06.001447"><ele>-1</ele><time>2022-09-06T15:41:59Z</time><name>PT10419</name></trkpt>
<trkpt lat="52.705995" lon="06.001414"><ele>-1.2</ele><time>2022-09-06T15:42:01Z</time><name>PT10420</name></trkpt>
<trkpt lat="52.705995" lon="06.001396"><ele>-1.3</ele><time>2022-09-06T15:42:02Z</time><name>PT10421</name></trkpt>
<trkpt lat="52.705995" lon="06.001379"><ele>-1.2</ele><time>2022-09-06T15:42:03Z</time><name>PT10422</name></trkpt>
<trkpt lat="52.705992" lon="06.001361"><ele>-1</ele><time>2022-09-06T15:42:04Z</time><name>PT10423</name></trkpt>
<trkpt lat="52.705990" lon="06.001344"><ele>0.9</ele><time>2022-09-06T15:42:05Z</time><name>PT10424</name></trkpt>
<trkpt lat="52.705988" lon="06.001326"><ele>0.9</ele><time>2022-09-06T15:42:06Z</time><name>PT10425</name></trkpt>
<trkpt lat="52.705988" lon="06.001310"><ele>0.7</ele><time>2022-09-06T15:42:07Z</time><name>PT10426</name></trkpt>
<trkpt lat="52.705987" lon="06.001293"><ele>0.7</ele><time>2022-09-06T15:42:08Z</time><name>PT10427</name></trkpt>
<trkpt lat="52.705987" lon="06.001275"><ele>0.9</ele><time>2022-09-06T15:42:09Z</time><name>PT10428</name></trkpt>
<trkpt lat="52.705988" lon="06.001257"><ele>0.9</ele><time>2022-09-06T15:42:10Z</time><name>PT10429</name></trkpt>
<trkpt lat="52.705988" lon="06.001240"><ele>0.8</ele><time>2022-09-06T15:42:11Z</time><name>PT10430</name></trkpt>
<trkpt lat="52.705989" lon="06.001222"><ele>0.9</ele><time>2022-09-06T15:42:12Z</time><name>PT10431</name></trkpt>
<trkpt lat="52.705988" lon="06.001204"><ele>-1</ele><time>2022-09-06T15:42:13Z</time><name>PT10432</name></trkpt>
<trkpt lat="52.705986" lon="06.001187"><ele>-1</ele><time>2022-09-06T15:42:14Z</time><name>PT10433</name></trkpt>
<trkpt lat="52.705985" lon="06.001169"><ele>0.8</ele><time>2022-09-06T15:42:15Z</time><name>PT10434</name></trkpt>
<trkpt lat="52.705984" lon="06.001150"><ele>0.8</ele><time>2022-09-06T15:42:16Z</time><name>PT10435</name></trkpt>
<trkpt lat="52.705982" lon="06.001129"><ele>0.7</ele><time>2022-09-06T15:42:17Z</time><name>PT10436</name></trkpt>
<trkpt lat="52.705981" lon="06.001111"><ele>0.7</ele><time>2022-09-06T15:42:18Z</time><name>PT10437</name></trkpt>
<trkpt lat="52.705980" lon="06.001091"><ele>0.8</ele><time>2022-09-06T15:42:19Z</time><name>PT10438</name></trkpt>
<trkpt lat="52.705979" lon="06.001073"><ele>0.9</ele><time>2022-09-06T15:42:20Z</time><name>PT10439</name></trkpt>
<trkpt lat="52.705977" lon="06.001055"><ele>0.8</ele><time>2022-09-06T15:42:21Z</time><name>PT10440</name></trkpt>
<trkpt lat="52.705976" lon="06.001037"><ele>0.8</ele><time>2022-09-06T15:42:22Z</time><name>PT10441</name></trkpt>
<trkpt lat="52.705976" lon="06.001019"><ele>0.8</ele><time>2022-09-06T15:42:23Z</time><name>PT10442</name></trkpt>
<trkpt lat="52.705977" lon="06.001002"><ele>0.6</ele><time>2022-09-06T15:42:24Z</time><name>PT10443</name></trkpt>
<trkpt lat="52.705977" lon="06.000985"><ele>0.6</ele><time>2022-09-06T15:42:25Z</time><name>PT10444</name></trkpt>
<trkpt lat="52.705977" lon="06.000966"><ele>0.7</ele><time>2022-09-06T15:42:26Z</time><name>PT10445</name></trkpt>
<trkpt lat="52.705977" lon="06.000947"><ele>0.8</ele><time>2022-09-06T15:42:27Z</time><name>PT10446</name></trkpt>
<trkpt lat="52.705975" lon="06.000929"><ele>0.8</ele><time>2022-09-06T15:42:28Z</time><name>PT10447</name></trkpt>
<trkpt lat="52.705974" lon="06.000911"><ele>0.8</ele><time>2022-09-06T15:42:29Z</time><name>PT10448</name></trkpt>
<trkpt lat="52.705973" lon="06.000893"><ele>0.9</ele><time>2022-09-06T15:42:30Z</time><name>PT10449</name></trkpt>
<trkpt lat="52.705971" lon="06.000874"><ele>0.9</ele><time>2022-09-06T15:42:31Z</time><name>PT10450</name></trkpt>
<trkpt lat="52.705970" lon="06.000857"><ele>0.9</ele><time>2022-09-06T15:42:32Z</time><name>PT10451</name></trkpt>
<trkpt lat="52.705969" lon="06.000838"><ele>0.9</ele><time>2022-09-06T15:42:33Z</time><name>PT10452</name></trkpt>
<trkpt lat="52.705968" lon="06.000819"><ele>0.9</ele><time>2022-09-06T15:42:34Z</time><name>PT10453</name></trkpt>
<trkpt lat="52.705967" lon="06.000802"><ele>0.8</ele><time>2022-09-06T15:42:35Z</time><name>PT10454</name></trkpt>
<trkpt lat="52.705966" lon="06.000783"><ele>0.7</ele><time>2022-09-06T15:42:36Z</time><name>PT10455</name></trkpt>
<trkpt lat="52.705965" lon="06.000764"><ele>0.6</ele><time>2022-09-06T15:42:37Z</time><name>PT10456</name></trkpt>
<trkpt lat="52.705965" lon="06.000745"><ele>0.6</ele><time>2022-09-06T15:42:38Z</time><name>PT10457</name></trkpt>
<trkpt lat="52.705964" lon="06.000728"><ele>0.7</ele><time>2022-09-06T15:42:39Z</time><name>PT10458</name></trkpt>
<trkpt lat="52.705964" lon="06.000710"><ele>0.9</ele><time>2022-09-06T15:42:40Z</time><name>PT10459</name></trkpt>
<trkpt lat="52.705965" lon="06.000692"><ele>-1</ele><time>2022-09-06T15:42:41Z</time><name>PT10460</name></trkpt>
<trkpt lat="52.705964" lon="06.000675"><ele>-1.1</ele><time>2022-09-06T15:42:42Z</time><name>PT10461</name></trkpt>
<trkpt lat="52.705963" lon="06.000659"><ele>-1.2</ele><time>2022-09-06T15:42:43Z</time><name>PT10462</name></trkpt>
<trkpt lat="52.705962" lon="06.000643"><ele>-1.2</ele><time>2022-09-06T15:42:44Z</time><name>PT10463</name></trkpt>
<trkpt lat="52.705960" lon="06.000626"><ele>-1</ele><time>2022-09-06T15:42:45Z</time><name>PT10464</name></trkpt>
<trkpt lat="52.705959" lon="06.000608"><ele>-1</ele><time>2022-09-06T15:42:46Z</time><name>PT10465</name></trkpt>
<trkpt lat="52.705958" lon="06.000590"><ele>-1</ele><time>2022-09-06T15:42:47Z</time><name>PT10466</name></trkpt>
<trkpt lat="52.705958" lon="06.000571"><ele>-1</ele><time>2022-09-06T15:42:48Z</time><name>PT10467</name></trkpt>
<trkpt lat="52.705957" lon="06.000553"><ele>-1</ele><time>2022-09-06T15:42:49Z</time><name>PT10468</name></trkpt>
<trkpt lat="52.705956" lon="06.000534"><ele>-1</ele><time>2022-09-06T15:42:50Z</time><name>PT10469</name></trkpt>
<trkpt lat="52.705955" lon="06.000515"><ele>-1.1</ele><time>2022-09-06T15:42:51Z</time><name>PT10470</name></trkpt>
<trkpt lat="52.705954" lon="06.000496"><ele>-1.1</ele><time>2022-09-06T15:42:52Z</time><name>PT10471</name></trkpt>
<trkpt lat="52.705954" lon="06.000478"><ele>-1.1</ele><time>2022-09-06T15:42:53Z</time><name>PT10472</name></trkpt>
<trkpt lat="52.705954" lon="06.000460"><ele>-1.2</ele><time>2022-09-06T15:42:54Z</time><name>PT10473</name></trkpt>
<trkpt lat="52.705956" lon="06.000443"><ele>-1.3</ele><time>2022-09-06T15:42:55Z</time><name>PT10474</name></trkpt>
<trkpt lat="52.705955" lon="06.000426"><ele>-1.2</ele><time>2022-09-06T15:42:56Z</time><name>PT10475</name></trkpt>
<trkpt lat="52.705954" lon="06.000409"><ele>-1.2</ele><time>2022-09-06T15:42:57Z</time><name>PT10476</name></trkpt>
<trkpt lat="52.705952" lon="06.000392"><ele>-1</ele><time>2022-09-06T15:42:58Z</time><name>PT10477</name></trkpt>
<trkpt lat="52.705951" lon="06.000376"><ele>-1</ele><time>2022-09-06T15:42:59Z</time><name>PT10478</name></trkpt>
<trkpt lat="52.705951" lon="06.000359"><ele>-1</ele><time>2022-09-06T15:43:00Z</time><name>PT10479</name></trkpt>
<trkpt lat="52.705951" lon="06.000342"><ele>-1</ele><time>2022-09-06T15:43:01Z</time><name>PT10480</name></trkpt>
<trkpt lat="52.705950" lon="06.000324"><ele>0.9</ele><time>2022-09-06T15:43:02Z</time><name>PT10481</name></trkpt>
<trkpt lat="52.705951" lon="06.000308"><ele>-1</ele><time>2022-09-06T15:43:03Z</time><name>PT10482</name></trkpt>
<trkpt lat="52.705951" lon="06.000293"><ele>-1.1</ele><time>2022-09-06T15:43:04Z</time><name>PT10483</name></trkpt>
<trkpt lat="52.705950" lon="06.000277"><ele>-1.1</ele><time>2022-09-06T15:43:05Z</time><name>PT10484</name></trkpt>
<trkpt lat="52.705949" lon="06.000260"><ele>-1.1</ele><time>2022-09-06T15:43:06Z</time><name>PT10485</name></trkpt>
<trkpt lat="52.705948" lon="06.000243"><ele>-1.2</ele><time>2022-09-06T15:43:07Z</time><name>PT10486</name></trkpt>
<trkpt lat="52.705946" lon="06.000226"><ele>-1.2</ele><time>2022-09-06T15:43:08Z</time><name>PT10487</name></trkpt>
<trkpt lat="52.705945" lon="06.000206"><ele>-1.3</ele><time>2022-09-06T15:43:09Z</time><name>PT10488</name></trkpt>
<trkpt lat="52.705942" lon="06.000185"><ele>-1.2</ele><time>2022-09-06T15:43:10Z</time><name>PT10489</name></trkpt>
<trkpt lat="52.705937" lon="06.000167"><ele>-1.2</ele><time>2022-09-06T15:43:11Z</time><name>PT10490</name></trkpt>
<trkpt lat="52.705935" lon="06.000153"><ele>-1.2</ele><time>2022-09-06T15:43:12Z</time><name>PT10491</name></trkpt>
<trkpt lat="52.705933" lon="06.000133"><ele>-1</ele><time>2022-09-06T15:43:13Z</time><name>PT10492</name></trkpt>
<trkpt lat="52.705930" lon="06.000109"><ele>0.9</ele><time>2022-09-06T15:43:14Z</time><name>PT10493</name></trkpt>
<trkpt lat="52.705927" lon="06.000082"><ele>0.8</ele><time>2022-09-06T15:43:15Z</time><name>PT10494</name></trkpt>
<trkpt lat="52.705924" lon="06.000058"><ele>0.6</ele><time>2022-09-06T15:43:16Z</time><name>PT10495</name></trkpt>
<trkpt lat="52.705924" lon="06.000037"><ele>0.7</ele><time>2022-09-06T15:43:17Z</time><name>PT10496</name></trkpt>
<trkpt lat="52.705924" lon="06.000020"><ele>0.7</ele><time>2022-09-06T15:43:18Z</time><name>PT10497</name></trkpt>
<trkpt lat="52.705924" lon="06.000009"><ele>0.5</ele><time>2022-09-06T15:43:19Z</time><name>PT10498</name></trkpt>
<trkpt lat="52.705923" lon="05.999999"><ele>0.5</ele><time>2022-09-06T15:43:20Z</time><name>PT10499</name></trkpt>
<trkpt lat="52.705923" lon="05.999989"><ele>0.8</ele><time>2022-09-06T15:43:21Z</time><name>PT10500</name></trkpt>
<trkpt lat="52.705923" lon="05.999976"><ele>0.5</ele><time>2022-09-06T15:43:22Z</time><name>PT10501</name></trkpt>
<trkpt lat="52.705921" lon="05.999960"><ele>0.6</ele><time>2022-09-06T15:43:23Z</time><name>PT10502</name></trkpt>
<trkpt lat="52.705919" lon="05.999945"><ele>0.7</ele><time>2022-09-06T15:43:24Z</time><name>PT10503</name></trkpt>
<trkpt lat="52.705917" lon="05.999926"><ele>0.6</ele><time>2022-09-06T15:43:25Z</time><name>PT10504</name></trkpt>
<trkpt lat="52.705916" lon="05.999906"><ele>0.5</ele><time>2022-09-06T15:43:26Z</time><name>PT10505</name></trkpt>
<trkpt lat="52.705914" lon="05.999886"><ele>0.5</ele><time>2022-09-06T15:43:27Z</time><name>PT10506</name></trkpt>
<trkpt lat="52.705911" lon="05.999866"><ele>0.5</ele><time>2022-09-06T15:43:28Z</time><name>PT10507</name></trkpt>
<trkpt lat="52.705911" lon="05.999853"><ele>0.2</ele><time>2022-09-06T15:43:29Z</time><name>PT10508</name></trkpt>
<trkpt lat="52.705910" lon="05.999845"><ele>0.2</ele><time>2022-09-06T15:43:30Z</time><name>PT10509</name></trkpt>
<trkpt lat="52.705909" lon="05.999836"><ele>0.2</ele><time>2022-09-06T15:43:31Z</time><name>PT10510</name></trkpt>
<trkpt lat="52.705908" lon="05.999824"><ele>0.4</ele><time>2022-09-06T15:43:32Z</time><name>PT10511</name></trkpt>
<trkpt lat="52.705909" lon="05.999809"><ele>0.4</ele><time>2022-09-06T15:43:33Z</time><name>PT10512</name></trkpt>
<trkpt lat="52.705909" lon="05.999788"><ele>0.5</ele><time>2022-09-06T15:43:34Z</time><name>PT10513</name></trkpt>
<trkpt lat="52.705909" lon="05.999762"><ele>0.6</ele><time>2022-09-06T15:43:35Z</time><name>PT10514</name></trkpt>
<trkpt lat="52.705906" lon="05.999735"><ele>0.5</ele><time>2022-09-06T15:43:36Z</time><name>PT10515</name></trkpt>
<trkpt lat="52.705904" lon="05.999706"><ele>0.5</ele><time>2022-09-06T15:43:37Z</time><name>PT10516</name></trkpt>
<trkpt lat="52.705904" lon="05.999680"><ele>0.5</ele><time>2022-09-06T15:43:38Z</time><name>PT10517</name></trkpt>
<trkpt lat="52.705904" lon="05.999662"><ele>0.5</ele><time>2022-09-06T15:43:39Z</time><name>PT10518</name></trkpt>
<trkpt lat="52.705903" lon="05.999648"><ele>0.4</ele><time>2022-09-06T15:43:40Z</time><name>PT10519</name></trkpt>
<trkpt lat="52.705901" lon="05.999636"><ele>0.3</ele><time>2022-09-06T15:43:41Z</time><name>PT10520</name></trkpt>
<trkpt lat="52.705901" lon="05.999626"><ele>0.5</ele><time>2022-09-06T15:43:42Z</time><name>PT10521</name></trkpt>
<trkpt lat="52.705900" lon="05.999615"><ele>0.5</ele><time>2022-09-06T15:43:43Z</time><name>PT10522</name></trkpt>
<trkpt lat="52.705901" lon="05.999603"><ele>0.7</ele><time>2022-09-06T15:43:44Z</time><name>PT10523</name></trkpt>
<trkpt lat="52.705901" lon="05.999586"><ele>-1</ele><time>2022-09-06T15:43:45Z</time><name>PT10524</name></trkpt>
<trkpt lat="52.705901" lon="05.999562"><ele>-1</ele><time>2022-09-06T15:43:46Z</time><name>PT10525</name></trkpt>
<trkpt lat="52.705900" lon="05.999537"><ele>-1</ele><time>2022-09-06T15:43:47Z</time><name>PT10526</name></trkpt>
<trkpt lat="52.705899" lon="05.999512"><ele>-1</ele><time>2022-09-06T15:43:48Z</time><name>PT10527</name></trkpt>
<trkpt lat="52.705897" lon="05.999488"><ele>0.7</ele><time>2022-09-06T15:43:49Z</time><name>PT10528</name></trkpt>
<trkpt lat="52.705896" lon="05.999465"><ele>0.7</ele><time>2022-09-06T15:43:50Z</time><name>PT10529</name></trkpt>
<trkpt lat="52.705895" lon="05.999446"><ele>0.8</ele><time>2022-09-06T15:43:51Z</time><name>PT10530</name></trkpt>
<trkpt lat="52.705893" lon="05.999433"><ele>0.9</ele><time>2022-09-06T15:43:52Z</time><name>PT10531</name></trkpt>
<trkpt lat="52.705892" lon="05.999423"><ele>-1.1</ele><time>2022-09-06T15:43:53Z</time><name>PT10532</name></trkpt>
<trkpt lat="52.705892" lon="05.999413"><ele>-1.2</ele><time>2022-09-06T15:43:54Z</time><name>PT10533</name></trkpt>
<trkpt lat="52.705894" lon="05.999402"><ele>-1.2</ele><time>2022-09-06T15:43:55Z</time><name>PT10534</name></trkpt>
<trkpt lat="52.705895" lon="05.999388"><ele>-1.2</ele><time>2022-09-06T15:43:56Z</time><name>PT10535</name></trkpt>
<trkpt lat="52.705896" lon="05.999368"><ele>-1.2</ele><time>2022-09-06T15:43:57Z</time><name>PT10536</name></trkpt>
<trkpt lat="52.705895" lon="05.999344"><ele>-1.1</ele><time>2022-09-06T15:43:58Z</time><name>PT10537</name></trkpt>
<trkpt lat="52.705894" lon="05.999318"><ele>-1</ele><time>2022-09-06T15:43:59Z</time><name>PT10538</name></trkpt>
<trkpt lat="52.705892" lon="05.999296"><ele>-1</ele><time>2022-09-06T15:44:00Z</time><name>PT10539</name></trkpt>
<trkpt lat="52.705889" lon="05.999279"><ele>-1</ele><time>2022-09-06T15:44:01Z</time><name>PT10540</name></trkpt>
<trkpt lat="52.705888" lon="05.999268"><ele>-1</ele><time>2022-09-06T15:44:02Z</time><name>PT10541</name></trkpt>
<trkpt lat="52.705887" lon="05.999258"><ele>-1</ele><time>2022-09-06T15:44:03Z</time><name>PT10542</name></trkpt>
<trkpt lat="52.705888" lon="05.999249"><ele>-1.1</ele><time>2022-09-06T15:44:04Z</time><name>PT10543</name></trkpt>
<trkpt lat="52.705888" lon="05.999236"><ele>-1</ele><time>2022-09-06T15:44:05Z</time><name>PT10544</name></trkpt>
<trkpt lat="52.705888" lon="05.999215"><ele>0.9</ele><time>2022-09-06T15:44:06Z</time><name>PT10545</name></trkpt>
<trkpt lat="52.705886" lon="05.999193"><ele>-1</ele><time>2022-09-06T15:44:07Z</time><name>PT10546</name></trkpt>
<trkpt lat="52.705883" lon="05.999178"><ele>0.8</ele><time>2022-09-06T15:44:08Z</time><name>PT10547</name></trkpt>
<trkpt lat="52.705881" lon="05.999168"><ele>0.8</ele><time>2022-09-06T15:44:09Z</time><name>PT10548</name></trkpt>
<trkpt lat="52.705881" lon="05.999159"><ele>0.8</ele><time>2022-09-06T15:44:10Z</time><name>PT10549</name></trkpt>
<trkpt lat="52.705882" lon="05.999147"><ele>0.7</ele><time>2022-09-06T15:44:11Z</time><name>PT10550</name></trkpt>
<trkpt lat="52.705882" lon="05.999131"><ele>0.8</ele><time>2022-09-06T15:44:12Z</time><name>PT10551</name></trkpt>
<trkpt lat="52.705881" lon="05.999110"><ele>0.8</ele><time>2022-09-06T15:44:13Z</time><name>PT10552</name></trkpt>
<trkpt lat="52.705879" lon="05.999086"><ele>0.7</ele><time>2022-09-06T15:44:14Z</time><name>PT10553</name></trkpt>
<trkpt lat="52.705878" lon="05.999066"><ele>0.9</ele><time>2022-09-06T15:44:15Z</time><name>PT10554</name></trkpt>
<trkpt lat="52.705876" lon="05.999054"><ele>-1</ele><time>2022-09-06T15:44:16Z</time><name>PT10555</name></trkpt>
<trkpt lat="52.705874" lon="05.999050"><ele>-1.1</ele><time>2022-09-06T15:44:17Z</time><name>PT10556</name></trkpt>
<trkpt lat="52.705871" lon="05.999047"><ele>-1.3</ele><time>2022-09-06T15:44:18Z</time><name>PT10557</name></trkpt>
<trkpt lat="52.705867" lon="05.999046"><ele>-1.4</ele><time>2022-09-06T15:44:19Z</time><name>PT10558</name></trkpt>
<trkpt lat="52.705866" lon="05.999046"><ele>-1.6</ele><time>2022-09-06T15:44:20Z</time><name>PT10559</name></trkpt>
<trkpt lat="52.705865" lon="05.999045"><ele>-1.6</ele><time>2022-09-06T15:44:21Z</time><name>PT10560</name></trkpt>
<trkpt lat="52.705865" lon="05.999044"><ele>-1.7</ele><time>2022-09-06T15:44:22Z</time><name>PT10561</name></trkpt>
<trkpt lat="52.705865" lon="05.999045"><ele>-1.6</ele><time>2022-09-06T15:44:23Z</time><name>PT10562</name></trkpt>
<trkpt lat="52.705865" lon="05.999045"><ele>-1.6</ele><time>2022-09-06T15:44:24Z</time><name>PT10563</name></trkpt>
<trkpt lat="52.705867" lon="05.999038"><ele>-1.4</ele><time>2022-09-06T15:44:27Z</time><name>PT10564</name></trkpt>
<trkpt lat="52.705869" lon="05.999033"><ele>-1.4</ele><time>2022-09-06T15:44:28Z</time><name>PT10565</name></trkpt>
<trkpt lat="52.705873" lon="05.999028"><ele>-1.5</ele><time>2022-09-06T15:44:29Z</time><name>PT10566</name></trkpt>
<trkpt lat="52.705877" lon="05.999025"><ele>-1.6</ele><time>2022-09-06T15:44:30Z</time><name>PT10567</name></trkpt>
<trkpt lat="52.705880" lon="05.999018"><ele>-1.6</ele><time>2022-09-06T15:44:31Z</time><name>PT10568</name></trkpt>
<trkpt lat="52.705881" lon="05.999009"><ele>-1.4</ele><time>2022-09-06T15:44:32Z</time><name>PT10569</name></trkpt>
<trkpt lat="52.705882" lon="05.999001"><ele>-1.3</ele><time>2022-09-06T15:44:33Z</time><name>PT10570</name></trkpt>
<trkpt lat="52.705884" lon="05.998991"><ele>-1</ele><time>2022-09-06T15:44:34Z</time><name>PT10571</name></trkpt>
<trkpt lat="52.705883" lon="05.998976"><ele>0.7</ele><time>2022-09-06T15:44:35Z</time><name>PT10572</name></trkpt>
<trkpt lat="52.705882" lon="05.998952"><ele>0.8</ele><time>2022-09-06T15:44:36Z</time><name>PT10573</name></trkpt>
<trkpt lat="52.705879" lon="05.998924"><ele>0.8</ele><time>2022-09-06T15:44:37Z</time><name>PT10574</name></trkpt>
<trkpt lat="52.705875" lon="05.998901"><ele>-1</ele><time>2022-09-06T15:44:38Z</time><name>PT10575</name></trkpt>
<trkpt lat="52.705873" lon="05.998880"><ele>-1</ele><time>2022-09-06T15:44:39Z</time><name>PT10576</name></trkpt>
<trkpt lat="52.705873" lon="05.998863"><ele>-1</ele><time>2022-09-06T15:44:40Z</time><name>PT10577</name></trkpt>
<trkpt lat="52.705874" lon="05.998849"><ele>0.9</ele><time>2022-09-06T15:44:41Z</time><name>PT10578</name></trkpt>
<trkpt lat="52.705875" lon="05.998834"><ele>-1</ele><time>2022-09-06T15:44:42Z</time><name>PT10579</name></trkpt>
<trkpt lat="52.705876" lon="05.998820"><ele>-1</ele><time>2022-09-06T15:44:43Z</time><name>PT10580</name></trkpt>
<trkpt lat="52.705876" lon="05.998804"><ele>-1</ele><time>2022-09-06T15:44:44Z</time><name>PT10581</name></trkpt>
<trkpt lat="52.705876" lon="05.998786"><ele>0.9</ele><time>2022-09-06T15:44:45Z</time><name>PT10582</name></trkpt>
<trkpt lat="52.705874" lon="05.998762"><ele>0.8</ele><time>2022-09-06T15:44:46Z</time><name>PT10583</name></trkpt>
<trkpt lat="52.705873" lon="05.998734"><ele>0.8</ele><time>2022-09-06T15:44:47Z</time><name>PT10584</name></trkpt>
<trkpt lat="52.705870" lon="05.998710"><ele>0.7</ele><time>2022-09-06T15:44:48Z</time><name>PT10585</name></trkpt>
<trkpt lat="52.705868" lon="05.998695"><ele>0.7</ele><time>2022-09-06T15:44:49Z</time><name>PT10586</name></trkpt>
<trkpt lat="52.705867" lon="05.998684"><ele>0.8</ele><time>2022-09-06T15:44:50Z</time><name>PT10587</name></trkpt>
<trkpt lat="52.705867" lon="05.998673"><ele>0.8</ele><time>2022-09-06T15:44:51Z</time><name>PT10588</name></trkpt>
<trkpt lat="52.705868" lon="05.998660"><ele>0.9</ele><time>2022-09-06T15:44:52Z</time><name>PT10589</name></trkpt>
<trkpt lat="52.705869" lon="05.998644"><ele>0.9</ele><time>2022-09-06T15:44:53Z</time><name>PT10590</name></trkpt>
<trkpt lat="52.705869" lon="05.998624"><ele>0.9</ele><time>2022-09-06T15:44:54Z</time><name>PT10591</name></trkpt>
<trkpt lat="52.705867" lon="05.998602"><ele>-1</ele><time>2022-09-06T15:44:55Z</time><name>PT10592</name></trkpt>
<trkpt lat="52.705867" lon="05.998578"><ele>-1</ele><time>2022-09-06T15:44:56Z</time><name>PT10593</name></trkpt>
<trkpt lat="52.705866" lon="05.998555"><ele>0.8</ele><time>2022-09-06T15:44:57Z</time><name>PT10594</name></trkpt>
<trkpt lat="52.705864" lon="05.998536"><ele>0.8</ele><time>2022-09-06T15:44:58Z</time><name>PT10595</name></trkpt>
<trkpt lat="52.705863" lon="05.998522"><ele>0.9</ele><time>2022-09-06T15:44:59Z</time><name>PT10596</name></trkpt>
<trkpt lat="52.705863" lon="05.998513"><ele>0.7</ele><time>2022-09-06T15:45:00Z</time><name>PT10597</name></trkpt>
<trkpt lat="52.705864" lon="05.998508"><ele>0.9</ele><time>2022-09-06T15:45:01Z</time><name>PT10598</name></trkpt>
<trkpt lat="52.705863" lon="05.998504"><ele>0.9</ele><time>2022-09-06T15:45:02Z</time><name>PT10599</name></trkpt>
<trkpt lat="52.705863" lon="05.998495"><ele>-1</ele><time>2022-09-06T15:45:03Z</time><name>PT10600</name></trkpt>
<trkpt lat="52.705865" lon="05.998479"><ele>-1</ele><time>2022-09-06T15:45:04Z</time><name>PT10601</name></trkpt>
<trkpt lat="52.705865" lon="05.998458"><ele>-1</ele><time>2022-09-06T15:45:05Z</time><name>PT10602</name></trkpt>
<trkpt lat="52.705865" lon="05.998434"><ele>-1</ele><time>2022-09-06T15:45:06Z</time><name>PT10603</name></trkpt>
<trkpt lat="52.705864" lon="05.998410"><ele>-1</ele><time>2022-09-06T15:45:07Z</time><name>PT10604</name></trkpt>
<trkpt lat="52.705863" lon="05.998380"><ele>0.8</ele><time>2022-09-06T15:45:08Z</time><name>PT10605</name></trkpt>
<trkpt lat="52.705863" lon="05.998349"><ele>0.8</ele><time>2022-09-06T15:45:09Z</time><name>PT10606</name></trkpt>
<trkpt lat="52.705862" lon="05.998324"><ele>0.8</ele><time>2022-09-06T15:45:10Z</time><name>PT10607</name></trkpt>
<trkpt lat="52.705860" lon="05.998309"><ele>0.7</ele><time>2022-09-06T15:45:11Z</time><name>PT10608</name></trkpt>
<trkpt lat="52.705857" lon="05.998297"><ele>0.7</ele><time>2022-09-06T15:45:12Z</time><name>PT10609</name></trkpt>
<trkpt lat="52.705854" lon="05.998288"><ele>0.9</ele><time>2022-09-06T15:45:13Z</time><name>PT10610</name></trkpt>
<trkpt lat="52.705855" lon="05.998276"><ele>-1</ele><time>2022-09-06T15:45:14Z</time><name>PT10611</name></trkpt>
<trkpt lat="52.705854" lon="05.998266"><ele>0.9</ele><time>2022-09-06T15:45:15Z</time><name>PT10612</name></trkpt>
<trkpt lat="52.705854" lon="05.998257"><ele>0.7</ele><time>2022-09-06T15:45:16Z</time><name>PT10613</name></trkpt>
<trkpt lat="52.705856" lon="05.998240"><ele>0.7</ele><time>2022-09-06T15:45:17Z</time><name>PT10614</name></trkpt>
<trkpt lat="52.705857" lon="05.998216"><ele>0.7</ele><time>2022-09-06T15:45:18Z</time><name>PT10615</name></trkpt>
<trkpt lat="52.705857" lon="05.998188"><ele>0.6</ele><time>2022-09-06T15:45:19Z</time><name>PT10616</name></trkpt>
<trkpt lat="52.705853" lon="05.998158"><ele>0.7</ele><time>2022-09-06T15:45:20Z</time><name>PT10617</name></trkpt>
<trkpt lat="52.705848" lon="05.998128"><ele>0.8</ele><time>2022-09-06T15:45:21Z</time><name>PT10618</name></trkpt>
<trkpt lat="52.705845" lon="05.998101"><ele>0.7</ele><time>2022-09-06T15:45:22Z</time><name>PT10619</name></trkpt>
<trkpt lat="52.705842" lon="05.998088"><ele>0.9</ele><time>2022-09-06T15:45:23Z</time><name>PT10620</name></trkpt>
<trkpt lat="52.705840" lon="05.998080"><ele>0.9</ele><time>2022-09-06T15:45:24Z</time><name>PT10621</name></trkpt>
<trkpt lat="52.705839" lon="05.998075"><ele>-1</ele><time>2022-09-06T15:45:25Z</time><name>PT10622</name></trkpt>
<trkpt lat="52.705838" lon="05.998071"><ele>-1</ele><time>2022-09-06T15:45:26Z</time><name>PT10623</name></trkpt>
<trkpt lat="52.705839" lon="05.998063"><ele>-1</ele><time>2022-09-06T15:45:27Z</time><name>PT10624</name></trkpt>
<trkpt lat="52.705840" lon="05.998044"><ele>-1</ele><time>2022-09-06T15:45:28Z</time><name>PT10625</name></trkpt>
<trkpt lat="52.705838" lon="05.998019"><ele>0.8</ele><time>2022-09-06T15:45:29Z</time><name>PT10626</name></trkpt>
<trkpt lat="52.705835" lon="05.997990"><ele>0.7</ele><time>2022-09-06T15:45:30Z</time><name>PT10627</name></trkpt>
<trkpt lat="52.705832" lon="05.997961"><ele>0.6</ele><time>2022-09-06T15:45:31Z</time><name>PT10628</name></trkpt>
<trkpt lat="52.705831" lon="05.997937"><ele>0.5</ele><time>2022-09-06T15:45:32Z</time><name>PT10629</name></trkpt>
<trkpt lat="52.705830" lon="05.997920"><ele>0.5</ele><time>2022-09-06T15:45:33Z</time><name>PT10630</name></trkpt>
<trkpt lat="52.705829" lon="05.997909"><ele>0.5</ele><time>2022-09-06T15:45:34Z</time><name>PT10631</name></trkpt>
<trkpt lat="52.705828" lon="05.997899"><ele>0.5</ele><time>2022-09-06T15:45:35Z</time><name>PT10632</name></trkpt>
<trkpt lat="52.705829" lon="05.997890"><ele>0.5</ele><time>2022-09-06T15:45:36Z</time><name>PT10633</name></trkpt>
<trkpt lat="52.705829" lon="05.997879"><ele>0.5</ele><time>2022-09-06T15:45:37Z</time><name>PT10634</name></trkpt>
<trkpt lat="52.705828" lon="05.997862"><ele>0.5</ele><time>2022-09-06T15:45:38Z</time><name>PT10635</name></trkpt>
<trkpt lat="52.705826" lon="05.997836"><ele>0.6</ele><time>2022-09-06T15:45:39Z</time><name>PT10636</name></trkpt>
<trkpt lat="52.705825" lon="05.997812"><ele>0.7</ele><time>2022-09-06T15:45:40Z</time><name>PT10637</name></trkpt>
<trkpt lat="52.705825" lon="05.997792"><ele>0.8</ele><time>2022-09-06T15:45:41Z</time><name>PT10638</name></trkpt>
<trkpt lat="52.705824" lon="05.997776"><ele>0.7</ele><time>2022-09-06T15:45:42Z</time><name>PT10639</name></trkpt>
<trkpt lat="52.705821" lon="05.997766"><ele>-1</ele><time>2022-09-06T15:45:43Z</time><name>PT10640</name></trkpt>
<trkpt lat="52.705820" lon="05.997756"><ele>-1</ele><time>2022-09-06T15:45:44Z</time><name>PT10641</name></trkpt>
<trkpt lat="52.705820" lon="05.997744"><ele>-1</ele><time>2022-09-06T15:45:45Z</time><name>PT10642</name></trkpt>
<trkpt lat="52.705821" lon="05.997728"><ele>0.9</ele><time>2022-09-06T15:45:46Z</time><name>PT10643</name></trkpt>
<trkpt lat="52.705823" lon="05.997710"><ele>0.9</ele><time>2022-09-06T15:45:47Z</time><name>PT10644</name></trkpt>
<trkpt lat="52.705824" lon="05.997686"><ele>-1</ele><time>2022-09-06T15:45:48Z</time><name>PT10645</name></trkpt>
<trkpt lat="52.705824" lon="05.997659"><ele>-1</ele><time>2022-09-06T15:45:49Z</time><name>PT10646</name></trkpt>
<trkpt lat="52.705823" lon="05.997632"><ele>-1.3</ele><time>2022-09-06T15:45:50Z</time><name>PT10647</name></trkpt>
<trkpt lat="52.705822" lon="05.997611"><ele>-1.2</ele><time>2022-09-06T15:45:51Z</time><name>PT10648</name></trkpt>
<trkpt lat="52.705821" lon="05.997598"><ele>-1.2</ele><time>2022-09-06T15:45:52Z</time><name>PT10649</name></trkpt>
<trkpt lat="52.705818" lon="05.997583"><ele>-1.2</ele><time>2022-09-06T15:45:53Z</time><name>PT10650</name></trkpt>
<trkpt lat="52.705817" lon="05.997569"><ele>-1.1</ele><time>2022-09-06T15:45:54Z</time><name>PT10651</name></trkpt>
<trkpt lat="52.705816" lon="05.997559"><ele>0.9</ele><time>2022-09-06T15:45:55Z</time><name>PT10652</name></trkpt>
<trkpt lat="52.705815" lon="05.997546"><ele>-1.1</ele><time>2022-09-06T15:45:56Z</time><name>PT10653</name></trkpt>
<trkpt lat="52.705816" lon="05.997529"><ele>-1</ele><time>2022-09-06T15:45:57Z</time><name>PT10654</name></trkpt>
<trkpt lat="52.705818" lon="05.997507"><ele>0.9</ele><time>2022-09-06T15:45:58Z</time><name>PT10655</name></trkpt>
<trkpt lat="52.705818" lon="05.997482"><ele>-1</ele><time>2022-09-06T15:45:59Z</time><name>PT10656</name></trkpt>
<trkpt lat="52.705817" lon="05.997456"><ele>-1</ele><time>2022-09-06T15:46:00Z</time><name>PT10657</name></trkpt>
<trkpt lat="52.705816" lon="05.997432"><ele>-1.1</ele><time>2022-09-06T15:46:01Z</time><name>PT10658</name></trkpt>
<trkpt lat="52.705815" lon="05.997419"><ele>-1.3</ele><time>2022-09-06T15:46:02Z</time><name>PT10659</name></trkpt>
<trkpt lat="52.705813" lon="05.997411"><ele>-1.4</ele><time>2022-09-06T15:46:03Z</time><name>PT10660</name></trkpt>
<trkpt lat="52.705811" lon="05.997402"><ele>-1.3</ele><time>2022-09-06T15:46:04Z</time><name>PT10661</name></trkpt>
<trkpt lat="52.705811" lon="05.997392"><ele>-1.2</ele><time>2022-09-06T15:46:05Z</time><name>PT10662</name></trkpt>
<trkpt lat="52.705811" lon="05.997377"><ele>-1.2</ele><time>2022-09-06T15:46:06Z</time><name>PT10663</name></trkpt>
<trkpt lat="52.705810" lon="05.997356"><ele>-1</ele><time>2022-09-06T15:46:07Z</time><name>PT10664</name></trkpt>
<trkpt lat="52.705811" lon="05.997330"><ele>-1</ele><time>2022-09-06T15:46:08Z</time><name>PT10665</name></trkpt>
<trkpt lat="52.705810" lon="05.997304"><ele>-1</ele><time>2022-09-06T15:46:09Z</time><name>PT10666</name></trkpt>
<trkpt lat="52.705808" lon="05.997278"><ele>-1</ele><time>2022-09-06T15:46:10Z</time><name>PT10667</name></trkpt>
<trkpt lat="52.705804" lon="05.997255"><ele>-1.1</ele><time>2022-09-06T15:46:11Z</time><name>PT10668</name></trkpt>
<trkpt lat="52.705801" lon="05.997239"><ele>-1.2</ele><time>2022-09-06T15:46:12Z</time><name>PT10669</name></trkpt>
<trkpt lat="52.705799" lon="05.997232"><ele>-1.3</ele><time>2022-09-06T15:46:13Z</time><name>PT10670</name></trkpt>
<trkpt lat="52.705798" lon="05.997225"><ele>-1.1</ele><time>2022-09-06T15:46:14Z</time><name>PT10671</name></trkpt>
<trkpt lat="52.705799" lon="05.997214"><ele>-1.2</ele><time>2022-09-06T15:46:15Z</time><name>PT10672</name></trkpt>
<trkpt lat="52.705801" lon="05.997195"><ele>-1.1</ele><time>2022-09-06T15:46:16Z</time><name>PT10673</name></trkpt>
<trkpt lat="52.705801" lon="05.997171"><ele>-1.2</ele><time>2022-09-06T15:46:17Z</time><name>PT10674</name></trkpt>
<trkpt lat="52.705800" lon="05.997141"><ele>-1.2</ele><time>2022-09-06T15:46:18Z</time><name>PT10675</name></trkpt>
<trkpt lat="52.705798" lon="05.997111"><ele>-1.5</ele><time>2022-09-06T15:46:19Z</time><name>PT10676</name></trkpt>
<trkpt lat="52.705797" lon="05.997085"><ele>-1.3</ele><time>2022-09-06T15:46:20Z</time><name>PT10677</name></trkpt>
<trkpt lat="52.705795" lon="05.997065"><ele>-1.1</ele><time>2022-09-06T15:46:21Z</time><name>PT10678</name></trkpt>
<trkpt lat="52.705794" lon="05.997054"><ele>-1</ele><time>2022-09-06T15:46:22Z</time><name>PT10679</name></trkpt>
<trkpt lat="52.705794" lon="05.997044"><ele>0.9</ele><time>2022-09-06T15:46:23Z</time><name>PT10680</name></trkpt>
<trkpt lat="52.705795" lon="05.997032"><ele>0.8</ele><time>2022-09-06T15:46:24Z</time><name>PT10681</name></trkpt>
<trkpt lat="52.705794" lon="05.997019"><ele>0.8</ele><time>2022-09-06T15:46:25Z</time><name>PT10682</name></trkpt>
<trkpt lat="52.705794" lon="05.997003"><ele>-1</ele><time>2022-09-06T15:46:26Z</time><name>PT10683</name></trkpt>
<trkpt lat="52.705796" lon="05.996983"><ele>-1</ele><time>2022-09-06T15:46:27Z</time><name>PT10684</name></trkpt>
<trkpt lat="52.705795" lon="05.996957"><ele>-1</ele><time>2022-09-06T15:46:28Z</time><name>PT10685</name></trkpt>
<trkpt lat="52.705792" lon="05.996929"><ele>-1</ele><time>2022-09-06T15:46:29Z</time><name>PT10686</name></trkpt>
<trkpt lat="52.705789" lon="05.996905"><ele>-1</ele><time>2022-09-06T15:46:30Z</time><name>PT10687</name></trkpt>
<trkpt lat="52.705785" lon="05.996884"><ele>-1</ele><time>2022-09-06T15:46:31Z</time><name>PT10688</name></trkpt>
<trkpt lat="52.705782" lon="05.996868"><ele>-1.2</ele><time>2022-09-06T15:46:32Z</time><name>PT10689</name></trkpt>
<trkpt lat="52.705780" lon="05.996856"><ele>-1.2</ele><time>2022-09-06T15:46:33Z</time><name>PT10690</name></trkpt>
<trkpt lat="52.705779" lon="05.996846"><ele>-1.2</ele><time>2022-09-06T15:46:34Z</time><name>PT10691</name></trkpt>
<trkpt lat="52.705779" lon="05.996834"><ele>-1.2</ele><time>2022-09-06T15:46:35Z</time><name>PT10692</name></trkpt>
<trkpt lat="52.705779" lon="05.996820"><ele>-1.1</ele><time>2022-09-06T15:46:36Z</time><name>PT10693</name></trkpt>
<trkpt lat="52.705780" lon="05.996798"><ele>-1</ele><time>2022-09-06T15:46:37Z</time><name>PT10694</name></trkpt>
<trkpt lat="52.705778" lon="05.996772"><ele>-1</ele><time>2022-09-06T15:46:38Z</time><name>PT10695</name></trkpt>
<trkpt lat="52.705774" lon="05.996744"><ele>-1</ele><time>2022-09-06T15:46:39Z</time><name>PT10696</name></trkpt>
<trkpt lat="52.705770" lon="05.996715"><ele>-1.1</ele><time>2022-09-06T15:46:40Z</time><name>PT10697</name></trkpt>
<trkpt lat="52.705767" lon="05.996691"><ele>-1.2</ele><time>2022-09-06T15:46:41Z</time><name>PT10698</name></trkpt>
<trkpt lat="52.705766" lon="05.996673"><ele>-1.2</ele><time>2022-09-06T15:46:42Z</time><name>PT10699</name></trkpt>
<trkpt lat="52.705766" lon="05.996661"><ele>-1</ele><time>2022-09-06T15:46:43Z</time><name>PT10700</name></trkpt>
<trkpt lat="52.705766" lon="05.996651"><ele>-1</ele><time>2022-09-06T15:46:44Z</time><name>PT10701</name></trkpt>
<trkpt lat="52.705766" lon="05.996645"><ele>-1</ele><time>2022-09-06T15:46:45Z</time><name>PT10702</name></trkpt>
<trkpt lat="52.705767" lon="05.996633"><ele>-1</ele><time>2022-09-06T15:46:46Z</time><name>PT10703</name></trkpt>
<trkpt lat="52.705768" lon="05.996615"><ele>-1.1</ele><time>2022-09-06T15:46:47Z</time><name>PT10704</name></trkpt>
<trkpt lat="52.705769" lon="05.996592"><ele>-1.2</ele><time>2022-09-06T15:46:48Z</time><name>PT10705</name></trkpt>
<trkpt lat="52.705768" lon="05.996567"><ele>-1.1</ele><time>2022-09-06T15:46:49Z</time><name>PT10706</name></trkpt>
<trkpt lat="52.705767" lon="05.996541"><ele>-1</ele><time>2022-09-06T15:46:50Z</time><name>PT10707</name></trkpt>
<trkpt lat="52.705766" lon="05.996521"><ele>-1</ele><time>2022-09-06T15:46:51Z</time><name>PT10708</name></trkpt>
<trkpt lat="52.705764" lon="05.996508"><ele>-1</ele><time>2022-09-06T15:46:52Z</time><name>PT10709</name></trkpt>
<trkpt lat="52.705764" lon="05.996498"><ele>0.9</ele><time>2022-09-06T15:46:53Z</time><name>PT10710</name></trkpt>
<trkpt lat="52.705764" lon="05.996487"><ele>0.7</ele><time>2022-09-06T15:46:54Z</time><name>PT10711</name></trkpt>
<trkpt lat="52.705764" lon="05.996476"><ele>0.5</ele><time>2022-09-06T15:46:55Z</time><name>PT10712</name></trkpt>
<trkpt lat="52.705764" lon="05.996462"><ele>0.3</ele><time>2022-09-06T15:46:56Z</time><name>PT10713</name></trkpt>
<trkpt lat="52.705764" lon="05.996448"><ele>0.5</ele><time>2022-09-06T15:46:57Z</time><name>PT10714</name></trkpt>
<trkpt lat="52.705764" lon="05.996428"><ele>0.5</ele><time>2022-09-06T15:46:58Z</time><name>PT10715</name></trkpt>
<trkpt lat="52.705764" lon="05.996405"><ele>0.5</ele><time>2022-09-06T15:46:59Z</time><name>PT10716</name></trkpt>
<trkpt lat="52.705764" lon="05.996378"><ele>0.5</ele><time>2022-09-06T15:47:00Z</time><name>PT10717</name></trkpt>
<trkpt lat="52.705763" lon="05.996356"><ele>0.5</ele><time>2022-09-06T15:47:01Z</time><name>PT10718</name></trkpt>
<trkpt lat="52.705762" lon="05.996342"><ele>0.4</ele><time>2022-09-06T15:47:02Z</time><name>PT10719</name></trkpt>
<trkpt lat="52.705759" lon="05.996331"><ele>0.3</ele><time>2022-09-06T15:47:03Z</time><name>PT10720</name></trkpt>
<trkpt lat="52.705758" lon="05.996318"><ele>0.1</ele><time>2022-09-06T15:47:04Z</time><name>PT10721</name></trkpt>
<trkpt lat="52.705758" lon="05.996305"><ele>0.1</ele><time>2022-09-06T15:47:05Z</time><name>PT10722</name></trkpt>
<trkpt lat="52.705759" lon="05.996291"><ele>0.1</ele><time>2022-09-06T15:47:06Z</time><name>PT10723</name></trkpt>
<trkpt lat="52.705761" lon="05.996274"><ele>0.2</ele><time>2022-09-06T15:47:07Z</time><name>PT10724</name></trkpt>
<trkpt lat="52.705759" lon="05.996250"><ele>0.5</ele><time>2022-09-06T15:47:08Z</time><name>PT10725</name></trkpt>
<trkpt lat="52.705759" lon="05.996224"><ele>0.7</ele><time>2022-09-06T15:47:09Z</time><name>PT10726</name></trkpt>
<trkpt lat="52.705757" lon="05.996204"><ele>-1</ele><time>2022-09-06T15:47:10Z</time><name>PT10727</name></trkpt>
<trkpt lat="52.705755" lon="05.996186"><ele>-1</ele><time>2022-09-06T15:47:11Z</time><name>PT10728</name></trkpt>
<trkpt lat="52.705752" lon="05.996173"><ele>-1</ele><time>2022-09-06T15:47:12Z</time><name>PT10729</name></trkpt>
<trkpt lat="52.705751" lon="05.996163"><ele>-1</ele><time>2022-09-06T15:47:13Z</time><name>PT10730</name></trkpt>
<trkpt lat="52.705750" lon="05.996153"><ele>-1.1</ele><time>2022-09-06T15:47:14Z</time><name>PT10731</name></trkpt>
<trkpt lat="52.705752" lon="05.996142"><ele>-1</ele><time>2022-09-06T15:47:15Z</time><name>PT10732</name></trkpt>
<trkpt lat="52.705753" lon="05.996125"><ele>-1.2</ele><time>2022-09-06T15:47:16Z</time><name>PT10733</name></trkpt>
<trkpt lat="52.705755" lon="05.996102"><ele>-1.4</ele><time>2022-09-06T15:47:17Z</time><name>PT10734</name></trkpt>
<trkpt lat="52.705756" lon="05.996074"><ele>-1.5</ele><time>2022-09-06T15:47:18Z</time><name>PT10735</name></trkpt>
<trkpt lat="52.705754" lon="05.996046"><ele>-1.6</ele><time>2022-09-06T15:47:19Z</time><name>PT10736</name></trkpt>
<trkpt lat="52.705752" lon="05.996023"><ele>-1.6</ele><time>2022-09-06T15:47:20Z</time><name>PT10737</name></trkpt>
<trkpt lat="52.705750" lon="05.996004"><ele>-1.5</ele><time>2022-09-06T15:47:21Z</time><name>PT10738</name></trkpt>
<trkpt lat="52.705747" lon="05.995992"><ele>-1.5</ele><time>2022-09-06T15:47:22Z</time><name>PT10739</name></trkpt>
<trkpt lat="52.705745" lon="05.995983"><ele>-1.4</ele><time>2022-09-06T15:47:23Z</time><name>PT10740</name></trkpt>
<trkpt lat="52.705745" lon="05.995973"><ele>-1.5</ele><time>2022-09-06T15:47:24Z</time><name>PT10741</name></trkpt>
<trkpt lat="52.705745" lon="05.995961"><ele>-1.4</ele><time>2022-09-06T15:47:25Z</time><name>PT10742</name></trkpt>
<trkpt lat="52.705744" lon="05.995944"><ele>-1.5</ele><time>2022-09-06T15:47:26Z</time><name>PT10743</name></trkpt>
<trkpt lat="52.705746" lon="05.995921"><ele>-1.4</ele><time>2022-09-06T15:47:27Z</time><name>PT10744</name></trkpt>
<trkpt lat="52.705746" lon="05.995896"><ele>-1.3</ele><time>2022-09-06T15:47:28Z</time><name>PT10745</name></trkpt>
<trkpt lat="52.705746" lon="05.995867"><ele>-1.2</ele><time>2022-09-06T15:47:29Z</time><name>PT10746</name></trkpt>
<trkpt lat="52.705745" lon="05.995842"><ele>-1.4</ele><time>2022-09-06T15:47:30Z</time><name>PT10747</name></trkpt>
<trkpt lat="52.705743" lon="05.995825"><ele>-1.4</ele><time>2022-09-06T15:47:31Z</time><name>PT10748</name></trkpt>
<trkpt lat="52.705741" lon="05.995814"><ele>-1.4</ele><time>2022-09-06T15:47:32Z</time><name>PT10749</name></trkpt>
<trkpt lat="52.705740" lon="05.995805"><ele>-1.2</ele><time>2022-09-06T15:47:33Z</time><name>PT10750</name></trkpt>
<trkpt lat="52.705740" lon="05.995795"><ele>-1.5</ele><time>2022-09-06T15:47:34Z</time><name>PT10751</name></trkpt>
<trkpt lat="52.705739" lon="05.995783"><ele>-1.3</ele><time>2022-09-06T15:47:35Z</time><name>PT10752</name></trkpt>
<trkpt lat="52.705740" lon="05.995766"><ele>-1.3</ele><time>2022-09-06T15:47:36Z</time><name>PT10753</name></trkpt>
<trkpt lat="52.705740" lon="05.995745"><ele>-1.3</ele><time>2022-09-06T15:47:37Z</time><name>PT10754</name></trkpt>
<trkpt lat="52.705739" lon="05.995719"><ele>-1.2</ele><time>2022-09-06T15:47:38Z</time><name>PT10755</name></trkpt>
<trkpt lat="52.705736" lon="05.995694"><ele>-1.2</ele><time>2022-09-06T15:47:39Z</time><name>PT10756</name></trkpt>
<trkpt lat="52.705735" lon="05.995672"><ele>-1</ele><time>2022-09-06T15:47:40Z</time><name>PT10757</name></trkpt>
<trkpt lat="52.705734" lon="05.995657"><ele>-1.1</ele><time>2022-09-06T15:47:41Z</time><name>PT10758</name></trkpt>
<trkpt lat="52.705731" lon="05.995647"><ele>-1.2</ele><time>2022-09-06T15:47:42Z</time><name>PT10759</name></trkpt>
<trkpt lat="52.705729" lon="05.995638"><ele>-1.4</ele><time>2022-09-06T15:47:43Z</time><name>PT10760</name></trkpt>
<trkpt lat="52.705729" lon="05.995626"><ele>-1.5</ele><time>2022-09-06T15:47:44Z</time><name>PT10761</name></trkpt>
<trkpt lat="52.705730" lon="05.995612"><ele>-1.5</ele><time>2022-09-06T15:47:45Z</time><name>PT10762</name></trkpt>
<trkpt lat="52.705731" lon="05.995593"><ele>-1.4</ele><time>2022-09-06T15:47:46Z</time><name>PT10763</name></trkpt>
<trkpt lat="52.705732" lon="05.995568"><ele>-1.2</ele><time>2022-09-06T15:47:47Z</time><name>PT10764</name></trkpt>
<trkpt lat="52.705731" lon="05.995542"><ele>-1.3</ele><time>2022-09-06T15:47:48Z</time><name>PT10765</name></trkpt>
<trkpt lat="52.705727" lon="05.995514"><ele>-1.3</ele><time>2022-09-06T15:47:49Z</time><name>PT10766</name></trkpt>
<trkpt lat="52.705724" lon="05.995489"><ele>-1.3</ele><time>2022-09-06T15:47:50Z</time><name>PT10767</name></trkpt>
<trkpt lat="52.705722" lon="05.995474"><ele>-1.4</ele><time>2022-09-06T15:47:51Z</time><name>PT10768</name></trkpt>
<trkpt lat="52.705721" lon="05.995464"><ele>-1.5</ele><time>2022-09-06T15:47:52Z</time><name>PT10769</name></trkpt>
<trkpt lat="52.705720" lon="05.995454"><ele>-1.3</ele><time>2022-09-06T15:47:53Z</time><name>PT10770</name></trkpt>
<trkpt lat="52.705720" lon="05.995441"><ele>-1.4</ele><time>2022-09-06T15:47:54Z</time><name>PT10771</name></trkpt>
<trkpt lat="52.705720" lon="05.995425"><ele>-1.5</ele><time>2022-09-06T15:47:55Z</time><name>PT10772</name></trkpt>
<trkpt lat="52.705720" lon="05.995412"><ele>-1.2</ele><time>2022-09-06T15:47:56Z</time><name>PT10773</name></trkpt>
<trkpt lat="52.705721" lon="05.995391"><ele>-1.2</ele><time>2022-09-06T15:47:57Z</time><name>PT10774</name></trkpt>
<trkpt lat="52.705720" lon="05.995366"><ele>-1.4</ele><time>2022-09-06T15:47:58Z</time><name>PT10775</name></trkpt>
<trkpt lat="52.705718" lon="05.995338"><ele>-1.4</ele><time>2022-09-06T15:47:59Z</time><name>PT10776</name></trkpt>
<trkpt lat="52.705717" lon="05.995313"><ele>-1.5</ele><time>2022-09-06T15:48:00Z</time><name>PT10777</name></trkpt>
<trkpt lat="52.705716" lon="05.995291"><ele>-1.6</ele><time>2022-09-06T15:48:01Z</time><name>PT10778</name></trkpt>
<trkpt lat="52.705713" lon="05.995275"><ele>-1.8</ele><time>2022-09-06T15:48:02Z</time><name>PT10779</name></trkpt>
<trkpt lat="52.705711" lon="05.995261"><ele>-1.7</ele><time>2022-09-06T15:48:03Z</time><name>PT10780</name></trkpt>
<trkpt lat="52.705709" lon="05.995250"><ele>-1.5</ele><time>2022-09-06T15:48:04Z</time><name>PT10781</name></trkpt>
<trkpt lat="52.705708" lon="05.995238"><ele>-1.6</ele><time>2022-09-06T15:48:05Z</time><name>PT10782</name></trkpt>
<trkpt lat="52.705709" lon="05.995224"><ele>-1.8</ele><time>2022-09-06T15:48:06Z</time><name>PT10783</name></trkpt>
<trkpt lat="52.705710" lon="05.995207"><ele>-1.7</ele><time>2022-09-06T15:48:07Z</time><name>PT10784</name></trkpt>
<trkpt lat="52.705711" lon="05.995185"><ele>-1.7</ele><time>2022-09-06T15:48:08Z</time><name>PT10785</name></trkpt>
<trkpt lat="52.705711" lon="05.995160"><ele>-1.7</ele><time>2022-09-06T15:48:09Z</time><name>PT10786</name></trkpt>
<trkpt lat="52.705709" lon="05.995134"><ele>-1.6</ele><time>2022-09-06T15:48:10Z</time><name>PT10787</name></trkpt>
<trkpt lat="52.705707" lon="05.995112"><ele>-1.2</ele><time>2022-09-06T15:48:11Z</time><name>PT10788</name></trkpt>
<trkpt lat="52.705706" lon="05.995095"><ele>-1.1</ele><time>2022-09-06T15:48:12Z</time><name>PT10789</name></trkpt>
<trkpt lat="52.705704" lon="05.995083"><ele>-1.2</ele><time>2022-09-06T15:48:13Z</time><name>PT10790</name></trkpt>
<trkpt lat="52.705702" lon="05.995071"><ele>-1.1</ele><time>2022-09-06T15:48:14Z</time><name>PT10791</name></trkpt>
<trkpt lat="52.705701" lon="05.995058"><ele>-1.2</ele><time>2022-09-06T15:48:15Z</time><name>PT10792</name></trkpt>
<trkpt lat="52.705701" lon="05.995046"><ele>-1.1</ele><time>2022-09-06T15:48:16Z</time><name>PT10793</name></trkpt>
<trkpt lat="52.705701" lon="05.995032"><ele>-1.1</ele><time>2022-09-06T15:48:17Z</time><name>PT10794</name></trkpt>
<trkpt lat="52.705703" lon="05.995011"><ele>0.9</ele><time>2022-09-06T15:48:18Z</time><name>PT10795</name></trkpt>
<trkpt lat="52.705704" lon="05.994989"><ele>0.9</ele><time>2022-09-06T15:48:19Z</time><name>PT10796</name></trkpt>
<trkpt lat="52.705705" lon="05.994964"><ele>0.8</ele><time>2022-09-06T15:48:20Z</time><name>PT10797</name></trkpt>
<trkpt lat="52.705702" lon="05.994942"><ele>0.9</ele><time>2022-09-06T15:48:21Z</time><name>PT10798</name></trkpt>
<trkpt lat="52.705700" lon="05.994925"><ele>0.9</ele><time>2022-09-06T15:48:22Z</time><name>PT10799</name></trkpt>
<trkpt lat="52.705695" lon="05.994913"><ele>-1</ele><time>2022-09-06T15:48:23Z</time><name>PT10800</name></trkpt>
<trkpt lat="52.705693" lon="05.994903"><ele>-1.1</ele><time>2022-09-06T15:48:24Z</time><name>PT10801</name></trkpt>
<trkpt lat="52.705694" lon="05.994893"><ele>-1.3</ele><time>2022-09-06T15:48:25Z</time><name>PT10802</name></trkpt>
<trkpt lat="52.705694" lon="05.994880"><ele>-1</ele><time>2022-09-06T15:48:26Z</time><name>PT10803</name></trkpt>
<trkpt lat="52.705694" lon="05.994868"><ele>-1.3</ele><time>2022-09-06T15:48:27Z</time><name>PT10804</name></trkpt>
<trkpt lat="52.705694" lon="05.994851"><ele>-1</ele><time>2022-09-06T15:48:28Z</time><name>PT10805</name></trkpt>
<trkpt lat="52.705694" lon="05.994833"><ele>-1</ele><time>2022-09-06T15:48:29Z</time><name>PT10806</name></trkpt>
<trkpt lat="52.705694" lon="05.994811"><ele>-1</ele><time>2022-09-06T15:48:30Z</time><name>PT10807</name></trkpt>
<trkpt lat="52.705694" lon="05.994787"><ele>-1.1</ele><time>2022-09-06T15:48:31Z</time><name>PT10808</name></trkpt>
<trkpt lat="52.705693" lon="05.994760"><ele>-1.1</ele><time>2022-09-06T15:48:32Z</time><name>PT10809</name></trkpt>
<trkpt lat="52.705690" lon="05.994736"><ele>-1.2</ele><time>2022-09-06T15:48:33Z</time><name>PT10810</name></trkpt>
<trkpt lat="52.705687" lon="05.994716"><ele>-1.2</ele><time>2022-09-06T15:48:34Z</time><name>PT10811</name></trkpt>
<trkpt lat="52.705685" lon="05.994699"><ele>-1.1</ele><time>2022-09-06T15:48:35Z</time><name>PT10812</name></trkpt>
<trkpt lat="52.705683" lon="05.994687"><ele>-1</ele><time>2022-09-06T15:48:36Z</time><name>PT10813</name></trkpt>
<trkpt lat="52.705681" lon="05.994674"><ele>0.9</ele><time>2022-09-06T15:48:37Z</time><name>PT10814</name></trkpt>
<trkpt lat="52.705681" lon="05.994661"><ele>-1</ele><time>2022-09-06T15:48:38Z</time><name>PT10815</name></trkpt>
<trkpt lat="52.705681" lon="05.994643"><ele>-1.2</ele><time>2022-09-06T15:48:39Z</time><name>PT10816</name></trkpt>
<trkpt lat="52.705682" lon="05.994623"><ele>-1.4</ele><time>2022-09-06T15:48:40Z</time><name>PT10817</name></trkpt>
<trkpt lat="52.705682" lon="05.994600"><ele>-1.4</ele><time>2022-09-06T15:48:41Z</time><name>PT10818</name></trkpt>
<trkpt lat="52.705681" lon="05.994576"><ele>-1.3</ele><time>2022-09-06T15:48:42Z</time><name>PT10819</name></trkpt>
<trkpt lat="52.705680" lon="05.994553"><ele>-1.3</ele><time>2022-09-06T15:48:43Z</time><name>PT10820</name></trkpt>
<trkpt lat="52.705677" lon="05.994534"><ele>-1.3</ele><time>2022-09-06T15:48:44Z</time><name>PT10821</name></trkpt>
<trkpt lat="52.705673" lon="05.994519"><ele>-1.5</ele><time>2022-09-06T15:48:45Z</time><name>PT10822</name></trkpt>
<trkpt lat="52.705670" lon="05.994504"><ele>-1.5</ele><time>2022-09-06T15:48:46Z</time><name>PT10823</name></trkpt>
<trkpt lat="52.705669" lon="05.994488"><ele>-1.4</ele><time>2022-09-06T15:48:47Z</time><name>PT10824</name></trkpt>
<trkpt lat="52.705668" lon="05.994471"><ele>-1.5</ele><time>2022-09-06T15:48:48Z</time><name>PT10825</name></trkpt>
<trkpt lat="52.705666" lon="05.994455"><ele>-1.5</ele><time>2022-09-06T15:48:49Z</time><name>PT10826</name></trkpt>
<trkpt lat="52.705666" lon="05.994446"><ele>-1.4</ele><time>2022-09-06T15:48:50Z</time><name>PT10827</name></trkpt>
<trkpt lat="52.705666" lon="05.994429"><ele>-1.5</ele><time>2022-09-06T15:48:51Z</time><name>PT10828</name></trkpt>
<trkpt lat="52.705667" lon="05.994410"><ele>-1.5</ele><time>2022-09-06T15:48:52Z</time><name>PT10829</name></trkpt>
<trkpt lat="52.705669" lon="05.994385"><ele>-1.5</ele><time>2022-09-06T15:48:53Z</time><name>PT10830</name></trkpt>
<trkpt lat="52.705669" lon="05.994357"><ele>-1.5</ele><time>2022-09-06T15:48:54Z</time><name>PT10831</name></trkpt>
<trkpt lat="52.705667" lon="05.994336"><ele>-1.5</ele><time>2022-09-06T15:48:55Z</time><name>PT10832</name></trkpt>
<trkpt lat="52.705664" lon="05.994315"><ele>-1.2</ele><time>2022-09-06T15:48:56Z</time><name>PT10833</name></trkpt>
<trkpt lat="52.705662" lon="05.994301"><ele>-1.1</ele><time>2022-09-06T15:48:57Z</time><name>PT10834</name></trkpt>
<trkpt lat="52.705659" lon="05.994291"><ele>-1</ele><time>2022-09-06T15:48:58Z</time><name>PT10835</name></trkpt>
<trkpt lat="52.705658" lon="05.994281"><ele>0.9</ele><time>2022-09-06T15:48:59Z</time><name>PT10836</name></trkpt>
<trkpt lat="52.705659" lon="05.994269"><ele>0.9</ele><time>2022-09-06T15:49:00Z</time><name>PT10837</name></trkpt>
<trkpt lat="52.705659" lon="05.994255"><ele>-1</ele><time>2022-09-06T15:49:01Z</time><name>PT10838</name></trkpt>
<trkpt lat="52.705659" lon="05.994238"><ele>-1</ele><time>2022-09-06T15:49:02Z</time><name>PT10839</name></trkpt>
<trkpt lat="52.705660" lon="05.994218"><ele>-1</ele><time>2022-09-06T15:49:03Z</time><name>PT10840</name></trkpt>
<trkpt lat="52.705660" lon="05.994194"><ele>-1</ele><time>2022-09-06T15:49:04Z</time><name>PT10841</name></trkpt>
<trkpt lat="52.705659" lon="05.994167"><ele>0.8</ele><time>2022-09-06T15:49:05Z</time><name>PT10842</name></trkpt>
<trkpt lat="52.705658" lon="05.994142"><ele>-1</ele><time>2022-09-06T15:49:06Z</time><name>PT10843</name></trkpt>
<trkpt lat="52.705656" lon="05.994122"><ele>-1</ele><time>2022-09-06T15:49:07Z</time><name>PT10844</name></trkpt>
<trkpt lat="52.705654" lon="05.994104"><ele>-1.2</ele><time>2022-09-06T15:49:08Z</time><name>PT10845</name></trkpt>
<trkpt lat="52.705652" lon="05.994090"><ele>-1.3</ele><time>2022-09-06T15:49:09Z</time><name>PT10846</name></trkpt>
<trkpt lat="52.705649" lon="05.994079"><ele>-1.5</ele><time>2022-09-06T15:49:10Z</time><name>PT10847</name></trkpt>
<trkpt lat="52.705649" lon="05.994069"><ele>-1.2</ele><time>2022-09-06T15:49:11Z</time><name>PT10848</name></trkpt>
<trkpt lat="52.705649" lon="05.994057"><ele>-1.1</ele><time>2022-09-06T15:49:12Z</time><name>PT10849</name></trkpt>
<trkpt lat="52.705650" lon="05.994044"><ele>-1.1</ele><time>2022-09-06T15:49:13Z</time><name>PT10850</name></trkpt>
<trkpt lat="52.705650" lon="05.994024"><ele>-1.1</ele><time>2022-09-06T15:49:14Z</time><name>PT10851</name></trkpt>
<trkpt lat="52.705650" lon="05.994006"><ele>-1</ele><time>2022-09-06T15:49:15Z</time><name>PT10852</name></trkpt>
<trkpt lat="52.705652" lon="05.993984"><ele>-1.3</ele><time>2022-09-06T15:49:16Z</time><name>PT10853</name></trkpt>
<trkpt lat="52.705654" lon="05.993957"><ele>-1.3</ele><time>2022-09-06T15:49:17Z</time><name>PT10854</name></trkpt>
<trkpt lat="52.705654" lon="05.993935"><ele>-1.5</ele><time>2022-09-06T15:49:18Z</time><name>PT10855</name></trkpt>
<trkpt lat="52.705652" lon="05.993918"><ele>-1.7</ele><time>2022-09-06T15:49:19Z</time><name>PT10856</name></trkpt>
<trkpt lat="52.705648" lon="05.993905"><ele>-1.7</ele><time>2022-09-06T15:49:20Z</time><name>PT10857</name></trkpt>
<trkpt lat="52.705647" lon="05.993892"><ele>-1.7</ele><time>2022-09-06T15:49:21Z</time><name>PT10858</name></trkpt>
<trkpt lat="52.705646" lon="05.993881"><ele>-1.6</ele><time>2022-09-06T15:49:22Z</time><name>PT10859</name></trkpt>
<trkpt lat="52.705645" lon="05.993869"><ele>-1.5</ele><time>2022-09-06T15:49:23Z</time><name>PT10860</name></trkpt>
<trkpt lat="52.705647" lon="05.993851"><ele>-1.4</ele><time>2022-09-06T15:49:24Z</time><name>PT10861</name></trkpt>
<trkpt lat="52.705649" lon="05.993830"><ele>-1.5</ele><time>2022-09-06T15:49:25Z</time><name>PT10862</name></trkpt>
<trkpt lat="52.705649" lon="05.993806"><ele>-1.5</ele><time>2022-09-06T15:49:26Z</time><name>PT10863</name></trkpt>
<trkpt lat="52.705647" lon="05.993781"><ele>-1.5</ele><time>2022-09-06T15:49:27Z</time><name>PT10864</name></trkpt>
<trkpt lat="52.705644" lon="05.993756"><ele>-1.5</ele><time>2022-09-06T15:49:28Z</time><name>PT10865</name></trkpt>
<trkpt lat="52.705642" lon="05.993732"><ele>-1.5</ele><time>2022-09-06T15:49:29Z</time><name>PT10866</name></trkpt>
<trkpt lat="52.705640" lon="05.993711"><ele>-1.5</ele><time>2022-09-06T15:49:30Z</time><name>PT10867</name></trkpt>
<trkpt lat="52.705638" lon="05.993697"><ele>-1.5</ele><time>2022-09-06T15:49:31Z</time><name>PT10868</name></trkpt>
<trkpt lat="52.705636" lon="05.993686"><ele>-1.5</ele><time>2022-09-06T15:49:32Z</time><name>PT10869</name></trkpt>
<trkpt lat="52.705634" lon="05.993671"><ele>-1.5</ele><time>2022-09-06T15:49:33Z</time><name>PT10870</name></trkpt>
<trkpt lat="52.705635" lon="05.993656"><ele>-1.5</ele><time>2022-09-06T15:49:34Z</time><name>PT10871</name></trkpt>
<trkpt lat="52.705636" lon="05.993644"><ele>-1.3</ele><time>2022-09-06T15:49:35Z</time><name>PT10872</name></trkpt>
<trkpt lat="52.705636" lon="05.993633"><ele>-1.2</ele><time>2022-09-06T15:49:36Z</time><name>PT10873</name></trkpt>
<trkpt lat="52.705636" lon="05.993617"><ele>-1.1</ele><time>2022-09-06T15:49:37Z</time><name>PT10874</name></trkpt>
<trkpt lat="52.705635" lon="05.993596"><ele>-1</ele><time>2022-09-06T15:49:38Z</time><name>PT10875</name></trkpt>
<trkpt lat="52.705631" lon="05.993569"><ele>-1</ele><time>2022-09-06T15:49:39Z</time><name>PT10876</name></trkpt>
<trkpt lat="52.705629" lon="05.993544"><ele>-1.2</ele><time>2022-09-06T15:49:40Z</time><name>PT10877</name></trkpt>
<trkpt lat="52.705626" lon="05.993522"><ele>-1.2</ele><time>2022-09-06T15:49:41Z</time><name>PT10878</name></trkpt>
<trkpt lat="52.705623" lon="05.993504"><ele>-1.3</ele><time>2022-09-06T15:49:42Z</time><name>PT10879</name></trkpt>
<trkpt lat="52.705622" lon="05.993490"><ele>-1.3</ele><time>2022-09-06T15:49:43Z</time><name>PT10880</name></trkpt>
<trkpt lat="52.705621" lon="05.993479"><ele>-1.3</ele><time>2022-09-06T15:49:44Z</time><name>PT10881</name></trkpt>
<trkpt lat="52.705620" lon="05.993469"><ele>-1.2</ele><time>2022-09-06T15:49:45Z</time><name>PT10882</name></trkpt>
<trkpt lat="52.705620" lon="05.993457"><ele>-1.3</ele><time>2022-09-06T15:49:46Z</time><name>PT10883</name></trkpt>
<trkpt lat="52.705620" lon="05.993441"><ele>-1.3</ele><time>2022-09-06T15:49:47Z</time><name>PT10884</name></trkpt>
<trkpt lat="52.705619" lon="05.993422"><ele>-1.2</ele><time>2022-09-06T15:49:48Z</time><name>PT10885</name></trkpt>
<trkpt lat="52.705619" lon="05.993400"><ele>-1.4</ele><time>2022-09-06T15:49:49Z</time><name>PT10886</name></trkpt>
<trkpt lat="52.705619" lon="05.993375"><ele>-1.5</ele><time>2022-09-06T15:49:50Z</time><name>PT10887</name></trkpt>
<trkpt lat="52.705619" lon="05.993349"><ele>-1.4</ele><time>2022-09-06T15:49:51Z</time><name>PT10888</name></trkpt>
<trkpt lat="52.705616" lon="05.993328"><ele>-1.4</ele><time>2022-09-06T15:49:52Z</time><name>PT10889</name></trkpt>
<trkpt lat="52.705614" lon="05.993310"><ele>-1.4</ele><time>2022-09-06T15:49:53Z</time><name>PT10890</name></trkpt>
<trkpt lat="52.705612" lon="05.993296"><ele>-1.2</ele><time>2022-09-06T15:49:54Z</time><name>PT10891</name></trkpt>
<trkpt lat="52.705610" lon="05.993287"><ele>-1.1</ele><time>2022-09-06T15:49:55Z</time><name>PT10892</name></trkpt>
<trkpt lat="52.705608" lon="05.993276"><ele>-1</ele><time>2022-09-06T15:49:56Z</time><name>PT10893</name></trkpt>
<trkpt lat="52.705607" lon="05.993264"><ele>-1</ele><time>2022-09-06T15:49:57Z</time><name>PT10894</name></trkpt>
<trkpt lat="52.705608" lon="05.993248"><ele>-1</ele><time>2022-09-06T15:49:58Z</time><name>PT10895</name></trkpt>
<trkpt lat="52.705608" lon="05.993232"><ele>-1</ele><time>2022-09-06T15:49:59Z</time><name>PT10896</name></trkpt>
<trkpt lat="52.705610" lon="05.993212"><ele>-1</ele><time>2022-09-06T15:50:00Z</time><name>PT10897</name></trkpt>
<trkpt lat="52.705610" lon="05.993190"><ele>-1.3</ele><time>2022-09-06T15:50:01Z</time><name>PT10898</name></trkpt>
<trkpt lat="52.705609" lon="05.993164"><ele>-1.4</ele><time>2022-09-06T15:50:02Z</time><name>PT10899</name></trkpt>
<trkpt lat="52.705609" lon="05.993144"><ele>-1.4</ele><time>2022-09-06T15:50:03Z</time><name>PT10900</name></trkpt>
<trkpt lat="52.705608" lon="05.993130"><ele>-1.3</ele><time>2022-09-06T15:50:04Z</time><name>PT10901</name></trkpt>
<trkpt lat="52.705605" lon="05.993117"><ele>-1.2</ele><time>2022-09-06T15:50:05Z</time><name>PT10902</name></trkpt>
<trkpt lat="52.705602" lon="05.993103"><ele>-1.3</ele><time>2022-09-06T15:50:06Z</time><name>PT10903</name></trkpt>
<trkpt lat="52.705601" lon="05.993090"><ele>-1.2</ele><time>2022-09-06T15:50:07Z</time><name>PT10904</name></trkpt>
<trkpt lat="52.705601" lon="05.993077"><ele>-1.5</ele><time>2022-09-06T15:50:08Z</time><name>PT10905</name></trkpt>
<trkpt lat="52.705601" lon="05.993063"><ele>-1.5</ele><time>2022-09-06T15:50:09Z</time><name>PT10906</name></trkpt>
<trkpt lat="52.705602" lon="05.993047"><ele>-1.6</ele><time>2022-09-06T15:50:10Z</time><name>PT10907</name></trkpt>
<trkpt lat="52.705602" lon="05.993025"><ele>-1.5</ele><time>2022-09-06T15:50:11Z</time><name>PT10908</name></trkpt>
<trkpt lat="52.705603" lon="05.993001"><ele>-1.6</ele><time>2022-09-06T15:50:12Z</time><name>PT10909</name></trkpt>
<trkpt lat="52.705602" lon="05.992975"><ele>-1.5</ele><time>2022-09-06T15:50:13Z</time><name>PT10910</name></trkpt>
<trkpt lat="52.705599" lon="05.992949"><ele>-1.4</ele><time>2022-09-06T15:50:14Z</time><name>PT10911</name></trkpt>
<trkpt lat="52.705595" lon="05.992926"><ele>-1.2</ele><time>2022-09-06T15:50:15Z</time><name>PT10912</name></trkpt>
<trkpt lat="52.705594" lon="05.992909"><ele>-1.4</ele><time>2022-09-06T15:50:16Z</time><name>PT10913</name></trkpt>
<trkpt lat="52.705593" lon="05.992897"><ele>-1.4</ele><time>2022-09-06T15:50:17Z</time><name>PT10914</name></trkpt>
<trkpt lat="52.705591" lon="05.992885"><ele>-1.5</ele><time>2022-09-06T15:50:18Z</time><name>PT10915</name></trkpt>
<trkpt lat="52.705590" lon="05.992874"><ele>-1.6</ele><time>2022-09-06T15:50:19Z</time><name>PT10916</name></trkpt>
<trkpt lat="52.705590" lon="05.992861"><ele>-1.7</ele><time>2022-09-06T15:50:20Z</time><name>PT10917</name></trkpt>
<trkpt lat="52.705591" lon="05.992846"><ele>-1.6</ele><time>2022-09-06T15:50:21Z</time><name>PT10918</name></trkpt>
<trkpt lat="52.705592" lon="05.992826"><ele>-1.6</ele><time>2022-09-06T15:50:22Z</time><name>PT10919</name></trkpt>
<trkpt lat="52.705593" lon="05.992800"><ele>-1.5</ele><time>2022-09-06T15:50:23Z</time><name>PT10920</name></trkpt>
<trkpt lat="52.705593" lon="05.992775"><ele>-1.5</ele><time>2022-09-06T15:50:24Z</time><name>PT10921</name></trkpt>
<trkpt lat="52.705592" lon="05.992755"><ele>-1.5</ele><time>2022-09-06T15:50:25Z</time><name>PT10922</name></trkpt>
<trkpt lat="52.705589" lon="05.992740"><ele>-1.4</ele><time>2022-09-06T15:50:26Z</time><name>PT10923</name></trkpt>
<trkpt lat="52.705588" lon="05.992727"><ele>-1.3</ele><time>2022-09-06T15:50:27Z</time><name>PT10924</name></trkpt>
<trkpt lat="52.705587" lon="05.992716"><ele>-1.3</ele><time>2022-09-06T15:50:28Z</time><name>PT10925</name></trkpt>
<trkpt lat="52.705585" lon="05.992707"><ele>-1.3</ele><time>2022-09-06T15:50:29Z</time><name>PT10926</name></trkpt>
<trkpt lat="52.705585" lon="05.992698"><ele>-1.4</ele><time>2022-09-06T15:50:30Z</time><name>PT10927</name></trkpt>
<trkpt lat="52.705586" lon="05.992684"><ele>-1.5</ele><time>2022-09-06T15:50:31Z</time><name>PT10928</name></trkpt>
<trkpt lat="52.705587" lon="05.992664"><ele>-1.5</ele><time>2022-09-06T15:50:32Z</time><name>PT10929</name></trkpt>
<trkpt lat="52.705587" lon="05.992640"><ele>-1.5</ele><time>2022-09-06T15:50:33Z</time><name>PT10930</name></trkpt>
<trkpt lat="52.705586" lon="05.992614"><ele>-1.6</ele><time>2022-09-06T15:50:34Z</time><name>PT10931</name></trkpt>
<trkpt lat="52.705586" lon="05.992587"><ele>-1.6</ele><time>2022-09-06T15:50:35Z</time><name>PT10932</name></trkpt>
<trkpt lat="52.705585" lon="05.992568"><ele>-1.5</ele><time>2022-09-06T15:50:36Z</time><name>PT10933</name></trkpt>
<trkpt lat="52.705582" lon="05.992554"><ele>-1.5</ele><time>2022-09-06T15:50:37Z</time><name>PT10934</name></trkpt>
<trkpt lat="52.705581" lon="05.992541"><ele>-1.3</ele><time>2022-09-06T15:50:38Z</time><name>PT10935</name></trkpt>
<trkpt lat="52.705579" lon="05.992527"><ele>-1.1</ele><time>2022-09-06T15:50:39Z</time><name>PT10936</name></trkpt>
<trkpt lat="52.705578" lon="05.992513"><ele>-1</ele><time>2022-09-06T15:50:40Z</time><name>PT10937</name></trkpt>
<trkpt lat="52.705577" lon="05.992492"><ele>-1.2</ele><time>2022-09-06T15:50:41Z</time><name>PT10938</name></trkpt>
<trkpt lat="52.705576" lon="05.992467"><ele>-1.4</ele><time>2022-09-06T15:50:42Z</time><name>PT10939</name></trkpt>
<trkpt lat="52.705575" lon="05.992445"><ele>-1.5</ele><time>2022-09-06T15:50:43Z</time><name>PT10940</name></trkpt>
<trkpt lat="52.705573" lon="05.992428"><ele>-1.8</ele><time>2022-09-06T15:50:44Z</time><name>PT10941</name></trkpt>
<trkpt lat="52.705571" lon="05.992416"><ele>-1.8</ele><time>2022-09-06T15:50:45Z</time><name>PT10942</name></trkpt>
<trkpt lat="52.705571" lon="05.992405"><ele>-1.6</ele><time>2022-09-06T15:50:46Z</time><name>PT10943</name></trkpt>
<trkpt lat="52.705571" lon="05.992390"><ele>-1.4</ele><time>2022-09-06T15:50:47Z</time><name>PT10944</name></trkpt>
<trkpt lat="52.705572" lon="05.992373"><ele>-1.2</ele><time>2022-09-06T15:50:48Z</time><name>PT10945</name></trkpt>
<trkpt lat="52.705572" lon="05.992353"><ele>-1.1</ele><time>2022-09-06T15:50:49Z</time><name>PT10946</name></trkpt>
<trkpt lat="52.705571" lon="05.992329"><ele>-1.1</ele><time>2022-09-06T15:50:50Z</time><name>PT10947</name></trkpt>
<trkpt lat="52.705569" lon="05.992304"><ele>-1</ele><time>2022-09-06T15:50:51Z</time><name>PT10948</name></trkpt>
<trkpt lat="52.705567" lon="05.992284"><ele>-1.1</ele><time>2022-09-06T15:50:52Z</time><name>PT10949</name></trkpt>
<trkpt lat="52.705565" lon="05.992271"><ele>-1.3</ele><time>2022-09-06T15:50:53Z</time><name>PT10950</name></trkpt>
<trkpt lat="52.705563" lon="05.992258"><ele>-1.3</ele><time>2022-09-06T15:50:54Z</time><name>PT10951</name></trkpt>
<trkpt lat="52.705561" lon="05.992246"><ele>-1.4</ele><time>2022-09-06T15:50:55Z</time><name>PT10952</name></trkpt>
<trkpt lat="52.705561" lon="05.992232"><ele>-1.5</ele><time>2022-09-06T15:50:56Z</time><name>PT10953</name></trkpt>
<trkpt lat="52.705562" lon="05.992216"><ele>-1.3</ele><time>2022-09-06T15:50:57Z</time><name>PT10954</name></trkpt>
<trkpt lat="52.705563" lon="05.992196"><ele>-1.2</ele><time>2022-09-06T15:50:58Z</time><name>PT10955</name></trkpt>
<trkpt lat="52.705564" lon="05.992173"><ele>-1</ele><time>2022-09-06T15:50:59Z</time><name>PT10956</name></trkpt>
<trkpt lat="52.705564" lon="05.992149"><ele>-1</ele><time>2022-09-06T15:51:00Z</time><name>PT10957</name></trkpt>
<trkpt lat="52.705563" lon="05.992127"><ele>-1.1</ele><time>2022-09-06T15:51:01Z</time><name>PT10958</name></trkpt>
<trkpt lat="52.705562" lon="05.992108"><ele>-1.4</ele><time>2022-09-06T15:51:02Z</time><name>PT10959</name></trkpt>
<trkpt lat="52.705561" lon="05.992095"><ele>-1.3</ele><time>2022-09-06T15:51:03Z</time><name>PT10960</name></trkpt>
<trkpt lat="52.705559" lon="05.992083"><ele>-1.4</ele><time>2022-09-06T15:51:04Z</time><name>PT10961</name></trkpt>
<trkpt lat="52.705558" lon="05.992071"><ele>-1.5</ele><time>2022-09-06T15:51:05Z</time><name>PT10962</name></trkpt>
<trkpt lat="52.705557" lon="05.992058"><ele>-1.5</ele><time>2022-09-06T15:51:06Z</time><name>PT10963</name></trkpt>
<trkpt lat="52.705556" lon="05.992044"><ele>-1.4</ele><time>2022-09-06T15:51:07Z</time><name>PT10964</name></trkpt>
<trkpt lat="52.705556" lon="05.992026"><ele>-1.4</ele><time>2022-09-06T15:51:08Z</time><name>PT10965</name></trkpt>
<trkpt lat="52.705557" lon="05.992004"><ele>-1.3</ele><time>2022-09-06T15:51:09Z</time><name>PT10966</name></trkpt>
<trkpt lat="52.705556" lon="05.991980"><ele>-1.2</ele><time>2022-09-06T15:51:10Z</time><name>PT10967</name></trkpt>
<trkpt lat="52.705555" lon="05.991954"><ele>-1.1</ele><time>2022-09-06T15:51:11Z</time><name>PT10968</name></trkpt>
<trkpt lat="52.705554" lon="05.991929"><ele>-1</ele><time>2022-09-06T15:51:12Z</time><name>PT10969</name></trkpt>
<trkpt lat="52.705553" lon="05.991908"><ele>-1</ele><time>2022-09-06T15:51:13Z</time><name>PT10970</name></trkpt>
<trkpt lat="52.705551" lon="05.991893"><ele>-1</ele><time>2022-09-06T15:51:14Z</time><name>PT10971</name></trkpt>
<trkpt lat="52.705549" lon="05.991881"><ele>-1</ele><time>2022-09-06T15:51:15Z</time><name>PT10972</name></trkpt>
<trkpt lat="52.705547" lon="05.991869"><ele>-1</ele><time>2022-09-06T15:51:16Z</time><name>PT10973</name></trkpt>
<trkpt lat="52.705546" lon="05.991854"><ele>-1</ele><time>2022-09-06T15:51:17Z</time><name>PT10974</name></trkpt>
<trkpt lat="52.705547" lon="05.991839"><ele>-1.2</ele><time>2022-09-06T15:51:18Z</time><name>PT10975</name></trkpt>
<trkpt lat="52.705548" lon="05.991820"><ele>-1.2</ele><time>2022-09-06T15:51:19Z</time><name>PT10976</name></trkpt>
<trkpt lat="52.705548" lon="05.991798"><ele>-1.1</ele><time>2022-09-06T15:51:20Z</time><name>PT10977</name></trkpt>
<trkpt lat="52.705547" lon="05.991773"><ele>-1.2</ele><time>2022-09-06T15:51:21Z</time><name>PT10978</name></trkpt>
<trkpt lat="52.705546" lon="05.991754"><ele>-1.1</ele><time>2022-09-06T15:51:22Z</time><name>PT10979</name></trkpt>
<trkpt lat="52.705544" lon="05.991740"><ele>-1.1</ele><time>2022-09-06T15:51:23Z</time><name>PT10980</name></trkpt>
<trkpt lat="52.705541" lon="05.991727"><ele>-1.2</ele><time>2022-09-06T15:51:24Z</time><name>PT10981</name></trkpt>
<trkpt lat="52.705540" lon="05.991713"><ele>-1.3</ele><time>2022-09-06T15:51:25Z</time><name>PT10982</name></trkpt>
<trkpt lat="52.705539" lon="05.991699"><ele>-1.3</ele><time>2022-09-06T15:51:26Z</time><name>PT10983</name></trkpt>
<trkpt lat="52.705539" lon="05.991683"><ele>-1.3</ele><time>2022-09-06T15:51:27Z</time><name>PT10984</name></trkpt>
<trkpt lat="52.705540" lon="05.991665"><ele>-1.2</ele><time>2022-09-06T15:51:28Z</time><name>PT10985</name></trkpt>
<trkpt lat="52.705541" lon="05.991644"><ele>-1</ele><time>2022-09-06T15:51:29Z</time><name>PT10986</name></trkpt>
<trkpt lat="52.705541" lon="05.991621"><ele>0.9</ele><time>2022-09-06T15:51:30Z</time><name>PT10987</name></trkpt>
<trkpt lat="52.705540" lon="05.991599"><ele>0.9</ele><time>2022-09-06T15:51:31Z</time><name>PT10988</name></trkpt>
<trkpt lat="52.705538" lon="05.991582"><ele>0.8</ele><time>2022-09-06T15:51:32Z</time><name>PT10989</name></trkpt>
<trkpt lat="52.705535" lon="05.991566"><ele>0.8</ele><time>2022-09-06T15:51:33Z</time><name>PT10990</name></trkpt>
<trkpt lat="52.705534" lon="05.991554"><ele>0.9</ele><time>2022-09-06T15:51:34Z</time><name>PT10991</name></trkpt>
<trkpt lat="52.705533" lon="05.991542"><ele>-1</ele><time>2022-09-06T15:51:35Z</time><name>PT10992</name></trkpt>
<trkpt lat="52.705533" lon="05.991527"><ele>-1</ele><time>2022-09-06T15:51:36Z</time><name>PT10993</name></trkpt>
<trkpt lat="52.705535" lon="05.991508"><ele>-1.1</ele><time>2022-09-06T15:51:37Z</time><name>PT10994</name></trkpt>
<trkpt lat="52.705536" lon="05.991487"><ele>-1.2</ele><time>2022-09-06T15:51:38Z</time><name>PT10995</name></trkpt>
<trkpt lat="52.705536" lon="05.991462"><ele>-1.2</ele><time>2022-09-06T15:51:39Z</time><name>PT10996</name></trkpt>
<trkpt lat="52.705535" lon="05.991434"><ele>-1.4</ele><time>2022-09-06T15:51:40Z</time><name>PT10997</name></trkpt>
<trkpt lat="52.705531" lon="05.991408"><ele>-1.3</ele><time>2022-09-06T15:51:41Z</time><name>PT10998</name></trkpt>
<trkpt lat="52.705528" lon="05.991387"><ele>-1.5</ele><time>2022-09-06T15:51:42Z</time><name>PT10999</name></trkpt>
<trkpt lat="52.705527" lon="05.991370"><ele>-1.5</ele><time>2022-09-06T15:51:43Z</time><name>PT11000</name></trkpt>
<trkpt lat="52.705525" lon="05.991358"><ele>-1.3</ele><time>2022-09-06T15:51:44Z</time><name>PT11001</name></trkpt>
<trkpt lat="52.705524" lon="05.991346"><ele>-1.4</ele><time>2022-09-06T15:51:45Z</time><name>PT11002</name></trkpt>
<trkpt lat="52.705524" lon="05.991333"><ele>-1.5</ele><time>2022-09-06T15:51:46Z</time><name>PT11003</name></trkpt>
<trkpt lat="52.705525" lon="05.991318"><ele>-1.5</ele><time>2022-09-06T15:51:47Z</time><name>PT11004</name></trkpt>
<trkpt lat="52.705525" lon="05.991300"><ele>-1.5</ele><time>2022-09-06T15:51:48Z</time><name>PT11005</name></trkpt>
<trkpt lat="52.705524" lon="05.991279"><ele>-1.7</ele><time>2022-09-06T15:51:49Z</time><name>PT11006</name></trkpt>
<trkpt lat="52.705523" lon="05.991255"><ele>-1.6</ele><time>2022-09-06T15:51:50Z</time><name>PT11007</name></trkpt>
<trkpt lat="52.705522" lon="05.991230"><ele>-1.6</ele><time>2022-09-06T15:51:51Z</time><name>PT11008</name></trkpt>
<trkpt lat="52.705520" lon="05.991212"><ele>-1.5</ele><time>2022-09-06T15:51:52Z</time><name>PT11009</name></trkpt>
<trkpt lat="52.705517" lon="05.991198"><ele>-1.4</ele><time>2022-09-06T15:51:53Z</time><name>PT11010</name></trkpt>
<trkpt lat="52.705515" lon="05.991184"><ele>-1.2</ele><time>2022-09-06T15:51:54Z</time><name>PT11011</name></trkpt>
<trkpt lat="52.705514" lon="05.991172"><ele>-1.2</ele><time>2022-09-06T15:51:55Z</time><name>PT11012</name></trkpt>
<trkpt lat="52.705514" lon="05.991160"><ele>-1.1</ele><time>2022-09-06T15:51:56Z</time><name>PT11013</name></trkpt>
<trkpt lat="52.705514" lon="05.991141"><ele>-1.1</ele><time>2022-09-06T15:51:57Z</time><name>PT11014</name></trkpt>
<trkpt lat="52.705513" lon="05.991118"><ele>-1.3</ele><time>2022-09-06T15:51:58Z</time><name>PT11015</name></trkpt>
<trkpt lat="52.705512" lon="05.991096"><ele>-1.3</ele><time>2022-09-06T15:51:59Z</time><name>PT11016</name></trkpt>
<trkpt lat="52.705511" lon="05.991075"><ele>-1.3</ele><time>2022-09-06T15:52:00Z</time><name>PT11017</name></trkpt>
<trkpt lat="52.705510" lon="05.991059"><ele>-1.3</ele><time>2022-09-06T15:52:01Z</time><name>PT11018</name></trkpt>
<trkpt lat="52.705509" lon="05.991047"><ele>-1.3</ele><time>2022-09-06T15:52:02Z</time><name>PT11019</name></trkpt>
<trkpt lat="52.705509" lon="05.991035"><ele>-1.3</ele><time>2022-09-06T15:52:03Z</time><name>PT11020</name></trkpt>
<trkpt lat="52.705511" lon="05.991019"><ele>-1.4</ele><time>2022-09-06T15:52:04Z</time><name>PT11021</name></trkpt>
<trkpt lat="52.705511" lon="05.990997"><ele>-1.4</ele><time>2022-09-06T15:52:05Z</time><name>PT11022</name></trkpt>
<trkpt lat="52.705510" lon="05.990974"><ele>-1.4</ele><time>2022-09-06T15:52:06Z</time><name>PT11023</name></trkpt>
<trkpt lat="52.705507" lon="05.990955"><ele>-1.4</ele><time>2022-09-06T15:52:07Z</time><name>PT11024</name></trkpt>
<trkpt lat="52.705506" lon="05.990938"><ele>-1.4</ele><time>2022-09-06T15:52:08Z</time><name>PT11025</name></trkpt>
<trkpt lat="52.705503" lon="05.990925"><ele>-1.4</ele><time>2022-09-06T15:52:09Z</time><name>PT11026</name></trkpt>
<trkpt lat="52.705501" lon="05.990915"><ele>-1.4</ele><time>2022-09-06T15:52:10Z</time><name>PT11027</name></trkpt>
<trkpt lat="52.705501" lon="05.990904"><ele>-1.2</ele><time>2022-09-06T15:52:11Z</time><name>PT11028</name></trkpt>
<trkpt lat="52.705501" lon="05.990893"><ele>-1.2</ele><time>2022-09-06T15:52:12Z</time><name>PT11029</name></trkpt>
<trkpt lat="52.705502" lon="05.990877"><ele>-1.1</ele><time>2022-09-06T15:52:13Z</time><name>PT11030</name></trkpt>
<trkpt lat="52.705502" lon="05.990857"><ele>-1.1</ele><time>2022-09-06T15:52:14Z</time><name>PT11031</name></trkpt>
<trkpt lat="52.705500" lon="05.990835"><ele>-1</ele><time>2022-09-06T15:52:15Z</time><name>PT11032</name></trkpt>
<trkpt lat="52.705498" lon="05.990824"><ele>-1.4</ele><time>2022-09-06T15:52:16Z</time><name>PT11033</name></trkpt>
<trkpt lat="52.705497" lon="05.990815"><ele>-1.4</ele><time>2022-09-06T15:52:17Z</time><name>PT11034</name></trkpt>
<trkpt lat="52.705495" lon="05.990797"><ele>-1.3</ele><time>2022-09-06T15:52:18Z</time><name>PT11035</name></trkpt>
<trkpt lat="52.705492" lon="05.990785"><ele>-1.4</ele><time>2022-09-06T15:52:19Z</time><name>PT11036</name></trkpt>
<trkpt lat="52.705491" lon="05.990781"><ele>-1.4</ele><time>2022-09-06T15:52:20Z</time><name>PT11037</name></trkpt>
<trkpt lat="52.705491" lon="05.990772"><ele>-1.5</ele><time>2022-09-06T15:52:21Z</time><name>PT11038</name></trkpt>
<trkpt lat="52.705493" lon="05.990751"><ele>-1.6</ele><time>2022-09-06T15:52:22Z</time><name>PT11039</name></trkpt>
<trkpt lat="52.705497" lon="05.990732"><ele>-1.5</ele><time>2022-09-06T15:52:23Z</time><name>PT11040</name></trkpt>
<trkpt lat="52.705499" lon="05.990710"><ele>-1.5</ele><time>2022-09-06T15:52:24Z</time><name>PT11041</name></trkpt>
<trkpt lat="52.705498" lon="05.990685"><ele>-1.2</ele><time>2022-09-06T15:52:25Z</time><name>PT11042</name></trkpt>
<trkpt lat="52.705496" lon="05.990667"><ele>-1.2</ele><time>2022-09-06T15:52:26Z</time><name>PT11043</name></trkpt>
<trkpt lat="52.705495" lon="05.990660"><ele>-1</ele><time>2022-09-06T15:52:27Z</time><name>PT11044</name></trkpt>
<trkpt lat="52.705493" lon="05.990652"><ele>0.9</ele><time>2022-09-06T15:52:28Z</time><name>PT11045</name></trkpt>
<trkpt lat="52.705493" lon="05.990642"><ele>-1</ele><time>2022-09-06T15:52:29Z</time><name>PT11046</name></trkpt>
<trkpt lat="52.705493" lon="05.990629"><ele>-1.1</ele><time>2022-09-06T15:52:30Z</time><name>PT11047</name></trkpt>
<trkpt lat="52.705493" lon="05.990612"><ele>-1.1</ele><time>2022-09-06T15:52:31Z</time><name>PT11048</name></trkpt>
<trkpt lat="52.705493" lon="05.990592"><ele>-1.1</ele><time>2022-09-06T15:52:32Z</time><name>PT11049</name></trkpt>
<trkpt lat="52.705492" lon="05.990568"><ele>-1</ele><time>2022-09-06T15:52:33Z</time><name>PT11050</name></trkpt>
<trkpt lat="52.705491" lon="05.990541"><ele>-1.3</ele><time>2022-09-06T15:52:34Z</time><name>PT11051</name></trkpt>
<trkpt lat="52.705489" lon="05.990518"><ele>-1.1</ele><time>2022-09-06T15:52:35Z</time><name>PT11052</name></trkpt>
<trkpt lat="52.705487" lon="05.990502"><ele>-1</ele><time>2022-09-06T15:52:36Z</time><name>PT11053</name></trkpt>
<trkpt lat="52.705484" lon="05.990491"><ele>-1.2</ele><time>2022-09-06T15:52:37Z</time><name>PT11054</name></trkpt>
<trkpt lat="52.705482" lon="05.990481"><ele>-1.1</ele><time>2022-09-06T15:52:38Z</time><name>PT11055</name></trkpt>
<trkpt lat="52.705482" lon="05.990472"><ele>-1</ele><time>2022-09-06T15:52:39Z</time><name>PT11056</name></trkpt>
<trkpt lat="52.705483" lon="05.990462"><ele>-1</ele><time>2022-09-06T15:52:40Z</time><name>PT11057</name></trkpt>
<trkpt lat="52.705484" lon="05.990445"><ele>-1</ele><time>2022-09-06T15:52:41Z</time><name>PT11058</name></trkpt>
<trkpt lat="52.705483" lon="05.990422"><ele>-1</ele><time>2022-09-06T15:52:42Z</time><name>PT11059</name></trkpt>
<trkpt lat="52.705482" lon="05.990400"><ele>-1</ele><time>2022-09-06T15:52:43Z</time><name>PT11060</name></trkpt>
<trkpt lat="52.705480" lon="05.990382"><ele>-1.1</ele><time>2022-09-06T15:52:44Z</time><name>PT11061</name></trkpt>
<trkpt lat="52.705479" lon="05.990371"><ele>-1.2</ele><time>2022-09-06T15:52:45Z</time><name>PT11062</name></trkpt>
<trkpt lat="52.705478" lon="05.990362"><ele>-1.2</ele><time>2022-09-06T15:52:46Z</time><name>PT11063</name></trkpt>
<trkpt lat="52.705477" lon="05.990352"><ele>-1.1</ele><time>2022-09-06T15:52:47Z</time><name>PT11064</name></trkpt>
<trkpt lat="52.705476" lon="05.990339"><ele>-1</ele><time>2022-09-06T15:52:48Z</time><name>PT11065</name></trkpt>
<trkpt lat="52.705476" lon="05.990321"><ele>-1</ele><time>2022-09-06T15:52:49Z</time><name>PT11066</name></trkpt>
<trkpt lat="52.705478" lon="05.990300"><ele>-1.2</ele><time>2022-09-06T15:52:50Z</time><name>PT11067</name></trkpt>
<trkpt lat="52.705477" lon="05.990277"><ele>-1.1</ele><time>2022-09-06T15:52:51Z</time><name>PT11068</name></trkpt>
<trkpt lat="52.705475" lon="05.990254"><ele>-1.4</ele><time>2022-09-06T15:52:52Z</time><name>PT11069</name></trkpt>
<trkpt lat="52.705474" lon="05.990234"><ele>-1.4</ele><time>2022-09-06T15:52:53Z</time><name>PT11070</name></trkpt>
<trkpt lat="52.705472" lon="05.990218"><ele>-1.5</ele><time>2022-09-06T15:52:54Z</time><name>PT11071</name></trkpt>
<trkpt lat="52.705470" lon="05.990206"><ele>-1.5</ele><time>2022-09-06T15:52:55Z</time><name>PT11072</name></trkpt>
<trkpt lat="52.705469" lon="05.990195"><ele>-1.4</ele><time>2022-09-06T15:52:56Z</time><name>PT11073</name></trkpt>
<trkpt lat="52.705469" lon="05.990183"><ele>-1.3</ele><time>2022-09-06T15:52:57Z</time><name>PT11074</name></trkpt>
<trkpt lat="52.705469" lon="05.990171"><ele>-1.3</ele><time>2022-09-06T15:52:58Z</time><name>PT11075</name></trkpt>
<trkpt lat="52.705470" lon="05.990156"><ele>-1</ele><time>2022-09-06T15:52:59Z</time><name>PT11076</name></trkpt>
<trkpt lat="52.705471" lon="05.990138"><ele>-1.1</ele><time>2022-09-06T15:53:00Z</time><name>PT11077</name></trkpt>
<trkpt lat="52.705470" lon="05.990117"><ele>-1.1</ele><time>2022-09-06T15:53:01Z</time><name>PT11078</name></trkpt>
<trkpt lat="52.705469" lon="05.990094"><ele>-1.1</ele><time>2022-09-06T15:53:02Z</time><name>PT11079</name></trkpt>
<trkpt lat="52.705467" lon="05.990070"><ele>-1</ele><time>2022-09-06T15:53:03Z</time><name>PT11080</name></trkpt>
<trkpt lat="52.705466" lon="05.990049"><ele>-1</ele><time>2022-09-06T15:53:04Z</time><name>PT11081</name></trkpt>
<trkpt lat="52.705463" lon="05.990034"><ele>-1</ele><time>2022-09-06T15:53:05Z</time><name>PT11082</name></trkpt>
<trkpt lat="52.705462" lon="05.990025"><ele>0.9</ele><time>2022-09-06T15:53:06Z</time><name>PT11083</name></trkpt>
<trkpt lat="52.705461" lon="05.990016"><ele>0.9</ele><time>2022-09-06T15:53:07Z</time><name>PT11084</name></trkpt>
<trkpt lat="52.705462" lon="05.990004"><ele>-1</ele><time>2022-09-06T15:53:08Z</time><name>PT11085</name></trkpt>
<trkpt lat="52.705462" lon="05.989982"><ele>-1</ele><time>2022-09-06T15:53:09Z</time><name>PT11086</name></trkpt>
<trkpt lat="52.705460" lon="05.989963"><ele>-1</ele><time>2022-09-06T15:53:10Z</time><name>PT11087</name></trkpt>
<trkpt lat="52.705458" lon="05.989939"><ele>-1.2</ele><time>2022-09-06T15:53:11Z</time><name>PT11088</name></trkpt>
<trkpt lat="52.705455" lon="05.989911"><ele>-1.4</ele><time>2022-09-06T15:53:12Z</time><name>PT11089</name></trkpt>
<trkpt lat="52.705453" lon="05.989886"><ele>-1.3</ele><time>2022-09-06T15:53:13Z</time><name>PT11090</name></trkpt>
<trkpt lat="52.705451" lon="05.989867"><ele>-1.5</ele><time>2022-09-06T15:53:14Z</time><name>PT11091</name></trkpt>
<trkpt lat="52.705450" lon="05.989851"><ele>-1.5</ele><time>2022-09-06T15:53:15Z</time><name>PT11092</name></trkpt>
<trkpt lat="52.705449" lon="05.989840"><ele>-1.5</ele><time>2022-09-06T15:53:16Z</time><name>PT11093</name></trkpt>
<trkpt lat="52.705449" lon="05.989830"><ele>-1.3</ele><time>2022-09-06T15:53:17Z</time><name>PT11094</name></trkpt>
<trkpt lat="52.705450" lon="05.989818"><ele>-1.3</ele><time>2022-09-06T15:53:18Z</time><name>PT11095</name></trkpt>
<trkpt lat="52.705451" lon="05.989803"><ele>-1.2</ele><time>2022-09-06T15:53:19Z</time><name>PT11096</name></trkpt>
<trkpt lat="52.705451" lon="05.989783"><ele>-1.1</ele><time>2022-09-06T15:53:20Z</time><name>PT11097</name></trkpt>
<trkpt lat="52.705451" lon="05.989761"><ele>-1.4</ele><time>2022-09-06T15:53:21Z</time><name>PT11098</name></trkpt>
<trkpt lat="52.705450" lon="05.989738"><ele>-1.4</ele><time>2022-09-06T15:53:22Z</time><name>PT11099</name></trkpt>
<trkpt lat="52.705449" lon="05.989715"><ele>-1.3</ele><time>2022-09-06T15:53:23Z</time><name>PT11100</name></trkpt>
<trkpt lat="52.705447" lon="05.989697"><ele>-1.3</ele><time>2022-09-06T15:53:24Z</time><name>PT11101</name></trkpt>
<trkpt lat="52.705444" lon="05.989684"><ele>-1.2</ele><time>2022-09-06T15:53:25Z</time><name>PT11102</name></trkpt>
<trkpt lat="52.705441" lon="05.989674"><ele>-1.2</ele><time>2022-09-06T15:53:26Z</time><name>PT11103</name></trkpt>
<trkpt lat="52.705439" lon="05.989666"><ele>-1.1</ele><time>2022-09-06T15:53:27Z</time><name>PT11104</name></trkpt>
<trkpt lat="52.705438" lon="05.989659"><ele>-1.1</ele><time>2022-09-06T15:53:28Z</time><name>PT11105</name></trkpt>
<trkpt lat="52.705438" lon="05.989650"><ele>-1</ele><time>2022-09-06T15:53:29Z</time><name>PT11106</name></trkpt>
<trkpt lat="52.705439" lon="05.989638"><ele>-1</ele><time>2022-09-06T15:53:30Z</time><name>PT11107</name></trkpt>
<trkpt lat="52.705440" lon="05.989616"><ele>0.7</ele><time>2022-09-06T15:53:31Z</time><name>PT11108</name></trkpt>
<trkpt lat="52.705439" lon="05.989590"><ele>0.7</ele><time>2022-09-06T15:53:32Z</time><name>PT11109</name></trkpt>
<trkpt lat="52.705437" lon="05.989564"><ele>0.8</ele><time>2022-09-06T15:53:33Z</time><name>PT11110</name></trkpt>
<trkpt lat="52.705435" lon="05.989539"><ele>-1</ele><time>2022-09-06T15:53:34Z</time><name>PT11111</name></trkpt>
<trkpt lat="52.705431" lon="05.989518"><ele>-1</ele><time>2022-09-06T15:53:35Z</time><name>PT11112</name></trkpt>
<trkpt lat="52.705427" lon="05.989500"><ele>-1.1</ele><time>2022-09-06T15:53:36Z</time><name>PT11113</name></trkpt>
<trkpt lat="52.705425" lon="05.989486"><ele>-1.3</ele><time>2022-09-06T15:53:37Z</time><name>PT11114</name></trkpt>
<trkpt lat="52.705424" lon="05.989474"><ele>-1.2</ele><time>2022-09-06T15:53:38Z</time><name>PT11115</name></trkpt>
<trkpt lat="52.705425" lon="05.989461"><ele>-1.2</ele><time>2022-09-06T15:53:39Z</time><name>PT11116</name></trkpt>
<trkpt lat="52.705426" lon="05.989446"><ele>-1.3</ele><time>2022-09-06T15:53:40Z</time><name>PT11117</name></trkpt>
<trkpt lat="52.705427" lon="05.989431"><ele>-1.3</ele><time>2022-09-06T15:53:41Z</time><name>PT11118</name></trkpt>
<trkpt lat="52.705427" lon="05.989412"><ele>-1.1</ele><time>2022-09-06T15:53:42Z</time><name>PT11119</name></trkpt>
<trkpt lat="52.705426" lon="05.989390"><ele>-1.2</ele><time>2022-09-06T15:53:43Z</time><name>PT11120</name></trkpt>
<trkpt lat="52.705423" lon="05.989370"><ele>-1.1</ele><time>2022-09-06T15:53:44Z</time><name>PT11121</name></trkpt>
<trkpt lat="52.705422" lon="05.989352"><ele>-1.1</ele><time>2022-09-06T15:53:45Z</time><name>PT11122</name></trkpt>
<trkpt lat="52.705421" lon="05.989338"><ele>-1.1</ele><time>2022-09-06T15:53:46Z</time><name>PT11123</name></trkpt>
<trkpt lat="52.705420" lon="05.989325"><ele>-1.2</ele><time>2022-09-06T15:53:47Z</time><name>PT11124</name></trkpt>
<trkpt lat="52.705420" lon="05.989308"><ele>-1.2</ele><time>2022-09-06T15:53:48Z</time><name>PT11125</name></trkpt>
<trkpt lat="52.705420" lon="05.989293"><ele>-1.1</ele><time>2022-09-06T15:53:49Z</time><name>PT11126</name></trkpt>
<trkpt lat="52.705420" lon="05.989277"><ele>-1.1</ele><time>2022-09-06T15:53:50Z</time><name>PT11127</name></trkpt>
<trkpt lat="52.705418" lon="05.989255"><ele>-1</ele><time>2022-09-06T15:53:51Z</time><name>PT11128</name></trkpt>
<trkpt lat="52.705417" lon="05.989230"><ele>-1</ele><time>2022-09-06T15:53:52Z</time><name>PT11129</name></trkpt>
<trkpt lat="52.705416" lon="05.989207"><ele>-1</ele><time>2022-09-06T15:53:53Z</time><name>PT11130</name></trkpt>
<trkpt lat="52.705414" lon="05.989188"><ele>0.9</ele><time>2022-09-06T15:53:54Z</time><name>PT11131</name></trkpt>
<trkpt lat="52.705412" lon="05.989174"><ele>-1</ele><time>2022-09-06T15:53:55Z</time><name>PT11132</name></trkpt>
<trkpt lat="52.705409" lon="05.989161"><ele>-1</ele><time>2022-09-06T15:53:56Z</time><name>PT11133</name></trkpt>
<trkpt lat="52.705408" lon="05.989149"><ele>-1.1</ele><time>2022-09-06T15:53:57Z</time><name>PT11134</name></trkpt>
<trkpt lat="52.705408" lon="05.989135"><ele>-1</ele><time>2022-09-06T15:53:58Z</time><name>PT11135</name></trkpt>
<trkpt lat="52.705410" lon="05.989117"><ele>-1</ele><time>2022-09-06T15:53:59Z</time><name>PT11136</name></trkpt>
<trkpt lat="52.705412" lon="05.989094"><ele>0.9</ele><time>2022-09-06T15:54:00Z</time><name>PT11137</name></trkpt>
<trkpt lat="52.705412" lon="05.989068"><ele>0.9</ele><time>2022-09-06T15:54:01Z</time><name>PT11138</name></trkpt>
<trkpt lat="52.705410" lon="05.989041"><ele>0.5</ele><time>2022-09-06T15:54:02Z</time><name>PT11139</name></trkpt>
<trkpt lat="52.705408" lon="05.989019"><ele>0.7</ele><time>2022-09-06T15:54:03Z</time><name>PT11140</name></trkpt>
<trkpt lat="52.705404" lon="05.989002"><ele>0.5</ele><time>2022-09-06T15:54:04Z</time><name>PT11141</name></trkpt>
<trkpt lat="52.705401" lon="05.988990"><ele>0.5</ele><time>2022-09-06T15:54:05Z</time><name>PT11142</name></trkpt>
<trkpt lat="52.705400" lon="05.988978"><ele>0.5</ele><time>2022-09-06T15:54:06Z</time><name>PT11143</name></trkpt>
<trkpt lat="52.705400" lon="05.988965"><ele>0.6</ele><time>2022-09-06T15:54:07Z</time><name>PT11144</name></trkpt>
<trkpt lat="52.705402" lon="05.988949"><ele>0.6</ele><time>2022-09-06T15:54:08Z</time><name>PT11145</name></trkpt>
<trkpt lat="52.705404" lon="05.988930"><ele>0.6</ele><time>2022-09-06T15:54:09Z</time><name>PT11146</name></trkpt>
<trkpt lat="52.705406" lon="05.988909"><ele>0.8</ele><time>2022-09-06T15:54:10Z</time><name>PT11147</name></trkpt>
<trkpt lat="52.705403" lon="05.988885"><ele>0.6</ele><time>2022-09-06T15:54:11Z</time><name>PT11148</name></trkpt>
<trkpt lat="52.705401" lon="05.988859"><ele>0.5</ele><time>2022-09-06T15:54:12Z</time><name>PT11149</name></trkpt>
<trkpt lat="52.705398" lon="05.988834"><ele>0.6</ele><time>2022-09-06T15:54:13Z</time><name>PT11150</name></trkpt>
<trkpt lat="52.705396" lon="05.988815"><ele>0.7</ele><time>2022-09-06T15:54:14Z</time><name>PT11151</name></trkpt>
<trkpt lat="52.705394" lon="05.988798"><ele>0.7</ele><time>2022-09-06T15:54:15Z</time><name>PT11152</name></trkpt>
<trkpt lat="52.705393" lon="05.988783"><ele>-1</ele><time>2022-09-06T15:54:16Z</time><name>PT11153</name></trkpt>
<trkpt lat="52.705391" lon="05.988770"><ele>-1</ele><time>2022-09-06T15:54:17Z</time><name>PT11154</name></trkpt>
<trkpt lat="52.705390" lon="05.988758"><ele>0.9</ele><time>2022-09-06T15:54:18Z</time><name>PT11155</name></trkpt>
<trkpt lat="52.705391" lon="05.988744"><ele>-1</ele><time>2022-09-06T15:54:19Z</time><name>PT11156</name></trkpt>
<trkpt lat="52.705392" lon="05.988728"><ele>-1.1</ele><time>2022-09-06T15:54:20Z</time><name>PT11157</name></trkpt>
<trkpt lat="52.705393" lon="05.988707"><ele>-1</ele><time>2022-09-06T15:54:21Z</time><name>PT11158</name></trkpt>
<trkpt lat="52.705393" lon="05.988683"><ele>-1.1</ele><time>2022-09-06T15:54:22Z</time><name>PT11159</name></trkpt>
<trkpt lat="52.705392" lon="05.988660"><ele>-1.1</ele><time>2022-09-06T15:54:23Z</time><name>PT11160</name></trkpt>
<trkpt lat="52.705391" lon="05.988638"><ele>-1</ele><time>2022-09-06T15:54:24Z</time><name>PT11161</name></trkpt>
<trkpt lat="52.705387" lon="05.988620"><ele>-1</ele><time>2022-09-06T15:54:25Z</time><name>PT11162</name></trkpt>
<trkpt lat="52.705384" lon="05.988606"><ele>-1</ele><time>2022-09-06T15:54:26Z</time><name>PT11163</name></trkpt>
<trkpt lat="52.705382" lon="05.988594"><ele>-1.1</ele><time>2022-09-06T15:54:27Z</time><name>PT11164</name></trkpt>
<trkpt lat="52.705381" lon="05.988584"><ele>-1</ele><time>2022-09-06T15:54:28Z</time><name>PT11165</name></trkpt>
<trkpt lat="52.705381" lon="05.988571"><ele>0.9</ele><time>2022-09-06T15:54:29Z</time><name>PT11166</name></trkpt>
<trkpt lat="52.705383" lon="05.988556"><ele>0.9</ele><time>2022-09-06T15:54:30Z</time><name>PT11167</name></trkpt>
<trkpt lat="52.705383" lon="05.988535"><ele>0.7</ele><time>2022-09-06T15:54:31Z</time><name>PT11168</name></trkpt>
<trkpt lat="52.705382" lon="05.988512"><ele>0.7</ele><time>2022-09-06T15:54:32Z</time><name>PT11169</name></trkpt>
<trkpt lat="52.705380" lon="05.988488"><ele>0.8</ele><time>2022-09-06T15:54:33Z</time><name>PT11170</name></trkpt>
<trkpt lat="52.705379" lon="05.988465"><ele>0.9</ele><time>2022-09-06T15:54:34Z</time><name>PT11171</name></trkpt>
<trkpt lat="52.705379" lon="05.988442"><ele>-1</ele><time>2022-09-06T15:54:35Z</time><name>PT11172</name></trkpt>
<trkpt lat="52.705377" lon="05.988422"><ele>-1</ele><time>2022-09-06T15:54:36Z</time><name>PT11173</name></trkpt>
<trkpt lat="52.705375" lon="05.988409"><ele>-1.2</ele><time>2022-09-06T15:54:37Z</time><name>PT11174</name></trkpt>
<trkpt lat="52.705373" lon="05.988401"><ele>-1.3</ele><time>2022-09-06T15:54:38Z</time><name>PT11175</name></trkpt>
<trkpt lat="52.705372" lon="05.988393"><ele>-1.2</ele><time>2022-09-06T15:54:39Z</time><name>PT11176</name></trkpt>
<trkpt lat="52.705372" lon="05.988383"><ele>-1.1</ele><time>2022-09-06T15:54:40Z</time><name>PT11177</name></trkpt>
<trkpt lat="52.705372" lon="05.988364"><ele>-1.1</ele><time>2022-09-06T15:54:41Z</time><name>PT11178</name></trkpt>
<trkpt lat="52.705372" lon="05.988341"><ele>-1</ele><time>2022-09-06T15:54:42Z</time><name>PT11179</name></trkpt>
<trkpt lat="52.705372" lon="05.988315"><ele>-1.1</ele><time>2022-09-06T15:54:43Z</time><name>PT11180</name></trkpt>
<trkpt lat="52.705372" lon="05.988287"><ele>-1.3</ele><time>2022-09-06T15:54:44Z</time><name>PT11181</name></trkpt>
<trkpt lat="52.705372" lon="05.988260"><ele>-1.4</ele><time>2022-09-06T15:54:45Z</time><name>PT11182</name></trkpt>
<trkpt lat="52.705371" lon="05.988241"><ele>-1.4</ele><time>2022-09-06T15:54:46Z</time><name>PT11183</name></trkpt>
<trkpt lat="52.705369" lon="05.988226"><ele>-1.3</ele><time>2022-09-06T15:54:47Z</time><name>PT11184</name></trkpt>
<trkpt lat="52.705366" lon="05.988215"><ele>-1.3</ele><time>2022-09-06T15:54:48Z</time><name>PT11185</name></trkpt>
<trkpt lat="52.705366" lon="05.988203"><ele>-1.4</ele><time>2022-09-06T15:54:49Z</time><name>PT11186</name></trkpt>
<trkpt lat="52.705366" lon="05.988188"><ele>-1.3</ele><time>2022-09-06T15:54:50Z</time><name>PT11187</name></trkpt>
<trkpt lat="52.705366" lon="05.988168"><ele>-1.3</ele><time>2022-09-06T15:54:51Z</time><name>PT11188</name></trkpt>
<trkpt lat="52.705366" lon="05.988145"><ele>-1.2</ele><time>2022-09-06T15:54:52Z</time><name>PT11189</name></trkpt>
<trkpt lat="52.705365" lon="05.988119"><ele>-1</ele><time>2022-09-06T15:54:53Z</time><name>PT11190</name></trkpt>
<trkpt lat="52.705364" lon="05.988096"><ele>-1</ele><time>2022-09-06T15:54:54Z</time><name>PT11191</name></trkpt>
<trkpt lat="52.705362" lon="05.988075"><ele>-1.1</ele><time>2022-09-06T15:54:55Z</time><name>PT11192</name></trkpt>
<trkpt lat="52.705361" lon="05.988059"><ele>-1.2</ele><time>2022-09-06T15:54:56Z</time><name>PT11193</name></trkpt>
<trkpt lat="52.705360" lon="05.988046"><ele>-1.1</ele><time>2022-09-06T15:54:57Z</time><name>PT11194</name></trkpt>
<trkpt lat="52.705359" lon="05.988034"><ele>-1.5</ele><time>2022-09-06T15:54:58Z</time><name>PT11195</name></trkpt>
<trkpt lat="52.705359" lon="05.988022"><ele>-1.5</ele><time>2022-09-06T15:54:59Z</time><name>PT11196</name></trkpt>
<trkpt lat="52.705360" lon="05.988007"><ele>-1.4</ele><time>2022-09-06T15:55:00Z</time><name>PT11197</name></trkpt>
<trkpt lat="52.705360" lon="05.987986"><ele>-1.4</ele><time>2022-09-06T15:55:01Z</time><name>PT11198</name></trkpt>
<trkpt lat="52.705360" lon="05.987962"><ele>-1.5</ele><time>2022-09-06T15:55:02Z</time><name>PT11199</name></trkpt>
<trkpt lat="52.705357" lon="05.987936"><ele>-1.4</ele><time>2022-09-06T15:55:03Z</time><name>PT11200</name></trkpt>
<trkpt lat="52.705356" lon="05.987910"><ele>-1.5</ele><time>2022-09-06T15:55:04Z</time><name>PT11201</name></trkpt>
<trkpt lat="52.705353" lon="05.987890"><ele>-1.5</ele><time>2022-09-06T15:55:05Z</time><name>PT11202</name></trkpt>
<trkpt lat="52.705350" lon="05.987875"><ele>-1.6</ele><time>2022-09-06T15:55:06Z</time><name>PT11203</name></trkpt>
<trkpt lat="52.705348" lon="05.987863"><ele>-1.5</ele><time>2022-09-06T15:55:07Z</time><name>PT11204</name></trkpt>
<trkpt lat="52.705346" lon="05.987852"><ele>-1.7</ele><time>2022-09-06T15:55:08Z</time><name>PT11205</name></trkpt>
<trkpt lat="52.705346" lon="05.987841"><ele>-1.7</ele><time>2022-09-06T15:55:09Z</time><name>PT11206</name></trkpt>
<trkpt lat="52.705346" lon="05.987829"><ele>-1.7</ele><time>2022-09-06T15:55:10Z</time><name>PT11207</name></trkpt>
<trkpt lat="52.705346" lon="05.987805"><ele>-1.6</ele><time>2022-09-06T15:55:11Z</time><name>PT11208</name></trkpt>
<trkpt lat="52.705348" lon="05.987778"><ele>-1.8</ele><time>2022-09-06T15:55:12Z</time><name>PT11209</name></trkpt>
<trkpt lat="52.705348" lon="05.987756"><ele>-1.7</ele><time>2022-09-06T15:55:13Z</time><name>PT11210</name></trkpt>
<trkpt lat="52.705346" lon="05.987739"><ele>-1.7</ele><time>2022-09-06T15:55:14Z</time><name>PT11211</name></trkpt>
<trkpt lat="52.705344" lon="05.987726"><ele>-1.5</ele><time>2022-09-06T15:55:15Z</time><name>PT11212</name></trkpt>
<trkpt lat="52.705342" lon="05.987713"><ele>-1.6</ele><time>2022-09-06T15:55:16Z</time><name>PT11213</name></trkpt>
<trkpt lat="52.705341" lon="05.987699"><ele>-1.5</ele><time>2022-09-06T15:55:17Z</time><name>PT11214</name></trkpt>
<trkpt lat="52.705341" lon="05.987685"><ele>-1.5</ele><time>2022-09-06T15:55:18Z</time><name>PT11215</name></trkpt>
<trkpt lat="52.705342" lon="05.987668"><ele>-1.5</ele><time>2022-09-06T15:55:19Z</time><name>PT11216</name></trkpt>
<trkpt lat="52.705342" lon="05.987649"><ele>-1.5</ele><time>2022-09-06T15:55:20Z</time><name>PT11217</name></trkpt>
<trkpt lat="52.705343" lon="05.987625"><ele>-1.5</ele><time>2022-09-06T15:55:21Z</time><name>PT11218</name></trkpt>
<trkpt lat="52.705344" lon="05.987599"><ele>-1.6</ele><time>2022-09-06T15:55:22Z</time><name>PT11219</name></trkpt>
<trkpt lat="52.705342" lon="05.987579"><ele>-1.5</ele><time>2022-09-06T15:55:23Z</time><name>PT11220</name></trkpt>
<trkpt lat="52.705340" lon="05.987563"><ele>-1.5</ele><time>2022-09-06T15:55:24Z</time><name>PT11221</name></trkpt>
<trkpt lat="52.705338" lon="05.987549"><ele>-1.5</ele><time>2022-09-06T15:55:25Z</time><name>PT11222</name></trkpt>
<trkpt lat="52.705336" lon="05.987535"><ele>-1.3</ele><time>2022-09-06T15:55:26Z</time><name>PT11223</name></trkpt>
<trkpt lat="52.705333" lon="05.987524"><ele>-1.4</ele><time>2022-09-06T15:55:27Z</time><name>PT11224</name></trkpt>
<trkpt lat="52.705333" lon="05.987513"><ele>-1.2</ele><time>2022-09-06T15:55:28Z</time><name>PT11225</name></trkpt>
<trkpt lat="52.705333" lon="05.987500"><ele>-1.2</ele><time>2022-09-06T15:55:29Z</time><name>PT11226</name></trkpt>
<trkpt lat="52.705334" lon="05.987483"><ele>-1.2</ele><time>2022-09-06T15:55:30Z</time><name>PT11227</name></trkpt>
<trkpt lat="52.705336" lon="05.987460"><ele>-1.3</ele><time>2022-09-06T15:55:31Z</time><name>PT11228</name></trkpt>
<trkpt lat="52.705336" lon="05.987431"><ele>-1.3</ele><time>2022-09-06T15:55:32Z</time><name>PT11229</name></trkpt>
<trkpt lat="52.705336" lon="05.987403"><ele>-1.5</ele><time>2022-09-06T15:55:33Z</time><name>PT11230</name></trkpt>
<trkpt lat="52.705334" lon="05.987384"><ele>-1.4</ele><time>2022-09-06T15:55:34Z</time><name>PT11231</name></trkpt>
<trkpt lat="52.705331" lon="05.987368"><ele>-1.5</ele><time>2022-09-06T15:55:35Z</time><name>PT11232</name></trkpt>
<trkpt lat="52.705329" lon="05.987358"><ele>-1.4</ele><time>2022-09-06T15:55:36Z</time><name>PT11233</name></trkpt>
<trkpt lat="52.705328" lon="05.987348"><ele>-1.3</ele><time>2022-09-06T15:55:37Z</time><name>PT11234</name></trkpt>
<trkpt lat="52.705327" lon="05.987337"><ele>-1.1</ele><time>2022-09-06T15:55:38Z</time><name>PT11235</name></trkpt>
<trkpt lat="52.705328" lon="05.987320"><ele>-1.1</ele><time>2022-09-06T15:55:39Z</time><name>PT11236</name></trkpt>
<trkpt lat="52.705329" lon="05.987295"><ele>-1</ele><time>2022-09-06T15:55:40Z</time><name>PT11237</name></trkpt>
<trkpt lat="52.705329" lon="05.987268"><ele>-1</ele><time>2022-09-06T15:55:41Z</time><name>PT11238</name></trkpt>
<trkpt lat="52.705328" lon="05.987245"><ele>0.8</ele><time>2022-09-06T15:55:42Z</time><name>PT11239</name></trkpt>
<trkpt lat="52.705327" lon="05.987231"><ele>0.8</ele><time>2022-09-06T15:55:43Z</time><name>PT11240</name></trkpt>
<trkpt lat="52.705325" lon="05.987222"><ele>0.9</ele><time>2022-09-06T15:55:44Z</time><name>PT11241</name></trkpt>
<trkpt lat="52.705322" lon="05.987211"><ele>0.8</ele><time>2022-09-06T15:55:45Z</time><name>PT11242</name></trkpt>
<trkpt lat="52.705321" lon="05.987199"><ele>0.9</ele><time>2022-09-06T15:55:46Z</time><name>PT11243</name></trkpt>
<trkpt lat="52.705321" lon="05.987183"><ele>-1</ele><time>2022-09-06T15:55:47Z</time><name>PT11244</name></trkpt>
<trkpt lat="52.705320" lon="05.987167"><ele>-1</ele><time>2022-09-06T15:55:48Z</time><name>PT11245</name></trkpt>
<trkpt lat="52.705318" lon="05.987154"><ele>0.8</ele><time>2022-09-06T15:55:49Z</time><name>PT11246</name></trkpt>
<trkpt lat="52.705320" lon="05.987147"><ele>-1</ele><time>2022-09-06T15:55:50Z</time><name>PT11247</name></trkpt>
<trkpt lat="52.705321" lon="05.987143"><ele>-1</ele><time>2022-09-06T15:55:51Z</time><name>PT11248</name></trkpt>
<trkpt lat="52.705320" lon="05.987143"><ele>-1</ele><time>2022-09-06T15:55:52Z</time><name>PT11249</name></trkpt>
<trkpt lat="52.705319" lon="05.987143"><ele>-1</ele><time>2022-09-06T15:55:53Z</time><name>PT11250</name></trkpt>
<trkpt lat="52.705317" lon="05.987142"><ele>-1</ele><time>2022-09-06T15:56:10Z</time><name>PT11251</name></trkpt>
<trkpt lat="52.705318" lon="05.987133"><ele>0.9</ele><time>2022-09-06T15:56:11Z</time><name>PT11252</name></trkpt>
<trkpt lat="52.705319" lon="05.987123"><ele>0.8</ele><time>2022-09-06T15:56:12Z</time><name>PT11253</name></trkpt>
<trkpt lat="52.705319" lon="05.987119"><ele>0.8</ele><time>2022-09-06T15:56:13Z</time><name>PT11254</name></trkpt>
<trkpt lat="52.705319" lon="05.987119"><ele>0.8</ele><time>2022-09-06T15:56:14Z</time><name>PT11255</name></trkpt>
<trkpt lat="52.705318" lon="05.987118"><ele>0.8</ele><time>2022-09-06T15:56:15Z</time><name>PT11256</name></trkpt>
<trkpt lat="52.705319" lon="05.987113"><ele>-1.1</ele><time>2022-09-06T15:56:31Z</time><name>PT11257</name></trkpt>
<trkpt lat="52.705319" lon="05.987096"><ele>-1.1</ele><time>2022-09-06T15:56:32Z</time><name>PT11258</name></trkpt>
<trkpt lat="52.705318" lon="05.987071"><ele>-1.1</ele><time>2022-09-06T15:56:33Z</time><name>PT11259</name></trkpt>
<trkpt lat="52.705318" lon="05.987046"><ele>-1</ele><time>2022-09-06T15:56:34Z</time><name>PT11260</name></trkpt>
<trkpt lat="52.705316" lon="05.987023"><ele>-1</ele><time>2022-09-06T15:56:35Z</time><name>PT11261</name></trkpt>
<trkpt lat="52.705311" lon="05.987001"><ele>-1</ele><time>2022-09-06T15:56:36Z</time><name>PT11262</name></trkpt>
<trkpt lat="52.705307" lon="05.986987"><ele>-1.2</ele><time>2022-09-06T15:56:37Z</time><name>PT11263</name></trkpt>
<trkpt lat="52.705303" lon="05.986972"><ele>-1.2</ele><time>2022-09-06T15:56:38Z</time><name>PT11264</name></trkpt>
<trkpt lat="52.705302" lon="05.986959"><ele>-1.3</ele><time>2022-09-06T15:56:39Z</time><name>PT11265</name></trkpt>
<trkpt lat="52.705301" lon="05.986951"><ele>-1.3</ele><time>2022-09-06T15:56:40Z</time><name>PT11266</name></trkpt>
<trkpt lat="52.705301" lon="05.986946"><ele>-1.5</ele><time>2022-09-06T15:56:41Z</time><name>PT11267</name></trkpt>
<trkpt lat="52.705301" lon="05.986936"><ele>-1.4</ele><time>2022-09-06T15:56:42Z</time><name>PT11268</name></trkpt>
<trkpt lat="52.705304" lon="05.986916"><ele>-1.5</ele><time>2022-09-06T15:56:44Z</time><name>PT11269</name></trkpt>
<trkpt lat="52.705304" lon="05.986881"><ele>-1.5</ele><time>2022-09-06T15:56:45Z</time><name>PT11270</name></trkpt>
<trkpt lat="52.705302" lon="05.986853"><ele>-1.3</ele><time>2022-09-06T15:56:46Z</time><name>PT11271</name></trkpt>
<trkpt lat="52.705300" lon="05.986827"><ele>-1.3</ele><time>2022-09-06T15:56:47Z</time><name>PT11272</name></trkpt>
<trkpt lat="52.705298" lon="05.986808"><ele>-1.3</ele><time>2022-09-06T15:56:48Z</time><name>PT11273</name></trkpt>
<trkpt lat="52.705295" lon="05.986796"><ele>-1.1</ele><time>2022-09-06T15:56:49Z</time><name>PT11274</name></trkpt>
<trkpt lat="52.705294" lon="05.986787"><ele>-1</ele><time>2022-09-06T15:56:50Z</time><name>PT11275</name></trkpt>
<trkpt lat="52.705296" lon="05.986775"><ele>-1</ele><time>2022-09-06T15:56:51Z</time><name>PT11276</name></trkpt>
<trkpt lat="52.705295" lon="05.986759"><ele>-1</ele><time>2022-09-06T15:56:52Z</time><name>PT11277</name></trkpt>
<trkpt lat="52.705295" lon="05.986737"><ele>-1</ele><time>2022-09-06T15:56:53Z</time><name>PT11278</name></trkpt>
<trkpt lat="52.705295" lon="05.986713"><ele>-1</ele><time>2022-09-06T15:56:54Z</time><name>PT11279</name></trkpt>
<trkpt lat="52.705294" lon="05.986688"><ele>-1.2</ele><time>2022-09-06T15:56:55Z</time><name>PT11280</name></trkpt>
<trkpt lat="52.705292" lon="05.986667"><ele>-1.3</ele><time>2022-09-06T15:56:56Z</time><name>PT11281</name></trkpt>
<trkpt lat="52.705289" lon="05.986649"><ele>-1.4</ele><time>2022-09-06T15:56:57Z</time><name>PT11282</name></trkpt>
<trkpt lat="52.705288" lon="05.986634"><ele>-1.3</ele><time>2022-09-06T15:56:58Z</time><name>PT11283</name></trkpt>
<trkpt lat="52.705287" lon="05.986620"><ele>-1.3</ele><time>2022-09-06T15:56:59Z</time><name>PT11284</name></trkpt>
<trkpt lat="52.705286" lon="05.986605"><ele>-1.3</ele><time>2022-09-06T15:57:00Z</time><name>PT11285</name></trkpt>
<trkpt lat="52.705286" lon="05.986589"><ele>-1.1</ele><time>2022-09-06T15:57:01Z</time><name>PT11286</name></trkpt>
<trkpt lat="52.705287" lon="05.986572"><ele>-1</ele><time>2022-09-06T15:57:02Z</time><name>PT11287</name></trkpt>
<trkpt lat="52.705287" lon="05.986550"><ele>-1.1</ele><time>2022-09-06T15:57:03Z</time><name>PT11288</name></trkpt>
<trkpt lat="52.705287" lon="05.986527"><ele>-1.2</ele><time>2022-09-06T15:57:04Z</time><name>PT11289</name></trkpt>
<trkpt lat="52.705286" lon="05.986503"><ele>-1.3</ele><time>2022-09-06T15:57:05Z</time><name>PT11290</name></trkpt>
<trkpt lat="52.705285" lon="05.986480"><ele>-1.3</ele><time>2022-09-06T15:57:06Z</time><name>PT11291</name></trkpt>
<trkpt lat="52.705282" lon="05.986459"><ele>-1.2</ele><time>2022-09-06T15:57:07Z</time><name>PT11292</name></trkpt>
<trkpt lat="52.705282" lon="05.986440"><ele>-1</ele><time>2022-09-06T15:57:08Z</time><name>PT11293</name></trkpt>
<trkpt lat="52.705281" lon="05.986426"><ele>-1</ele><time>2022-09-06T15:57:09Z</time><name>PT11294</name></trkpt>
<trkpt lat="52.705280" lon="05.986416"><ele>-1</ele><time>2022-09-06T15:57:10Z</time><name>PT11295</name></trkpt>
<trkpt lat="52.705280" lon="05.986408"><ele>-1</ele><time>2022-09-06T15:57:11Z</time><name>PT11296</name></trkpt>
<trkpt lat="52.705280" lon="05.986398"><ele>-1.1</ele><time>2022-09-06T15:57:12Z</time><name>PT11297</name></trkpt>
<trkpt lat="52.705280" lon="05.986385"><ele>-1.4</ele><time>2022-09-06T15:57:13Z</time><name>PT11298</name></trkpt>
<trkpt lat="52.705283" lon="05.986368"><ele>-1.5</ele><time>2022-09-06T15:57:14Z</time><name>PT11299</name></trkpt>
<trkpt lat="52.705283" lon="05.986347"><ele>-1.4</ele><time>2022-09-06T15:57:15Z</time><name>PT11300</name></trkpt>
<trkpt lat="52.705283" lon="05.986321"><ele>-1.5</ele><time>2022-09-06T15:57:16Z</time><name>PT11301</name></trkpt>
<trkpt lat="52.705282" lon="05.986288"><ele>-1.5</ele><time>2022-09-06T15:57:17Z</time><name>PT11302</name></trkpt>
<trkpt lat="52.705280" lon="05.986256"><ele>-1.5</ele><time>2022-09-06T15:57:18Z</time><name>PT11303</name></trkpt>
<trkpt lat="52.705279" lon="05.986234"><ele>-1.5</ele><time>2022-09-06T15:57:19Z</time><name>PT11304</name></trkpt>
<trkpt lat="52.705278" lon="05.986218"><ele>-1.5</ele><time>2022-09-06T15:57:20Z</time><name>PT11305</name></trkpt>
<trkpt lat="52.705277" lon="05.986208"><ele>-1.5</ele><time>2022-09-06T15:57:21Z</time><name>PT11306</name></trkpt>
<trkpt lat="52.705277" lon="05.986200"><ele>-1.5</ele><time>2022-09-06T15:57:22Z</time><name>PT11307</name></trkpt>
<trkpt lat="52.705276" lon="05.986189"><ele>-1.3</ele><time>2022-09-06T15:57:23Z</time><name>PT11308</name></trkpt>
<trkpt lat="52.705277" lon="05.986173"><ele>-1.2</ele><time>2022-09-06T15:57:24Z</time><name>PT11309</name></trkpt>
<trkpt lat="52.705276" lon="05.986151"><ele>-1.3</ele><time>2022-09-06T15:57:25Z</time><name>PT11310</name></trkpt>
<trkpt lat="52.705274" lon="05.986127"><ele>-1.4</ele><time>2022-09-06T15:57:26Z</time><name>PT11311</name></trkpt>
<trkpt lat="52.705272" lon="05.986101"><ele>-1.5</ele><time>2022-09-06T15:57:27Z</time><name>PT11312</name></trkpt>
<trkpt lat="52.705269" lon="05.986077"><ele>-1.7</ele><time>2022-09-06T15:57:28Z</time><name>PT11313</name></trkpt>
<trkpt lat="52.705265" lon="05.986054"><ele>-1.7</ele><time>2022-09-06T15:57:29Z</time><name>PT11314</name></trkpt>
<trkpt lat="52.705263" lon="05.986035"><ele>-1.5</ele><time>2022-09-06T15:57:30Z</time><name>PT11315</name></trkpt>
<trkpt lat="52.705262" lon="05.986023"><ele>-1.5</ele><time>2022-09-06T15:57:31Z</time><name>PT11316</name></trkpt>
<trkpt lat="52.705261" lon="05.986013"><ele>-1.5</ele><time>2022-09-06T15:57:32Z</time><name>PT11317</name></trkpt>
<trkpt lat="52.705262" lon="05.986004"><ele>-1.5</ele><time>2022-09-06T15:57:33Z</time><name>PT11318</name></trkpt>
<trkpt lat="52.705262" lon="05.985995"><ele>-1.6</ele><time>2022-09-06T15:57:34Z</time><name>PT11319</name></trkpt>
<trkpt lat="52.705263" lon="05.985978"><ele>-1.5</ele><time>2022-09-06T15:57:35Z</time><name>PT11320</name></trkpt>
<trkpt lat="52.705262" lon="05.985956"><ele>-1.5</ele><time>2022-09-06T15:57:36Z</time><name>PT11321</name></trkpt>
<trkpt lat="52.705259" lon="05.985936"><ele>-1.5</ele><time>2022-09-06T15:57:37Z</time><name>PT11322</name></trkpt>
<trkpt lat="52.705256" lon="05.985916"><ele>-1.5</ele><time>2022-09-06T15:57:38Z</time><name>PT11323</name></trkpt>
<trkpt lat="52.705254" lon="05.985901"><ele>-1.3</ele><time>2022-09-06T15:57:39Z</time><name>PT11324</name></trkpt>
<trkpt lat="52.705253" lon="05.985889"><ele>-1.4</ele><time>2022-09-06T15:57:40Z</time><name>PT11325</name></trkpt>
<trkpt lat="52.705251" lon="05.985878"><ele>-1.4</ele><time>2022-09-06T15:57:41Z</time><name>PT11326</name></trkpt>
<trkpt lat="52.705252" lon="05.985868"><ele>-1.4</ele><time>2022-09-06T15:57:42Z</time><name>PT11327</name></trkpt>
<trkpt lat="52.705253" lon="05.985854"><ele>-1.4</ele><time>2022-09-06T15:57:43Z</time><name>PT11328</name></trkpt>
<trkpt lat="52.705254" lon="05.985831"><ele>-1.3</ele><time>2022-09-06T15:57:44Z</time><name>PT11329</name></trkpt>
<trkpt lat="52.705252" lon="05.985801"><ele>-1.1</ele><time>2022-09-06T15:57:45Z</time><name>PT11330</name></trkpt>
<trkpt lat="52.705249" lon="05.985768"><ele>-1</ele><time>2022-09-06T15:57:46Z</time><name>PT11331</name></trkpt>
<trkpt lat="52.705248" lon="05.985741"><ele>-1</ele><time>2022-09-06T15:57:47Z</time><name>PT11332</name></trkpt>
<trkpt lat="52.705248" lon="05.985726"><ele>-1</ele><time>2022-09-06T15:57:48Z</time><name>PT11333</name></trkpt>
<trkpt lat="52.705246" lon="05.985715"><ele>-1</ele><time>2022-09-06T15:57:49Z</time><name>PT11334</name></trkpt>
<trkpt lat="52.705245" lon="05.985706"><ele>-1.1</ele><time>2022-09-06T15:57:50Z</time><name>PT11335</name></trkpt>
<trkpt lat="52.705245" lon="05.985694"><ele>-1.3</ele><time>2022-09-06T15:57:51Z</time><name>PT11336</name></trkpt>
<trkpt lat="52.705247" lon="05.985673"><ele>-1.3</ele><time>2022-09-06T15:57:52Z</time><name>PT11337</name></trkpt>
<trkpt lat="52.705248" lon="05.985654"><ele>-1.4</ele><time>2022-09-06T15:57:53Z</time><name>PT11338</name></trkpt>
<trkpt lat="52.705246" lon="05.985637"><ele>-1.5</ele><time>2022-09-06T15:57:54Z</time><name>PT11339</name></trkpt>
<trkpt lat="52.705245" lon="05.985612"><ele>-1.4</ele><time>2022-09-06T15:57:55Z</time><name>PT11340</name></trkpt>
<trkpt lat="52.705244" lon="05.985592"><ele>-1.3</ele><time>2022-09-06T15:57:56Z</time><name>PT11341</name></trkpt>
<trkpt lat="52.705242" lon="05.985577"><ele>-1.5</ele><time>2022-09-06T15:57:57Z</time><name>PT11342</name></trkpt>
<trkpt lat="52.705241" lon="05.985564"><ele>-1.5</ele><time>2022-09-06T15:57:58Z</time><name>PT11343</name></trkpt>
<trkpt lat="52.705238" lon="05.985550"><ele>-1.5</ele><time>2022-09-06T15:57:59Z</time><name>PT11344</name></trkpt>
<trkpt lat="52.705237" lon="05.985533"><ele>-1.7</ele><time>2022-09-06T15:58:00Z</time><name>PT11345</name></trkpt>
<trkpt lat="52.705235" lon="05.985517"><ele>-1.7</ele><time>2022-09-06T15:58:01Z</time><name>PT11346</name></trkpt>
<trkpt lat="52.705235" lon="05.985495"><ele>-1.5</ele><time>2022-09-06T15:58:02Z</time><name>PT11347</name></trkpt>
<trkpt lat="52.705236" lon="05.985473"><ele>-1.5</ele><time>2022-09-06T15:58:03Z</time><name>PT11348</name></trkpt>
<trkpt lat="52.705236" lon="05.985455"><ele>-1.6</ele><time>2022-09-06T15:58:04Z</time><name>PT11349</name></trkpt>
<trkpt lat="52.705233" lon="05.985439"><ele>-1.5</ele><time>2022-09-06T15:58:05Z</time><name>PT11350</name></trkpt>
<trkpt lat="52.705232" lon="05.985429"><ele>-1.4</ele><time>2022-09-06T15:58:06Z</time><name>PT11351</name></trkpt>
<trkpt lat="52.705229" lon="05.985416"><ele>-1.3</ele><time>2022-09-06T15:58:07Z</time><name>PT11352</name></trkpt>
<trkpt lat="52.705228" lon="05.985400"><ele>-1.4</ele><time>2022-09-06T15:58:08Z</time><name>PT11353</name></trkpt>
<trkpt lat="52.705227" lon="05.985385"><ele>-1.4</ele><time>2022-09-06T15:58:09Z</time><name>PT11354</name></trkpt>
<trkpt lat="52.705227" lon="05.985370"><ele>-1.4</ele><time>2022-09-06T15:58:10Z</time><name>PT11355</name></trkpt>
<trkpt lat="52.705227" lon="05.985356"><ele>-1.5</ele><time>2022-09-06T15:58:11Z</time><name>PT11356</name></trkpt>
<trkpt lat="52.705227" lon="05.985340"><ele>-1.6</ele><time>2022-09-06T15:58:12Z</time><name>PT11357</name></trkpt>
<trkpt lat="52.705228" lon="05.985325"><ele>-1.5</ele><time>2022-09-06T15:58:13Z</time><name>PT11358</name></trkpt>
<trkpt lat="52.705228" lon="05.985309"><ele>-1.3</ele><time>2022-09-06T15:58:14Z</time><name>PT11359</name></trkpt>
<trkpt lat="52.705228" lon="05.985292"><ele>-1.2</ele><time>2022-09-06T15:58:15Z</time><name>PT11360</name></trkpt>
<trkpt lat="52.705226" lon="05.985276"><ele>-1.1</ele><time>2022-09-06T15:58:16Z</time><name>PT11361</name></trkpt>
<trkpt lat="52.705225" lon="05.985259"><ele>-1.2</ele><time>2022-09-06T15:58:17Z</time><name>PT11362</name></trkpt>
<trkpt lat="52.705224" lon="05.985242"><ele>-1.1</ele><time>2022-09-06T15:58:18Z</time><name>PT11363</name></trkpt>
<trkpt lat="52.705224" lon="05.985226"><ele>-1.3</ele><time>2022-09-06T15:58:19Z</time><name>PT11364</name></trkpt>
<trkpt lat="52.705224" lon="05.985210"><ele>-1.4</ele><time>2022-09-06T15:58:20Z</time><name>PT11365</name></trkpt>
<trkpt lat="52.705224" lon="05.985196"><ele>-1.3</ele><time>2022-09-06T15:58:21Z</time><name>PT11366</name></trkpt>
<trkpt lat="52.705223" lon="05.985181"><ele>-1.2</ele><time>2022-09-06T15:58:22Z</time><name>PT11367</name></trkpt>
<trkpt lat="52.705221" lon="05.985166"><ele>-1.4</ele><time>2022-09-06T15:58:23Z</time><name>PT11368</name></trkpt>
<trkpt lat="52.705221" lon="05.985151"><ele>-1.4</ele><time>2022-09-06T15:58:24Z</time><name>PT11369</name></trkpt>
<trkpt lat="52.705221" lon="05.985135"><ele>-1.3</ele><time>2022-09-06T15:58:25Z</time><name>PT11370</name></trkpt>
<trkpt lat="52.705219" lon="05.985120"><ele>-1.5</ele><time>2022-09-06T15:58:26Z</time><name>PT11371</name></trkpt>
<trkpt lat="52.705218" lon="05.985106"><ele>-1.5</ele><time>2022-09-06T15:58:27Z</time><name>PT11372</name></trkpt>
<trkpt lat="52.705218" lon="05.985090"><ele>-1.2</ele><time>2022-09-06T15:58:28Z</time><name>PT11373</name></trkpt>
<trkpt lat="52.705217" lon="05.985074"><ele>-1.4</ele><time>2022-09-06T15:58:29Z</time><name>PT11374</name></trkpt>
<trkpt lat="52.705219" lon="05.985057"><ele>-1.4</ele><time>2022-09-06T15:58:30Z</time><name>PT11375</name></trkpt>
<trkpt lat="52.705219" lon="05.985040"><ele>-1.1</ele><time>2022-09-06T15:58:31Z</time><name>PT11376</name></trkpt>
<trkpt lat="52.705218" lon="05.985024"><ele>-1.1</ele><time>2022-09-06T15:58:32Z</time><name>PT11377</name></trkpt>
<trkpt lat="52.705216" lon="05.985009"><ele>-1</ele><time>2022-09-06T15:58:33Z</time><name>PT11378</name></trkpt>
<trkpt lat="52.705217" lon="05.985004"><ele>-1.2</ele><time>2022-09-06T15:58:34Z</time><name>PT11379</name></trkpt>
<trkpt lat="52.705216" lon="05.984993"><ele>-1.2</ele><time>2022-09-06T15:58:35Z</time><name>PT11380</name></trkpt>
<trkpt lat="52.705216" lon="05.984978"><ele>-1.5</ele><time>2022-09-06T15:58:36Z</time><name>PT11381</name></trkpt>
<trkpt lat="52.705217" lon="05.984966"><ele>-1.5</ele><time>2022-09-06T15:58:37Z</time><name>PT11382</name></trkpt>
<trkpt lat="52.705215" lon="05.984953"><ele>-1.5</ele><time>2022-09-06T15:58:38Z</time><name>PT11383</name></trkpt>
<trkpt lat="52.705214" lon="05.984941"><ele>-1.5</ele><time>2022-09-06T15:58:39Z</time><name>PT11384</name></trkpt>
<trkpt lat="52.705214" lon="05.984930"><ele>-1.5</ele><time>2022-09-06T15:58:40Z</time><name>PT11385</name></trkpt>
<trkpt lat="52.705213" lon="05.984914"><ele>-1.5</ele><time>2022-09-06T15:58:41Z</time><name>PT11386</name></trkpt>
<trkpt lat="52.705213" lon="05.984900"><ele>-1.6</ele><time>2022-09-06T15:58:42Z</time><name>PT11387</name></trkpt>
<trkpt lat="52.705212" lon="05.984885"><ele>-1.5</ele><time>2022-09-06T15:58:43Z</time><name>PT11388</name></trkpt>
<trkpt lat="52.705211" lon="05.984871"><ele>-1.2</ele><time>2022-09-06T15:58:44Z</time><name>PT11389</name></trkpt>
<trkpt lat="52.705211" lon="05.984861"><ele>-1.1</ele><time>2022-09-06T15:58:45Z</time><name>PT11390</name></trkpt>
<trkpt lat="52.705210" lon="05.984847"><ele>-1.1</ele><time>2022-09-06T15:58:46Z</time><name>PT11391</name></trkpt>
<trkpt lat="52.705210" lon="05.984831"><ele>0.9</ele><time>2022-09-06T15:58:47Z</time><name>PT11392</name></trkpt>
<trkpt lat="52.705207" lon="05.984812"><ele>-1</ele><time>2022-09-06T15:58:48Z</time><name>PT11393</name></trkpt>
<trkpt lat="52.705205" lon="05.984793"><ele>-1.2</ele><time>2022-09-06T15:58:49Z</time><name>PT11394</name></trkpt>
<trkpt lat="52.705204" lon="05.984775"><ele>-1</ele><time>2022-09-06T15:58:50Z</time><name>PT11395</name></trkpt>
<trkpt lat="52.705202" lon="05.984756"><ele>-1</ele><time>2022-09-06T15:58:51Z</time><name>PT11396</name></trkpt>
<trkpt lat="52.705200" lon="05.984739"><ele>-1.1</ele><time>2022-09-06T15:58:52Z</time><name>PT11397</name></trkpt>
<trkpt lat="52.705198" lon="05.984726"><ele>-1.1</ele><time>2022-09-06T15:58:53Z</time><name>PT11398</name></trkpt>
<trkpt lat="52.705197" lon="05.984711"><ele>-1.1</ele><time>2022-09-06T15:58:54Z</time><name>PT11399</name></trkpt>
<trkpt lat="52.705195" lon="05.984695"><ele>-1</ele><time>2022-09-06T15:58:55Z</time><name>PT11400</name></trkpt>
<trkpt lat="52.705196" lon="05.984677"><ele>-1</ele><time>2022-09-06T15:58:56Z</time><name>PT11401</name></trkpt>
<trkpt lat="52.705197" lon="05.984658"><ele>-1.1</ele><time>2022-09-06T15:58:57Z</time><name>PT11402</name></trkpt>
<trkpt lat="52.705198" lon="05.984640"><ele>-1</ele><time>2022-09-06T15:58:58Z</time><name>PT11403</name></trkpt>
<trkpt lat="52.705196" lon="05.984623"><ele>-1.2</ele><time>2022-09-06T15:58:59Z</time><name>PT11404</name></trkpt>
<trkpt lat="52.705195" lon="05.984607"><ele>-1.3</ele><time>2022-09-06T15:59:00Z</time><name>PT11405</name></trkpt>
<trkpt lat="52.705194" lon="05.984590"><ele>-1.4</ele><time>2022-09-06T15:59:01Z</time><name>PT11406</name></trkpt>
<trkpt lat="52.705193" lon="05.984572"><ele>-1.4</ele><time>2022-09-06T15:59:02Z</time><name>PT11407</name></trkpt>
<trkpt lat="52.705191" lon="05.984556"><ele>-1.2</ele><time>2022-09-06T15:59:03Z</time><name>PT11408</name></trkpt>
<trkpt lat="52.705189" lon="05.984540"><ele>-1</ele><time>2022-09-06T15:59:04Z</time><name>PT11409</name></trkpt>
<trkpt lat="52.705189" lon="05.984523"><ele>0.9</ele><time>2022-09-06T15:59:05Z</time><name>PT11410</name></trkpt>
<trkpt lat="52.705190" lon="05.984504"><ele>0.9</ele><time>2022-09-06T15:59:06Z</time><name>PT11411</name></trkpt>
<trkpt lat="52.705190" lon="05.984485"><ele>-1</ele><time>2022-09-06T15:59:07Z</time><name>PT11412</name></trkpt>
<trkpt lat="52.705189" lon="05.984466"><ele>-1.2</ele><time>2022-09-06T15:59:08Z</time><name>PT11413</name></trkpt>
<trkpt lat="52.705188" lon="05.984447"><ele>-1.3</ele><time>2022-09-06T15:59:09Z</time><name>PT11414</name></trkpt>
<trkpt lat="52.705188" lon="05.984430"><ele>-1.4</ele><time>2022-09-06T15:59:10Z</time><name>PT11415</name></trkpt>
<trkpt lat="52.705186" lon="05.984416"><ele>-1.4</ele><time>2022-09-06T15:59:11Z</time><name>PT11416</name></trkpt>
<trkpt lat="52.705184" lon="05.984402"><ele>-1.3</ele><time>2022-09-06T15:59:12Z</time><name>PT11417</name></trkpt>
<trkpt lat="52.705184" lon="05.984388"><ele>-1.5</ele><time>2022-09-06T15:59:13Z</time><name>PT11418</name></trkpt>
<trkpt lat="52.705184" lon="05.984373"><ele>-1.4</ele><time>2022-09-06T15:59:14Z</time><name>PT11419</name></trkpt>
<trkpt lat="52.705185" lon="05.984356"><ele>-1.4</ele><time>2022-09-06T15:59:15Z</time><name>PT11420</name></trkpt>
<trkpt lat="52.705185" lon="05.984333"><ele>-1.3</ele><time>2022-09-06T15:59:16Z</time><name>PT11421</name></trkpt>
<trkpt lat="52.705184" lon="05.984307"><ele>-1</ele><time>2022-09-06T15:59:17Z</time><name>PT11422</name></trkpt>
<trkpt lat="52.705183" lon="05.984282"><ele>-1</ele><time>2022-09-06T15:59:18Z</time><name>PT11423</name></trkpt>
<trkpt lat="52.705180" lon="05.984262"><ele>-1.1</ele><time>2022-09-06T15:59:19Z</time><name>PT11424</name></trkpt>
<trkpt lat="52.705177" lon="05.984248"><ele>-1.1</ele><time>2022-09-06T15:59:20Z</time><name>PT11425</name></trkpt>
<trkpt lat="52.705176" lon="05.984235"><ele>-1.2</ele><time>2022-09-06T15:59:21Z</time><name>PT11426</name></trkpt>
<trkpt lat="52.705175" lon="05.984222"><ele>-1.2</ele><time>2022-09-06T15:59:22Z</time><name>PT11427</name></trkpt>
<trkpt lat="52.705174" lon="05.984206"><ele>-1</ele><time>2022-09-06T15:59:23Z</time><name>PT11428</name></trkpt>
<trkpt lat="52.705174" lon="05.984186"><ele>-1</ele><time>2022-09-06T15:59:24Z</time><name>PT11429</name></trkpt>
<trkpt lat="52.705174" lon="05.984164"><ele>0.8</ele><time>2022-09-06T15:59:25Z</time><name>PT11430</name></trkpt>
<trkpt lat="52.705174" lon="05.984141"><ele>-1</ele><time>2022-09-06T15:59:26Z</time><name>PT11431</name></trkpt>
<trkpt lat="52.705171" lon="05.984118"><ele>-1</ele><time>2022-09-06T15:59:27Z</time><name>PT11432</name></trkpt>
<trkpt lat="52.705169" lon="05.984101"><ele>-1.1</ele><time>2022-09-06T15:59:28Z</time><name>PT11433</name></trkpt>
<trkpt lat="52.705166" lon="05.984084"><ele>-1.4</ele><time>2022-09-06T15:59:29Z</time><name>PT11434</name></trkpt>
<trkpt lat="52.705164" lon="05.984067"><ele>-1.3</ele><time>2022-09-06T15:59:30Z</time><name>PT11435</name></trkpt>
<trkpt lat="52.705163" lon="05.984054"><ele>-1.1</ele><time>2022-09-06T15:59:31Z</time><name>PT11436</name></trkpt>
<trkpt lat="52.705164" lon="05.984039"><ele>-1.1</ele><time>2022-09-06T15:59:32Z</time><name>PT11437</name></trkpt>
<trkpt lat="52.705165" lon="05.984023"><ele>-1</ele><time>2022-09-06T15:59:33Z</time><name>PT11438</name></trkpt>
<trkpt lat="52.705165" lon="05.984004"><ele>-1</ele><time>2022-09-06T15:59:34Z</time><name>PT11439</name></trkpt>
<trkpt lat="52.705163" lon="05.983983"><ele>-1.2</ele><time>2022-09-06T15:59:35Z</time><name>PT11440</name></trkpt>
<trkpt lat="52.705162" lon="05.983958"><ele>-1.1</ele><time>2022-09-06T15:59:36Z</time><name>PT11441</name></trkpt>
<trkpt lat="52.705161" lon="05.983936"><ele>-1</ele><time>2022-09-06T15:59:37Z</time><name>PT11442</name></trkpt>
<trkpt lat="52.705159" lon="05.983911"><ele>-1</ele><time>2022-09-06T15:59:38Z</time><name>PT11443</name></trkpt>
<trkpt lat="52.705156" lon="05.983891"><ele>-1</ele><time>2022-09-06T15:59:39Z</time><name>PT11444</name></trkpt>
<trkpt lat="52.705152" lon="05.983876"><ele>-1.1</ele><time>2022-09-06T15:59:40Z</time><name>PT11445</name></trkpt>
<trkpt lat="52.705150" lon="05.983861"><ele>-1.3</ele><time>2022-09-06T15:59:41Z</time><name>PT11446</name></trkpt>
<trkpt lat="52.705150" lon="05.983846"><ele>-1.5</ele><time>2022-09-06T15:59:42Z</time><name>PT11447</name></trkpt>
<trkpt lat="52.705150" lon="05.983827"><ele>-1.5</ele><time>2022-09-06T15:59:43Z</time><name>PT11448</name></trkpt>
<trkpt lat="52.705148" lon="05.983817"><ele>-1.5</ele><time>2022-09-06T15:59:44Z</time><name>PT11449</name></trkpt>
<trkpt lat="52.705147" lon="05.983806"><ele>-1.5</ele><time>2022-09-06T15:59:45Z</time><name>PT11450</name></trkpt>
<trkpt lat="52.705147" lon="05.983784"><ele>-1.5</ele><time>2022-09-06T15:59:46Z</time><name>PT11451</name></trkpt>
<trkpt lat="52.705147" lon="05.983757"><ele>-1.4</ele><time>2022-09-06T15:59:47Z</time><name>PT11452</name></trkpt>
<trkpt lat="52.705145" lon="05.983734"><ele>-1.5</ele><time>2022-09-06T15:59:48Z</time><name>PT11453</name></trkpt>
<trkpt lat="52.705142" lon="05.983718"><ele>-1.3</ele><time>2022-09-06T15:59:49Z</time><name>PT11454</name></trkpt>
<trkpt lat="52.705141" lon="05.983705"><ele>-1.1</ele><time>2022-09-06T15:59:50Z</time><name>PT11455</name></trkpt>
<trkpt lat="52.705141" lon="05.983692"><ele>-1.2</ele><time>2022-09-06T15:59:51Z</time><name>PT11456</name></trkpt>
<trkpt lat="52.705140" lon="05.983678"><ele>-1.1</ele><time>2022-09-06T15:59:52Z</time><name>PT11457</name></trkpt>
<trkpt lat="52.705141" lon="05.983662"><ele>-1.3</ele><time>2022-09-06T15:59:53Z</time><name>PT11458</name></trkpt>
<trkpt lat="52.705141" lon="05.983645"><ele>-1.4</ele><time>2022-09-06T15:59:54Z</time><name>PT11459</name></trkpt>
<trkpt lat="52.705143" lon="05.983625"><ele>-1.4</ele><time>2022-09-06T15:59:55Z</time><name>PT11460</name></trkpt>
<trkpt lat="52.705144" lon="05.983601"><ele>-1.3</ele><time>2022-09-06T15:59:56Z</time><name>PT11461</name></trkpt>
<trkpt lat="52.705144" lon="05.983576"><ele>-1.3</ele><time>2022-09-06T15:59:57Z</time><name>PT11462</name></trkpt>
<trkpt lat="52.705142" lon="05.983551"><ele>-1.4</ele><time>2022-09-06T15:59:58Z</time><name>PT11463</name></trkpt>
<trkpt lat="52.705139" lon="05.983531"><ele>-1.4</ele><time>2022-09-06T15:59:59Z</time><name>PT11464</name></trkpt>
<trkpt lat="52.705135" lon="05.983514"><ele>-1.4</ele><time>2022-09-06T16:00:00Z</time><name>PT11465</name></trkpt>
<trkpt lat="52.705133" lon="05.983502"><ele>-1.1</ele><time>2022-09-06T16:00:01Z</time><name>PT11466</name></trkpt>
<trkpt lat="52.705132" lon="05.983490"><ele>0.9</ele><time>2022-09-06T16:00:02Z</time><name>PT11467</name></trkpt>
<trkpt lat="52.705132" lon="05.983479"><ele>0.8</ele><time>2022-09-06T16:00:03Z</time><name>PT11468</name></trkpt>
<trkpt lat="52.705131" lon="05.983466"><ele>0.7</ele><time>2022-09-06T16:00:04Z</time><name>PT11469</name></trkpt>
<trkpt lat="52.705132" lon="05.983451"><ele>0.8</ele><time>2022-09-06T16:00:05Z</time><name>PT11470</name></trkpt>
<trkpt lat="52.705131" lon="05.983422"><ele>0.9</ele><time>2022-09-06T16:00:06Z</time><name>PT11471</name></trkpt>
<trkpt lat="52.705131" lon="05.983397"><ele>-1</ele><time>2022-09-06T16:00:07Z</time><name>PT11472</name></trkpt>
<trkpt lat="52.705131" lon="05.983375"><ele>-1.2</ele><time>2022-09-06T16:00:08Z</time><name>PT11473</name></trkpt>
<trkpt lat="52.705132" lon="05.983351"><ele>-1.3</ele><time>2022-09-06T16:00:09Z</time><name>PT11474</name></trkpt>
<trkpt lat="52.705130" lon="05.983326"><ele>-1.3</ele><time>2022-09-06T16:00:10Z</time><name>PT11475</name></trkpt>
<trkpt lat="52.705127" lon="05.983305"><ele>-1.2</ele><time>2022-09-06T16:00:11Z</time><name>PT11476</name></trkpt>
<trkpt lat="52.705126" lon="05.983289"><ele>-1.3</ele><time>2022-09-06T16:00:12Z</time><name>PT11477</name></trkpt>
<trkpt lat="52.705124" lon="05.983277"><ele>-1.3</ele><time>2022-09-06T16:00:13Z</time><name>PT11478</name></trkpt>
<trkpt lat="52.705122" lon="05.983268"><ele>-1.4</ele><time>2022-09-06T16:00:14Z</time><name>PT11479</name></trkpt>
<trkpt lat="52.705122" lon="05.983258"><ele>-1.3</ele><time>2022-09-06T16:00:15Z</time><name>PT11480</name></trkpt>
<trkpt lat="52.705121" lon="05.983247"><ele>-1.4</ele><time>2022-09-06T16:00:16Z</time><name>PT11481</name></trkpt>
<trkpt lat="52.705121" lon="05.983230"><ele>-1.4</ele><time>2022-09-06T16:00:17Z</time><name>PT11482</name></trkpt>
<trkpt lat="52.705122" lon="05.983209"><ele>-1.3</ele><time>2022-09-06T16:00:18Z</time><name>PT11483</name></trkpt>
<trkpt lat="52.705121" lon="05.983186"><ele>-1.3</ele><time>2022-09-06T16:00:19Z</time><name>PT11484</name></trkpt>
<trkpt lat="52.705118" lon="05.983167"><ele>-1.2</ele><time>2022-09-06T16:00:20Z</time><name>PT11485</name></trkpt>
<trkpt lat="52.705115" lon="05.983155"><ele>-1.4</ele><time>2022-09-06T16:00:21Z</time><name>PT11486</name></trkpt>
<trkpt lat="52.705115" lon="05.983144"><ele>-1.5</ele><time>2022-09-06T16:00:22Z</time><name>PT11487</name></trkpt>
<trkpt lat="52.705115" lon="05.983129"><ele>-1.5</ele><time>2022-09-06T16:00:23Z</time><name>PT11488</name></trkpt>
<trkpt lat="52.705115" lon="05.983112"><ele>-1.4</ele><time>2022-09-06T16:00:24Z</time><name>PT11489</name></trkpt>
<trkpt lat="52.705116" lon="05.983091"><ele>-1.4</ele><time>2022-09-06T16:00:25Z</time><name>PT11490</name></trkpt>
<trkpt lat="52.705115" lon="05.983067"><ele>-1.3</ele><time>2022-09-06T16:00:26Z</time><name>PT11491</name></trkpt>
<trkpt lat="52.705114" lon="05.983048"><ele>-1.2</ele><time>2022-09-06T16:00:27Z</time><name>PT11492</name></trkpt>
<trkpt lat="52.705111" lon="05.983035"><ele>-1.5</ele><time>2022-09-06T16:00:28Z</time><name>PT11493</name></trkpt>
<trkpt lat="52.705111" lon="05.983024"><ele>-1.5</ele><time>2022-09-06T16:00:29Z</time><name>PT11494</name></trkpt>
<trkpt lat="52.705110" lon="05.983014"><ele>-1.5</ele><time>2022-09-06T16:00:30Z</time><name>PT11495</name></trkpt>
<trkpt lat="52.705111" lon="05.982999"><ele>-1.5</ele><time>2022-09-06T16:00:31Z</time><name>PT11496</name></trkpt>
<trkpt lat="52.705112" lon="05.982981"><ele>-1.4</ele><time>2022-09-06T16:00:32Z</time><name>PT11497</name></trkpt>
<trkpt lat="52.705111" lon="05.982960"><ele>-1.3</ele><time>2022-09-06T16:00:33Z</time><name>PT11498</name></trkpt>
<trkpt lat="52.705108" lon="05.982936"><ele>-1.3</ele><time>2022-09-06T16:00:34Z</time><name>PT11499</name></trkpt>
<trkpt lat="52.705107" lon="05.982918"><ele>-1.1</ele><time>2022-09-06T16:00:35Z</time><name>PT11500</name></trkpt>
<trkpt lat="52.705106" lon="05.982906"><ele>-1.1</ele><time>2022-09-06T16:00:36Z</time><name>PT11501</name></trkpt>
<trkpt lat="52.705104" lon="05.982897"><ele>-1.1</ele><time>2022-09-06T16:00:37Z</time><name>PT11502</name></trkpt>
<trkpt lat="52.705103" lon="05.982884"><ele>-1.1</ele><time>2022-09-06T16:00:38Z</time><name>PT11503</name></trkpt>
<trkpt lat="52.705104" lon="05.982866"><ele>-1.2</ele><time>2022-09-06T16:00:39Z</time><name>PT11504</name></trkpt>
<trkpt lat="52.705105" lon="05.982847"><ele>-1.2</ele><time>2022-09-06T16:00:40Z</time><name>PT11505</name></trkpt>
<trkpt lat="52.705105" lon="05.982824"><ele>-1.5</ele><time>2022-09-06T16:00:41Z</time><name>PT11506</name></trkpt>
<trkpt lat="52.705103" lon="05.982802"><ele>-1.4</ele><time>2022-09-06T16:00:42Z</time><name>PT11507</name></trkpt>
<trkpt lat="52.705100" lon="05.982783"><ele>-1.3</ele><time>2022-09-06T16:00:43Z</time><name>PT11508</name></trkpt>
<trkpt lat="52.705098" lon="05.982768"><ele>-1.1</ele><time>2022-09-06T16:00:44Z</time><name>PT11509</name></trkpt>
<trkpt lat="52.705096" lon="05.982756"><ele>-1.3</ele><time>2022-09-06T16:00:45Z</time><name>PT11510</name></trkpt>
<trkpt lat="52.705096" lon="05.982745"><ele>-1.1</ele><time>2022-09-06T16:00:46Z</time><name>PT11511</name></trkpt>
<trkpt lat="52.705097" lon="05.982729"><ele>-1</ele><time>2022-09-06T16:00:47Z</time><name>PT11512</name></trkpt>
<trkpt lat="52.705099" lon="05.982711"><ele>-1.1</ele><time>2022-09-06T16:00:48Z</time><name>PT11513</name></trkpt>
<trkpt lat="52.705099" lon="05.982688"><ele>-1.1</ele><time>2022-09-06T16:00:49Z</time><name>PT11514</name></trkpt>
<trkpt lat="52.705097" lon="05.982663"><ele>-1</ele><time>2022-09-06T16:00:50Z</time><name>PT11515</name></trkpt>
<trkpt lat="52.705094" lon="05.982644"><ele>-1</ele><time>2022-09-06T16:00:51Z</time><name>PT11516</name></trkpt>
<trkpt lat="52.705091" lon="05.982631"><ele>-1.3</ele><time>2022-09-06T16:00:52Z</time><name>PT11517</name></trkpt>
<trkpt lat="52.705089" lon="05.982618"><ele>-1.4</ele><time>2022-09-06T16:00:53Z</time><name>PT11518</name></trkpt>
<trkpt lat="52.705089" lon="05.982605"><ele>-1.5</ele><time>2022-09-06T16:00:54Z</time><name>PT11519</name></trkpt>
<trkpt lat="52.705089" lon="05.982589"><ele>-1.6</ele><time>2022-09-06T16:00:55Z</time><name>PT11520</name></trkpt>
<trkpt lat="52.705088" lon="05.982567"><ele>-1.5</ele><time>2022-09-06T16:00:56Z</time><name>PT11521</name></trkpt>
<trkpt lat="52.705086" lon="05.982546"><ele>-1.4</ele><time>2022-09-06T16:00:57Z</time><name>PT11522</name></trkpt>
<trkpt lat="52.705084" lon="05.982529"><ele>-1.3</ele><time>2022-09-06T16:00:58Z</time><name>PT11523</name></trkpt>
<trkpt lat="52.705083" lon="05.982514"><ele>-1.1</ele><time>2022-09-06T16:00:59Z</time><name>PT11524</name></trkpt>
<trkpt lat="52.705083" lon="05.982504"><ele>-1</ele><time>2022-09-06T16:01:00Z</time><name>PT11525</name></trkpt>
<trkpt lat="52.705083" lon="05.982491"><ele>0.9</ele><time>2022-09-06T16:01:01Z</time><name>PT11526</name></trkpt>
<trkpt lat="52.705084" lon="05.982476"><ele>-1</ele><time>2022-09-06T16:01:02Z</time><name>PT11527</name></trkpt>
<trkpt lat="52.705085" lon="05.982454"><ele>-1</ele><time>2022-09-06T16:01:03Z</time><name>PT11528</name></trkpt>
<trkpt lat="52.705084" lon="05.982428"><ele>-1.1</ele><time>2022-09-06T16:01:04Z</time><name>PT11529</name></trkpt>
<trkpt lat="52.705082" lon="05.982403"><ele>-1.1</ele><time>2022-09-06T16:01:05Z</time><name>PT11530</name></trkpt>
<trkpt lat="52.705080" lon="05.982386"><ele>-1</ele><time>2022-09-06T16:01:06Z</time><name>PT11531</name></trkpt>
<trkpt lat="52.705079" lon="05.982370"><ele>-1</ele><time>2022-09-06T16:01:07Z</time><name>PT11532</name></trkpt>
<trkpt lat="52.705078" lon="05.982358"><ele>0.9</ele><time>2022-09-06T16:01:08Z</time><name>PT11533</name></trkpt>
<trkpt lat="52.705076" lon="05.982348"><ele>-1</ele><time>2022-09-06T16:01:09Z</time><name>PT11534</name></trkpt>
<trkpt lat="52.705076" lon="05.982335"><ele>-1</ele><time>2022-09-06T16:01:10Z</time><name>PT11535</name></trkpt>
<trkpt lat="52.705077" lon="05.982318"><ele>-1.1</ele><time>2022-09-06T16:01:11Z</time><name>PT11536</name></trkpt>
<trkpt lat="52.705077" lon="05.982297"><ele>-1.2</ele><time>2022-09-06T16:01:12Z</time><name>PT11537</name></trkpt>
<trkpt lat="52.705076" lon="05.982276"><ele>-1</ele><time>2022-09-06T16:01:13Z</time><name>PT11538</name></trkpt>
<trkpt lat="52.705073" lon="05.982262"><ele>0.9</ele><time>2022-09-06T16:01:14Z</time><name>PT11539</name></trkpt>
<trkpt lat="52.705072" lon="05.982252"><ele>-1</ele><time>2022-09-06T16:01:15Z</time><name>PT11540</name></trkpt>
<trkpt lat="52.705074" lon="05.982238"><ele>-1</ele><time>2022-09-06T16:01:16Z</time><name>PT11541</name></trkpt>
<trkpt lat="52.705074" lon="05.982223"><ele>-1</ele><time>2022-09-06T16:01:17Z</time><name>PT11542</name></trkpt>
<trkpt lat="52.705073" lon="05.982208"><ele>-1.1</ele><time>2022-09-06T16:01:18Z</time><name>PT11543</name></trkpt>
<trkpt lat="52.705069" lon="05.982187"><ele>-1.2</ele><time>2022-09-06T16:01:19Z</time><name>PT11544</name></trkpt>
<trkpt lat="52.705066" lon="05.982162"><ele>-1.1</ele><time>2022-09-06T16:01:20Z</time><name>PT11545</name></trkpt>
<trkpt lat="52.705064" lon="05.982143"><ele>-1.1</ele><time>2022-09-06T16:01:21Z</time><name>PT11546</name></trkpt>
<trkpt lat="52.705061" lon="05.982129"><ele>-1</ele><time>2022-09-06T16:01:22Z</time><name>PT11547</name></trkpt>
<trkpt lat="52.705059" lon="05.982115"><ele>-1.1</ele><time>2022-09-06T16:01:23Z</time><name>PT11548</name></trkpt>
<trkpt lat="52.705059" lon="05.982099"><ele>-1</ele><time>2022-09-06T16:01:24Z</time><name>PT11549</name></trkpt>
<trkpt lat="52.705059" lon="05.982084"><ele>-1</ele><time>2022-09-06T16:01:25Z</time><name>PT11550</name></trkpt>
<trkpt lat="52.705060" lon="05.982064"><ele>-1.1</ele><time>2022-09-06T16:01:26Z</time><name>PT11551</name></trkpt>
<trkpt lat="52.705061" lon="05.982042"><ele>-1.2</ele><time>2022-09-06T16:01:27Z</time><name>PT11552</name></trkpt>
<trkpt lat="52.705059" lon="05.982017"><ele>-1.2</ele><time>2022-09-06T16:01:28Z</time><name>PT11553</name></trkpt>
<trkpt lat="52.705056" lon="05.981993"><ele>-1.2</ele><time>2022-09-06T16:01:29Z</time><name>PT11554</name></trkpt>
<trkpt lat="52.705054" lon="05.981973"><ele>-1.3</ele><time>2022-09-06T16:01:30Z</time><name>PT11555</name></trkpt>
<trkpt lat="52.705052" lon="05.981955"><ele>-1</ele><time>2022-09-06T16:01:31Z</time><name>PT11556</name></trkpt>
<trkpt lat="52.705050" lon="05.981942"><ele>-1</ele><time>2022-09-06T16:01:32Z</time><name>PT11557</name></trkpt>
<trkpt lat="52.705050" lon="05.981933"><ele>-1.1</ele><time>2022-09-06T16:01:33Z</time><name>PT11558</name></trkpt>
<trkpt lat="52.705050" lon="05.981921"><ele>-1</ele><time>2022-09-06T16:01:34Z</time><name>PT11559</name></trkpt>
<trkpt lat="52.705053" lon="05.981903"><ele>0.9</ele><time>2022-09-06T16:01:35Z</time><name>PT11560</name></trkpt>
<trkpt lat="52.705052" lon="05.981879"><ele>0.9</ele><time>2022-09-06T16:01:36Z</time><name>PT11561</name></trkpt>
<trkpt lat="52.705051" lon="05.981854"><ele>0.8</ele><time>2022-09-06T16:01:37Z</time><name>PT11562</name></trkpt>
<trkpt lat="52.705049" lon="05.981830"><ele>0.9</ele><time>2022-09-06T16:01:38Z</time><name>PT11563</name></trkpt>
<trkpt lat="52.705048" lon="05.981811"><ele>-1</ele><time>2022-09-06T16:01:39Z</time><name>PT11564</name></trkpt>
<trkpt lat="52.705046" lon="05.981798"><ele>-1.1</ele><time>2022-09-06T16:01:40Z</time><name>PT11565</name></trkpt>
<trkpt lat="52.705046" lon="05.981788"><ele>-1</ele><time>2022-09-06T16:01:41Z</time><name>PT11566</name></trkpt>
<trkpt lat="52.705046" lon="05.981778"><ele>-1</ele><time>2022-09-06T16:01:42Z</time><name>PT11567</name></trkpt>
<trkpt lat="52.705045" lon="05.981766"><ele>-1</ele><time>2022-09-06T16:01:43Z</time><name>PT11568</name></trkpt>
<trkpt lat="52.705046" lon="05.981749"><ele>-1</ele><time>2022-09-06T16:01:44Z</time><name>PT11569</name></trkpt>
<trkpt lat="52.705045" lon="05.981729"><ele>-1.2</ele><time>2022-09-06T16:01:45Z</time><name>PT11570</name></trkpt>
<trkpt lat="52.705043" lon="05.981703"><ele>-1.1</ele><time>2022-09-06T16:01:46Z</time><name>PT11571</name></trkpt>
<trkpt lat="52.705042" lon="05.981676"><ele>-1</ele><time>2022-09-06T16:01:47Z</time><name>PT11572</name></trkpt>
<trkpt lat="52.705041" lon="05.981653"><ele>-1</ele><time>2022-09-06T16:01:48Z</time><name>PT11573</name></trkpt>
<trkpt lat="52.705038" lon="05.981637"><ele>-1</ele><time>2022-09-06T16:01:49Z</time><name>PT11574</name></trkpt>
<trkpt lat="52.705036" lon="05.981625"><ele>-1</ele><time>2022-09-06T16:01:50Z</time><name>PT11575</name></trkpt>
<trkpt lat="52.705035" lon="05.981615"><ele>-1</ele><time>2022-09-06T16:01:51Z</time><name>PT11576</name></trkpt>
<trkpt lat="52.705035" lon="05.981605"><ele>-1</ele><time>2022-09-06T16:01:52Z</time><name>PT11577</name></trkpt>
<trkpt lat="52.705035" lon="05.981593"><ele>-1</ele><time>2022-09-06T16:01:53Z</time><name>PT11578</name></trkpt>
<trkpt lat="52.705036" lon="05.981577"><ele>-1</ele><time>2022-09-06T16:01:54Z</time><name>PT11579</name></trkpt>
<trkpt lat="52.705037" lon="05.981554"><ele>-1.2</ele><time>2022-09-06T16:01:55Z</time><name>PT11580</name></trkpt>
<trkpt lat="52.705037" lon="05.981526"><ele>-1</ele><time>2022-09-06T16:01:56Z</time><name>PT11581</name></trkpt>
<trkpt lat="52.705033" lon="05.981498"><ele>-1</ele><time>2022-09-06T16:01:57Z</time><name>PT11582</name></trkpt>
<trkpt lat="52.705031" lon="05.981476"><ele>-1</ele><time>2022-09-06T16:01:58Z</time><name>PT11583</name></trkpt>
<trkpt lat="52.705028" lon="05.981459"><ele>-1</ele><time>2022-09-06T16:01:59Z</time><name>PT11584</name></trkpt>
<trkpt lat="52.705026" lon="05.981446"><ele>-1.2</ele><time>2022-09-06T16:02:00Z</time><name>PT11585</name></trkpt>
<trkpt lat="52.705025" lon="05.981437"><ele>-1.3</ele><time>2022-09-06T16:02:01Z</time><name>PT11586</name></trkpt>
<trkpt lat="52.705024" lon="05.981425"><ele>-1.4</ele><time>2022-09-06T16:02:02Z</time><name>PT11587</name></trkpt>
<trkpt lat="52.705025" lon="05.981411"><ele>-1.2</ele><time>2022-09-06T16:02:03Z</time><name>PT11588</name></trkpt>
<trkpt lat="52.705026" lon="05.981393"><ele>-1</ele><time>2022-09-06T16:02:04Z</time><name>PT11589</name></trkpt>
<trkpt lat="52.705026" lon="05.981371"><ele>-1</ele><time>2022-09-06T16:02:05Z</time><name>PT11590</name></trkpt>
<trkpt lat="52.705027" lon="05.981346"><ele>0.8</ele><time>2022-09-06T16:02:06Z</time><name>PT11591</name></trkpt>
<trkpt lat="52.705025" lon="05.981325"><ele>0.7</ele><time>2022-09-06T16:02:07Z</time><name>PT11592</name></trkpt>
<trkpt lat="52.705022" lon="05.981308"><ele>0.7</ele><time>2022-09-06T16:02:08Z</time><name>PT11593</name></trkpt>
<trkpt lat="52.705018" lon="05.981291"><ele>0.8</ele><time>2022-09-06T16:02:09Z</time><name>PT11594</name></trkpt>
<trkpt lat="52.705017" lon="05.981279"><ele>0.9</ele><time>2022-09-06T16:02:10Z</time><name>PT11595</name></trkpt>
<trkpt lat="52.705016" lon="05.981268"><ele>0.8</ele><time>2022-09-06T16:02:11Z</time><name>PT11596</name></trkpt>
<trkpt lat="52.705017" lon="05.981254"><ele>0.9</ele><time>2022-09-06T16:02:12Z</time><name>PT11597</name></trkpt>
<trkpt lat="52.705018" lon="05.981236"><ele>0.9</ele><time>2022-09-06T16:02:13Z</time><name>PT11598</name></trkpt>
<trkpt lat="52.705018" lon="05.981214"><ele>-1</ele><time>2022-09-06T16:02:14Z</time><name>PT11599</name></trkpt>
<trkpt lat="52.705014" lon="05.981192"><ele>-1</ele><time>2022-09-06T16:02:15Z</time><name>PT11600</name></trkpt>
<trkpt lat="52.705010" lon="05.981171"><ele>-1</ele><time>2022-09-06T16:02:16Z</time><name>PT11601</name></trkpt>
<trkpt lat="52.705008" lon="05.981153"><ele>0.9</ele><time>2022-09-06T16:02:17Z</time><name>PT11602</name></trkpt>
<trkpt lat="52.705007" lon="05.981138"><ele>0.7</ele><time>2022-09-06T16:02:18Z</time><name>PT11603</name></trkpt>
<trkpt lat="52.705005" lon="05.981126"><ele>0.8</ele><time>2022-09-06T16:02:19Z</time><name>PT11604</name></trkpt>
<trkpt lat="52.705005" lon="05.981114"><ele>-1</ele><time>2022-09-06T16:02:20Z</time><name>PT11605</name></trkpt>
<trkpt lat="52.705006" lon="05.981100"><ele>-1</ele><time>2022-09-06T16:02:21Z</time><name>PT11606</name></trkpt>
<trkpt lat="52.705008" lon="05.981082"><ele>-1.1</ele><time>2022-09-06T16:02:22Z</time><name>PT11607</name></trkpt>
<trkpt lat="52.705010" lon="05.981060"><ele>-1.2</ele><time>2022-09-06T16:02:23Z</time><name>PT11608</name></trkpt>
<trkpt lat="52.705010" lon="05.981034"><ele>-1.2</ele><time>2022-09-06T16:02:24Z</time><name>PT11609</name></trkpt>
<trkpt lat="52.705010" lon="05.981007"><ele>-1.2</ele><time>2022-09-06T16:02:25Z</time><name>PT11610</name></trkpt>
<trkpt lat="52.705008" lon="05.980985"><ele>-1</ele><time>2022-09-06T16:02:26Z</time><name>PT11611</name></trkpt>
<trkpt lat="52.705006" lon="05.980970"><ele>-1</ele><time>2022-09-06T16:02:27Z</time><name>PT11612</name></trkpt>
<trkpt lat="52.705004" lon="05.980957"><ele>-1</ele><time>2022-09-06T16:02:28Z</time><name>PT11613</name></trkpt>
<trkpt lat="52.705003" lon="05.980946"><ele>-1</ele><time>2022-09-06T16:02:29Z</time><name>PT11614</name></trkpt>
<trkpt lat="52.705003" lon="05.980933"><ele>-1</ele><time>2022-09-06T16:02:30Z</time><name>PT11615</name></trkpt>
<trkpt lat="52.705003" lon="05.980918"><ele>-1.1</ele><time>2022-09-06T16:02:31Z</time><name>PT11616</name></trkpt>
<trkpt lat="52.705004" lon="05.980900"><ele>-1</ele><time>2022-09-06T16:02:32Z</time><name>PT11617</name></trkpt>
<trkpt lat="52.705004" lon="05.980878"><ele>-1</ele><time>2022-09-06T16:02:33Z</time><name>PT11618</name></trkpt>
<trkpt lat="52.705003" lon="05.980854"><ele>-1.2</ele><time>2022-09-06T16:02:34Z</time><name>PT11619</name></trkpt>
<trkpt lat="52.705002" lon="05.980829"><ele>-1.1</ele><time>2022-09-06T16:02:35Z</time><name>PT11620</name></trkpt>
<trkpt lat="52.704999" lon="05.980807"><ele>-1.3</ele><time>2022-09-06T16:02:36Z</time><name>PT11621</name></trkpt>
<trkpt lat="52.704995" lon="05.980790"><ele>-1.5</ele><time>2022-09-06T16:02:37Z</time><name>PT11622</name></trkpt>
<trkpt lat="52.704994" lon="05.980779"><ele>-1.3</ele><time>2022-09-06T16:02:38Z</time><name>PT11623</name></trkpt>
<trkpt lat="52.704993" lon="05.980769"><ele>-1.2</ele><time>2022-09-06T16:02:39Z</time><name>PT11624</name></trkpt>
<trkpt lat="52.704992" lon="05.980756"><ele>-1.1</ele><time>2022-09-06T16:02:40Z</time><name>PT11625</name></trkpt>
<trkpt lat="52.704993" lon="05.980741"><ele>0.8</ele><time>2022-09-06T16:02:41Z</time><name>PT11626</name></trkpt>
<trkpt lat="52.704994" lon="05.980724"><ele>0.7</ele><time>2022-09-06T16:02:42Z</time><name>PT11627</name></trkpt>
<trkpt lat="52.704993" lon="05.980701"><ele>0.7</ele><time>2022-09-06T16:02:43Z</time><name>PT11628</name></trkpt>
<trkpt lat="52.704989" lon="05.980678"><ele>0.8</ele><time>2022-09-06T16:02:44Z</time><name>PT11629</name></trkpt>
<trkpt lat="52.704984" lon="05.980658"><ele>0.8</ele><time>2022-09-06T16:02:45Z</time><name>PT11630</name></trkpt>
<trkpt lat="52.704979" lon="05.980643"><ele>0.7</ele><time>2022-09-06T16:02:46Z</time><name>PT11631</name></trkpt>
<trkpt lat="52.704975" lon="05.980632"><ele>0.8</ele><time>2022-09-06T16:02:47Z</time><name>PT11632</name></trkpt>
<trkpt lat="52.704971" lon="05.980624"><ele>0.7</ele><time>2022-09-06T16:02:48Z</time><name>PT11633</name></trkpt>
<trkpt lat="52.704968" lon="05.980617"><ele>0.8</ele><time>2022-09-06T16:02:49Z</time><name>PT11634</name></trkpt>
<trkpt lat="52.704965" lon="05.980606"><ele>-1.1</ele><time>2022-09-06T16:02:50Z</time><name>PT11635</name></trkpt>
<trkpt lat="52.704962" lon="05.980593"><ele>-1.3</ele><time>2022-09-06T16:02:51Z</time><name>PT11636</name></trkpt>
<trkpt lat="52.704959" lon="05.980587"><ele>-1.4</ele><time>2022-09-06T16:02:52Z</time><name>PT11637</name></trkpt>
<trkpt lat="52.704956" lon="05.980584"><ele>-1.5</ele><time>2022-09-06T16:02:53Z</time><name>PT11638</name></trkpt>
<trkpt lat="52.704948" lon="05.980577"><ele>-1.5</ele><time>2022-09-06T16:02:54Z</time><name>PT11639</name></trkpt>
<trkpt lat="52.704940" lon="05.980574"><ele>-1.5</ele><time>2022-09-06T16:02:55Z</time><name>PT11640</name></trkpt>
<trkpt lat="52.704934" lon="05.980571"><ele>-1.5</ele><time>2022-09-06T16:02:56Z</time><name>PT11641</name></trkpt>
<trkpt lat="52.704927" lon="05.980569"><ele>-1.4</ele><time>2022-09-06T16:02:57Z</time><name>PT11642</name></trkpt>
<trkpt lat="52.704918" lon="05.980566"><ele>-1.3</ele><time>2022-09-06T16:02:58Z</time><name>PT11643</name></trkpt>
<trkpt lat="52.704903" lon="05.980565"><ele>-1</ele><time>2022-09-06T16:02:59Z</time><name>PT11644</name></trkpt>
<trkpt lat="52.704886" lon="05.980569"><ele>-1</ele><time>2022-09-06T16:03:00Z</time><name>PT11645</name></trkpt>
<trkpt lat="52.704872" lon="05.980574"><ele>0.9</ele><time>2022-09-06T16:03:01Z</time><name>PT11646</name></trkpt>
<trkpt lat="52.704863" lon="05.980580"><ele>-1</ele><time>2022-09-06T16:03:02Z</time><name>PT11647</name></trkpt>
<trkpt lat="52.704857" lon="05.980583"><ele>-1.2</ele><time>2022-09-06T16:03:03Z</time><name>PT11648</name></trkpt>
<trkpt lat="52.704850" lon="05.980582"><ele>-1.4</ele><time>2022-09-06T16:03:04Z</time><name>PT11649</name></trkpt>
<trkpt lat="52.704842" lon="05.980580"><ele>-1.5</ele><time>2022-09-06T16:03:05Z</time><name>PT11650</name></trkpt>
<trkpt lat="52.704831" lon="05.980578"><ele>-1.5</ele><time>2022-09-06T16:03:06Z</time><name>PT11651</name></trkpt>
<trkpt lat="52.704810" lon="05.980580"><ele>-1.3</ele><time>2022-09-06T16:03:07Z</time><name>PT11652</name></trkpt>
<trkpt lat="52.704796" lon="05.980582"><ele>-1.1</ele><time>2022-09-06T16:03:08Z</time><name>PT11653</name></trkpt>
<trkpt lat="52.704785" lon="05.980580"><ele>-1.1</ele><time>2022-09-06T16:03:09Z</time><name>PT11654</name></trkpt>
<trkpt lat="52.704774" lon="05.980583"><ele>-1</ele><time>2022-09-06T16:03:10Z</time><name>PT11655</name></trkpt>
<trkpt lat="52.704766" lon="05.980586"><ele>-1.1</ele><time>2022-09-06T16:03:11Z</time><name>PT11656</name></trkpt>
<trkpt lat="52.704760" lon="05.980587"><ele>-1.2</ele><time>2022-09-06T16:03:12Z</time><name>PT11657</name></trkpt>
<trkpt lat="52.704754" lon="05.980585"><ele>-1.5</ele><time>2022-09-06T16:03:13Z</time><name>PT11658</name></trkpt>
<trkpt lat="52.704747" lon="05.980586"><ele>-1.5</ele><time>2022-09-06T16:03:14Z</time><name>PT11659</name></trkpt>
<trkpt lat="52.704738" lon="05.980586"><ele>-1.5</ele><time>2022-09-06T16:03:15Z</time><name>PT11660</name></trkpt>
<trkpt lat="52.704726" lon="05.980589"><ele>-1.5</ele><time>2022-09-06T16:03:16Z</time><name>PT11661</name></trkpt>
<trkpt lat="52.704708" lon="05.980593"><ele>-1.5</ele><time>2022-09-06T16:03:17Z</time><name>PT11662</name></trkpt>
<trkpt lat="52.704689" lon="05.980598"><ele>-1.5</ele><time>2022-09-06T16:03:18Z</time><name>PT11663</name></trkpt>
<trkpt lat="52.704675" lon="05.980604"><ele>-1.3</ele><time>2022-09-06T16:03:19Z</time><name>PT11664</name></trkpt>
<trkpt lat="52.704669" lon="05.980607"><ele>-1.2</ele><time>2022-09-06T16:03:20Z</time><name>PT11665</name></trkpt>
<trkpt lat="52.704665" lon="05.980608"><ele>-1.1</ele><time>2022-09-06T16:03:21Z</time><name>PT11666</name></trkpt>
<trkpt lat="52.704658" lon="05.980607"><ele>-1</ele><time>2022-09-06T16:03:22Z</time><name>PT11667</name></trkpt>
<trkpt lat="52.704647" lon="05.980608"><ele>-1</ele><time>2022-09-06T16:03:23Z</time><name>PT11668</name></trkpt>
<trkpt lat="52.704632" lon="05.980610"><ele>-1</ele><time>2022-09-06T16:03:24Z</time><name>PT11669</name></trkpt>
<trkpt lat="52.704626" lon="05.980612"><ele>0.8</ele><time>2022-09-06T16:03:25Z</time><name>PT11670</name></trkpt>
<trkpt lat="52.704625" lon="05.980607"><ele>0.7</ele><time>2022-09-06T16:03:26Z</time><name>PT11671</name></trkpt>
<trkpt lat="52.704625" lon="05.980609"><ele>0.8</ele><time>2022-09-06T16:03:27Z</time><name>PT11672</name></trkpt>
<trkpt lat="52.704622" lon="05.980613"><ele>-1</ele><time>2022-09-06T16:03:28Z</time><name>PT11673</name></trkpt>
<trkpt lat="52.704618" lon="05.980617"><ele>-1.1</ele><time>2022-09-06T16:03:29Z</time><name>PT11674</name></trkpt>
<trkpt lat="52.704609" lon="05.980616"><ele>-1</ele><time>2022-09-06T16:03:30Z</time><name>PT11675</name></trkpt>
<trkpt lat="52.704596" lon="05.980616"><ele>-1</ele><time>2022-09-06T16:03:31Z</time><name>PT11676</name></trkpt>
<trkpt lat="52.704586" lon="05.980619"><ele>-1</ele><time>2022-09-06T16:03:32Z</time><name>PT11677</name></trkpt>
<trkpt lat="52.704579" lon="05.980624"><ele>0.9</ele><time>2022-09-06T16:03:33Z</time><name>PT11678</name></trkpt>
<trkpt lat="52.704574" lon="05.980625"><ele>-1</ele><time>2022-09-06T16:03:34Z</time><name>PT11679</name></trkpt>
<trkpt lat="52.704569" lon="05.980625"><ele>-1</ele><time>2022-09-06T16:03:35Z</time><name>PT11680</name></trkpt>
<trkpt lat="52.704560" lon="05.980624"><ele>-1</ele><time>2022-09-06T16:03:36Z</time><name>PT11681</name></trkpt>
<trkpt lat="52.704545" lon="05.980624"><ele>-1.1</ele><time>2022-09-06T16:03:37Z</time><name>PT11682</name></trkpt>
<trkpt lat="52.704529" lon="05.980625"><ele>-1.1</ele><time>2022-09-06T16:03:38Z</time><name>PT11683</name></trkpt>
<trkpt lat="52.704517" lon="05.980627"><ele>-1</ele><time>2022-09-06T16:03:39Z</time><name>PT11684</name></trkpt>
<trkpt lat="52.704512" lon="05.980630"><ele>-1</ele><time>2022-09-06T16:03:40Z</time><name>PT11685</name></trkpt>
<trkpt lat="52.704508" lon="05.980630"><ele>-1</ele><time>2022-09-06T16:03:41Z</time><name>PT11686</name></trkpt>
<trkpt lat="52.704503" lon="05.980629"><ele>-1</ele><time>2022-09-06T16:03:42Z</time><name>PT11687</name></trkpt>
<trkpt lat="52.704499" lon="05.980627"><ele>-1.1</ele><time>2022-09-06T16:03:44Z</time><name>PT11688</name></trkpt>
<trkpt lat="52.704484" lon="05.980625"><ele>-1</ele><time>2022-09-06T16:03:45Z</time><name>PT11689</name></trkpt>
<trkpt lat="52.704470" lon="05.980629"><ele>-1</ele><time>2022-09-06T16:03:46Z</time><name>PT11690</name></trkpt>
<trkpt lat="52.704460" lon="05.980635"><ele>0.9</ele><time>2022-09-06T16:03:47Z</time><name>PT11691</name></trkpt>
<trkpt lat="52.704454" lon="05.980637"><ele>0.7</ele><time>2022-09-06T16:03:48Z</time><name>PT11692</name></trkpt>
<trkpt lat="52.704450" lon="05.980638"><ele>0.7</ele><time>2022-09-06T16:03:49Z</time><name>PT11693</name></trkpt>
<trkpt lat="52.704440" lon="05.980636"><ele>0.6</ele><time>2022-09-06T16:03:50Z</time><name>PT11694</name></trkpt>
<trkpt lat="52.704425" lon="05.980631"><ele>0.5</ele><time>2022-09-06T16:03:51Z</time><name>PT11695</name></trkpt>
<trkpt lat="52.704410" lon="05.980632"><ele>0.5</ele><time>2022-09-06T16:03:52Z</time><name>PT11696</name></trkpt>
<trkpt lat="52.704398" lon="05.980637"><ele>0.4</ele><time>2022-09-06T16:03:53Z</time><name>PT11697</name></trkpt>
<trkpt lat="52.704389" lon="05.980640"><ele>0.5</ele><time>2022-09-06T16:03:54Z</time><name>PT11698</name></trkpt>
<trkpt lat="52.704385" lon="05.980640"><ele>0.5</ele><time>2022-09-06T16:03:55Z</time><name>PT11699</name></trkpt>
<trkpt lat="52.704380" lon="05.980639"><ele>0.6</ele><time>2022-09-06T16:03:56Z</time><name>PT11700</name></trkpt>
<trkpt lat="52.704367" lon="05.980641"><ele>0.7</ele><time>2022-09-06T16:03:57Z</time><name>PT11701</name></trkpt>
<trkpt lat="52.704353" lon="05.980646"><ele>0.7</ele><time>2022-09-06T16:03:58Z</time><name>PT11702</name></trkpt>
<trkpt lat="52.704341" lon="05.980649"><ele>0.6</ele><time>2022-09-06T16:03:59Z</time><name>PT11703</name></trkpt>
<trkpt lat="52.704332" lon="05.980650"><ele>0.5</ele><time>2022-09-06T16:04:00Z</time><name>PT11704</name></trkpt>
<trkpt lat="52.704325" lon="05.980651"><ele>0.4</ele><time>2022-09-06T16:04:01Z</time><name>PT11705</name></trkpt>
<trkpt lat="52.704319" lon="05.980651"><ele>0.2</ele><time>2022-09-06T16:04:02Z</time><name>PT11706</name></trkpt>
<trkpt lat="52.704311" lon="05.980650"><ele>0.3</ele><time>2022-09-06T16:04:03Z</time><name>PT11707</name></trkpt>
<trkpt lat="52.704298" lon="05.980651"><ele>0.2</ele><time>2022-09-06T16:04:04Z</time><name>PT11708</name></trkpt>
<trkpt lat="52.704283" lon="05.980656"><ele>0.1</ele><time>2022-09-06T16:04:05Z</time><name>PT11709</name></trkpt>
<trkpt lat="52.704268" lon="05.980660"><ele>0.2</ele><time>2022-09-06T16:04:06Z</time><name>PT11710</name></trkpt>
<trkpt lat="52.704256" lon="05.980665"><ele>0.1</ele><time>2022-09-06T16:04:07Z</time><name>PT11711</name></trkpt>
<trkpt lat="52.704250" lon="05.980668"><ele>0.1</ele><time>2022-09-06T16:04:08Z</time><name>PT11712</name></trkpt>
<trkpt lat="52.704245" lon="05.980669"><ele>0.1</ele><time>2022-09-06T16:04:09Z</time><name>PT11713</name></trkpt>
<trkpt lat="52.704238" lon="05.980667"><ele>0.1</ele><time>2022-09-06T16:04:10Z</time><name>PT11714</name></trkpt>
<trkpt lat="52.704229" lon="05.980666"><ele>0.4</ele><time>2022-09-06T16:04:11Z</time><name>PT11715</name></trkpt>
<trkpt lat="52.704216" lon="05.980667"><ele>0.5</ele><time>2022-09-06T16:04:12Z</time><name>PT11716</name></trkpt>
<trkpt lat="52.704201" lon="05.980669"><ele>0.5</ele><time>2022-09-06T16:04:13Z</time><name>PT11717</name></trkpt>
<trkpt lat="52.704186" lon="05.980673"><ele>0.5</ele><time>2022-09-06T16:04:14Z</time><name>PT11718</name></trkpt>
<trkpt lat="52.704178" lon="05.980674"><ele>0.6</ele><time>2022-09-06T16:04:15Z</time><name>PT11719</name></trkpt>
<trkpt lat="52.704172" lon="05.980674"><ele>0.6</ele><time>2022-09-06T16:04:16Z</time><name>PT11720</name></trkpt>
<trkpt lat="52.704163" lon="05.980675"><ele>0.5</ele><time>2022-09-06T16:04:17Z</time><name>PT11721</name></trkpt>
<trkpt lat="52.704154" lon="05.980672"><ele>0.5</ele><time>2022-09-06T16:04:18Z</time><name>PT11722</name></trkpt>
<trkpt lat="52.704144" lon="05.980672"><ele>0.4</ele><time>2022-09-06T16:04:19Z</time><name>PT11723</name></trkpt>
<trkpt lat="52.704136" lon="05.980672"><ele>0.2</ele><time>2022-09-06T16:04:20Z</time><name>PT11724</name></trkpt>
<trkpt lat="52.704128" lon="05.980673"><ele>0.1</ele><time>2022-09-06T16:04:21Z</time><name>PT11725</name></trkpt>
<trkpt lat="52.704120" lon="05.980675"><ele>0.1</ele><time>2022-09-06T16:04:22Z</time><name>PT11726</name></trkpt>
<trkpt lat="52.704113" lon="05.980673"><ele>0.2</ele><time>2022-09-06T16:04:23Z</time><name>PT11727</name></trkpt>
<trkpt lat="52.704109" lon="05.980672"><ele>0.3</ele><time>2022-09-06T16:04:24Z</time><name>PT11728</name></trkpt>
<trkpt lat="52.704104" lon="05.980673"><ele>0.5</ele><time>2022-09-06T16:04:25Z</time><name>PT11729</name></trkpt>
<trkpt lat="52.704101" lon="05.980674"><ele>0.5</ele><time>2022-09-06T16:04:26Z</time><name>PT11730</name></trkpt>
<trkpt lat="52.704099" lon="05.980676"><ele>0.4</ele><time>2022-09-06T16:04:27Z</time><name>PT11731</name></trkpt>
<trkpt lat="52.704095" lon="05.980678"><ele>0.3</ele><time>2022-09-06T16:04:28Z</time><name>PT11732</name></trkpt>
<trkpt lat="52.704091" lon="05.980678"><ele>0.2</ele><time>2022-09-06T16:04:29Z</time><name>PT11733</name></trkpt>
<trkpt lat="52.704088" lon="05.980678"><ele>0.2</ele><time>2022-09-06T16:04:30Z</time><name>PT11734</name></trkpt>
<trkpt lat="52.704083" lon="05.980677"><ele>0.1</ele><time>2022-09-06T16:04:31Z</time><name>PT11735</name></trkpt>
<trkpt lat="52.704078" lon="05.980676"><ele>0.4</ele><time>2022-09-06T16:04:32Z</time><name>PT11736</name></trkpt>
<trkpt lat="52.704077" lon="05.980676"><ele>0.2</ele><time>2022-09-06T16:04:33Z</time><name>PT11737</name></trkpt>
<trkpt lat="52.704074" lon="05.980678"><ele>0.3</ele><time>2022-09-06T16:04:34Z</time><name>PT11738</name></trkpt>
<trkpt lat="52.704067" lon="05.980677"><ele>0.2</ele><time>2022-09-06T16:04:35Z</time><name>PT11739</name></trkpt>
<trkpt lat="52.704059" lon="05.980676"><ele>0.2</ele><time>2022-09-06T16:04:36Z</time><name>PT11740</name></trkpt>
<trkpt lat="52.704051" lon="05.980675"><ele>0.5</ele><time>2022-09-06T16:04:37Z</time><name>PT11741</name></trkpt>
<trkpt lat="52.704043" lon="05.980677"><ele>0.4</ele><time>2022-09-06T16:04:38Z</time><name>PT11742</name></trkpt>
<trkpt lat="52.704035" lon="05.980679"><ele>0.4</ele><time>2022-09-06T16:04:39Z</time><name>PT11743</name></trkpt>
<trkpt lat="52.704029" lon="05.980683"><ele>0.8</ele><time>2022-09-06T16:04:40Z</time><name>PT11744</name></trkpt>
<trkpt lat="52.704025" lon="05.980686"><ele>0.9</ele><time>2022-09-06T16:04:41Z</time><name>PT11745</name></trkpt>
<trkpt lat="52.704020" lon="05.980688"><ele>-1</ele><time>2022-09-06T16:04:42Z</time><name>PT11746</name></trkpt>
<trkpt lat="52.704012" lon="05.980687"><ele>-1</ele><time>2022-09-06T16:04:43Z</time><name>PT11747</name></trkpt>
<trkpt lat="52.704000" lon="05.980687"><ele>-1</ele><time>2022-09-06T16:04:44Z</time><name>PT11748</name></trkpt>
<trkpt lat="52.703988" lon="05.980686"><ele>0.8</ele><time>2022-09-06T16:04:45Z</time><name>PT11749</name></trkpt>
<trkpt lat="52.703977" lon="05.980685"><ele>0.8</ele><time>2022-09-06T16:04:46Z</time><name>PT11750</name></trkpt>
<trkpt lat="52.703966" lon="05.980686"><ele>0.8</ele><time>2022-09-06T16:04:47Z</time><name>PT11751</name></trkpt>
<trkpt lat="52.703955" lon="05.980688"><ele>0.6</ele><time>2022-09-06T16:04:48Z</time><name>PT11752</name></trkpt>
<trkpt lat="52.703945" lon="05.980690"><ele>0.5</ele><time>2022-09-06T16:04:49Z</time><name>PT11753</name></trkpt>
<trkpt lat="52.703936" lon="05.980692"><ele>0.6</ele><time>2022-09-06T16:04:50Z</time><name>PT11754</name></trkpt>
<trkpt lat="52.703931" lon="05.980693"><ele>0.5</ele><time>2022-09-06T16:04:51Z</time><name>PT11755</name></trkpt>
<trkpt lat="52.703925" lon="05.980694"><ele>0.5</ele><time>2022-09-06T16:04:52Z</time><name>PT11756</name></trkpt>
<trkpt lat="52.703920" lon="05.980695"><ele>0.8</ele><time>2022-09-06T16:04:53Z</time><name>PT11757</name></trkpt>
<trkpt lat="52.703917" lon="05.980697"><ele>0.8</ele><time>2022-09-06T16:04:54Z</time><name>PT11758</name></trkpt>
<trkpt lat="52.703912" lon="05.980698"><ele>0.9</ele><time>2022-09-06T16:04:55Z</time><name>PT11759</name></trkpt>
<trkpt lat="52.703903" lon="05.980697"><ele>-1</ele><time>2022-09-06T16:04:56Z</time><name>PT11760</name></trkpt>
<trkpt lat="52.703893" lon="05.980698"><ele>-1</ele><time>2022-09-06T16:04:57Z</time><name>PT11761</name></trkpt>
<trkpt lat="52.703883" lon="05.980702"><ele>0.9</ele><time>2022-09-06T16:04:58Z</time><name>PT11762</name></trkpt>
<trkpt lat="52.703872" lon="05.980704"><ele>0.9</ele><time>2022-09-06T16:04:59Z</time><name>PT11763</name></trkpt>
<trkpt lat="52.703861" lon="05.980707"><ele>0.7</ele><time>2022-09-06T16:05:00Z</time><name>PT11764</name></trkpt>
<trkpt lat="52.703850" lon="05.980710"><ele>0.9</ele><time>2022-09-06T16:05:01Z</time><name>PT11765</name></trkpt>
<trkpt lat="52.703840" lon="05.980712"><ele>-1</ele><time>2022-09-06T16:05:02Z</time><name>PT11766</name></trkpt>
<trkpt lat="52.703829" lon="05.980713"><ele>-1</ele><time>2022-09-06T16:05:03Z</time><name>PT11767</name></trkpt>
<trkpt lat="52.703820" lon="05.980715"><ele>-1</ele><time>2022-09-06T16:05:04Z</time><name>PT11768</name></trkpt>
<trkpt lat="52.703811" lon="05.980716"><ele>-1</ele><time>2022-09-06T16:05:05Z</time><name>PT11769</name></trkpt>
<trkpt lat="52.703801" lon="05.980718"><ele>-1</ele><time>2022-09-06T16:05:06Z</time><name>PT11770</name></trkpt>
<trkpt lat="52.703789" lon="05.980716"><ele>-1</ele><time>2022-09-06T16:05:07Z</time><name>PT11771</name></trkpt>
<trkpt lat="52.703779" lon="05.980717"><ele>-1</ele><time>2022-09-06T16:05:08Z</time><name>PT11772</name></trkpt>
<trkpt lat="52.703768" lon="05.980718"><ele>0.8</ele><time>2022-09-06T16:05:09Z</time><name>PT11773</name></trkpt>
<trkpt lat="52.703757" lon="05.980720"><ele>0.8</ele><time>2022-09-06T16:05:10Z</time><name>PT11774</name></trkpt>
<trkpt lat="52.703746" lon="05.980722"><ele>0.9</ele><time>2022-09-06T16:05:11Z</time><name>PT11775</name></trkpt>
<trkpt lat="52.703736" lon="05.980724"><ele>-1</ele><time>2022-09-06T16:05:12Z</time><name>PT11776</name></trkpt>
<trkpt lat="52.703726" lon="05.980728"><ele>-1.1</ele><time>2022-09-06T16:05:13Z</time><name>PT11777</name></trkpt>
<trkpt lat="52.703716" lon="05.980733"><ele>-1</ele><time>2022-09-06T16:05:14Z</time><name>PT11778</name></trkpt>
<trkpt lat="52.703706" lon="05.980733"><ele>-1</ele><time>2022-09-06T16:05:15Z</time><name>PT11779</name></trkpt>
<trkpt lat="52.703695" lon="05.980730"><ele>-1</ele><time>2022-09-06T16:05:16Z</time><name>PT11780</name></trkpt>
<trkpt lat="52.703685" lon="05.980727"><ele>-1</ele><time>2022-09-06T16:05:17Z</time><name>PT11781</name></trkpt>
<trkpt lat="52.703675" lon="05.980727"><ele>-1</ele><time>2022-09-06T16:05:18Z</time><name>PT11782</name></trkpt>
<trkpt lat="52.703665" lon="05.980729"><ele>-1</ele><time>2022-09-06T16:05:19Z</time><name>PT11783</name></trkpt>
<trkpt lat="52.703654" lon="05.980733"><ele>-1.1</ele><time>2022-09-06T16:05:20Z</time><name>PT11784</name></trkpt>
<trkpt lat="52.703644" lon="05.980736"><ele>-1</ele><time>2022-09-06T16:05:21Z</time><name>PT11785</name></trkpt>
<trkpt lat="52.703633" lon="05.980739"><ele>-1</ele><time>2022-09-06T16:05:22Z</time><name>PT11786</name></trkpt>
<trkpt lat="52.703623" lon="05.980742"><ele>0.9</ele><time>2022-09-06T16:05:23Z</time><name>PT11787</name></trkpt>
<trkpt lat="52.703613" lon="05.980746"><ele>-1</ele><time>2022-09-06T16:05:24Z</time><name>PT11788</name></trkpt>
<trkpt lat="52.703604" lon="05.980747"><ele>-1</ele><time>2022-09-06T16:05:25Z</time><name>PT11789</name></trkpt>
<trkpt lat="52.703593" lon="05.980745"><ele>-1</ele><time>2022-09-06T16:05:26Z</time><name>PT11790</name></trkpt>
<trkpt lat="52.703581" lon="05.980745"><ele>-1.3</ele><time>2022-09-06T16:05:27Z</time><name>PT11791</name></trkpt>
<trkpt lat="52.703568" lon="05.980748"><ele>-1.2</ele><time>2022-09-06T16:05:28Z</time><name>PT11792</name></trkpt>
<trkpt lat="52.703556" lon="05.980750"><ele>-1.1</ele><time>2022-09-06T16:05:29Z</time><name>PT11793</name></trkpt>
<trkpt lat="52.703544" lon="05.980751"><ele>-1.1</ele><time>2022-09-06T16:05:30Z</time><name>PT11794</name></trkpt>
<trkpt lat="52.703533" lon="05.980753"><ele>-1.1</ele><time>2022-09-06T16:05:31Z</time><name>PT11795</name></trkpt>
<trkpt lat="52.703522" lon="05.980754"><ele>-1</ele><time>2022-09-06T16:05:32Z</time><name>PT11796</name></trkpt>
<trkpt lat="52.703514" lon="05.980758"><ele>-1.1</ele><time>2022-09-06T16:05:33Z</time><name>PT11797</name></trkpt>
<trkpt lat="52.703504" lon="05.980761"><ele>-1</ele><time>2022-09-06T16:05:34Z</time><name>PT11798</name></trkpt>
<trkpt lat="52.703494" lon="05.980762"><ele>-1</ele><time>2022-09-06T16:05:35Z</time><name>PT11799</name></trkpt>
<trkpt lat="52.703483" lon="05.980762"><ele>-1</ele><time>2022-09-06T16:05:36Z</time><name>PT11800</name></trkpt>
<trkpt lat="52.703474" lon="05.980764"><ele>-1</ele><time>2022-09-06T16:05:37Z</time><name>PT11801</name></trkpt>
<trkpt lat="52.703464" lon="05.980768"><ele>-1</ele><time>2022-09-06T16:05:38Z</time><name>PT11802</name></trkpt>
<trkpt lat="52.703454" lon="05.980771"><ele>-1</ele><time>2022-09-06T16:05:39Z</time><name>PT11803</name></trkpt>
<trkpt lat="52.703445" lon="05.980772"><ele>-1.1</ele><time>2022-09-06T16:05:40Z</time><name>PT11804</name></trkpt>
<trkpt lat="52.703435" lon="05.980775"><ele>-1.1</ele><time>2022-09-06T16:05:41Z</time><name>PT11805</name></trkpt>
<trkpt lat="52.703426" lon="05.980776"><ele>-1.1</ele><time>2022-09-06T16:05:42Z</time><name>PT11806</name></trkpt>
<trkpt lat="52.703415" lon="05.980776"><ele>-1.2</ele><time>2022-09-06T16:05:43Z</time><name>PT11807</name></trkpt>
<trkpt lat="52.703404" lon="05.980775"><ele>-1.2</ele><time>2022-09-06T16:05:44Z</time><name>PT11808</name></trkpt>
<trkpt lat="52.703394" lon="05.980773"><ele>-1.3</ele><time>2022-09-06T16:05:45Z</time><name>PT11809</name></trkpt>
<trkpt lat="52.703384" lon="05.980775"><ele>-1.3</ele><time>2022-09-06T16:05:46Z</time><name>PT11810</name></trkpt>
<trkpt lat="52.703373" lon="05.980779"><ele>-1.2</ele><time>2022-09-06T16:05:47Z</time><name>PT11811</name></trkpt>
<trkpt lat="52.703362" lon="05.980784"><ele>-1.1</ele><time>2022-09-06T16:05:48Z</time><name>PT11812</name></trkpt>
<trkpt lat="52.703352" lon="05.980790"><ele>-1.1</ele><time>2022-09-06T16:05:49Z</time><name>PT11813</name></trkpt>
<trkpt lat="52.703342" lon="05.980792"><ele>-1</ele><time>2022-09-06T16:05:50Z</time><name>PT11814</name></trkpt>
<trkpt lat="52.703333" lon="05.980795"><ele>-1</ele><time>2022-09-06T16:05:51Z</time><name>PT11815</name></trkpt>
<trkpt lat="52.703322" lon="05.980796"><ele>-1.2</ele><time>2022-09-06T16:05:52Z</time><name>PT11816</name></trkpt>
<trkpt lat="52.703313" lon="05.980795"><ele>-1.2</ele><time>2022-09-06T16:05:53Z</time><name>PT11817</name></trkpt>
<trkpt lat="52.703303" lon="05.980796"><ele>-1.1</ele><time>2022-09-06T16:05:54Z</time><name>PT11818</name></trkpt>
<trkpt lat="52.703293" lon="05.980797"><ele>-1.3</ele><time>2022-09-06T16:05:55Z</time><name>PT11819</name></trkpt>
<trkpt lat="52.703284" lon="05.980797"><ele>-1.1</ele><time>2022-09-06T16:05:56Z</time><name>PT11820</name></trkpt>
<trkpt lat="52.703274" lon="05.980799"><ele>-1.1</ele><time>2022-09-06T16:05:57Z</time><name>PT11821</name></trkpt>
<trkpt lat="52.703265" lon="05.980801"><ele>-1</ele><time>2022-09-06T16:05:58Z</time><name>PT11822</name></trkpt>
<trkpt lat="52.703256" lon="05.980807"><ele>-1</ele><time>2022-09-06T16:05:59Z</time><name>PT11823</name></trkpt>
<trkpt lat="52.703245" lon="05.980811"><ele>-1</ele><time>2022-09-06T16:06:00Z</time><name>PT11824</name></trkpt>
<trkpt lat="52.703234" lon="05.980814"><ele>-1</ele><time>2022-09-06T16:06:01Z</time><name>PT11825</name></trkpt>
<trkpt lat="52.703222" lon="05.980815"><ele>0.9</ele><time>2022-09-06T16:06:02Z</time><name>PT11826</name></trkpt>
<trkpt lat="52.703212" lon="05.980815"><ele>0.8</ele><time>2022-09-06T16:06:03Z</time><name>PT11827</name></trkpt>
<trkpt lat="52.703205" lon="05.980814"><ele>0.8</ele><time>2022-09-06T16:06:04Z</time><name>PT11828</name></trkpt>
<trkpt lat="52.703194" lon="05.980816"><ele>0.6</ele><time>2022-09-06T16:06:05Z</time><name>PT11829</name></trkpt>
<trkpt lat="52.703183" lon="05.980819"><ele>0.6</ele><time>2022-09-06T16:06:06Z</time><name>PT11830</name></trkpt>
<trkpt lat="52.703172" lon="05.980822"><ele>0.5</ele><time>2022-09-06T16:06:07Z</time><name>PT11831</name></trkpt>
<trkpt lat="52.703163" lon="05.980824"><ele>0.5</ele><time>2022-09-06T16:06:08Z</time><name>PT11832</name></trkpt>
<trkpt lat="52.703151" lon="05.980827"><ele>0.5</ele><time>2022-09-06T16:06:09Z</time><name>PT11833</name></trkpt>
<trkpt lat="52.703141" lon="05.980829"><ele>0.6</ele><time>2022-09-06T16:06:10Z</time><name>PT11834</name></trkpt>
<trkpt lat="52.703131" lon="05.980829"><ele>0.5</ele><time>2022-09-06T16:06:11Z</time><name>PT11835</name></trkpt>
<trkpt lat="52.703119" lon="05.980828"><ele>0.6</ele><time>2022-09-06T16:06:12Z</time><name>PT11836</name></trkpt>
<trkpt lat="52.703108" lon="05.980829"><ele>0.5</ele><time>2022-09-06T16:06:13Z</time><name>PT11837</name></trkpt>
<trkpt lat="52.703097" lon="05.980832"><ele>0.5</ele><time>2022-09-06T16:06:14Z</time><name>PT11838</name></trkpt>
<trkpt lat="52.703085" lon="05.980835"><ele>0.5</ele><time>2022-09-06T16:06:15Z</time><name>PT11839</name></trkpt>
<trkpt lat="52.703074" lon="05.980838"><ele>0.5</ele><time>2022-09-06T16:06:16Z</time><name>PT11840</name></trkpt>
<trkpt lat="52.703063" lon="05.980840"><ele>0.5</ele><time>2022-09-06T16:06:17Z</time><name>PT11841</name></trkpt>
<trkpt lat="52.703053" lon="05.980841"><ele>0.6</ele><time>2022-09-06T16:06:18Z</time><name>PT11842</name></trkpt>
<trkpt lat="52.703043" lon="05.980840"><ele>0.5</ele><time>2022-09-06T16:06:19Z</time><name>PT11843</name></trkpt>
<trkpt lat="52.703032" lon="05.980840"><ele>0.5</ele><time>2022-09-06T16:06:20Z</time><name>PT11844</name></trkpt>
<trkpt lat="52.703022" lon="05.980840"><ele>0.5</ele><time>2022-09-06T16:06:21Z</time><name>PT11845</name></trkpt>
<trkpt lat="52.703012" lon="05.980842"><ele>0.8</ele><time>2022-09-06T16:06:22Z</time><name>PT11846</name></trkpt>
<trkpt lat="52.703002" lon="05.980845"><ele>0.6</ele><time>2022-09-06T16:06:23Z</time><name>PT11847</name></trkpt>
<trkpt lat="52.702991" lon="05.980850"><ele>0.7</ele><time>2022-09-06T16:06:24Z</time><name>PT11848</name></trkpt>
<trkpt lat="52.702980" lon="05.980853"><ele>0.7</ele><time>2022-09-06T16:06:25Z</time><name>PT11849</name></trkpt>
<trkpt lat="52.702971" lon="05.980852"><ele>0.7</ele><time>2022-09-06T16:06:26Z</time><name>PT11850</name></trkpt>
<trkpt lat="52.702961" lon="05.980851"><ele>0.7</ele><time>2022-09-06T16:06:27Z</time><name>PT11851</name></trkpt>
<trkpt lat="52.702950" lon="05.980851"><ele>0.9</ele><time>2022-09-06T16:06:28Z</time><name>PT11852</name></trkpt>
<trkpt lat="52.702938" lon="05.980850"><ele>-1</ele><time>2022-09-06T16:06:29Z</time><name>PT11853</name></trkpt>
<trkpt lat="52.702928" lon="05.980851"><ele>-1.1</ele><time>2022-09-06T16:06:30Z</time><name>PT11854</name></trkpt>
<trkpt lat="52.702918" lon="05.980852"><ele>-1.1</ele><time>2022-09-06T16:06:31Z</time><name>PT11855</name></trkpt>
<trkpt lat="52.702910" lon="05.980847"><ele>-1.3</ele><time>2022-09-06T16:06:32Z</time><name>PT11856</name></trkpt>
<trkpt lat="52.702900" lon="05.980849"><ele>-1.4</ele><time>2022-09-06T16:06:33Z</time><name>PT11857</name></trkpt>
<trkpt lat="52.702890" lon="05.980851"><ele>-1.5</ele><time>2022-09-06T16:06:34Z</time><name>PT11858</name></trkpt>
<trkpt lat="52.702880" lon="05.980852"><ele>-1.3</ele><time>2022-09-06T16:06:35Z</time><name>PT11859</name></trkpt>
<trkpt lat="52.702870" lon="05.980851"><ele>-1.4</ele><time>2022-09-06T16:06:36Z</time><name>PT11860</name></trkpt>
<trkpt lat="52.702858" lon="05.980849"><ele>-1.5</ele><time>2022-09-06T16:06:37Z</time><name>PT11861</name></trkpt>
<trkpt lat="52.702847" lon="05.980848"><ele>-1.2</ele><time>2022-09-06T16:06:38Z</time><name>PT11862</name></trkpt>
<trkpt lat="52.702839" lon="05.980845"><ele>-1.2</ele><time>2022-09-06T16:06:39Z</time><name>PT11863</name></trkpt>
<trkpt lat="52.702830" lon="05.980843"><ele>-1.1</ele><time>2022-09-06T16:06:40Z</time><name>PT11864</name></trkpt>
<trkpt lat="52.702820" lon="05.980845"><ele>-1.1</ele><time>2022-09-06T16:06:41Z</time><name>PT11865</name></trkpt>
<trkpt lat="52.702810" lon="05.980846"><ele>-1.2</ele><time>2022-09-06T16:06:42Z</time><name>PT11866</name></trkpt>
<trkpt lat="52.702801" lon="05.980845"><ele>-1.3</ele><time>2022-09-06T16:06:43Z</time><name>PT11867</name></trkpt>
<trkpt lat="52.702790" lon="05.980844"><ele>-1.3</ele><time>2022-09-06T16:06:44Z</time><name>PT11868</name></trkpt>
<trkpt lat="52.702781" lon="05.980844"><ele>-1.3</ele><time>2022-09-06T16:06:45Z</time><name>PT11869</name></trkpt>
<trkpt lat="52.702770" lon="05.980844"><ele>-1.2</ele><time>2022-09-06T16:06:46Z</time><name>PT11870</name></trkpt>
<trkpt lat="52.702759" lon="05.980844"><ele>-1</ele><time>2022-09-06T16:06:47Z</time><name>PT11871</name></trkpt>
<trkpt lat="52.702748" lon="05.980845"><ele>0.9</ele><time>2022-09-06T16:06:48Z</time><name>PT11872</name></trkpt>
<trkpt lat="52.702739" lon="05.980844"><ele>-1</ele><time>2022-09-06T16:06:49Z</time><name>PT11873</name></trkpt>
<trkpt lat="52.702730" lon="05.980846"><ele>-1</ele><time>2022-09-06T16:06:50Z</time><name>PT11874</name></trkpt>
<trkpt lat="52.702721" lon="05.980845"><ele>-1.2</ele><time>2022-09-06T16:06:51Z</time><name>PT11875</name></trkpt>
<trkpt lat="52.702711" lon="05.980844"><ele>-1.3</ele><time>2022-09-06T16:06:52Z</time><name>PT11876</name></trkpt>
<trkpt lat="52.702702" lon="05.980841"><ele>-1.5</ele><time>2022-09-06T16:06:53Z</time><name>PT11877</name></trkpt>
<trkpt lat="52.702693" lon="05.980838"><ele>-1.5</ele><time>2022-09-06T16:06:54Z</time><name>PT11878</name></trkpt>
<trkpt lat="52.702682" lon="05.980841"><ele>-1.3</ele><time>2022-09-06T16:06:55Z</time><name>PT11879</name></trkpt>
<trkpt lat="52.702673" lon="05.980840"><ele>-1.3</ele><time>2022-09-06T16:06:56Z</time><name>PT11880</name></trkpt>
<trkpt lat="52.702661" lon="05.980844"><ele>-1.1</ele><time>2022-09-06T16:06:57Z</time><name>PT11881</name></trkpt>
<trkpt lat="52.702651" lon="05.980845"><ele>0.9</ele><time>2022-09-06T16:06:58Z</time><name>PT11882</name></trkpt>
<trkpt lat="52.702640" lon="05.980843"><ele>-1</ele><time>2022-09-06T16:06:59Z</time><name>PT11883</name></trkpt>
<trkpt lat="52.702630" lon="05.980843"><ele>-1.1</ele><time>2022-09-06T16:07:00Z</time><name>PT11884</name></trkpt>
<trkpt lat="52.702619" lon="05.980842"><ele>-1.1</ele><time>2022-09-06T16:07:01Z</time><name>PT11885</name></trkpt>
<trkpt lat="52.702609" lon="05.980842"><ele>-1.1</ele><time>2022-09-06T16:07:02Z</time><name>PT11886</name></trkpt>
<trkpt lat="52.702599" lon="05.980846"><ele>-1.2</ele><time>2022-09-06T16:07:03Z</time><name>PT11887</name></trkpt>
<trkpt lat="52.702587" lon="05.980848"><ele>-1</ele><time>2022-09-06T16:07:04Z</time><name>PT11888</name></trkpt>
<trkpt lat="52.702576" lon="05.980849"><ele>-1</ele><time>2022-09-06T16:07:05Z</time><name>PT11889</name></trkpt>
<trkpt lat="52.702567" lon="05.980850"><ele>-1</ele><time>2022-09-06T16:07:06Z</time><name>PT11890</name></trkpt>
<trkpt lat="52.702558" lon="05.980849"><ele>0.9</ele><time>2022-09-06T16:07:07Z</time><name>PT11891</name></trkpt>
<trkpt lat="52.702547" lon="05.980848"><ele>0.9</ele><time>2022-09-06T16:07:08Z</time><name>PT11892</name></trkpt>
<trkpt lat="52.702538" lon="05.980848"><ele>0.9</ele><time>2022-09-06T16:07:09Z</time><name>PT11893</name></trkpt>
<trkpt lat="52.702529" lon="05.980848"><ele>-1</ele><time>2022-09-06T16:07:10Z</time><name>PT11894</name></trkpt>
<trkpt lat="52.702520" lon="05.980850"><ele>-1</ele><time>2022-09-06T16:07:11Z</time><name>PT11895</name></trkpt>
<trkpt lat="52.702510" lon="05.980854"><ele>0.8</ele><time>2022-09-06T16:07:12Z</time><name>PT11896</name></trkpt>
<trkpt lat="52.702500" lon="05.980857"><ele>0.7</ele><time>2022-09-06T16:07:13Z</time><name>PT11897</name></trkpt>
<trkpt lat="52.702489" lon="05.980859"><ele>0.6</ele><time>2022-09-06T16:07:14Z</time><name>PT11898</name></trkpt>
<trkpt lat="52.702477" lon="05.980859"><ele>0.7</ele><time>2022-09-06T16:07:15Z</time><name>PT11899</name></trkpt>
<trkpt lat="52.702466" lon="05.980859"><ele>0.6</ele><time>2022-09-06T16:07:16Z</time><name>PT11900</name></trkpt>
<trkpt lat="52.702455" lon="05.980859"><ele>0.9</ele><time>2022-09-06T16:07:17Z</time><name>PT11901</name></trkpt>
<trkpt lat="52.702444" lon="05.980862"><ele>0.9</ele><time>2022-09-06T16:07:18Z</time><name>PT11902</name></trkpt>
<trkpt lat="52.702432" lon="05.980866"><ele>-1</ele><time>2022-09-06T16:07:19Z</time><name>PT11903</name></trkpt>
<trkpt lat="52.702421" lon="05.980870"><ele>0.9</ele><time>2022-09-06T16:07:20Z</time><name>PT11904</name></trkpt>
<trkpt lat="52.702411" lon="05.980873"><ele>0.9</ele><time>2022-09-06T16:07:21Z</time><name>PT11905</name></trkpt>
<trkpt lat="52.702400" lon="05.980874"><ele>0.9</ele><time>2022-09-06T16:07:22Z</time><name>PT11906</name></trkpt>
<trkpt lat="52.702391" lon="05.980871"><ele>0.9</ele><time>2022-09-06T16:07:23Z</time><name>PT11907</name></trkpt>
<trkpt lat="52.702380" lon="05.980872"><ele>0.9</ele><time>2022-09-06T16:07:24Z</time><name>PT11908</name></trkpt>
<trkpt lat="52.702371" lon="05.980875"><ele>-1</ele><time>2022-09-06T16:07:25Z</time><name>PT11909</name></trkpt>
<trkpt lat="52.702360" lon="05.980877"><ele>-1</ele><time>2022-09-06T16:07:26Z</time><name>PT11910</name></trkpt>
<trkpt lat="52.702350" lon="05.980880"><ele>-1</ele><time>2022-09-06T16:07:27Z</time><name>PT11911</name></trkpt>
<trkpt lat="52.702337" lon="05.980885"><ele>-1</ele><time>2022-09-06T16:07:28Z</time><name>PT11912</name></trkpt>
<trkpt lat="52.702327" lon="05.980886"><ele>0.8</ele><time>2022-09-06T16:07:29Z</time><name>PT11913</name></trkpt>
<trkpt lat="52.702316" lon="05.980889"><ele>0.7</ele><time>2022-09-06T16:07:30Z</time><name>PT11914</name></trkpt>
<trkpt lat="52.702306" lon="05.980889"><ele>0.7</ele><time>2022-09-06T16:07:31Z</time><name>PT11915</name></trkpt>
<trkpt lat="52.702295" lon="05.980888"><ele>0.5</ele><time>2022-09-06T16:07:32Z</time><name>PT11916</name></trkpt>
<trkpt lat="52.702283" lon="05.980888"><ele>0.7</ele><time>2022-09-06T16:07:33Z</time><name>PT11917</name></trkpt>
<trkpt lat="52.702273" lon="05.980888"><ele>-1</ele><time>2022-09-06T16:07:34Z</time><name>PT11918</name></trkpt>
<trkpt lat="52.702262" lon="05.980893"><ele>-1.2</ele><time>2022-09-06T16:07:35Z</time><name>PT11919</name></trkpt>
<trkpt lat="52.702251" lon="05.980897"><ele>-1.2</ele><time>2022-09-06T16:07:36Z</time><name>PT11920</name></trkpt>
<trkpt lat="52.702240" lon="05.980902"><ele>-1.2</ele><time>2022-09-06T16:07:37Z</time><name>PT11921</name></trkpt>
<trkpt lat="52.702229" lon="05.980905"><ele>0.9</ele><time>2022-09-06T16:07:38Z</time><name>PT11922</name></trkpt>
<trkpt lat="52.702220" lon="05.980907"><ele>0.6</ele><time>2022-09-06T16:07:39Z</time><name>PT11923</name></trkpt>
<trkpt lat="52.702210" lon="05.980907"><ele>0.6</ele><time>2022-09-06T16:07:40Z</time><name>PT11924</name></trkpt>
<trkpt lat="52.702199" lon="05.980908"><ele>0.5</ele><time>2022-09-06T16:07:41Z</time><name>PT11925</name></trkpt>
<trkpt lat="52.702189" lon="05.980908"><ele>0.5</ele><time>2022-09-06T16:07:42Z</time><name>PT11926</name></trkpt>
<trkpt lat="52.702178" lon="05.980909"><ele>0.5</ele><time>2022-09-06T16:07:43Z</time><name>PT11927</name></trkpt>
<trkpt lat="52.702169" lon="05.980910"><ele>0.5</ele><time>2022-09-06T16:07:44Z</time><name>PT11928</name></trkpt>
<trkpt lat="52.702159" lon="05.980913"><ele>0.5</ele><time>2022-09-06T16:07:45Z</time><name>PT11929</name></trkpt>
<trkpt lat="52.702153" lon="05.980910"><ele>0.5</ele><time>2022-09-06T16:07:46Z</time><name>PT11930</name></trkpt>
<trkpt lat="52.702146" lon="05.980908"><ele>0.6</ele><time>2022-09-06T16:07:47Z</time><name>PT11931</name></trkpt>
<trkpt lat="52.702136" lon="05.980909"><ele>0.7</ele><time>2022-09-06T16:07:48Z</time><name>PT11932</name></trkpt>
<trkpt lat="52.702126" lon="05.980910"><ele>0.6</ele><time>2022-09-06T16:07:49Z</time><name>PT11933</name></trkpt>
<trkpt lat="52.702117" lon="05.980911"><ele>0.8</ele><time>2022-09-06T16:07:50Z</time><name>PT11934</name></trkpt>
<trkpt lat="52.702109" lon="05.980912"><ele>0.7</ele><time>2022-09-06T16:07:51Z</time><name>PT11935</name></trkpt>
<trkpt lat="52.702100" lon="05.980914"><ele>0.6</ele><time>2022-09-06T16:07:52Z</time><name>PT11936</name></trkpt>
<trkpt lat="52.702090" lon="05.980919"><ele>0.7</ele><time>2022-09-06T16:07:53Z</time><name>PT11937</name></trkpt>
<trkpt lat="52.702080" lon="05.980921"><ele>-1</ele><time>2022-09-06T16:07:54Z</time><name>PT11938</name></trkpt>
<trkpt lat="52.702070" lon="05.980921"><ele>0.8</ele><time>2022-09-06T16:07:55Z</time><name>PT11939</name></trkpt>
<trkpt lat="52.702059" lon="05.980921"><ele>0.9</ele><time>2022-09-06T16:07:56Z</time><name>PT11940</name></trkpt>
<trkpt lat="52.702049" lon="05.980923"><ele>-1</ele><time>2022-09-06T16:07:57Z</time><name>PT11941</name></trkpt>
<trkpt lat="52.702039" lon="05.980926"><ele>0.8</ele><time>2022-09-06T16:07:58Z</time><name>PT11942</name></trkpt>
<trkpt lat="52.702028" lon="05.980929"><ele>0.6</ele><time>2022-09-06T16:07:59Z</time><name>PT11943</name></trkpt>
<trkpt lat="52.702017" lon="05.980930"><ele>0.7</ele><time>2022-09-06T16:08:00Z</time><name>PT11944</name></trkpt>
<trkpt lat="52.702006" lon="05.980935"><ele>0.7</ele><time>2022-09-06T16:08:01Z</time><name>PT11945</name></trkpt>
<trkpt lat="52.701997" lon="05.980938"><ele>0.7</ele><time>2022-09-06T16:08:02Z</time><name>PT11946</name></trkpt>
<trkpt lat="52.701989" lon="05.980936"><ele>0.8</ele><time>2022-09-06T16:08:03Z</time><name>PT11947</name></trkpt>
<trkpt lat="52.701978" lon="05.980935"><ele>-1</ele><time>2022-09-06T16:08:04Z</time><name>PT11948</name></trkpt>
<trkpt lat="52.701966" lon="05.980935"><ele>0.9</ele><time>2022-09-06T16:08:05Z</time><name>PT11949</name></trkpt>
<trkpt lat="52.701955" lon="05.980935"><ele>-1</ele><time>2022-09-06T16:08:06Z</time><name>PT11950</name></trkpt>
<trkpt lat="52.701945" lon="05.980937"><ele>-1.2</ele><time>2022-09-06T16:08:07Z</time><name>PT11951</name></trkpt>
<trkpt lat="52.701936" lon="05.980940"><ele>-1.4</ele><time>2022-09-06T16:08:08Z</time><name>PT11952</name></trkpt>
<trkpt lat="52.701926" lon="05.980945"><ele>-1.4</ele><time>2022-09-06T16:08:09Z</time><name>PT11953</name></trkpt>
<trkpt lat="52.701918" lon="05.980948"><ele>-1.5</ele><time>2022-09-06T16:08:10Z</time><name>PT11954</name></trkpt>
<trkpt lat="52.701908" lon="05.980949"><ele>-1.5</ele><time>2022-09-06T16:08:11Z</time><name>PT11955</name></trkpt>
<trkpt lat="52.701898" lon="05.980947"><ele>-1.5</ele><time>2022-09-06T16:08:12Z</time><name>PT11956</name></trkpt>
<trkpt lat="52.701889" lon="05.980943"><ele>-1.4</ele><time>2022-09-06T16:08:13Z</time><name>PT11957</name></trkpt>
<trkpt lat="52.701878" lon="05.980943"><ele>-1.4</ele><time>2022-09-06T16:08:14Z</time><name>PT11958</name></trkpt>
<trkpt lat="52.701870" lon="05.980939"><ele>-1.3</ele><time>2022-09-06T16:08:15Z</time><name>PT11959</name></trkpt>
<trkpt lat="52.701859" lon="05.980942"><ele>-1.3</ele><time>2022-09-06T16:08:16Z</time><name>PT11960</name></trkpt>
<trkpt lat="52.701848" lon="05.980942"><ele>-1.2</ele><time>2022-09-06T16:08:17Z</time><name>PT11961</name></trkpt>
<trkpt lat="52.701837" lon="05.980947"><ele>-1.2</ele><time>2022-09-06T16:08:18Z</time><name>PT11962</name></trkpt>
<trkpt lat="52.701827" lon="05.980953"><ele>-1.2</ele><time>2022-09-06T16:08:19Z</time><name>PT11963</name></trkpt>
<trkpt lat="52.701817" lon="05.980954"><ele>-1.4</ele><time>2022-09-06T16:08:20Z</time><name>PT11964</name></trkpt>
<trkpt lat="52.701807" lon="05.980956"><ele>-1.5</ele><time>2022-09-06T16:08:21Z</time><name>PT11965</name></trkpt>
<trkpt lat="52.701797" lon="05.980960"><ele>-1.3</ele><time>2022-09-06T16:08:22Z</time><name>PT11966</name></trkpt>
<trkpt lat="52.701787" lon="05.980960"><ele>-1.2</ele><time>2022-09-06T16:08:23Z</time><name>PT11967</name></trkpt>
<trkpt lat="52.701777" lon="05.980960"><ele>-1.1</ele><time>2022-09-06T16:08:24Z</time><name>PT11968</name></trkpt>
<trkpt lat="52.701769" lon="05.980957"><ele>-1</ele><time>2022-09-06T16:08:25Z</time><name>PT11969</name></trkpt>
<trkpt lat="52.701758" lon="05.980959"><ele>-1</ele><time>2022-09-06T16:08:26Z</time><name>PT11970</name></trkpt>
<trkpt lat="52.701747" lon="05.980960"><ele>-1.1</ele><time>2022-09-06T16:08:27Z</time><name>PT11971</name></trkpt>
<trkpt lat="52.701739" lon="05.980962"><ele>-1.1</ele><time>2022-09-06T16:08:28Z</time><name>PT11972</name></trkpt>
<trkpt lat="52.701728" lon="05.980962"><ele>-1.2</ele><time>2022-09-06T16:08:29Z</time><name>PT11973</name></trkpt>
<trkpt lat="52.701717" lon="05.980962"><ele>-1.4</ele><time>2022-09-06T16:08:30Z</time><name>PT11974</name></trkpt>
<trkpt lat="52.701706" lon="05.980962"><ele>-1.4</ele><time>2022-09-06T16:08:31Z</time><name>PT11975</name></trkpt>
<trkpt lat="52.701696" lon="05.980962"><ele>-1.2</ele><time>2022-09-06T16:08:32Z</time><name>PT11976</name></trkpt>
<trkpt lat="52.701686" lon="05.980964"><ele>-1.1</ele><time>2022-09-06T16:08:33Z</time><name>PT11977</name></trkpt>
<trkpt lat="52.701676" lon="05.980967"><ele>-1</ele><time>2022-09-06T16:08:34Z</time><name>PT11978</name></trkpt>
<trkpt lat="52.701667" lon="05.980971"><ele>0.9</ele><time>2022-09-06T16:08:35Z</time><name>PT11979</name></trkpt>
<trkpt lat="52.701661" lon="05.980976"><ele>-1</ele><time>2022-09-06T16:08:36Z</time><name>PT11980</name></trkpt>
<trkpt lat="52.701660" lon="05.980979"><ele>-1</ele><time>2022-09-06T16:08:37Z</time><name>PT11981</name></trkpt>
<trkpt lat="52.701659" lon="05.980981"><ele>-1.2</ele><time>2022-09-06T16:08:38Z</time><name>PT11982</name></trkpt>
<trkpt lat="52.701659" lon="05.980981"><ele>-1.3</ele><time>2022-09-06T16:08:39Z</time><name>PT11983</name></trkpt>
<trkpt lat="52.701655" lon="05.980984"><ele>-1.5</ele><time>2022-09-06T16:08:41Z</time><name>PT11984</name></trkpt>
<trkpt lat="52.701644" lon="05.980985"><ele>-1.5</ele><time>2022-09-06T16:08:42Z</time><name>PT11985</name></trkpt>
<trkpt lat="52.701634" lon="05.980986"><ele>-1.3</ele><time>2022-09-06T16:08:43Z</time><name>PT11986</name></trkpt>
<trkpt lat="52.701623" lon="05.980989"><ele>-1.1</ele><time>2022-09-06T16:08:44Z</time><name>PT11987</name></trkpt>
<trkpt lat="52.701611" lon="05.980991"><ele>-1.1</ele><time>2022-09-06T16:08:45Z</time><name>PT11988</name></trkpt>
<trkpt lat="52.701602" lon="05.980991"><ele>-1.1</ele><time>2022-09-06T16:08:46Z</time><name>PT11989</name></trkpt>
<trkpt lat="52.701592" lon="05.980991"><ele>-1.2</ele><time>2022-09-06T16:08:47Z</time><name>PT11990</name></trkpt>
<trkpt lat="52.701582" lon="05.980987"><ele>-1.1</ele><time>2022-09-06T16:08:48Z</time><name>PT11991</name></trkpt>
<trkpt lat="52.701571" lon="05.980986"><ele>-1</ele><time>2022-09-06T16:08:49Z</time><name>PT11992</name></trkpt>
<trkpt lat="52.701559" lon="05.980987"><ele>-1</ele><time>2022-09-06T16:08:50Z</time><name>PT11993</name></trkpt>
<trkpt lat="52.701548" lon="05.980990"><ele>0.9</ele><time>2022-09-06T16:08:51Z</time><name>PT11994</name></trkpt>
<trkpt lat="52.701538" lon="05.980992"><ele>0.9</ele><time>2022-09-06T16:08:52Z</time><name>PT11995</name></trkpt>
<trkpt lat="52.701529" lon="05.980991"><ele>-1</ele><time>2022-09-06T16:08:53Z</time><name>PT11996</name></trkpt>
<trkpt lat="52.701517" lon="05.980994"><ele>-1</ele><time>2022-09-06T16:08:54Z</time><name>PT11997</name></trkpt>
<trkpt lat="52.701506" lon="05.980997"><ele>-1</ele><time>2022-09-06T16:08:55Z</time><name>PT11998</name></trkpt>
<trkpt lat="52.701495" lon="05.980999"><ele>-1</ele><time>2022-09-06T16:08:56Z</time><name>PT11999</name></trkpt>
<trkpt lat="52.701484" lon="05.981002"><ele>-1</ele><time>2022-09-06T16:08:57Z</time><name>PT12000</name></trkpt>
<trkpt lat="52.701475" lon="05.981004"><ele>-1</ele><time>2022-09-06T16:08:58Z</time><name>PT12001</name></trkpt>
<trkpt lat="52.701466" lon="05.981001"><ele>-1</ele><time>2022-09-06T16:08:59Z</time><name>PT12002</name></trkpt>
<trkpt lat="52.701456" lon="05.981001"><ele>-1</ele><time>2022-09-06T16:09:00Z</time><name>PT12003</name></trkpt>
<trkpt lat="52.701446" lon="05.981002"><ele>-1.2</ele><time>2022-09-06T16:09:01Z</time><name>PT12004</name></trkpt>
<trkpt lat="52.701436" lon="05.981000"><ele>-1.1</ele><time>2022-09-06T16:09:02Z</time><name>PT12005</name></trkpt>
<trkpt lat="52.701424" lon="05.981002"><ele>-1</ele><time>2022-09-06T16:09:03Z</time><name>PT12006</name></trkpt>
<trkpt lat="52.701413" lon="05.981004"><ele>-1</ele><time>2022-09-06T16:09:04Z</time><name>PT12007</name></trkpt>
<trkpt lat="52.701401" lon="05.981007"><ele>-1</ele><time>2022-09-06T16:09:05Z</time><name>PT12008</name></trkpt>
<trkpt lat="52.701393" lon="05.981006"><ele>-1</ele><time>2022-09-06T16:09:06Z</time><name>PT12009</name></trkpt>
<trkpt lat="52.701383" lon="05.981003"><ele>-1.1</ele><time>2022-09-06T16:09:07Z</time><name>PT12010</name></trkpt>
<trkpt lat="52.701372" lon="05.981002"><ele>-1.3</ele><time>2022-09-06T16:09:08Z</time><name>PT12011</name></trkpt>
<trkpt lat="52.701362" lon="05.981003"><ele>-1.3</ele><time>2022-09-06T16:09:09Z</time><name>PT12012</name></trkpt>
<trkpt lat="52.701352" lon="05.981005"><ele>-1.2</ele><time>2022-09-06T16:09:10Z</time><name>PT12013</name></trkpt>
<trkpt lat="52.701342" lon="05.981009"><ele>-1.1</ele><time>2022-09-06T16:09:11Z</time><name>PT12014</name></trkpt>
<trkpt lat="52.701331" lon="05.981011"><ele>-1</ele><time>2022-09-06T16:09:12Z</time><name>PT12015</name></trkpt>
<trkpt lat="52.701320" lon="05.981013"><ele>-1</ele><time>2022-09-06T16:09:13Z</time><name>PT12016</name></trkpt>
<trkpt lat="52.701309" lon="05.981015"><ele>-1</ele><time>2022-09-06T16:09:14Z</time><name>PT12017</name></trkpt>
<trkpt lat="52.701299" lon="05.981016"><ele>-1</ele><time>2022-09-06T16:09:15Z</time><name>PT12018</name></trkpt>
<trkpt lat="52.701288" lon="05.981018"><ele>-1</ele><time>2022-09-06T16:09:16Z</time><name>PT12019</name></trkpt>
<trkpt lat="52.701277" lon="05.981015"><ele>-1</ele><time>2022-09-06T16:09:17Z</time><name>PT12020</name></trkpt>
<trkpt lat="52.701264" lon="05.981017"><ele>-1</ele><time>2022-09-06T16:09:18Z</time><name>PT12021</name></trkpt>
<trkpt lat="52.701253" lon="05.981019"><ele>-1</ele><time>2022-09-06T16:09:19Z</time><name>PT12022</name></trkpt>
<trkpt lat="52.701242" lon="05.981022"><ele>-1</ele><time>2022-09-06T16:09:20Z</time><name>PT12023</name></trkpt>
<trkpt lat="52.701232" lon="05.981025"><ele>-1</ele><time>2022-09-06T16:09:21Z</time><name>PT12024</name></trkpt>
<trkpt lat="52.701221" lon="05.981027"><ele>-1</ele><time>2022-09-06T16:09:22Z</time><name>PT12025</name></trkpt>
<trkpt lat="52.701210" lon="05.981030"><ele>0.9</ele><time>2022-09-06T16:09:23Z</time><name>PT12026</name></trkpt>
<trkpt lat="52.701198" lon="05.981033"><ele>0.8</ele><time>2022-09-06T16:09:24Z</time><name>PT12027</name></trkpt>
<trkpt lat="52.701187" lon="05.981037"><ele>0.8</ele><time>2022-09-06T16:09:25Z</time><name>PT12028</name></trkpt>
<trkpt lat="52.701176" lon="05.981040"><ele>-1</ele><time>2022-09-06T16:09:26Z</time><name>PT12029</name></trkpt>
<trkpt lat="52.701167" lon="05.981041"><ele>0.9</ele><time>2022-09-06T16:09:27Z</time><name>PT12030</name></trkpt>
<trkpt lat="52.701157" lon="05.981040"><ele>-1</ele><time>2022-09-06T16:09:28Z</time><name>PT12031</name></trkpt>
<trkpt lat="52.701146" lon="05.981038"><ele>-1</ele><time>2022-09-06T16:09:29Z</time><name>PT12032</name></trkpt>
<trkpt lat="52.701134" lon="05.981036"><ele>0.9</ele><time>2022-09-06T16:09:30Z</time><name>PT12033</name></trkpt>
<trkpt lat="52.701120" lon="05.981036"><ele>0.7</ele><time>2022-09-06T16:09:31Z</time><name>PT12034</name></trkpt>
<trkpt lat="52.701105" lon="05.981037"><ele>0.7</ele><time>2022-09-06T16:09:32Z</time><name>PT12035</name></trkpt>
<trkpt lat="52.701092" lon="05.981038"><ele>0.7</ele><time>2022-09-06T16:09:33Z</time><name>PT12036</name></trkpt>
<trkpt lat="52.701081" lon="05.981040"><ele>0.9</ele><time>2022-09-06T16:09:34Z</time><name>PT12037</name></trkpt>
<trkpt lat="52.701070" lon="05.981042"><ele>-1</ele><time>2022-09-06T16:09:35Z</time><name>PT12038</name></trkpt>
<trkpt lat="52.701059" lon="05.981047"><ele>-1</ele><time>2022-09-06T16:09:36Z</time><name>PT12039</name></trkpt>
<trkpt lat="52.701047" lon="05.981051"><ele>-1</ele><time>2022-09-06T16:09:37Z</time><name>PT12040</name></trkpt>
<trkpt lat="52.701036" lon="05.981056"><ele>0.8</ele><time>2022-09-06T16:09:38Z</time><name>PT12041</name></trkpt>
<trkpt lat="52.701026" lon="05.981058"><ele>0.8</ele><time>2022-09-06T16:09:39Z</time><name>PT12042</name></trkpt>
<trkpt lat="52.701013" lon="05.981060"><ele>0.8</ele><time>2022-09-06T16:09:40Z</time><name>PT12043</name></trkpt>
<trkpt lat="52.701000" lon="05.981061"><ele>-1</ele><time>2022-09-06T16:09:41Z</time><name>PT12044</name></trkpt>
<trkpt lat="52.700989" lon="05.981063"><ele>-1</ele><time>2022-09-06T16:09:42Z</time><name>PT12045</name></trkpt>
<trkpt lat="52.700977" lon="05.981064"><ele>-1</ele><time>2022-09-06T16:09:43Z</time><name>PT12046</name></trkpt>
<trkpt lat="52.700966" lon="05.981065"><ele>0.9</ele><time>2022-09-06T16:09:44Z</time><name>PT12047</name></trkpt>
<trkpt lat="52.700954" lon="05.981067"><ele>0.8</ele><time>2022-09-06T16:09:45Z</time><name>PT12048</name></trkpt>
<trkpt lat="52.700943" lon="05.981063"><ele>0.8</ele><time>2022-09-06T16:09:46Z</time><name>PT12049</name></trkpt>
<trkpt lat="52.700932" lon="05.981063"><ele>0.9</ele><time>2022-09-06T16:09:47Z</time><name>PT12050</name></trkpt>
<trkpt lat="52.700922" lon="05.981064"><ele>0.9</ele><time>2022-09-06T16:09:48Z</time><name>PT12051</name></trkpt>
<trkpt lat="52.700911" lon="05.981068"><ele>-1</ele><time>2022-09-06T16:09:49Z</time><name>PT12052</name></trkpt>
<trkpt lat="52.700900" lon="05.981069"><ele>-1.2</ele><time>2022-09-06T16:09:50Z</time><name>PT12053</name></trkpt>
<trkpt lat="52.700889" lon="05.981071"><ele>-1.2</ele><time>2022-09-06T16:09:51Z</time><name>PT12054</name></trkpt>
<trkpt lat="52.700878" lon="05.981072"><ele>-1.1</ele><time>2022-09-06T16:09:52Z</time><name>PT12055</name></trkpt>
<trkpt lat="52.700868" lon="05.981072"><ele>-1.2</ele><time>2022-09-06T16:09:53Z</time><name>PT12056</name></trkpt>
<trkpt lat="52.700858" lon="05.981071"><ele>-1.1</ele><time>2022-09-06T16:09:54Z</time><name>PT12057</name></trkpt>
<trkpt lat="52.700847" lon="05.981073"><ele>-1</ele><time>2022-09-06T16:09:55Z</time><name>PT12058</name></trkpt>
<trkpt lat="52.700835" lon="05.981074"><ele>-1</ele><time>2022-09-06T16:09:56Z</time><name>PT12059</name></trkpt>
<trkpt lat="52.700824" lon="05.981072"><ele>-1</ele><time>2022-09-06T16:09:57Z</time><name>PT12060</name></trkpt>
<trkpt lat="52.700811" lon="05.981074"><ele>0.9</ele><time>2022-09-06T16:09:58Z</time><name>PT12061</name></trkpt>
<trkpt lat="52.700799" lon="05.981075"><ele>0.9</ele><time>2022-09-06T16:09:59Z</time><name>PT12062</name></trkpt>
<trkpt lat="52.700787" lon="05.981077"><ele>0.9</ele><time>2022-09-06T16:10:00Z</time><name>PT12063</name></trkpt>
<trkpt lat="52.700776" lon="05.981079"><ele>-1</ele><time>2022-09-06T16:10:01Z</time><name>PT12064</name></trkpt>
<trkpt lat="52.700765" lon="05.981081"><ele>-1</ele><time>2022-09-06T16:10:02Z</time><name>PT12065</name></trkpt>
<trkpt lat="52.700753" lon="05.981084"><ele>-1.1</ele><time>2022-09-06T16:10:03Z</time><name>PT12066</name></trkpt>
<trkpt lat="52.700742" lon="05.981084"><ele>-1</ele><time>2022-09-06T16:10:04Z</time><name>PT12067</name></trkpt>
<trkpt lat="52.700732" lon="05.981086"><ele>-1</ele><time>2022-09-06T16:10:05Z</time><name>PT12068</name></trkpt>
<trkpt lat="52.700722" lon="05.981088"><ele>-1</ele><time>2022-09-06T16:10:06Z</time><name>PT12069</name></trkpt>
<trkpt lat="52.700710" lon="05.981089"><ele>-1.2</ele><time>2022-09-06T16:10:07Z</time><name>PT12070</name></trkpt>
<trkpt lat="52.700699" lon="05.981089"><ele>-1.1</ele><time>2022-09-06T16:10:08Z</time><name>PT12071</name></trkpt>
<trkpt lat="52.700688" lon="05.981089"><ele>-1.3</ele><time>2022-09-06T16:10:09Z</time><name>PT12072</name></trkpt>
<trkpt lat="52.700675" lon="05.981089"><ele>-1.2</ele><time>2022-09-06T16:10:10Z</time><name>PT12073</name></trkpt>
<trkpt lat="52.700663" lon="05.981091"><ele>-1.1</ele><time>2022-09-06T16:10:11Z</time><name>PT12074</name></trkpt>
<trkpt lat="52.700652" lon="05.981093"><ele>-1.1</ele><time>2022-09-06T16:10:12Z</time><name>PT12075</name></trkpt>
<trkpt lat="52.700642" lon="05.981096"><ele>-1.2</ele><time>2022-09-06T16:10:13Z</time><name>PT12076</name></trkpt>
<trkpt lat="52.700632" lon="05.981101"><ele>-1.1</ele><time>2022-09-06T16:10:14Z</time><name>PT12077</name></trkpt>
<trkpt lat="52.700622" lon="05.981106"><ele>-1.2</ele><time>2022-09-06T16:10:15Z</time><name>PT12078</name></trkpt>
<trkpt lat="52.700610" lon="05.981111"><ele>-1.2</ele><time>2022-09-06T16:10:16Z</time><name>PT12079</name></trkpt>
<trkpt lat="52.700600" lon="05.981115"><ele>-1.1</ele><time>2022-09-06T16:10:17Z</time><name>PT12080</name></trkpt>
<trkpt lat="52.700589" lon="05.981117"><ele>-1</ele><time>2022-09-06T16:10:18Z</time><name>PT12081</name></trkpt>
<trkpt lat="52.700579" lon="05.981118"><ele>-1.1</ele><time>2022-09-06T16:10:19Z</time><name>PT12082</name></trkpt>
<trkpt lat="52.700568" lon="05.981119"><ele>-1</ele><time>2022-09-06T16:10:20Z</time><name>PT12083</name></trkpt>
<trkpt lat="52.700558" lon="05.981119"><ele>-1</ele><time>2022-09-06T16:10:21Z</time><name>PT12084</name></trkpt>
<trkpt lat="52.700547" lon="05.981118"><ele>-1</ele><time>2022-09-06T16:10:22Z</time><name>PT12085</name></trkpt>
<trkpt lat="52.700536" lon="05.981117"><ele>0.9</ele><time>2022-09-06T16:10:23Z</time><name>PT12086</name></trkpt>
<trkpt lat="52.700525" lon="05.981116"><ele>-1</ele><time>2022-09-06T16:10:24Z</time><name>PT12087</name></trkpt>
<trkpt lat="52.700514" lon="05.981116"><ele>-1.1</ele><time>2022-09-06T16:10:25Z</time><name>PT12088</name></trkpt>
<trkpt lat="52.700504" lon="05.981116"><ele>0.9</ele><time>2022-09-06T16:10:26Z</time><name>PT12089</name></trkpt>
<trkpt lat="52.700494" lon="05.981118"><ele>-1</ele><time>2022-09-06T16:10:27Z</time><name>PT12090</name></trkpt>
<trkpt lat="52.700484" lon="05.981119"><ele>-1.2</ele><time>2022-09-06T16:10:28Z</time><name>PT12091</name></trkpt>
<trkpt lat="52.700473" lon="05.981120"><ele>-1.2</ele><time>2022-09-06T16:10:29Z</time><name>PT12092</name></trkpt>
<trkpt lat="52.700463" lon="05.981122"><ele>-1.1</ele><time>2022-09-06T16:10:30Z</time><name>PT12093</name></trkpt>
<trkpt lat="52.700453" lon="05.981124"><ele>-1.3</ele><time>2022-09-06T16:10:31Z</time><name>PT12094</name></trkpt>
<trkpt lat="52.700444" lon="05.981123"><ele>-1.1</ele><time>2022-09-06T16:10:32Z</time><name>PT12095</name></trkpt>
<trkpt lat="52.700433" lon="05.981121"><ele>-1</ele><time>2022-09-06T16:10:33Z</time><name>PT12096</name></trkpt>
<trkpt lat="52.700423" lon="05.981118"><ele>-1</ele><time>2022-09-06T16:10:34Z</time><name>PT12097</name></trkpt>
<trkpt lat="52.700411" lon="05.981119"><ele>-1.1</ele><time>2022-09-06T16:10:35Z</time><name>PT12098</name></trkpt>
<trkpt lat="52.700400" lon="05.981122"><ele>-1.1</ele><time>2022-09-06T16:10:36Z</time><name>PT12099</name></trkpt>
<trkpt lat="52.700389" lon="05.981124"><ele>-1.1</ele><time>2022-09-06T16:10:37Z</time><name>PT12100</name></trkpt>
<trkpt lat="52.700378" lon="05.981127"><ele>-1.1</ele><time>2022-09-06T16:10:38Z</time><name>PT12101</name></trkpt>
<trkpt lat="52.700369" lon="05.981126"><ele>-1.1</ele><time>2022-09-06T16:10:39Z</time><name>PT12102</name></trkpt>
<trkpt lat="52.700358" lon="05.981131"><ele>-1.2</ele><time>2022-09-06T16:10:40Z</time><name>PT12103</name></trkpt>
<trkpt lat="52.700348" lon="05.981135"><ele>-1.5</ele><time>2022-09-06T16:10:41Z</time><name>PT12104</name></trkpt>
<trkpt lat="52.700337" lon="05.981137"><ele>-1.5</ele><time>2022-09-06T16:10:42Z</time><name>PT12105</name></trkpt>
<trkpt lat="52.700327" lon="05.981136"><ele>-1.4</ele><time>2022-09-06T16:10:43Z</time><name>PT12106</name></trkpt>
<trkpt lat="52.700316" lon="05.981133"><ele>-1.3</ele><time>2022-09-06T16:10:44Z</time><name>PT12107</name></trkpt>
<trkpt lat="52.700304" lon="05.981132"><ele>-1.2</ele><time>2022-09-06T16:10:45Z</time><name>PT12108</name></trkpt>
<trkpt lat="52.700294" lon="05.981136"><ele>-1</ele><time>2022-09-06T16:10:46Z</time><name>PT12109</name></trkpt>
<trkpt lat="52.700285" lon="05.981141"><ele>-1</ele><time>2022-09-06T16:10:47Z</time><name>PT12110</name></trkpt>
<trkpt lat="52.700275" lon="05.981143"><ele>-1.1</ele><time>2022-09-06T16:10:48Z</time><name>PT12111</name></trkpt>
<trkpt lat="52.700265" lon="05.981144"><ele>-1</ele><time>2022-09-06T16:10:49Z</time><name>PT12112</name></trkpt>
<trkpt lat="52.700255" lon="05.981145"><ele>-1.1</ele><time>2022-09-06T16:10:50Z</time><name>PT12113</name></trkpt>
<trkpt lat="52.700243" lon="05.981145"><ele>-1.2</ele><time>2022-09-06T16:10:51Z</time><name>PT12114</name></trkpt>
<trkpt lat="52.700231" lon="05.981145"><ele>-1.2</ele><time>2022-09-06T16:10:52Z</time><name>PT12115</name></trkpt>
<trkpt lat="52.700220" lon="05.981147"><ele>-1.2</ele><time>2022-09-06T16:10:53Z</time><name>PT12116</name></trkpt>
<trkpt lat="52.700210" lon="05.981148"><ele>-1.1</ele><time>2022-09-06T16:10:54Z</time><name>PT12117</name></trkpt>
<trkpt lat="52.700200" lon="05.981150"><ele>-1.3</ele><time>2022-09-06T16:10:55Z</time><name>PT12118</name></trkpt>
<trkpt lat="52.700190" lon="05.981154"><ele>-1</ele><time>2022-09-06T16:10:56Z</time><name>PT12119</name></trkpt>
<trkpt lat="52.700179" lon="05.981158"><ele>-1</ele><time>2022-09-06T16:10:57Z</time><name>PT12120</name></trkpt>
<trkpt lat="52.700169" lon="05.981158"><ele>-1.2</ele><time>2022-09-06T16:10:58Z</time><name>PT12121</name></trkpt>
<trkpt lat="52.700158" lon="05.981157"><ele>-1</ele><time>2022-09-06T16:10:59Z</time><name>PT12122</name></trkpt>
<trkpt lat="52.700147" lon="05.981157"><ele>-1</ele><time>2022-09-06T16:11:00Z</time><name>PT12123</name></trkpt>
<trkpt lat="52.700137" lon="05.981156"><ele>-1</ele><time>2022-09-06T16:11:01Z</time><name>PT12124</name></trkpt>
<trkpt lat="52.700128" lon="05.981159"><ele>-1</ele><time>2022-09-06T16:11:02Z</time><name>PT12125</name></trkpt>
<trkpt lat="52.700119" lon="05.981163"><ele>0.9</ele><time>2022-09-06T16:11:03Z</time><name>PT12126</name></trkpt>
<trkpt lat="52.700109" lon="05.981165"><ele>0.9</ele><time>2022-09-06T16:11:04Z</time><name>PT12127</name></trkpt>
<trkpt lat="52.700099" lon="05.981166"><ele>0.9</ele><time>2022-09-06T16:11:05Z</time><name>PT12128</name></trkpt>
<trkpt lat="52.700089" lon="05.981165"><ele>-1</ele><time>2022-09-06T16:11:06Z</time><name>PT12129</name></trkpt>
<trkpt lat="52.700077" lon="05.981165"><ele>-1</ele><time>2022-09-06T16:11:07Z</time><name>PT12130</name></trkpt>
<trkpt lat="52.700067" lon="05.981168"><ele>-1</ele><time>2022-09-06T16:11:08Z</time><name>PT12131</name></trkpt>
<trkpt lat="52.700058" lon="05.981172"><ele>-1</ele><time>2022-09-06T16:11:09Z</time><name>PT12132</name></trkpt>
<trkpt lat="52.700047" lon="05.981174"><ele>-1</ele><time>2022-09-06T16:11:10Z</time><name>PT12133</name></trkpt>
<trkpt lat="52.700038" lon="05.981176"><ele>-1</ele><time>2022-09-06T16:11:11Z</time><name>PT12134</name></trkpt>
<trkpt lat="52.700028" lon="05.981176"><ele>-1</ele><time>2022-09-06T16:11:12Z</time><name>PT12135</name></trkpt>
<trkpt lat="52.700018" lon="05.981175"><ele>-1.1</ele><time>2022-09-06T16:11:13Z</time><name>PT12136</name></trkpt>
<trkpt lat="52.700007" lon="05.981173"><ele>-1.3</ele><time>2022-09-06T16:11:14Z</time><name>PT12137</name></trkpt>
<trkpt lat="52.699997" lon="05.981171"><ele>-1.3</ele><time>2022-09-06T16:11:15Z</time><name>PT12138</name></trkpt>
<trkpt lat="52.699988" lon="05.981170"><ele>-1.3</ele><time>2022-09-06T16:11:16Z</time><name>PT12139</name></trkpt>
<trkpt lat="52.699977" lon="05.981173"><ele>-1.3</ele><time>2022-09-06T16:11:17Z</time><name>PT12140</name></trkpt>
<trkpt lat="52.699967" lon="05.981178"><ele>-1.3</ele><time>2022-09-06T16:11:18Z</time><name>PT12141</name></trkpt>
<trkpt lat="52.699956" lon="05.981177"><ele>-1.1</ele><time>2022-09-06T16:11:19Z</time><name>PT12142</name></trkpt>
<trkpt lat="52.699948" lon="05.981176"><ele>-1.1</ele><time>2022-09-06T16:11:20Z</time><name>PT12143</name></trkpt>
<trkpt lat="52.699936" lon="05.981175"><ele>-1.2</ele><time>2022-09-06T16:11:21Z</time><name>PT12144</name></trkpt>
<trkpt lat="52.699925" lon="05.981176"><ele>-1.3</ele><time>2022-09-06T16:11:22Z</time><name>PT12145</name></trkpt>
<trkpt lat="52.699915" lon="05.981179"><ele>-1.5</ele><time>2022-09-06T16:11:23Z</time><name>PT12146</name></trkpt>
<trkpt lat="52.699905" lon="05.981183"><ele>-1.5</ele><time>2022-09-06T16:11:24Z</time><name>PT12147</name></trkpt>
<trkpt lat="52.699894" lon="05.981185"><ele>-1.2</ele><time>2022-09-06T16:11:25Z</time><name>PT12148</name></trkpt>
<trkpt lat="52.699885" lon="05.981187"><ele>-1</ele><time>2022-09-06T16:11:26Z</time><name>PT12149</name></trkpt>
<trkpt lat="52.699875" lon="05.981187"><ele>0.9</ele><time>2022-09-06T16:11:27Z</time><name>PT12150</name></trkpt>
<trkpt lat="52.699864" lon="05.981192"><ele>0.7</ele><time>2022-09-06T16:11:28Z</time><name>PT12151</name></trkpt>
<trkpt lat="52.699853" lon="05.981196"><ele>0.7</ele><time>2022-09-06T16:11:29Z</time><name>PT12152</name></trkpt>
<trkpt lat="52.699843" lon="05.981197"><ele>0.9</ele><time>2022-09-06T16:11:30Z</time><name>PT12153</name></trkpt>
<trkpt lat="52.699832" lon="05.981200"><ele>-1</ele><time>2022-09-06T16:11:31Z</time><name>PT12154</name></trkpt>
<trkpt lat="52.699821" lon="05.981202"><ele>-1.1</ele><time>2022-09-06T16:11:32Z</time><name>PT12155</name></trkpt>
<trkpt lat="52.699812" lon="05.981203"><ele>-1.2</ele><time>2022-09-06T16:11:33Z</time><name>PT12156</name></trkpt>
<trkpt lat="52.699802" lon="05.981204"><ele>-1</ele><time>2022-09-06T16:11:34Z</time><name>PT12157</name></trkpt>
<trkpt lat="52.699792" lon="05.981203"><ele>0.9</ele><time>2022-09-06T16:11:35Z</time><name>PT12158</name></trkpt>
<trkpt lat="52.699781" lon="05.981205"><ele>0.9</ele><time>2022-09-06T16:11:36Z</time><name>PT12159</name></trkpt>
<trkpt lat="52.699771" lon="05.981207"><ele>0.9</ele><time>2022-09-06T16:11:37Z</time><name>PT12160</name></trkpt>
<trkpt lat="52.699761" lon="05.981209"><ele>0.8</ele><time>2022-09-06T16:11:38Z</time><name>PT12161</name></trkpt>
<trkpt lat="52.699751" lon="05.981212"><ele>-1</ele><time>2022-09-06T16:11:39Z</time><name>PT12162</name></trkpt>
<trkpt lat="52.699741" lon="05.981215"><ele>0.9</ele><time>2022-09-06T16:11:40Z</time><name>PT12163</name></trkpt>
<trkpt lat="52.699732" lon="05.981214"><ele>0.9</ele><time>2022-09-06T16:11:41Z</time><name>PT12164</name></trkpt>
<trkpt lat="52.699722" lon="05.981213"><ele>0.9</ele><time>2022-09-06T16:11:42Z</time><name>PT12165</name></trkpt>
<trkpt lat="52.699711" lon="05.981212"><ele>-1</ele><time>2022-09-06T16:11:43Z</time><name>PT12166</name></trkpt>
<trkpt lat="52.699702" lon="05.981215"><ele>-1</ele><time>2022-09-06T16:11:44Z</time><name>PT12167</name></trkpt>
<trkpt lat="52.699692" lon="05.981217"><ele>-1</ele><time>2022-09-06T16:11:45Z</time><name>PT12168</name></trkpt>
<trkpt lat="52.699681" lon="05.981218"><ele>0.9</ele><time>2022-09-06T16:11:46Z</time><name>PT12169</name></trkpt>
<trkpt lat="52.699671" lon="05.981219"><ele>0.9</ele><time>2022-09-06T16:11:47Z</time><name>PT12170</name></trkpt>
<trkpt lat="52.699662" lon="05.981219"><ele>-1</ele><time>2022-09-06T16:11:48Z</time><name>PT12171</name></trkpt>
<trkpt lat="52.699652" lon="05.981217"><ele>-1</ele><time>2022-09-06T16:11:49Z</time><name>PT12172</name></trkpt>
<trkpt lat="52.699641" lon="05.981217"><ele>-1</ele><time>2022-09-06T16:11:50Z</time><name>PT12173</name></trkpt>
<trkpt lat="52.699631" lon="05.981219"><ele>-1</ele><time>2022-09-06T16:11:51Z</time><name>PT12174</name></trkpt>
<trkpt lat="52.699622" lon="05.981220"><ele>0.9</ele><time>2022-09-06T16:11:52Z</time><name>PT12175</name></trkpt>
<trkpt lat="52.699612" lon="05.981223"><ele>0.9</ele><time>2022-09-06T16:11:53Z</time><name>PT12176</name></trkpt>
<trkpt lat="52.699602" lon="05.981224"><ele>0.8</ele><time>2022-09-06T16:11:54Z</time><name>PT12177</name></trkpt>
<trkpt lat="52.699593" lon="05.981225"><ele>0.8</ele><time>2022-09-06T16:11:55Z</time><name>PT12178</name></trkpt>
<trkpt lat="52.699584" lon="05.981225"><ele>0.9</ele><time>2022-09-06T16:11:56Z</time><name>PT12179</name></trkpt>
<trkpt lat="52.699575" lon="05.981225"><ele>-1.1</ele><time>2022-09-06T16:11:57Z</time><name>PT12180</name></trkpt>
<trkpt lat="52.699566" lon="05.981224"><ele>-1.2</ele><time>2022-09-06T16:11:58Z</time><name>PT12181</name></trkpt>
<trkpt lat="52.699555" lon="05.981224"><ele>-1.2</ele><time>2022-09-06T16:11:59Z</time><name>PT12182</name></trkpt>
<trkpt lat="52.699544" lon="05.981224"><ele>-1.2</ele><time>2022-09-06T16:12:00Z</time><name>PT12183</name></trkpt>
<trkpt lat="52.699534" lon="05.981225"><ele>-1.3</ele><time>2022-09-06T16:12:01Z</time><name>PT12184</name></trkpt>
<trkpt lat="52.699525" lon="05.981227"><ele>-1.2</ele><time>2022-09-06T16:12:02Z</time><name>PT12185</name></trkpt>
<trkpt lat="52.699517" lon="05.981229"><ele>-1.1</ele><time>2022-09-06T16:12:03Z</time><name>PT12186</name></trkpt>
<trkpt lat="52.699508" lon="05.981230"><ele>-1.1</ele><time>2022-09-06T16:12:04Z</time><name>PT12187</name></trkpt>
<trkpt lat="52.699497" lon="05.981230"><ele>-1</ele><time>2022-09-06T16:12:05Z</time><name>PT12188</name></trkpt>
<trkpt lat="52.699486" lon="05.981228"><ele>0.9</ele><time>2022-09-06T16:12:06Z</time><name>PT12189</name></trkpt>
<trkpt lat="52.699474" lon="05.981229"><ele>-1</ele><time>2022-09-06T16:12:07Z</time><name>PT12190</name></trkpt>
<trkpt lat="52.699464" lon="05.981230"><ele>-1</ele><time>2022-09-06T16:12:08Z</time><name>PT12191</name></trkpt>
<trkpt lat="52.699454" lon="05.981232"><ele>-1</ele><time>2022-09-06T16:12:09Z</time><name>PT12192</name></trkpt>
<trkpt lat="52.699444" lon="05.981235"><ele>0.9</ele><time>2022-09-06T16:12:10Z</time><name>PT12193</name></trkpt>
<trkpt lat="52.699433" lon="05.981238"><ele>0.8</ele><time>2022-09-06T16:12:11Z</time><name>PT12194</name></trkpt>
<trkpt lat="52.699423" lon="05.981240"><ele>0.6</ele><time>2022-09-06T16:12:12Z</time><name>PT12195</name></trkpt>
<trkpt lat="52.699413" lon="05.981241"><ele>0.7</ele><time>2022-09-06T16:12:13Z</time><name>PT12196</name></trkpt>
<trkpt lat="52.699403" lon="05.981241"><ele>0.8</ele><time>2022-09-06T16:12:14Z</time><name>PT12197</name></trkpt>
<trkpt lat="52.699394" lon="05.981240"><ele>0.9</ele><time>2022-09-06T16:12:15Z</time><name>PT12198</name></trkpt>
<trkpt lat="52.699382" lon="05.981239"><ele>0.9</ele><time>2022-09-06T16:12:16Z</time><name>PT12199</name></trkpt>
<trkpt lat="52.699373" lon="05.981238"><ele>-1.2</ele><time>2022-09-06T16:12:17Z</time><name>PT12200</name></trkpt>
<trkpt lat="52.699364" lon="05.981237"><ele>-1.1</ele><time>2022-09-06T16:12:18Z</time><name>PT12201</name></trkpt>
<trkpt lat="52.699354" lon="05.981237"><ele>-1</ele><time>2022-09-06T16:12:19Z</time><name>PT12202</name></trkpt>
<trkpt lat="52.699343" lon="05.981243"><ele>-1</ele><time>2022-09-06T16:12:20Z</time><name>PT12203</name></trkpt>
<trkpt lat="52.699332" lon="05.981246"><ele>0.9</ele><time>2022-09-06T16:12:21Z</time><name>PT12204</name></trkpt>
<trkpt lat="52.699323" lon="05.981246"><ele>0.8</ele><time>2022-09-06T16:12:22Z</time><name>PT12205</name></trkpt>
<trkpt lat="52.699314" lon="05.981246"><ele>0.8</ele><time>2022-09-06T16:12:23Z</time><name>PT12206</name></trkpt>
<trkpt lat="52.699303" lon="05.981247"><ele>0.8</ele><time>2022-09-06T16:12:24Z</time><name>PT12207</name></trkpt>
<trkpt lat="52.699294" lon="05.981250"><ele>0.9</ele><time>2022-09-06T16:12:25Z</time><name>PT12208</name></trkpt>
<trkpt lat="52.699285" lon="05.981251"><ele>-1</ele><time>2022-09-06T16:12:26Z</time><name>PT12209</name></trkpt>
<trkpt lat="52.699275" lon="05.981253"><ele>-1</ele><time>2022-09-06T16:12:27Z</time><name>PT12210</name></trkpt>
<trkpt lat="52.699265" lon="05.981255"><ele>-1</ele><time>2022-09-06T16:12:28Z</time><name>PT12211</name></trkpt>
<trkpt lat="52.699254" lon="05.981257"><ele>-1.2</ele><time>2022-09-06T16:12:29Z</time><name>PT12212</name></trkpt>
<trkpt lat="52.699244" lon="05.981257"><ele>-1.3</ele><time>2022-09-06T16:12:30Z</time><name>PT12213</name></trkpt>
<trkpt lat="52.699235" lon="05.981257"><ele>-1.4</ele><time>2022-09-06T16:12:31Z</time><name>PT12214</name></trkpt>
<trkpt lat="52.699224" lon="05.981255"><ele>-1.5</ele><time>2022-09-06T16:12:32Z</time><name>PT12215</name></trkpt>
<trkpt lat="52.699215" lon="05.981258"><ele>-1.6</ele><time>2022-09-06T16:12:33Z</time><name>PT12216</name></trkpt>
<trkpt lat="52.699206" lon="05.981262"><ele>-1.5</ele><time>2022-09-06T16:12:34Z</time><name>PT12217</name></trkpt>
<trkpt lat="52.699198" lon="05.981266"><ele>-1.3</ele><time>2022-09-06T16:12:35Z</time><name>PT12218</name></trkpt>
<trkpt lat="52.699188" lon="05.981273"><ele>-1.3</ele><time>2022-09-06T16:12:36Z</time><name>PT12219</name></trkpt>
<trkpt lat="52.699181" lon="05.981279"><ele>-1.2</ele><time>2022-09-06T16:12:37Z</time><name>PT12220</name></trkpt>
<trkpt lat="52.699173" lon="05.981284"><ele>-1.1</ele><time>2022-09-06T16:12:38Z</time><name>PT12221</name></trkpt>
<trkpt lat="52.699166" lon="05.981288"><ele>-1.1</ele><time>2022-09-06T16:12:39Z</time><name>PT12222</name></trkpt>
<trkpt lat="52.699158" lon="05.981291"><ele>-1</ele><time>2022-09-06T16:12:40Z</time><name>PT12223</name></trkpt>
<trkpt lat="52.699150" lon="05.981295"><ele>-1</ele><time>2022-09-06T16:12:41Z</time><name>PT12224</name></trkpt>
<trkpt lat="52.699143" lon="05.981298"><ele>-1</ele><time>2022-09-06T16:12:42Z</time><name>PT12225</name></trkpt>
<trkpt lat="52.699137" lon="05.981301"><ele>-1.1</ele><time>2022-09-06T16:12:43Z</time><name>PT12226</name></trkpt>
<trkpt lat="52.699131" lon="05.981303"><ele>-1.2</ele><time>2022-09-06T16:12:44Z</time><name>PT12227</name></trkpt>
<trkpt lat="52.699124" lon="05.981307"><ele>-1.2</ele><time>2022-09-06T16:12:45Z</time><name>PT12228</name></trkpt>
<trkpt lat="52.699116" lon="05.981306"><ele>-1.3</ele><time>2022-09-06T16:12:46Z</time><name>PT12229</name></trkpt>
<trkpt lat="52.699107" lon="05.981308"><ele>-1.2</ele><time>2022-09-06T16:12:47Z</time><name>PT12230</name></trkpt>
<trkpt lat="52.699101" lon="05.981312"><ele>-1.2</ele><time>2022-09-06T16:12:48Z</time><name>PT12231</name></trkpt>
<trkpt lat="52.699096" lon="05.981317"><ele>-1</ele><time>2022-09-06T16:12:49Z</time><name>PT12232</name></trkpt>
<trkpt lat="52.699098" lon="05.981320"><ele>-1.2</ele><time>2022-09-06T16:12:50Z</time><name>PT12233</name></trkpt>
<trkpt lat="52.699094" lon="05.981322"><ele>-1.2</ele><time>2022-09-06T16:12:51Z</time><name>PT12234</name></trkpt>
<trkpt lat="52.699091" lon="05.981329"><ele>-1.5</ele><time>2022-09-06T16:12:52Z</time><name>PT12235</name></trkpt>
<trkpt lat="52.699091" lon="05.981330"><ele>-1.7</ele><time>2022-09-06T16:12:53Z</time><name>PT12236</name></trkpt>
<trkpt lat="52.699090" lon="05.981330"><ele>-1.7</ele><time>2022-09-06T16:12:54Z</time><name>PT12237</name></trkpt>
<trkpt lat="52.699087" lon="05.981331"><ele>-1.5</ele><time>2022-09-06T16:12:58Z</time><name>PT12238</name></trkpt>
<trkpt lat="52.699079" lon="05.981331"><ele>-1.5</ele><time>2022-09-06T16:12:59Z</time><name>PT12239</name></trkpt>
<trkpt lat="52.699070" lon="05.981328"><ele>-1.4</ele><time>2022-09-06T16:13:00Z</time><name>PT12240</name></trkpt>
<trkpt lat="52.699059" lon="05.981330"><ele>-1.4</ele><time>2022-09-06T16:13:01Z</time><name>PT12241</name></trkpt>
<trkpt lat="52.699051" lon="05.981330"><ele>-1.3</ele><time>2022-09-06T16:13:02Z</time><name>PT12242</name></trkpt>
<trkpt lat="52.699041" lon="05.981333"><ele>-1.3</ele><time>2022-09-06T16:13:03Z</time><name>PT12243</name></trkpt>
<trkpt lat="52.699031" lon="05.981333"><ele>-1.1</ele><time>2022-09-06T16:13:04Z</time><name>PT12244</name></trkpt>
<trkpt lat="52.699020" lon="05.981329"><ele>0.9</ele><time>2022-09-06T16:13:05Z</time><name>PT12245</name></trkpt>
<trkpt lat="52.699010" lon="05.981330"><ele>0.8</ele><time>2022-09-06T16:13:06Z</time><name>PT12246</name></trkpt>
<trkpt lat="52.698999" lon="05.981334"><ele>0.9</ele><time>2022-09-06T16:13:07Z</time><name>PT12247</name></trkpt>
<trkpt lat="52.698989" lon="05.981338"><ele>0.8</ele><time>2022-09-06T16:13:08Z</time><name>PT12248</name></trkpt>
<trkpt lat="52.698980" lon="05.981339"><ele>0.8</ele><time>2022-09-06T16:13:09Z</time><name>PT12249</name></trkpt>
<trkpt lat="52.698971" lon="05.981337"><ele>-1</ele><time>2022-09-06T16:13:10Z</time><name>PT12250</name></trkpt>
<trkpt lat="52.698962" lon="05.981334"><ele>-1.1</ele><time>2022-09-06T16:13:11Z</time><name>PT12251</name></trkpt>
<trkpt lat="52.698953" lon="05.981334"><ele>-1.2</ele><time>2022-09-06T16:13:12Z</time><name>PT12252</name></trkpt>
<trkpt lat="52.698944" lon="05.981336"><ele>-1.3</ele><time>2022-09-06T16:13:13Z</time><name>PT12253</name></trkpt>
<trkpt lat="52.698935" lon="05.981337"><ele>-1.2</ele><time>2022-09-06T16:13:14Z</time><name>PT12254</name></trkpt>
<trkpt lat="52.698926" lon="05.981338"><ele>-1.2</ele><time>2022-09-06T16:13:15Z</time><name>PT12255</name></trkpt>
<trkpt lat="52.698916" lon="05.981338"><ele>-1.1</ele><time>2022-09-06T16:13:16Z</time><name>PT12256</name></trkpt>
<trkpt lat="52.698906" lon="05.981336"><ele>-1.1</ele><time>2022-09-06T16:13:17Z</time><name>PT12257</name></trkpt>
<trkpt lat="52.698896" lon="05.981337"><ele>-1.3</ele><time>2022-09-06T16:13:18Z</time><name>PT12258</name></trkpt>
<trkpt lat="52.698886" lon="05.981340"><ele>-1.4</ele><time>2022-09-06T16:13:19Z</time><name>PT12259</name></trkpt>
<trkpt lat="52.698876" lon="05.981345"><ele>-1.5</ele><time>2022-09-06T16:13:20Z</time><name>PT12260</name></trkpt>
<trkpt lat="52.698866" lon="05.981348"><ele>-1.4</ele><time>2022-09-06T16:13:21Z</time><name>PT12261</name></trkpt>
<trkpt lat="52.698855" lon="05.981353"><ele>-1.3</ele><time>2022-09-06T16:13:22Z</time><name>PT12262</name></trkpt>
<trkpt lat="52.698846" lon="05.981354"><ele>-1.3</ele><time>2022-09-06T16:13:23Z</time><name>PT12263</name></trkpt>
<trkpt lat="52.698836" lon="05.981353"><ele>-1.1</ele><time>2022-09-06T16:13:24Z</time><name>PT12264</name></trkpt>
<trkpt lat="52.698826" lon="05.981351"><ele>-1.2</ele><time>2022-09-06T16:13:25Z</time><name>PT12265</name></trkpt>
<trkpt lat="52.698816" lon="05.981350"><ele>-1.2</ele><time>2022-09-06T16:13:26Z</time><name>PT12266</name></trkpt>
<trkpt lat="52.698806" lon="05.981351"><ele>-1.2</ele><time>2022-09-06T16:13:27Z</time><name>PT12267</name></trkpt>
<trkpt lat="52.698796" lon="05.981353"><ele>-1.3</ele><time>2022-09-06T16:13:28Z</time><name>PT12268</name></trkpt>
<trkpt lat="52.698787" lon="05.981355"><ele>-1.2</ele><time>2022-09-06T16:13:29Z</time><name>PT12269</name></trkpt>
<trkpt lat="52.698777" lon="05.981356"><ele>-1</ele><time>2022-09-06T16:13:30Z</time><name>PT12270</name></trkpt>
<trkpt lat="52.698769" lon="05.981358"><ele>-1</ele><time>2022-09-06T16:13:31Z</time><name>PT12271</name></trkpt>
<trkpt lat="52.698760" lon="05.981360"><ele>0.9</ele><time>2022-09-06T16:13:32Z</time><name>PT12272</name></trkpt>
<trkpt lat="52.698750" lon="05.981361"><ele>0.8</ele><time>2022-09-06T16:13:33Z</time><name>PT12273</name></trkpt>
<trkpt lat="52.698739" lon="05.981363"><ele>0.7</ele><time>2022-09-06T16:13:34Z</time><name>PT12274</name></trkpt>
<trkpt lat="52.698730" lon="05.981366"><ele>0.7</ele><time>2022-09-06T16:13:35Z</time><name>PT12275</name></trkpt>
<trkpt lat="52.698720" lon="05.981370"><ele>0.7</ele><time>2022-09-06T16:13:36Z</time><name>PT12276</name></trkpt>
<trkpt lat="52.698709" lon="05.981370"><ele>0.8</ele><time>2022-09-06T16:13:37Z</time><name>PT12277</name></trkpt>
<trkpt lat="52.698700" lon="05.981370"><ele>-1</ele><time>2022-09-06T16:13:38Z</time><name>PT12278</name></trkpt>
<trkpt lat="52.698691" lon="05.981371"><ele>-1.1</ele><time>2022-09-06T16:13:39Z</time><name>PT12279</name></trkpt>
<trkpt lat="52.698682" lon="05.981373"><ele>-1</ele><time>2022-09-06T16:13:40Z</time><name>PT12280</name></trkpt>
<trkpt lat="52.698672" lon="05.981375"><ele>-1</ele><time>2022-09-06T16:13:41Z</time><name>PT12281</name></trkpt>
<trkpt lat="52.698661" lon="05.981374"><ele>0.9</ele><time>2022-09-06T16:13:42Z</time><name>PT12282</name></trkpt>
<trkpt lat="52.698652" lon="05.981373"><ele>-1</ele><time>2022-09-06T16:13:43Z</time><name>PT12283</name></trkpt>
<trkpt lat="52.698643" lon="05.981375"><ele>-1.1</ele><time>2022-09-06T16:13:44Z</time><name>PT12284</name></trkpt>
<trkpt lat="52.698632" lon="05.981380"><ele>-1.1</ele><time>2022-09-06T16:13:45Z</time><name>PT12285</name></trkpt>
<trkpt lat="52.698621" lon="05.981386"><ele>-1.2</ele><time>2022-09-06T16:13:46Z</time><name>PT12286</name></trkpt>
<trkpt lat="52.698611" lon="05.981389"><ele>-1.1</ele><time>2022-09-06T16:13:47Z</time><name>PT12287</name></trkpt>
<trkpt lat="52.698602" lon="05.981389"><ele>-1.1</ele><time>2022-09-06T16:13:48Z</time><name>PT12288</name></trkpt>
<trkpt lat="52.698592" lon="05.981386"><ele>-1</ele><time>2022-09-06T16:13:49Z</time><name>PT12289</name></trkpt>
<trkpt lat="52.698581" lon="05.981386"><ele>-1</ele><time>2022-09-06T16:13:50Z</time><name>PT12290</name></trkpt>
<trkpt lat="52.698569" lon="05.981389"><ele>-1</ele><time>2022-09-06T16:13:51Z</time><name>PT12291</name></trkpt>
<trkpt lat="52.698559" lon="05.981392"><ele>-1</ele><time>2022-09-06T16:13:52Z</time><name>PT12292</name></trkpt>
<trkpt lat="52.698549" lon="05.981394"><ele>-1</ele><time>2022-09-06T16:13:53Z</time><name>PT12293</name></trkpt>
<trkpt lat="52.698539" lon="05.981398"><ele>-1</ele><time>2022-09-06T16:13:54Z</time><name>PT12294</name></trkpt>
<trkpt lat="52.698530" lon="05.981404"><ele>-1</ele><time>2022-09-06T16:13:55Z</time><name>PT12295</name></trkpt>
<trkpt lat="52.698521" lon="05.981406"><ele>-1</ele><time>2022-09-06T16:13:56Z</time><name>PT12296</name></trkpt>
<trkpt lat="52.698511" lon="05.981406"><ele>-1</ele><time>2022-09-06T16:13:57Z</time><name>PT12297</name></trkpt>
<trkpt lat="52.698499" lon="05.981408"><ele>0.9</ele><time>2022-09-06T16:13:58Z</time><name>PT12298</name></trkpt>
<trkpt lat="52.698487" lon="05.981410"><ele>0.9</ele><time>2022-09-06T16:13:59Z</time><name>PT12299</name></trkpt>
<trkpt lat="52.698477" lon="05.981412"><ele>-1</ele><time>2022-09-06T16:14:00Z</time><name>PT12300</name></trkpt>
<trkpt lat="52.698467" lon="05.981414"><ele>-1</ele><time>2022-09-06T16:14:01Z</time><name>PT12301</name></trkpt>
<trkpt lat="52.698456" lon="05.981419"><ele>-1.1</ele><time>2022-09-06T16:14:02Z</time><name>PT12302</name></trkpt>
<trkpt lat="52.698447" lon="05.981422"><ele>-1.1</ele><time>2022-09-06T16:14:03Z</time><name>PT12303</name></trkpt>
<trkpt lat="52.698437" lon="05.981424"><ele>-1</ele><time>2022-09-06T16:14:04Z</time><name>PT12304</name></trkpt>
<trkpt lat="52.698427" lon="05.981424"><ele>-1</ele><time>2022-09-06T16:14:05Z</time><name>PT12305</name></trkpt>
<trkpt lat="52.698417" lon="05.981425"><ele>-1</ele><time>2022-09-06T16:14:06Z</time><name>PT12306</name></trkpt>
<trkpt lat="52.698407" lon="05.981426"><ele>-1</ele><time>2022-09-06T16:14:07Z</time><name>PT12307</name></trkpt>
<trkpt lat="52.698398" lon="05.981428"><ele>-1</ele><time>2022-09-06T16:14:08Z</time><name>PT12308</name></trkpt>
<trkpt lat="52.698388" lon="05.981428"><ele>-1</ele><time>2022-09-06T16:14:09Z</time><name>PT12309</name></trkpt>
<trkpt lat="52.698379" lon="05.981430"><ele>-1</ele><time>2022-09-06T16:14:10Z</time><name>PT12310</name></trkpt>
<trkpt lat="52.698370" lon="05.981429"><ele>0.8</ele><time>2022-09-06T16:14:11Z</time><name>PT12311</name></trkpt>
<trkpt lat="52.698361" lon="05.981429"><ele>0.8</ele><time>2022-09-06T16:14:12Z</time><name>PT12312</name></trkpt>
<trkpt lat="52.698350" lon="05.981428"><ele>0.9</ele><time>2022-09-06T16:14:13Z</time><name>PT12313</name></trkpt>
<trkpt lat="52.698339" lon="05.981430"><ele>0.9</ele><time>2022-09-06T16:14:14Z</time><name>PT12314</name></trkpt>
<trkpt lat="52.698329" lon="05.981430"><ele>-1</ele><time>2022-09-06T16:14:15Z</time><name>PT12315</name></trkpt>
<trkpt lat="52.698317" lon="05.981435"><ele>-1.3</ele><time>2022-09-06T16:14:16Z</time><name>PT12316</name></trkpt>
<trkpt lat="52.698305" lon="05.981439"><ele>-1.1</ele><time>2022-09-06T16:14:17Z</time><name>PT12317</name></trkpt>
<trkpt lat="52.698296" lon="05.981441"><ele>-1.3</ele><time>2022-09-06T16:14:18Z</time><name>PT12318</name></trkpt>
<trkpt lat="52.698286" lon="05.981443"><ele>-1</ele><time>2022-09-06T16:14:19Z</time><name>PT12319</name></trkpt>
<trkpt lat="52.698277" lon="05.981441"><ele>-1</ele><time>2022-09-06T16:14:20Z</time><name>PT12320</name></trkpt>
<trkpt lat="52.698268" lon="05.981441"><ele>-1</ele><time>2022-09-06T16:14:21Z</time><name>PT12321</name></trkpt>
<trkpt lat="52.698259" lon="05.981444"><ele>0.9</ele><time>2022-09-06T16:14:22Z</time><name>PT12322</name></trkpt>
<trkpt lat="52.698248" lon="05.981449"><ele>0.8</ele><time>2022-09-06T16:14:23Z</time><name>PT12323</name></trkpt>
<trkpt lat="52.698237" lon="05.981453"><ele>0.9</ele><time>2022-09-06T16:14:24Z</time><name>PT12324</name></trkpt>
<trkpt lat="52.698228" lon="05.981454"><ele>0.9</ele><time>2022-09-06T16:14:25Z</time><name>PT12325</name></trkpt>
<trkpt lat="52.698218" lon="05.981454"><ele>0.9</ele><time>2022-09-06T16:14:26Z</time><name>PT12326</name></trkpt>
<trkpt lat="52.698204" lon="05.981458"><ele>-1</ele><time>2022-09-06T16:14:27Z</time><name>PT12327</name></trkpt>
<trkpt lat="52.698192" lon="05.981457"><ele>-1</ele><time>2022-09-06T16:14:28Z</time><name>PT12328</name></trkpt>
<trkpt lat="52.698183" lon="05.981456"><ele>-1.1</ele><time>2022-09-06T16:14:29Z</time><name>PT12329</name></trkpt>
<trkpt lat="52.698173" lon="05.981460"><ele>-1</ele><time>2022-09-06T16:14:30Z</time><name>PT12330</name></trkpt>
<trkpt lat="52.698164" lon="05.981463"><ele>0.9</ele><time>2022-09-06T16:14:31Z</time><name>PT12331</name></trkpt>
<trkpt lat="52.698154" lon="05.981466"><ele>0.9</ele><time>2022-09-06T16:14:32Z</time><name>PT12332</name></trkpt>
<trkpt lat="52.698143" lon="05.981467"><ele>0.9</ele><time>2022-09-06T16:14:33Z</time><name>PT12333</name></trkpt>
<trkpt lat="52.698134" lon="05.981465"><ele>0.8</ele><time>2022-09-06T16:14:34Z</time><name>PT12334</name></trkpt>
<trkpt lat="52.698124" lon="05.981464"><ele>-1</ele><time>2022-09-06T16:14:35Z</time><name>PT12335</name></trkpt>
<trkpt lat="52.698115" lon="05.981463"><ele>-1</ele><time>2022-09-06T16:14:36Z</time><name>PT12336</name></trkpt>
<trkpt lat="52.698104" lon="05.981463"><ele>-1</ele><time>2022-09-06T16:14:37Z</time><name>PT12337</name></trkpt>
<trkpt lat="52.698093" lon="05.981467"><ele>-1</ele><time>2022-09-06T16:14:38Z</time><name>PT12338</name></trkpt>
<trkpt lat="52.698083" lon="05.981472"><ele>-1</ele><time>2022-09-06T16:14:39Z</time><name>PT12339</name></trkpt>
<trkpt lat="52.698073" lon="05.981475"><ele>-1.1</ele><time>2022-09-06T16:14:40Z</time><name>PT12340</name></trkpt>
<trkpt lat="52.698064" lon="05.981474"><ele>-1.1</ele><time>2022-09-06T16:14:41Z</time><name>PT12341</name></trkpt>
<trkpt lat="52.698053" lon="05.981473"><ele>-1.1</ele><time>2022-09-06T16:14:42Z</time><name>PT12342</name></trkpt>
<trkpt lat="52.698043" lon="05.981472"><ele>-1</ele><time>2022-09-06T16:14:43Z</time><name>PT12343</name></trkpt>
<trkpt lat="52.698030" lon="05.981472"><ele>-1</ele><time>2022-09-06T16:14:44Z</time><name>PT12344</name></trkpt>
<trkpt lat="52.698019" lon="05.981473"><ele>-1</ele><time>2022-09-06T16:14:45Z</time><name>PT12345</name></trkpt>
<trkpt lat="52.698008" lon="05.981475"><ele>0.9</ele><time>2022-09-06T16:14:46Z</time><name>PT12346</name></trkpt>
<trkpt lat="52.697998" lon="05.981477"><ele>0.9</ele><time>2022-09-06T16:14:47Z</time><name>PT12347</name></trkpt>
<trkpt lat="52.697987" lon="05.981479"><ele>0.9</ele><time>2022-09-06T16:14:48Z</time><name>PT12348</name></trkpt>
<trkpt lat="52.697978" lon="05.981481"><ele>0.9</ele><time>2022-09-06T16:14:49Z</time><name>PT12349</name></trkpt>
<trkpt lat="52.697968" lon="05.981483"><ele>-1</ele><time>2022-09-06T16:14:50Z</time><name>PT12350</name></trkpt>
<trkpt lat="52.697957" lon="05.981483"><ele>-1</ele><time>2022-09-06T16:14:51Z</time><name>PT12351</name></trkpt>
<trkpt lat="52.697946" lon="05.981483"><ele>-1</ele><time>2022-09-06T16:14:52Z</time><name>PT12352</name></trkpt>
<trkpt lat="52.697935" lon="05.981481"><ele>-1</ele><time>2022-09-06T16:14:53Z</time><name>PT12353</name></trkpt>
<trkpt lat="52.697923" lon="05.981479"><ele>-1</ele><time>2022-09-06T16:14:54Z</time><name>PT12354</name></trkpt>
<trkpt lat="52.697912" lon="05.981478"><ele>0.7</ele><time>2022-09-06T16:14:55Z</time><name>PT12355</name></trkpt>
<trkpt lat="52.697901" lon="05.981480"><ele>-1</ele><time>2022-09-06T16:14:56Z</time><name>PT12356</name></trkpt>
<trkpt lat="52.697889" lon="05.981486"><ele>-1</ele><time>2022-09-06T16:14:57Z</time><name>PT12357</name></trkpt>
<trkpt lat="52.697877" lon="05.981490"><ele>-1</ele><time>2022-09-06T16:14:58Z</time><name>PT12358</name></trkpt>
<trkpt lat="52.697866" lon="05.981494"><ele>-1</ele><time>2022-09-06T16:14:59Z</time><name>PT12359</name></trkpt>
<trkpt lat="52.697854" lon="05.981501"><ele>-1</ele><time>2022-09-06T16:15:00Z</time><name>PT12360</name></trkpt>
<trkpt lat="52.697844" lon="05.981504"><ele>0.9</ele><time>2022-09-06T16:15:01Z</time><name>PT12361</name></trkpt>
<trkpt lat="52.697833" lon="05.981505"><ele>0.7</ele><time>2022-09-06T16:15:02Z</time><name>PT12362</name></trkpt>
<trkpt lat="52.697822" lon="05.981505"><ele>0.6</ele><time>2022-09-06T16:15:03Z</time><name>PT12363</name></trkpt>
<trkpt lat="52.697810" lon="05.981505"><ele>0.9</ele><time>2022-09-06T16:15:04Z</time><name>PT12364</name></trkpt>
<trkpt lat="52.697799" lon="05.981505"><ele>-1.1</ele><time>2022-09-06T16:15:05Z</time><name>PT12365</name></trkpt>
<trkpt lat="52.697789" lon="05.981507"><ele>-1</ele><time>2022-09-06T16:15:06Z</time><name>PT12366</name></trkpt>
<trkpt lat="52.697778" lon="05.981508"><ele>-1</ele><time>2022-09-06T16:15:07Z</time><name>PT12367</name></trkpt>
<trkpt lat="52.697767" lon="05.981510"><ele>-1</ele><time>2022-09-06T16:15:08Z</time><name>PT12368</name></trkpt>
<trkpt lat="52.697756" lon="05.981513"><ele>-1</ele><time>2022-09-06T16:15:09Z</time><name>PT12369</name></trkpt>
<trkpt lat="52.697746" lon="05.981517"><ele>0.8</ele><time>2022-09-06T16:15:10Z</time><name>PT12370</name></trkpt>
<trkpt lat="52.697736" lon="05.981522"><ele>0.8</ele><time>2022-09-06T16:15:11Z</time><name>PT12371</name></trkpt>
<trkpt lat="52.697725" lon="05.981523"><ele>-1</ele><time>2022-09-06T16:15:12Z</time><name>PT12372</name></trkpt>
<trkpt lat="52.697714" lon="05.981524"><ele>-1</ele><time>2022-09-06T16:15:13Z</time><name>PT12373</name></trkpt>
<trkpt lat="52.697703" lon="05.981524"><ele>0.9</ele><time>2022-09-06T16:15:14Z</time><name>PT12374</name></trkpt>
<trkpt lat="52.697692" lon="05.981528"><ele>-1</ele><time>2022-09-06T16:15:15Z</time><name>PT12375</name></trkpt>
<trkpt lat="52.697682" lon="05.981532"><ele>-1</ele><time>2022-09-06T16:15:16Z</time><name>PT12376</name></trkpt>
<trkpt lat="52.697670" lon="05.981536"><ele>0.8</ele><time>2022-09-06T16:15:17Z</time><name>PT12377</name></trkpt>
<trkpt lat="52.697659" lon="05.981539"><ele>0.8</ele><time>2022-09-06T16:15:18Z</time><name>PT12378</name></trkpt>
<trkpt lat="52.697649" lon="05.981542"><ele>0.8</ele><time>2022-09-06T16:15:19Z</time><name>PT12379</name></trkpt>
<trkpt lat="52.697639" lon="05.981542"><ele>0.9</ele><time>2022-09-06T16:15:20Z</time><name>PT12380</name></trkpt>
<trkpt lat="52.697628" lon="05.981542"><ele>0.7</ele><time>2022-09-06T16:15:21Z</time><name>PT12381</name></trkpt>
<trkpt lat="52.697615" lon="05.981543"><ele>0.7</ele><time>2022-09-06T16:15:22Z</time><name>PT12382</name></trkpt>
<trkpt lat="52.697605" lon="05.981545"><ele>0.9</ele><time>2022-09-06T16:15:23Z</time><name>PT12383</name></trkpt>
<trkpt lat="52.697594" lon="05.981548"><ele>0.9</ele><time>2022-09-06T16:15:24Z</time><name>PT12384</name></trkpt>
<trkpt lat="52.697581" lon="05.981550"><ele>0.9</ele><time>2022-09-06T16:15:25Z</time><name>PT12385</name></trkpt>
<trkpt lat="52.697569" lon="05.981553"><ele>0.8</ele><time>2022-09-06T16:15:26Z</time><name>PT12386</name></trkpt>
<trkpt lat="52.697558" lon="05.981552"><ele>0.7</ele><time>2022-09-06T16:15:27Z</time><name>PT12387</name></trkpt>
<trkpt lat="52.697547" lon="05.981548"><ele>0.7</ele><time>2022-09-06T16:15:28Z</time><name>PT12388</name></trkpt>
<trkpt lat="52.697535" lon="05.981550"><ele>-1</ele><time>2022-09-06T16:15:29Z</time><name>PT12389</name></trkpt>
<trkpt lat="52.697528" lon="05.981545"><ele>-1.1</ele><time>2022-09-06T16:15:30Z</time><name>PT12390</name></trkpt>
<trkpt lat="52.697517" lon="05.981546"><ele>-1.3</ele><time>2022-09-06T16:15:31Z</time><name>PT12391</name></trkpt>
<trkpt lat="52.697506" lon="05.981545"><ele>-1.4</ele><time>2022-09-06T16:15:32Z</time><name>PT12392</name></trkpt>
<trkpt lat="52.697496" lon="05.981542"><ele>-1.4</ele><time>2022-09-06T16:15:33Z</time><name>PT12393</name></trkpt>
<trkpt lat="52.697486" lon="05.981543"><ele>-1.2</ele><time>2022-09-06T16:15:34Z</time><name>PT12394</name></trkpt>
<trkpt lat="52.697475" lon="05.981546"><ele>-1.2</ele><time>2022-09-06T16:15:35Z</time><name>PT12395</name></trkpt>
<trkpt lat="52.697465" lon="05.981550"><ele>-1.2</ele><time>2022-09-06T16:15:36Z</time><name>PT12396</name></trkpt>
<trkpt lat="52.697455" lon="05.981552"><ele>-1.1</ele><time>2022-09-06T16:15:37Z</time><name>PT12397</name></trkpt>
<trkpt lat="52.697445" lon="05.981554"><ele>-1.2</ele><time>2022-09-06T16:15:38Z</time><name>PT12398</name></trkpt>
<trkpt lat="52.697435" lon="05.981554"><ele>-1.1</ele><time>2022-09-06T16:15:39Z</time><name>PT12399</name></trkpt>
<trkpt lat="52.697428" lon="05.981556"><ele>-1</ele><time>2022-09-06T16:15:40Z</time><name>PT12400</name></trkpt>
<trkpt lat="52.697425" lon="05.981558"><ele>-1.1</ele><time>2022-09-06T16:15:41Z</time><name>PT12401</name></trkpt>
<trkpt lat="52.697424" lon="05.981559"><ele>-1</ele><time>2022-09-06T16:15:42Z</time><name>PT12402</name></trkpt>
<trkpt lat="52.697421" lon="05.981560"><ele>-1</ele><time>2022-09-06T16:15:43Z</time><name>PT12403</name></trkpt>
<trkpt lat="52.697418" lon="05.981560"><ele>-1</ele><time>2022-09-06T16:15:44Z</time><name>PT12404</name></trkpt>
<trkpt lat="52.697411" lon="05.981563"><ele>0.9</ele><time>2022-09-06T16:15:45Z</time><name>PT12405</name></trkpt>
<trkpt lat="52.697402" lon="05.981563"><ele>0.8</ele><time>2022-09-06T16:15:46Z</time><name>PT12406</name></trkpt>
<trkpt lat="52.697392" lon="05.981562"><ele>0.5</ele><time>2022-09-06T16:15:47Z</time><name>PT12407</name></trkpt>
<trkpt lat="52.697381" lon="05.981562"><ele>0.5</ele><time>2022-09-06T16:15:48Z</time><name>PT12408</name></trkpt>
<trkpt lat="52.697370" lon="05.981562"><ele>0.7</ele><time>2022-09-06T16:15:49Z</time><name>PT12409</name></trkpt>
<trkpt lat="52.697360" lon="05.981563"><ele>0.6</ele><time>2022-09-06T16:15:50Z</time><name>PT12410</name></trkpt>
<trkpt lat="52.697350" lon="05.981563"><ele>0.8</ele><time>2022-09-06T16:15:51Z</time><name>PT12411</name></trkpt>
<trkpt lat="52.697340" lon="05.981564"><ele>-1</ele><time>2022-09-06T16:15:52Z</time><name>PT12412</name></trkpt>
<trkpt lat="52.697331" lon="05.981566"><ele>0.9</ele><time>2022-09-06T16:15:53Z</time><name>PT12413</name></trkpt>
<trkpt lat="52.697321" lon="05.981568"><ele>0.9</ele><time>2022-09-06T16:15:54Z</time><name>PT12414</name></trkpt>
<trkpt lat="52.697311" lon="05.981570"><ele>-1</ele><time>2022-09-06T16:15:55Z</time><name>PT12415</name></trkpt>
<trkpt lat="52.697302" lon="05.981572"><ele>0.8</ele><time>2022-09-06T16:15:56Z</time><name>PT12416</name></trkpt>
<trkpt lat="52.697293" lon="05.981572"><ele>0.9</ele><time>2022-09-06T16:15:57Z</time><name>PT12417</name></trkpt>
<trkpt lat="52.697282" lon="05.981573"><ele>-1</ele><time>2022-09-06T16:15:58Z</time><name>PT12418</name></trkpt>
<trkpt lat="52.697271" lon="05.981573"><ele>-1</ele><time>2022-09-06T16:15:59Z</time><name>PT12419</name></trkpt>
<trkpt lat="52.697261" lon="05.981573"><ele>-1.1</ele><time>2022-09-06T16:16:00Z</time><name>PT12420</name></trkpt>
<trkpt lat="52.697251" lon="05.981573"><ele>-1</ele><time>2022-09-06T16:16:01Z</time><name>PT12421</name></trkpt>
<trkpt lat="52.697239" lon="05.981574"><ele>-1</ele><time>2022-09-06T16:16:02Z</time><name>PT12422</name></trkpt>
<trkpt lat="52.697228" lon="05.981577"><ele>-1</ele><time>2022-09-06T16:16:03Z</time><name>PT12423</name></trkpt>
<trkpt lat="52.697219" lon="05.981578"><ele>-1.2</ele><time>2022-09-06T16:16:04Z</time><name>PT12424</name></trkpt>
<trkpt lat="52.697211" lon="05.981578"><ele>-1.3</ele><time>2022-09-06T16:16:05Z</time><name>PT12425</name></trkpt>
<trkpt lat="52.697202" lon="05.981578"><ele>-1.4</ele><time>2022-09-06T16:16:06Z</time><name>PT12426</name></trkpt>
<trkpt lat="52.697194" lon="05.981578"><ele>-1.5</ele><time>2022-09-06T16:16:07Z</time><name>PT12427</name></trkpt>
<trkpt lat="52.697191" lon="05.981578"><ele>-1.3</ele><time>2022-09-06T16:16:08Z</time><name>PT12428</name></trkpt>
<trkpt lat="52.697191" lon="05.981578"><ele>-1.2</ele><time>2022-09-06T16:16:10Z</time><name>PT12429</name></trkpt>
<trkpt lat="52.697187" lon="05.981580"><ele>0.7</ele><time>2022-09-06T16:16:22Z</time><name>PT12430</name></trkpt>
<trkpt lat="52.697176" lon="05.981582"><ele>0.5</ele><time>2022-09-06T16:16:23Z</time><name>PT12431</name></trkpt>
<trkpt lat="52.697165" lon="05.981585"><ele>0.6</ele><time>2022-09-06T16:16:24Z</time><name>PT12432</name></trkpt>
<trkpt lat="52.697151" lon="05.981588"><ele>0.7</ele><time>2022-09-06T16:16:25Z</time><name>PT12433</name></trkpt>
<trkpt lat="52.697135" lon="05.981591"><ele>0.7</ele><time>2022-09-06T16:16:26Z</time><name>PT12434</name></trkpt>
<trkpt lat="52.697120" lon="05.981595"><ele>0.7</ele><time>2022-09-06T16:16:27Z</time><name>PT12435</name></trkpt>
<trkpt lat="52.697109" lon="05.981597"><ele>0.9</ele><time>2022-09-06T16:16:28Z</time><name>PT12436</name></trkpt>
<trkpt lat="52.697099" lon="05.981599"><ele>0.9</ele><time>2022-09-06T16:16:29Z</time><name>PT12437</name></trkpt>
<trkpt lat="52.697092" lon="05.981601"><ele>-1</ele><time>2022-09-06T16:16:30Z</time><name>PT12438</name></trkpt>
<trkpt lat="52.697084" lon="05.981602"><ele>-1</ele><time>2022-09-06T16:16:31Z</time><name>PT12439</name></trkpt>
<trkpt lat="52.697076" lon="05.981603"><ele>-1</ele><time>2022-09-06T16:16:32Z</time><name>PT12440</name></trkpt>
<trkpt lat="52.697067" lon="05.981609"><ele>-1.1</ele><time>2022-09-06T16:16:33Z</time><name>PT12441</name></trkpt>
<trkpt lat="52.697055" lon="05.981611"><ele>-1.1</ele><time>2022-09-06T16:16:34Z</time><name>PT12442</name></trkpt>
<trkpt lat="52.697041" lon="05.981614"><ele>-1</ele><time>2022-09-06T16:16:35Z</time><name>PT12443</name></trkpt>
<trkpt lat="52.697023" lon="05.981617"><ele>0.9</ele><time>2022-09-06T16:16:36Z</time><name>PT12444</name></trkpt>
<trkpt lat="52.697007" lon="05.981617"><ele>0.9</ele><time>2022-09-06T16:16:37Z</time><name>PT12445</name></trkpt>
<trkpt lat="52.696995" lon="05.981619"><ele>0.8</ele><time>2022-09-06T16:16:38Z</time><name>PT12446</name></trkpt>
<trkpt lat="52.696986" lon="05.981620"><ele>0.5</ele><time>2022-09-06T16:16:39Z</time><name>PT12447</name></trkpt>
<trkpt lat="52.696982" lon="05.981621"><ele>0.4</ele><time>2022-09-06T16:16:40Z</time><name>PT12448</name></trkpt>
<trkpt lat="52.696979" lon="05.981621"><ele>0.3</ele><time>2022-09-06T16:16:41Z</time><name>PT12449</name></trkpt>
<trkpt lat="52.696972" lon="05.981623"><ele>0.3</ele><time>2022-09-06T16:16:42Z</time><name>PT12450</name></trkpt>
<trkpt lat="52.696960" lon="05.981626"><ele>0.2</ele><time>2022-09-06T16:16:43Z</time><name>PT12451</name></trkpt>
<trkpt lat="52.696945" lon="05.981631"><ele>0.4</ele><time>2022-09-06T16:16:44Z</time><name>PT12452</name></trkpt>
<trkpt lat="52.696928" lon="05.981634"><ele>0.5</ele><time>2022-09-06T16:16:45Z</time><name>PT12453</name></trkpt>
<trkpt lat="52.696914" lon="05.981636"><ele>0.4</ele><time>2022-09-06T16:16:46Z</time><name>PT12454</name></trkpt>
<trkpt lat="52.696901" lon="05.981637"><ele>0.5</ele><time>2022-09-06T16:16:47Z</time><name>PT12455</name></trkpt>
<trkpt lat="52.696895" lon="05.981640"><ele>0.5</ele><time>2022-09-06T16:16:48Z</time><name>PT12456</name></trkpt>
<trkpt lat="52.696890" lon="05.981641"><ele>0.5</ele><time>2022-09-06T16:16:49Z</time><name>PT12457</name></trkpt>
<trkpt lat="52.696883" lon="05.981642"><ele>0.5</ele><time>2022-09-06T16:16:50Z</time><name>PT12458</name></trkpt>
<trkpt lat="52.696875" lon="05.981645"><ele>0.6</ele><time>2022-09-06T16:16:51Z</time><name>PT12459</name></trkpt>
<trkpt lat="52.696864" lon="05.981647"><ele>0.8</ele><time>2022-09-06T16:16:52Z</time><name>PT12460</name></trkpt>
<trkpt lat="52.696851" lon="05.981651"><ele>0.5</ele><time>2022-09-06T16:16:53Z</time><name>PT12461</name></trkpt>
<trkpt lat="52.696836" lon="05.981652"><ele>0.7</ele><time>2022-09-06T16:16:54Z</time><name>PT12462</name></trkpt>
<trkpt lat="52.696821" lon="05.981654"><ele>0.7</ele><time>2022-09-06T16:16:55Z</time><name>PT12463</name></trkpt>
<trkpt lat="52.696807" lon="05.981655"><ele>0.8</ele><time>2022-09-06T16:16:56Z</time><name>PT12464</name></trkpt>
<trkpt lat="52.696795" lon="05.981654"><ele>0.9</ele><time>2022-09-06T16:16:57Z</time><name>PT12465</name></trkpt>
<trkpt lat="52.696786" lon="05.981657"><ele>-1</ele><time>2022-09-06T16:16:58Z</time><name>PT12466</name></trkpt>
<trkpt lat="52.696782" lon="05.981659"><ele>0.8</ele><time>2022-09-06T16:16:59Z</time><name>PT12467</name></trkpt>
<trkpt lat="52.696777" lon="05.981658"><ele>0.9</ele><time>2022-09-06T16:17:00Z</time><name>PT12468</name></trkpt>
<trkpt lat="52.696771" lon="05.981659"><ele>0.9</ele><time>2022-09-06T16:17:01Z</time><name>PT12469</name></trkpt>
<trkpt lat="52.696759" lon="05.981661"><ele>0.8</ele><time>2022-09-06T16:17:02Z</time><name>PT12470</name></trkpt>
<trkpt lat="52.696744" lon="05.981663"><ele>0.8</ele><time>2022-09-06T16:17:03Z</time><name>PT12471</name></trkpt>
<trkpt lat="52.696725" lon="05.981662"><ele>0.9</ele><time>2022-09-06T16:17:04Z</time><name>PT12472</name></trkpt>
<trkpt lat="52.696706" lon="05.981659"><ele>-1</ele><time>2022-09-06T16:17:05Z</time><name>PT12473</name></trkpt>
<trkpt lat="52.696692" lon="05.981659"><ele>-1.1</ele><time>2022-09-06T16:17:06Z</time><name>PT12474</name></trkpt>
<trkpt lat="52.696683" lon="05.981658"><ele>-1.1</ele><time>2022-09-06T16:17:07Z</time><name>PT12475</name></trkpt>
<trkpt lat="52.696675" lon="05.981659"><ele>-1.2</ele><time>2022-09-06T16:17:08Z</time><name>PT12476</name></trkpt>
<trkpt lat="52.696669" lon="05.981661"><ele>-1.3</ele><time>2022-09-06T16:17:09Z</time><name>PT12477</name></trkpt>
<trkpt lat="52.696665" lon="05.981660"><ele>-1</ele><time>2022-09-06T16:17:10Z</time><name>PT12478</name></trkpt>
<trkpt lat="52.696658" lon="05.981662"><ele>-1</ele><time>2022-09-06T16:17:11Z</time><name>PT12479</name></trkpt>
<trkpt lat="52.696647" lon="05.981665"><ele>-1.1</ele><time>2022-09-06T16:17:12Z</time><name>PT12480</name></trkpt>
<trkpt lat="52.696633" lon="05.981666"><ele>-1</ele><time>2022-09-06T16:17:13Z</time><name>PT12481</name></trkpt>
<trkpt lat="52.696618" lon="05.981667"><ele>0.9</ele><time>2022-09-06T16:17:14Z</time><name>PT12482</name></trkpt>
<trkpt lat="52.696603" lon="05.981670"><ele>-1</ele><time>2022-09-06T16:17:15Z</time><name>PT12483</name></trkpt>
<trkpt lat="52.696591" lon="05.981671"><ele>0.8</ele><time>2022-09-06T16:17:16Z</time><name>PT12484</name></trkpt>
<trkpt lat="52.696581" lon="05.981672"><ele>0.8</ele><time>2022-09-06T16:17:17Z</time><name>PT12485</name></trkpt>
<trkpt lat="52.696574" lon="05.981674"><ele>0.9</ele><time>2022-09-06T16:17:18Z</time><name>PT12486</name></trkpt>
<trkpt lat="52.696568" lon="05.981675"><ele>-1</ele><time>2022-09-06T16:17:19Z</time><name>PT12487</name></trkpt>
<trkpt lat="52.696560" lon="05.981677"><ele>-1</ele><time>2022-09-06T16:17:20Z</time><name>PT12488</name></trkpt>
<trkpt lat="52.696552" lon="05.981679"><ele>-1.3</ele><time>2022-09-06T16:17:21Z</time><name>PT12489</name></trkpt>
<trkpt lat="52.696543" lon="05.981686"><ele>-1.3</ele><time>2022-09-06T16:17:22Z</time><name>PT12490</name></trkpt>
<trkpt lat="52.696534" lon="05.981691"><ele>-1.1</ele><time>2022-09-06T16:17:23Z</time><name>PT12491</name></trkpt>
<trkpt lat="52.696529" lon="05.981692"><ele>-1</ele><time>2022-09-06T16:17:24Z</time><name>PT12492</name></trkpt>
<trkpt lat="52.696526" lon="05.981692"><ele>-1</ele><time>2022-09-06T16:17:25Z</time><name>PT12493</name></trkpt>
<trkpt lat="52.696519" lon="05.981691"><ele>0.5</ele><time>2022-09-06T16:17:26Z</time><name>PT12494</name></trkpt>
<trkpt lat="52.696510" lon="05.981690"><ele>0.2</ele><time>2022-09-06T16:17:27Z</time><name>PT12495</name></trkpt>
<trkpt lat="52.696499" lon="05.981691"><ele>0.1</ele><time>2022-09-06T16:17:28Z</time><name>PT12496</name></trkpt>
<trkpt lat="52.696487" lon="05.981692"><ele>0.2</ele><time>2022-09-06T16:17:29Z</time><name>PT12497</name></trkpt>
<trkpt lat="52.696472" lon="05.981690"><ele>0.3</ele><time>2022-09-06T16:17:30Z</time><name>PT12498</name></trkpt>
<trkpt lat="52.696459" lon="05.981690"><ele>0.6</ele><time>2022-09-06T16:17:31Z</time><name>PT12499</name></trkpt>
<trkpt lat="52.696448" lon="05.981689"><ele>0.8</ele><time>2022-09-06T16:17:32Z</time><name>PT12500</name></trkpt>
<trkpt lat="52.696440" lon="05.981688"><ele>-1</ele><time>2022-09-06T16:17:33Z</time><name>PT12501</name></trkpt>
<trkpt lat="52.696433" lon="05.981689"><ele>0.9</ele><time>2022-09-06T16:17:34Z</time><name>PT12502</name></trkpt>
<trkpt lat="52.696426" lon="05.981692"><ele>0.7</ele><time>2022-09-06T16:17:35Z</time><name>PT12503</name></trkpt>
<trkpt lat="52.696417" lon="05.981693"><ele>0.6</ele><time>2022-09-06T16:17:36Z</time><name>PT12504</name></trkpt>
<trkpt lat="52.696404" lon="05.981693"><ele>0.7</ele><time>2022-09-06T16:17:37Z</time><name>PT12505</name></trkpt>
<trkpt lat="52.696389" lon="05.981693"><ele>0.6</ele><time>2022-09-06T16:17:38Z</time><name>PT12506</name></trkpt>
<trkpt lat="52.696374" lon="05.981695"><ele>0.5</ele><time>2022-09-06T16:17:39Z</time><name>PT12507</name></trkpt>
<trkpt lat="52.696361" lon="05.981697"><ele>0.6</ele><time>2022-09-06T16:17:40Z</time><name>PT12508</name></trkpt>
<trkpt lat="52.696350" lon="05.981698"><ele>0.7</ele><time>2022-09-06T16:17:41Z</time><name>PT12509</name></trkpt>
<trkpt lat="52.696342" lon="05.981700"><ele>0.7</ele><time>2022-09-06T16:17:42Z</time><name>PT12510</name></trkpt>
<trkpt lat="52.696335" lon="05.981701"><ele>0.7</ele><time>2022-09-06T16:17:43Z</time><name>PT12511</name></trkpt>
<trkpt lat="52.696329" lon="05.981702"><ele>0.7</ele><time>2022-09-06T16:17:44Z</time><name>PT12512</name></trkpt>
<trkpt lat="52.696322" lon="05.981704"><ele>0.8</ele><time>2022-09-06T16:17:45Z</time><name>PT12513</name></trkpt>
<trkpt lat="52.696310" lon="05.981706"><ele>0.8</ele><time>2022-09-06T16:17:46Z</time><name>PT12514</name></trkpt>
<trkpt lat="52.696295" lon="05.981707"><ele>0.9</ele><time>2022-09-06T16:17:47Z</time><name>PT12515</name></trkpt>
<trkpt lat="52.696276" lon="05.981708"><ele>-1</ele><time>2022-09-06T16:17:48Z</time><name>PT12516</name></trkpt>
<trkpt lat="52.696261" lon="05.981707"><ele>-1.1</ele><time>2022-09-06T16:17:49Z</time><name>PT12517</name></trkpt>
<trkpt lat="52.696250" lon="05.981706"><ele>-1.1</ele><time>2022-09-06T16:17:50Z</time><name>PT12518</name></trkpt>
<trkpt lat="52.696242" lon="05.981709"><ele>-1.1</ele><time>2022-09-06T16:17:51Z</time><name>PT12519</name></trkpt>
<trkpt lat="52.696234" lon="05.981710"><ele>-1.1</ele><time>2022-09-06T16:17:52Z</time><name>PT12520</name></trkpt>
<trkpt lat="52.696227" lon="05.981711"><ele>-1.1</ele><time>2022-09-06T16:17:53Z</time><name>PT12521</name></trkpt>
<trkpt lat="52.696220" lon="05.981716"><ele>-1</ele><time>2022-09-06T16:17:54Z</time><name>PT12522</name></trkpt>
<trkpt lat="52.696209" lon="05.981719"><ele>-1</ele><time>2022-09-06T16:17:55Z</time><name>PT12523</name></trkpt>
<trkpt lat="52.696194" lon="05.981721"><ele>-1</ele><time>2022-09-06T16:17:56Z</time><name>PT12524</name></trkpt>
<trkpt lat="52.696179" lon="05.981725"><ele>0.9</ele><time>2022-09-06T16:17:57Z</time><name>PT12525</name></trkpt>
<trkpt lat="52.696167" lon="05.981727"><ele>0.8</ele><time>2022-09-06T16:17:58Z</time><name>PT12526</name></trkpt>
<trkpt lat="52.696157" lon="05.981729"><ele>0.8</ele><time>2022-09-06T16:17:59Z</time><name>PT12527</name></trkpt>
<trkpt lat="52.696151" lon="05.981732"><ele>0.7</ele><time>2022-09-06T16:18:00Z</time><name>PT12528</name></trkpt>
<trkpt lat="52.696144" lon="05.981734"><ele>0.5</ele><time>2022-09-06T16:18:01Z</time><name>PT12529</name></trkpt>
<trkpt lat="52.696138" lon="05.981739"><ele>0.5</ele><time>2022-09-06T16:18:02Z</time><name>PT12530</name></trkpt>
<trkpt lat="52.696127" lon="05.981742"><ele>0.5</ele><time>2022-09-06T16:18:03Z</time><name>PT12531</name></trkpt>
<trkpt lat="52.696112" lon="05.981742"><ele>0.5</ele><time>2022-09-06T16:18:04Z</time><name>PT12532</name></trkpt>
<trkpt lat="52.696096" lon="05.981742"><ele>0.5</ele><time>2022-09-06T16:18:05Z</time><name>PT12533</name></trkpt>
<trkpt lat="52.696081" lon="05.981742"><ele>0.5</ele><time>2022-09-06T16:18:06Z</time><name>PT12534</name></trkpt>
<trkpt lat="52.696069" lon="05.981742"><ele>0.5</ele><time>2022-09-06T16:18:07Z</time><name>PT12535</name></trkpt>
<trkpt lat="52.696059" lon="05.981741"><ele>0.5</ele><time>2022-09-06T16:18:08Z</time><name>PT12536</name></trkpt>
<trkpt lat="52.696050" lon="05.981746"><ele>0.7</ele><time>2022-09-06T16:18:09Z</time><name>PT12537</name></trkpt>
<trkpt lat="52.696034" lon="05.981746"><ele>0.7</ele><time>2022-09-06T16:18:10Z</time><name>PT12538</name></trkpt>
<trkpt lat="52.696022" lon="05.981745"><ele>0.8</ele><time>2022-09-06T16:18:11Z</time><name>PT12539</name></trkpt>
<trkpt lat="52.696013" lon="05.981746"><ele>0.8</ele><time>2022-09-06T16:18:12Z</time><name>PT12540</name></trkpt>
<trkpt lat="52.696005" lon="05.981745"><ele>0.7</ele><time>2022-09-06T16:18:13Z</time><name>PT12541</name></trkpt>
<trkpt lat="52.695996" lon="05.981744"><ele>0.6</ele><time>2022-09-06T16:18:14Z</time><name>PT12542</name></trkpt>
<trkpt lat="52.695987" lon="05.981745"><ele>0.8</ele><time>2022-09-06T16:18:15Z</time><name>PT12543</name></trkpt>
<trkpt lat="52.695978" lon="05.981745"><ele>0.7</ele><time>2022-09-06T16:18:16Z</time><name>PT12544</name></trkpt>
<trkpt lat="52.695965" lon="05.981745"><ele>0.8</ele><time>2022-09-06T16:18:17Z</time><name>PT12545</name></trkpt>
<trkpt lat="52.695949" lon="05.981746"><ele>0.7</ele><time>2022-09-06T16:18:18Z</time><name>PT12546</name></trkpt>
<trkpt lat="52.695934" lon="05.981751"><ele>0.6</ele><time>2022-09-06T16:18:19Z</time><name>PT12547</name></trkpt>
<trkpt lat="52.695923" lon="05.981755"><ele>0.5</ele><time>2022-09-06T16:18:20Z</time><name>PT12548</name></trkpt>
<trkpt lat="52.695916" lon="05.981757"><ele>0.5</ele><time>2022-09-06T16:18:21Z</time><name>PT12549</name></trkpt>
<trkpt lat="52.695911" lon="05.981756"><ele>0.4</ele><time>2022-09-06T16:18:22Z</time><name>PT12550</name></trkpt>
<trkpt lat="52.695906" lon="05.981756"><ele>0.3</ele><time>2022-09-06T16:18:23Z</time><name>PT12551</name></trkpt>
<trkpt lat="52.695899" lon="05.981756"><ele>0.4</ele><time>2022-09-06T16:18:24Z</time><name>PT12552</name></trkpt>
<trkpt lat="52.695888" lon="05.981756"><ele>0.4</ele><time>2022-09-06T16:18:25Z</time><name>PT12553</name></trkpt>
<trkpt lat="52.695875" lon="05.981756"><ele>0.6</ele><time>2022-09-06T16:18:26Z</time><name>PT12554</name></trkpt>
<trkpt lat="52.695861" lon="05.981758"><ele>0.7</ele><time>2022-09-06T16:18:27Z</time><name>PT12555</name></trkpt>
<trkpt lat="52.695847" lon="05.981761"><ele>0.6</ele><time>2022-09-06T16:18:28Z</time><name>PT12556</name></trkpt>
<trkpt lat="52.695835" lon="05.981762"><ele>0.5</ele><time>2022-09-06T16:18:29Z</time><name>PT12557</name></trkpt>
<trkpt lat="52.695828" lon="05.981763"><ele>0.5</ele><time>2022-09-06T16:18:30Z</time><name>PT12558</name></trkpt>
<trkpt lat="52.695820" lon="05.981766"><ele>0.1</ele><time>2022-09-06T16:18:31Z</time><name>PT12559</name></trkpt>
<trkpt lat="52.695813" lon="05.981769"><ele>0</ele><time>2022-09-06T16:18:32Z</time><name>PT12560</name></trkpt>
<trkpt lat="52.695805" lon="05.981769"><ele>0</ele><time>2022-09-06T16:18:33Z</time><name>PT12561</name></trkpt>
<trkpt lat="52.695796" lon="05.981769"><ele>0.1</ele><time>2022-09-06T16:18:34Z</time><name>PT12562</name></trkpt>
<trkpt lat="52.695785" lon="05.981769"><ele>0</ele><time>2022-09-06T16:18:35Z</time><name>PT12563</name></trkpt>
<trkpt lat="52.695771" lon="05.981774"><ele>0.1</ele><time>2022-09-06T16:18:36Z</time><name>PT12564</name></trkpt>
<trkpt lat="52.695755" lon="05.981778"><ele>0.2</ele><time>2022-09-06T16:18:37Z</time><name>PT12565</name></trkpt>
<trkpt lat="52.695741" lon="05.981783"><ele>0.1</ele><time>2022-09-06T16:18:38Z</time><name>PT12566</name></trkpt>
<trkpt lat="52.695731" lon="05.981786"><ele>0.2</ele><time>2022-09-06T16:18:39Z</time><name>PT12567</name></trkpt>
<trkpt lat="52.695721" lon="05.981786"><ele>0.5</ele><time>2022-09-06T16:18:40Z</time><name>PT12568</name></trkpt>
<trkpt lat="52.695713" lon="05.981786"><ele>0.5</ele><time>2022-09-06T16:18:41Z</time><name>PT12569</name></trkpt>
<trkpt lat="52.695707" lon="05.981786"><ele>0.5</ele><time>2022-09-06T16:18:42Z</time><name>PT12570</name></trkpt>
<trkpt lat="52.695699" lon="05.981784"><ele>0.7</ele><time>2022-09-06T16:18:43Z</time><name>PT12571</name></trkpt>
<trkpt lat="52.695689" lon="05.981783"><ele>0.6</ele><time>2022-09-06T16:18:44Z</time><name>PT12572</name></trkpt>
<trkpt lat="52.695676" lon="05.981782"><ele>0.7</ele><time>2022-09-06T16:18:45Z</time><name>PT12573</name></trkpt>
<trkpt lat="52.695661" lon="05.981783"><ele>0.8</ele><time>2022-09-06T16:18:46Z</time><name>PT12574</name></trkpt>
<trkpt lat="52.695646" lon="05.981789"><ele>-1</ele><time>2022-09-06T16:18:47Z</time><name>PT12575</name></trkpt>
<trkpt lat="52.695634" lon="05.981793"><ele>-1</ele><time>2022-09-06T16:18:48Z</time><name>PT12576</name></trkpt>
<trkpt lat="52.695625" lon="05.981795"><ele>0.9</ele><time>2022-09-06T16:18:49Z</time><name>PT12577</name></trkpt>
<trkpt lat="52.695619" lon="05.981796"><ele>0.8</ele><time>2022-09-06T16:18:50Z</time><name>PT12578</name></trkpt>
<trkpt lat="52.695614" lon="05.981796"><ele>0.8</ele><time>2022-09-06T16:18:51Z</time><name>PT12579</name></trkpt>
<trkpt lat="52.695607" lon="05.981797"><ele>0.8</ele><time>2022-09-06T16:18:52Z</time><name>PT12580</name></trkpt>
<trkpt lat="52.695596" lon="05.981795"><ele>0.7</ele><time>2022-09-06T16:18:53Z</time><name>PT12581</name></trkpt>
<trkpt lat="52.695582" lon="05.981793"><ele>0.7</ele><time>2022-09-06T16:18:54Z</time><name>PT12582</name></trkpt>
<trkpt lat="52.695565" lon="05.981796"><ele>0.6</ele><time>2022-09-06T16:18:55Z</time><name>PT12583</name></trkpt>
<trkpt lat="52.695552" lon="05.981799"><ele>0.6</ele><time>2022-09-06T16:18:56Z</time><name>PT12584</name></trkpt>
<trkpt lat="52.695543" lon="05.981801"><ele>0.7</ele><time>2022-09-06T16:18:57Z</time><name>PT12585</name></trkpt>
<trkpt lat="52.695538" lon="05.981803"><ele>0.5</ele><time>2022-09-06T16:18:58Z</time><name>PT12586</name></trkpt>
<trkpt lat="52.695533" lon="05.981804"><ele>0.5</ele><time>2022-09-06T16:18:59Z</time><name>PT12587</name></trkpt>
<trkpt lat="52.695525" lon="05.981805"><ele>0.5</ele><time>2022-09-06T16:19:00Z</time><name>PT12588</name></trkpt>
<trkpt lat="52.695513" lon="05.981805"><ele>0.4</ele><time>2022-09-06T16:19:01Z</time><name>PT12589</name></trkpt>
<trkpt lat="52.695501" lon="05.981806"><ele>0.5</ele><time>2022-09-06T16:19:02Z</time><name>PT12590</name></trkpt>
<trkpt lat="52.695489" lon="05.981811"><ele>0.5</ele><time>2022-09-06T16:19:03Z</time><name>PT12591</name></trkpt>
<trkpt lat="52.695484" lon="05.981813"><ele>0.5</ele><time>2022-09-06T16:19:04Z</time><name>PT12592</name></trkpt>
<trkpt lat="52.695483" lon="05.981812"><ele>0.6</ele><time>2022-09-06T16:19:05Z</time><name>PT12593</name></trkpt>
<trkpt lat="52.695484" lon="05.981816"><ele>0.7</ele><time>2022-09-06T16:19:06Z</time><name>PT12594</name></trkpt>
<trkpt lat="52.695486" lon="05.981819"><ele>0.5</ele><time>2022-09-06T16:19:07Z</time><name>PT12595</name></trkpt>
<trkpt lat="52.695483" lon="05.981819"><ele>0.4</ele><time>2022-09-06T16:19:08Z</time><name>PT12596</name></trkpt>
<trkpt lat="52.695477" lon="05.981821"><ele>0.5</ele><time>2022-09-06T16:19:09Z</time><name>PT12597</name></trkpt>
<trkpt lat="52.695470" lon="05.981821"><ele>0.5</ele><time>2022-09-06T16:19:10Z</time><name>PT12598</name></trkpt>
<trkpt lat="52.695465" lon="05.981820"><ele>0.5</ele><time>2022-09-06T16:19:11Z</time><name>PT12599</name></trkpt>
<trkpt lat="52.695457" lon="05.981817"><ele>0.6</ele><time>2022-09-06T16:19:12Z</time><name>PT12600</name></trkpt>
<trkpt lat="52.695446" lon="05.981812"><ele>0.6</ele><time>2022-09-06T16:19:13Z</time><name>PT12601</name></trkpt>
<trkpt lat="52.695433" lon="05.981807"><ele>0.6</ele><time>2022-09-06T16:19:14Z</time><name>PT12602</name></trkpt>
<trkpt lat="52.695420" lon="05.981807"><ele>0.8</ele><time>2022-09-06T16:19:15Z</time><name>PT12603</name></trkpt>
<trkpt lat="52.695412" lon="05.981807"><ele>0.8</ele><time>2022-09-06T16:19:16Z</time><name>PT12604</name></trkpt>
<trkpt lat="52.695405" lon="05.981812"><ele>0.8</ele><time>2022-09-06T16:19:17Z</time><name>PT12605</name></trkpt>
<trkpt lat="52.695398" lon="05.981814"><ele>0.8</ele><time>2022-09-06T16:19:18Z</time><name>PT12606</name></trkpt>
<trkpt lat="52.695391" lon="05.981813"><ele>0.7</ele><time>2022-09-06T16:19:19Z</time><name>PT12607</name></trkpt>
<trkpt lat="52.695382" lon="05.981812"><ele>0.5</ele><time>2022-09-06T16:19:20Z</time><name>PT12608</name></trkpt>
<trkpt lat="52.695369" lon="05.981811"><ele>0.6</ele><time>2022-09-06T16:19:21Z</time><name>PT12609</name></trkpt>
<trkpt lat="52.695355" lon="05.981812"><ele>0.5</ele><time>2022-09-06T16:19:22Z</time><name>PT12610</name></trkpt>
<trkpt lat="52.695342" lon="05.981812"><ele>0.4</ele><time>2022-09-06T16:19:23Z</time><name>PT12611</name></trkpt>
<trkpt lat="52.695331" lon="05.981816"><ele>0.5</ele><time>2022-09-06T16:19:24Z</time><name>PT12612</name></trkpt>
<trkpt lat="52.695323" lon="05.981823"><ele>0.6</ele><time>2022-09-06T16:19:25Z</time><name>PT12613</name></trkpt>
<trkpt lat="52.695315" lon="05.981827"><ele>0.5</ele><time>2022-09-06T16:19:26Z</time><name>PT12614</name></trkpt>
<trkpt lat="52.695307" lon="05.981824"><ele>0.5</ele><time>2022-09-06T16:19:27Z</time><name>PT12615</name></trkpt>
<trkpt lat="52.695296" lon="05.981820"><ele>0.5</ele><time>2022-09-06T16:19:28Z</time><name>PT12616</name></trkpt>
<trkpt lat="52.695283" lon="05.981816"><ele>0.5</ele><time>2022-09-06T16:19:29Z</time><name>PT12617</name></trkpt>
<trkpt lat="52.695269" lon="05.981819"><ele>0.4</ele><time>2022-09-06T16:19:30Z</time><name>PT12618</name></trkpt>
<trkpt lat="52.695260" lon="05.981825"><ele>0.5</ele><time>2022-09-06T16:19:31Z</time><name>PT12619</name></trkpt>
<trkpt lat="52.695253" lon="05.981830"><ele>0.5</ele><time>2022-09-06T16:19:32Z</time><name>PT12620</name></trkpt>
<trkpt lat="52.695246" lon="05.981830"><ele>0.5</ele><time>2022-09-06T16:19:33Z</time><name>PT12621</name></trkpt>
<trkpt lat="52.695239" lon="05.981829"><ele>0.2</ele><time>2022-09-06T16:19:34Z</time><name>PT12622</name></trkpt>
<trkpt lat="52.695229" lon="05.981828"><ele>0</ele><time>2022-09-06T16:19:35Z</time><name>PT12623</name></trkpt>
<trkpt lat="52.695215" lon="05.981826"><ele>0.1</ele><time>2022-09-06T16:19:36Z</time><name>PT12624</name></trkpt>
<trkpt lat="52.695204" lon="05.981828"><ele>0.3</ele><time>2022-09-06T16:19:37Z</time><name>PT12625</name></trkpt>
<trkpt lat="52.695192" lon="05.981829"><ele>0.4</ele><time>2022-09-06T16:19:38Z</time><name>PT12626</name></trkpt>
<trkpt lat="52.695182" lon="05.981831"><ele>0.3</ele><time>2022-09-06T16:19:39Z</time><name>PT12627</name></trkpt>
<trkpt lat="52.695173" lon="05.981832"><ele>0.1</ele><time>2022-09-06T16:19:40Z</time><name>PT12628</name></trkpt>
<trkpt lat="52.695163" lon="05.981831"><ele>0.1</ele><time>2022-09-06T16:19:41Z</time><name>PT12629</name></trkpt>
<trkpt lat="52.695151" lon="05.981832"><ele>0</ele><time>2022-09-06T16:19:42Z</time><name>PT12630</name></trkpt>
<trkpt lat="52.695141" lon="05.981835"><ele>0.1</ele><time>2022-09-06T16:19:43Z</time><name>PT12631</name></trkpt>
<trkpt lat="52.695126" lon="05.981838"><ele>0.2</ele><time>2022-09-06T16:19:44Z</time><name>PT12632</name></trkpt>
<trkpt lat="52.695113" lon="05.981842"><ele>0.1</ele><time>2022-09-06T16:19:45Z</time><name>PT12633</name></trkpt>
<trkpt lat="52.695103" lon="05.981846"><ele>0.4</ele><time>2022-09-06T16:19:46Z</time><name>PT12634</name></trkpt>
<trkpt lat="52.695098" lon="05.981846"><ele>0.5</ele><time>2022-09-06T16:19:47Z</time><name>PT12635</name></trkpt>
<trkpt lat="52.695092" lon="05.981847"><ele>0.4</ele><time>2022-09-06T16:19:48Z</time><name>PT12636</name></trkpt>
<trkpt lat="52.695085" lon="05.981848"><ele>0.3</ele><time>2022-09-06T16:19:49Z</time><name>PT12637</name></trkpt>
<trkpt lat="52.695073" lon="05.981847"><ele>0.4</ele><time>2022-09-06T16:19:50Z</time><name>PT12638</name></trkpt>
<trkpt lat="52.695058" lon="05.981847"><ele>0.4</ele><time>2022-09-06T16:19:51Z</time><name>PT12639</name></trkpt>
<trkpt lat="52.695044" lon="05.981849"><ele>0.3</ele><time>2022-09-06T16:19:52Z</time><name>PT12640</name></trkpt>
<trkpt lat="52.695032" lon="05.981850"><ele>0.3</ele><time>2022-09-06T16:19:53Z</time><name>PT12641</name></trkpt>
<trkpt lat="52.695024" lon="05.981852"><ele>0.4</ele><time>2022-09-06T16:19:54Z</time><name>PT12642</name></trkpt>
<trkpt lat="52.695019" lon="05.981855"><ele>0.4</ele><time>2022-09-06T16:19:55Z</time><name>PT12643</name></trkpt>
<trkpt lat="52.695011" lon="05.981854"><ele>0.2</ele><time>2022-09-06T16:19:56Z</time><name>PT12644</name></trkpt>
<trkpt lat="52.694999" lon="05.981852"><ele>0.3</ele><time>2022-09-06T16:19:57Z</time><name>PT12645</name></trkpt>
<trkpt lat="52.694985" lon="05.981851"><ele>0.3</ele><time>2022-09-06T16:19:58Z</time><name>PT12646</name></trkpt>
<trkpt lat="52.694970" lon="05.981852"><ele>0.2</ele><time>2022-09-06T16:19:59Z</time><name>PT12647</name></trkpt>
<trkpt lat="52.694958" lon="05.981857"><ele>0.2</ele><time>2022-09-06T16:20:00Z</time><name>PT12648</name></trkpt>
<trkpt lat="52.694950" lon="05.981859"><ele>0.2</ele><time>2022-09-06T16:20:01Z</time><name>PT12649</name></trkpt>
<trkpt lat="52.694944" lon="05.981861"><ele>0.1</ele><time>2022-09-06T16:20:02Z</time><name>PT12650</name></trkpt>
<trkpt lat="52.694938" lon="05.981862"><ele>0.1</ele><time>2022-09-06T16:20:03Z</time><name>PT12651</name></trkpt>
<trkpt lat="52.694930" lon="05.981861"><ele>0.2</ele><time>2022-09-06T16:20:04Z</time><name>PT12652</name></trkpt>
<trkpt lat="52.694918" lon="05.981860"><ele>0.2</ele><time>2022-09-06T16:20:05Z</time><name>PT12653</name></trkpt>
<trkpt lat="52.694904" lon="05.981861"><ele>0.3</ele><time>2022-09-06T16:20:06Z</time><name>PT12654</name></trkpt>
<trkpt lat="52.694891" lon="05.981865"><ele>0.5</ele><time>2022-09-06T16:20:07Z</time><name>PT12655</name></trkpt>
<trkpt lat="52.694879" lon="05.981868"><ele>0.5</ele><time>2022-09-06T16:20:08Z</time><name>PT12656</name></trkpt>
<trkpt lat="52.694873" lon="05.981870"><ele>0.5</ele><time>2022-09-06T16:20:09Z</time><name>PT12657</name></trkpt>
<trkpt lat="52.694868" lon="05.981871"><ele>0.4</ele><time>2022-09-06T16:20:10Z</time><name>PT12658</name></trkpt>
<trkpt lat="52.694860" lon="05.981872"><ele>0.3</ele><time>2022-09-06T16:20:11Z</time><name>PT12659</name></trkpt>
<trkpt lat="52.694849" lon="05.981871"><ele>0.1</ele><time>2022-09-06T16:20:12Z</time><name>PT12660</name></trkpt>
<trkpt lat="52.694833" lon="05.981871"><ele>0.1</ele><time>2022-09-06T16:20:13Z</time><name>PT12661</name></trkpt>
<trkpt lat="52.694818" lon="05.981874"><ele>0.1</ele><time>2022-09-06T16:20:14Z</time><name>PT12662</name></trkpt>
<trkpt lat="52.694807" lon="05.981875"><ele>0.1</ele><time>2022-09-06T16:20:15Z</time><name>PT12663</name></trkpt>
<trkpt lat="52.694800" lon="05.981877"><ele>0.1</ele><time>2022-09-06T16:20:16Z</time><name>PT12664</name></trkpt>
<trkpt lat="52.694795" lon="05.981879"><ele>0.1</ele><time>2022-09-06T16:20:17Z</time><name>PT12665</name></trkpt>
<trkpt lat="52.694788" lon="05.981879"><ele>0.2</ele><time>2022-09-06T16:20:18Z</time><name>PT12666</name></trkpt>
<trkpt lat="52.694778" lon="05.981877"><ele>0.1</ele><time>2022-09-06T16:20:19Z</time><name>PT12667</name></trkpt>
<trkpt lat="52.694765" lon="05.981876"><ele>0</ele><time>2022-09-06T16:20:20Z</time><name>PT12668</name></trkpt>
<trkpt lat="52.694750" lon="05.981874"><ele>0.1</ele><time>2022-09-06T16:20:21Z</time><name>PT12669</name></trkpt>
<trkpt lat="52.694737" lon="05.981877"><ele>0.3</ele><time>2022-09-06T16:20:22Z</time><name>PT12670</name></trkpt>
<trkpt lat="52.694727" lon="05.981883"><ele>0.4</ele><time>2022-09-06T16:20:23Z</time><name>PT12671</name></trkpt>
<trkpt lat="52.694720" lon="05.981885"><ele>0.4</ele><time>2022-09-06T16:20:24Z</time><name>PT12672</name></trkpt>
<trkpt lat="52.694714" lon="05.981884"><ele>0.3</ele><time>2022-09-06T16:20:25Z</time><name>PT12673</name></trkpt>
<trkpt lat="52.694705" lon="05.981884"><ele>0.4</ele><time>2022-09-06T16:20:26Z</time><name>PT12674</name></trkpt>
<trkpt lat="52.694693" lon="05.981881"><ele>0.3</ele><time>2022-09-06T16:20:27Z</time><name>PT12675</name></trkpt>
<trkpt lat="52.694679" lon="05.981881"><ele>0.3</ele><time>2022-09-06T16:20:28Z</time><name>PT12676</name></trkpt>
<trkpt lat="52.694664" lon="05.981884"><ele>0.4</ele><time>2022-09-06T16:20:29Z</time><name>PT12677</name></trkpt>
<trkpt lat="52.694649" lon="05.981887"><ele>0.3</ele><time>2022-09-06T16:20:30Z</time><name>PT12678</name></trkpt>
<trkpt lat="52.694638" lon="05.981891"><ele>0.5</ele><time>2022-09-06T16:20:31Z</time><name>PT12679</name></trkpt>
<trkpt lat="52.694631" lon="05.981896"><ele>0.5</ele><time>2022-09-06T16:20:32Z</time><name>PT12680</name></trkpt>
<trkpt lat="52.694623" lon="05.981907"><ele>0.4</ele><time>2022-09-06T16:20:33Z</time><name>PT12681</name></trkpt>
<trkpt lat="52.694614" lon="05.981912"><ele>0.1</ele><time>2022-09-06T16:20:34Z</time><name>PT12682</name></trkpt>
<trkpt lat="52.694602" lon="05.981914"><ele>0</ele><time>2022-09-06T16:20:35Z</time><name>PT12683</name></trkpt>
<trkpt lat="52.694589" lon="05.981916"><ele>0.2</ele><time>2022-09-06T16:20:36Z</time><name>PT12684</name></trkpt>
<trkpt lat="52.694577" lon="05.981914"><ele>0.1</ele><time>2022-09-06T16:20:37Z</time><name>PT12685</name></trkpt>
<trkpt lat="52.694562" lon="05.981911"><ele>0.1</ele><time>2022-09-06T16:20:38Z</time><name>PT12686</name></trkpt>
<trkpt lat="52.694547" lon="05.981914"><ele>0.3</ele><time>2022-09-06T16:20:39Z</time><name>PT12687</name></trkpt>
<trkpt lat="52.694537" lon="05.981917"><ele>0.5</ele><time>2022-09-06T16:20:40Z</time><name>PT12688</name></trkpt>
<trkpt lat="52.694529" lon="05.981920"><ele>0.8</ele><time>2022-09-06T16:20:41Z</time><name>PT12689</name></trkpt>
<trkpt lat="52.694522" lon="05.981922"><ele>0.7</ele><time>2022-09-06T16:20:42Z</time><name>PT12690</name></trkpt>
<trkpt lat="52.694515" lon="05.981923"><ele>0.7</ele><time>2022-09-06T16:20:43Z</time><name>PT12691</name></trkpt>
<trkpt lat="52.694505" lon="05.981924"><ele>0.5</ele><time>2022-09-06T16:20:44Z</time><name>PT12692</name></trkpt>
<trkpt lat="52.694495" lon="05.981920"><ele>0.5</ele><time>2022-09-06T16:20:45Z</time><name>PT12693</name></trkpt>
<trkpt lat="52.694481" lon="05.981920"><ele>0.3</ele><time>2022-09-06T16:20:46Z</time><name>PT12694</name></trkpt>
<trkpt lat="52.694467" lon="05.981919"><ele>0.2</ele><time>2022-09-06T16:20:47Z</time><name>PT12695</name></trkpt>
<trkpt lat="52.694456" lon="05.981921"><ele>0.1</ele><time>2022-09-06T16:20:48Z</time><name>PT12696</name></trkpt>
<trkpt lat="52.694447" lon="05.981923"><ele>0.3</ele><time>2022-09-06T16:20:49Z</time><name>PT12697</name></trkpt>
<trkpt lat="52.694439" lon="05.981927"><ele>0.2</ele><time>2022-09-06T16:20:50Z</time><name>PT12698</name></trkpt>
<trkpt lat="52.694433" lon="05.981929"><ele>0.4</ele><time>2022-09-06T16:20:51Z</time><name>PT12699</name></trkpt>
<trkpt lat="52.694427" lon="05.981930"><ele>0.4</ele><time>2022-09-06T16:20:52Z</time><name>PT12700</name></trkpt>
<trkpt lat="52.694424" lon="05.981934"><ele>0.3</ele><time>2022-09-06T16:20:53Z</time><name>PT12701</name></trkpt>
<trkpt lat="52.694418" lon="05.981936"><ele>0.4</ele><time>2022-09-06T16:20:54Z</time><name>PT12702</name></trkpt>
<trkpt lat="52.694410" lon="05.981934"><ele>0.5</ele><time>2022-09-06T16:20:55Z</time><name>PT12703</name></trkpt>
<trkpt lat="52.694398" lon="05.981925"><ele>0.5</ele><time>2022-09-06T16:20:56Z</time><name>PT12704</name></trkpt>
<trkpt lat="52.694384" lon="05.981920"><ele>0.3</ele><time>2022-09-06T16:20:57Z</time><name>PT12705</name></trkpt>
<trkpt lat="52.694372" lon="05.981920"><ele>0.3</ele><time>2022-09-06T16:20:58Z</time><name>PT12706</name></trkpt>
<trkpt lat="52.694363" lon="05.981924"><ele>0.2</ele><time>2022-09-06T16:20:59Z</time><name>PT12707</name></trkpt>
<trkpt lat="52.694357" lon="05.981930"><ele>0.2</ele><time>2022-09-06T16:21:00Z</time><name>PT12708</name></trkpt>
<trkpt lat="52.694351" lon="05.981934"><ele>0.2</ele><time>2022-09-06T16:21:01Z</time><name>PT12709</name></trkpt>
<trkpt lat="52.694344" lon="05.981935"><ele>0.2</ele><time>2022-09-06T16:21:02Z</time><name>PT12710</name></trkpt>
<trkpt lat="52.694333" lon="05.981935"><ele>0.2</ele><time>2022-09-06T16:21:03Z</time><name>PT12711</name></trkpt>
<trkpt lat="52.694318" lon="05.981933"><ele>0.1</ele><time>2022-09-06T16:21:04Z</time><name>PT12712</name></trkpt>
<trkpt lat="52.694302" lon="05.981929"><ele>0.2</ele><time>2022-09-06T16:21:05Z</time><name>PT12713</name></trkpt>
<trkpt lat="52.694285" lon="05.981923"><ele>0</ele><time>2022-09-06T16:21:06Z</time><name>PT12714</name></trkpt>
<trkpt lat="52.694271" lon="05.981920"><ele>0.1</ele><time>2022-09-06T16:21:07Z</time><name>PT12715</name></trkpt>
<trkpt lat="52.694262" lon="05.981920"><ele>0</ele><time>2022-09-06T16:21:08Z</time><name>PT12716</name></trkpt>
<trkpt lat="52.694255" lon="05.981923"><ele>0</ele><time>2022-09-06T16:21:09Z</time><name>PT12717</name></trkpt>
<trkpt lat="52.694247" lon="05.981923"><ele>0.1</ele><time>2022-09-06T16:21:10Z</time><name>PT12718</name></trkpt>
<trkpt lat="52.694239" lon="05.981920"><ele>0.1</ele><time>2022-09-06T16:21:11Z</time><name>PT12719</name></trkpt>
<trkpt lat="52.694229" lon="05.981918"><ele>0.1</ele><time>2022-09-06T16:21:12Z</time><name>PT12720</name></trkpt>
<trkpt lat="52.694219" lon="05.981912"><ele>0.1</ele><time>2022-09-06T16:21:13Z</time><name>PT12721</name></trkpt>
<trkpt lat="52.694203" lon="05.981909"><ele>0.3</ele><time>2022-09-06T16:21:14Z</time><name>PT12722</name></trkpt>
<trkpt lat="52.694189" lon="05.981910"><ele>0.3</ele><time>2022-09-06T16:21:15Z</time><name>PT12723</name></trkpt>
<trkpt lat="52.694181" lon="05.981910"><ele>0.3</ele><time>2022-09-06T16:21:16Z</time><name>PT12724</name></trkpt>
<trkpt lat="52.694172" lon="05.981903"><ele>0.2</ele><time>2022-09-06T16:21:17Z</time><name>PT12725</name></trkpt>
<trkpt lat="52.694167" lon="05.981902"><ele>0.3</ele><time>2022-09-06T16:21:18Z</time><name>PT12726</name></trkpt>
<trkpt lat="52.694161" lon="05.981902"><ele>0.1</ele><time>2022-09-06T16:21:19Z</time><name>PT12727</name></trkpt>
<trkpt lat="52.694153" lon="05.981901"><ele>0</ele><time>2022-09-06T16:21:20Z</time><name>PT12728</name></trkpt>
<trkpt lat="52.694144" lon="05.981898"><ele>0.1</ele><time>2022-09-06T16:21:21Z</time><name>PT12729</name></trkpt>
<trkpt lat="52.694125" lon="05.981893"><ele>0.1</ele><time>2022-09-06T16:21:22Z</time><name>PT12730</name></trkpt>
<trkpt lat="52.694114" lon="05.981892"><ele>0</ele><time>2022-09-06T16:21:23Z</time><name>PT12731</name></trkpt>
<trkpt lat="52.694100" lon="05.981894"><ele>0.1</ele><time>2022-09-06T16:21:24Z</time><name>PT12732</name></trkpt>
<trkpt lat="52.694090" lon="05.981890"><ele>0.4</ele><time>2022-09-06T16:21:25Z</time><name>PT12733</name></trkpt>
<trkpt lat="52.694080" lon="05.981892"><ele>0.9</ele><time>2022-09-06T16:21:26Z</time><name>PT12734</name></trkpt>
<trkpt lat="52.694071" lon="05.981889"><ele>-1</ele><time>2022-09-06T16:21:27Z</time><name>PT12735</name></trkpt>
<trkpt lat="52.694061" lon="05.981886"><ele>-1</ele><time>2022-09-06T16:21:28Z</time><name>PT12736</name></trkpt>
<trkpt lat="52.694050" lon="05.981882"><ele>-1</ele><time>2022-09-06T16:21:29Z</time><name>PT12737</name></trkpt>
<trkpt lat="52.694039" lon="05.981876"><ele>0.9</ele><time>2022-09-06T16:21:30Z</time><name>PT12738</name></trkpt>
<trkpt lat="52.694030" lon="05.981868"><ele>0.8</ele><time>2022-09-06T16:21:31Z</time><name>PT12739</name></trkpt>
<trkpt lat="52.694019" lon="05.981862"><ele>0.9</ele><time>2022-09-06T16:21:32Z</time><name>PT12740</name></trkpt>
<trkpt lat="52.694008" lon="05.981858"><ele>0.9</ele><time>2022-09-06T16:21:33Z</time><name>PT12741</name></trkpt>
<trkpt lat="52.693997" lon="05.981854"><ele>0.9</ele><time>2022-09-06T16:21:34Z</time><name>PT12742</name></trkpt>
<trkpt lat="52.693988" lon="05.981852"><ele>0.8</ele><time>2022-09-06T16:21:35Z</time><name>PT12743</name></trkpt>
<trkpt lat="52.693982" lon="05.981853"><ele>0.9</ele><time>2022-09-06T16:21:36Z</time><name>PT12744</name></trkpt>
<trkpt lat="52.693976" lon="05.981846"><ele>0.7</ele><time>2022-09-06T16:21:37Z</time><name>PT12745</name></trkpt>
<trkpt lat="52.693967" lon="05.981835"><ele>0.5</ele><time>2022-09-06T16:21:38Z</time><name>PT12746</name></trkpt>
<trkpt lat="52.693957" lon="05.981825"><ele>0.3</ele><time>2022-09-06T16:21:39Z</time><name>PT12747</name></trkpt>
<trkpt lat="52.693944" lon="05.981812"><ele>0.3</ele><time>2022-09-06T16:21:40Z</time><name>PT12748</name></trkpt>
<trkpt lat="52.693930" lon="05.981804"><ele>0.1</ele><time>2022-09-06T16:21:41Z</time><name>PT12749</name></trkpt>
<trkpt lat="52.693917" lon="05.981802"><ele>0.2</ele><time>2022-09-06T16:21:42Z</time><name>PT12750</name></trkpt>
<trkpt lat="52.693907" lon="05.981802"><ele>0.1</ele><time>2022-09-06T16:21:43Z</time><name>PT12751</name></trkpt>
<trkpt lat="52.693901" lon="05.981800"><ele>0.1</ele><time>2022-09-06T16:21:44Z</time><name>PT12752</name></trkpt>
<trkpt lat="52.693897" lon="05.981794"><ele>0.1</ele><time>2022-09-06T16:21:45Z</time><name>PT12753</name></trkpt>
<trkpt lat="52.693887" lon="05.981787"><ele>0.1</ele><time>2022-09-06T16:21:46Z</time><name>PT12754</name></trkpt>
<trkpt lat="52.693869" lon="05.981771"><ele>0.2</ele><time>2022-09-06T16:21:47Z</time><name>PT12755</name></trkpt>
<trkpt lat="52.693855" lon="05.981765"><ele>0.3</ele><time>2022-09-06T16:21:48Z</time><name>PT12756</name></trkpt>
<trkpt lat="52.693840" lon="05.981763"><ele>0.5</ele><time>2022-09-06T16:21:49Z</time><name>PT12757</name></trkpt>
<trkpt lat="52.693828" lon="05.981759"><ele>0.5</ele><time>2022-09-06T16:21:50Z</time><name>PT12758</name></trkpt>
<trkpt lat="52.693822" lon="05.981755"><ele>0.5</ele><time>2022-09-06T16:21:51Z</time><name>PT12759</name></trkpt>
<trkpt lat="52.693816" lon="05.981753"><ele>0.7</ele><time>2022-09-06T16:21:52Z</time><name>PT12760</name></trkpt>
<trkpt lat="52.693812" lon="05.981749"><ele>0.8</ele><time>2022-09-06T16:21:53Z</time><name>PT12761</name></trkpt>
<trkpt lat="52.693807" lon="05.981747"><ele>0.8</ele><time>2022-09-06T16:21:54Z</time><name>PT12762</name></trkpt>
<trkpt lat="52.693797" lon="05.981743"><ele>0.8</ele><time>2022-09-06T16:21:55Z</time><name>PT12763</name></trkpt>
<trkpt lat="52.693784" lon="05.981739"><ele>0.7</ele><time>2022-09-06T16:21:56Z</time><name>PT12764</name></trkpt>
<trkpt lat="52.693768" lon="05.981732"><ele>0.7</ele><time>2022-09-06T16:21:57Z</time><name>PT12765</name></trkpt>
<trkpt lat="52.693756" lon="05.981731"><ele>0.6</ele><time>2022-09-06T16:21:58Z</time><name>PT12766</name></trkpt>
<trkpt lat="52.693744" lon="05.981730"><ele>0.6</ele><time>2022-09-06T16:21:59Z</time><name>PT12767</name></trkpt>
<trkpt lat="52.693737" lon="05.981731"><ele>0.6</ele><time>2022-09-06T16:22:00Z</time><name>PT12768</name></trkpt>
<trkpt lat="52.693731" lon="05.981725"><ele>0.5</ele><time>2022-09-06T16:22:01Z</time><name>PT12769</name></trkpt>
<trkpt lat="52.693722" lon="05.981723"><ele>0.5</ele><time>2022-09-06T16:22:02Z</time><name>PT12770</name></trkpt>
<trkpt lat="52.693714" lon="05.981715"><ele>0.3</ele><time>2022-09-06T16:22:03Z</time><name>PT12771</name></trkpt>
<trkpt lat="52.693702" lon="05.981706"><ele>0.3</ele><time>2022-09-06T16:22:04Z</time><name>PT12772</name></trkpt>
<trkpt lat="52.693688" lon="05.981698"><ele>0.2</ele><time>2022-09-06T16:22:05Z</time><name>PT12773</name></trkpt>
<trkpt lat="52.693672" lon="05.981694"><ele>0.2</ele><time>2022-09-06T16:22:06Z</time><name>PT12774</name></trkpt>
<trkpt lat="52.693658" lon="05.981694"><ele>0.1</ele><time>2022-09-06T16:22:07Z</time><name>PT12775</name></trkpt>
<trkpt lat="52.693649" lon="05.981694"><ele>0.1</ele><time>2022-09-06T16:22:08Z</time><name>PT12776</name></trkpt>
<trkpt lat="52.693643" lon="05.981695"><ele>0.1</ele><time>2022-09-06T16:22:09Z</time><name>PT12777</name></trkpt>
<trkpt lat="52.693637" lon="05.981697"><ele>0.1</ele><time>2022-09-06T16:22:10Z</time><name>PT12778</name></trkpt>
<trkpt lat="52.693632" lon="05.981697"><ele>0.1</ele><time>2022-09-06T16:22:11Z</time><name>PT12779</name></trkpt>
<trkpt lat="52.693625" lon="05.981694"><ele>0.1</ele><time>2022-09-06T16:22:12Z</time><name>PT12780</name></trkpt>
<trkpt lat="52.693616" lon="05.981690"><ele>0.1</ele><time>2022-09-06T16:22:13Z</time><name>PT12781</name></trkpt>
<trkpt lat="52.693607" lon="05.981683"><ele>0</ele><time>2022-09-06T16:22:14Z</time><name>PT12782</name></trkpt>
<trkpt lat="52.693594" lon="05.981677"><ele>0.1</ele><time>2022-09-06T16:22:15Z</time><name>PT12783</name></trkpt>
<trkpt lat="52.693579" lon="05.981671"><ele>0</ele><time>2022-09-06T16:22:16Z</time><name>PT12784</name></trkpt>
<trkpt lat="52.693565" lon="05.981669"><ele>0</ele><time>2022-09-06T16:22:17Z</time><name>PT12785</name></trkpt>
<trkpt lat="52.693556" lon="05.981669"><ele>0</ele><time>2022-09-06T16:22:18Z</time><name>PT12786</name></trkpt>
<trkpt lat="52.693548" lon="05.981670"><ele>0</ele><time>2022-09-06T16:22:19Z</time><name>PT12787</name></trkpt>
<trkpt lat="52.693541" lon="05.981671"><ele>0</ele><time>2022-09-06T16:22:20Z</time><name>PT12788</name></trkpt>
<trkpt lat="52.693533" lon="05.981667"><ele>0</ele><time>2022-09-06T16:22:21Z</time><name>PT12789</name></trkpt>
<trkpt lat="52.693524" lon="05.981665"><ele>0.3</ele><time>2022-09-06T16:22:22Z</time><name>PT12790</name></trkpt>
<trkpt lat="52.693518" lon="05.981660"><ele>0.6</ele><time>2022-09-06T16:22:23Z</time><name>PT12791</name></trkpt>
<trkpt lat="52.693512" lon="05.981652"><ele>0.6</ele><time>2022-09-06T16:22:24Z</time><name>PT12792</name></trkpt>
<trkpt lat="52.693505" lon="05.981650"><ele>0.8</ele><time>2022-09-06T16:22:25Z</time><name>PT12793</name></trkpt>
<trkpt lat="52.693498" lon="05.981647"><ele>0.8</ele><time>2022-09-06T16:22:26Z</time><name>PT12794</name></trkpt>
<trkpt lat="52.693491" lon="05.981645"><ele>0.7</ele><time>2022-09-06T16:22:27Z</time><name>PT12795</name></trkpt>
<trkpt lat="52.693482" lon="05.981646"><ele>0.5</ele><time>2022-09-06T16:22:28Z</time><name>PT12796</name></trkpt>
<trkpt lat="52.693473" lon="05.981646"><ele>0.5</ele><time>2022-09-06T16:22:29Z</time><name>PT12797</name></trkpt>
<trkpt lat="52.693465" lon="05.981646"><ele>0.7</ele><time>2022-09-06T16:22:30Z</time><name>PT12798</name></trkpt>
<trkpt lat="52.693457" lon="05.981645"><ele>0.6</ele><time>2022-09-06T16:22:31Z</time><name>PT12799</name></trkpt>
<trkpt lat="52.693449" lon="05.981644"><ele>0.8</ele><time>2022-09-06T16:22:32Z</time><name>PT12800</name></trkpt>
<trkpt lat="52.693440" lon="05.981644"><ele>0.9</ele><time>2022-09-06T16:22:33Z</time><name>PT12801</name></trkpt>
<trkpt lat="52.693430" lon="05.981643"><ele>1.1</ele><time>2022-09-06T16:22:34Z</time><name>PT12802</name></trkpt>
<trkpt lat="52.693420" lon="05.981641"><ele>1</ele><time>2022-09-06T16:22:35Z</time><name>PT12803</name></trkpt>
<trkpt lat="52.693410" lon="05.981640"><ele>1</ele><time>2022-09-06T16:22:36Z</time><name>PT12804</name></trkpt>
<trkpt lat="52.693400" lon="05.981639"><ele>0.6</ele><time>2022-09-06T16:22:37Z</time><name>PT12805</name></trkpt>
<trkpt lat="52.693390" lon="05.981638"><ele>0.4</ele><time>2022-09-06T16:22:38Z</time><name>PT12806</name></trkpt>
<trkpt lat="52.693380" lon="05.981637"><ele>0.2</ele><time>2022-09-06T16:22:39Z</time><name>PT12807</name></trkpt>
<trkpt lat="52.693370" lon="05.981634"><ele>0.3</ele><time>2022-09-06T16:22:40Z</time><name>PT12808</name></trkpt>
<trkpt lat="52.693361" lon="05.981630"><ele>0.2</ele><time>2022-09-06T16:22:41Z</time><name>PT12809</name></trkpt>
<trkpt lat="52.693352" lon="05.981628"><ele>0.3</ele><time>2022-09-06T16:22:42Z</time><name>PT12810</name></trkpt>
<trkpt lat="52.693342" lon="05.981626"><ele>0.2</ele><time>2022-09-06T16:22:43Z</time><name>PT12811</name></trkpt>
<trkpt lat="52.693332" lon="05.981624"><ele>0.1</ele><time>2022-09-06T16:22:44Z</time><name>PT12812</name></trkpt>
<trkpt lat="52.693322" lon="05.981621"><ele>0.1</ele><time>2022-09-06T16:22:45Z</time><name>PT12813</name></trkpt>
<trkpt lat="52.693313" lon="05.981617"><ele>0</ele><time>2022-09-06T16:22:46Z</time><name>PT12814</name></trkpt>
<trkpt lat="52.693303" lon="05.981614"><ele>0.2</ele><time>2022-09-06T16:22:47Z</time><name>PT12815</name></trkpt>
<trkpt lat="52.693292" lon="05.981612"><ele>0.2</ele><time>2022-09-06T16:22:48Z</time><name>PT12816</name></trkpt>
<trkpt lat="52.693281" lon="05.981610"><ele>0.2</ele><time>2022-09-06T16:22:49Z</time><name>PT12817</name></trkpt>
<trkpt lat="52.693270" lon="05.981607"><ele>0</ele><time>2022-09-06T16:22:50Z</time><name>PT12818</name></trkpt>
<trkpt lat="52.693262" lon="05.981601"><ele>0.1</ele><time>2022-09-06T16:22:51Z</time><name>PT12819</name></trkpt>
<trkpt lat="52.693252" lon="05.981598"><ele>0</ele><time>2022-09-06T16:22:52Z</time><name>PT12820</name></trkpt>
<trkpt lat="52.693242" lon="05.981597"><ele>0.1</ele><time>2022-09-06T16:22:53Z</time><name>PT12821</name></trkpt>
<trkpt lat="52.693230" lon="05.981598"><ele>0</ele><time>2022-09-06T16:22:54Z</time><name>PT12822</name></trkpt>
<trkpt lat="52.693220" lon="05.981600"><ele>0</ele><time>2022-09-06T16:22:55Z</time><name>PT12823</name></trkpt>
<trkpt lat="52.693209" lon="05.981601"><ele>0.2</ele><time>2022-09-06T16:22:56Z</time><name>PT12824</name></trkpt>
<trkpt lat="52.693198" lon="05.981599"><ele>0.2</ele><time>2022-09-06T16:22:57Z</time><name>PT12825</name></trkpt>
<trkpt lat="52.693187" lon="05.981597"><ele>0.4</ele><time>2022-09-06T16:22:58Z</time><name>PT12826</name></trkpt>
<trkpt lat="52.693175" lon="05.981595"><ele>0.4</ele><time>2022-09-06T16:22:59Z</time><name>PT12827</name></trkpt>
<trkpt lat="52.693166" lon="05.981591"><ele>0.3</ele><time>2022-09-06T16:23:00Z</time><name>PT12828</name></trkpt>
<trkpt lat="52.693155" lon="05.981588"><ele>0.2</ele><time>2022-09-06T16:23:01Z</time><name>PT12829</name></trkpt>
<trkpt lat="52.693145" lon="05.981586"><ele>0.1</ele><time>2022-09-06T16:23:02Z</time><name>PT12830</name></trkpt>
<trkpt lat="52.693134" lon="05.981584"><ele>0.1</ele><time>2022-09-06T16:23:03Z</time><name>PT12831</name></trkpt>
<trkpt lat="52.693124" lon="05.981583"><ele>0.1</ele><time>2022-09-06T16:23:04Z</time><name>PT12832</name></trkpt>
<trkpt lat="52.693113" lon="05.981581"><ele>0.1</ele><time>2022-09-06T16:23:05Z</time><name>PT12833</name></trkpt>
<trkpt lat="52.693102" lon="05.981579"><ele>0.2</ele><time>2022-09-06T16:23:06Z</time><name>PT12834</name></trkpt>
<trkpt lat="52.693090" lon="05.981576"><ele>0.1</ele><time>2022-09-06T16:23:07Z</time><name>PT12835</name></trkpt>
<trkpt lat="52.693079" lon="05.981574"><ele>0.4</ele><time>2022-09-06T16:23:08Z</time><name>PT12836</name></trkpt>
<trkpt lat="52.693070" lon="05.981571"><ele>0.5</ele><time>2022-09-06T16:23:09Z</time><name>PT12837</name></trkpt>
<trkpt lat="52.693059" lon="05.981569"><ele>0.5</ele><time>2022-09-06T16:23:10Z</time><name>PT12838</name></trkpt>
<trkpt lat="52.693049" lon="05.981567"><ele>0.5</ele><time>2022-09-06T16:23:11Z</time><name>PT12839</name></trkpt>
<trkpt lat="52.693039" lon="05.981565"><ele>0.5</ele><time>2022-09-06T16:23:12Z</time><name>PT12840</name></trkpt>
<trkpt lat="52.693028" lon="05.981565"><ele>0.5</ele><time>2022-09-06T16:23:13Z</time><name>PT12841</name></trkpt>
<trkpt lat="52.693017" lon="05.981562"><ele>0.3</ele><time>2022-09-06T16:23:14Z</time><name>PT12842</name></trkpt>
<trkpt lat="52.693007" lon="05.981560"><ele>0.2</ele><time>2022-09-06T16:23:15Z</time><name>PT12843</name></trkpt>
<trkpt lat="52.692997" lon="05.981560"><ele>0.3</ele><time>2022-09-06T16:23:16Z</time><name>PT12844</name></trkpt>
<trkpt lat="52.692988" lon="05.981559"><ele>0.2</ele><time>2022-09-06T16:23:17Z</time><name>PT12845</name></trkpt>
<trkpt lat="52.692979" lon="05.981556"><ele>0.1</ele><time>2022-09-06T16:23:18Z</time><name>PT12846</name></trkpt>
<trkpt lat="52.692969" lon="05.981554"><ele>0.1</ele><time>2022-09-06T16:23:19Z</time><name>PT12847</name></trkpt>
<trkpt lat="52.692958" lon="05.981552"><ele>0.2</ele><time>2022-09-06T16:23:20Z</time><name>PT12848</name></trkpt>
<trkpt lat="52.692948" lon="05.981551"><ele>0.2</ele><time>2022-09-06T16:23:21Z</time><name>PT12849</name></trkpt>
<trkpt lat="52.692937" lon="05.981549"><ele>0.1</ele><time>2022-09-06T16:23:22Z</time><name>PT12850</name></trkpt>
<trkpt lat="52.692926" lon="05.981545"><ele>0.3</ele><time>2022-09-06T16:23:23Z</time><name>PT12851</name></trkpt>
<trkpt lat="52.692916" lon="05.981541"><ele>0.3</ele><time>2022-09-06T16:23:24Z</time><name>PT12852</name></trkpt>
<trkpt lat="52.692907" lon="05.981538"><ele>0.3</ele><time>2022-09-06T16:23:25Z</time><name>PT12853</name></trkpt>
<trkpt lat="52.692897" lon="05.981535"><ele>0.1</ele><time>2022-09-06T16:23:26Z</time><name>PT12854</name></trkpt>
<trkpt lat="52.692887" lon="05.981535"><ele>0.1</ele><time>2022-09-06T16:23:27Z</time><name>PT12855</name></trkpt>
<trkpt lat="52.692877" lon="05.981535"><ele>0.1</ele><time>2022-09-06T16:23:28Z</time><name>PT12856</name></trkpt>
<trkpt lat="52.692866" lon="05.981533"><ele>0.1</ele><time>2022-09-06T16:23:29Z</time><name>PT12857</name></trkpt>
<trkpt lat="52.692855" lon="05.981531"><ele>0.2</ele><time>2022-09-06T16:23:30Z</time><name>PT12858</name></trkpt>
<trkpt lat="52.692843" lon="05.981529"><ele>0.1</ele><time>2022-09-06T16:23:31Z</time><name>PT12859</name></trkpt>
<trkpt lat="52.692833" lon="05.981527"><ele>0.1</ele><time>2022-09-06T16:23:32Z</time><name>PT12860</name></trkpt>
<trkpt lat="52.692823" lon="05.981525"><ele>0.1</ele><time>2022-09-06T16:23:33Z</time><name>PT12861</name></trkpt>
<trkpt lat="52.692814" lon="05.981522"><ele>0.1</ele><time>2022-09-06T16:23:34Z</time><name>PT12862</name></trkpt>
<trkpt lat="52.692804" lon="05.981522"><ele>0.1</ele><time>2022-09-06T16:23:35Z</time><name>PT12863</name></trkpt>
<trkpt lat="52.692794" lon="05.981520"><ele>0</ele><time>2022-09-06T16:23:36Z</time><name>PT12864</name></trkpt>
<trkpt lat="52.692784" lon="05.981519"><ele>0.1</ele><time>2022-09-06T16:23:37Z</time><name>PT12865</name></trkpt>
<trkpt lat="52.692772" lon="05.981520"><ele>0</ele><time>2022-09-06T16:23:38Z</time><name>PT12866</name></trkpt>
<trkpt lat="52.692762" lon="05.981518"><ele>0</ele><time>2022-09-06T16:23:39Z</time><name>PT12867</name></trkpt>
<trkpt lat="52.692752" lon="05.981516"><ele>0</ele><time>2022-09-06T16:23:40Z</time><name>PT12868</name></trkpt>
<trkpt lat="52.692741" lon="05.981513"><ele>0</ele><time>2022-09-06T16:23:41Z</time><name>PT12869</name></trkpt>
<trkpt lat="52.692731" lon="05.981511"><ele>0.1</ele><time>2022-09-06T16:23:42Z</time><name>PT12870</name></trkpt>
<trkpt lat="52.692721" lon="05.981509"><ele>0.3</ele><time>2022-09-06T16:23:43Z</time><name>PT12871</name></trkpt>
<trkpt lat="52.692712" lon="05.981508"><ele>0.4</ele><time>2022-09-06T16:23:44Z</time><name>PT12872</name></trkpt>
<trkpt lat="52.692702" lon="05.981507"><ele>0.3</ele><time>2022-09-06T16:23:45Z</time><name>PT12873</name></trkpt>
<trkpt lat="52.692692" lon="05.981506"><ele>0.4</ele><time>2022-09-06T16:23:46Z</time><name>PT12874</name></trkpt>
<trkpt lat="52.692681" lon="05.981504"><ele>0.3</ele><time>2022-09-06T16:23:47Z</time><name>PT12875</name></trkpt>
<trkpt lat="52.692670" lon="05.981502"><ele>0.3</ele><time>2022-09-06T16:23:48Z</time><name>PT12876</name></trkpt>
<trkpt lat="52.692660" lon="05.981500"><ele>0.3</ele><time>2022-09-06T16:23:49Z</time><name>PT12877</name></trkpt>
<trkpt lat="52.692650" lon="05.981498"><ele>0.3</ele><time>2022-09-06T16:23:50Z</time><name>PT12878</name></trkpt>
<trkpt lat="52.692640" lon="05.981499"><ele>0.4</ele><time>2022-09-06T16:23:51Z</time><name>PT12879</name></trkpt>
<trkpt lat="52.692631" lon="05.981500"><ele>0.3</ele><time>2022-09-06T16:23:52Z</time><name>PT12880</name></trkpt>
<trkpt lat="52.692621" lon="05.981501"><ele>0.2</ele><time>2022-09-06T16:23:53Z</time><name>PT12881</name></trkpt>
<trkpt lat="52.692611" lon="05.981499"><ele>0.1</ele><time>2022-09-06T16:23:54Z</time><name>PT12882</name></trkpt>
<trkpt lat="52.692601" lon="05.981496"><ele>0.3</ele><time>2022-09-06T16:23:55Z</time><name>PT12883</name></trkpt>
<trkpt lat="52.692591" lon="05.981496"><ele>0.3</ele><time>2022-09-06T16:23:56Z</time><name>PT12884</name></trkpt>
<trkpt lat="52.692581" lon="05.981498"><ele>0.2</ele><time>2022-09-06T16:23:57Z</time><name>PT12885</name></trkpt>
<trkpt lat="52.692573" lon="05.981501"><ele>0.2</ele><time>2022-09-06T16:23:58Z</time><name>PT12886</name></trkpt>
<trkpt lat="52.692564" lon="05.981506"><ele>0.1</ele><time>2022-09-06T16:23:59Z</time><name>PT12887</name></trkpt>
<trkpt lat="52.692554" lon="05.981508"><ele>0.1</ele><time>2022-09-06T16:24:00Z</time><name>PT12888</name></trkpt>
<trkpt lat="52.692544" lon="05.981509"><ele>0</ele><time>2022-09-06T16:24:01Z</time><name>PT12889</name></trkpt>
<trkpt lat="52.692533" lon="05.981509"><ele>0</ele><time>2022-09-06T16:24:02Z</time><name>PT12890</name></trkpt>
<trkpt lat="52.692524" lon="05.981508"><ele>0</ele><time>2022-09-06T16:24:03Z</time><name>PT12891</name></trkpt>
<trkpt lat="52.692514" lon="05.981508"><ele>0.1</ele><time>2022-09-06T16:24:04Z</time><name>PT12892</name></trkpt>
<trkpt lat="52.692504" lon="05.981508"><ele>0.2</ele><time>2022-09-06T16:24:05Z</time><name>PT12893</name></trkpt>
<trkpt lat="52.692495" lon="05.981508"><ele>0.3</ele><time>2022-09-06T16:24:06Z</time><name>PT12894</name></trkpt>
<trkpt lat="52.692484" lon="05.981510"><ele>0.3</ele><time>2022-09-06T16:24:07Z</time><name>PT12895</name></trkpt>
<trkpt lat="52.692474" lon="05.981510"><ele>0.3</ele><time>2022-09-06T16:24:08Z</time><name>PT12896</name></trkpt>
<trkpt lat="52.692463" lon="05.981508"><ele>0.3</ele><time>2022-09-06T16:24:09Z</time><name>PT12897</name></trkpt>
<trkpt lat="52.692453" lon="05.981508"><ele>0.3</ele><time>2022-09-06T16:24:10Z</time><name>PT12898</name></trkpt>
<trkpt lat="52.692442" lon="05.981506"><ele>0.3</ele><time>2022-09-06T16:24:11Z</time><name>PT12899</name></trkpt>
<trkpt lat="52.692433" lon="05.981504"><ele>0.3</ele><time>2022-09-06T16:24:12Z</time><name>PT12900</name></trkpt>
<trkpt lat="52.692422" lon="05.981503"><ele>0.3</ele><time>2022-09-06T16:24:13Z</time><name>PT12901</name></trkpt>
<trkpt lat="52.692417" lon="05.981503"><ele>0.3</ele><time>2022-09-06T16:24:14Z</time><name>PT12902</name></trkpt>
<trkpt lat="52.692411" lon="05.981503"><ele>0.2</ele><time>2022-09-06T16:24:15Z</time><name>PT12903</name></trkpt>
<trkpt lat="52.692406" lon="05.981504"><ele>0.2</ele><time>2022-09-06T16:24:16Z</time><name>PT12904</name></trkpt>
<trkpt lat="52.692398" lon="05.981507"><ele>0</ele><time>2022-09-06T16:24:17Z</time><name>PT12905</name></trkpt>
<trkpt lat="52.692385" lon="05.981508"><ele>0</ele><time>2022-09-06T16:24:18Z</time><name>PT12906</name></trkpt>
<trkpt lat="52.692372" lon="05.981510"><ele>0.1</ele><time>2022-09-06T16:24:19Z</time><name>PT12907</name></trkpt>
<trkpt lat="52.692356" lon="05.981510"><ele>0.3</ele><time>2022-09-06T16:24:20Z</time><name>PT12908</name></trkpt>
<trkpt lat="52.692342" lon="05.981509"><ele>0.3</ele><time>2022-09-06T16:24:21Z</time><name>PT12909</name></trkpt>
<trkpt lat="52.692333" lon="05.981507"><ele>0.3</ele><time>2022-09-06T16:24:22Z</time><name>PT12910</name></trkpt>
<trkpt lat="52.692328" lon="05.981508"><ele>0.3</ele><time>2022-09-06T16:24:23Z</time><name>PT12911</name></trkpt>
<trkpt lat="52.692324" lon="05.981510"><ele>0.3</ele><time>2022-09-06T16:24:24Z</time><name>PT12912</name></trkpt>
<trkpt lat="52.692319" lon="05.981512"><ele>0.3</ele><time>2022-09-06T16:24:25Z</time><name>PT12913</name></trkpt>
<trkpt lat="52.692316" lon="05.981517"><ele>0.2</ele><time>2022-09-06T16:24:26Z</time><name>PT12914</name></trkpt>
<trkpt lat="52.692308" lon="05.981520"><ele>0</ele><time>2022-09-06T16:24:27Z</time><name>PT12915</name></trkpt>
<trkpt lat="52.692295" lon="05.981523"><ele>0.1</ele><time>2022-09-06T16:24:28Z</time><name>PT12916</name></trkpt>
<trkpt lat="52.692278" lon="05.981520"><ele>0.3</ele><time>2022-09-06T16:24:29Z</time><name>PT12917</name></trkpt>
<trkpt lat="52.692263" lon="05.981519"><ele>0.3</ele><time>2022-09-06T16:24:30Z</time><name>PT12918</name></trkpt>
<trkpt lat="52.692251" lon="05.981522"><ele>0.5</ele><time>2022-09-06T16:24:31Z</time><name>PT12919</name></trkpt>
<trkpt lat="52.692240" lon="05.981527"><ele>0.7</ele><time>2022-09-06T16:24:32Z</time><name>PT12920</name></trkpt>
<trkpt lat="52.692230" lon="05.981529"><ele>0.7</ele><time>2022-09-06T16:24:33Z</time><name>PT12921</name></trkpt>
<trkpt lat="52.692224" lon="05.981532"><ele>0.6</ele><time>2022-09-06T16:24:34Z</time><name>PT12922</name></trkpt>
<trkpt lat="52.692219" lon="05.981535"><ele>0.5</ele><time>2022-09-06T16:24:35Z</time><name>PT12923</name></trkpt>
<trkpt lat="52.692211" lon="05.981540"><ele>0.4</ele><time>2022-09-06T16:24:36Z</time><name>PT12924</name></trkpt>
<trkpt lat="52.692199" lon="05.981543"><ele>0.5</ele><time>2022-09-06T16:24:37Z</time><name>PT12925</name></trkpt>
<trkpt lat="52.692184" lon="05.981540"><ele>0.2</ele><time>2022-09-06T16:24:38Z</time><name>PT12926</name></trkpt>
<trkpt lat="52.692168" lon="05.981542"><ele>0.3</ele><time>2022-09-06T16:24:39Z</time><name>PT12927</name></trkpt>
<trkpt lat="52.692152" lon="05.981541"><ele>0.3</ele><time>2022-09-06T16:24:40Z</time><name>PT12928</name></trkpt>
<trkpt lat="52.692138" lon="05.981544"><ele>0.3</ele><time>2022-09-06T16:24:41Z</time><name>PT12929</name></trkpt>
<trkpt lat="52.692124" lon="05.981546"><ele>0.3</ele><time>2022-09-06T16:24:42Z</time><name>PT12930</name></trkpt>
<trkpt lat="52.692116" lon="05.981546"><ele>0.6</ele><time>2022-09-06T16:24:43Z</time><name>PT12931</name></trkpt>
<trkpt lat="52.692111" lon="05.981546"><ele>0.6</ele><time>2022-09-06T16:24:44Z</time><name>PT12932</name></trkpt>
<trkpt lat="52.692104" lon="05.981548"><ele>0.6</ele><time>2022-09-06T16:24:45Z</time><name>PT12933</name></trkpt>
<trkpt lat="52.692096" lon="05.981552"><ele>0.7</ele><time>2022-09-06T16:24:46Z</time><name>PT12934</name></trkpt>
<trkpt lat="52.692087" lon="05.981554"><ele>0.7</ele><time>2022-09-06T16:24:47Z</time><name>PT12935</name></trkpt>
<trkpt lat="52.692074" lon="05.981552"><ele>0.6</ele><time>2022-09-06T16:24:48Z</time><name>PT12936</name></trkpt>
<trkpt lat="52.692055" lon="05.981545"><ele>0.6</ele><time>2022-09-06T16:24:49Z</time><name>PT12937</name></trkpt>
<trkpt lat="52.692039" lon="05.981544"><ele>0.7</ele><time>2022-09-06T16:24:50Z</time><name>PT12938</name></trkpt>
<trkpt lat="52.692025" lon="05.981543"><ele>0.7</ele><time>2022-09-06T16:24:51Z</time><name>PT12939</name></trkpt>
<trkpt lat="52.692014" lon="05.981543"><ele>0.7</ele><time>2022-09-06T16:24:52Z</time><name>PT12940</name></trkpt>
<trkpt lat="52.692008" lon="05.981543"><ele>0.7</ele><time>2022-09-06T16:24:53Z</time><name>PT12941</name></trkpt>
<trkpt lat="52.691996" lon="05.981545"><ele>0.8</ele><time>2022-09-06T16:24:54Z</time><name>PT12942</name></trkpt>
<trkpt lat="52.691984" lon="05.981542"><ele>0.8</ele><time>2022-09-06T16:24:55Z</time><name>PT12943</name></trkpt>
<trkpt lat="52.691974" lon="05.981548"><ele>1.1</ele><time>2022-09-06T16:24:56Z</time><name>PT12944</name></trkpt>
<trkpt lat="52.691962" lon="05.981552"><ele>1.2</ele><time>2022-09-06T16:24:57Z</time><name>PT12945</name></trkpt>
<trkpt lat="52.691951" lon="05.981563"><ele>1.4</ele><time>2022-09-06T16:24:58Z</time><name>PT12946</name></trkpt>
<trkpt lat="52.691938" lon="05.981565"><ele>1.3</ele><time>2022-09-06T16:24:59Z</time><name>PT12947</name></trkpt>
<trkpt lat="52.691928" lon="05.981565"><ele>1.5</ele><time>2022-09-06T16:25:00Z</time><name>PT12948</name></trkpt>
<trkpt lat="52.691918" lon="05.981566"><ele>1.5</ele><time>2022-09-06T16:25:01Z</time><name>PT12949</name></trkpt>
<trkpt lat="52.691910" lon="05.981565"><ele>1.5</ele><time>2022-09-06T16:25:02Z</time><name>PT12950</name></trkpt>
<trkpt lat="52.691900" lon="05.981567"><ele>1.5</ele><time>2022-09-06T16:25:03Z</time><name>PT12951</name></trkpt>
<trkpt lat="52.691888" lon="05.981570"><ele>1.5</ele><time>2022-09-06T16:25:04Z</time><name>PT12952</name></trkpt>
<trkpt lat="52.691877" lon="05.981574"><ele>1.4</ele><time>2022-09-06T16:25:05Z</time><name>PT12953</name></trkpt>
<trkpt lat="52.691866" lon="05.981576"><ele>1.5</ele><time>2022-09-06T16:25:06Z</time><name>PT12954</name></trkpt>
<trkpt lat="52.691856" lon="05.981581"><ele>1.6</ele><time>2022-09-06T16:25:07Z</time><name>PT12955</name></trkpt>
<trkpt lat="52.691841" lon="05.981584"><ele>1.7</ele><time>2022-09-06T16:25:08Z</time><name>PT12956</name></trkpt>
<trkpt lat="52.691826" lon="05.981582"><ele>1.7</ele><time>2022-09-06T16:25:09Z</time><name>PT12957</name></trkpt>
<trkpt lat="52.691817" lon="05.981581"><ele>1.7</ele><time>2022-09-06T16:25:10Z</time><name>PT12958</name></trkpt>
<trkpt lat="52.691814" lon="05.981583"><ele>1.7</ele><time>2022-09-06T16:25:11Z</time><name>PT12959</name></trkpt>
<trkpt lat="52.691810" lon="05.981584"><ele>1.7</ele><time>2022-09-06T16:25:12Z</time><name>PT12960</name></trkpt>
<trkpt lat="52.691804" lon="05.981587"><ele>1.8</ele><time>2022-09-06T16:25:13Z</time><name>PT12961</name></trkpt>
<trkpt lat="52.691794" lon="05.981591"><ele>1.7</ele><time>2022-09-06T16:25:14Z</time><name>PT12962</name></trkpt>
<trkpt lat="52.691779" lon="05.981587"><ele>1.7</ele><time>2022-09-06T16:25:15Z</time><name>PT12963</name></trkpt>
<trkpt lat="52.691763" lon="05.981584"><ele>1.7</ele><time>2022-09-06T16:25:16Z</time><name>PT12964</name></trkpt>
<trkpt lat="52.691746" lon="05.981580"><ele>1.4</ele><time>2022-09-06T16:25:17Z</time><name>PT12965</name></trkpt>
<trkpt lat="52.691733" lon="05.981579"><ele>1.4</ele><time>2022-09-06T16:25:18Z</time><name>PT12966</name></trkpt>
<trkpt lat="52.691725" lon="05.981581"><ele>1.5</ele><time>2022-09-06T16:25:19Z</time><name>PT12967</name></trkpt>
<trkpt lat="52.691721" lon="05.981585"><ele>1.7</ele><time>2022-09-06T16:25:20Z</time><name>PT12968</name></trkpt>
<trkpt lat="52.691719" lon="05.981587"><ele>1.7</ele><time>2022-09-06T16:25:21Z</time><name>PT12969</name></trkpt>
<trkpt lat="52.691713" lon="05.981591"><ele>1.9</ele><time>2022-09-06T16:25:22Z</time><name>PT12970</name></trkpt>
<trkpt lat="52.691703" lon="05.981593"><ele>2</ele><time>2022-09-06T16:25:23Z</time><name>PT12971</name></trkpt>
<trkpt lat="52.691691" lon="05.981591"><ele>2</ele><time>2022-09-06T16:25:24Z</time><name>PT12972</name></trkpt>
<trkpt lat="52.691677" lon="05.981585"><ele>1.9</ele><time>2022-09-06T16:25:25Z</time><name>PT12973</name></trkpt>
<trkpt lat="52.691662" lon="05.981581"><ele>1.8</ele><time>2022-09-06T16:25:26Z</time><name>PT12974</name></trkpt>
<trkpt lat="52.691649" lon="05.981578"><ele>2</ele><time>2022-09-06T16:25:27Z</time><name>PT12975</name></trkpt>
<trkpt lat="52.691641" lon="05.981580"><ele>2</ele><time>2022-09-06T16:25:28Z</time><name>PT12976</name></trkpt>
<trkpt lat="52.691636" lon="05.981583"><ele>1.8</ele><time>2022-09-06T16:25:29Z</time><name>PT12977</name></trkpt>
<trkpt lat="52.691632" lon="05.981585"><ele>1.9</ele><time>2022-09-06T16:25:30Z</time><name>PT12978</name></trkpt>
<trkpt lat="52.691626" lon="05.981586"><ele>2.1</ele><time>2022-09-06T16:25:31Z</time><name>PT12979</name></trkpt>
<trkpt lat="52.691619" lon="05.981590"><ele>2.1</ele><time>2022-09-06T16:25:32Z</time><name>PT12980</name></trkpt>
<trkpt lat="52.691607" lon="05.981594"><ele>2.1</ele><time>2022-09-06T16:25:33Z</time><name>PT12981</name></trkpt>
<trkpt lat="52.691593" lon="05.981593"><ele>2.2</ele><time>2022-09-06T16:25:34Z</time><name>PT12982</name></trkpt>
<trkpt lat="52.691576" lon="05.981591"><ele>2.2</ele><time>2022-09-06T16:25:35Z</time><name>PT12983</name></trkpt>
<trkpt lat="52.691560" lon="05.981593"><ele>2.3</ele><time>2022-09-06T16:25:36Z</time><name>PT12984</name></trkpt>
<trkpt lat="52.691546" lon="05.981592"><ele>2.4</ele><time>2022-09-06T16:25:37Z</time><name>PT12985</name></trkpt>
<trkpt lat="52.691536" lon="05.981595"><ele>2.3</ele><time>2022-09-06T16:25:38Z</time><name>PT12986</name></trkpt>
<trkpt lat="52.691530" lon="05.981596"><ele>2.3</ele><time>2022-09-06T16:25:39Z</time><name>PT12987</name></trkpt>
<trkpt lat="52.691526" lon="05.981595"><ele>2.2</ele><time>2022-09-06T16:25:40Z</time><name>PT12988</name></trkpt>
<trkpt lat="52.691522" lon="05.981595"><ele>2.4</ele><time>2022-09-06T16:25:41Z</time><name>PT12989</name></trkpt>
<trkpt lat="52.691514" lon="05.981599"><ele>2.4</ele><time>2022-09-06T16:25:42Z</time><name>PT12990</name></trkpt>
<trkpt lat="52.691499" lon="05.981595"><ele>2.6</ele><time>2022-09-06T16:25:43Z</time><name>PT12991</name></trkpt>
<trkpt lat="52.691481" lon="05.981592"><ele>2.7</ele><time>2022-09-06T16:25:44Z</time><name>PT12992</name></trkpt>
<trkpt lat="52.691465" lon="05.981592"><ele>2.8</ele><time>2022-09-06T16:25:45Z</time><name>PT12993</name></trkpt>
<trkpt lat="52.691450" lon="05.981589"><ele>2.9</ele><time>2022-09-06T16:25:46Z</time><name>PT12994</name></trkpt>
<trkpt lat="52.691440" lon="05.981590"><ele>3</ele><time>2022-09-06T16:25:47Z</time><name>PT12995</name></trkpt>
<trkpt lat="52.691436" lon="05.981593"><ele>2.9</ele><time>2022-09-06T16:25:48Z</time><name>PT12996</name></trkpt>
<trkpt lat="52.691434" lon="05.981597"><ele>2.8</ele><time>2022-09-06T16:25:49Z</time><name>PT12997</name></trkpt>
<trkpt lat="52.691429" lon="05.981599"><ele>3</ele><time>2022-09-06T16:25:50Z</time><name>PT12998</name></trkpt>
<trkpt lat="52.691414" lon="05.981606"><ele>2.8</ele><time>2022-09-06T16:25:52Z</time><name>PT12999</name></trkpt>
<trkpt lat="52.691392" lon="05.981613"><ele>2.8</ele><time>2022-09-06T16:25:53Z</time><name>PT13000</name></trkpt>
<trkpt lat="52.691371" lon="05.981617"><ele>2.9</ele><time>2022-09-06T16:25:54Z</time><name>PT13001</name></trkpt>
<trkpt lat="52.691360" lon="05.981612"><ele>2.8</ele><time>2022-09-06T16:25:55Z</time><name>PT13002</name></trkpt>
<trkpt lat="52.691348" lon="05.981610"><ele>2.9</ele><time>2022-09-06T16:25:56Z</time><name>PT13003</name></trkpt>
<trkpt lat="52.691342" lon="05.981613"><ele>2.8</ele><time>2022-09-06T16:25:57Z</time><name>PT13004</name></trkpt>
<trkpt lat="52.691337" lon="05.981613"><ele>3</ele><time>2022-09-06T16:25:58Z</time><name>PT13005</name></trkpt>
<trkpt lat="52.691326" lon="05.981611"><ele>3.1</ele><time>2022-09-06T16:25:59Z</time><name>PT13006</name></trkpt>
<trkpt lat="52.691312" lon="05.981609"><ele>3.1</ele><time>2022-09-06T16:26:00Z</time><name>PT13007</name></trkpt>
<trkpt lat="52.691292" lon="05.981605"><ele>3.1</ele><time>2022-09-06T16:26:01Z</time><name>PT13008</name></trkpt>
<trkpt lat="52.691273" lon="05.981602"><ele>3.2</ele><time>2022-09-06T16:26:02Z</time><name>PT13009</name></trkpt>
<trkpt lat="52.691260" lon="05.981602"><ele>3.3</ele><time>2022-09-06T16:26:03Z</time><name>PT13010</name></trkpt>
<trkpt lat="52.691250" lon="05.981603"><ele>3.4</ele><time>2022-09-06T16:26:04Z</time><name>PT13011</name></trkpt>
<trkpt lat="52.691245" lon="05.981607"><ele>3.3</ele><time>2022-09-06T16:26:05Z</time><name>PT13012</name></trkpt>
<trkpt lat="52.691241" lon="05.981609"><ele>3.2</ele><time>2022-09-06T16:26:06Z</time><name>PT13013</name></trkpt>
<trkpt lat="52.691236" lon="05.981607"><ele>3.4</ele><time>2022-09-06T16:26:07Z</time><name>PT13014</name></trkpt>
<trkpt lat="52.691226" lon="05.981611"><ele>3.3</ele><time>2022-09-06T16:26:08Z</time><name>PT13015</name></trkpt>
<trkpt lat="52.691214" lon="05.981612"><ele>3.4</ele><time>2022-09-06T16:26:09Z</time><name>PT13016</name></trkpt>
<trkpt lat="52.691199" lon="05.981608"><ele>3.6</ele><time>2022-09-06T16:26:10Z</time><name>PT13017</name></trkpt>
<trkpt lat="52.691183" lon="05.981603"><ele>3.6</ele><time>2022-09-06T16:26:11Z</time><name>PT13018</name></trkpt>
<trkpt lat="52.691173" lon="05.981600"><ele>3.7</ele><time>2022-09-06T16:26:12Z</time><name>PT13019</name></trkpt>
<trkpt lat="52.691168" lon="05.981598"><ele>3.7</ele><time>2022-09-06T16:26:13Z</time><name>PT13020</name></trkpt>
<trkpt lat="52.691163" lon="05.981596"><ele>3.7</ele><time>2022-09-06T16:26:14Z</time><name>PT13021</name></trkpt>
<trkpt lat="52.691157" lon="05.981595"><ele>3.6</ele><time>2022-09-06T16:26:15Z</time><name>PT13022</name></trkpt>
<trkpt lat="52.691142" lon="05.981593"><ele>3.6</ele><time>2022-09-06T16:26:16Z</time><name>PT13023</name></trkpt>
<trkpt lat="52.691139" lon="05.981595"><ele>3.7</ele><time>2022-09-06T16:26:17Z</time><name>PT13024</name></trkpt>
<trkpt lat="52.691134" lon="05.981599"><ele>3.7</ele><time>2022-09-06T16:26:18Z</time><name>PT13025</name></trkpt>
<trkpt lat="52.691126" lon="05.981603"><ele>3.7</ele><time>2022-09-06T16:26:19Z</time><name>PT13026</name></trkpt>
<trkpt lat="52.691119" lon="05.981608"><ele>4.1</ele><time>2022-09-06T16:26:20Z</time><name>PT13027</name></trkpt>
<trkpt lat="52.691114" lon="05.981608"><ele>4.1</ele><time>2022-09-06T16:26:21Z</time><name>PT13028</name></trkpt>
<trkpt lat="52.691112" lon="05.981609"><ele>4.1</ele><time>2022-09-06T16:26:22Z</time><name>PT13029</name></trkpt>
<trkpt lat="52.691105" lon="05.981613"><ele>4.2</ele><time>2022-09-06T16:26:23Z</time><name>PT13030</name></trkpt>
<trkpt lat="52.691096" lon="05.981618"><ele>4.3</ele><time>2022-09-06T16:26:24Z</time><name>PT13031</name></trkpt>
<trkpt lat="52.691089" lon="05.981624"><ele>4.1</ele><time>2022-09-06T16:26:25Z</time><name>PT13032</name></trkpt>
<trkpt lat="52.691083" lon="05.981629"><ele>4.1</ele><time>2022-09-06T16:26:26Z</time><name>PT13033</name></trkpt>
<trkpt lat="52.691076" lon="05.981638"><ele>4.1</ele><time>2022-09-06T16:26:27Z</time><name>PT13034</name></trkpt>
<trkpt lat="52.691063" lon="05.981644"><ele>4.1</ele><time>2022-09-06T16:26:28Z</time><name>PT13035</name></trkpt>
<trkpt lat="52.691053" lon="05.981650"><ele>4.1</ele><time>2022-09-06T16:26:29Z</time><name>PT13036</name></trkpt>
<trkpt lat="52.691044" lon="05.981653"><ele>4.1</ele><time>2022-09-06T16:26:30Z</time><name>PT13037</name></trkpt>
<trkpt lat="52.691037" lon="05.981660"><ele>4.3</ele><time>2022-09-06T16:26:31Z</time><name>PT13038</name></trkpt>
<trkpt lat="52.691033" lon="05.981671"><ele>4.3</ele><time>2022-09-06T16:26:32Z</time><name>PT13039</name></trkpt>
<trkpt lat="52.691027" lon="05.981677"><ele>4.2</ele><time>2022-09-06T16:26:33Z</time><name>PT13040</name></trkpt>
<trkpt lat="52.691018" lon="05.981690"><ele>4.2</ele><time>2022-09-06T16:26:34Z</time><name>PT13041</name></trkpt>
<trkpt lat="52.691009" lon="05.981707"><ele>4.2</ele><time>2022-09-06T16:26:35Z</time><name>PT13042</name></trkpt>
<trkpt lat="52.691003" lon="05.981722"><ele>4.1</ele><time>2022-09-06T16:26:36Z</time><name>PT13043</name></trkpt>
<trkpt lat="52.690998" lon="05.981731"><ele>3.9</ele><time>2022-09-06T16:26:37Z</time><name>PT13044</name></trkpt>
<trkpt lat="52.690998" lon="05.981738"><ele>4.1</ele><time>2022-09-06T16:26:38Z</time><name>PT13045</name></trkpt>
<trkpt lat="52.690993" lon="05.981745"><ele>4.1</ele><time>2022-09-06T16:26:39Z</time><name>PT13046</name></trkpt>
<trkpt lat="52.690989" lon="05.981748"><ele>4.1</ele><time>2022-09-06T16:26:40Z</time><name>PT13047</name></trkpt>
<trkpt lat="52.690989" lon="05.981746"><ele>4.2</ele><time>2022-09-06T16:26:41Z</time><name>PT13048</name></trkpt>
<trkpt lat="52.690991" lon="05.981746"><ele>4.1</ele><time>2022-09-06T16:26:42Z</time><name>PT13049</name></trkpt>
<trkpt lat="52.690991" lon="05.981745"><ele>4.2</ele><time>2022-09-06T16:26:43Z</time><name>PT13050</name></trkpt>
<trkpt lat="52.690990" lon="05.981745"><ele>4.2</ele><time>2022-09-06T16:26:44Z</time><name>PT13051</name></trkpt>
<trkpt lat="52.690987" lon="05.981753"><ele>4.1</ele><time>2022-09-06T16:26:49Z</time><name>PT13052</name></trkpt>
<trkpt lat="52.690985" lon="05.981768"><ele>4.1</ele><time>2022-09-06T16:26:50Z</time><name>PT13053</name></trkpt>
<trkpt lat="52.690982" lon="05.981782"><ele>4.1</ele><time>2022-09-06T16:26:51Z</time><name>PT13054</name></trkpt>
<trkpt lat="52.690984" lon="05.981793"><ele>4</ele><time>2022-09-06T16:26:52Z</time><name>PT13055</name></trkpt>
<trkpt lat="52.690987" lon="05.981804"><ele>3.8</ele><time>2022-09-06T16:26:53Z</time><name>PT13056</name></trkpt>
<trkpt lat="52.690988" lon="05.981821"><ele>3.8</ele><time>2022-09-06T16:26:54Z</time><name>PT13057</name></trkpt>
<trkpt lat="52.690987" lon="05.981826"><ele>3.7</ele><time>2022-09-06T16:26:55Z</time><name>PT13058</name></trkpt>
<trkpt lat="52.690987" lon="05.981828"><ele>3.8</ele><time>2022-09-06T16:26:56Z</time><name>PT13059</name></trkpt>
<trkpt lat="52.690984" lon="05.981831"><ele>3.8</ele><time>2022-09-06T16:26:57Z</time><name>PT13060</name></trkpt>
<trkpt lat="52.690979" lon="05.981835"><ele>4.3</ele><time>2022-09-06T16:26:59Z</time><name>PT13061</name></trkpt>
<trkpt lat="52.690976" lon="05.981860"><ele>4.4</ele><time>2022-09-06T16:27:00Z</time><name>PT13062</name></trkpt>
<trkpt lat="52.690977" lon="05.981887"><ele>4.5</ele><time>2022-09-06T16:27:01Z</time><name>PT13063</name></trkpt>
<trkpt lat="52.690985" lon="05.981908"><ele>4.5</ele><time>2022-09-06T16:27:02Z</time><name>PT13064</name></trkpt>
<trkpt lat="52.690991" lon="05.981926"><ele>4.3</ele><time>2022-09-06T16:27:03Z</time><name>PT13065</name></trkpt>
<trkpt lat="52.690995" lon="05.981943"><ele>4.6</ele><time>2022-09-06T16:27:04Z</time><name>PT13066</name></trkpt>
<trkpt lat="52.691001" lon="05.981960"><ele>4.7</ele><time>2022-09-06T16:27:05Z</time><name>PT13067</name></trkpt>
<trkpt lat="52.691006" lon="05.981982"><ele>4.8</ele><time>2022-09-06T16:27:06Z</time><name>PT13068</name></trkpt>
<trkpt lat="52.691009" lon="05.981997"><ele>4.8</ele><time>2022-09-06T16:27:07Z</time><name>PT13069</name></trkpt>
<trkpt lat="52.691012" lon="05.982012"><ele>5.1</ele><time>2022-09-06T16:27:08Z</time><name>PT13070</name></trkpt>
<trkpt lat="52.691014" lon="05.982028"><ele>5.1</ele><time>2022-09-06T16:27:09Z</time><name>PT13071</name></trkpt>
<trkpt lat="52.691015" lon="05.982043"><ele>5</ele><time>2022-09-06T16:27:10Z</time><name>PT13072</name></trkpt>
<trkpt lat="52.691017" lon="05.982060"><ele>5</ele><time>2022-09-06T16:27:11Z</time><name>PT13073</name></trkpt>
<trkpt lat="52.691018" lon="05.982077"><ele>5.1</ele><time>2022-09-06T16:27:12Z</time><name>PT13074</name></trkpt>
<trkpt lat="52.691020" lon="05.982093"><ele>5</ele><time>2022-09-06T16:27:13Z</time><name>PT13075</name></trkpt>
<trkpt lat="52.691024" lon="05.982107"><ele>5.1</ele><time>2022-09-06T16:27:14Z</time><name>PT13076</name></trkpt>
<trkpt lat="52.691025" lon="05.982124"><ele>5.1</ele><time>2022-09-06T16:27:15Z</time><name>PT13077</name></trkpt>
<trkpt lat="52.691028" lon="05.982142"><ele>5.1</ele><time>2022-09-06T16:27:16Z</time><name>PT13078</name></trkpt>
<trkpt lat="52.691029" lon="05.982158"><ele>5.1</ele><time>2022-09-06T16:27:17Z</time><name>PT13079</name></trkpt>
<trkpt lat="52.691029" lon="05.982173"><ele>5.1</ele><time>2022-09-06T16:27:18Z</time><name>PT13080</name></trkpt>
<trkpt lat="52.691031" lon="05.982188"><ele>5</ele><time>2022-09-06T16:27:19Z</time><name>PT13081</name></trkpt>
<trkpt lat="52.691032" lon="05.982203"><ele>5</ele><time>2022-09-06T16:27:20Z</time><name>PT13082</name></trkpt>
<trkpt lat="52.691035" lon="05.982215"><ele>5.1</ele><time>2022-09-06T16:27:21Z</time><name>PT13083</name></trkpt>
<trkpt lat="52.691039" lon="05.982224"><ele>5.1</ele><time>2022-09-06T16:27:22Z</time><name>PT13084</name></trkpt>
<trkpt lat="52.691040" lon="05.982234"><ele>5.1</ele><time>2022-09-06T16:27:23Z</time><name>PT13085</name></trkpt>
<trkpt lat="52.691041" lon="05.982239"><ele>5.2</ele><time>2022-09-06T16:27:24Z</time><name>PT13086</name></trkpt>
<trkpt lat="52.691042" lon="05.982251"><ele>5.3</ele><time>2022-09-06T16:27:25Z</time><name>PT13087</name></trkpt>
<trkpt lat="52.691046" lon="05.982266"><ele>5.2</ele><time>2022-09-06T16:27:26Z</time><name>PT13088</name></trkpt>
<trkpt lat="52.691048" lon="05.982282"><ele>5.3</ele><time>2022-09-06T16:27:27Z</time><name>PT13089</name></trkpt>
<trkpt lat="52.691052" lon="05.982297"><ele>5.1</ele><time>2022-09-06T16:27:28Z</time><name>PT13090</name></trkpt>
<trkpt lat="52.691054" lon="05.982315"><ele>5.1</ele><time>2022-09-06T16:27:29Z</time><name>PT13091</name></trkpt>
<trkpt lat="52.691056" lon="05.982331"><ele>5.1</ele><time>2022-09-06T16:27:30Z</time><name>PT13092</name></trkpt>
<trkpt lat="52.691058" lon="05.982347"><ele>5.1</ele><time>2022-09-06T16:27:31Z</time><name>PT13093</name></trkpt>
<trkpt lat="52.691061" lon="05.982363"><ele>5.3</ele><time>2022-09-06T16:27:32Z</time><name>PT13094</name></trkpt>
<trkpt lat="52.691063" lon="05.982377"><ele>5.4</ele><time>2022-09-06T16:27:33Z</time><name>PT13095</name></trkpt>
<trkpt lat="52.691066" lon="05.982397"><ele>5.1</ele><time>2022-09-06T16:27:34Z</time><name>PT13096</name></trkpt>
<trkpt lat="52.691070" lon="05.982414"><ele>5.1</ele><time>2022-09-06T16:27:35Z</time><name>PT13097</name></trkpt>
<trkpt lat="52.691074" lon="05.982430"><ele>5.1</ele><time>2022-09-06T16:27:36Z</time><name>PT13098</name></trkpt>
<trkpt lat="52.691078" lon="05.982444"><ele>4.9</ele><time>2022-09-06T16:27:37Z</time><name>PT13099</name></trkpt>
<trkpt lat="52.691081" lon="05.982461"><ele>4.9</ele><time>2022-09-06T16:27:38Z</time><name>PT13100</name></trkpt>
<trkpt lat="52.691084" lon="05.982481"><ele>5.1</ele><time>2022-09-06T16:27:39Z</time><name>PT13101</name></trkpt>
<trkpt lat="52.691087" lon="05.982500"><ele>5</ele><time>2022-09-06T16:27:40Z</time><name>PT13102</name></trkpt>
<trkpt lat="52.691089" lon="05.982520"><ele>5</ele><time>2022-09-06T16:27:41Z</time><name>PT13103</name></trkpt>
<trkpt lat="52.691092" lon="05.982536"><ele>5.1</ele><time>2022-09-06T16:27:42Z</time><name>PT13104</name></trkpt>
<trkpt lat="52.691094" lon="05.982552"><ele>5.1</ele><time>2022-09-06T16:27:43Z</time><name>PT13105</name></trkpt>
<trkpt lat="52.691096" lon="05.982569"><ele>5.3</ele><time>2022-09-06T16:27:44Z</time><name>PT13106</name></trkpt>
<trkpt lat="52.691097" lon="05.982589"><ele>5.3</ele><time>2022-09-06T16:27:45Z</time><name>PT13107</name></trkpt>
<trkpt lat="52.691098" lon="05.982606"><ele>5.5</ele><time>2022-09-06T16:27:46Z</time><name>PT13108</name></trkpt>
<trkpt lat="52.691099" lon="05.982624"><ele>5.4</ele><time>2022-09-06T16:27:47Z</time><name>PT13109</name></trkpt>
<trkpt lat="52.691102" lon="05.982643"><ele>5.5</ele><time>2022-09-06T16:27:48Z</time><name>PT13110</name></trkpt>
<trkpt lat="52.691104" lon="05.982663"><ele>5.5</ele><time>2022-09-06T16:27:49Z</time><name>PT13111</name></trkpt>
<trkpt lat="52.691107" lon="05.982683"><ele>5.6</ele><time>2022-09-06T16:27:50Z</time><name>PT13112</name></trkpt>
<trkpt lat="52.691109" lon="05.982703"><ele>5.5</ele><time>2022-09-06T16:27:51Z</time><name>PT13113</name></trkpt>
<trkpt lat="52.691113" lon="05.982722"><ele>5.6</ele><time>2022-09-06T16:27:52Z</time><name>PT13114</name></trkpt>
<trkpt lat="52.691116" lon="05.982740"><ele>5.5</ele><time>2022-09-06T16:27:53Z</time><name>PT13115</name></trkpt>
<trkpt lat="52.691118" lon="05.982757"><ele>5.4</ele><time>2022-09-06T16:27:54Z</time><name>PT13116</name></trkpt>
<trkpt lat="52.691120" lon="05.982774"><ele>5.4</ele><time>2022-09-06T16:27:55Z</time><name>PT13117</name></trkpt>
<trkpt lat="52.691124" lon="05.982791"><ele>5.5</ele><time>2022-09-06T16:27:56Z</time><name>PT13118</name></trkpt>
<trkpt lat="52.691127" lon="05.982808"><ele>5.4</ele><time>2022-09-06T16:27:57Z</time><name>PT13119</name></trkpt>
<trkpt lat="52.691131" lon="05.982825"><ele>5.2</ele><time>2022-09-06T16:27:58Z</time><name>PT13120</name></trkpt>
<trkpt lat="52.691134" lon="05.982844"><ele>5.3</ele><time>2022-09-06T16:27:59Z</time><name>PT13121</name></trkpt>
<trkpt lat="52.691137" lon="05.982861"><ele>5.2</ele><time>2022-09-06T16:28:00Z</time><name>PT13122</name></trkpt>
<trkpt lat="52.691139" lon="05.982880"><ele>5.4</ele><time>2022-09-06T16:28:01Z</time><name>PT13123</name></trkpt>
<trkpt lat="52.691141" lon="05.982899"><ele>5.5</ele><time>2022-09-06T16:28:02Z</time><name>PT13124</name></trkpt>
<trkpt lat="52.691144" lon="05.982919"><ele>5.6</ele><time>2022-09-06T16:28:03Z</time><name>PT13125</name></trkpt>
<trkpt lat="52.691147" lon="05.982937"><ele>5.6</ele><time>2022-09-06T16:28:04Z</time><name>PT13126</name></trkpt>
<trkpt lat="52.691150" lon="05.982956"><ele>5.6</ele><time>2022-09-06T16:28:05Z</time><name>PT13127</name></trkpt>
<trkpt lat="52.691152" lon="05.982974"><ele>5.6</ele><time>2022-09-06T16:28:06Z</time><name>PT13128</name></trkpt>
<trkpt lat="52.691154" lon="05.982990"><ele>5.5</ele><time>2022-09-06T16:28:07Z</time><name>PT13129</name></trkpt>
<trkpt lat="52.691155" lon="05.983006"><ele>5.5</ele><time>2022-09-06T16:28:08Z</time><name>PT13130</name></trkpt>
<trkpt lat="52.691157" lon="05.983024"><ele>5.5</ele><time>2022-09-06T16:28:09Z</time><name>PT13131</name></trkpt>
<trkpt lat="52.691159" lon="05.983042"><ele>5.6</ele><time>2022-09-06T16:28:10Z</time><name>PT13132</name></trkpt>
<trkpt lat="52.691161" lon="05.983060"><ele>5.6</ele><time>2022-09-06T16:28:11Z</time><name>PT13133</name></trkpt>
<trkpt lat="52.691164" lon="05.983078"><ele>5.7</ele><time>2022-09-06T16:28:12Z</time><name>PT13134</name></trkpt>
<trkpt lat="52.691167" lon="05.983097"><ele>5.6</ele><time>2022-09-06T16:28:13Z</time><name>PT13135</name></trkpt>
<trkpt lat="52.691169" lon="05.983116"><ele>5.7</ele><time>2022-09-06T16:28:14Z</time><name>PT13136</name></trkpt>
<trkpt lat="52.691171" lon="05.983135"><ele>5.6</ele><time>2022-09-06T16:28:15Z</time><name>PT13137</name></trkpt>
<trkpt lat="52.691173" lon="05.983153"><ele>5.6</ele><time>2022-09-06T16:28:16Z</time><name>PT13138</name></trkpt>
<trkpt lat="52.691175" lon="05.983171"><ele>5.5</ele><time>2022-09-06T16:28:17Z</time><name>PT13139</name></trkpt>
<trkpt lat="52.691176" lon="05.983189"><ele>5.6</ele><time>2022-09-06T16:28:18Z</time><name>PT13140</name></trkpt>
<trkpt lat="52.691177" lon="05.983206"><ele>5.4</ele><time>2022-09-06T16:28:19Z</time><name>PT13141</name></trkpt>
<trkpt lat="52.691178" lon="05.983223"><ele>5.4</ele><time>2022-09-06T16:28:20Z</time><name>PT13142</name></trkpt>
<trkpt lat="52.691179" lon="05.983240"><ele>5.3</ele><time>2022-09-06T16:28:21Z</time><name>PT13143</name></trkpt>
<trkpt lat="52.691181" lon="05.983257"><ele>5.1</ele><time>2022-09-06T16:28:22Z</time><name>PT13144</name></trkpt>
<trkpt lat="52.691184" lon="05.983275"><ele>5</ele><time>2022-09-06T16:28:23Z</time><name>PT13145</name></trkpt>
<trkpt lat="52.691186" lon="05.983292"><ele>5.1</ele><time>2022-09-06T16:28:24Z</time><name>PT13146</name></trkpt>
<trkpt lat="52.691189" lon="05.983310"><ele>5.1</ele><time>2022-09-06T16:28:25Z</time><name>PT13147</name></trkpt>
<trkpt lat="52.691190" lon="05.983327"><ele>5.3</ele><time>2022-09-06T16:28:26Z</time><name>PT13148</name></trkpt>
<trkpt lat="52.691189" lon="05.983352"><ele>5.3</ele><time>2022-09-06T16:28:27Z</time><name>PT13149</name></trkpt>
<trkpt lat="52.691191" lon="05.983370"><ele>5.6</ele><time>2022-09-06T16:28:28Z</time><name>PT13150</name></trkpt>
<trkpt lat="52.691192" lon="05.983387"><ele>5.5</ele><time>2022-09-06T16:28:29Z</time><name>PT13151</name></trkpt>
<trkpt lat="52.691193" lon="05.983404"><ele>5.6</ele><time>2022-09-06T16:28:30Z</time><name>PT13152</name></trkpt>
<trkpt lat="52.691194" lon="05.983421"><ele>5.5</ele><time>2022-09-06T16:28:31Z</time><name>PT13153</name></trkpt>
<trkpt lat="52.691197" lon="05.983437"><ele>5.4</ele><time>2022-09-06T16:28:32Z</time><name>PT13154</name></trkpt>
<trkpt lat="52.691200" lon="05.983454"><ele>5.6</ele><time>2022-09-06T16:28:33Z</time><name>PT13155</name></trkpt>
<trkpt lat="52.691203" lon="05.983470"><ele>5.5</ele><time>2022-09-06T16:28:34Z</time><name>PT13156</name></trkpt>
<trkpt lat="52.691205" lon="05.983487"><ele>5.4</ele><time>2022-09-06T16:28:35Z</time><name>PT13157</name></trkpt>
<trkpt lat="52.691207" lon="05.983504"><ele>5.5</ele><time>2022-09-06T16:28:36Z</time><name>PT13158</name></trkpt>
<trkpt lat="52.691209" lon="05.983521"><ele>5.5</ele><time>2022-09-06T16:28:37Z</time><name>PT13159</name></trkpt>
<trkpt lat="52.691212" lon="05.983538"><ele>5.3</ele><time>2022-09-06T16:28:38Z</time><name>PT13160</name></trkpt>
<trkpt lat="52.691213" lon="05.983554"><ele>5.3</ele><time>2022-09-06T16:28:39Z</time><name>PT13161</name></trkpt>
<trkpt lat="52.691215" lon="05.983568"><ele>5.4</ele><time>2022-09-06T16:28:40Z</time><name>PT13162</name></trkpt>
<trkpt lat="52.691217" lon="05.983582"><ele>5.4</ele><time>2022-09-06T16:28:41Z</time><name>PT13163</name></trkpt>
<trkpt lat="52.691220" lon="05.983596"><ele>5.5</ele><time>2022-09-06T16:28:42Z</time><name>PT13164</name></trkpt>
<trkpt lat="52.691222" lon="05.983610"><ele>5.5</ele><time>2022-09-06T16:28:43Z</time><name>PT13165</name></trkpt>
<trkpt lat="52.691224" lon="05.983624"><ele>5.4</ele><time>2022-09-06T16:28:44Z</time><name>PT13166</name></trkpt>
<trkpt lat="52.691226" lon="05.983635"><ele>5.3</ele><time>2022-09-06T16:28:45Z</time><name>PT13167</name></trkpt>
<trkpt lat="52.691232" lon="05.983642"><ele>5.1</ele><time>2022-09-06T16:28:46Z</time><name>PT13168</name></trkpt>
<trkpt lat="52.691237" lon="05.983648"><ele>5.1</ele><time>2022-09-06T16:28:47Z</time><name>PT13169</name></trkpt>
<trkpt lat="52.691243" lon="05.983654"><ele>5.2</ele><time>2022-09-06T16:28:48Z</time><name>PT13170</name></trkpt>
<trkpt lat="52.691248" lon="05.983655"><ele>5.1</ele><time>2022-09-06T16:28:49Z</time><name>PT13171</name></trkpt>
<trkpt lat="52.691252" lon="05.983654"><ele>5.1</ele><time>2022-09-06T16:28:50Z</time><name>PT13172</name></trkpt>
<trkpt lat="52.691252" lon="05.983652"><ele>5.1</ele><time>2022-09-06T16:28:51Z</time><name>PT13173</name></trkpt>
<trkpt lat="52.691255" lon="05.983640"><ele>4.9</ele><time>2022-09-06T16:28:52Z</time><name>PT13174</name></trkpt>
<trkpt lat="52.691256" lon="05.983637"><ele>4.8</ele><time>2022-09-06T16:28:53Z</time><name>PT13175</name></trkpt>
<trkpt lat="52.691255" lon="05.983638"><ele>4.7</ele><time>2022-09-06T16:28:54Z</time><name>PT13176</name></trkpt>
<trkpt lat="52.691255" lon="05.983639"><ele>4.7</ele><time>2022-09-06T16:28:55Z</time><name>PT13177</name></trkpt>
<trkpt lat="52.691248" lon="05.983641"><ele>5.6</ele><time>2022-09-06T16:39:53Z</time><name>PT13178</name></trkpt>
<trkpt lat="52.691246" lon="05.983646"><ele>5.6</ele><time>2022-09-06T16:39:54Z</time><name>PT13179</name></trkpt>
<trkpt lat="52.691244" lon="05.983647"><ele>5.7</ele><time>2022-09-06T16:39:55Z</time><name>PT13180</name></trkpt>
<trkpt lat="52.691241" lon="05.983642"><ele>5.9</ele><time>2022-09-06T16:39:56Z</time><name>PT13181</name></trkpt>
<trkpt lat="52.691240" lon="05.983636"><ele>6.1</ele><time>2022-09-06T16:40:09Z</time><name>PT13182</name></trkpt>
<trkpt lat="52.691239" lon="05.983627"><ele>6</ele><time>2022-09-06T16:40:10Z</time><name>PT13183</name></trkpt>
<trkpt lat="52.691235" lon="05.983623"><ele>5.7</ele><time>2022-09-06T16:40:14Z</time><name>PT13184</name></trkpt>
<trkpt lat="52.691233" lon="05.983641"><ele>6</ele><time>2022-09-06T16:40:15Z</time><name>PT13185</name></trkpt>
<trkpt lat="52.691230" lon="05.983657"><ele>6.1</ele><time>2022-09-06T16:40:16Z</time><name>PT13186</name></trkpt>
<trkpt lat="52.691236" lon="05.983666"><ele>6.1</ele><time>2022-09-06T16:40:17Z</time><name>PT13187</name></trkpt>
<trkpt lat="52.691238" lon="05.983675"><ele>6.1</ele><time>2022-09-06T16:40:18Z</time><name>PT13188</name></trkpt>
<trkpt lat="52.691243" lon="05.983687"><ele>6.1</ele><time>2022-09-06T16:40:19Z</time><name>PT13189</name></trkpt>
<trkpt lat="52.691242" lon="05.983698"><ele>6</ele><time>2022-09-06T16:40:20Z</time><name>PT13190</name></trkpt>
<trkpt lat="52.691239" lon="05.983697"><ele>6.1</ele><time>2022-09-06T16:40:21Z</time><name>PT13191</name></trkpt>
<trkpt lat="52.691233" lon="05.983699"><ele>6.1</ele><time>2022-09-06T16:40:22Z</time><name>PT13192</name></trkpt>
<trkpt lat="52.691232" lon="05.983711"><ele>6.3</ele><time>2022-09-06T16:40:23Z</time><name>PT13193</name></trkpt>
<trkpt lat="52.691230" lon="05.983727"><ele>6.3</ele><time>2022-09-06T16:40:24Z</time><name>PT13194</name></trkpt>
<trkpt lat="52.691230" lon="05.983742"><ele>6.5</ele><time>2022-09-06T16:40:25Z</time><name>PT13195</name></trkpt>
<trkpt lat="52.691227" lon="05.983757"><ele>6.6</ele><time>2022-09-06T16:40:26Z</time><name>PT13196</name></trkpt>
<trkpt lat="52.691226" lon="05.983776"><ele>6.6</ele><time>2022-09-06T16:40:27Z</time><name>PT13197</name></trkpt>
<trkpt lat="52.691229" lon="05.983794"><ele>6.6</ele><time>2022-09-06T16:40:28Z</time><name>PT13198</name></trkpt>
<trkpt lat="52.691229" lon="05.983810"><ele>6.4</ele><time>2022-09-06T16:40:29Z</time><name>PT13199</name></trkpt>
<trkpt lat="52.691231" lon="05.983827"><ele>6.3</ele><time>2022-09-06T16:40:30Z</time><name>PT13200</name></trkpt>
<trkpt lat="52.691232" lon="05.983844"><ele>6.2</ele><time>2022-09-06T16:40:31Z</time><name>PT13201</name></trkpt>
<trkpt lat="52.691235" lon="05.983862"><ele>6.4</ele><time>2022-09-06T16:40:32Z</time><name>PT13202</name></trkpt>
<trkpt lat="52.691236" lon="05.983878"><ele>6.4</ele><time>2022-09-06T16:40:33Z</time><name>PT13203</name></trkpt>
<trkpt lat="52.691235" lon="05.983892"><ele>6.4</ele><time>2022-09-06T16:40:34Z</time><name>PT13204</name></trkpt>
<trkpt lat="52.691238" lon="05.983905"><ele>6.4</ele><time>2022-09-06T16:40:35Z</time><name>PT13205</name></trkpt>
<trkpt lat="52.691238" lon="05.983918"><ele>6.1</ele><time>2022-09-06T16:40:36Z</time><name>PT13206</name></trkpt>
<trkpt lat="52.691238" lon="05.983933"><ele>5.9</ele><time>2022-09-06T16:40:37Z</time><name>PT13207</name></trkpt>
<trkpt lat="52.691240" lon="05.983951"><ele>6.1</ele><time>2022-09-06T16:40:38Z</time><name>PT13208</name></trkpt>
<trkpt lat="52.691245" lon="05.983967"><ele>6</ele><time>2022-09-06T16:40:39Z</time><name>PT13209</name></trkpt>
<trkpt lat="52.691247" lon="05.983982"><ele>6</ele><time>2022-09-06T16:40:40Z</time><name>PT13210</name></trkpt>
<trkpt lat="52.691249" lon="05.983997"><ele>6.1</ele><time>2022-09-06T16:40:41Z</time><name>PT13211</name></trkpt>
<trkpt lat="52.691253" lon="05.984009"><ele>6.2</ele><time>2022-09-06T16:40:42Z</time><name>PT13212</name></trkpt>
<trkpt lat="52.691256" lon="05.984022"><ele>6.3</ele><time>2022-09-06T16:40:43Z</time><name>PT13213</name></trkpt>
<trkpt lat="52.691258" lon="05.984038"><ele>6.5</ele><time>2022-09-06T16:40:44Z</time><name>PT13214</name></trkpt>
<trkpt lat="52.691257" lon="05.984056"><ele>6.6</ele><time>2022-09-06T16:40:45Z</time><name>PT13215</name></trkpt>
<trkpt lat="52.691257" lon="05.984070"><ele>6.5</ele><time>2022-09-06T16:40:46Z</time><name>PT13216</name></trkpt>
<trkpt lat="52.691260" lon="05.984087"><ele>6.4</ele><time>2022-09-06T16:40:47Z</time><name>PT13217</name></trkpt>
<trkpt lat="52.691261" lon="05.984106"><ele>6.4</ele><time>2022-09-06T16:40:48Z</time><name>PT13218</name></trkpt>
<trkpt lat="52.691261" lon="05.984123"><ele>6.2</ele><time>2022-09-06T16:40:49Z</time><name>PT13219</name></trkpt>
<trkpt lat="52.691260" lon="05.984143"><ele>6.2</ele><time>2022-09-06T16:40:50Z</time><name>PT13220</name></trkpt>
<trkpt lat="52.691260" lon="05.984160"><ele>6.2</ele><time>2022-09-06T16:40:51Z</time><name>PT13221</name></trkpt>
<trkpt lat="52.691260" lon="05.984179"><ele>6.2</ele><time>2022-09-06T16:40:52Z</time><name>PT13222</name></trkpt>
<trkpt lat="52.691262" lon="05.984198"><ele>6.1</ele><time>2022-09-06T16:40:53Z</time><name>PT13223</name></trkpt>
<trkpt lat="52.691260" lon="05.984214"><ele>6.1</ele><time>2022-09-06T16:40:54Z</time><name>PT13224</name></trkpt>
<trkpt lat="52.691262" lon="05.984234"><ele>6.1</ele><time>2022-09-06T16:40:55Z</time><name>PT13225</name></trkpt>
<trkpt lat="52.691263" lon="05.984252"><ele>6.1</ele><time>2022-09-06T16:40:56Z</time><name>PT13226</name></trkpt>
<trkpt lat="52.691265" lon="05.984269"><ele>6.1</ele><time>2022-09-06T16:40:57Z</time><name>PT13227</name></trkpt>
<trkpt lat="52.691267" lon="05.984288"><ele>6.2</ele><time>2022-09-06T16:40:58Z</time><name>PT13228</name></trkpt>
<trkpt lat="52.691267" lon="05.984308"><ele>6.3</ele><time>2022-09-06T16:40:59Z</time><name>PT13229</name></trkpt>
<trkpt lat="52.691267" lon="05.984328"><ele>6.1</ele><time>2022-09-06T16:41:00Z</time><name>PT13230</name></trkpt>
<trkpt lat="52.691271" lon="05.984349"><ele>6.1</ele><time>2022-09-06T16:41:01Z</time><name>PT13231</name></trkpt>
<trkpt lat="52.691276" lon="05.984370"><ele>6.1</ele><time>2022-09-06T16:41:02Z</time><name>PT13232</name></trkpt>
<trkpt lat="52.691277" lon="05.984390"><ele>6.1</ele><time>2022-09-06T16:41:03Z</time><name>PT13233</name></trkpt>
<trkpt lat="52.691278" lon="05.984413"><ele>6.1</ele><time>2022-09-06T16:41:04Z</time><name>PT13234</name></trkpt>
<trkpt lat="52.691277" lon="05.984431"><ele>6.2</ele><time>2022-09-06T16:41:05Z</time><name>PT13235</name></trkpt>
<trkpt lat="52.691278" lon="05.984450"><ele>6.4</ele><time>2022-09-06T16:41:06Z</time><name>PT13236</name></trkpt>
<trkpt lat="52.691279" lon="05.984470"><ele>6.4</ele><time>2022-09-06T16:41:07Z</time><name>PT13237</name></trkpt>
<trkpt lat="52.691279" lon="05.984488"><ele>6.3</ele><time>2022-09-06T16:41:08Z</time><name>PT13238</name></trkpt>
<trkpt lat="52.691277" lon="05.984507"><ele>6.2</ele><time>2022-09-06T16:41:09Z</time><name>PT13239</name></trkpt>
<trkpt lat="52.691277" lon="05.984528"><ele>6</ele><time>2022-09-06T16:41:10Z</time><name>PT13240</name></trkpt>
<trkpt lat="52.691279" lon="05.984547"><ele>5.8</ele><time>2022-09-06T16:41:11Z</time><name>PT13241</name></trkpt>
<trkpt lat="52.691282" lon="05.984567"><ele>5.8</ele><time>2022-09-06T16:41:12Z</time><name>PT13242</name></trkpt>
<trkpt lat="52.691283" lon="05.984588"><ele>6</ele><time>2022-09-06T16:41:13Z</time><name>PT13243</name></trkpt>
<trkpt lat="52.691286" lon="05.984609"><ele>6</ele><time>2022-09-06T16:41:14Z</time><name>PT13244</name></trkpt>
<trkpt lat="52.691289" lon="05.984627"><ele>6.1</ele><time>2022-09-06T16:41:15Z</time><name>PT13245</name></trkpt>
<trkpt lat="52.691290" lon="05.984645"><ele>6.2</ele><time>2022-09-06T16:41:16Z</time><name>PT13246</name></trkpt>
<trkpt lat="52.691292" lon="05.984661"><ele>6.4</ele><time>2022-09-06T16:41:17Z</time><name>PT13247</name></trkpt>
<trkpt lat="52.691294" lon="05.984678"><ele>6.3</ele><time>2022-09-06T16:41:18Z</time><name>PT13248</name></trkpt>
<trkpt lat="52.691298" lon="05.984696"><ele>6.4</ele><time>2022-09-06T16:41:19Z</time><name>PT13249</name></trkpt>
<trkpt lat="52.691300" lon="05.984715"><ele>6.6</ele><time>2022-09-06T16:41:20Z</time><name>PT13250</name></trkpt>
<trkpt lat="52.691298" lon="05.984732"><ele>6.5</ele><time>2022-09-06T16:41:21Z</time><name>PT13251</name></trkpt>
<trkpt lat="52.691302" lon="05.984751"><ele>6.3</ele><time>2022-09-06T16:41:22Z</time><name>PT13252</name></trkpt>
<trkpt lat="52.691304" lon="05.984771"><ele>6.4</ele><time>2022-09-06T16:41:23Z</time><name>PT13253</name></trkpt>
<trkpt lat="52.691307" lon="05.984787"><ele>6.3</ele><time>2022-09-06T16:41:24Z</time><name>PT13254</name></trkpt>
<trkpt lat="52.691311" lon="05.984806"><ele>6.2</ele><time>2022-09-06T16:41:25Z</time><name>PT13255</name></trkpt>
<trkpt lat="52.691313" lon="05.984824"><ele>6.3</ele><time>2022-09-06T16:41:26Z</time><name>PT13256</name></trkpt>
<trkpt lat="52.691313" lon="05.984840"><ele>6.1</ele><time>2022-09-06T16:41:27Z</time><name>PT13257</name></trkpt>
<trkpt lat="52.691314" lon="05.984860"><ele>6.1</ele><time>2022-09-06T16:41:28Z</time><name>PT13258</name></trkpt>
<trkpt lat="52.691316" lon="05.984878"><ele>6.1</ele><time>2022-09-06T16:41:29Z</time><name>PT13259</name></trkpt>
<trkpt lat="52.691317" lon="05.984896"><ele>6.1</ele><time>2022-09-06T16:41:30Z</time><name>PT13260</name></trkpt>
<trkpt lat="52.691314" lon="05.984914"><ele>6.1</ele><time>2022-09-06T16:41:31Z</time><name>PT13261</name></trkpt>
<trkpt lat="52.691314" lon="05.984935"><ele>6.2</ele><time>2022-09-06T16:41:32Z</time><name>PT13262</name></trkpt>
<trkpt lat="52.691315" lon="05.984951"><ele>6.2</ele><time>2022-09-06T16:41:33Z</time><name>PT13263</name></trkpt>
<trkpt lat="52.691317" lon="05.984969"><ele>6.3</ele><time>2022-09-06T16:41:34Z</time><name>PT13264</name></trkpt>
<trkpt lat="52.691320" lon="05.984984"><ele>6.2</ele><time>2022-09-06T16:41:35Z</time><name>PT13265</name></trkpt>
<trkpt lat="52.691325" lon="05.984997"><ele>6.2</ele><time>2022-09-06T16:41:36Z</time><name>PT13266</name></trkpt>
<trkpt lat="52.691327" lon="05.985012"><ele>6.1</ele><time>2022-09-06T16:41:37Z</time><name>PT13267</name></trkpt>
<trkpt lat="52.691329" lon="05.985030"><ele>5.9</ele><time>2022-09-06T16:41:38Z</time><name>PT13268</name></trkpt>
<trkpt lat="52.691331" lon="05.985050"><ele>5.9</ele><time>2022-09-06T16:41:39Z</time><name>PT13269</name></trkpt>
<trkpt lat="52.691331" lon="05.985067"><ele>5.9</ele><time>2022-09-06T16:41:40Z</time><name>PT13270</name></trkpt>
<trkpt lat="52.691333" lon="05.985083"><ele>6.1</ele><time>2022-09-06T16:41:41Z</time><name>PT13271</name></trkpt>
<trkpt lat="52.691334" lon="05.985099"><ele>6.1</ele><time>2022-09-06T16:41:42Z</time><name>PT13272</name></trkpt>
<trkpt lat="52.691335" lon="05.985116"><ele>6.3</ele><time>2022-09-06T16:41:43Z</time><name>PT13273</name></trkpt>
<trkpt lat="52.691335" lon="05.985134"><ele>6.5</ele><time>2022-09-06T16:41:44Z</time><name>PT13274</name></trkpt>
<trkpt lat="52.691337" lon="05.985151"><ele>6.6</ele><time>2022-09-06T16:41:45Z</time><name>PT13275</name></trkpt>
<trkpt lat="52.691337" lon="05.985168"><ele>6.6</ele><time>2022-09-06T16:41:46Z</time><name>PT13276</name></trkpt>
<trkpt lat="52.691337" lon="05.985185"><ele>6.5</ele><time>2022-09-06T16:41:47Z</time><name>PT13277</name></trkpt>
<trkpt lat="52.691337" lon="05.985200"><ele>6.4</ele><time>2022-09-06T16:41:48Z</time><name>PT13278</name></trkpt>
<trkpt lat="52.691336" lon="05.985216"><ele>6.3</ele><time>2022-09-06T16:41:49Z</time><name>PT13279</name></trkpt>
<trkpt lat="52.691334" lon="05.985233"><ele>6.3</ele><time>2022-09-06T16:41:50Z</time><name>PT13280</name></trkpt>
<trkpt lat="52.691333" lon="05.985250"><ele>6.2</ele><time>2022-09-06T16:41:51Z</time><name>PT13281</name></trkpt>
<trkpt lat="52.691333" lon="05.985271"><ele>6.4</ele><time>2022-09-06T16:41:52Z</time><name>PT13282</name></trkpt>
<trkpt lat="52.691335" lon="05.985291"><ele>6.6</ele><time>2022-09-06T16:41:53Z</time><name>PT13283</name></trkpt>
<trkpt lat="52.691340" lon="05.985307"><ele>6.4</ele><time>2022-09-06T16:41:54Z</time><name>PT13284</name></trkpt>
<trkpt lat="52.691341" lon="05.985322"><ele>6.4</ele><time>2022-09-06T16:41:55Z</time><name>PT13285</name></trkpt>
<trkpt lat="52.691342" lon="05.985336"><ele>6.2</ele><time>2022-09-06T16:41:56Z</time><name>PT13286</name></trkpt>
<trkpt lat="52.691339" lon="05.985352"><ele>6.3</ele><time>2022-09-06T16:41:57Z</time><name>PT13287</name></trkpt>
<trkpt lat="52.691338" lon="05.985371"><ele>6.2</ele><time>2022-09-06T16:41:58Z</time><name>PT13288</name></trkpt>
<trkpt lat="52.691340" lon="05.985391"><ele>6.3</ele><time>2022-09-06T16:41:59Z</time><name>PT13289</name></trkpt>
<trkpt lat="52.691340" lon="05.985406"><ele>6.2</ele><time>2022-09-06T16:42:00Z</time><name>PT13290</name></trkpt>
<trkpt lat="52.691342" lon="05.985425"><ele>6.3</ele><time>2022-09-06T16:42:01Z</time><name>PT13291</name></trkpt>
<trkpt lat="52.691350" lon="05.985450"><ele>6.3</ele><time>2022-09-06T16:42:02Z</time><name>PT13292</name></trkpt>
<trkpt lat="52.691350" lon="05.985467"><ele>6.2</ele><time>2022-09-06T16:42:03Z</time><name>PT13293</name></trkpt>
<trkpt lat="52.691350" lon="05.985491"><ele>6.2</ele><time>2022-09-06T16:42:04Z</time><name>PT13294</name></trkpt>
<trkpt lat="52.691349" lon="05.985514"><ele>6.3</ele><time>2022-09-06T16:42:05Z</time><name>PT13295</name></trkpt>
<trkpt lat="52.691351" lon="05.985538"><ele>6.4</ele><time>2022-09-06T16:42:06Z</time><name>PT13296</name></trkpt>
<trkpt lat="52.691350" lon="05.985558"><ele>6.3</ele><time>2022-09-06T16:42:07Z</time><name>PT13297</name></trkpt>
<trkpt lat="52.691353" lon="05.985580"><ele>6.4</ele><time>2022-09-06T16:42:08Z</time><name>PT13298</name></trkpt>
<trkpt lat="52.691352" lon="05.985601"><ele>6.4</ele><time>2022-09-06T16:42:09Z</time><name>PT13299</name></trkpt>
<trkpt lat="52.691350" lon="05.985619"><ele>6.4</ele><time>2022-09-06T16:42:10Z</time><name>PT13300</name></trkpt>
<trkpt lat="52.691353" lon="05.985634"><ele>6.5</ele><time>2022-09-06T16:42:11Z</time><name>PT13301</name></trkpt>
<trkpt lat="52.691353" lon="05.985649"><ele>6.2</ele><time>2022-09-06T16:42:12Z</time><name>PT13302</name></trkpt>
<trkpt lat="52.691350" lon="05.985666"><ele>6.1</ele><time>2022-09-06T16:42:13Z</time><name>PT13303</name></trkpt>
<trkpt lat="52.691348" lon="05.985684"><ele>6.4</ele><time>2022-09-06T16:42:14Z</time><name>PT13304</name></trkpt>
<trkpt lat="52.691348" lon="05.985701"><ele>6.4</ele><time>2022-09-06T16:42:15Z</time><name>PT13305</name></trkpt>
<trkpt lat="52.691350" lon="05.985717"><ele>6.3</ele><time>2022-09-06T16:42:16Z</time><name>PT13306</name></trkpt>
<trkpt lat="52.691348" lon="05.985736"><ele>6.3</ele><time>2022-09-06T16:42:17Z</time><name>PT13307</name></trkpt>
<trkpt lat="52.691349" lon="05.985754"><ele>6.3</ele><time>2022-09-06T16:42:18Z</time><name>PT13308</name></trkpt>
<trkpt lat="52.691351" lon="05.985770"><ele>6.1</ele><time>2022-09-06T16:42:19Z</time><name>PT13309</name></trkpt>
<trkpt lat="52.691350" lon="05.985793"><ele>6.1</ele><time>2022-09-06T16:42:20Z</time><name>PT13310</name></trkpt>
<trkpt lat="52.691347" lon="05.985815"><ele>6.1</ele><time>2022-09-06T16:42:21Z</time><name>PT13311</name></trkpt>
<trkpt lat="52.691347" lon="05.985837"><ele>6.2</ele><time>2022-09-06T16:42:22Z</time><name>PT13312</name></trkpt>
<trkpt lat="52.691344" lon="05.985859"><ele>6.3</ele><time>2022-09-06T16:42:23Z</time><name>PT13313</name></trkpt>
<trkpt lat="52.691346" lon="05.985882"><ele>6.4</ele><time>2022-09-06T16:42:24Z</time><name>PT13314</name></trkpt>
<trkpt lat="52.691347" lon="05.985904"><ele>6.6</ele><time>2022-09-06T16:42:25Z</time><name>PT13315</name></trkpt>
<trkpt lat="52.691350" lon="05.985925"><ele>6.6</ele><time>2022-09-06T16:42:26Z</time><name>PT13316</name></trkpt>
<trkpt lat="52.691352" lon="05.985945"><ele>6.5</ele><time>2022-09-06T16:42:27Z</time><name>PT13317</name></trkpt>
<trkpt lat="52.691353" lon="05.985965"><ele>6.4</ele><time>2022-09-06T16:42:28Z</time><name>PT13318</name></trkpt>
<trkpt lat="52.691352" lon="05.985982"><ele>6.2</ele><time>2022-09-06T16:42:29Z</time><name>PT13319</name></trkpt>
<trkpt lat="52.691353" lon="05.986004"><ele>6.2</ele><time>2022-09-06T16:42:30Z</time><name>PT13320</name></trkpt>
<trkpt lat="52.691351" lon="05.986027"><ele>6.3</ele><time>2022-09-06T16:42:31Z</time><name>PT13321</name></trkpt>
<trkpt lat="52.691350" lon="05.986045"><ele>6.3</ele><time>2022-09-06T16:42:32Z</time><name>PT13322</name></trkpt>
<trkpt lat="52.691350" lon="05.986068"><ele>6.3</ele><time>2022-09-06T16:42:33Z</time><name>PT13323</name></trkpt>
<trkpt lat="52.691348" lon="05.986085"><ele>6.1</ele><time>2022-09-06T16:42:34Z</time><name>PT13324</name></trkpt>
<trkpt lat="52.691349" lon="05.986105"><ele>6.1</ele><time>2022-09-06T16:42:35Z</time><name>PT13325</name></trkpt>
<trkpt lat="52.691350" lon="05.986121"><ele>6.1</ele><time>2022-09-06T16:42:36Z</time><name>PT13326</name></trkpt>
<trkpt lat="52.691350" lon="05.986140"><ele>6.1</ele><time>2022-09-06T16:42:37Z</time><name>PT13327</name></trkpt>
<trkpt lat="52.691353" lon="05.986158"><ele>6.5</ele><time>2022-09-06T16:42:38Z</time><name>PT13328</name></trkpt>
<trkpt lat="52.691356" lon="05.986178"><ele>6.5</ele><time>2022-09-06T16:42:39Z</time><name>PT13329</name></trkpt>
<trkpt lat="52.691354" lon="05.986201"><ele>6.5</ele><time>2022-09-06T16:42:40Z</time><name>PT13330</name></trkpt>
<trkpt lat="52.691355" lon="05.986221"><ele>6.3</ele><time>2022-09-06T16:42:41Z</time><name>PT13331</name></trkpt>
<trkpt lat="52.691356" lon="05.986242"><ele>6.2</ele><time>2022-09-06T16:42:42Z</time><name>PT13332</name></trkpt>
<trkpt lat="52.691355" lon="05.986260"><ele>5.9</ele><time>2022-09-06T16:42:43Z</time><name>PT13333</name></trkpt>
<trkpt lat="52.691353" lon="05.986280"><ele>6.1</ele><time>2022-09-06T16:42:44Z</time><name>PT13334</name></trkpt>
<trkpt lat="52.691351" lon="05.986298"><ele>6.1</ele><time>2022-09-06T16:42:45Z</time><name>PT13335</name></trkpt>
<trkpt lat="52.691351" lon="05.986317"><ele>6.1</ele><time>2022-09-06T16:42:46Z</time><name>PT13336</name></trkpt>
<trkpt lat="52.691351" lon="05.986337"><ele>6.1</ele><time>2022-09-06T16:42:47Z</time><name>PT13337</name></trkpt>
<trkpt lat="52.691350" lon="05.986360"><ele>6.3</ele><time>2022-09-06T16:42:48Z</time><name>PT13338</name></trkpt>
<trkpt lat="52.691348" lon="05.986382"><ele>6.4</ele><time>2022-09-06T16:42:49Z</time><name>PT13339</name></trkpt>
<trkpt lat="52.691348" lon="05.986402"><ele>6.3</ele><time>2022-09-06T16:42:50Z</time><name>PT13340</name></trkpt>
<trkpt lat="52.691347" lon="05.986421"><ele>6.3</ele><time>2022-09-06T16:42:51Z</time><name>PT13341</name></trkpt>
<trkpt lat="52.691346" lon="05.986441"><ele>6.3</ele><time>2022-09-06T16:42:52Z</time><name>PT13342</name></trkpt>
<trkpt lat="52.691347" lon="05.986461"><ele>6.2</ele><time>2022-09-06T16:42:53Z</time><name>PT13343</name></trkpt>
<trkpt lat="52.691346" lon="05.986479"><ele>6.2</ele><time>2022-09-06T16:42:54Z</time><name>PT13344</name></trkpt>
<trkpt lat="52.691346" lon="05.986499"><ele>6.2</ele><time>2022-09-06T16:42:55Z</time><name>PT13345</name></trkpt>
<trkpt lat="52.691344" lon="05.986518"><ele>6.5</ele><time>2022-09-06T16:42:56Z</time><name>PT13346</name></trkpt>
<trkpt lat="52.691343" lon="05.986538"><ele>6.5</ele><time>2022-09-06T16:42:57Z</time><name>PT13347</name></trkpt>
<trkpt lat="52.691343" lon="05.986556"><ele>6.3</ele><time>2022-09-06T16:42:58Z</time><name>PT13348</name></trkpt>
<trkpt lat="52.691342" lon="05.986575"><ele>6.4</ele><time>2022-09-06T16:42:59Z</time><name>PT13349</name></trkpt>
<trkpt lat="52.691342" lon="05.986593"><ele>6.4</ele><time>2022-09-06T16:43:00Z</time><name>PT13350</name></trkpt>
<trkpt lat="52.691343" lon="05.986614"><ele>6.5</ele><time>2022-09-06T16:43:01Z</time><name>PT13351</name></trkpt>
<trkpt lat="52.691341" lon="05.986633"><ele>6.4</ele><time>2022-09-06T16:43:02Z</time><name>PT13352</name></trkpt>
<trkpt lat="52.691339" lon="05.986650"><ele>6.3</ele><time>2022-09-06T16:43:03Z</time><name>PT13353</name></trkpt>
<trkpt lat="52.691338" lon="05.986669"><ele>6.2</ele><time>2022-09-06T16:43:04Z</time><name>PT13354</name></trkpt>
<trkpt lat="52.691338" lon="05.986690"><ele>6.2</ele><time>2022-09-06T16:43:05Z</time><name>PT13355</name></trkpt>
<trkpt lat="52.691338" lon="05.986710"><ele>6.2</ele><time>2022-09-06T16:43:06Z</time><name>PT13356</name></trkpt>
<trkpt lat="52.691338" lon="05.986728"><ele>6.4</ele><time>2022-09-06T16:43:07Z</time><name>PT13357</name></trkpt>
<trkpt lat="52.691339" lon="05.986748"><ele>6.5</ele><time>2022-09-06T16:43:08Z</time><name>PT13358</name></trkpt>
<trkpt lat="52.691336" lon="05.986768"><ele>6.4</ele><time>2022-09-06T16:43:09Z</time><name>PT13359</name></trkpt>
<trkpt lat="52.691336" lon="05.986785"><ele>6.3</ele><time>2022-09-06T16:43:10Z</time><name>PT13360</name></trkpt>
<trkpt lat="52.691335" lon="05.986803"><ele>6.4</ele><time>2022-09-06T16:43:11Z</time><name>PT13361</name></trkpt>
<trkpt lat="52.691335" lon="05.986821"><ele>6.2</ele><time>2022-09-06T16:43:12Z</time><name>PT13362</name></trkpt>
<trkpt lat="52.691335" lon="05.986839"><ele>6.2</ele><time>2022-09-06T16:43:13Z</time><name>PT13363</name></trkpt>
<trkpt lat="52.691335" lon="05.986857"><ele>6.2</ele><time>2022-09-06T16:43:14Z</time><name>PT13364</name></trkpt>
<trkpt lat="52.691340" lon="05.986874"><ele>6.4</ele><time>2022-09-06T16:43:15Z</time><name>PT13365</name></trkpt>
<trkpt lat="52.691339" lon="05.986889"><ele>6.3</ele><time>2022-09-06T16:43:16Z</time><name>PT13366</name></trkpt>
<trkpt lat="52.691338" lon="05.986904"><ele>6.4</ele><time>2022-09-06T16:43:17Z</time><name>PT13367</name></trkpt>
<trkpt lat="52.691336" lon="05.986922"><ele>6.4</ele><time>2022-09-06T16:43:18Z</time><name>PT13368</name></trkpt>
<trkpt lat="52.691335" lon="05.986939"><ele>6.3</ele><time>2022-09-06T16:43:19Z</time><name>PT13369</name></trkpt>
<trkpt lat="52.691334" lon="05.986958"><ele>6.1</ele><time>2022-09-06T16:43:20Z</time><name>PT13370</name></trkpt>
<trkpt lat="52.691334" lon="05.986976"><ele>6.1</ele><time>2022-09-06T16:43:21Z</time><name>PT13371</name></trkpt>
<trkpt lat="52.691331" lon="05.986996"><ele>5.9</ele><time>2022-09-06T16:43:22Z</time><name>PT13372</name></trkpt>
<trkpt lat="52.691330" lon="05.987015"><ele>6</ele><time>2022-09-06T16:43:23Z</time><name>PT13373</name></trkpt>
<trkpt lat="52.691329" lon="05.987034"><ele>6</ele><time>2022-09-06T16:43:24Z</time><name>PT13374</name></trkpt>
<trkpt lat="52.691331" lon="05.987053"><ele>6.2</ele><time>2022-09-06T16:43:25Z</time><name>PT13375</name></trkpt>
<trkpt lat="52.691329" lon="05.987072"><ele>6.1</ele><time>2022-09-06T16:43:26Z</time><name>PT13376</name></trkpt>
<trkpt lat="52.691329" lon="05.987091"><ele>6.3</ele><time>2022-09-06T16:43:27Z</time><name>PT13377</name></trkpt>
<trkpt lat="52.691330" lon="05.987109"><ele>6.4</ele><time>2022-09-06T16:43:28Z</time><name>PT13378</name></trkpt>
<trkpt lat="52.691331" lon="05.987128"><ele>6.3</ele><time>2022-09-06T16:43:29Z</time><name>PT13379</name></trkpt>
<trkpt lat="52.691333" lon="05.987146"><ele>6.3</ele><time>2022-09-06T16:43:30Z</time><name>PT13380</name></trkpt>
<trkpt lat="52.691335" lon="05.987165"><ele>6.2</ele><time>2022-09-06T16:43:31Z</time><name>PT13381</name></trkpt>
<trkpt lat="52.691333" lon="05.987183"><ele>6.3</ele><time>2022-09-06T16:43:32Z</time><name>PT13382</name></trkpt>
<trkpt lat="52.691331" lon="05.987201"><ele>6.2</ele><time>2022-09-06T16:43:33Z</time><name>PT13383</name></trkpt>
<trkpt lat="52.691331" lon="05.987219"><ele>6.2</ele><time>2022-09-06T16:43:34Z</time><name>PT13384</name></trkpt>
<trkpt lat="52.691331" lon="05.987239"><ele>6.4</ele><time>2022-09-06T16:43:35Z</time><name>PT13385</name></trkpt>
<trkpt lat="52.691331" lon="05.987255"><ele>6.2</ele><time>2022-09-06T16:43:36Z</time><name>PT13386</name></trkpt>
<trkpt lat="52.691330" lon="05.987270"><ele>6.1</ele><time>2022-09-06T16:43:37Z</time><name>PT13387</name></trkpt>
<trkpt lat="52.691329" lon="05.987285"><ele>6.3</ele><time>2022-09-06T16:43:38Z</time><name>PT13388</name></trkpt>
<trkpt lat="52.691328" lon="05.987300"><ele>6.2</ele><time>2022-09-06T16:43:39Z</time><name>PT13389</name></trkpt>
<trkpt lat="52.691327" lon="05.987319"><ele>6.2</ele><time>2022-09-06T16:43:40Z</time><name>PT13390</name></trkpt>
<trkpt lat="52.691328" lon="05.987336"><ele>6.2</ele><time>2022-09-06T16:43:41Z</time><name>PT13391</name></trkpt>
<trkpt lat="52.691328" lon="05.987349"><ele>6.2</ele><time>2022-09-06T16:43:42Z</time><name>PT13392</name></trkpt>
<trkpt lat="52.691330" lon="05.987366"><ele>6.1</ele><time>2022-09-06T16:43:43Z</time><name>PT13393</name></trkpt>
<trkpt lat="52.691330" lon="05.987381"><ele>6.1</ele><time>2022-09-06T16:43:44Z</time><name>PT13394</name></trkpt>
<trkpt lat="52.691330" lon="05.987398"><ele>6.1</ele><time>2022-09-06T16:43:45Z</time><name>PT13395</name></trkpt>
<trkpt lat="52.691329" lon="05.987416"><ele>6.1</ele><time>2022-09-06T16:43:46Z</time><name>PT13396</name></trkpt>
<trkpt lat="52.691328" lon="05.987433"><ele>5.9</ele><time>2022-09-06T16:43:47Z</time><name>PT13397</name></trkpt>
<trkpt lat="52.691327" lon="05.987451"><ele>6</ele><time>2022-09-06T16:43:48Z</time><name>PT13398</name></trkpt>
<trkpt lat="52.691328" lon="05.987475"><ele>6</ele><time>2022-09-06T16:43:49Z</time><name>PT13399</name></trkpt>
<trkpt lat="52.691330" lon="05.987492"><ele>6</ele><time>2022-09-06T16:43:50Z</time><name>PT13400</name></trkpt>
<trkpt lat="52.691329" lon="05.987513"><ele>6.1</ele><time>2022-09-06T16:43:51Z</time><name>PT13401</name></trkpt>
<trkpt lat="52.691330" lon="05.987532"><ele>6.2</ele><time>2022-09-06T16:43:52Z</time><name>PT13402</name></trkpt>
<trkpt lat="52.691332" lon="05.987548"><ele>6.4</ele><time>2022-09-06T16:43:53Z</time><name>PT13403</name></trkpt>
<trkpt lat="52.691333" lon="05.987562"><ele>6.5</ele><time>2022-09-06T16:43:54Z</time><name>PT13404</name></trkpt>
<trkpt lat="52.691332" lon="05.987579"><ele>6.5</ele><time>2022-09-06T16:43:55Z</time><name>PT13405</name></trkpt>
<trkpt lat="52.691330" lon="05.987597"><ele>6.2</ele><time>2022-09-06T16:43:56Z</time><name>PT13406</name></trkpt>
<trkpt lat="52.691329" lon="05.987618"><ele>6.1</ele><time>2022-09-06T16:43:57Z</time><name>PT13407</name></trkpt>
<trkpt lat="52.691329" lon="05.987638"><ele>6.1</ele><time>2022-09-06T16:43:58Z</time><name>PT13408</name></trkpt>
<trkpt lat="52.691328" lon="05.987660"><ele>6</ele><time>2022-09-06T16:43:59Z</time><name>PT13409</name></trkpt>
<trkpt lat="52.691327" lon="05.987682"><ele>6</ele><time>2022-09-06T16:44:00Z</time><name>PT13410</name></trkpt>
<trkpt lat="52.691327" lon="05.987703"><ele>6.1</ele><time>2022-09-06T16:44:01Z</time><name>PT13411</name></trkpt>
<trkpt lat="52.691325" lon="05.987725"><ele>6</ele><time>2022-09-06T16:44:02Z</time><name>PT13412</name></trkpt>
<trkpt lat="52.691323" lon="05.987750"><ele>6.1</ele><time>2022-09-06T16:44:03Z</time><name>PT13413</name></trkpt>
<trkpt lat="52.691321" lon="05.987771"><ele>6.1</ele><time>2022-09-06T16:44:04Z</time><name>PT13414</name></trkpt>
<trkpt lat="52.691322" lon="05.987792"><ele>6</ele><time>2022-09-06T16:44:05Z</time><name>PT13415</name></trkpt>
<trkpt lat="52.691323" lon="05.987811"><ele>6.1</ele><time>2022-09-06T16:44:06Z</time><name>PT13416</name></trkpt>
<trkpt lat="52.691325" lon="05.987831"><ele>6.1</ele><time>2022-09-06T16:44:07Z</time><name>PT13417</name></trkpt>
<trkpt lat="52.691326" lon="05.987851"><ele>6.2</ele><time>2022-09-06T16:44:08Z</time><name>PT13418</name></trkpt>
<trkpt lat="52.691325" lon="05.987874"><ele>6.2</ele><time>2022-09-06T16:44:09Z</time><name>PT13419</name></trkpt>
<trkpt lat="52.691325" lon="05.987894"><ele>6.1</ele><time>2022-09-06T16:44:10Z</time><name>PT13420</name></trkpt>
<trkpt lat="52.691327" lon="05.987913"><ele>6.1</ele><time>2022-09-06T16:44:11Z</time><name>PT13421</name></trkpt>
<trkpt lat="52.691326" lon="05.987932"><ele>6.1</ele><time>2022-09-06T16:44:12Z</time><name>PT13422</name></trkpt>
<trkpt lat="52.691325" lon="05.987952"><ele>6.2</ele><time>2022-09-06T16:44:13Z</time><name>PT13423</name></trkpt>
<trkpt lat="52.691326" lon="05.987970"><ele>6.1</ele><time>2022-09-06T16:44:14Z</time><name>PT13424</name></trkpt>
<trkpt lat="52.691324" lon="05.987990"><ele>6.2</ele><time>2022-09-06T16:44:15Z</time><name>PT13425</name></trkpt>
<trkpt lat="52.691322" lon="05.988009"><ele>6.2</ele><time>2022-09-06T16:44:16Z</time><name>PT13426</name></trkpt>
<trkpt lat="52.691320" lon="05.988025"><ele>6.1</ele><time>2022-09-06T16:44:17Z</time><name>PT13427</name></trkpt>
<trkpt lat="52.691320" lon="05.988045"><ele>6.2</ele><time>2022-09-06T16:44:18Z</time><name>PT13428</name></trkpt>
<trkpt lat="52.691321" lon="05.988065"><ele>6.1</ele><time>2022-09-06T16:44:19Z</time><name>PT13429</name></trkpt>
<trkpt lat="52.691321" lon="05.988080"><ele>6.1</ele><time>2022-09-06T16:44:20Z</time><name>PT13430</name></trkpt>
<trkpt lat="52.691319" lon="05.988098"><ele>6.1</ele><time>2022-09-06T16:44:21Z</time><name>PT13431</name></trkpt>
<trkpt lat="52.691319" lon="05.988118"><ele>6.1</ele><time>2022-09-06T16:44:22Z</time><name>PT13432</name></trkpt>
<trkpt lat="52.691320" lon="05.988136"><ele>6.2</ele><time>2022-09-06T16:44:23Z</time><name>PT13433</name></trkpt>
<trkpt lat="52.691321" lon="05.988152"><ele>6.1</ele><time>2022-09-06T16:44:24Z</time><name>PT13434</name></trkpt>
<trkpt lat="52.691321" lon="05.988170"><ele>6</ele><time>2022-09-06T16:44:25Z</time><name>PT13435</name></trkpt>
<trkpt lat="52.691322" lon="05.988188"><ele>5.8</ele><time>2022-09-06T16:44:26Z</time><name>PT13436</name></trkpt>
<trkpt lat="52.691322" lon="05.988206"><ele>5.8</ele><time>2022-09-06T16:44:27Z</time><name>PT13437</name></trkpt>
<trkpt lat="52.691325" lon="05.988225"><ele>5.9</ele><time>2022-09-06T16:44:28Z</time><name>PT13438</name></trkpt>
<trkpt lat="52.691326" lon="05.988243"><ele>5.9</ele><time>2022-09-06T16:44:29Z</time><name>PT13439</name></trkpt>
<trkpt lat="52.691328" lon="05.988266"><ele>5.8</ele><time>2022-09-06T16:44:30Z</time><name>PT13440</name></trkpt>
<trkpt lat="52.691327" lon="05.988285"><ele>5.8</ele><time>2022-09-06T16:44:31Z</time><name>PT13441</name></trkpt>
<trkpt lat="52.691330" lon="05.988304"><ele>5.6</ele><time>2022-09-06T16:44:32Z</time><name>PT13442</name></trkpt>
<trkpt lat="52.691334" lon="05.988324"><ele>5.6</ele><time>2022-09-06T16:44:33Z</time><name>PT13443</name></trkpt>
<trkpt lat="52.691337" lon="05.988340"><ele>5.6</ele><time>2022-09-06T16:44:34Z</time><name>PT13444</name></trkpt>
<trkpt lat="52.691337" lon="05.988358"><ele>5.7</ele><time>2022-09-06T16:44:35Z</time><name>PT13445</name></trkpt>
<trkpt lat="52.691337" lon="05.988376"><ele>5.8</ele><time>2022-09-06T16:44:36Z</time><name>PT13446</name></trkpt>
<trkpt lat="52.691336" lon="05.988395"><ele>5.7</ele><time>2022-09-06T16:44:37Z</time><name>PT13447</name></trkpt>
<trkpt lat="52.691337" lon="05.988415"><ele>5.8</ele><time>2022-09-06T16:44:38Z</time><name>PT13448</name></trkpt>
<trkpt lat="52.691338" lon="05.988431"><ele>5.8</ele><time>2022-09-06T16:44:39Z</time><name>PT13449</name></trkpt>
<trkpt lat="52.691341" lon="05.988449"><ele>5.8</ele><time>2022-09-06T16:44:40Z</time><name>PT13450</name></trkpt>
<trkpt lat="52.691342" lon="05.988468"><ele>5.8</ele><time>2022-09-06T16:44:41Z</time><name>PT13451</name></trkpt>
<trkpt lat="52.691345" lon="05.988488"><ele>5.7</ele><time>2022-09-06T16:44:42Z</time><name>PT13452</name></trkpt>
<trkpt lat="52.691348" lon="05.988507"><ele>5.7</ele><time>2022-09-06T16:44:43Z</time><name>PT13453</name></trkpt>
<trkpt lat="52.691350" lon="05.988525"><ele>5.8</ele><time>2022-09-06T16:44:44Z</time><name>PT13454</name></trkpt>
<trkpt lat="52.691351" lon="05.988547"><ele>5.8</ele><time>2022-09-06T16:44:45Z</time><name>PT13455</name></trkpt>
<trkpt lat="52.691353" lon="05.988569"><ele>5.6</ele><time>2022-09-06T16:44:46Z</time><name>PT13456</name></trkpt>
<trkpt lat="52.691353" lon="05.988588"><ele>5.6</ele><time>2022-09-06T16:44:47Z</time><name>PT13457</name></trkpt>
<trkpt lat="52.691353" lon="05.988610"><ele>5.6</ele><time>2022-09-06T16:44:48Z</time><name>PT13458</name></trkpt>
<trkpt lat="52.691354" lon="05.988628"><ele>5.6</ele><time>2022-09-06T16:44:49Z</time><name>PT13459</name></trkpt>
<trkpt lat="52.691351" lon="05.988649"><ele>5.5</ele><time>2022-09-06T16:44:50Z</time><name>PT13460</name></trkpt>
<trkpt lat="52.691350" lon="05.988669"><ele>5.6</ele><time>2022-09-06T16:44:51Z</time><name>PT13461</name></trkpt>
<trkpt lat="52.691350" lon="05.988688"><ele>5.5</ele><time>2022-09-06T16:44:52Z</time><name>PT13462</name></trkpt>
<trkpt lat="52.691351" lon="05.988707"><ele>5.5</ele><time>2022-09-06T16:44:53Z</time><name>PT13463</name></trkpt>
<trkpt lat="52.691351" lon="05.988728"><ele>5.5</ele><time>2022-09-06T16:44:54Z</time><name>PT13464</name></trkpt>
<trkpt lat="52.691350" lon="05.988750"><ele>5.4</ele><time>2022-09-06T16:44:55Z</time><name>PT13465</name></trkpt>
<trkpt lat="52.691351" lon="05.988770"><ele>5.6</ele><time>2022-09-06T16:44:56Z</time><name>PT13466</name></trkpt>
<trkpt lat="52.691353" lon="05.988789"><ele>5.6</ele><time>2022-09-06T16:44:57Z</time><name>PT13467</name></trkpt>
<trkpt lat="52.691355" lon="05.988807"><ele>5.4</ele><time>2022-09-06T16:44:58Z</time><name>PT13468</name></trkpt>
<trkpt lat="52.691360" lon="05.988829"><ele>5.6</ele><time>2022-09-06T16:44:59Z</time><name>PT13469</name></trkpt>
<trkpt lat="52.691360" lon="05.988847"><ele>5.6</ele><time>2022-09-06T16:45:00Z</time><name>PT13470</name></trkpt>
<trkpt lat="52.691360" lon="05.988868"><ele>5.5</ele><time>2022-09-06T16:45:01Z</time><name>PT13471</name></trkpt>
<trkpt lat="52.691360" lon="05.988888"><ele>5.6</ele><time>2022-09-06T16:45:02Z</time><name>PT13472</name></trkpt>
<trkpt lat="52.691360" lon="05.988906"><ele>5.7</ele><time>2022-09-06T16:45:03Z</time><name>PT13473</name></trkpt>
<trkpt lat="52.691359" lon="05.988923"><ele>5.6</ele><time>2022-09-06T16:45:04Z</time><name>PT13474</name></trkpt>
<trkpt lat="52.691360" lon="05.988939"><ele>5.6</ele><time>2022-09-06T16:45:05Z</time><name>PT13475</name></trkpt>
<trkpt lat="52.691362" lon="05.988960"><ele>5.5</ele><time>2022-09-06T16:45:06Z</time><name>PT13476</name></trkpt>
<trkpt lat="52.691362" lon="05.988981"><ele>5.4</ele><time>2022-09-06T16:45:07Z</time><name>PT13477</name></trkpt>
<trkpt lat="52.691362" lon="05.989000"><ele>5.6</ele><time>2022-09-06T16:45:08Z</time><name>PT13478</name></trkpt>
<trkpt lat="52.691363" lon="05.989022"><ele>5.8</ele><time>2022-09-06T16:45:09Z</time><name>PT13479</name></trkpt>
<trkpt lat="52.691363" lon="05.989038"><ele>5.8</ele><time>2022-09-06T16:45:10Z</time><name>PT13480</name></trkpt>
<trkpt lat="52.691361" lon="05.989057"><ele>5.8</ele><time>2022-09-06T16:45:11Z</time><name>PT13481</name></trkpt>
<trkpt lat="52.691359" lon="05.989077"><ele>5.8</ele><time>2022-09-06T16:45:12Z</time><name>PT13482</name></trkpt>
<trkpt lat="52.691358" lon="05.989095"><ele>5.7</ele><time>2022-09-06T16:45:13Z</time><name>PT13483</name></trkpt>
<trkpt lat="52.691358" lon="05.989116"><ele>5.7</ele><time>2022-09-06T16:45:14Z</time><name>PT13484</name></trkpt>
<trkpt lat="52.691357" lon="05.989137"><ele>5.6</ele><time>2022-09-06T16:45:15Z</time><name>PT13485</name></trkpt>
<trkpt lat="52.691354" lon="05.989155"><ele>5.6</ele><time>2022-09-06T16:45:16Z</time><name>PT13486</name></trkpt>
<trkpt lat="52.691354" lon="05.989174"><ele>5.6</ele><time>2022-09-06T16:45:17Z</time><name>PT13487</name></trkpt>
<trkpt lat="52.691353" lon="05.989194"><ele>5.6</ele><time>2022-09-06T16:45:18Z</time><name>PT13488</name></trkpt>
<trkpt lat="52.691353" lon="05.989214"><ele>5.6</ele><time>2022-09-06T16:45:19Z</time><name>PT13489</name></trkpt>
<trkpt lat="52.691351" lon="05.989229"><ele>5.6</ele><time>2022-09-06T16:45:20Z</time><name>PT13490</name></trkpt>
<trkpt lat="52.691348" lon="05.989245"><ele>5.6</ele><time>2022-09-06T16:45:21Z</time><name>PT13491</name></trkpt>
<trkpt lat="52.691343" lon="05.989260"><ele>5.8</ele><time>2022-09-06T16:45:22Z</time><name>PT13492</name></trkpt>
<trkpt lat="52.691340" lon="05.989276"><ele>5.7</ele><time>2022-09-06T16:45:23Z</time><name>PT13493</name></trkpt>
<trkpt lat="52.691335" lon="05.989294"><ele>5.8</ele><time>2022-09-06T16:45:24Z</time><name>PT13494</name></trkpt>
<trkpt lat="52.691332" lon="05.989312"><ele>5.7</ele><time>2022-09-06T16:45:25Z</time><name>PT13495</name></trkpt>
<trkpt lat="52.691329" lon="05.989326"><ele>5.6</ele><time>2022-09-06T16:45:26Z</time><name>PT13496</name></trkpt>
<trkpt lat="52.691327" lon="05.989343"><ele>5.5</ele><time>2022-09-06T16:45:27Z</time><name>PT13497</name></trkpt>
<trkpt lat="52.691325" lon="05.989360"><ele>5.4</ele><time>2022-09-06T16:45:28Z</time><name>PT13498</name></trkpt>
<trkpt lat="52.691323" lon="05.989379"><ele>5.3</ele><time>2022-09-06T16:45:29Z</time><name>PT13499</name></trkpt>
<trkpt lat="52.691322" lon="05.989397"><ele>5.4</ele><time>2022-09-06T16:45:30Z</time><name>PT13500</name></trkpt>
<trkpt lat="52.691320" lon="05.989415"><ele>5.4</ele><time>2022-09-06T16:45:31Z</time><name>PT13501</name></trkpt>
<trkpt lat="52.691318" lon="05.989432"><ele>5.3</ele><time>2022-09-06T16:45:32Z</time><name>PT13502</name></trkpt>
<trkpt lat="52.691316" lon="05.989448"><ele>5.3</ele><time>2022-09-06T16:45:33Z</time><name>PT13503</name></trkpt>
<trkpt lat="52.691314" lon="05.989462"><ele>5.5</ele><time>2022-09-06T16:45:34Z</time><name>PT13504</name></trkpt>
<trkpt lat="52.691310" lon="05.989477"><ele>5.4</ele><time>2022-09-06T16:45:35Z</time><name>PT13505</name></trkpt>
<trkpt lat="52.691306" lon="05.989493"><ele>5.5</ele><time>2022-09-06T16:45:36Z</time><name>PT13506</name></trkpt>
<trkpt lat="52.691304" lon="05.989509"><ele>5.7</ele><time>2022-09-06T16:45:37Z</time><name>PT13507</name></trkpt>
<trkpt lat="52.691301" lon="05.989521"><ele>5.6</ele><time>2022-09-06T16:45:38Z</time><name>PT13508</name></trkpt>
<trkpt lat="52.691298" lon="05.989537"><ele>5.7</ele><time>2022-09-06T16:45:39Z</time><name>PT13509</name></trkpt>
<trkpt lat="52.691296" lon="05.989551"><ele>5.7</ele><time>2022-09-06T16:45:40Z</time><name>PT13510</name></trkpt>
<trkpt lat="52.691293" lon="05.989567"><ele>5.7</ele><time>2022-09-06T16:45:41Z</time><name>PT13511</name></trkpt>
<trkpt lat="52.691290" lon="05.989582"><ele>5.7</ele><time>2022-09-06T16:45:42Z</time><name>PT13512</name></trkpt>
<trkpt lat="52.691286" lon="05.989597"><ele>5.6</ele><time>2022-09-06T16:45:43Z</time><name>PT13513</name></trkpt>
<trkpt lat="52.691282" lon="05.989613"><ele>5.7</ele><time>2022-09-06T16:45:44Z</time><name>PT13514</name></trkpt>
<trkpt lat="52.691278" lon="05.989627"><ele>5.6</ele><time>2022-09-06T16:45:45Z</time><name>PT13515</name></trkpt>
<trkpt lat="52.691272" lon="05.989644"><ele>5.6</ele><time>2022-09-06T16:45:46Z</time><name>PT13516</name></trkpt>
<trkpt lat="52.691268" lon="05.989660"><ele>5.6</ele><time>2022-09-06T16:45:47Z</time><name>PT13517</name></trkpt>
<trkpt lat="52.691264" lon="05.989676"><ele>5.6</ele><time>2022-09-06T16:45:48Z</time><name>PT13518</name></trkpt>
<trkpt lat="52.691262" lon="05.989693"><ele>5.6</ele><time>2022-09-06T16:45:49Z</time><name>PT13519</name></trkpt>
<trkpt lat="52.691260" lon="05.989711"><ele>5.5</ele><time>2022-09-06T16:45:50Z</time><name>PT13520</name></trkpt>
<trkpt lat="52.691257" lon="05.989730"><ele>5.5</ele><time>2022-09-06T16:45:51Z</time><name>PT13521</name></trkpt>
<trkpt lat="52.691255" lon="05.989748"><ele>5.5</ele><time>2022-09-06T16:45:52Z</time><name>PT13522</name></trkpt>
<trkpt lat="52.691253" lon="05.989765"><ele>5.4</ele><time>2022-09-06T16:45:53Z</time><name>PT13523</name></trkpt>
<trkpt lat="52.691248" lon="05.989781"><ele>5.6</ele><time>2022-09-06T16:45:54Z</time><name>PT13524</name></trkpt>
<trkpt lat="52.691244" lon="05.989796"><ele>5.6</ele><time>2022-09-06T16:45:55Z</time><name>PT13525</name></trkpt>
<trkpt lat="52.691239" lon="05.989811"><ele>5.6</ele><time>2022-09-06T16:45:56Z</time><name>PT13526</name></trkpt>
<trkpt lat="52.691235" lon="05.989827"><ele>5.6</ele><time>2022-09-06T16:45:57Z</time><name>PT13527</name></trkpt>
<trkpt lat="52.691232" lon="05.989845"><ele>5.6</ele><time>2022-09-06T16:45:58Z</time><name>PT13528</name></trkpt>
<trkpt lat="52.691228" lon="05.989865"><ele>5.9</ele><time>2022-09-06T16:45:59Z</time><name>PT13529</name></trkpt>
<trkpt lat="52.691226" lon="05.989883"><ele>5.9</ele><time>2022-09-06T16:46:00Z</time><name>PT13530</name></trkpt>
<trkpt lat="52.691221" lon="05.989901"><ele>6.1</ele><time>2022-09-06T16:46:01Z</time><name>PT13531</name></trkpt>
<trkpt lat="52.691215" lon="05.989921"><ele>6.1</ele><time>2022-09-06T16:46:02Z</time><name>PT13532</name></trkpt>
<trkpt lat="52.691211" lon="05.989940"><ele>6.1</ele><time>2022-09-06T16:46:03Z</time><name>PT13533</name></trkpt>
<trkpt lat="52.691207" lon="05.989957"><ele>5.9</ele><time>2022-09-06T16:46:04Z</time><name>PT13534</name></trkpt>
<trkpt lat="52.691202" lon="05.989971"><ele>5.7</ele><time>2022-09-06T16:46:05Z</time><name>PT13535</name></trkpt>
<trkpt lat="52.691196" lon="05.989989"><ele>5.6</ele><time>2022-09-06T16:46:06Z</time><name>PT13536</name></trkpt>
<trkpt lat="52.691192" lon="05.990006"><ele>5.5</ele><time>2022-09-06T16:46:07Z</time><name>PT13537</name></trkpt>
<trkpt lat="52.691189" lon="05.990022"><ele>5.4</ele><time>2022-09-06T16:46:08Z</time><name>PT13538</name></trkpt>
<trkpt lat="52.691186" lon="05.990039"><ele>5.5</ele><time>2022-09-06T16:46:09Z</time><name>PT13539</name></trkpt>
<trkpt lat="52.691184" lon="05.990055"><ele>5.6</ele><time>2022-09-06T16:46:10Z</time><name>PT13540</name></trkpt>
<trkpt lat="52.691180" lon="05.990072"><ele>5.7</ele><time>2022-09-06T16:46:11Z</time><name>PT13541</name></trkpt>
<trkpt lat="52.691176" lon="05.990086"><ele>5.7</ele><time>2022-09-06T16:46:12Z</time><name>PT13542</name></trkpt>
<trkpt lat="52.691170" lon="05.990102"><ele>5.7</ele><time>2022-09-06T16:46:13Z</time><name>PT13543</name></trkpt>
<trkpt lat="52.691164" lon="05.990120"><ele>5.7</ele><time>2022-09-06T16:46:14Z</time><name>PT13544</name></trkpt>
<trkpt lat="52.691158" lon="05.990137"><ele>5.6</ele><time>2022-09-06T16:46:15Z</time><name>PT13545</name></trkpt>
<trkpt lat="52.691153" lon="05.990152"><ele>5.7</ele><time>2022-09-06T16:46:16Z</time><name>PT13546</name></trkpt>
<trkpt lat="52.691148" lon="05.990168"><ele>5.9</ele><time>2022-09-06T16:46:17Z</time><name>PT13547</name></trkpt>
<trkpt lat="52.691144" lon="05.990184"><ele>5.8</ele><time>2022-09-06T16:46:18Z</time><name>PT13548</name></trkpt>
<trkpt lat="52.691140" lon="05.990199"><ele>5.9</ele><time>2022-09-06T16:46:19Z</time><name>PT13549</name></trkpt>
<trkpt lat="52.691136" lon="05.990215"><ele>5.8</ele><time>2022-09-06T16:46:20Z</time><name>PT13550</name></trkpt>
<trkpt lat="52.691134" lon="05.990229"><ele>5.7</ele><time>2022-09-06T16:46:21Z</time><name>PT13551</name></trkpt>
<trkpt lat="52.691130" lon="05.990248"><ele>5.6</ele><time>2022-09-06T16:46:22Z</time><name>PT13552</name></trkpt>
<trkpt lat="52.691126" lon="05.990262"><ele>5.3</ele><time>2022-09-06T16:46:23Z</time><name>PT13553</name></trkpt>
<trkpt lat="52.691122" lon="05.990278"><ele>5.4</ele><time>2022-09-06T16:46:24Z</time><name>PT13554</name></trkpt>
<trkpt lat="52.691116" lon="05.990292"><ele>5.5</ele><time>2022-09-06T16:46:25Z</time><name>PT13555</name></trkpt>
<trkpt lat="52.691108" lon="05.990306"><ele>5.5</ele><time>2022-09-06T16:46:26Z</time><name>PT13556</name></trkpt>
<trkpt lat="52.691103" lon="05.990320"><ele>5.6</ele><time>2022-09-06T16:46:27Z</time><name>PT13557</name></trkpt>
<trkpt lat="52.691097" lon="05.990335"><ele>5.6</ele><time>2022-09-06T16:46:28Z</time><name>PT13558</name></trkpt>
<trkpt lat="52.691091" lon="05.990348"><ele>5.6</ele><time>2022-09-06T16:46:29Z</time><name>PT13559</name></trkpt>
<trkpt lat="52.691084" lon="05.990361"><ele>5.6</ele><time>2022-09-06T16:46:30Z</time><name>PT13560</name></trkpt>
<trkpt lat="52.691078" lon="05.990376"><ele>5.8</ele><time>2022-09-06T16:46:31Z</time><name>PT13561</name></trkpt>
<trkpt lat="52.691075" lon="05.990386"><ele>6.1</ele><time>2022-09-06T16:46:32Z</time><name>PT13562</name></trkpt>
<trkpt lat="52.691068" lon="05.990401"><ele>6</ele><time>2022-09-06T16:46:33Z</time><name>PT13563</name></trkpt>
<trkpt lat="52.691061" lon="05.990411"><ele>6.1</ele><time>2022-09-06T16:46:34Z</time><name>PT13564</name></trkpt>
<trkpt lat="52.691055" lon="05.990419"><ele>5.9</ele><time>2022-09-06T16:46:35Z</time><name>PT13565</name></trkpt>
<trkpt lat="52.691050" lon="05.990429"><ele>6</ele><time>2022-09-06T16:46:36Z</time><name>PT13566</name></trkpt>
<trkpt lat="52.691043" lon="05.990442"><ele>6.1</ele><time>2022-09-06T16:46:37Z</time><name>PT13567</name></trkpt>
<trkpt lat="52.691037" lon="05.990450"><ele>6.1</ele><time>2022-09-06T16:46:38Z</time><name>PT13568</name></trkpt>
<trkpt lat="52.691031" lon="05.990461"><ele>6.1</ele><time>2022-09-06T16:46:39Z</time><name>PT13569</name></trkpt>
<trkpt lat="52.691025" lon="05.990475"><ele>6</ele><time>2022-09-06T16:46:40Z</time><name>PT13570</name></trkpt>
<trkpt lat="52.691018" lon="05.990491"><ele>6</ele><time>2022-09-06T16:46:41Z</time><name>PT13571</name></trkpt>
<trkpt lat="52.691010" lon="05.990505"><ele>6</ele><time>2022-09-06T16:46:42Z</time><name>PT13572</name></trkpt>
<trkpt lat="52.691003" lon="05.990513"><ele>6</ele><time>2022-09-06T16:46:43Z</time><name>PT13573</name></trkpt>
<trkpt lat="52.690998" lon="05.990519"><ele>6.1</ele><time>2022-09-06T16:46:44Z</time><name>PT13574</name></trkpt>
<trkpt lat="52.690989" lon="05.990533"><ele>6.1</ele><time>2022-09-06T16:46:45Z</time><name>PT13575</name></trkpt>
<trkpt lat="52.690985" lon="05.990546"><ele>6</ele><time>2022-09-06T16:46:46Z</time><name>PT13576</name></trkpt>
<trkpt lat="52.690982" lon="05.990559"><ele>6</ele><time>2022-09-06T16:46:47Z</time><name>PT13577</name></trkpt>
<trkpt lat="52.690974" lon="05.990572"><ele>5.9</ele><time>2022-09-06T16:46:48Z</time><name>PT13578</name></trkpt>
<trkpt lat="52.690962" lon="05.990583"><ele>5.8</ele><time>2022-09-06T16:46:49Z</time><name>PT13579</name></trkpt>
<trkpt lat="52.690951" lon="05.990594"><ele>5.6</ele><time>2022-09-06T16:46:50Z</time><name>PT13580</name></trkpt>
<trkpt lat="52.690942" lon="05.990606"><ele>5.7</ele><time>2022-09-06T16:46:51Z</time><name>PT13581</name></trkpt>
<trkpt lat="52.690936" lon="05.990616"><ele>5.6</ele><time>2022-09-06T16:46:52Z</time><name>PT13582</name></trkpt>
<trkpt lat="52.690932" lon="05.990626"><ele>5.6</ele><time>2022-09-06T16:46:53Z</time><name>PT13583</name></trkpt>
<trkpt lat="52.690925" lon="05.990640"><ele>5.6</ele><time>2022-09-06T16:46:54Z</time><name>PT13584</name></trkpt>
<trkpt lat="52.690921" lon="05.990656"><ele>5.6</ele><time>2022-09-06T16:46:55Z</time><name>PT13585</name></trkpt>
<trkpt lat="52.690915" lon="05.990671"><ele>5.7</ele><time>2022-09-06T16:46:56Z</time><name>PT13586</name></trkpt>
<trkpt lat="52.690910" lon="05.990687"><ele>5.6</ele><time>2022-09-06T16:46:57Z</time><name>PT13587</name></trkpt>
<trkpt lat="52.690904" lon="05.990697"><ele>5.7</ele><time>2022-09-06T16:46:58Z</time><name>PT13588</name></trkpt>
<trkpt lat="52.690897" lon="05.990710"><ele>5.8</ele><time>2022-09-06T16:46:59Z</time><name>PT13589</name></trkpt>
<trkpt lat="52.690888" lon="05.990723"><ele>5.6</ele><time>2022-09-06T16:47:00Z</time><name>PT13590</name></trkpt>
<trkpt lat="52.690881" lon="05.990733"><ele>5.6</ele><time>2022-09-06T16:47:01Z</time><name>PT13591</name></trkpt>
<trkpt lat="52.690872" lon="05.990746"><ele>5.6</ele><time>2022-09-06T16:47:02Z</time><name>PT13592</name></trkpt>
<trkpt lat="52.690864" lon="05.990759"><ele>5.7</ele><time>2022-09-06T16:47:03Z</time><name>PT13593</name></trkpt>
<trkpt lat="52.690858" lon="05.990771"><ele>5.7</ele><time>2022-09-06T16:47:04Z</time><name>PT13594</name></trkpt>
<trkpt lat="52.690853" lon="05.990786"><ele>5.9</ele><time>2022-09-06T16:47:05Z</time><name>PT13595</name></trkpt>
<trkpt lat="52.690847" lon="05.990801"><ele>5.8</ele><time>2022-09-06T16:47:06Z</time><name>PT13596</name></trkpt>
<trkpt lat="52.690838" lon="05.990818"><ele>5.8</ele><time>2022-09-06T16:47:07Z</time><name>PT13597</name></trkpt>
<trkpt lat="52.690830" lon="05.990832"><ele>5.9</ele><time>2022-09-06T16:47:08Z</time><name>PT13598</name></trkpt>
<trkpt lat="52.690822" lon="05.990847"><ele>6</ele><time>2022-09-06T16:47:09Z</time><name>PT13599</name></trkpt>
<trkpt lat="52.690815" lon="05.990860"><ele>5.9</ele><time>2022-09-06T16:47:10Z</time><name>PT13600</name></trkpt>
<trkpt lat="52.690806" lon="05.990873"><ele>5.8</ele><time>2022-09-06T16:47:11Z</time><name>PT13601</name></trkpt>
<trkpt lat="52.690799" lon="05.990886"><ele>5.6</ele><time>2022-09-06T16:47:12Z</time><name>PT13602</name></trkpt>
<trkpt lat="52.690791" lon="05.990899"><ele>5.6</ele><time>2022-09-06T16:47:13Z</time><name>PT13603</name></trkpt>
<trkpt lat="52.690784" lon="05.990912"><ele>5.6</ele><time>2022-09-06T16:47:14Z</time><name>PT13604</name></trkpt>
<trkpt lat="52.690778" lon="05.990925"><ele>5.7</ele><time>2022-09-06T16:47:15Z</time><name>PT13605</name></trkpt>
<trkpt lat="52.690772" lon="05.990940"><ele>5.7</ele><time>2022-09-06T16:47:16Z</time><name>PT13606</name></trkpt>
<trkpt lat="52.690766" lon="05.990955"><ele>5.6</ele><time>2022-09-06T16:47:17Z</time><name>PT13607</name></trkpt>
<trkpt lat="52.690760" lon="05.990968"><ele>5.8</ele><time>2022-09-06T16:47:18Z</time><name>PT13608</name></trkpt>
<trkpt lat="52.690753" lon="05.990980"><ele>5.8</ele><time>2022-09-06T16:47:19Z</time><name>PT13609</name></trkpt>
<trkpt lat="52.690746" lon="05.990994"><ele>5.7</ele><time>2022-09-06T16:47:20Z</time><name>PT13610</name></trkpt>
<trkpt lat="52.690738" lon="05.991007"><ele>5.7</ele><time>2022-09-06T16:47:21Z</time><name>PT13611</name></trkpt>
<trkpt lat="52.690730" lon="05.991023"><ele>5.8</ele><time>2022-09-06T16:47:22Z</time><name>PT13612</name></trkpt>
<trkpt lat="52.690722" lon="05.991041"><ele>5.8</ele><time>2022-09-06T16:47:23Z</time><name>PT13613</name></trkpt>
<trkpt lat="52.690715" lon="05.991056"><ele>5.8</ele><time>2022-09-06T16:47:24Z</time><name>PT13614</name></trkpt>
<trkpt lat="52.690710" lon="05.991072"><ele>5.7</ele><time>2022-09-06T16:47:25Z</time><name>PT13615</name></trkpt>
<trkpt lat="52.690705" lon="05.991088"><ele>5.8</ele><time>2022-09-06T16:47:26Z</time><name>PT13616</name></trkpt>
<trkpt lat="52.690699" lon="05.991105"><ele>5.8</ele><time>2022-09-06T16:47:27Z</time><name>PT13617</name></trkpt>
<trkpt lat="52.690693" lon="05.991121"><ele>5.8</ele><time>2022-09-06T16:47:28Z</time><name>PT13618</name></trkpt>
<trkpt lat="52.690688" lon="05.991135"><ele>5.9</ele><time>2022-09-06T16:47:29Z</time><name>PT13619</name></trkpt>
<trkpt lat="52.690683" lon="05.991148"><ele>5.9</ele><time>2022-09-06T16:47:30Z</time><name>PT13620</name></trkpt>
<trkpt lat="52.690676" lon="05.991161"><ele>6</ele><time>2022-09-06T16:47:31Z</time><name>PT13621</name></trkpt>
<trkpt lat="52.690670" lon="05.991174"><ele>6</ele><time>2022-09-06T16:47:32Z</time><name>PT13622</name></trkpt>
<trkpt lat="52.690665" lon="05.991186"><ele>6</ele><time>2022-09-06T16:47:33Z</time><name>PT13623</name></trkpt>
<trkpt lat="52.690661" lon="05.991200"><ele>5.8</ele><time>2022-09-06T16:47:34Z</time><name>PT13624</name></trkpt>
<trkpt lat="52.690657" lon="05.991214"><ele>5.6</ele><time>2022-09-06T16:47:35Z</time><name>PT13625</name></trkpt>
<trkpt lat="52.690650" lon="05.991228"><ele>5.6</ele><time>2022-09-06T16:47:36Z</time><name>PT13626</name></trkpt>
<trkpt lat="52.690645" lon="05.991244"><ele>5.5</ele><time>2022-09-06T16:47:37Z</time><name>PT13627</name></trkpt>
<trkpt lat="52.690641" lon="05.991258"><ele>5.6</ele><time>2022-09-06T16:47:38Z</time><name>PT13628</name></trkpt>
<trkpt lat="52.690637" lon="05.991271"><ele>5.8</ele><time>2022-09-06T16:47:39Z</time><name>PT13629</name></trkpt>
<trkpt lat="52.690629" lon="05.991287"><ele>5.9</ele><time>2022-09-06T16:47:40Z</time><name>PT13630</name></trkpt>
<trkpt lat="52.690623" lon="05.991304"><ele>5.8</ele><time>2022-09-06T16:47:41Z</time><name>PT13631</name></trkpt>
<trkpt lat="52.690617" lon="05.991320"><ele>6</ele><time>2022-09-06T16:47:42Z</time><name>PT13632</name></trkpt>
<trkpt lat="52.690613" lon="05.991335"><ele>6</ele><time>2022-09-06T16:47:43Z</time><name>PT13633</name></trkpt>
<trkpt lat="52.690609" lon="05.991350"><ele>5.8</ele><time>2022-09-06T16:47:44Z</time><name>PT13634</name></trkpt>
<trkpt lat="52.690604" lon="05.991370"><ele>5.7</ele><time>2022-09-06T16:47:45Z</time><name>PT13635</name></trkpt>
<trkpt lat="52.690599" lon="05.991384"><ele>5.6</ele><time>2022-09-06T16:47:46Z</time><name>PT13636</name></trkpt>
<trkpt lat="52.690595" lon="05.991397"><ele>5.5</ele><time>2022-09-06T16:47:47Z</time><name>PT13637</name></trkpt>
<trkpt lat="52.690592" lon="05.991411"><ele>5.5</ele><time>2022-09-06T16:47:48Z</time><name>PT13638</name></trkpt>
<trkpt lat="52.690586" lon="05.991427"><ele>5.4</ele><time>2022-09-06T16:47:49Z</time><name>PT13639</name></trkpt>
<trkpt lat="52.690580" lon="05.991445"><ele>5.6</ele><time>2022-09-06T16:47:50Z</time><name>PT13640</name></trkpt>
<trkpt lat="52.690576" lon="05.991462"><ele>5.6</ele><time>2022-09-06T16:47:51Z</time><name>PT13641</name></trkpt>
<trkpt lat="52.690571" lon="05.991480"><ele>5.5</ele><time>2022-09-06T16:47:52Z</time><name>PT13642</name></trkpt>
<trkpt lat="52.690568" lon="05.991496"><ele>5.4</ele><time>2022-09-06T16:47:53Z</time><name>PT13643</name></trkpt>
<trkpt lat="52.690565" lon="05.991511"><ele>5.6</ele><time>2022-09-06T16:47:54Z</time><name>PT13644</name></trkpt>
<trkpt lat="52.690561" lon="05.991525"><ele>5.3</ele><time>2022-09-06T16:47:55Z</time><name>PT13645</name></trkpt>
<trkpt lat="52.690558" lon="05.991538"><ele>5.3</ele><time>2022-09-06T16:47:56Z</time><name>PT13646</name></trkpt>
<trkpt lat="52.690555" lon="05.991557"><ele>5.3</ele><time>2022-09-06T16:47:57Z</time><name>PT13647</name></trkpt>
<trkpt lat="52.690550" lon="05.991577"><ele>5.2</ele><time>2022-09-06T16:47:58Z</time><name>PT13648</name></trkpt>
<trkpt lat="52.690544" lon="05.991595"><ele>5.4</ele><time>2022-09-06T16:47:59Z</time><name>PT13649</name></trkpt>
<trkpt lat="52.690539" lon="05.991612"><ele>5.5</ele><time>2022-09-06T16:48:00Z</time><name>PT13650</name></trkpt>
<trkpt lat="52.690537" lon="05.991630"><ele>5.3</ele><time>2022-09-06T16:48:01Z</time><name>PT13651</name></trkpt>
<trkpt lat="52.690535" lon="05.991644"><ele>5.3</ele><time>2022-09-06T16:48:02Z</time><name>PT13652</name></trkpt>
<trkpt lat="52.690535" lon="05.991661"><ele>5.1</ele><time>2022-09-06T16:48:03Z</time><name>PT13653</name></trkpt>
<trkpt lat="52.690534" lon="05.991675"><ele>5</ele><time>2022-09-06T16:48:04Z</time><name>PT13654</name></trkpt>
<trkpt lat="52.690531" lon="05.991692"><ele>5.1</ele><time>2022-09-06T16:48:05Z</time><name>PT13655</name></trkpt>
<trkpt lat="52.690528" lon="05.991710"><ele>5.3</ele><time>2022-09-06T16:48:06Z</time><name>PT13656</name></trkpt>
<trkpt lat="52.690525" lon="05.991728"><ele>5.2</ele><time>2022-09-06T16:48:07Z</time><name>PT13657</name></trkpt>
<trkpt lat="52.690522" lon="05.991748"><ele>5.1</ele><time>2022-09-06T16:48:08Z</time><name>PT13658</name></trkpt>
<trkpt lat="52.690519" lon="05.991766"><ele>5.1</ele><time>2022-09-06T16:48:09Z</time><name>PT13659</name></trkpt>
<trkpt lat="52.690514" lon="05.991784"><ele>4.7</ele><time>2022-09-06T16:48:10Z</time><name>PT13660</name></trkpt>
<trkpt lat="52.690512" lon="05.991802"><ele>4.7</ele><time>2022-09-06T16:48:11Z</time><name>PT13661</name></trkpt>
<trkpt lat="52.690508" lon="05.991823"><ele>4.6</ele><time>2022-09-06T16:48:12Z</time><name>PT13662</name></trkpt>
<trkpt lat="52.690506" lon="05.991843"><ele>4.6</ele><time>2022-09-06T16:48:13Z</time><name>PT13663</name></trkpt>
<trkpt lat="52.690504" lon="05.991862"><ele>4.7</ele><time>2022-09-06T16:48:14Z</time><name>PT13664</name></trkpt>
<trkpt lat="52.690501" lon="05.991879"><ele>4.6</ele><time>2022-09-06T16:48:15Z</time><name>PT13665</name></trkpt>
<trkpt lat="52.690496" lon="05.991896"><ele>4.7</ele><time>2022-09-06T16:48:16Z</time><name>PT13666</name></trkpt>
<trkpt lat="52.690492" lon="05.991915"><ele>4.8</ele><time>2022-09-06T16:48:17Z</time><name>PT13667</name></trkpt>
<trkpt lat="52.690488" lon="05.991934"><ele>4.9</ele><time>2022-09-06T16:48:18Z</time><name>PT13668</name></trkpt>
<trkpt lat="52.690485" lon="05.991948"><ele>5</ele><time>2022-09-06T16:48:19Z</time><name>PT13669</name></trkpt>
<trkpt lat="52.690483" lon="05.991964"><ele>4.8</ele><time>2022-09-06T16:48:20Z</time><name>PT13670</name></trkpt>
<trkpt lat="52.690482" lon="05.991984"><ele>4.8</ele><time>2022-09-06T16:48:21Z</time><name>PT13671</name></trkpt>
<trkpt lat="52.690478" lon="05.992004"><ele>4.6</ele><time>2022-09-06T16:48:22Z</time><name>PT13672</name></trkpt>
<trkpt lat="52.690476" lon="05.992023"><ele>4.6</ele><time>2022-09-06T16:48:23Z</time><name>PT13673</name></trkpt>
<trkpt lat="52.690473" lon="05.992038"><ele>4.5</ele><time>2022-09-06T16:48:24Z</time><name>PT13674</name></trkpt>
<trkpt lat="52.690471" lon="05.992054"><ele>4.5</ele><time>2022-09-06T16:48:25Z</time><name>PT13675</name></trkpt>
<trkpt lat="52.690469" lon="05.992074"><ele>4.6</ele><time>2022-09-06T16:48:26Z</time><name>PT13676</name></trkpt>
<trkpt lat="52.690468" lon="05.992095"><ele>4.6</ele><time>2022-09-06T16:48:27Z</time><name>PT13677</name></trkpt>
<trkpt lat="52.690465" lon="05.992114"><ele>4.6</ele><time>2022-09-06T16:48:28Z</time><name>PT13678</name></trkpt>
<trkpt lat="52.690465" lon="05.992128"><ele>4.7</ele><time>2022-09-06T16:48:29Z</time><name>PT13679</name></trkpt>
<trkpt lat="52.690465" lon="05.992148"><ele>4.6</ele><time>2022-09-06T16:48:30Z</time><name>PT13680</name></trkpt>
<trkpt lat="52.690464" lon="05.992170"><ele>4.6</ele><time>2022-09-06T16:48:31Z</time><name>PT13681</name></trkpt>
<trkpt lat="52.690462" lon="05.992191"><ele>4.8</ele><time>2022-09-06T16:48:32Z</time><name>PT13682</name></trkpt>
<trkpt lat="52.690461" lon="05.992211"><ele>4.8</ele><time>2022-09-06T16:48:33Z</time><name>PT13683</name></trkpt>
<trkpt lat="52.690459" lon="05.992228"><ele>4.7</ele><time>2022-09-06T16:48:34Z</time><name>PT13684</name></trkpt>
<trkpt lat="52.690456" lon="05.992246"><ele>4.6</ele><time>2022-09-06T16:48:35Z</time><name>PT13685</name></trkpt>
<trkpt lat="52.690451" lon="05.992265"><ele>4.6</ele><time>2022-09-06T16:48:36Z</time><name>PT13686</name></trkpt>
<trkpt lat="52.690448" lon="05.992281"><ele>4.5</ele><time>2022-09-06T16:48:37Z</time><name>PT13687</name></trkpt>
<trkpt lat="52.690447" lon="05.992298"><ele>4.5</ele><time>2022-09-06T16:48:38Z</time><name>PT13688</name></trkpt>
<trkpt lat="52.690447" lon="05.992315"><ele>4.7</ele><time>2022-09-06T16:48:39Z</time><name>PT13689</name></trkpt>
<trkpt lat="52.690445" lon="05.992332"><ele>4.6</ele><time>2022-09-06T16:48:40Z</time><name>PT13690</name></trkpt>
<trkpt lat="52.690442" lon="05.992347"><ele>4.6</ele><time>2022-09-06T16:48:41Z</time><name>PT13691</name></trkpt>
<trkpt lat="52.690439" lon="05.992360"><ele>4.5</ele><time>2022-09-06T16:48:42Z</time><name>PT13692</name></trkpt>
<trkpt lat="52.690436" lon="05.992378"><ele>4.5</ele><time>2022-09-06T16:48:43Z</time><name>PT13693</name></trkpt>
<trkpt lat="52.690434" lon="05.992397"><ele>4.5</ele><time>2022-09-06T16:48:44Z</time><name>PT13694</name></trkpt>
<trkpt lat="52.690431" lon="05.992417"><ele>4.5</ele><time>2022-09-06T16:48:45Z</time><name>PT13695</name></trkpt>
<trkpt lat="52.690427" lon="05.992438"><ele>4.4</ele><time>2022-09-06T16:48:46Z</time><name>PT13696</name></trkpt>
<trkpt lat="52.690424" lon="05.992455"><ele>4.3</ele><time>2022-09-06T16:48:47Z</time><name>PT13697</name></trkpt>
<trkpt lat="52.690420" lon="05.992470"><ele>4.5</ele><time>2022-09-06T16:48:48Z</time><name>PT13698</name></trkpt>
<trkpt lat="52.690417" lon="05.992488"><ele>4.1</ele><time>2022-09-06T16:48:49Z</time><name>PT13699</name></trkpt>
<trkpt lat="52.690416" lon="05.992506"><ele>4.1</ele><time>2022-09-06T16:48:50Z</time><name>PT13700</name></trkpt>
<trkpt lat="52.690415" lon="05.992524"><ele>4.1</ele><time>2022-09-06T16:48:51Z</time><name>PT13701</name></trkpt>
<trkpt lat="52.690412" lon="05.992540"><ele>3.9</ele><time>2022-09-06T16:48:52Z</time><name>PT13702</name></trkpt>
<trkpt lat="52.690409" lon="05.992553"><ele>4</ele><time>2022-09-06T16:48:53Z</time><name>PT13703</name></trkpt>
<trkpt lat="52.690407" lon="05.992570"><ele>4</ele><time>2022-09-06T16:48:54Z</time><name>PT13704</name></trkpt>
<trkpt lat="52.690405" lon="05.992589"><ele>4.1</ele><time>2022-09-06T16:48:55Z</time><name>PT13705</name></trkpt>
<trkpt lat="52.690404" lon="05.992606"><ele>4.2</ele><time>2022-09-06T16:48:56Z</time><name>PT13706</name></trkpt>
<trkpt lat="52.690403" lon="05.992623"><ele>4.1</ele><time>2022-09-06T16:48:57Z</time><name>PT13707</name></trkpt>
<trkpt lat="52.690401" lon="05.992638"><ele>4</ele><time>2022-09-06T16:48:58Z</time><name>PT13708</name></trkpt>
<trkpt lat="52.690400" lon="05.992656"><ele>4</ele><time>2022-09-06T16:48:59Z</time><name>PT13709</name></trkpt>
<trkpt lat="52.690400" lon="05.992674"><ele>3.9</ele><time>2022-09-06T16:49:00Z</time><name>PT13710</name></trkpt>
<trkpt lat="52.690398" lon="05.992690"><ele>3.7</ele><time>2022-09-06T16:49:01Z</time><name>PT13711</name></trkpt>
<trkpt lat="52.690396" lon="05.992707"><ele>3.7</ele><time>2022-09-06T16:49:02Z</time><name>PT13712</name></trkpt>
<trkpt lat="52.690393" lon="05.992726"><ele>3.7</ele><time>2022-09-06T16:49:03Z</time><name>PT13713</name></trkpt>
<trkpt lat="52.690388" lon="05.992746"><ele>3.7</ele><time>2022-09-06T16:49:04Z</time><name>PT13714</name></trkpt>
<trkpt lat="52.690384" lon="05.992764"><ele>4</ele><time>2022-09-06T16:49:05Z</time><name>PT13715</name></trkpt>
<trkpt lat="52.690378" lon="05.992786"><ele>3.9</ele><time>2022-09-06T16:49:06Z</time><name>PT13716</name></trkpt>
<trkpt lat="52.690375" lon="05.992803"><ele>3.9</ele><time>2022-09-06T16:49:07Z</time><name>PT13717</name></trkpt>
<trkpt lat="52.690373" lon="05.992819"><ele>4.1</ele><time>2022-09-06T16:49:08Z</time><name>PT13718</name></trkpt>
<trkpt lat="52.690371" lon="05.992833"><ele>4.1</ele><time>2022-09-06T16:49:09Z</time><name>PT13719</name></trkpt>
<trkpt lat="52.690369" lon="05.992846"><ele>4.1</ele><time>2022-09-06T16:49:10Z</time><name>PT13720</name></trkpt>
<trkpt lat="52.690371" lon="05.992865"><ele>4</ele><time>2022-09-06T16:49:11Z</time><name>PT13721</name></trkpt>
<trkpt lat="52.690371" lon="05.992882"><ele>3.9</ele><time>2022-09-06T16:49:12Z</time><name>PT13722</name></trkpt>
<trkpt lat="52.690372" lon="05.992900"><ele>3.9</ele><time>2022-09-06T16:49:13Z</time><name>PT13723</name></trkpt>
<trkpt lat="52.690370" lon="05.992915"><ele>3.8</ele><time>2022-09-06T16:49:14Z</time><name>PT13724</name></trkpt>
<trkpt lat="52.690368" lon="05.992933"><ele>3.9</ele><time>2022-09-06T16:49:15Z</time><name>PT13725</name></trkpt>
<trkpt lat="52.690365" lon="05.992952"><ele>3.9</ele><time>2022-09-06T16:49:16Z</time><name>PT13726</name></trkpt>
<trkpt lat="52.690364" lon="05.992969"><ele>3.9</ele><time>2022-09-06T16:49:17Z</time><name>PT13727</name></trkpt>
<trkpt lat="52.690364" lon="05.992982"><ele>4</ele><time>2022-09-06T16:49:18Z</time><name>PT13728</name></trkpt>
<trkpt lat="52.690362" lon="05.992995"><ele>3.9</ele><time>2022-09-06T16:49:19Z</time><name>PT13729</name></trkpt>
<trkpt lat="52.690363" lon="05.993010"><ele>3.8</ele><time>2022-09-06T16:49:20Z</time><name>PT13730</name></trkpt>
<trkpt lat="52.690363" lon="05.993024"><ele>3.7</ele><time>2022-09-06T16:49:21Z</time><name>PT13731</name></trkpt>
<trkpt lat="52.690363" lon="05.993035"><ele>3.8</ele><time>2022-09-06T16:49:22Z</time><name>PT13732</name></trkpt>
<trkpt lat="52.690362" lon="05.993050"><ele>3.8</ele><time>2022-09-06T16:49:23Z</time><name>PT13733</name></trkpt>
<trkpt lat="52.690362" lon="05.993069"><ele>3.7</ele><time>2022-09-06T16:49:24Z</time><name>PT13734</name></trkpt>
<trkpt lat="52.690359" lon="05.993080"><ele>3.7</ele><time>2022-09-06T16:49:25Z</time><name>PT13735</name></trkpt>
<trkpt lat="52.690358" lon="05.993097"><ele>3.5</ele><time>2022-09-06T16:49:26Z</time><name>PT13736</name></trkpt>
<trkpt lat="52.690358" lon="05.993116"><ele>3.4</ele><time>2022-09-06T16:49:27Z</time><name>PT13737</name></trkpt>
<trkpt lat="52.690355" lon="05.993132"><ele>3.3</ele><time>2022-09-06T16:49:28Z</time><name>PT13738</name></trkpt>
<trkpt lat="52.690355" lon="05.993148"><ele>3.4</ele><time>2022-09-06T16:49:29Z</time><name>PT13739</name></trkpt>
<trkpt lat="52.690355" lon="05.993163"><ele>3.5</ele><time>2022-09-06T16:49:30Z</time><name>PT13740</name></trkpt>
<trkpt lat="52.690354" lon="05.993183"><ele>3.6</ele><time>2022-09-06T16:49:31Z</time><name>PT13741</name></trkpt>
<trkpt lat="52.690352" lon="05.993198"><ele>3.6</ele><time>2022-09-06T16:49:32Z</time><name>PT13742</name></trkpt>
<trkpt lat="52.690349" lon="05.993209"><ele>3.5</ele><time>2022-09-06T16:49:33Z</time><name>PT13743</name></trkpt>
<trkpt lat="52.690345" lon="05.993223"><ele>3.6</ele><time>2022-09-06T16:49:34Z</time><name>PT13744</name></trkpt>
<trkpt lat="52.690342" lon="05.993246"><ele>3.7</ele><time>2022-09-06T16:49:35Z</time><name>PT13745</name></trkpt>
<trkpt lat="52.690341" lon="05.993267"><ele>3.7</ele><time>2022-09-06T16:49:36Z</time><name>PT13746</name></trkpt>
<trkpt lat="52.690335" lon="05.993286"><ele>3.6</ele><time>2022-09-06T16:49:37Z</time><name>PT13747</name></trkpt>
<trkpt lat="52.690330" lon="05.993303"><ele>3.6</ele><time>2022-09-06T16:49:38Z</time><name>PT13748</name></trkpt>
<trkpt lat="52.690327" lon="05.993320"><ele>3.6</ele><time>2022-09-06T16:49:39Z</time><name>PT13749</name></trkpt>
<trkpt lat="52.690325" lon="05.993341"><ele>3.5</ele><time>2022-09-06T16:49:40Z</time><name>PT13750</name></trkpt>
<trkpt lat="52.690322" lon="05.993364"><ele>3.6</ele><time>2022-09-06T16:49:41Z</time><name>PT13751</name></trkpt>
<trkpt lat="52.690319" lon="05.993388"><ele>3.5</ele><time>2022-09-06T16:49:42Z</time><name>PT13752</name></trkpt>
<trkpt lat="52.690316" lon="05.993408"><ele>3.4</ele><time>2022-09-06T16:49:43Z</time><name>PT13753</name></trkpt>
<trkpt lat="52.690315" lon="05.993426"><ele>3.5</ele><time>2022-09-06T16:49:44Z</time><name>PT13754</name></trkpt>
<trkpt lat="52.690313" lon="05.993447"><ele>3.5</ele><time>2022-09-06T16:49:45Z</time><name>PT13755</name></trkpt>
<trkpt lat="52.690309" lon="05.993467"><ele>3.3</ele><time>2022-09-06T16:49:46Z</time><name>PT13756</name></trkpt>
<trkpt lat="52.690305" lon="05.993489"><ele>3.3</ele><time>2022-09-06T16:49:47Z</time><name>PT13757</name></trkpt>
<trkpt lat="52.690306" lon="05.993511"><ele>3.5</ele><time>2022-09-06T16:49:48Z</time><name>PT13758</name></trkpt>
<trkpt lat="52.690302" lon="05.993527"><ele>3.3</ele><time>2022-09-06T16:49:49Z</time><name>PT13759</name></trkpt>
<trkpt lat="52.690299" lon="05.993545"><ele>3.2</ele><time>2022-09-06T16:49:50Z</time><name>PT13760</name></trkpt>
<trkpt lat="52.690298" lon="05.993565"><ele>3.2</ele><time>2022-09-06T16:49:51Z</time><name>PT13761</name></trkpt>
<trkpt lat="52.690295" lon="05.993584"><ele>3.2</ele><time>2022-09-06T16:49:52Z</time><name>PT13762</name></trkpt>
<trkpt lat="52.690293" lon="05.993602"><ele>3.2</ele><time>2022-09-06T16:49:53Z</time><name>PT13763</name></trkpt>
<trkpt lat="52.690290" lon="05.993619"><ele>3.2</ele><time>2022-09-06T16:49:54Z</time><name>PT13764</name></trkpt>
<trkpt lat="52.690285" lon="05.993635"><ele>3.4</ele><time>2022-09-06T16:49:55Z</time><name>PT13765</name></trkpt>
<trkpt lat="52.690281" lon="05.993653"><ele>3.2</ele><time>2022-09-06T16:49:56Z</time><name>PT13766</name></trkpt>
<trkpt lat="52.690278" lon="05.993671"><ele>3.2</ele><time>2022-09-06T16:49:57Z</time><name>PT13767</name></trkpt>
<trkpt lat="52.690273" lon="05.993690"><ele>3.3</ele><time>2022-09-06T16:49:58Z</time><name>PT13768</name></trkpt>
<trkpt lat="52.690269" lon="05.993711"><ele>3.3</ele><time>2022-09-06T16:49:59Z</time><name>PT13769</name></trkpt>
<trkpt lat="52.690265" lon="05.993731"><ele>3.3</ele><time>2022-09-06T16:50:00Z</time><name>PT13770</name></trkpt>
<trkpt lat="52.690263" lon="05.993749"><ele>3.3</ele><time>2022-09-06T16:50:01Z</time><name>PT13771</name></trkpt>
<trkpt lat="52.690260" lon="05.993767"><ele>3.2</ele><time>2022-09-06T16:50:02Z</time><name>PT13772</name></trkpt>
<trkpt lat="52.690258" lon="05.993786"><ele>3.2</ele><time>2022-09-06T16:50:03Z</time><name>PT13773</name></trkpt>
<trkpt lat="52.690256" lon="05.993805"><ele>3.2</ele><time>2022-09-06T16:50:04Z</time><name>PT13774</name></trkpt>
<trkpt lat="52.690254" lon="05.993821"><ele>3.2</ele><time>2022-09-06T16:50:05Z</time><name>PT13775</name></trkpt>
<trkpt lat="52.690251" lon="05.993836"><ele>3.3</ele><time>2022-09-06T16:50:06Z</time><name>PT13776</name></trkpt>
<trkpt lat="52.690248" lon="05.993852"><ele>3.4</ele><time>2022-09-06T16:50:07Z</time><name>PT13777</name></trkpt>
<trkpt lat="52.690244" lon="05.993868"><ele>3.3</ele><time>2022-09-06T16:50:08Z</time><name>PT13778</name></trkpt>
<trkpt lat="52.690240" lon="05.993886"><ele>3.2</ele><time>2022-09-06T16:50:09Z</time><name>PT13779</name></trkpt>
<trkpt lat="52.690237" lon="05.993906"><ele>3.3</ele><time>2022-09-06T16:50:10Z</time><name>PT13780</name></trkpt>
<trkpt lat="52.690235" lon="05.993923"><ele>3.2</ele><time>2022-09-06T16:50:11Z</time><name>PT13781</name></trkpt>
<trkpt lat="52.690233" lon="05.993942"><ele>3.3</ele><time>2022-09-06T16:50:12Z</time><name>PT13782</name></trkpt>
<trkpt lat="52.690232" lon="05.993961"><ele>3.4</ele><time>2022-09-06T16:50:13Z</time><name>PT13783</name></trkpt>
<trkpt lat="52.690230" lon="05.993980"><ele>3.3</ele><time>2022-09-06T16:50:14Z</time><name>PT13784</name></trkpt>
<trkpt lat="52.690227" lon="05.993996"><ele>3.2</ele><time>2022-09-06T16:50:15Z</time><name>PT13785</name></trkpt>
<trkpt lat="52.690225" lon="05.994011"><ele>3.2</ele><time>2022-09-06T16:50:16Z</time><name>PT13786</name></trkpt>
<trkpt lat="52.690223" lon="05.994030"><ele>3.2</ele><time>2022-09-06T16:50:17Z</time><name>PT13787</name></trkpt>
<trkpt lat="52.690220" lon="05.994048"><ele>3.3</ele><time>2022-09-06T16:50:18Z</time><name>PT13788</name></trkpt>
<trkpt lat="52.690215" lon="05.994067"><ele>3.2</ele><time>2022-09-06T16:50:19Z</time><name>PT13789</name></trkpt>
<trkpt lat="52.690212" lon="05.994085"><ele>3.3</ele><time>2022-09-06T16:50:20Z</time><name>PT13790</name></trkpt>
<trkpt lat="52.690209" lon="05.994100"><ele>3.3</ele><time>2022-09-06T16:50:21Z</time><name>PT13791</name></trkpt>
<trkpt lat="52.690207" lon="05.994118"><ele>3.1</ele><time>2022-09-06T16:50:22Z</time><name>PT13792</name></trkpt>
<trkpt lat="52.690205" lon="05.994138"><ele>3.3</ele><time>2022-09-06T16:50:23Z</time><name>PT13793</name></trkpt>
<trkpt lat="52.690202" lon="05.994156"><ele>3.4</ele><time>2022-09-06T16:50:24Z</time><name>PT13794</name></trkpt>
<trkpt lat="52.690199" lon="05.994173"><ele>3.3</ele><time>2022-09-06T16:50:25Z</time><name>PT13795</name></trkpt>
<trkpt lat="52.690196" lon="05.994190"><ele>3.3</ele><time>2022-09-06T16:50:26Z</time><name>PT13796</name></trkpt>
<trkpt lat="52.690192" lon="05.994206"><ele>3.2</ele><time>2022-09-06T16:50:27Z</time><name>PT13797</name></trkpt>
<trkpt lat="52.690187" lon="05.994222"><ele>3.2</ele><time>2022-09-06T16:50:28Z</time><name>PT13798</name></trkpt>
<trkpt lat="52.690184" lon="05.994239"><ele>3</ele><time>2022-09-06T16:50:29Z</time><name>PT13799</name></trkpt>
<trkpt lat="52.690181" lon="05.994257"><ele>3.1</ele><time>2022-09-06T16:50:30Z</time><name>PT13800</name></trkpt>
<trkpt lat="52.690177" lon="05.994276"><ele>3.1</ele><time>2022-09-06T16:50:31Z</time><name>PT13801</name></trkpt>
<trkpt lat="52.690173" lon="05.994293"><ele>2.9</ele><time>2022-09-06T16:50:32Z</time><name>PT13802</name></trkpt>
<trkpt lat="52.690170" lon="05.994310"><ele>3.2</ele><time>2022-09-06T16:50:33Z</time><name>PT13803</name></trkpt>
<trkpt lat="52.690167" lon="05.994329"><ele>3.4</ele><time>2022-09-06T16:50:34Z</time><name>PT13804</name></trkpt>
<trkpt lat="52.690166" lon="05.994349"><ele>3.5</ele><time>2022-09-06T16:50:35Z</time><name>PT13805</name></trkpt>
<trkpt lat="52.690164" lon="05.994369"><ele>3.5</ele><time>2022-09-06T16:50:36Z</time><name>PT13806</name></trkpt>
<trkpt lat="52.690162" lon="05.994389"><ele>3.5</ele><time>2022-09-06T16:50:37Z</time><name>PT13807</name></trkpt>
<trkpt lat="52.690160" lon="05.994408"><ele>3.4</ele><time>2022-09-06T16:50:38Z</time><name>PT13808</name></trkpt>
<trkpt lat="52.690157" lon="05.994425"><ele>3.5</ele><time>2022-09-06T16:50:39Z</time><name>PT13809</name></trkpt>
<trkpt lat="52.690154" lon="05.994440"><ele>3.3</ele><time>2022-09-06T16:50:40Z</time><name>PT13810</name></trkpt>
<trkpt lat="52.690153" lon="05.994456"><ele>3.3</ele><time>2022-09-06T16:50:41Z</time><name>PT13811</name></trkpt>
<trkpt lat="52.690150" lon="05.994473"><ele>3.2</ele><time>2022-09-06T16:50:42Z</time><name>PT13812</name></trkpt>
<trkpt lat="52.690145" lon="05.994489"><ele>3.1</ele><time>2022-09-06T16:50:43Z</time><name>PT13813</name></trkpt>
<trkpt lat="52.690140" lon="05.994508"><ele>3.2</ele><time>2022-09-06T16:50:44Z</time><name>PT13814</name></trkpt>
<trkpt lat="52.690136" lon="05.994526"><ele>3.1</ele><time>2022-09-06T16:50:45Z</time><name>PT13815</name></trkpt>
<trkpt lat="52.690132" lon="05.994540"><ele>3.3</ele><time>2022-09-06T16:50:46Z</time><name>PT13816</name></trkpt>
<trkpt lat="52.690128" lon="05.994557"><ele>3.6</ele><time>2022-09-06T16:50:47Z</time><name>PT13817</name></trkpt>
<trkpt lat="52.690124" lon="05.994579"><ele>3.6</ele><time>2022-09-06T16:50:48Z</time><name>PT13818</name></trkpt>
<trkpt lat="52.690121" lon="05.994599"><ele>3.6</ele><time>2022-09-06T16:50:49Z</time><name>PT13819</name></trkpt>
<trkpt lat="52.690116" lon="05.994622"><ele>3.6</ele><time>2022-09-06T16:50:50Z</time><name>PT13820</name></trkpt>
<trkpt lat="52.690115" lon="05.994637"><ele>3.6</ele><time>2022-09-06T16:50:51Z</time><name>PT13821</name></trkpt>
<trkpt lat="52.690112" lon="05.994656"><ele>3.6</ele><time>2022-09-06T16:50:52Z</time><name>PT13822</name></trkpt>
<trkpt lat="52.690108" lon="05.994676"><ele>3.6</ele><time>2022-09-06T16:50:53Z</time><name>PT13823</name></trkpt>
<trkpt lat="52.690105" lon="05.994693"><ele>3.5</ele><time>2022-09-06T16:50:54Z</time><name>PT13824</name></trkpt>
<trkpt lat="52.690101" lon="05.994710"><ele>3.4</ele><time>2022-09-06T16:50:55Z</time><name>PT13825</name></trkpt>
<trkpt lat="52.690096" lon="05.994729"><ele>3.4</ele><time>2022-09-06T16:50:56Z</time><name>PT13826</name></trkpt>
<trkpt lat="52.690091" lon="05.994745"><ele>3.4</ele><time>2022-09-06T16:50:57Z</time><name>PT13827</name></trkpt>
<trkpt lat="52.690088" lon="05.994763"><ele>3.3</ele><time>2022-09-06T16:50:58Z</time><name>PT13828</name></trkpt>
<trkpt lat="52.690085" lon="05.994780"><ele>3.4</ele><time>2022-09-06T16:50:59Z</time><name>PT13829</name></trkpt>
<trkpt lat="52.690082" lon="05.994798"><ele>3.4</ele><time>2022-09-06T16:51:00Z</time><name>PT13830</name></trkpt>
<trkpt lat="52.690080" lon="05.994814"><ele>3.3</ele><time>2022-09-06T16:51:01Z</time><name>PT13831</name></trkpt>
<trkpt lat="52.690077" lon="05.994829"><ele>3.3</ele><time>2022-09-06T16:51:02Z</time><name>PT13832</name></trkpt>
<trkpt lat="52.690076" lon="05.994844"><ele>3.2</ele><time>2022-09-06T16:51:03Z</time><name>PT13833</name></trkpt>
<trkpt lat="52.690074" lon="05.994861"><ele>3.2</ele><time>2022-09-06T16:51:04Z</time><name>PT13834</name></trkpt>
<trkpt lat="52.690072" lon="05.994879"><ele>3.2</ele><time>2022-09-06T16:51:05Z</time><name>PT13835</name></trkpt>
<trkpt lat="52.690069" lon="05.994896"><ele>3.2</ele><time>2022-09-06T16:51:06Z</time><name>PT13836</name></trkpt>
<trkpt lat="52.690066" lon="05.994912"><ele>3.4</ele><time>2022-09-06T16:51:07Z</time><name>PT13837</name></trkpt>
<trkpt lat="52.690063" lon="05.994929"><ele>3.6</ele><time>2022-09-06T16:51:08Z</time><name>PT13838</name></trkpt>
<trkpt lat="52.690059" lon="05.994945"><ele>3.6</ele><time>2022-09-06T16:51:09Z</time><name>PT13839</name></trkpt>
<trkpt lat="52.690058" lon="05.994960"><ele>3.9</ele><time>2022-09-06T16:51:10Z</time><name>PT13840</name></trkpt>
<trkpt lat="52.690054" lon="05.994975"><ele>3.7</ele><time>2022-09-06T16:51:11Z</time><name>PT13841</name></trkpt>
<trkpt lat="52.690054" lon="05.994991"><ele>3.7</ele><time>2022-09-06T16:51:12Z</time><name>PT13842</name></trkpt>
<trkpt lat="52.690053" lon="05.995004"><ele>3.7</ele><time>2022-09-06T16:51:13Z</time><name>PT13843</name></trkpt>
<trkpt lat="52.690050" lon="05.995019"><ele>3.5</ele><time>2022-09-06T16:51:14Z</time><name>PT13844</name></trkpt>
<trkpt lat="52.690048" lon="05.995035"><ele>3.4</ele><time>2022-09-06T16:51:15Z</time><name>PT13845</name></trkpt>
<trkpt lat="52.690045" lon="05.995054"><ele>3.3</ele><time>2022-09-06T16:51:16Z</time><name>PT13846</name></trkpt>
<trkpt lat="52.690040" lon="05.995069"><ele>3.4</ele><time>2022-09-06T16:51:17Z</time><name>PT13847</name></trkpt>
<trkpt lat="52.690036" lon="05.995086"><ele>3.5</ele><time>2022-09-06T16:51:18Z</time><name>PT13848</name></trkpt>
<trkpt lat="52.690031" lon="05.995105"><ele>3.7</ele><time>2022-09-06T16:51:19Z</time><name>PT13849</name></trkpt>
<trkpt lat="52.690028" lon="05.995122"><ele>3.9</ele><time>2022-09-06T16:51:20Z</time><name>PT13850</name></trkpt>
<trkpt lat="52.690025" lon="05.995139"><ele>3.7</ele><time>2022-09-06T16:51:21Z</time><name>PT13851</name></trkpt>
<trkpt lat="52.690022" lon="05.995158"><ele>3.6</ele><time>2022-09-06T16:51:22Z</time><name>PT13852</name></trkpt>
<trkpt lat="52.690020" lon="05.995174"><ele>3.6</ele><time>2022-09-06T16:51:23Z</time><name>PT13853</name></trkpt>
<trkpt lat="52.690017" lon="05.995192"><ele>3.6</ele><time>2022-09-06T16:51:24Z</time><name>PT13854</name></trkpt>
<trkpt lat="52.690017" lon="05.995207"><ele>3.7</ele><time>2022-09-06T16:51:25Z</time><name>PT13855</name></trkpt>
<trkpt lat="52.690015" lon="05.995221"><ele>3.7</ele><time>2022-09-06T16:51:26Z</time><name>PT13856</name></trkpt>
<trkpt lat="52.690011" lon="05.995238"><ele>3.7</ele><time>2022-09-06T16:51:27Z</time><name>PT13857</name></trkpt>
<trkpt lat="52.690007" lon="05.995255"><ele>3.6</ele><time>2022-09-06T16:51:28Z</time><name>PT13858</name></trkpt>
<trkpt lat="52.690003" lon="05.995269"><ele>3.7</ele><time>2022-09-06T16:51:29Z</time><name>PT13859</name></trkpt>
<trkpt lat="52.689997" lon="05.995284"><ele>3.7</ele><time>2022-09-06T16:51:30Z</time><name>PT13860</name></trkpt>
<trkpt lat="52.689992" lon="05.995299"><ele>3.7</ele><time>2022-09-06T16:51:31Z</time><name>PT13861</name></trkpt>
<trkpt lat="52.689988" lon="05.995314"><ele>3.8</ele><time>2022-09-06T16:51:32Z</time><name>PT13862</name></trkpt>
<trkpt lat="52.689984" lon="05.995329"><ele>3.7</ele><time>2022-09-06T16:51:33Z</time><name>PT13863</name></trkpt>
<trkpt lat="52.689983" lon="05.995342"><ele>3.7</ele><time>2022-09-06T16:51:34Z</time><name>PT13864</name></trkpt>
<trkpt lat="52.689979" lon="05.995353"><ele>3.6</ele><time>2022-09-06T16:51:35Z</time><name>PT13865</name></trkpt>
<trkpt lat="52.689975" lon="05.995363"><ele>3.7</ele><time>2022-09-06T16:51:36Z</time><name>PT13866</name></trkpt>
<trkpt lat="52.689970" lon="05.995373"><ele>3.8</ele><time>2022-09-06T16:51:37Z</time><name>PT13867</name></trkpt>
<trkpt lat="52.689963" lon="05.995385"><ele>3.7</ele><time>2022-09-06T16:51:38Z</time><name>PT13868</name></trkpt>
<trkpt lat="52.689954" lon="05.995400"><ele>3.7</ele><time>2022-09-06T16:51:39Z</time><name>PT13869</name></trkpt>
<trkpt lat="52.689945" lon="05.995418"><ele>3.4</ele><time>2022-09-06T16:51:40Z</time><name>PT13870</name></trkpt>
<trkpt lat="52.689939" lon="05.995434"><ele>3.5</ele><time>2022-09-06T16:51:41Z</time><name>PT13871</name></trkpt>
<trkpt lat="52.689932" lon="05.995457"><ele>3.6</ele><time>2022-09-06T16:51:42Z</time><name>PT13872</name></trkpt>
<trkpt lat="52.689926" lon="05.995473"><ele>3.8</ele><time>2022-09-06T16:51:43Z</time><name>PT13873</name></trkpt>
<trkpt lat="52.689920" lon="05.995490"><ele>4</ele><time>2022-09-06T16:51:44Z</time><name>PT13874</name></trkpt>
<trkpt lat="52.689912" lon="05.995503"><ele>3.9</ele><time>2022-09-06T16:51:45Z</time><name>PT13875</name></trkpt>
<trkpt lat="52.689905" lon="05.995516"><ele>3.7</ele><time>2022-09-06T16:51:46Z</time><name>PT13876</name></trkpt>
<trkpt lat="52.689898" lon="05.995530"><ele>3.7</ele><time>2022-09-06T16:51:47Z</time><name>PT13877</name></trkpt>
<trkpt lat="52.689892" lon="05.995545"><ele>3.7</ele><time>2022-09-06T16:51:48Z</time><name>PT13878</name></trkpt>
<trkpt lat="52.689885" lon="05.995559"><ele>3.7</ele><time>2022-09-06T16:51:49Z</time><name>PT13879</name></trkpt>
<trkpt lat="52.689877" lon="05.995576"><ele>3.7</ele><time>2022-09-06T16:51:50Z</time><name>PT13880</name></trkpt>
<trkpt lat="52.689869" lon="05.995591"><ele>3.7</ele><time>2022-09-06T16:51:51Z</time><name>PT13881</name></trkpt>
<trkpt lat="52.689861" lon="05.995602"><ele>3.8</ele><time>2022-09-06T16:51:52Z</time><name>PT13882</name></trkpt>
<trkpt lat="52.689854" lon="05.995617"><ele>3.8</ele><time>2022-09-06T16:51:53Z</time><name>PT13883</name></trkpt>
<trkpt lat="52.689850" lon="05.995629"><ele>4</ele><time>2022-09-06T16:51:54Z</time><name>PT13884</name></trkpt>
<trkpt lat="52.689846" lon="05.995639"><ele>4.1</ele><time>2022-09-06T16:51:55Z</time><name>PT13885</name></trkpt>
<trkpt lat="52.689838" lon="05.995652"><ele>3.9</ele><time>2022-09-06T16:51:56Z</time><name>PT13886</name></trkpt>
<trkpt lat="52.689831" lon="05.995663"><ele>3.8</ele><time>2022-09-06T16:51:57Z</time><name>PT13887</name></trkpt>
<trkpt lat="52.689826" lon="05.995674"><ele>3.7</ele><time>2022-09-06T16:51:58Z</time><name>PT13888</name></trkpt>
<trkpt lat="52.689817" lon="05.995685"><ele>3.6</ele><time>2022-09-06T16:51:59Z</time><name>PT13889</name></trkpt>
<trkpt lat="52.689808" lon="05.995697"><ele>3.7</ele><time>2022-09-06T16:52:00Z</time><name>PT13890</name></trkpt>
<trkpt lat="52.689801" lon="05.995707"><ele>3.7</ele><time>2022-09-06T16:52:01Z</time><name>PT13891</name></trkpt>
<trkpt lat="52.689794" lon="05.995723"><ele>3.7</ele><time>2022-09-06T16:52:02Z</time><name>PT13892</name></trkpt>
<trkpt lat="52.689787" lon="05.995737"><ele>3.6</ele><time>2022-09-06T16:52:03Z</time><name>PT13893</name></trkpt>
<trkpt lat="52.689779" lon="05.995751"><ele>3.6</ele><time>2022-09-06T16:52:04Z</time><name>PT13894</name></trkpt>
<trkpt lat="52.689770" lon="05.995766"><ele>3.5</ele><time>2022-09-06T16:52:05Z</time><name>PT13895</name></trkpt>
<trkpt lat="52.689762" lon="05.995781"><ele>3.7</ele><time>2022-09-06T16:52:06Z</time><name>PT13896</name></trkpt>
<trkpt lat="52.689753" lon="05.995795"><ele>3.8</ele><time>2022-09-06T16:52:07Z</time><name>PT13897</name></trkpt>
<trkpt lat="52.689744" lon="05.995809"><ele>3.9</ele><time>2022-09-06T16:52:08Z</time><name>PT13898</name></trkpt>
<trkpt lat="52.689735" lon="05.995820"><ele>3.9</ele><time>2022-09-06T16:52:09Z</time><name>PT13899</name></trkpt>
<trkpt lat="52.689727" lon="05.995831"><ele>3.7</ele><time>2022-09-06T16:52:10Z</time><name>PT13900</name></trkpt>
<trkpt lat="52.689720" lon="05.995842"><ele>3.7</ele><time>2022-09-06T16:52:11Z</time><name>PT13901</name></trkpt>
<trkpt lat="52.689713" lon="05.995854"><ele>3.7</ele><time>2022-09-06T16:52:12Z</time><name>PT13902</name></trkpt>
<trkpt lat="52.689706" lon="05.995867"><ele>3.8</ele><time>2022-09-06T16:52:13Z</time><name>PT13903</name></trkpt>
<trkpt lat="52.689698" lon="05.995879"><ele>3.8</ele><time>2022-09-06T16:52:14Z</time><name>PT13904</name></trkpt>
<trkpt lat="52.689690" lon="05.995893"><ele>3.8</ele><time>2022-09-06T16:52:15Z</time><name>PT13905</name></trkpt>
<trkpt lat="52.689681" lon="05.995907"><ele>3.7</ele><time>2022-09-06T16:52:16Z</time><name>PT13906</name></trkpt>
<trkpt lat="52.689672" lon="05.995921"><ele>3.7</ele><time>2022-09-06T16:52:17Z</time><name>PT13907</name></trkpt>
<trkpt lat="52.689665" lon="05.995932"><ele>3.6</ele><time>2022-09-06T16:52:18Z</time><name>PT13908</name></trkpt>
<trkpt lat="52.689658" lon="05.995942"><ele>3.7</ele><time>2022-09-06T16:52:19Z</time><name>PT13909</name></trkpt>
<trkpt lat="52.689651" lon="05.995954"><ele>3.6</ele><time>2022-09-06T16:52:20Z</time><name>PT13910</name></trkpt>
<trkpt lat="52.689644" lon="05.995967"><ele>3.7</ele><time>2022-09-06T16:52:21Z</time><name>PT13911</name></trkpt>
<trkpt lat="52.689637" lon="05.995979"><ele>3.7</ele><time>2022-09-06T16:52:22Z</time><name>PT13912</name></trkpt>
<trkpt lat="52.689629" lon="05.995992"><ele>3.7</ele><time>2022-09-06T16:52:23Z</time><name>PT13913</name></trkpt>
<trkpt lat="52.689621" lon="05.996004"><ele>3.8</ele><time>2022-09-06T16:52:24Z</time><name>PT13914</name></trkpt>
<trkpt lat="52.689613" lon="05.996017"><ele>3.7</ele><time>2022-09-06T16:52:25Z</time><name>PT13915</name></trkpt>
<trkpt lat="52.689604" lon="05.996030"><ele>3.7</ele><time>2022-09-06T16:52:26Z</time><name>PT13916</name></trkpt>
<trkpt lat="52.689596" lon="05.996042"><ele>3.5</ele><time>2022-09-06T16:52:27Z</time><name>PT13917</name></trkpt>
<trkpt lat="52.689588" lon="05.996054"><ele>3.5</ele><time>2022-09-06T16:52:28Z</time><name>PT13918</name></trkpt>
<trkpt lat="52.689581" lon="05.996065"><ele>3.4</ele><time>2022-09-06T16:52:29Z</time><name>PT13919</name></trkpt>
<trkpt lat="52.689573" lon="05.996074"><ele>3.4</ele><time>2022-09-06T16:52:30Z</time><name>PT13920</name></trkpt>
<trkpt lat="52.689569" lon="05.996079"><ele>3.5</ele><time>2022-09-06T16:52:31Z</time><name>PT13921</name></trkpt>
<trkpt lat="52.689560" lon="05.996081"><ele>3.4</ele><time>2022-09-06T16:52:32Z</time><name>PT13922</name></trkpt>
<trkpt lat="52.689549" lon="05.996083"><ele>3.5</ele><time>2022-09-06T16:52:33Z</time><name>PT13923</name></trkpt>
<trkpt lat="52.689539" lon="05.996087"><ele>3.7</ele><time>2022-09-06T16:52:34Z</time><name>PT13924</name></trkpt>
<trkpt lat="52.689531" lon="05.996094"><ele>3.7</ele><time>2022-09-06T16:52:35Z</time><name>PT13925</name></trkpt>
<trkpt lat="52.689522" lon="05.996100"><ele>3.7</ele><time>2022-09-06T16:52:36Z</time><name>PT13926</name></trkpt>
<trkpt lat="52.689513" lon="05.996110"><ele>3.7</ele><time>2022-09-06T16:52:37Z</time><name>PT13927</name></trkpt>
<trkpt lat="52.689504" lon="05.996123"><ele>3.7</ele><time>2022-09-06T16:52:38Z</time><name>PT13928</name></trkpt>
<trkpt lat="52.689497" lon="05.996137"><ele>3.7</ele><time>2022-09-06T16:52:39Z</time><name>PT13929</name></trkpt>
<trkpt lat="52.689489" lon="05.996153"><ele>3.9</ele><time>2022-09-06T16:52:40Z</time><name>PT13930</name></trkpt>
<trkpt lat="52.689481" lon="05.996166"><ele>3.8</ele><time>2022-09-06T16:52:41Z</time><name>PT13931</name></trkpt>
<trkpt lat="52.689473" lon="05.996180"><ele>3.8</ele><time>2022-09-06T16:52:42Z</time><name>PT13932</name></trkpt>
<trkpt lat="52.689465" lon="05.996192"><ele>3.7</ele><time>2022-09-06T16:52:43Z</time><name>PT13933</name></trkpt>
<trkpt lat="52.689457" lon="05.996204"><ele>3.7</ele><time>2022-09-06T16:52:44Z</time><name>PT13934</name></trkpt>
<trkpt lat="52.689449" lon="05.996215"><ele>3.7</ele><time>2022-09-06T16:52:45Z</time><name>PT13935</name></trkpt>
<trkpt lat="52.689443" lon="05.996227"><ele>3.7</ele><time>2022-09-06T16:52:46Z</time><name>PT13936</name></trkpt>
<trkpt lat="52.689437" lon="05.996240"><ele>3.9</ele><time>2022-09-06T16:52:47Z</time><name>PT13937</name></trkpt>
<trkpt lat="52.689430" lon="05.996253"><ele>3.8</ele><time>2022-09-06T16:52:48Z</time><name>PT13938</name></trkpt>
<trkpt lat="52.689422" lon="05.996264"><ele>3.7</ele><time>2022-09-06T16:52:49Z</time><name>PT13939</name></trkpt>
<trkpt lat="52.689414" lon="05.996274"><ele>3.6</ele><time>2022-09-06T16:52:50Z</time><name>PT13940</name></trkpt>
<trkpt lat="52.689405" lon="05.996285"><ele>3.5</ele><time>2022-09-06T16:52:51Z</time><name>PT13941</name></trkpt>
<trkpt lat="52.689395" lon="05.996296"><ele>3.6</ele><time>2022-09-06T16:52:52Z</time><name>PT13942</name></trkpt>
<trkpt lat="52.689387" lon="05.996308"><ele>3.7</ele><time>2022-09-06T16:52:53Z</time><name>PT13943</name></trkpt>
<trkpt lat="52.689379" lon="05.996320"><ele>3.7</ele><time>2022-09-06T16:52:54Z</time><name>PT13944</name></trkpt>
<trkpt lat="52.689373" lon="05.996331"><ele>3.7</ele><time>2022-09-06T16:52:55Z</time><name>PT13945</name></trkpt>
<trkpt lat="52.689365" lon="05.996342"><ele>3.8</ele><time>2022-09-06T16:52:56Z</time><name>PT13946</name></trkpt>
<trkpt lat="52.689357" lon="05.996352"><ele>3.8</ele><time>2022-09-06T16:52:57Z</time><name>PT13947</name></trkpt>
<trkpt lat="52.689350" lon="05.996365"><ele>3.7</ele><time>2022-09-06T16:52:58Z</time><name>PT13948</name></trkpt>
<trkpt lat="52.689343" lon="05.996378"><ele>3.7</ele><time>2022-09-06T16:52:59Z</time><name>PT13949</name></trkpt>
<trkpt lat="52.689337" lon="05.996390"><ele>3.8</ele><time>2022-09-06T16:53:00Z</time><name>PT13950</name></trkpt>
<trkpt lat="52.689330" lon="05.996403"><ele>3.8</ele><time>2022-09-06T16:53:01Z</time><name>PT13951</name></trkpt>
<trkpt lat="52.689322" lon="05.996416"><ele>4</ele><time>2022-09-06T16:53:02Z</time><name>PT13952</name></trkpt>
<trkpt lat="52.689315" lon="05.996428"><ele>4</ele><time>2022-09-06T16:53:03Z</time><name>PT13953</name></trkpt>
<trkpt lat="52.689315" lon="05.996440"><ele>4.1</ele><time>2022-09-06T16:53:04Z</time><name>PT13954</name></trkpt>
<trkpt lat="52.689313" lon="05.996452"><ele>3.7</ele><time>2022-09-06T16:53:05Z</time><name>PT13955</name></trkpt>
<trkpt lat="52.689310" lon="05.996466"><ele>3.7</ele><time>2022-09-06T16:53:06Z</time><name>PT13956</name></trkpt>
<trkpt lat="52.689306" lon="05.996482"><ele>3.7</ele><time>2022-09-06T16:53:07Z</time><name>PT13957</name></trkpt>
<trkpt lat="52.689301" lon="05.996497"><ele>3.7</ele><time>2022-09-06T16:53:08Z</time><name>PT13958</name></trkpt>
<trkpt lat="52.689295" lon="05.996511"><ele>3.8</ele><time>2022-09-06T16:53:09Z</time><name>PT13959</name></trkpt>
<trkpt lat="52.689290" lon="05.996526"><ele>4</ele><time>2022-09-06T16:53:10Z</time><name>PT13960</name></trkpt>
<trkpt lat="52.689284" lon="05.996540"><ele>3.9</ele><time>2022-09-06T16:53:11Z</time><name>PT13961</name></trkpt>
<trkpt lat="52.689278" lon="05.996554"><ele>3.7</ele><time>2022-09-06T16:53:12Z</time><name>PT13962</name></trkpt>
<trkpt lat="52.689272" lon="05.996565"><ele>3.6</ele><time>2022-09-06T16:53:13Z</time><name>PT13963</name></trkpt>
<trkpt lat="52.689264" lon="05.996578"><ele>3.7</ele><time>2022-09-06T16:53:14Z</time><name>PT13964</name></trkpt>
<trkpt lat="52.689258" lon="05.996593"><ele>3.7</ele><time>2022-09-06T16:53:15Z</time><name>PT13965</name></trkpt>
<trkpt lat="52.689252" lon="05.996607"><ele>3.9</ele><time>2022-09-06T16:53:16Z</time><name>PT13966</name></trkpt>
<trkpt lat="52.689245" lon="05.996620"><ele>4.1</ele><time>2022-09-06T16:53:17Z</time><name>PT13967</name></trkpt>
<trkpt lat="52.689237" lon="05.996633"><ele>4.1</ele><time>2022-09-06T16:53:18Z</time><name>PT13968</name></trkpt>
<trkpt lat="52.689229" lon="05.996644"><ele>3.9</ele><time>2022-09-06T16:53:19Z</time><name>PT13969</name></trkpt>
<trkpt lat="52.689221" lon="05.996655"><ele>3.7</ele><time>2022-09-06T16:53:20Z</time><name>PT13970</name></trkpt>
<trkpt lat="52.689214" lon="05.996666"><ele>3.7</ele><time>2022-09-06T16:53:21Z</time><name>PT13971</name></trkpt>
<trkpt lat="52.689207" lon="05.996679"><ele>3.6</ele><time>2022-09-06T16:53:22Z</time><name>PT13972</name></trkpt>
<trkpt lat="52.689200" lon="05.996693"><ele>3.7</ele><time>2022-09-06T16:53:23Z</time><name>PT13973</name></trkpt>
<trkpt lat="52.689194" lon="05.996706"><ele>3.7</ele><time>2022-09-06T16:53:24Z</time><name>PT13974</name></trkpt>
<trkpt lat="52.689189" lon="05.996717"><ele>3.7</ele><time>2022-09-06T16:53:25Z</time><name>PT13975</name></trkpt>
<trkpt lat="52.689182" lon="05.996730"><ele>3.9</ele><time>2022-09-06T16:53:26Z</time><name>PT13976</name></trkpt>
<trkpt lat="52.689175" lon="05.996744"><ele>3.8</ele><time>2022-09-06T16:53:27Z</time><name>PT13977</name></trkpt>
<trkpt lat="52.689168" lon="05.996759"><ele>3.8</ele><time>2022-09-06T16:53:28Z</time><name>PT13978</name></trkpt>
<trkpt lat="52.689162" lon="05.996774"><ele>3.9</ele><time>2022-09-06T16:53:29Z</time><name>PT13979</name></trkpt>
<trkpt lat="52.689155" lon="05.996788"><ele>3.8</ele><time>2022-09-06T16:53:30Z</time><name>PT13980</name></trkpt>
<trkpt lat="52.689148" lon="05.996800"><ele>3.5</ele><time>2022-09-06T16:53:31Z</time><name>PT13981</name></trkpt>
<trkpt lat="52.689140" lon="05.996813"><ele>3.7</ele><time>2022-09-06T16:53:32Z</time><name>PT13982</name></trkpt>
<trkpt lat="52.689133" lon="05.996827"><ele>3.7</ele><time>2022-09-06T16:53:33Z</time><name>PT13983</name></trkpt>
<trkpt lat="52.689126" lon="05.996839"><ele>3.5</ele><time>2022-09-06T16:53:34Z</time><name>PT13984</name></trkpt>
<trkpt lat="52.689119" lon="05.996852"><ele>3.9</ele><time>2022-09-06T16:53:35Z</time><name>PT13985</name></trkpt>
<trkpt lat="52.689111" lon="05.996864"><ele>3.8</ele><time>2022-09-06T16:53:36Z</time><name>PT13986</name></trkpt>
<trkpt lat="52.689103" lon="05.996876"><ele>3.6</ele><time>2022-09-06T16:53:37Z</time><name>PT13987</name></trkpt>
<trkpt lat="52.689095" lon="05.996889"><ele>3.6</ele><time>2022-09-06T16:53:38Z</time><name>PT13988</name></trkpt>
<trkpt lat="52.689088" lon="05.996902"><ele>3.5</ele><time>2022-09-06T16:53:39Z</time><name>PT13989</name></trkpt>
<trkpt lat="52.689080" lon="05.996917"><ele>3.3</ele><time>2022-09-06T16:53:40Z</time><name>PT13990</name></trkpt>
<trkpt lat="52.689071" lon="05.996931"><ele>3.4</ele><time>2022-09-06T16:53:41Z</time><name>PT13991</name></trkpt>
<trkpt lat="52.689063" lon="05.996947"><ele>3.4</ele><time>2022-09-06T16:53:42Z</time><name>PT13992</name></trkpt>
<trkpt lat="52.689054" lon="05.996961"><ele>3.6</ele><time>2022-09-06T16:53:43Z</time><name>PT13993</name></trkpt>
<trkpt lat="52.689046" lon="05.996975"><ele>3.7</ele><time>2022-09-06T16:53:44Z</time><name>PT13994</name></trkpt>
<trkpt lat="52.689037" lon="05.996989"><ele>3.7</ele><time>2022-09-06T16:53:45Z</time><name>PT13995</name></trkpt>
<trkpt lat="52.689028" lon="05.997004"><ele>3.7</ele><time>2022-09-06T16:53:46Z</time><name>PT13996</name></trkpt>
<trkpt lat="52.689019" lon="05.997017"><ele>3.7</ele><time>2022-09-06T16:53:47Z</time><name>PT13997</name></trkpt>
<trkpt lat="52.689012" lon="05.997030"><ele>3.7</ele><time>2022-09-06T16:53:48Z</time><name>PT13998</name></trkpt>
<trkpt lat="52.689004" lon="05.997042"><ele>3.7</ele><time>2022-09-06T16:53:49Z</time><name>PT13999</name></trkpt>
<trkpt lat="52.688997" lon="05.997056"><ele>3.8</ele><time>2022-09-06T16:53:50Z</time><name>PT14000</name></trkpt>
<trkpt lat="52.688990" lon="05.997071"><ele>3.8</ele><time>2022-09-06T16:53:51Z</time><name>PT14001</name></trkpt>
<trkpt lat="52.688982" lon="05.997085"><ele>3.8</ele><time>2022-09-06T16:53:52Z</time><name>PT14002</name></trkpt>
<trkpt lat="52.688975" lon="05.997098"><ele>4</ele><time>2022-09-06T16:53:53Z</time><name>PT14003</name></trkpt>
<trkpt lat="52.688968" lon="05.997110"><ele>3.9</ele><time>2022-09-06T16:53:54Z</time><name>PT14004</name></trkpt>
<trkpt lat="52.688960" lon="05.997123"><ele>3.9</ele><time>2022-09-06T16:53:55Z</time><name>PT14005</name></trkpt>
<trkpt lat="52.688952" lon="05.997134"><ele>4</ele><time>2022-09-06T16:53:56Z</time><name>PT14006</name></trkpt>
<trkpt lat="52.688946" lon="05.997144"><ele>3.8</ele><time>2022-09-06T16:53:57Z</time><name>PT14007</name></trkpt>
<trkpt lat="52.688941" lon="05.997155"><ele>3.7</ele><time>2022-09-06T16:53:58Z</time><name>PT14008</name></trkpt>
<trkpt lat="52.688934" lon="05.997167"><ele>3.7</ele><time>2022-09-06T16:53:59Z</time><name>PT14009</name></trkpt>
<trkpt lat="52.688927" lon="05.997180"><ele>3.7</ele><time>2022-09-06T16:54:00Z</time><name>PT14010</name></trkpt>
<trkpt lat="52.688920" lon="05.997192"><ele>3.7</ele><time>2022-09-06T16:54:01Z</time><name>PT14011</name></trkpt>
<trkpt lat="52.688912" lon="05.997205"><ele>3.9</ele><time>2022-09-06T16:54:02Z</time><name>PT14012</name></trkpt>
<trkpt lat="52.688905" lon="05.997219"><ele>4.1</ele><time>2022-09-06T16:54:03Z</time><name>PT14013</name></trkpt>
<trkpt lat="52.688897" lon="05.997234"><ele>4.2</ele><time>2022-09-06T16:54:04Z</time><name>PT14014</name></trkpt>
<trkpt lat="52.688890" lon="05.997246"><ele>4</ele><time>2022-09-06T16:54:05Z</time><name>PT14015</name></trkpt>
<trkpt lat="52.688884" lon="05.997258"><ele>4</ele><time>2022-09-06T16:54:06Z</time><name>PT14016</name></trkpt>
<trkpt lat="52.688877" lon="05.997270"><ele>4</ele><time>2022-09-06T16:54:07Z</time><name>PT14017</name></trkpt>
<trkpt lat="52.688871" lon="05.997282"><ele>4.1</ele><time>2022-09-06T16:54:08Z</time><name>PT14018</name></trkpt>
<trkpt lat="52.688866" lon="05.997296"><ele>4</ele><time>2022-09-06T16:54:09Z</time><name>PT14019</name></trkpt>
<trkpt lat="52.688860" lon="05.997309"><ele>4</ele><time>2022-09-06T16:54:10Z</time><name>PT14020</name></trkpt>
<trkpt lat="52.688852" lon="05.997322"><ele>3.9</ele><time>2022-09-06T16:54:11Z</time><name>PT14021</name></trkpt>
<trkpt lat="52.688844" lon="05.997336"><ele>3.8</ele><time>2022-09-06T16:54:12Z</time><name>PT14022</name></trkpt>
<trkpt lat="52.688836" lon="05.997348"><ele>3.7</ele><time>2022-09-06T16:54:13Z</time><name>PT14023</name></trkpt>
<trkpt lat="52.688829" lon="05.997361"><ele>3.7</ele><time>2022-09-06T16:54:14Z</time><name>PT14024</name></trkpt>
<trkpt lat="52.688823" lon="05.997373"><ele>3.8</ele><time>2022-09-06T16:54:15Z</time><name>PT14025</name></trkpt>
<trkpt lat="52.688817" lon="05.997385"><ele>3.7</ele><time>2022-09-06T16:54:16Z</time><name>PT14026</name></trkpt>
<trkpt lat="52.688811" lon="05.997399"><ele>3.8</ele><time>2022-09-06T16:54:17Z</time><name>PT14027</name></trkpt>
<trkpt lat="52.688804" lon="05.997411"><ele>3.7</ele><time>2022-09-06T16:54:18Z</time><name>PT14028</name></trkpt>
<trkpt lat="52.688797" lon="05.997423"><ele>3.7</ele><time>2022-09-06T16:54:19Z</time><name>PT14029</name></trkpt>
<trkpt lat="52.688789" lon="05.997437"><ele>3.9</ele><time>2022-09-06T16:54:20Z</time><name>PT14030</name></trkpt>
<trkpt lat="52.688781" lon="05.997450"><ele>3.9</ele><time>2022-09-06T16:54:21Z</time><name>PT14031</name></trkpt>
<trkpt lat="52.688774" lon="05.997462"><ele>3.7</ele><time>2022-09-06T16:54:22Z</time><name>PT14032</name></trkpt>
<trkpt lat="52.688767" lon="05.997474"><ele>4.1</ele><time>2022-09-06T16:54:23Z</time><name>PT14033</name></trkpt>
<trkpt lat="52.688759" lon="05.997485"><ele>4.1</ele><time>2022-09-06T16:54:24Z</time><name>PT14034</name></trkpt>
<trkpt lat="52.688752" lon="05.997496"><ele>3.8</ele><time>2022-09-06T16:54:25Z</time><name>PT14035</name></trkpt>
<trkpt lat="52.688745" lon="05.997510"><ele>4.1</ele><time>2022-09-06T16:54:26Z</time><name>PT14036</name></trkpt>
<trkpt lat="52.688738" lon="05.997524"><ele>4</ele><time>2022-09-06T16:54:27Z</time><name>PT14037</name></trkpt>
<trkpt lat="52.688732" lon="05.997538"><ele>3.8</ele><time>2022-09-06T16:54:28Z</time><name>PT14038</name></trkpt>
<trkpt lat="52.688725" lon="05.997552"><ele>3.9</ele><time>2022-09-06T16:54:29Z</time><name>PT14039</name></trkpt>
<trkpt lat="52.688718" lon="05.997567"><ele>4</ele><time>2022-09-06T16:54:30Z</time><name>PT14040</name></trkpt>
<trkpt lat="52.688710" lon="05.997579"><ele>4.1</ele><time>2022-09-06T16:54:31Z</time><name>PT14041</name></trkpt>
<trkpt lat="52.688702" lon="05.997590"><ele>4.2</ele><time>2022-09-06T16:54:32Z</time><name>PT14042</name></trkpt>
<trkpt lat="52.688695" lon="05.997600"><ele>4.2</ele><time>2022-09-06T16:54:33Z</time><name>PT14043</name></trkpt>
<trkpt lat="52.688687" lon="05.997612"><ele>4.3</ele><time>2022-09-06T16:54:34Z</time><name>PT14044</name></trkpt>
<trkpt lat="52.688679" lon="05.997623"><ele>4.1</ele><time>2022-09-06T16:54:35Z</time><name>PT14045</name></trkpt>
<trkpt lat="52.688671" lon="05.997636"><ele>3.9</ele><time>2022-09-06T16:54:36Z</time><name>PT14046</name></trkpt>
<trkpt lat="52.688662" lon="05.997648"><ele>3.8</ele><time>2022-09-06T16:54:37Z</time><name>PT14047</name></trkpt>
<trkpt lat="52.688654" lon="05.997659"><ele>4</ele><time>2022-09-06T16:54:38Z</time><name>PT14048</name></trkpt>
<trkpt lat="52.688646" lon="05.997668"><ele>3.9</ele><time>2022-09-06T16:54:39Z</time><name>PT14049</name></trkpt>
<trkpt lat="52.688638" lon="05.997677"><ele>3.8</ele><time>2022-09-06T16:54:40Z</time><name>PT14050</name></trkpt>
<trkpt lat="52.688629" lon="05.997686"><ele>4</ele><time>2022-09-06T16:54:41Z</time><name>PT14051</name></trkpt>
<trkpt lat="52.688621" lon="05.997695"><ele>4.1</ele><time>2022-09-06T16:54:42Z</time><name>PT14052</name></trkpt>
<trkpt lat="52.688613" lon="05.997705"><ele>4.1</ele><time>2022-09-06T16:54:43Z</time><name>PT14053</name></trkpt>
<trkpt lat="52.688603" lon="05.997714"><ele>4.2</ele><time>2022-09-06T16:54:44Z</time><name>PT14054</name></trkpt>
<trkpt lat="52.688594" lon="05.997723"><ele>4.2</ele><time>2022-09-06T16:54:45Z</time><name>PT14055</name></trkpt>
<trkpt lat="52.688585" lon="05.997733"><ele>4.1</ele><time>2022-09-06T16:54:46Z</time><name>PT14056</name></trkpt>
<trkpt lat="52.688574" lon="05.997743"><ele>4.1</ele><time>2022-09-06T16:54:47Z</time><name>PT14057</name></trkpt>
<trkpt lat="52.688563" lon="05.997752"><ele>4.1</ele><time>2022-09-06T16:54:48Z</time><name>PT14058</name></trkpt>
<trkpt lat="52.688552" lon="05.997757"><ele>4.1</ele><time>2022-09-06T16:54:49Z</time><name>PT14059</name></trkpt>
<trkpt lat="52.688543" lon="05.997763"><ele>3.9</ele><time>2022-09-06T16:54:50Z</time><name>PT14060</name></trkpt>
<trkpt lat="52.688534" lon="05.997771"><ele>4</ele><time>2022-09-06T16:54:51Z</time><name>PT14061</name></trkpt>
<trkpt lat="52.688524" lon="05.997778"><ele>4</ele><time>2022-09-06T16:54:52Z</time><name>PT14062</name></trkpt>
<trkpt lat="52.688514" lon="05.997784"><ele>3.7</ele><time>2022-09-06T16:54:53Z</time><name>PT14063</name></trkpt>
<trkpt lat="52.688504" lon="05.997789"><ele>3.9</ele><time>2022-09-06T16:54:54Z</time><name>PT14064</name></trkpt>
<trkpt lat="52.688493" lon="05.997794"><ele>4.1</ele><time>2022-09-06T16:54:55Z</time><name>PT14065</name></trkpt>
<trkpt lat="52.688481" lon="05.997798"><ele>4</ele><time>2022-09-06T16:54:56Z</time><name>PT14066</name></trkpt>
<trkpt lat="52.688470" lon="05.997801"><ele>4</ele><time>2022-09-06T16:54:57Z</time><name>PT14067</name></trkpt>
<trkpt lat="52.688458" lon="05.997805"><ele>3.9</ele><time>2022-09-06T16:54:58Z</time><name>PT14068</name></trkpt>
<trkpt lat="52.688448" lon="05.997805"><ele>3.8</ele><time>2022-09-06T16:54:59Z</time><name>PT14069</name></trkpt>
<trkpt lat="52.688437" lon="05.997805"><ele>3.7</ele><time>2022-09-06T16:55:00Z</time><name>PT14070</name></trkpt>
<trkpt lat="52.688426" lon="05.997804"><ele>3.7</ele><time>2022-09-06T16:55:01Z</time><name>PT14071</name></trkpt>
<trkpt lat="52.688415" lon="05.997806"><ele>3.7</ele><time>2022-09-06T16:55:02Z</time><name>PT14072</name></trkpt>
<trkpt lat="52.688402" lon="05.997811"><ele>3.8</ele><time>2022-09-06T16:55:03Z</time><name>PT14073</name></trkpt>
<trkpt lat="52.688392" lon="05.997814"><ele>3.9</ele><time>2022-09-06T16:55:04Z</time><name>PT14074</name></trkpt>
<trkpt lat="52.688381" lon="05.997816"><ele>3.9</ele><time>2022-09-06T16:55:05Z</time><name>PT14075</name></trkpt>
<trkpt lat="52.688371" lon="05.997817"><ele>3.9</ele><time>2022-09-06T16:55:06Z</time><name>PT14076</name></trkpt>
<trkpt lat="52.688360" lon="05.997817"><ele>3.9</ele><time>2022-09-06T16:55:07Z</time><name>PT14077</name></trkpt>
<trkpt lat="52.688348" lon="05.997813"><ele>3.9</ele><time>2022-09-06T16:55:08Z</time><name>PT14078</name></trkpt>
<trkpt lat="52.688337" lon="05.997809"><ele>3.9</ele><time>2022-09-06T16:55:09Z</time><name>PT14079</name></trkpt>
<trkpt lat="52.688325" lon="05.997805"><ele>3.9</ele><time>2022-09-06T16:55:10Z</time><name>PT14080</name></trkpt>
<trkpt lat="52.688315" lon="05.997802"><ele>3.7</ele><time>2022-09-06T16:55:11Z</time><name>PT14081</name></trkpt>
<trkpt lat="52.688306" lon="05.997798"><ele>3.7</ele><time>2022-09-06T16:55:12Z</time><name>PT14082</name></trkpt>
<trkpt lat="52.688296" lon="05.997794"><ele>3.7</ele><time>2022-09-06T16:55:13Z</time><name>PT14083</name></trkpt>
<trkpt lat="52.688286" lon="05.997790"><ele>3.7</ele><time>2022-09-06T16:55:14Z</time><name>PT14084</name></trkpt>
<trkpt lat="52.688276" lon="05.997786"><ele>3.8</ele><time>2022-09-06T16:55:15Z</time><name>PT14085</name></trkpt>
<trkpt lat="52.688265" lon="05.997782"><ele>3.9</ele><time>2022-09-06T16:55:16Z</time><name>PT14086</name></trkpt>
<trkpt lat="52.688254" lon="05.997778"><ele>4.1</ele><time>2022-09-06T16:55:17Z</time><name>PT14087</name></trkpt>
<trkpt lat="52.688242" lon="05.997773"><ele>4.1</ele><time>2022-09-06T16:55:18Z</time><name>PT14088</name></trkpt>
<trkpt lat="52.688232" lon="05.997768"><ele>4.1</ele><time>2022-09-06T16:55:19Z</time><name>PT14089</name></trkpt>
<trkpt lat="52.688222" lon="05.997760"><ele>4</ele><time>2022-09-06T16:55:20Z</time><name>PT14090</name></trkpt>
<trkpt lat="52.688210" lon="05.997752"><ele>4</ele><time>2022-09-06T16:55:21Z</time><name>PT14091</name></trkpt>
<trkpt lat="52.688199" lon="05.997743"><ele>3.9</ele><time>2022-09-06T16:55:22Z</time><name>PT14092</name></trkpt>
<trkpt lat="52.688190" lon="05.997734"><ele>4.1</ele><time>2022-09-06T16:55:23Z</time><name>PT14093</name></trkpt>
<trkpt lat="52.688179" lon="05.997727"><ele>4.3</ele><time>2022-09-06T16:55:24Z</time><name>PT14094</name></trkpt>
<trkpt lat="52.688169" lon="05.997722"><ele>4.4</ele><time>2022-09-06T16:55:25Z</time><name>PT14095</name></trkpt>
<trkpt lat="52.688158" lon="05.997719"><ele>4.6</ele><time>2022-09-06T16:55:26Z</time><name>PT14096</name></trkpt>
<trkpt lat="52.688147" lon="05.997714"><ele>4.5</ele><time>2022-09-06T16:55:27Z</time><name>PT14097</name></trkpt>
<trkpt lat="52.688137" lon="05.997708"><ele>4.4</ele><time>2022-09-06T16:55:28Z</time><name>PT14098</name></trkpt>
<trkpt lat="52.688127" lon="05.997702"><ele>4.3</ele><time>2022-09-06T16:55:29Z</time><name>PT14099</name></trkpt>
<trkpt lat="52.688116" lon="05.997694"><ele>4.2</ele><time>2022-09-06T16:55:30Z</time><name>PT14100</name></trkpt>
<trkpt lat="52.688105" lon="05.997686"><ele>4.1</ele><time>2022-09-06T16:55:31Z</time><name>PT14101</name></trkpt>
<trkpt lat="52.688094" lon="05.997679"><ele>4.2</ele><time>2022-09-06T16:55:32Z</time><name>PT14102</name></trkpt>
<trkpt lat="52.688082" lon="05.997674"><ele>4.2</ele><time>2022-09-06T16:55:33Z</time><name>PT14103</name></trkpt>
<trkpt lat="52.688073" lon="05.997667"><ele>4.2</ele><time>2022-09-06T16:55:34Z</time><name>PT14104</name></trkpt>
<trkpt lat="52.688064" lon="05.997659"><ele>4.2</ele><time>2022-09-06T16:55:35Z</time><name>PT14105</name></trkpt>
<trkpt lat="52.688055" lon="05.997652"><ele>4.3</ele><time>2022-09-06T16:55:36Z</time><name>PT14106</name></trkpt>
<trkpt lat="52.688045" lon="05.997648"><ele>4.1</ele><time>2022-09-06T16:55:37Z</time><name>PT14107</name></trkpt>
<trkpt lat="52.688035" lon="05.997643"><ele>4.1</ele><time>2022-09-06T16:55:38Z</time><name>PT14108</name></trkpt>
<trkpt lat="52.688026" lon="05.997637"><ele>4.1</ele><time>2022-09-06T16:55:39Z</time><name>PT14109</name></trkpt>
<trkpt lat="52.688019" lon="05.997633"><ele>4.2</ele><time>2022-09-06T16:55:40Z</time><name>PT14110</name></trkpt>
<trkpt lat="52.688017" lon="05.997632"><ele>4.3</ele><time>2022-09-06T16:55:41Z</time><name>PT14111</name></trkpt>
<trkpt lat="52.688016" lon="05.997629"><ele>4.3</ele><time>2022-09-06T16:55:42Z</time><name>PT14112</name></trkpt>
<trkpt lat="52.688010" lon="05.997621"><ele>4.5</ele><time>2022-09-06T16:55:43Z</time><name>PT14113</name></trkpt>
<trkpt lat="52.688002" lon="05.997611"><ele>4.5</ele><time>2022-09-06T16:55:44Z</time><name>PT14114</name></trkpt>
<trkpt lat="52.687992" lon="05.997602"><ele>4.6</ele><time>2022-09-06T16:55:45Z</time><name>PT14115</name></trkpt>
<trkpt lat="52.687983" lon="05.997595"><ele>4.6</ele><time>2022-09-06T16:55:46Z</time><name>PT14116</name></trkpt>
<trkpt lat="52.687974" lon="05.997588"><ele>4.6</ele><time>2022-09-06T16:55:47Z</time><name>PT14117</name></trkpt>
<trkpt lat="52.687965" lon="05.997580"><ele>4.7</ele><time>2022-09-06T16:55:48Z</time><name>PT14118</name></trkpt>
<trkpt lat="52.687955" lon="05.997572"><ele>4.7</ele><time>2022-09-06T16:55:49Z</time><name>PT14119</name></trkpt>
<trkpt lat="52.687946" lon="05.997565"><ele>4.9</ele><time>2022-09-06T16:55:50Z</time><name>PT14120</name></trkpt>
<trkpt lat="52.687935" lon="05.997558"><ele>5</ele><time>2022-09-06T16:55:51Z</time><name>PT14121</name></trkpt>
<trkpt lat="52.687925" lon="05.997552"><ele>5.1</ele><time>2022-09-06T16:55:52Z</time><name>PT14122</name></trkpt>
<trkpt lat="52.687915" lon="05.997545"><ele>5</ele><time>2022-09-06T16:55:53Z</time><name>PT14123</name></trkpt>
<trkpt lat="52.687904" lon="05.997537"><ele>4.9</ele><time>2022-09-06T16:55:54Z</time><name>PT14124</name></trkpt>
<trkpt lat="52.687894" lon="05.997529"><ele>4.9</ele><time>2022-09-06T16:55:55Z</time><name>PT14125</name></trkpt>
<trkpt lat="52.687883" lon="05.997521"><ele>4.8</ele><time>2022-09-06T16:55:56Z</time><name>PT14126</name></trkpt>
<trkpt lat="52.687874" lon="05.997511"><ele>4.7</ele><time>2022-09-06T16:55:57Z</time><name>PT14127</name></trkpt>
<trkpt lat="52.687865" lon="05.997502"><ele>4.7</ele><time>2022-09-06T16:55:58Z</time><name>PT14128</name></trkpt>
<trkpt lat="52.687855" lon="05.997492"><ele>4.7</ele><time>2022-09-06T16:55:59Z</time><name>PT14129</name></trkpt>
<trkpt lat="52.687846" lon="05.997484"><ele>4.6</ele><time>2022-09-06T16:56:00Z</time><name>PT14130</name></trkpt>
<trkpt lat="52.687836" lon="05.997477"><ele>4.6</ele><time>2022-09-06T16:56:01Z</time><name>PT14131</name></trkpt>
<trkpt lat="52.687827" lon="05.997471"><ele>4.8</ele><time>2022-09-06T16:56:02Z</time><name>PT14132</name></trkpt>
<trkpt lat="52.687817" lon="05.997466"><ele>4.7</ele><time>2022-09-06T16:56:03Z</time><name>PT14133</name></trkpt>
<trkpt lat="52.687807" lon="05.997461"><ele>4.8</ele><time>2022-09-06T16:56:04Z</time><name>PT14134</name></trkpt>
<trkpt lat="52.687797" lon="05.997454"><ele>5.1</ele><time>2022-09-06T16:56:05Z</time><name>PT14135</name></trkpt>
<trkpt lat="52.687787" lon="05.997445"><ele>5.1</ele><time>2022-09-06T16:56:06Z</time><name>PT14136</name></trkpt>
<trkpt lat="52.687776" lon="05.997436"><ele>5</ele><time>2022-09-06T16:56:07Z</time><name>PT14137</name></trkpt>
<trkpt lat="52.687767" lon="05.997427"><ele>5.1</ele><time>2022-09-06T16:56:08Z</time><name>PT14138</name></trkpt>
<trkpt lat="52.687758" lon="05.997419"><ele>4.9</ele><time>2022-09-06T16:56:09Z</time><name>PT14139</name></trkpt>
<trkpt lat="52.687749" lon="05.997413"><ele>4.9</ele><time>2022-09-06T16:56:10Z</time><name>PT14140</name></trkpt>
<trkpt lat="52.687740" lon="05.997406"><ele>4.9</ele><time>2022-09-06T16:56:11Z</time><name>PT14141</name></trkpt>
<trkpt lat="52.687732" lon="05.997399"><ele>4.9</ele><time>2022-09-06T16:56:12Z</time><name>PT14142</name></trkpt>
<trkpt lat="52.687723" lon="05.997392"><ele>4.9</ele><time>2022-09-06T16:56:13Z</time><name>PT14143</name></trkpt>
<trkpt lat="52.687712" lon="05.997386"><ele>5</ele><time>2022-09-06T16:56:14Z</time><name>PT14144</name></trkpt>
<trkpt lat="52.687701" lon="05.997381"><ele>5.1</ele><time>2022-09-06T16:56:15Z</time><name>PT14145</name></trkpt>
<trkpt lat="52.687690" lon="05.997377"><ele>5.3</ele><time>2022-09-06T16:56:16Z</time><name>PT14146</name></trkpt>
<trkpt lat="52.687681" lon="05.997372"><ele>5.3</ele><time>2022-09-06T16:56:17Z</time><name>PT14147</name></trkpt>
<trkpt lat="52.687671" lon="05.997364"><ele>5.5</ele><time>2022-09-06T16:56:18Z</time><name>PT14148</name></trkpt>
<trkpt lat="52.687662" lon="05.997356"><ele>5.4</ele><time>2022-09-06T16:56:19Z</time><name>PT14149</name></trkpt>
<trkpt lat="52.687654" lon="05.997349"><ele>5.1</ele><time>2022-09-06T16:56:20Z</time><name>PT14150</name></trkpt>
<trkpt lat="52.687645" lon="05.997342"><ele>5.2</ele><time>2022-09-06T16:56:21Z</time><name>PT14151</name></trkpt>
<trkpt lat="52.687636" lon="05.997335"><ele>5.2</ele><time>2022-09-06T16:56:22Z</time><name>PT14152</name></trkpt>
<trkpt lat="52.687627" lon="05.997329"><ele>5.2</ele><time>2022-09-06T16:56:23Z</time><name>PT14153</name></trkpt>
<trkpt lat="52.687617" lon="05.997322"><ele>5.4</ele><time>2022-09-06T16:56:24Z</time><name>PT14154</name></trkpt>
<trkpt lat="52.687607" lon="05.997315"><ele>5.5</ele><time>2022-09-06T16:56:25Z</time><name>PT14155</name></trkpt>
<trkpt lat="52.687597" lon="05.997304"><ele>5.5</ele><time>2022-09-06T16:56:26Z</time><name>PT14156</name></trkpt>
<trkpt lat="52.687586" lon="05.997296"><ele>5.6</ele><time>2022-09-06T16:56:27Z</time><name>PT14157</name></trkpt>
<trkpt lat="52.687575" lon="05.997288"><ele>5.6</ele><time>2022-09-06T16:56:28Z</time><name>PT14158</name></trkpt>
<trkpt lat="52.687566" lon="05.997279"><ele>5.4</ele><time>2022-09-06T16:56:29Z</time><name>PT14159</name></trkpt>
<trkpt lat="52.687559" lon="05.997271"><ele>5.4</ele><time>2022-09-06T16:56:30Z</time><name>PT14160</name></trkpt>
<trkpt lat="52.687551" lon="05.997263"><ele>5.4</ele><time>2022-09-06T16:56:31Z</time><name>PT14161</name></trkpt>
<trkpt lat="52.687543" lon="05.997258"><ele>5.3</ele><time>2022-09-06T16:56:32Z</time><name>PT14162</name></trkpt>
<trkpt lat="52.687533" lon="05.997252"><ele>5.3</ele><time>2022-09-06T16:56:33Z</time><name>PT14163</name></trkpt>
<trkpt lat="52.687523" lon="05.997246"><ele>5.5</ele><time>2022-09-06T16:56:34Z</time><name>PT14164</name></trkpt>
<trkpt lat="52.687512" lon="05.997240"><ele>5.6</ele><time>2022-09-06T16:56:35Z</time><name>PT14165</name></trkpt>
<trkpt lat="52.687502" lon="05.997237"><ele>5.6</ele><time>2022-09-06T16:56:36Z</time><name>PT14166</name></trkpt>
<trkpt lat="52.687492" lon="05.997232"><ele>5.8</ele><time>2022-09-06T16:56:37Z</time><name>PT14167</name></trkpt>
<trkpt lat="52.687484" lon="05.997227"><ele>5.8</ele><time>2022-09-06T16:56:38Z</time><name>PT14168</name></trkpt>
<trkpt lat="52.687475" lon="05.997221"><ele>5.8</ele><time>2022-09-06T16:56:39Z</time><name>PT14169</name></trkpt>
<trkpt lat="52.687466" lon="05.997218"><ele>5.8</ele><time>2022-09-06T16:56:40Z</time><name>PT14170</name></trkpt>
<trkpt lat="52.687456" lon="05.997214"><ele>5.7</ele><time>2022-09-06T16:56:41Z</time><name>PT14171</name></trkpt>
<trkpt lat="52.687447" lon="05.997211"><ele>5.6</ele><time>2022-09-06T16:56:42Z</time><name>PT14172</name></trkpt>
<trkpt lat="52.687437" lon="05.997206"><ele>5.6</ele><time>2022-09-06T16:56:43Z</time><name>PT14173</name></trkpt>
<trkpt lat="52.687426" lon="05.997200"><ele>5.6</ele><time>2022-09-06T16:56:44Z</time><name>PT14174</name></trkpt>
<trkpt lat="52.687415" lon="05.997194"><ele>5.6</ele><time>2022-09-06T16:56:45Z</time><name>PT14175</name></trkpt>
<trkpt lat="52.687406" lon="05.997193"><ele>5.7</ele><time>2022-09-06T16:56:46Z</time><name>PT14176</name></trkpt>
<trkpt lat="52.687398" lon="05.997189"><ele>5.9</ele><time>2022-09-06T16:56:47Z</time><name>PT14177</name></trkpt>
<trkpt lat="52.687389" lon="05.997185"><ele>5.9</ele><time>2022-09-06T16:56:48Z</time><name>PT14178</name></trkpt>
<trkpt lat="52.687380" lon="05.997180"><ele>5.9</ele><time>2022-09-06T16:56:49Z</time><name>PT14179</name></trkpt>
<trkpt lat="52.687370" lon="05.997176"><ele>6.1</ele><time>2022-09-06T16:56:50Z</time><name>PT14180</name></trkpt>
<trkpt lat="52.687360" lon="05.997173"><ele>6</ele><time>2022-09-06T16:56:51Z</time><name>PT14181</name></trkpt>
<trkpt lat="52.687350" lon="05.997170"><ele>5.8</ele><time>2022-09-06T16:56:52Z</time><name>PT14182</name></trkpt>
<trkpt lat="52.687339" lon="05.997167"><ele>5.8</ele><time>2022-09-06T16:56:53Z</time><name>PT14183</name></trkpt>
<trkpt lat="52.687329" lon="05.997164"><ele>5.9</ele><time>2022-09-06T16:56:54Z</time><name>PT14184</name></trkpt>
<trkpt lat="52.687319" lon="05.997159"><ele>5.9</ele><time>2022-09-06T16:56:55Z</time><name>PT14185</name></trkpt>
<trkpt lat="52.687308" lon="05.997154"><ele>6.1</ele><time>2022-09-06T16:56:56Z</time><name>PT14186</name></trkpt>
<trkpt lat="52.687297" lon="05.997151"><ele>6.1</ele><time>2022-09-06T16:56:57Z</time><name>PT14187</name></trkpt>
<trkpt lat="52.687287" lon="05.997150"><ele>6.1</ele><time>2022-09-06T16:56:58Z</time><name>PT14188</name></trkpt>
<trkpt lat="52.687277" lon="05.997150"><ele>5.8</ele><time>2022-09-06T16:56:59Z</time><name>PT14189</name></trkpt>
<trkpt lat="52.687267" lon="05.997150"><ele>5.9</ele><time>2022-09-06T16:57:00Z</time><name>PT14190</name></trkpt>
<trkpt lat="52.687257" lon="05.997148"><ele>5.6</ele><time>2022-09-06T16:57:01Z</time><name>PT14191</name></trkpt>
<trkpt lat="52.687246" lon="05.997146"><ele>5.6</ele><time>2022-09-06T16:57:02Z</time><name>PT14192</name></trkpt>
<trkpt lat="52.687236" lon="05.997145"><ele>5.7</ele><time>2022-09-06T16:57:03Z</time><name>PT14193</name></trkpt>
<trkpt lat="52.687224" lon="05.997144"><ele>5.9</ele><time>2022-09-06T16:57:04Z</time><name>PT14194</name></trkpt>
<trkpt lat="52.687212" lon="05.997141"><ele>5.8</ele><time>2022-09-06T16:57:05Z</time><name>PT14195</name></trkpt>
<trkpt lat="52.687201" lon="05.997140"><ele>5.9</ele><time>2022-09-06T16:57:06Z</time><name>PT14196</name></trkpt>
<trkpt lat="52.687190" lon="05.997142"><ele>6</ele><time>2022-09-06T16:57:07Z</time><name>PT14197</name></trkpt>
<trkpt lat="52.687179" lon="05.997145"><ele>5.8</ele><time>2022-09-06T16:57:08Z</time><name>PT14198</name></trkpt>
<trkpt lat="52.687171" lon="05.997151"><ele>5.6</ele><time>2022-09-06T16:57:09Z</time><name>PT14199</name></trkpt>
<trkpt lat="52.687163" lon="05.997155"><ele>5.6</ele><time>2022-09-06T16:57:10Z</time><name>PT14200</name></trkpt>
<trkpt lat="52.687152" lon="05.997158"><ele>5.6</ele><time>2022-09-06T16:57:11Z</time><name>PT14201</name></trkpt>
<trkpt lat="52.687142" lon="05.997159"><ele>5.6</ele><time>2022-09-06T16:57:12Z</time><name>PT14202</name></trkpt>
<trkpt lat="52.687131" lon="05.997157"><ele>5.6</ele><time>2022-09-06T16:57:13Z</time><name>PT14203</name></trkpt>
<trkpt lat="52.687120" lon="05.997153"><ele>5.6</ele><time>2022-09-06T16:57:14Z</time><name>PT14204</name></trkpt>
<trkpt lat="52.687111" lon="05.997150"><ele>5.6</ele><time>2022-09-06T16:57:15Z</time><name>PT14205</name></trkpt>
<trkpt lat="52.687102" lon="05.997150"><ele>5.6</ele><time>2022-09-06T16:57:16Z</time><name>PT14206</name></trkpt>
<trkpt lat="52.687093" lon="05.997152"><ele>5.5</ele><time>2022-09-06T16:57:17Z</time><name>PT14207</name></trkpt>
<trkpt lat="52.687084" lon="05.997154"><ele>5.6</ele><time>2022-09-06T16:57:18Z</time><name>PT14208</name></trkpt>
<trkpt lat="52.687075" lon="05.997155"><ele>5.7</ele><time>2022-09-06T16:57:19Z</time><name>PT14209</name></trkpt>
<trkpt lat="52.687064" lon="05.997156"><ele>5.7</ele><time>2022-09-06T16:57:20Z</time><name>PT14210</name></trkpt>
<trkpt lat="52.687052" lon="05.997160"><ele>5.6</ele><time>2022-09-06T16:57:21Z</time><name>PT14211</name></trkpt>
<trkpt lat="52.687040" lon="05.997167"><ele>5.7</ele><time>2022-09-06T16:57:22Z</time><name>PT14212</name></trkpt>
<trkpt lat="52.687027" lon="05.997176"><ele>5.6</ele><time>2022-09-06T16:57:23Z</time><name>PT14213</name></trkpt>
<trkpt lat="52.687015" lon="05.997181"><ele>5.6</ele><time>2022-09-06T16:57:24Z</time><name>PT14214</name></trkpt>
<trkpt lat="52.687005" lon="05.997185"><ele>5.5</ele><time>2022-09-06T16:57:25Z</time><name>PT14215</name></trkpt>
<trkpt lat="52.686995" lon="05.997191"><ele>5.4</ele><time>2022-09-06T16:57:26Z</time><name>PT14216</name></trkpt>
<trkpt lat="52.686985" lon="05.997201"><ele>5.4</ele><time>2022-09-06T16:57:27Z</time><name>PT14217</name></trkpt>
<trkpt lat="52.686975" lon="05.997211"><ele>5.5</ele><time>2022-09-06T16:57:28Z</time><name>PT14218</name></trkpt>
<trkpt lat="52.686965" lon="05.997218"><ele>5.4</ele><time>2022-09-06T16:57:29Z</time><name>PT14219</name></trkpt>
<trkpt lat="52.686957" lon="05.997227"><ele>5.6</ele><time>2022-09-06T16:57:30Z</time><name>PT14220</name></trkpt>
<trkpt lat="52.686948" lon="05.997235"><ele>5.6</ele><time>2022-09-06T16:57:31Z</time><name>PT14221</name></trkpt>
<trkpt lat="52.686941" lon="05.997243"><ele>5.6</ele><time>2022-09-06T16:57:32Z</time><name>PT14222</name></trkpt>
<trkpt lat="52.686933" lon="05.997246"><ele>5.6</ele><time>2022-09-06T16:57:33Z</time><name>PT14223</name></trkpt>
<trkpt lat="52.686927" lon="05.997250"><ele>5.6</ele><time>2022-09-06T16:57:34Z</time><name>PT14224</name></trkpt>
<trkpt lat="52.686920" lon="05.997255"><ele>5.6</ele><time>2022-09-06T16:57:35Z</time><name>PT14225</name></trkpt>
<trkpt lat="52.686913" lon="05.997261"><ele>5.5</ele><time>2022-09-06T16:57:36Z</time><name>PT14226</name></trkpt>
<trkpt lat="52.686905" lon="05.997269"><ele>5.4</ele><time>2022-09-06T16:57:37Z</time><name>PT14227</name></trkpt>
<trkpt lat="52.686896" lon="05.997276"><ele>5.4</ele><time>2022-09-06T16:57:38Z</time><name>PT14228</name></trkpt>
<trkpt lat="52.686889" lon="05.997288"><ele>5.3</ele><time>2022-09-06T16:57:39Z</time><name>PT14229</name></trkpt>
<trkpt lat="52.686881" lon="05.997298"><ele>5</ele><time>2022-09-06T16:57:40Z</time><name>PT14230</name></trkpt>
<trkpt lat="52.686874" lon="05.997310"><ele>5.1</ele><time>2022-09-06T16:57:41Z</time><name>PT14231</name></trkpt>
<trkpt lat="52.686864" lon="05.997320"><ele>5.1</ele><time>2022-09-06T16:57:42Z</time><name>PT14232</name></trkpt>
<trkpt lat="52.686855" lon="05.997332"><ele>5.1</ele><time>2022-09-06T16:57:43Z</time><name>PT14233</name></trkpt>
<trkpt lat="52.686847" lon="05.997344"><ele>5.2</ele><time>2022-09-06T16:57:44Z</time><name>PT14234</name></trkpt>
<trkpt lat="52.686840" lon="05.997355"><ele>5.2</ele><time>2022-09-06T16:57:45Z</time><name>PT14235</name></trkpt>
<trkpt lat="52.686832" lon="05.997367"><ele>5.2</ele><time>2022-09-06T16:57:46Z</time><name>PT14236</name></trkpt>
<trkpt lat="52.686823" lon="05.997381"><ele>5.1</ele><time>2022-09-06T16:57:47Z</time><name>PT14237</name></trkpt>
<trkpt lat="52.686816" lon="05.997394"><ele>5.1</ele><time>2022-09-06T16:57:48Z</time><name>PT14238</name></trkpt>
<trkpt lat="52.686809" lon="05.997409"><ele>5.1</ele><time>2022-09-06T16:57:49Z</time><name>PT14239</name></trkpt>
<trkpt lat="52.686802" lon="05.997425"><ele>5.1</ele><time>2022-09-06T16:57:50Z</time><name>PT14240</name></trkpt>
<trkpt lat="52.686795" lon="05.997440"><ele>5.3</ele><time>2022-09-06T16:57:51Z</time><name>PT14241</name></trkpt>
<trkpt lat="52.686787" lon="05.997456"><ele>5.3</ele><time>2022-09-06T16:57:52Z</time><name>PT14242</name></trkpt>
<trkpt lat="52.686778" lon="05.997473"><ele>5.3</ele><time>2022-09-06T16:57:53Z</time><name>PT14243</name></trkpt>
<trkpt lat="52.686770" lon="05.997489"><ele>5.4</ele><time>2022-09-06T16:57:54Z</time><name>PT14244</name></trkpt>
<trkpt lat="52.686762" lon="05.997505"><ele>5.3</ele><time>2022-09-06T16:57:55Z</time><name>PT14245</name></trkpt>
<trkpt lat="52.686755" lon="05.997519"><ele>5.1</ele><time>2022-09-06T16:57:56Z</time><name>PT14246</name></trkpt>
<trkpt lat="52.686747" lon="05.997536"><ele>5.1</ele><time>2022-09-06T16:57:57Z</time><name>PT14247</name></trkpt>
<trkpt lat="52.686740" lon="05.997553"><ele>5.1</ele><time>2022-09-06T16:57:58Z</time><name>PT14248</name></trkpt>
<trkpt lat="52.686733" lon="05.997568"><ele>5.1</ele><time>2022-09-06T16:57:59Z</time><name>PT14249</name></trkpt>
<trkpt lat="52.686728" lon="05.997585"><ele>5.1</ele><time>2022-09-06T16:58:00Z</time><name>PT14250</name></trkpt>
<trkpt lat="52.686723" lon="05.997601"><ele>5.3</ele><time>2022-09-06T16:58:01Z</time><name>PT14251</name></trkpt>
<trkpt lat="52.686718" lon="05.997618"><ele>5.3</ele><time>2022-09-06T16:58:02Z</time><name>PT14252</name></trkpt>
<trkpt lat="52.686713" lon="05.997634"><ele>5.3</ele><time>2022-09-06T16:58:03Z</time><name>PT14253</name></trkpt>
<trkpt lat="52.686708" lon="05.997652"><ele>5.1</ele><time>2022-09-06T16:58:04Z</time><name>PT14254</name></trkpt>
<trkpt lat="52.686701" lon="05.997669"><ele>5</ele><time>2022-09-06T16:58:05Z</time><name>PT14255</name></trkpt>
<trkpt lat="52.686695" lon="05.997686"><ele>5</ele><time>2022-09-06T16:58:06Z</time><name>PT14256</name></trkpt>
<trkpt lat="52.686690" lon="05.997701"><ele>4.9</ele><time>2022-09-06T16:58:07Z</time><name>PT14257</name></trkpt>
<trkpt lat="52.686685" lon="05.997717"><ele>4.8</ele><time>2022-09-06T16:58:08Z</time><name>PT14258</name></trkpt>
<trkpt lat="52.686680" lon="05.997733"><ele>4.9</ele><time>2022-09-06T16:58:09Z</time><name>PT14259</name></trkpt>
<trkpt lat="52.686675" lon="05.997747"><ele>4.8</ele><time>2022-09-06T16:58:10Z</time><name>PT14260</name></trkpt>
<trkpt lat="52.686670" lon="05.997762"><ele>4.7</ele><time>2022-09-06T16:58:11Z</time><name>PT14261</name></trkpt>
<trkpt lat="52.686666" lon="05.997778"><ele>4.8</ele><time>2022-09-06T16:58:12Z</time><name>PT14262</name></trkpt>
<trkpt lat="52.686662" lon="05.997795"><ele>4.7</ele><time>2022-09-06T16:58:13Z</time><name>PT14263</name></trkpt>
<trkpt lat="52.686658" lon="05.997811"><ele>4.7</ele><time>2022-09-06T16:58:14Z</time><name>PT14264</name></trkpt>
<trkpt lat="52.686653" lon="05.997828"><ele>4.7</ele><time>2022-09-06T16:58:15Z</time><name>PT14265</name></trkpt>
<trkpt lat="52.686646" lon="05.997846"><ele>4.7</ele><time>2022-09-06T16:58:16Z</time><name>PT14266</name></trkpt>
<trkpt lat="52.686640" lon="05.997866"><ele>4.7</ele><time>2022-09-06T16:58:17Z</time><name>PT14267</name></trkpt>
<trkpt lat="52.686634" lon="05.997886"><ele>4.7</ele><time>2022-09-06T16:58:18Z</time><name>PT14268</name></trkpt>
<trkpt lat="52.686629" lon="05.997905"><ele>4.7</ele><time>2022-09-06T16:58:19Z</time><name>PT14269</name></trkpt>
<trkpt lat="52.686623" lon="05.997919"><ele>4.6</ele><time>2022-09-06T16:58:20Z</time><name>PT14270</name></trkpt>
<trkpt lat="52.686619" lon="05.997935"><ele>4.6</ele><time>2022-09-06T16:58:21Z</time><name>PT14271</name></trkpt>
<trkpt lat="52.686615" lon="05.997951"><ele>4.6</ele><time>2022-09-06T16:58:22Z</time><name>PT14272</name></trkpt>
<trkpt lat="52.686612" lon="05.997965"><ele>4.6</ele><time>2022-09-06T16:58:23Z</time><name>PT14273</name></trkpt>
<trkpt lat="52.686608" lon="05.997981"><ele>4.6</ele><time>2022-09-06T16:58:24Z</time><name>PT14274</name></trkpt>
<trkpt lat="52.686604" lon="05.997998"><ele>4.6</ele><time>2022-09-06T16:58:25Z</time><name>PT14275</name></trkpt>
<trkpt lat="52.686600" lon="05.998015"><ele>4.5</ele><time>2022-09-06T16:58:26Z</time><name>PT14276</name></trkpt>
<trkpt lat="52.686595" lon="05.998031"><ele>4.5</ele><time>2022-09-06T16:58:27Z</time><name>PT14277</name></trkpt>
<trkpt lat="52.686590" lon="05.998048"><ele>4.5</ele><time>2022-09-06T16:58:28Z</time><name>PT14278</name></trkpt>
<trkpt lat="52.686583" lon="05.998065"><ele>4.3</ele><time>2022-09-06T16:58:29Z</time><name>PT14279</name></trkpt>
<trkpt lat="52.686578" lon="05.998080"><ele>4.4</ele><time>2022-09-06T16:58:30Z</time><name>PT14280</name></trkpt>
<trkpt lat="52.686573" lon="05.998093"><ele>4.5</ele><time>2022-09-06T16:58:31Z</time><name>PT14281</name></trkpt>
<trkpt lat="52.686568" lon="05.998108"><ele>4.3</ele><time>2022-09-06T16:58:32Z</time><name>PT14282</name></trkpt>
<trkpt lat="52.686564" lon="05.998123"><ele>4.5</ele><time>2022-09-06T16:58:33Z</time><name>PT14283</name></trkpt>
<trkpt lat="52.686560" lon="05.998137"><ele>4.6</ele><time>2022-09-06T16:58:34Z</time><name>PT14284</name></trkpt>
<trkpt lat="52.686555" lon="05.998151"><ele>4.6</ele><time>2022-09-06T16:58:35Z</time><name>PT14285</name></trkpt>
<trkpt lat="52.686551" lon="05.998166"><ele>4.7</ele><time>2022-09-06T16:58:36Z</time><name>PT14286</name></trkpt>
<trkpt lat="52.686547" lon="05.998182"><ele>4.7</ele><time>2022-09-06T16:58:37Z</time><name>PT14287</name></trkpt>
<trkpt lat="52.686544" lon="05.998199"><ele>4.6</ele><time>2022-09-06T16:58:38Z</time><name>PT14288</name></trkpt>
<trkpt lat="52.686538" lon="05.998214"><ele>4.5</ele><time>2022-09-06T16:58:39Z</time><name>PT14289</name></trkpt>
<trkpt lat="52.686533" lon="05.998230"><ele>4.5</ele><time>2022-09-06T16:58:40Z</time><name>PT14290</name></trkpt>
<trkpt lat="52.686529" lon="05.998248"><ele>4.6</ele><time>2022-09-06T16:58:41Z</time><name>PT14291</name></trkpt>
<trkpt lat="52.686523" lon="05.998265"><ele>4.6</ele><time>2022-09-06T16:58:42Z</time><name>PT14292</name></trkpt>
<trkpt lat="52.686517" lon="05.998282"><ele>4.6</ele><time>2022-09-06T16:58:43Z</time><name>PT14293</name></trkpt>
<trkpt lat="52.686513" lon="05.998297"><ele>4.6</ele><time>2022-09-06T16:58:44Z</time><name>PT14294</name></trkpt>
<trkpt lat="52.686509" lon="05.998311"><ele>4.5</ele><time>2022-09-06T16:58:45Z</time><name>PT14295</name></trkpt>
<trkpt lat="52.686504" lon="05.998329"><ele>4.4</ele><time>2022-09-06T16:58:46Z</time><name>PT14296</name></trkpt>
<trkpt lat="52.686501" lon="05.998344"><ele>4.5</ele><time>2022-09-06T16:58:47Z</time><name>PT14297</name></trkpt>
<trkpt lat="52.686495" lon="05.998362"><ele>4.3</ele><time>2022-09-06T16:58:48Z</time><name>PT14298</name></trkpt>
<trkpt lat="52.686492" lon="05.998377"><ele>4.4</ele><time>2022-09-06T16:58:49Z</time><name>PT14299</name></trkpt>
<trkpt lat="52.686488" lon="05.998394"><ele>4.6</ele><time>2022-09-06T16:58:50Z</time><name>PT14300</name></trkpt>
<trkpt lat="52.686484" lon="05.998411"><ele>4.6</ele><time>2022-09-06T16:58:51Z</time><name>PT14301</name></trkpt>
<trkpt lat="52.686480" lon="05.998428"><ele>4.5</ele><time>2022-09-06T16:58:52Z</time><name>PT14302</name></trkpt>
<trkpt lat="52.686476" lon="05.998444"><ele>4.5</ele><time>2022-09-06T16:58:53Z</time><name>PT14303</name></trkpt>
<trkpt lat="52.686472" lon="05.998462"><ele>4.4</ele><time>2022-09-06T16:58:54Z</time><name>PT14304</name></trkpt>
<trkpt lat="52.686469" lon="05.998477"><ele>4.4</ele><time>2022-09-06T16:58:55Z</time><name>PT14305</name></trkpt>
<trkpt lat="52.686466" lon="05.998488"><ele>4.3</ele><time>2022-09-06T16:58:56Z</time><name>PT14306</name></trkpt>
<trkpt lat="52.686461" lon="05.998502"><ele>4.3</ele><time>2022-09-06T16:58:57Z</time><name>PT14307</name></trkpt>
<trkpt lat="52.686459" lon="05.998518"><ele>4.2</ele><time>2022-09-06T16:58:58Z</time><name>PT14308</name></trkpt>
<trkpt lat="52.686454" lon="05.998532"><ele>4.4</ele><time>2022-09-06T16:58:59Z</time><name>PT14309</name></trkpt>
<trkpt lat="52.686449" lon="05.998545"><ele>4.4</ele><time>2022-09-06T16:59:00Z</time><name>PT14310</name></trkpt>
<trkpt lat="52.686444" lon="05.998561"><ele>4.3</ele><time>2022-09-06T16:59:01Z</time><name>PT14311</name></trkpt>
<trkpt lat="52.686438" lon="05.998577"><ele>4.4</ele><time>2022-09-06T16:59:02Z</time><name>PT14312</name></trkpt>
<trkpt lat="52.686431" lon="05.998594"><ele>4.6</ele><time>2022-09-06T16:59:03Z</time><name>PT14313</name></trkpt>
<trkpt lat="52.686425" lon="05.998612"><ele>4.3</ele><time>2022-09-06T16:59:04Z</time><name>PT14314</name></trkpt>
<trkpt lat="52.686421" lon="05.998631"><ele>4.4</ele><time>2022-09-06T16:59:05Z</time><name>PT14315</name></trkpt>
<trkpt lat="52.686416" lon="05.998647"><ele>4.4</ele><time>2022-09-06T16:59:06Z</time><name>PT14316</name></trkpt>
<trkpt lat="52.686412" lon="05.998664"><ele>4.5</ele><time>2022-09-06T16:59:07Z</time><name>PT14317</name></trkpt>
<trkpt lat="52.686405" lon="05.998681"><ele>4.6</ele><time>2022-09-06T16:59:08Z</time><name>PT14318</name></trkpt>
<trkpt lat="52.686399" lon="05.998699"><ele>4.5</ele><time>2022-09-06T16:59:09Z</time><name>PT14319</name></trkpt>
<trkpt lat="52.686392" lon="05.998720"><ele>4.7</ele><time>2022-09-06T16:59:10Z</time><name>PT14320</name></trkpt>
<trkpt lat="52.686385" lon="05.998739"><ele>4.6</ele><time>2022-09-06T16:59:11Z</time><name>PT14321</name></trkpt>
<trkpt lat="52.686381" lon="05.998756"><ele>4.6</ele><time>2022-09-06T16:59:12Z</time><name>PT14322</name></trkpt>
<trkpt lat="52.686376" lon="05.998773"><ele>4.4</ele><time>2022-09-06T16:59:13Z</time><name>PT14323</name></trkpt>
<trkpt lat="52.686371" lon="05.998787"><ele>4.3</ele><time>2022-09-06T16:59:14Z</time><name>PT14324</name></trkpt>
<trkpt lat="52.686366" lon="05.998802"><ele>4.3</ele><time>2022-09-06T16:59:15Z</time><name>PT14325</name></trkpt>
<trkpt lat="52.686361" lon="05.998818"><ele>4.3</ele><time>2022-09-06T16:59:16Z</time><name>PT14326</name></trkpt>
<trkpt lat="52.686356" lon="05.998834"><ele>4.5</ele><time>2022-09-06T16:59:17Z</time><name>PT14327</name></trkpt>
<trkpt lat="52.686351" lon="05.998851"><ele>4.4</ele><time>2022-09-06T16:59:18Z</time><name>PT14328</name></trkpt>
<trkpt lat="52.686346" lon="05.998866"><ele>4.2</ele><time>2022-09-06T16:59:19Z</time><name>PT14329</name></trkpt>
<trkpt lat="52.686341" lon="05.998880"><ele>4.3</ele><time>2022-09-06T16:59:20Z</time><name>PT14330</name></trkpt>
<trkpt lat="52.686336" lon="05.998894"><ele>4.1</ele><time>2022-09-06T16:59:21Z</time><name>PT14331</name></trkpt>
<trkpt lat="52.686331" lon="05.998906"><ele>4.1</ele><time>2022-09-06T16:59:22Z</time><name>PT14332</name></trkpt>
<trkpt lat="52.686324" lon="05.998922"><ele>4.3</ele><time>2022-09-06T16:59:23Z</time><name>PT14333</name></trkpt>
<trkpt lat="52.686319" lon="05.998935"><ele>4.3</ele><time>2022-09-06T16:59:24Z</time><name>PT14334</name></trkpt>
<trkpt lat="52.686313" lon="05.998951"><ele>4.4</ele><time>2022-09-06T16:59:25Z</time><name>PT14335</name></trkpt>
<trkpt lat="52.686308" lon="05.998966"><ele>4.3</ele><time>2022-09-06T16:59:26Z</time><name>PT14336</name></trkpt>
<trkpt lat="52.686303" lon="05.998983"><ele>4.4</ele><time>2022-09-06T16:59:27Z</time><name>PT14337</name></trkpt>
<trkpt lat="52.686298" lon="05.998997"><ele>4.4</ele><time>2022-09-06T16:59:28Z</time><name>PT14338</name></trkpt>
<trkpt lat="52.686293" lon="05.999012"><ele>4.6</ele><time>2022-09-06T16:59:29Z</time><name>PT14339</name></trkpt>
<trkpt lat="52.686289" lon="05.999025"><ele>4.6</ele><time>2022-09-06T16:59:30Z</time><name>PT14340</name></trkpt>
<trkpt lat="52.686285" lon="05.999037"><ele>4.4</ele><time>2022-09-06T16:59:31Z</time><name>PT14341</name></trkpt>
<trkpt lat="52.686280" lon="05.999051"><ele>4.3</ele><time>2022-09-06T16:59:32Z</time><name>PT14342</name></trkpt>
<trkpt lat="52.686275" lon="05.999066"><ele>4.2</ele><time>2022-09-06T16:59:33Z</time><name>PT14343</name></trkpt>
<trkpt lat="52.686269" lon="05.999081"><ele>4.2</ele><time>2022-09-06T16:59:34Z</time><name>PT14344</name></trkpt>
<trkpt lat="52.686263" lon="05.999093"><ele>4.4</ele><time>2022-09-06T16:59:35Z</time><name>PT14345</name></trkpt>
<trkpt lat="52.686257" lon="05.999107"><ele>4.5</ele><time>2022-09-06T16:59:36Z</time><name>PT14346</name></trkpt>
<trkpt lat="52.686252" lon="05.999124"><ele>4.5</ele><time>2022-09-06T16:59:37Z</time><name>PT14347</name></trkpt>
<trkpt lat="52.686247" lon="05.999141"><ele>4.4</ele><time>2022-09-06T16:59:38Z</time><name>PT14348</name></trkpt>
<trkpt lat="52.686240" lon="05.999155"><ele>4.2</ele><time>2022-09-06T16:59:39Z</time><name>PT14349</name></trkpt>
<trkpt lat="52.686234" lon="05.999170"><ele>4.1</ele><time>2022-09-06T16:59:40Z</time><name>PT14350</name></trkpt>
<trkpt lat="52.686228" lon="05.999188"><ele>4.1</ele><time>2022-09-06T16:59:41Z</time><name>PT14351</name></trkpt>
<trkpt lat="52.686224" lon="05.999202"><ele>3.8</ele><time>2022-09-06T16:59:42Z</time><name>PT14352</name></trkpt>
<trkpt lat="52.686219" lon="05.999217"><ele>4.3</ele><time>2022-09-06T16:59:43Z</time><name>PT14353</name></trkpt>
<trkpt lat="52.686213" lon="05.999234"><ele>4.6</ele><time>2022-09-06T16:59:44Z</time><name>PT14354</name></trkpt>
<trkpt lat="52.686207" lon="05.999252"><ele>4.6</ele><time>2022-09-06T16:59:45Z</time><name>PT14355</name></trkpt>
<trkpt lat="52.686202" lon="05.999269"><ele>4.6</ele><time>2022-09-06T16:59:46Z</time><name>PT14356</name></trkpt>
<trkpt lat="52.686197" lon="05.999286"><ele>4.6</ele><time>2022-09-06T16:59:47Z</time><name>PT14357</name></trkpt>
<trkpt lat="52.686193" lon="05.999302"><ele>4.4</ele><time>2022-09-06T16:59:48Z</time><name>PT14358</name></trkpt>
<trkpt lat="52.686190" lon="05.999317"><ele>4.3</ele><time>2022-09-06T16:59:49Z</time><name>PT14359</name></trkpt>
<trkpt lat="52.686185" lon="05.999334"><ele>4.4</ele><time>2022-09-06T16:59:50Z</time><name>PT14360</name></trkpt>
<trkpt lat="52.686177" lon="05.999353"><ele>4.4</ele><time>2022-09-06T16:59:51Z</time><name>PT14361</name></trkpt>
<trkpt lat="52.686170" lon="05.999372"><ele>4.4</ele><time>2022-09-06T16:59:52Z</time><name>PT14362</name></trkpt>
<trkpt lat="52.686163" lon="05.999388"><ele>4.4</ele><time>2022-09-06T16:59:53Z</time><name>PT14363</name></trkpt>
<trkpt lat="52.686157" lon="05.999401"><ele>4.2</ele><time>2022-09-06T16:59:54Z</time><name>PT14364</name></trkpt>
<trkpt lat="52.686150" lon="05.999414"><ele>4.1</ele><time>2022-09-06T16:59:55Z</time><name>PT14365</name></trkpt>
<trkpt lat="52.686145" lon="05.999428"><ele>4.1</ele><time>2022-09-06T16:59:56Z</time><name>PT14366</name></trkpt>
<trkpt lat="52.686141" lon="05.999441"><ele>4.1</ele><time>2022-09-06T16:59:57Z</time><name>PT14367</name></trkpt>
<trkpt lat="52.686136" lon="05.999453"><ele>4.2</ele><time>2022-09-06T16:59:58Z</time><name>PT14368</name></trkpt>
<trkpt lat="52.686130" lon="05.999469"><ele>4.3</ele><time>2022-09-06T16:59:59Z</time><name>PT14369</name></trkpt>
<trkpt lat="52.686124" lon="05.999487"><ele>4.2</ele><time>2022-09-06T17:00:00Z</time><name>PT14370</name></trkpt>
<trkpt lat="52.686120" lon="05.999502"><ele>4.4</ele><time>2022-09-06T17:00:01Z</time><name>PT14371</name></trkpt>
<trkpt lat="52.686114" lon="05.999518"><ele>4.3</ele><time>2022-09-06T17:00:02Z</time><name>PT14372</name></trkpt>
<trkpt lat="52.686108" lon="05.999535"><ele>4.1</ele><time>2022-09-06T17:00:03Z</time><name>PT14373</name></trkpt>
<trkpt lat="52.686101" lon="05.999551"><ele>4.1</ele><time>2022-09-06T17:00:04Z</time><name>PT14374</name></trkpt>
<trkpt lat="52.686095" lon="05.999568"><ele>4.3</ele><time>2022-09-06T17:00:05Z</time><name>PT14375</name></trkpt>
<trkpt lat="52.686089" lon="05.999584"><ele>4.1</ele><time>2022-09-06T17:00:06Z</time><name>PT14376</name></trkpt>
<trkpt lat="52.686083" lon="05.999596"><ele>4.3</ele><time>2022-09-06T17:00:07Z</time><name>PT14377</name></trkpt>
<trkpt lat="52.686077" lon="05.999611"><ele>4.3</ele><time>2022-09-06T17:00:08Z</time><name>PT14378</name></trkpt>
<trkpt lat="52.686072" lon="05.999625"><ele>4.2</ele><time>2022-09-06T17:00:09Z</time><name>PT14379</name></trkpt>
<trkpt lat="52.686066" lon="05.999640"><ele>4.2</ele><time>2022-09-06T17:00:10Z</time><name>PT14380</name></trkpt>
<trkpt lat="52.686060" lon="05.999656"><ele>4.1</ele><time>2022-09-06T17:00:11Z</time><name>PT14381</name></trkpt>
<trkpt lat="52.686055" lon="05.999671"><ele>4.2</ele><time>2022-09-06T17:00:12Z</time><name>PT14382</name></trkpt>
<trkpt lat="52.686049" lon="05.999687"><ele>4.4</ele><time>2022-09-06T17:00:13Z</time><name>PT14383</name></trkpt>
<trkpt lat="52.686044" lon="05.999701"><ele>4.5</ele><time>2022-09-06T17:00:14Z</time><name>PT14384</name></trkpt>
<trkpt lat="52.686039" lon="05.999716"><ele>4.4</ele><time>2022-09-06T17:00:15Z</time><name>PT14385</name></trkpt>
<trkpt lat="52.686033" lon="05.999729"><ele>4.5</ele><time>2022-09-06T17:00:16Z</time><name>PT14386</name></trkpt>
<trkpt lat="52.686025" lon="05.999742"><ele>4.5</ele><time>2022-09-06T17:00:17Z</time><name>PT14387</name></trkpt>
<trkpt lat="52.686017" lon="05.999757"><ele>4.5</ele><time>2022-09-06T17:00:18Z</time><name>PT14388</name></trkpt>
<trkpt lat="52.686010" lon="05.999772"><ele>4.3</ele><time>2022-09-06T17:00:19Z</time><name>PT14389</name></trkpt>
<trkpt lat="52.686003" lon="05.999786"><ele>4.4</ele><time>2022-09-06T17:00:20Z</time><name>PT14390</name></trkpt>
<trkpt lat="52.685999" lon="05.999799"><ele>4.2</ele><time>2022-09-06T17:00:21Z</time><name>PT14391</name></trkpt>
<trkpt lat="52.685991" lon="05.999815"><ele>4.3</ele><time>2022-09-06T17:00:22Z</time><name>PT14392</name></trkpt>
<trkpt lat="52.685985" lon="05.999829"><ele>4.1</ele><time>2022-09-06T17:00:23Z</time><name>PT14393</name></trkpt>
<trkpt lat="52.685977" lon="05.999845"><ele>4.3</ele><time>2022-09-06T17:00:24Z</time><name>PT14394</name></trkpt>
<trkpt lat="52.685968" lon="05.999860"><ele>4.2</ele><time>2022-09-06T17:00:25Z</time><name>PT14395</name></trkpt>
<trkpt lat="52.685961" lon="05.999875"><ele>4.2</ele><time>2022-09-06T17:00:26Z</time><name>PT14396</name></trkpt>
<trkpt lat="52.685952" lon="05.999887"><ele>4.1</ele><time>2022-09-06T17:00:27Z</time><name>PT14397</name></trkpt>
<trkpt lat="52.685944" lon="05.999902"><ele>4.3</ele><time>2022-09-06T17:00:28Z</time><name>PT14398</name></trkpt>
<trkpt lat="52.685937" lon="05.999916"><ele>4.1</ele><time>2022-09-06T17:00:29Z</time><name>PT14399</name></trkpt>
<trkpt lat="52.685930" lon="05.999930"><ele>4.2</ele><time>2022-09-06T17:00:30Z</time><name>PT14400</name></trkpt>
<trkpt lat="52.685923" lon="05.999943"><ele>4.3</ele><time>2022-09-06T17:00:31Z</time><name>PT14401</name></trkpt>
<trkpt lat="52.685916" lon="05.999957"><ele>4.2</ele><time>2022-09-06T17:00:32Z</time><name>PT14402</name></trkpt>
<trkpt lat="52.685909" lon="05.999970"><ele>4.2</ele><time>2022-09-06T17:00:33Z</time><name>PT14403</name></trkpt>
<trkpt lat="52.685901" lon="05.999984"><ele>4.3</ele><time>2022-09-06T17:00:34Z</time><name>PT14404</name></trkpt>
<trkpt lat="52.685894" lon="05.999996"><ele>4.3</ele><time>2022-09-06T17:00:35Z</time><name>PT14405</name></trkpt>
<trkpt lat="52.685886" lon="06.000011"><ele>4.3</ele><time>2022-09-06T17:00:36Z</time><name>PT14406</name></trkpt>
<trkpt lat="52.685878" lon="06.000027"><ele>4.2</ele><time>2022-09-06T17:00:37Z</time><name>PT14407</name></trkpt>
<trkpt lat="52.685869" lon="06.000042"><ele>4.4</ele><time>2022-09-06T17:00:38Z</time><name>PT14408</name></trkpt>
<trkpt lat="52.685862" lon="06.000055"><ele>4.4</ele><time>2022-09-06T17:00:39Z</time><name>PT14409</name></trkpt>
<trkpt lat="52.685854" lon="06.000068"><ele>4.2</ele><time>2022-09-06T17:00:40Z</time><name>PT14410</name></trkpt>
<trkpt lat="52.685845" lon="06.000082"><ele>4.3</ele><time>2022-09-06T17:00:41Z</time><name>PT14411</name></trkpt>
<trkpt lat="52.685837" lon="06.000093"><ele>4.2</ele><time>2022-09-06T17:00:42Z</time><name>PT14412</name></trkpt>
<trkpt lat="52.685832" lon="06.000103"><ele>4.3</ele><time>2022-09-06T17:00:43Z</time><name>PT14413</name></trkpt>
<trkpt lat="52.685828" lon="06.000114"><ele>4.5</ele><time>2022-09-06T17:00:44Z</time><name>PT14414</name></trkpt>
<trkpt lat="52.685821" lon="06.000126"><ele>4.5</ele><time>2022-09-06T17:00:45Z</time><name>PT14415</name></trkpt>
<trkpt lat="52.685813" lon="06.000138"><ele>4.4</ele><time>2022-09-06T17:00:46Z</time><name>PT14416</name></trkpt>
<trkpt lat="52.685802" lon="06.000150"><ele>4.3</ele><time>2022-09-06T17:00:47Z</time><name>PT14417</name></trkpt>
<trkpt lat="52.685794" lon="06.000163"><ele>4.2</ele><time>2022-09-06T17:00:48Z</time><name>PT14418</name></trkpt>
<trkpt lat="52.685786" lon="06.000176"><ele>4</ele><time>2022-09-06T17:00:49Z</time><name>PT14419</name></trkpt>
<trkpt lat="52.685776" lon="06.000189"><ele>4.1</ele><time>2022-09-06T17:00:50Z</time><name>PT14420</name></trkpt>
<trkpt lat="52.685767" lon="06.000199"><ele>4.1</ele><time>2022-09-06T17:00:51Z</time><name>PT14421</name></trkpt>
<trkpt lat="52.685759" lon="06.000208"><ele>4.2</ele><time>2022-09-06T17:00:52Z</time><name>PT14422</name></trkpt>
<trkpt lat="52.685750" lon="06.000218"><ele>4.4</ele><time>2022-09-06T17:00:53Z</time><name>PT14423</name></trkpt>
<trkpt lat="52.685743" lon="06.000230"><ele>4.5</ele><time>2022-09-06T17:00:54Z</time><name>PT14424</name></trkpt>
<trkpt lat="52.685737" lon="06.000242"><ele>4.4</ele><time>2022-09-06T17:00:55Z</time><name>PT14425</name></trkpt>
<trkpt lat="52.685729" lon="06.000256"><ele>4.3</ele><time>2022-09-06T17:00:56Z</time><name>PT14426</name></trkpt>
<trkpt lat="52.685722" lon="06.000270"><ele>4.1</ele><time>2022-09-06T17:00:57Z</time><name>PT14427</name></trkpt>
<trkpt lat="52.685711" lon="06.000284"><ele>4.1</ele><time>2022-09-06T17:00:58Z</time><name>PT14428</name></trkpt>
<trkpt lat="52.685703" lon="06.000298"><ele>4.1</ele><time>2022-09-06T17:00:59Z</time><name>PT14429</name></trkpt>
<trkpt lat="52.685695" lon="06.000311"><ele>4.2</ele><time>2022-09-06T17:01:00Z</time><name>PT14430</name></trkpt>
<trkpt lat="52.685687" lon="06.000324"><ele>4.4</ele><time>2022-09-06T17:01:01Z</time><name>PT14431</name></trkpt>
<trkpt lat="52.685680" lon="06.000334"><ele>4.5</ele><time>2022-09-06T17:01:02Z</time><name>PT14432</name></trkpt>
<trkpt lat="52.685673" lon="06.000343"><ele>4.5</ele><time>2022-09-06T17:01:03Z</time><name>PT14433</name></trkpt>
<trkpt lat="52.685666" lon="06.000352"><ele>4.3</ele><time>2022-09-06T17:01:04Z</time><name>PT14434</name></trkpt>
<trkpt lat="52.685658" lon="06.000361"><ele>4</ele><time>2022-09-06T17:01:05Z</time><name>PT14435</name></trkpt>
<trkpt lat="52.685651" lon="06.000371"><ele>4</ele><time>2022-09-06T17:01:06Z</time><name>PT14436</name></trkpt>
<trkpt lat="52.685643" lon="06.000380"><ele>4.1</ele><time>2022-09-06T17:01:07Z</time><name>PT14437</name></trkpt>
<trkpt lat="52.685633" lon="06.000391"><ele>4.1</ele><time>2022-09-06T17:01:08Z</time><name>PT14438</name></trkpt>
<trkpt lat="52.685625" lon="06.000402"><ele>4.3</ele><time>2022-09-06T17:01:09Z</time><name>PT14439</name></trkpt>
<trkpt lat="52.685617" lon="06.000413"><ele>4.4</ele><time>2022-09-06T17:01:10Z</time><name>PT14440</name></trkpt>
<trkpt lat="52.685610" lon="06.000425"><ele>4.5</ele><time>2022-09-06T17:01:11Z</time><name>PT14441</name></trkpt>
<trkpt lat="52.685603" lon="06.000436"><ele>4.3</ele><time>2022-09-06T17:01:12Z</time><name>PT14442</name></trkpt>
<trkpt lat="52.685594" lon="06.000448"><ele>4.3</ele><time>2022-09-06T17:01:13Z</time><name>PT14443</name></trkpt>
<trkpt lat="52.685586" lon="06.000461"><ele>4.2</ele><time>2022-09-06T17:01:14Z</time><name>PT14444</name></trkpt>
<trkpt lat="52.685577" lon="06.000471"><ele>4.2</ele><time>2022-09-06T17:01:15Z</time><name>PT14445</name></trkpt>
<trkpt lat="52.685568" lon="06.000483"><ele>4.2</ele><time>2022-09-06T17:01:16Z</time><name>PT14446</name></trkpt>
<trkpt lat="52.685560" lon="06.000494"><ele>4.3</ele><time>2022-09-06T17:01:17Z</time><name>PT14447</name></trkpt>
<trkpt lat="52.685551" lon="06.000504"><ele>4.4</ele><time>2022-09-06T17:01:18Z</time><name>PT14448</name></trkpt>
<trkpt lat="52.685542" lon="06.000515"><ele>4.4</ele><time>2022-09-06T17:01:19Z</time><name>PT14449</name></trkpt>
<trkpt lat="52.685535" lon="06.000523"><ele>4.3</ele><time>2022-09-06T17:01:20Z</time><name>PT14450</name></trkpt>
<trkpt lat="52.685526" lon="06.000534"><ele>4.4</ele><time>2022-09-06T17:01:21Z</time><name>PT14451</name></trkpt>
<trkpt lat="52.685518" lon="06.000545"><ele>4.3</ele><time>2022-09-06T17:01:22Z</time><name>PT14452</name></trkpt>
<trkpt lat="52.685512" lon="06.000556"><ele>4.2</ele><time>2022-09-06T17:01:23Z</time><name>PT14453</name></trkpt>
<trkpt lat="52.685505" lon="06.000565"><ele>4.1</ele><time>2022-09-06T17:01:24Z</time><name>PT14454</name></trkpt>
<trkpt lat="52.685497" lon="06.000578"><ele>4.1</ele><time>2022-09-06T17:01:25Z</time><name>PT14455</name></trkpt>
<trkpt lat="52.685488" lon="06.000592"><ele>4.1</ele><time>2022-09-06T17:01:26Z</time><name>PT14456</name></trkpt>
<trkpt lat="52.685478" lon="06.000602"><ele>4.1</ele><time>2022-09-06T17:01:27Z</time><name>PT14457</name></trkpt>
<trkpt lat="52.685468" lon="06.000612"><ele>4.2</ele><time>2022-09-06T17:01:28Z</time><name>PT14458</name></trkpt>
<trkpt lat="52.685459" lon="06.000621"><ele>4.4</ele><time>2022-09-06T17:01:29Z</time><name>PT14459</name></trkpt>
<trkpt lat="52.685451" lon="06.000629"><ele>4.4</ele><time>2022-09-06T17:01:30Z</time><name>PT14460</name></trkpt>
<trkpt lat="52.685443" lon="06.000640"><ele>4.6</ele><time>2022-09-06T17:01:31Z</time><name>PT14461</name></trkpt>
<trkpt lat="52.685433" lon="06.000654"><ele>4.5</ele><time>2022-09-06T17:01:32Z</time><name>PT14462</name></trkpt>
<trkpt lat="52.685425" lon="06.000665"><ele>4.4</ele><time>2022-09-06T17:01:33Z</time><name>PT14463</name></trkpt>
<trkpt lat="52.685416" lon="06.000677"><ele>4.2</ele><time>2022-09-06T17:01:34Z</time><name>PT14464</name></trkpt>
<trkpt lat="52.685408" lon="06.000692"><ele>4.2</ele><time>2022-09-06T17:01:35Z</time><name>PT14465</name></trkpt>
<trkpt lat="52.685400" lon="06.000701"><ele>4.1</ele><time>2022-09-06T17:01:36Z</time><name>PT14466</name></trkpt>
<trkpt lat="52.685389" lon="06.000710"><ele>4.1</ele><time>2022-09-06T17:01:37Z</time><name>PT14467</name></trkpt>
<trkpt lat="52.685379" lon="06.000719"><ele>4.2</ele><time>2022-09-06T17:01:38Z</time><name>PT14468</name></trkpt>
<trkpt lat="52.685370" lon="06.000728"><ele>4.1</ele><time>2022-09-06T17:01:39Z</time><name>PT14469</name></trkpt>
<trkpt lat="52.685361" lon="06.000741"><ele>4.1</ele><time>2022-09-06T17:01:40Z</time><name>PT14470</name></trkpt>
<trkpt lat="52.685353" lon="06.000755"><ele>4.1</ele><time>2022-09-06T17:01:41Z</time><name>PT14471</name></trkpt>
<trkpt lat="52.685346" lon="06.000764"><ele>4.1</ele><time>2022-09-06T17:01:42Z</time><name>PT14472</name></trkpt>
<trkpt lat="52.685338" lon="06.000773"><ele>4.2</ele><time>2022-09-06T17:01:43Z</time><name>PT14473</name></trkpt>
<trkpt lat="52.685330" lon="06.000781"><ele>4.4</ele><time>2022-09-06T17:01:44Z</time><name>PT14474</name></trkpt>
<trkpt lat="52.685323" lon="06.000789"><ele>4.5</ele><time>2022-09-06T17:01:45Z</time><name>PT14475</name></trkpt>
<trkpt lat="52.685317" lon="06.000799"><ele>4.5</ele><time>2022-09-06T17:01:46Z</time><name>PT14476</name></trkpt>
<trkpt lat="52.685309" lon="06.000809"><ele>4.4</ele><time>2022-09-06T17:01:47Z</time><name>PT14477</name></trkpt>
<trkpt lat="52.685299" lon="06.000819"><ele>4.3</ele><time>2022-09-06T17:01:48Z</time><name>PT14478</name></trkpt>
<trkpt lat="52.685287" lon="06.000830"><ele>4.2</ele><time>2022-09-06T17:01:49Z</time><name>PT14479</name></trkpt>
<trkpt lat="52.685277" lon="06.000841"><ele>4.3</ele><time>2022-09-06T17:01:50Z</time><name>PT14480</name></trkpt>
<trkpt lat="52.685267" lon="06.000854"><ele>4.6</ele><time>2022-09-06T17:01:51Z</time><name>PT14481</name></trkpt>
<trkpt lat="52.685259" lon="06.000866"><ele>4.6</ele><time>2022-09-06T17:01:52Z</time><name>PT14482</name></trkpt>
<trkpt lat="52.685251" lon="06.000877"><ele>4.6</ele><time>2022-09-06T17:01:53Z</time><name>PT14483</name></trkpt>
<trkpt lat="52.685243" lon="06.000887"><ele>4.4</ele><time>2022-09-06T17:01:54Z</time><name>PT14484</name></trkpt>
<trkpt lat="52.685233" lon="06.000898"><ele>4.2</ele><time>2022-09-06T17:01:55Z</time><name>PT14485</name></trkpt>
<trkpt lat="52.685223" lon="06.000908"><ele>4.1</ele><time>2022-09-06T17:01:56Z</time><name>PT14486</name></trkpt>
<trkpt lat="52.685214" lon="06.000917"><ele>4.1</ele><time>2022-09-06T17:01:57Z</time><name>PT14487</name></trkpt>
<trkpt lat="52.685207" lon="06.000927"><ele>4.1</ele><time>2022-09-06T17:01:58Z</time><name>PT14488</name></trkpt>
<trkpt lat="52.685199" lon="06.000935"><ele>4.1</ele><time>2022-09-06T17:01:59Z</time><name>PT14489</name></trkpt>
<trkpt lat="52.685189" lon="06.000944"><ele>4.1</ele><time>2022-09-06T17:02:00Z</time><name>PT14490</name></trkpt>
<trkpt lat="52.685180" lon="06.000956"><ele>4.1</ele><time>2022-09-06T17:02:01Z</time><name>PT14491</name></trkpt>
<trkpt lat="52.685172" lon="06.000967"><ele>4.2</ele><time>2022-09-06T17:02:02Z</time><name>PT14492</name></trkpt>
<trkpt lat="52.685163" lon="06.000976"><ele>4.3</ele><time>2022-09-06T17:02:03Z</time><name>PT14493</name></trkpt>
<trkpt lat="52.685152" lon="06.000984"><ele>4.3</ele><time>2022-09-06T17:02:04Z</time><name>PT14494</name></trkpt>
<trkpt lat="52.685144" lon="06.000993"><ele>4.5</ele><time>2022-09-06T17:02:05Z</time><name>PT14495</name></trkpt>
<trkpt lat="52.685135" lon="06.000998"><ele>4.5</ele><time>2022-09-06T17:02:06Z</time><name>PT14496</name></trkpt>
<trkpt lat="52.685127" lon="06.001005"><ele>4.3</ele><time>2022-09-06T17:02:07Z</time><name>PT14497</name></trkpt>
<trkpt lat="52.685120" lon="06.001013"><ele>4.2</ele><time>2022-09-06T17:02:08Z</time><name>PT14498</name></trkpt>
<trkpt lat="52.685113" lon="06.001020"><ele>4.2</ele><time>2022-09-06T17:02:09Z</time><name>PT14499</name></trkpt>
<trkpt lat="52.685104" lon="06.001028"><ele>4</ele><time>2022-09-06T17:02:10Z</time><name>PT14500</name></trkpt>
<trkpt lat="52.685095" lon="06.001037"><ele>4</ele><time>2022-09-06T17:02:11Z</time><name>PT14501</name></trkpt>
<trkpt lat="52.685084" lon="06.001048"><ele>4.1</ele><time>2022-09-06T17:02:12Z</time><name>PT14502</name></trkpt>
<trkpt lat="52.685072" lon="06.001058"><ele>4.1</ele><time>2022-09-06T17:02:13Z</time><name>PT14503</name></trkpt>
<trkpt lat="52.685062" lon="06.001066"><ele>4.2</ele><time>2022-09-06T17:02:14Z</time><name>PT14504</name></trkpt>
<trkpt lat="52.685052" lon="06.001075"><ele>4.3</ele><time>2022-09-06T17:02:15Z</time><name>PT14505</name></trkpt>
<trkpt lat="52.685042" lon="06.001084"><ele>4.3</ele><time>2022-09-06T17:02:16Z</time><name>PT14506</name></trkpt>
<trkpt lat="52.685034" lon="06.001093"><ele>4.2</ele><time>2022-09-06T17:02:17Z</time><name>PT14507</name></trkpt>
<trkpt lat="52.685026" lon="06.001106"><ele>4.3</ele><time>2022-09-06T17:02:18Z</time><name>PT14508</name></trkpt>
<trkpt lat="52.685019" lon="06.001120"><ele>4.3</ele><time>2022-09-06T17:02:19Z</time><name>PT14509</name></trkpt>
<trkpt lat="52.685009" lon="06.001131"><ele>4.3</ele><time>2022-09-06T17:02:20Z</time><name>PT14510</name></trkpt>
<trkpt lat="52.684999" lon="06.001140"><ele>4.3</ele><time>2022-09-06T17:02:21Z</time><name>PT14511</name></trkpt>
<trkpt lat="52.684989" lon="06.001148"><ele>4.3</ele><time>2022-09-06T17:02:22Z</time><name>PT14512</name></trkpt>
<trkpt lat="52.684979" lon="06.001155"><ele>4.2</ele><time>2022-09-06T17:02:23Z</time><name>PT14513</name></trkpt>
<trkpt lat="52.684970" lon="06.001161"><ele>4.2</ele><time>2022-09-06T17:02:24Z</time><name>PT14514</name></trkpt>
<trkpt lat="52.684961" lon="06.001167"><ele>4.3</ele><time>2022-09-06T17:02:25Z</time><name>PT14515</name></trkpt>
<trkpt lat="52.684951" lon="06.001174"><ele>4.3</ele><time>2022-09-06T17:02:26Z</time><name>PT14516</name></trkpt>
<trkpt lat="52.684940" lon="06.001181"><ele>4.2</ele><time>2022-09-06T17:02:27Z</time><name>PT14517</name></trkpt>
<trkpt lat="52.684930" lon="06.001190"><ele>4.1</ele><time>2022-09-06T17:02:28Z</time><name>PT14518</name></trkpt>
<trkpt lat="52.684920" lon="06.001201"><ele>4.2</ele><time>2022-09-06T17:02:29Z</time><name>PT14519</name></trkpt>
<trkpt lat="52.684911" lon="06.001208"><ele>4.2</ele><time>2022-09-06T17:02:30Z</time><name>PT14520</name></trkpt>
<trkpt lat="52.684901" lon="06.001213"><ele>4.1</ele><time>2022-09-06T17:02:31Z</time><name>PT14521</name></trkpt>
<trkpt lat="52.684891" lon="06.001215"><ele>4.1</ele><time>2022-09-06T17:02:32Z</time><name>PT14522</name></trkpt>
<trkpt lat="52.684880" lon="06.001219"><ele>4.2</ele><time>2022-09-06T17:02:33Z</time><name>PT14523</name></trkpt>
<trkpt lat="52.684871" lon="06.001225"><ele>4.1</ele><time>2022-09-06T17:02:34Z</time><name>PT14524</name></trkpt>
<trkpt lat="52.684862" lon="06.001232"><ele>4</ele><time>2022-09-06T17:02:35Z</time><name>PT14525</name></trkpt>
<trkpt lat="52.684855" lon="06.001235"><ele>4</ele><time>2022-09-06T17:02:36Z</time><name>PT14526</name></trkpt>
<trkpt lat="52.684849" lon="06.001237"><ele>3.8</ele><time>2022-09-06T17:02:37Z</time><name>PT14527</name></trkpt>
<trkpt lat="52.684837" lon="06.001243"><ele>3.7</ele><time>2022-09-06T17:02:38Z</time><name>PT14528</name></trkpt>
<trkpt lat="52.684827" lon="06.001246"><ele>3.7</ele><time>2022-09-06T17:02:39Z</time><name>PT14529</name></trkpt>
<trkpt lat="52.684816" lon="06.001252"><ele>3.6</ele><time>2022-09-06T17:02:40Z</time><name>PT14530</name></trkpt>
<trkpt lat="52.684805" lon="06.001256"><ele>3.8</ele><time>2022-09-06T17:02:41Z</time><name>PT14531</name></trkpt>
<trkpt lat="52.684797" lon="06.001259"><ele>3.8</ele><time>2022-09-06T17:02:42Z</time><name>PT14532</name></trkpt>
<trkpt lat="52.684787" lon="06.001267"><ele>3.8</ele><time>2022-09-06T17:02:43Z</time><name>PT14533</name></trkpt>
<trkpt lat="52.684780" lon="06.001271"><ele>4</ele><time>2022-09-06T17:02:44Z</time><name>PT14534</name></trkpt>
<trkpt lat="52.684772" lon="06.001276"><ele>3.8</ele><time>2022-09-06T17:02:45Z</time><name>PT14535</name></trkpt>
<trkpt lat="52.684766" lon="06.001278"><ele>3.7</ele><time>2022-09-06T17:02:46Z</time><name>PT14536</name></trkpt>
<trkpt lat="52.684757" lon="06.001281"><ele>3.8</ele><time>2022-09-06T17:02:47Z</time><name>PT14537</name></trkpt>
<trkpt lat="52.684747" lon="06.001283"><ele>3.9</ele><time>2022-09-06T17:02:48Z</time><name>PT14538</name></trkpt>
<trkpt lat="52.684736" lon="06.001286"><ele>3.9</ele><time>2022-09-06T17:02:49Z</time><name>PT14539</name></trkpt>
<trkpt lat="52.684722" lon="06.001287"><ele>4.1</ele><time>2022-09-06T17:02:50Z</time><name>PT14540</name></trkpt>
<trkpt lat="52.684711" lon="06.001295"><ele>4.1</ele><time>2022-09-06T17:02:51Z</time><name>PT14541</name></trkpt>
<trkpt lat="52.684704" lon="06.001295"><ele>4.1</ele><time>2022-09-06T17:02:52Z</time><name>PT14542</name></trkpt>
<trkpt lat="52.684689" lon="06.001300"><ele>4.1</ele><time>2022-09-06T17:02:53Z</time><name>PT14543</name></trkpt>
<trkpt lat="52.684679" lon="06.001306"><ele>4</ele><time>2022-09-06T17:02:54Z</time><name>PT14544</name></trkpt>
<trkpt lat="52.684669" lon="06.001312"><ele>3.8</ele><time>2022-09-06T17:02:55Z</time><name>PT14545</name></trkpt>
<trkpt lat="52.684657" lon="06.001318"><ele>3.8</ele><time>2022-09-06T17:02:56Z</time><name>PT14546</name></trkpt>
<trkpt lat="52.684646" lon="06.001323"><ele>3.9</ele><time>2022-09-06T17:02:57Z</time><name>PT14547</name></trkpt>
<trkpt lat="52.684633" lon="06.001327"><ele>3.9</ele><time>2022-09-06T17:02:58Z</time><name>PT14548</name></trkpt>
<trkpt lat="52.684622" lon="06.001331"><ele>3.7</ele><time>2022-09-06T17:02:59Z</time><name>PT14549</name></trkpt>
<trkpt lat="52.684611" lon="06.001337"><ele>3.7</ele><time>2022-09-06T17:03:00Z</time><name>PT14550</name></trkpt>
<trkpt lat="52.684601" lon="06.001341"><ele>3.7</ele><time>2022-09-06T17:03:01Z</time><name>PT14551</name></trkpt>
<trkpt lat="52.684592" lon="06.001345"><ele>3.5</ele><time>2022-09-06T17:03:02Z</time><name>PT14552</name></trkpt>
<trkpt lat="52.684583" lon="06.001350"><ele>3.7</ele><time>2022-09-06T17:03:03Z</time><name>PT14553</name></trkpt>
<trkpt lat="52.684574" lon="06.001354"><ele>3.9</ele><time>2022-09-06T17:03:04Z</time><name>PT14554</name></trkpt>
<trkpt lat="52.684565" lon="06.001357"><ele>4</ele><time>2022-09-06T17:03:05Z</time><name>PT14555</name></trkpt>
<trkpt lat="52.684554" lon="06.001361"><ele>4</ele><time>2022-09-06T17:03:06Z</time><name>PT14556</name></trkpt>
<trkpt lat="52.684544" lon="06.001367"><ele>4.1</ele><time>2022-09-06T17:03:07Z</time><name>PT14557</name></trkpt>
<trkpt lat="52.684532" lon="06.001370"><ele>3.9</ele><time>2022-09-06T17:03:08Z</time><name>PT14558</name></trkpt>
<trkpt lat="52.684521" lon="06.001374"><ele>4.1</ele><time>2022-09-06T17:03:09Z</time><name>PT14559</name></trkpt>
<trkpt lat="52.684510" lon="06.001378"><ele>3.8</ele><time>2022-09-06T17:03:10Z</time><name>PT14560</name></trkpt>
<trkpt lat="52.684501" lon="06.001381"><ele>3.8</ele><time>2022-09-06T17:03:11Z</time><name>PT14561</name></trkpt>
<trkpt lat="52.684491" lon="06.001386"><ele>3.7</ele><time>2022-09-06T17:03:12Z</time><name>PT14562</name></trkpt>
<trkpt lat="52.684483" lon="06.001390"><ele>3.7</ele><time>2022-09-06T17:03:13Z</time><name>PT14563</name></trkpt>
<trkpt lat="52.684473" lon="06.001394"><ele>3.7</ele><time>2022-09-06T17:03:14Z</time><name>PT14564</name></trkpt>
<trkpt lat="52.684462" lon="06.001397"><ele>3.7</ele><time>2022-09-06T17:03:15Z</time><name>PT14565</name></trkpt>
<trkpt lat="52.684454" lon="06.001398"><ele>3.7</ele><time>2022-09-06T17:03:16Z</time><name>PT14566</name></trkpt>
<trkpt lat="52.684445" lon="06.001400"><ele>3.9</ele><time>2022-09-06T17:03:17Z</time><name>PT14567</name></trkpt>
<trkpt lat="52.684435" lon="06.001402"><ele>3.8</ele><time>2022-09-06T17:03:18Z</time><name>PT14568</name></trkpt>
<trkpt lat="52.684423" lon="06.001403"><ele>3.7</ele><time>2022-09-06T17:03:19Z</time><name>PT14569</name></trkpt>
<trkpt lat="52.684412" lon="06.001408"><ele>3.8</ele><time>2022-09-06T17:03:20Z</time><name>PT14570</name></trkpt>
<trkpt lat="52.684401" lon="06.001412"><ele>3.9</ele><time>2022-09-06T17:03:21Z</time><name>PT14571</name></trkpt>
<trkpt lat="52.684392" lon="06.001416"><ele>3.7</ele><time>2022-09-06T17:03:22Z</time><name>PT14572</name></trkpt>
<trkpt lat="52.684382" lon="06.001419"><ele>3.7</ele><time>2022-09-06T17:03:23Z</time><name>PT14573</name></trkpt>
<trkpt lat="52.684372" lon="06.001426"><ele>3.8</ele><time>2022-09-06T17:03:24Z</time><name>PT14574</name></trkpt>
<trkpt lat="52.684361" lon="06.001431"><ele>3.7</ele><time>2022-09-06T17:03:25Z</time><name>PT14575</name></trkpt>
<trkpt lat="52.684352" lon="06.001431"><ele>3.7</ele><time>2022-09-06T17:03:26Z</time><name>PT14576</name></trkpt>
<trkpt lat="52.684343" lon="06.001432"><ele>3.7</ele><time>2022-09-06T17:03:27Z</time><name>PT14577</name></trkpt>
<trkpt lat="52.684335" lon="06.001436"><ele>3.7</ele><time>2022-09-06T17:03:28Z</time><name>PT14578</name></trkpt>
<trkpt lat="52.684326" lon="06.001440"><ele>3.8</ele><time>2022-09-06T17:03:29Z</time><name>PT14579</name></trkpt>
<trkpt lat="52.684316" lon="06.001441"><ele>3.9</ele><time>2022-09-06T17:03:30Z</time><name>PT14580</name></trkpt>
<trkpt lat="52.684305" lon="06.001441"><ele>4</ele><time>2022-09-06T17:03:31Z</time><name>PT14581</name></trkpt>
<trkpt lat="52.684294" lon="06.001445"><ele>3.9</ele><time>2022-09-06T17:03:32Z</time><name>PT14582</name></trkpt>
<trkpt lat="52.684285" lon="06.001449"><ele>3.9</ele><time>2022-09-06T17:03:33Z</time><name>PT14583</name></trkpt>
<trkpt lat="52.684275" lon="06.001454"><ele>3.9</ele><time>2022-09-06T17:03:34Z</time><name>PT14584</name></trkpt>
<trkpt lat="52.684265" lon="06.001461"><ele>3.8</ele><time>2022-09-06T17:03:35Z</time><name>PT14585</name></trkpt>
<trkpt lat="52.684253" lon="06.001470"><ele>3.8</ele><time>2022-09-06T17:03:36Z</time><name>PT14586</name></trkpt>
<trkpt lat="52.684245" lon="06.001474"><ele>3.8</ele><time>2022-09-06T17:03:37Z</time><name>PT14587</name></trkpt>
<trkpt lat="52.684238" lon="06.001478"><ele>3.9</ele><time>2022-09-06T17:03:38Z</time><name>PT14588</name></trkpt>
<trkpt lat="52.684229" lon="06.001483"><ele>3.9</ele><time>2022-09-06T17:03:39Z</time><name>PT14589</name></trkpt>
<trkpt lat="52.684221" lon="06.001488"><ele>3.9</ele><time>2022-09-06T17:03:40Z</time><name>PT14590</name></trkpt>
<trkpt lat="52.684213" lon="06.001493"><ele>3.9</ele><time>2022-09-06T17:03:41Z</time><name>PT14591</name></trkpt>
<trkpt lat="52.684205" lon="06.001496"><ele>3.8</ele><time>2022-09-06T17:03:42Z</time><name>PT14592</name></trkpt>
<trkpt lat="52.684198" lon="06.001500"><ele>3.7</ele><time>2022-09-06T17:03:43Z</time><name>PT14593</name></trkpt>
<trkpt lat="52.684191" lon="06.001507"><ele>3.7</ele><time>2022-09-06T17:03:44Z</time><name>PT14594</name></trkpt>
<trkpt lat="52.684186" lon="06.001512"><ele>3.8</ele><time>2022-09-06T17:03:45Z</time><name>PT14595</name></trkpt>
<trkpt lat="52.684182" lon="06.001514"><ele>3.9</ele><time>2022-09-06T17:03:46Z</time><name>PT14596</name></trkpt>
<trkpt lat="52.684179" lon="06.001515"><ele>4.1</ele><time>2022-09-06T17:03:49Z</time><name>PT14597</name></trkpt>
<trkpt lat="52.684177" lon="06.001514"><ele>4</ele><time>2022-09-06T17:03:50Z</time><name>PT14598</name></trkpt>
<trkpt lat="52.684174" lon="06.001518"><ele>4</ele><time>2022-09-06T17:03:51Z</time><name>PT14599</name></trkpt>
<trkpt lat="52.684171" lon="06.001525"><ele>3.9</ele><time>2022-09-06T17:03:52Z</time><name>PT14600</name></trkpt>
<trkpt lat="52.684168" lon="06.001528"><ele>3.9</ele><time>2022-09-06T17:03:53Z</time><name>PT14601</name></trkpt>
<trkpt lat="52.684166" lon="06.001530"><ele>3.8</ele><time>2022-09-06T17:03:54Z</time><name>PT14602</name></trkpt>
<trkpt lat="52.684163" lon="06.001535"><ele>3.7</ele><time>2022-09-06T17:03:55Z</time><name>PT14603</name></trkpt>
<trkpt lat="52.684160" lon="06.001540"><ele>3.7</ele><time>2022-09-06T17:03:56Z</time><name>PT14604</name></trkpt>
<trkpt lat="52.684158" lon="06.001543"><ele>3.7</ele><time>2022-09-06T17:03:57Z</time><name>PT14605</name></trkpt>
<trkpt lat="52.684153" lon="06.001538"><ele>4</ele><time>2022-09-06T17:04:01Z</time><name>PT14606</name></trkpt>
<trkpt lat="52.684145" lon="06.001537"><ele>4.1</ele><time>2022-09-06T17:04:02Z</time><name>PT14607</name></trkpt>
<trkpt lat="52.684137" lon="06.001542"><ele>4.1</ele><time>2022-09-06T17:04:03Z</time><name>PT14608</name></trkpt>
<trkpt lat="52.684135" lon="06.001538"><ele>4.1</ele><time>2022-09-06T17:04:04Z</time><name>PT14609</name></trkpt>
<trkpt lat="52.684134" lon="06.001537"><ele>4</ele><time>2022-09-06T17:04:05Z</time><name>PT14610</name></trkpt>
<trkpt lat="52.684133" lon="06.001541"><ele>4.1</ele><time>2022-09-06T17:04:06Z</time><name>PT14611</name></trkpt>
<trkpt lat="52.684133" lon="06.001549"><ele>3.9</ele><time>2022-09-06T17:04:07Z</time><name>PT14612</name></trkpt>
<trkpt lat="52.684133" lon="06.001557"><ele>4</ele><time>2022-09-06T17:04:10Z</time><name>PT14613</name></trkpt>
<trkpt lat="52.684133" lon="06.001558"><ele>4.1</ele><time>2022-09-06T17:04:11Z</time><name>PT14614</name></trkpt>
<trkpt lat="52.684131" lon="06.001559"><ele>4.2</ele><time>2022-09-06T17:04:12Z</time><name>PT14615</name></trkpt>
<trkpt lat="52.684128" lon="06.001565"><ele>4.6</ele><time>2022-09-06T17:04:19Z</time><name>PT14616</name></trkpt>
<trkpt lat="52.684130" lon="06.001601"><ele>4.6</ele><time>2022-09-06T17:04:20Z</time><name>PT14617</name></trkpt>
<trkpt lat="52.684136" lon="06.001619"><ele>4.5</ele><time>2022-09-06T17:04:21Z</time><name>PT14618</name></trkpt>
<trkpt lat="52.684140" lon="06.001634"><ele>4.3</ele><time>2022-09-06T17:04:22Z</time><name>PT14619</name></trkpt>
<trkpt lat="52.684145" lon="06.001652"><ele>4</ele><time>2022-09-06T17:04:23Z</time><name>PT14620</name></trkpt>
<trkpt lat="52.684150" lon="06.001671"><ele>3.8</ele><time>2022-09-06T17:04:24Z</time><name>PT14621</name></trkpt>
<trkpt lat="52.684155" lon="06.001688"><ele>3.8</ele><time>2022-09-06T17:04:25Z</time><name>PT14622</name></trkpt>
<trkpt lat="52.684160" lon="06.001705"><ele>3.7</ele><time>2022-09-06T17:04:26Z</time><name>PT14623</name></trkpt>
<trkpt lat="52.684168" lon="06.001721"><ele>3.7</ele><time>2022-09-06T17:04:27Z</time><name>PT14624</name></trkpt>
<trkpt lat="52.684174" lon="06.001738"><ele>3.8</ele><time>2022-09-06T17:04:28Z</time><name>PT14625</name></trkpt>
<trkpt lat="52.684179" lon="06.001755"><ele>3.9</ele><time>2022-09-06T17:04:29Z</time><name>PT14626</name></trkpt>
<trkpt lat="52.684185" lon="06.001773"><ele>3.7</ele><time>2022-09-06T17:04:30Z</time><name>PT14627</name></trkpt>
<trkpt lat="52.684189" lon="06.001790"><ele>3.7</ele><time>2022-09-06T17:04:31Z</time><name>PT14628</name></trkpt>
<trkpt lat="52.684194" lon="06.001809"><ele>3.6</ele><time>2022-09-06T17:04:32Z</time><name>PT14629</name></trkpt>
<trkpt lat="52.684198" lon="06.001829"><ele>3.7</ele><time>2022-09-06T17:04:33Z</time><name>PT14630</name></trkpt>
<trkpt lat="52.684203" lon="06.001849"><ele>3.6</ele><time>2022-09-06T17:04:34Z</time><name>PT14631</name></trkpt>
<trkpt lat="52.684207" lon="06.001869"><ele>3.7</ele><time>2022-09-06T17:04:35Z</time><name>PT14632</name></trkpt>
<trkpt lat="52.684212" lon="06.001890"><ele>3.5</ele><time>2022-09-06T17:04:36Z</time><name>PT14633</name></trkpt>
<trkpt lat="52.684218" lon="06.001910"><ele>3.5</ele><time>2022-09-06T17:04:37Z</time><name>PT14634</name></trkpt>
<trkpt lat="52.684224" lon="06.001930"><ele>3.6</ele><time>2022-09-06T17:04:38Z</time><name>PT14635</name></trkpt>
<trkpt lat="52.684228" lon="06.001949"><ele>3.5</ele><time>2022-09-06T17:04:39Z</time><name>PT14636</name></trkpt>
<trkpt lat="52.684231" lon="06.001969"><ele>3.4</ele><time>2022-09-06T17:04:40Z</time><name>PT14637</name></trkpt>
<trkpt lat="52.684233" lon="06.001989"><ele>3.7</ele><time>2022-09-06T17:04:41Z</time><name>PT14638</name></trkpt>
<trkpt lat="52.684234" lon="06.002009"><ele>3.5</ele><time>2022-09-06T17:04:42Z</time><name>PT14639</name></trkpt>
<trkpt lat="52.684235" lon="06.002030"><ele>3.7</ele><time>2022-09-06T17:04:43Z</time><name>PT14640</name></trkpt>
<trkpt lat="52.684237" lon="06.002049"><ele>3.6</ele><time>2022-09-06T17:04:44Z</time><name>PT14641</name></trkpt>
<trkpt lat="52.684237" lon="06.002069"><ele>3.6</ele><time>2022-09-06T17:04:45Z</time><name>PT14642</name></trkpt>
<trkpt lat="52.684238" lon="06.002089"><ele>3.6</ele><time>2022-09-06T17:04:46Z</time><name>PT14643</name></trkpt>
<trkpt lat="52.684241" lon="06.002109"><ele>3.4</ele><time>2022-09-06T17:04:47Z</time><name>PT14644</name></trkpt>
<trkpt lat="52.684244" lon="06.002130"><ele>3.3</ele><time>2022-09-06T17:04:48Z</time><name>PT14645</name></trkpt>
<trkpt lat="52.684247" lon="06.002149"><ele>3.5</ele><time>2022-09-06T17:04:49Z</time><name>PT14646</name></trkpt>
<trkpt lat="52.684251" lon="06.002167"><ele>3.5</ele><time>2022-09-06T17:04:50Z</time><name>PT14647</name></trkpt>
<trkpt lat="52.684254" lon="06.002187"><ele>3.5</ele><time>2022-09-06T17:04:51Z</time><name>PT14648</name></trkpt>
<trkpt lat="52.684258" lon="06.002206"><ele>3.6</ele><time>2022-09-06T17:04:52Z</time><name>PT14649</name></trkpt>
<trkpt lat="52.684259" lon="06.002228"><ele>3.6</ele><time>2022-09-06T17:04:53Z</time><name>PT14650</name></trkpt>
<trkpt lat="52.684263" lon="06.002250"><ele>3.6</ele><time>2022-09-06T17:04:54Z</time><name>PT14651</name></trkpt>
<trkpt lat="52.684268" lon="06.002269"><ele>3.5</ele><time>2022-09-06T17:04:55Z</time><name>PT14652</name></trkpt>
<trkpt lat="52.684272" lon="06.002290"><ele>3.2</ele><time>2022-09-06T17:04:56Z</time><name>PT14653</name></trkpt>
<trkpt lat="52.684277" lon="06.002312"><ele>3.4</ele><time>2022-09-06T17:04:57Z</time><name>PT14654</name></trkpt>
<trkpt lat="52.684282" lon="06.002333"><ele>3.5</ele><time>2022-09-06T17:04:58Z</time><name>PT14655</name></trkpt>
<trkpt lat="52.684287" lon="06.002353"><ele>3.5</ele><time>2022-09-06T17:04:59Z</time><name>PT14656</name></trkpt>
<trkpt lat="52.684293" lon="06.002372"><ele>3.4</ele><time>2022-09-06T17:05:00Z</time><name>PT14657</name></trkpt>
<trkpt lat="52.684297" lon="06.002391"><ele>3.5</ele><time>2022-09-06T17:05:01Z</time><name>PT14658</name></trkpt>
<trkpt lat="52.684301" lon="06.002409"><ele>3.6</ele><time>2022-09-06T17:05:02Z</time><name>PT14659</name></trkpt>
<trkpt lat="52.684306" lon="06.002427"><ele>3.5</ele><time>2022-09-06T17:05:03Z</time><name>PT14660</name></trkpt>
<trkpt lat="52.684312" lon="06.002443"><ele>3.7</ele><time>2022-09-06T17:05:04Z</time><name>PT14661</name></trkpt>
<trkpt lat="52.684317" lon="06.002458"><ele>3.7</ele><time>2022-09-06T17:05:05Z</time><name>PT14662</name></trkpt>
<trkpt lat="52.684323" lon="06.002475"><ele>3.7</ele><time>2022-09-06T17:05:06Z</time><name>PT14663</name></trkpt>
<trkpt lat="52.684330" lon="06.002490"><ele>3.8</ele><time>2022-09-06T17:05:07Z</time><name>PT14664</name></trkpt>
<trkpt lat="52.684337" lon="06.002507"><ele>3.7</ele><time>2022-09-06T17:05:08Z</time><name>PT14665</name></trkpt>
<trkpt lat="52.684344" lon="06.002523"><ele>3.7</ele><time>2022-09-06T17:05:09Z</time><name>PT14666</name></trkpt>
<trkpt lat="52.684350" lon="06.002539"><ele>3.7</ele><time>2022-09-06T17:05:10Z</time><name>PT14667</name></trkpt>
<trkpt lat="52.684355" lon="06.002555"><ele>3.7</ele><time>2022-09-06T17:05:11Z</time><name>PT14668</name></trkpt>
<trkpt lat="52.684360" lon="06.002572"><ele>3.7</ele><time>2022-09-06T17:05:12Z</time><name>PT14669</name></trkpt>
<trkpt lat="52.684367" lon="06.002590"><ele>3.6</ele><time>2022-09-06T17:05:13Z</time><name>PT14670</name></trkpt>
<trkpt lat="52.684372" lon="06.002608"><ele>3.2</ele><time>2022-09-06T17:05:14Z</time><name>PT14671</name></trkpt>
<trkpt lat="52.684378" lon="06.002628"><ele>3.1</ele><time>2022-09-06T17:05:15Z</time><name>PT14672</name></trkpt>
<trkpt lat="52.684383" lon="06.002646"><ele>3</ele><time>2022-09-06T17:05:16Z</time><name>PT14673</name></trkpt>
<trkpt lat="52.684386" lon="06.002664"><ele>2.9</ele><time>2022-09-06T17:05:17Z</time><name>PT14674</name></trkpt>
<trkpt lat="52.684387" lon="06.002681"><ele>2.8</ele><time>2022-09-06T17:05:18Z</time><name>PT14675</name></trkpt>
<trkpt lat="52.684384" lon="06.002693"><ele>2.8</ele><time>2022-09-06T17:05:19Z</time><name>PT14676</name></trkpt>
<trkpt lat="52.684380" lon="06.002705"><ele>2.9</ele><time>2022-09-06T17:05:20Z</time><name>PT14677</name></trkpt>
<trkpt lat="52.684375" lon="06.002715"><ele>2.8</ele><time>2022-09-06T17:05:21Z</time><name>PT14678</name></trkpt>
<trkpt lat="52.684368" lon="06.002725"><ele>2.8</ele><time>2022-09-06T17:05:22Z</time><name>PT14679</name></trkpt>
<trkpt lat="52.684359" lon="06.002733"><ele>2.8</ele><time>2022-09-06T17:05:23Z</time><name>PT14680</name></trkpt>
<trkpt lat="52.684350" lon="06.002739"><ele>2.8</ele><time>2022-09-06T17:05:24Z</time><name>PT14681</name></trkpt>
<trkpt lat="52.684339" lon="06.002744"><ele>2.7</ele><time>2022-09-06T17:05:25Z</time><name>PT14682</name></trkpt>
<trkpt lat="52.684328" lon="06.002748"><ele>2.9</ele><time>2022-09-06T17:05:26Z</time><name>PT14683</name></trkpt>
<trkpt lat="52.684317" lon="06.002751"><ele>2.9</ele><time>2022-09-06T17:05:27Z</time><name>PT14684</name></trkpt>
<trkpt lat="52.684306" lon="06.002755"><ele>2.8</ele><time>2022-09-06T17:05:28Z</time><name>PT14685</name></trkpt>
<trkpt lat="52.684296" lon="06.002757"><ele>2.8</ele><time>2022-09-06T17:05:29Z</time><name>PT14686</name></trkpt>
<trkpt lat="52.684287" lon="06.002754"><ele>2.8</ele><time>2022-09-06T17:05:30Z</time><name>PT14687</name></trkpt>
<trkpt lat="52.684278" lon="06.002752"><ele>2.7</ele><time>2022-09-06T17:05:31Z</time><name>PT14688</name></trkpt>
<trkpt lat="52.684268" lon="06.002754"><ele>2.8</ele><time>2022-09-06T17:05:32Z</time><name>PT14689</name></trkpt>
<trkpt lat="52.684260" lon="06.002763"><ele>2.8</ele><time>2022-09-06T17:05:33Z</time><name>PT14690</name></trkpt>
<trkpt lat="52.684257" lon="06.002774"><ele>3.1</ele><time>2022-09-06T17:05:34Z</time><name>PT14691</name></trkpt>
<trkpt lat="52.684255" lon="06.002787"><ele>3.2</ele><time>2022-09-06T17:05:35Z</time><name>PT14692</name></trkpt>
<trkpt lat="52.684257" lon="06.002801"><ele>3.2</ele><time>2022-09-06T17:05:36Z</time><name>PT14693</name></trkpt>
<trkpt lat="52.684259" lon="06.002815"><ele>3.2</ele><time>2022-09-06T17:05:37Z</time><name>PT14694</name></trkpt>
<trkpt lat="52.684264" lon="06.002828"><ele>3.3</ele><time>2022-09-06T17:05:38Z</time><name>PT14695</name></trkpt>
<trkpt lat="52.684266" lon="06.002840"><ele>3.3</ele><time>2022-09-06T17:05:39Z</time><name>PT14696</name></trkpt>
<trkpt lat="52.684267" lon="06.002843"><ele>3.1</ele><time>2022-09-06T17:05:40Z</time><name>PT14697</name></trkpt>
<trkpt lat="52.684270" lon="06.002851"><ele>3.2</ele><time>2022-09-06T17:05:41Z</time><name>PT14698</name></trkpt>
<trkpt lat="52.684273" lon="06.002863"><ele>3.2</ele><time>2022-09-06T17:05:42Z</time><name>PT14699</name></trkpt>
<trkpt lat="52.684276" lon="06.002878"><ele>3.2</ele><time>2022-09-06T17:05:43Z</time><name>PT14700</name></trkpt>
<trkpt lat="52.684280" lon="06.002892"><ele>3</ele><time>2022-09-06T17:05:44Z</time><name>PT14701</name></trkpt>
<trkpt lat="52.684285" lon="06.002903"><ele>3.2</ele><time>2022-09-06T17:05:45Z</time><name>PT14702</name></trkpt>
<trkpt lat="52.684292" lon="06.002913"><ele>3.1</ele><time>2022-09-06T17:05:46Z</time><name>PT14703</name></trkpt>
<trkpt lat="52.684297" lon="06.002925"><ele>3</ele><time>2022-09-06T17:05:47Z</time><name>PT14704</name></trkpt>
<trkpt lat="52.684301" lon="06.002940"><ele>3.2</ele><time>2022-09-06T17:05:48Z</time><name>PT14705</name></trkpt>
<trkpt lat="52.684306" lon="06.002957"><ele>3.4</ele><time>2022-09-06T17:05:49Z</time><name>PT14706</name></trkpt>
<trkpt lat="52.684310" lon="06.002972"><ele>3.3</ele><time>2022-09-06T17:05:50Z</time><name>PT14707</name></trkpt>
<trkpt lat="52.684315" lon="06.002985"><ele>3.4</ele><time>2022-09-06T17:05:51Z</time><name>PT14708</name></trkpt>
<trkpt lat="52.684319" lon="06.003000"><ele>3.3</ele><time>2022-09-06T17:05:52Z</time><name>PT14709</name></trkpt>
<trkpt lat="52.684324" lon="06.003015"><ele>3</ele><time>2022-09-06T17:05:53Z</time><name>PT14710</name></trkpt>
<trkpt lat="52.684329" lon="06.003031"><ele>3</ele><time>2022-09-06T17:05:54Z</time><name>PT14711</name></trkpt>
<trkpt lat="52.684335" lon="06.003047"><ele>3</ele><time>2022-09-06T17:05:55Z</time><name>PT14712</name></trkpt>
<trkpt lat="52.684341" lon="06.003062"><ele>3</ele><time>2022-09-06T17:05:56Z</time><name>PT14713</name></trkpt>
<trkpt lat="52.684346" lon="06.003076"><ele>3.2</ele><time>2022-09-06T17:05:57Z</time><name>PT14714</name></trkpt>
<trkpt lat="52.684352" lon="06.003090"><ele>3.3</ele><time>2022-09-06T17:05:58Z</time><name>PT14715</name></trkpt>
<trkpt lat="52.684358" lon="06.003103"><ele>3.3</ele><time>2022-09-06T17:05:59Z</time><name>PT14716</name></trkpt>
<trkpt lat="52.684362" lon="06.003115"><ele>3.3</ele><time>2022-09-06T17:06:00Z</time><name>PT14717</name></trkpt></trkseg></trk></gpx>